<?xml version="1.0" encoding="UTF-8" standalone="no" ?>
<gpx xmlns="http://www.topografix.com/GPX/1/1" xmlns:xsi="http://www.w3.org/2001/XMLSchema-instance" xsi:schemaLocation="http://www.topografix.com/GPX/1/1 http://www.topografix.com/GPX/1/1/gpx.xsd" version="1.1" creator="VisuGPX - https://www.visugpx.com">
  <metadata>
    <name>L'Orgeas-Couradour</name>
  </metadata>
  <trk>
    <name><![CDATA[Vélo]]></name>
    <trkseg>
      <trkpt lat="44.18597" lon="6.62553">
        <ele>1450</ele>
        <time>2023-08-07T13:29:51+02:00</time>
      </trkpt>
      <trkpt lat="44.18566" lon="6.62569">
        <ele>1417.9004</ele>
        <time>2023-08-07T13:29:55+02:00</time>
      </trkpt>
      <trkpt lat="44.18557" lon="6.62572">
        <ele>1405.2002</ele>
        <time>2023-08-07T13:29:56+02:00</time>
      </trkpt>
      <trkpt lat="44.1852" lon="6.62583">
        <ele>1376.6006</ele>
        <time>2023-08-07T13:30:00+02:00</time>
      </trkpt>
      <trkpt lat="44.18509" lon="6.62586">
        <ele>1369.1006</ele>
        <time>2023-08-07T13:30:01+02:00</time>
      </trkpt>
      <trkpt lat="44.18296" lon="6.62634">
        <ele>1264.2998</ele>
        <time>2023-08-07T13:30:06+02:00</time>
      </trkpt>
      <trkpt lat="44.18253" lon="6.62643">
        <ele>1249.6006</ele>
        <time>2023-08-07T13:30:07+02:00</time>
      </trkpt>
      <trkpt lat="44.18203" lon="6.62671">
        <ele>1246.5</ele>
        <time>2023-08-07T13:30:11+02:00</time>
      </trkpt>
      <trkpt lat="44.182" lon="6.62675">
        <ele>1246.7998</ele>
        <time>2023-08-07T13:30:12+02:00</time>
      </trkpt>
      <trkpt lat="44.18194" lon="6.62687">
        <ele>1247</ele>
        <time>2023-08-07T13:30:16+02:00</time>
      </trkpt>
      <trkpt lat="44.18194" lon="6.6269">
        <ele>1247</ele>
        <time>2023-08-07T13:30:17+02:00</time>
      </trkpt>
      <trkpt lat="44.18193" lon="6.62697">
        <ele>1247.1006</ele>
        <time>2023-08-07T13:30:21+02:00</time>
      </trkpt>
      <trkpt lat="44.18193" lon="6.62698">
        <ele>1247.1006</ele>
        <time>2023-08-07T13:30:22+02:00</time>
      </trkpt>
      <trkpt lat="44.18191" lon="6.62707">
        <ele>1247.1006</ele>
        <time>2023-08-07T13:30:26+02:00</time>
      </trkpt>
      <trkpt lat="44.1819" lon="6.62709">
        <ele>1247.1006</ele>
        <time>2023-08-07T13:30:27+02:00</time>
      </trkpt>
      <trkpt lat="44.1819" lon="6.62718">
        <ele>1247.1006</ele>
        <time>2023-08-07T13:30:31+02:00</time>
      </trkpt>
      <trkpt lat="44.18191" lon="6.6272">
        <ele>1247.1006</ele>
        <time>2023-08-07T13:30:32+02:00</time>
      </trkpt>
      <trkpt lat="44.18197" lon="6.62732">
        <ele>1247</ele>
        <time>2023-08-07T13:30:36+02:00</time>
      </trkpt>
      <trkpt lat="44.182" lon="6.62736">
        <ele>1247</ele>
        <time>2023-08-07T13:30:37+02:00</time>
      </trkpt>
      <trkpt lat="44.18211" lon="6.62744">
        <ele>1247</ele>
        <time>2023-08-07T13:30:41+02:00</time>
      </trkpt>
      <trkpt lat="44.18214" lon="6.62745">
        <ele>1247</ele>
        <time>2023-08-07T13:30:42+02:00</time>
      </trkpt>
      <trkpt lat="44.18215" lon="6.62758">
        <ele>1247</ele>
        <time>2023-08-07T13:30:46+02:00</time>
      </trkpt>
      <trkpt lat="44.18213" lon="6.6276">
        <ele>1246.6006</ele>
        <time>2023-08-07T13:30:47+02:00</time>
      </trkpt>
      <trkpt lat="44.18206" lon="6.6276">
        <ele>1246.5</ele>
        <time>2023-08-07T13:30:51+02:00</time>
      </trkpt>
      <trkpt lat="44.18205" lon="6.6276">
        <ele>1246.5</ele>
        <time>2023-08-07T13:30:52+02:00</time>
      </trkpt>
      <trkpt lat="44.18194" lon="6.62761">
        <ele>1246.6006</ele>
        <time>2023-08-07T13:30:56+02:00</time>
      </trkpt>
      <trkpt lat="44.18191" lon="6.62761">
        <ele>1246.6006</ele>
        <time>2023-08-07T13:30:57+02:00</time>
      </trkpt>
      <trkpt lat="44.18175" lon="6.62765">
        <ele>1246.6006</ele>
        <time>2023-08-07T13:31:01+02:00</time>
      </trkpt>
      <trkpt lat="44.1817" lon="6.62765">
        <ele>1246.5</ele>
        <time>2023-08-07T13:31:02+02:00</time>
      </trkpt>
      <trkpt lat="44.18153" lon="6.62768">
        <ele>1245.9004</ele>
        <time>2023-08-07T13:31:06+02:00</time>
      </trkpt>
      <trkpt lat="44.18148" lon="6.62768">
        <ele>1245.9004</ele>
        <time>2023-08-07T13:31:07+02:00</time>
      </trkpt>
      <trkpt lat="44.18132" lon="6.62769">
        <ele>1245.9004</ele>
        <time>2023-08-07T13:31:11+02:00</time>
      </trkpt>
      <trkpt lat="44.18128" lon="6.62768">
        <ele>1245.9004</ele>
        <time>2023-08-07T13:31:12+02:00</time>
      </trkpt>
      <trkpt lat="44.18114" lon="6.62754">
        <ele>1246.4004</ele>
        <time>2023-08-07T13:31:16+02:00</time>
      </trkpt>
      <trkpt lat="44.18111" lon="6.62749">
        <ele>1246.7002</ele>
        <time>2023-08-07T13:31:17+02:00</time>
      </trkpt>
      <trkpt lat="44.18096" lon="6.62732">
        <ele>1247.2002</ele>
        <time>2023-08-07T13:31:21+02:00</time>
      </trkpt>
      <trkpt lat="44.18093" lon="6.62727">
        <ele>1247.2002</ele>
        <time>2023-08-07T13:31:22+02:00</time>
      </trkpt>
      <trkpt lat="44.18079" lon="6.62708">
        <ele>1247.5</ele>
        <time>2023-08-07T13:31:26+02:00</time>
      </trkpt>
      <trkpt lat="44.18076" lon="6.62702">
        <ele>1247.6006</ele>
        <time>2023-08-07T13:31:27+02:00</time>
      </trkpt>
      <trkpt lat="44.18066" lon="6.62677">
        <ele>1247.6006</ele>
        <time>2023-08-07T13:31:31+02:00</time>
      </trkpt>
      <trkpt lat="44.18065" lon="6.6267">
        <ele>1247.6006</ele>
        <time>2023-08-07T13:31:32+02:00</time>
      </trkpt>
      <trkpt lat="44.18062" lon="6.62642">
        <ele>1247.2998</ele>
        <time>2023-08-07T13:31:36+02:00</time>
      </trkpt>
      <trkpt lat="44.18061" lon="6.62635">
        <ele>1247.1006</ele>
        <time>2023-08-07T13:31:37+02:00</time>
      </trkpt>
      <trkpt lat="44.18054" lon="6.62609">
        <ele>1246</ele>
        <time>2023-08-07T13:31:41+02:00</time>
      </trkpt>
      <trkpt lat="44.18051" lon="6.62602">
        <ele>1245.7998</ele>
        <time>2023-08-07T13:31:42+02:00</time>
      </trkpt>
      <trkpt lat="44.18033" lon="6.62588">
        <ele>1244.7998</ele>
        <time>2023-08-07T13:31:46+02:00</time>
      </trkpt>
      <trkpt lat="44.18028" lon="6.62586">
        <ele>1244.2998</ele>
        <time>2023-08-07T13:31:47+02:00</time>
      </trkpt>
      <trkpt lat="44.18008" lon="6.62584">
        <ele>1243.4004</ele>
        <time>2023-08-07T13:31:51+02:00</time>
      </trkpt>
      <trkpt lat="44.18002" lon="6.62583">
        <ele>1243.1006</ele>
        <time>2023-08-07T13:31:52+02:00</time>
      </trkpt>
      <trkpt lat="44.17981" lon="6.62577">
        <ele>1242</ele>
        <time>2023-08-07T13:31:56+02:00</time>
      </trkpt>
      <trkpt lat="44.17977" lon="6.62574">
        <ele>1241.7002</ele>
        <time>2023-08-07T13:31:57+02:00</time>
      </trkpt>
      <trkpt lat="44.17969" lon="6.62566">
        <ele>1241.2998</ele>
        <time>2023-08-07T13:32:01+02:00</time>
      </trkpt>
      <trkpt lat="44.17968" lon="6.62565">
        <ele>1241</ele>
        <time>2023-08-07T13:32:02+02:00</time>
      </trkpt>
      <trkpt lat="44.17957" lon="6.62565">
        <ele>1240.7002</ele>
        <time>2023-08-07T13:32:06+02:00</time>
      </trkpt>
      <trkpt lat="44.17954" lon="6.62567">
        <ele>1240.4004</ele>
        <time>2023-08-07T13:32:07+02:00</time>
      </trkpt>
      <trkpt lat="44.17939" lon="6.62574">
        <ele>1240.5</ele>
        <time>2023-08-07T13:32:11+02:00</time>
      </trkpt>
      <trkpt lat="44.17935" lon="6.62575">
        <ele>1240.6006</ele>
        <time>2023-08-07T13:32:12+02:00</time>
      </trkpt>
      <trkpt lat="44.17917" lon="6.62579">
        <ele>1242.9004</ele>
        <time>2023-08-07T13:32:16+02:00</time>
      </trkpt>
      <trkpt lat="44.17913" lon="6.6258">
        <ele>1242.9004</ele>
        <time>2023-08-07T13:32:17+02:00</time>
      </trkpt>
      <trkpt lat="44.17897" lon="6.62578">
        <ele>1245</ele>
        <time>2023-08-07T13:32:21+02:00</time>
      </trkpt>
      <trkpt lat="44.17894" lon="6.62571">
        <ele>1245</ele>
        <time>2023-08-07T13:32:22+02:00</time>
      </trkpt>
      <trkpt lat="44.17887" lon="6.62539">
        <ele>1245.1006</ele>
        <time>2023-08-07T13:32:26+02:00</time>
      </trkpt>
      <trkpt lat="44.17885" lon="6.6253">
        <ele>1244.7998</ele>
        <time>2023-08-07T13:32:27+02:00</time>
      </trkpt>
      <trkpt lat="44.17874" lon="6.62492">
        <ele>1244.1006</ele>
        <time>2023-08-07T13:32:31+02:00</time>
      </trkpt>
      <trkpt lat="44.17871" lon="6.62482">
        <ele>1243.6006</ele>
        <time>2023-08-07T13:32:32+02:00</time>
      </trkpt>
      <trkpt lat="44.17861" lon="6.62442">
        <ele>1243.2002</ele>
        <time>2023-08-07T13:32:36+02:00</time>
      </trkpt>
      <trkpt lat="44.17859" lon="6.62432">
        <ele>1242</ele>
        <time>2023-08-07T13:32:37+02:00</time>
      </trkpt>
      <trkpt lat="44.17852" lon="6.6239">
        <ele>1240.2002</ele>
        <time>2023-08-07T13:32:41+02:00</time>
      </trkpt>
      <trkpt lat="44.1785" lon="6.62379">
        <ele>1239.5</ele>
        <time>2023-08-07T13:32:42+02:00</time>
      </trkpt>
      <trkpt lat="44.17835" lon="6.62338">
        <ele>1238.5</ele>
        <time>2023-08-07T13:32:46+02:00</time>
      </trkpt>
      <trkpt lat="44.17829" lon="6.6233">
        <ele>1239.2002</ele>
        <time>2023-08-07T13:32:47+02:00</time>
      </trkpt>
      <trkpt lat="44.17808" lon="6.623">
        <ele>1241.2998</ele>
        <time>2023-08-07T13:32:51+02:00</time>
      </trkpt>
      <trkpt lat="44.17805" lon="6.62292">
        <ele>1242.4004</ele>
        <time>2023-08-07T13:32:52+02:00</time>
      </trkpt>
      <trkpt lat="44.17795" lon="6.62259">
        <ele>1242</ele>
        <time>2023-08-07T13:32:56+02:00</time>
      </trkpt>
      <trkpt lat="44.17792" lon="6.62251">
        <ele>1241.1006</ele>
        <time>2023-08-07T13:32:57+02:00</time>
      </trkpt>
      <trkpt lat="44.17786" lon="6.62222">
        <ele>1240.2998</ele>
        <time>2023-08-07T13:33:01+02:00</time>
      </trkpt>
      <trkpt lat="44.17786" lon="6.62216">
        <ele>1239.5</ele>
        <time>2023-08-07T13:33:02+02:00</time>
      </trkpt>
      <trkpt lat="44.17787" lon="6.62197">
        <ele>1237.7002</ele>
        <time>2023-08-07T13:33:06+02:00</time>
      </trkpt>
      <trkpt lat="44.17787" lon="6.62194">
        <ele>1237.7002</ele>
        <time>2023-08-07T13:33:07+02:00</time>
      </trkpt>
      <trkpt lat="44.17781" lon="6.62184">
        <ele>1238.2998</ele>
        <time>2023-08-07T13:33:11+02:00</time>
      </trkpt>
      <trkpt lat="44.17778" lon="6.62182">
        <ele>1237.2998</ele>
        <time>2023-08-07T13:33:12+02:00</time>
      </trkpt>
      <trkpt lat="44.17768" lon="6.62178">
        <ele>1240.1006</ele>
        <time>2023-08-07T13:33:16+02:00</time>
      </trkpt>
      <trkpt lat="44.17765" lon="6.62178">
        <ele>1240.1006</ele>
        <time>2023-08-07T13:33:17+02:00</time>
      </trkpt>
      <trkpt lat="44.17756" lon="6.62175">
        <ele>1241.7002</ele>
        <time>2023-08-07T13:33:21+02:00</time>
      </trkpt>
      <trkpt lat="44.17753" lon="6.62173">
        <ele>1241.7002</ele>
        <time>2023-08-07T13:33:22+02:00</time>
      </trkpt>
      <trkpt lat="44.17744" lon="6.62164">
        <ele>1243</ele>
        <time>2023-08-07T13:33:26+02:00</time>
      </trkpt>
      <trkpt lat="44.17741" lon="6.62163">
        <ele>1243</ele>
        <time>2023-08-07T13:33:27+02:00</time>
      </trkpt>
      <trkpt lat="44.17731" lon="6.62161">
        <ele>1245.2998</ele>
        <time>2023-08-07T13:33:31+02:00</time>
      </trkpt>
      <trkpt lat="44.17729" lon="6.62161">
        <ele>1245.2998</ele>
        <time>2023-08-07T13:33:32+02:00</time>
      </trkpt>
      <trkpt lat="44.1772" lon="6.62157">
        <ele>1246.1006</ele>
        <time>2023-08-07T13:33:36+02:00</time>
      </trkpt>
      <trkpt lat="44.17717" lon="6.62156">
        <ele>1246.1006</ele>
        <time>2023-08-07T13:33:37+02:00</time>
      </trkpt>
      <trkpt lat="44.17708" lon="6.62154">
        <ele>1248</ele>
        <time>2023-08-07T13:33:41+02:00</time>
      </trkpt>
      <trkpt lat="44.17706" lon="6.62153">
        <ele>1248</ele>
        <time>2023-08-07T13:33:42+02:00</time>
      </trkpt>
      <trkpt lat="44.17697" lon="6.62153">
        <ele>1249.7002</ele>
        <time>2023-08-07T13:33:46+02:00</time>
      </trkpt>
      <trkpt lat="44.17694" lon="6.62152">
        <ele>1249.7002</ele>
        <time>2023-08-07T13:33:47+02:00</time>
      </trkpt>
      <trkpt lat="44.17685" lon="6.62146">
        <ele>1249</ele>
        <time>2023-08-07T13:33:51+02:00</time>
      </trkpt>
      <trkpt lat="44.17683" lon="6.62144">
        <ele>1249.6006</ele>
        <time>2023-08-07T13:33:52+02:00</time>
      </trkpt>
      <trkpt lat="44.17672" lon="6.6214">
        <ele>1249.2998</ele>
        <time>2023-08-07T13:33:56+02:00</time>
      </trkpt>
      <trkpt lat="44.17669" lon="6.62138">
        <ele>1249.2998</ele>
        <time>2023-08-07T13:33:57+02:00</time>
      </trkpt>
      <trkpt lat="44.17662" lon="6.62127">
        <ele>1248.4004</ele>
        <time>2023-08-07T13:34:01+02:00</time>
      </trkpt>
      <trkpt lat="44.1766" lon="6.62123">
        <ele>1247.4004</ele>
        <time>2023-08-07T13:34:02+02:00</time>
      </trkpt>
      <trkpt lat="44.17652" lon="6.62106">
        <ele>1245.2998</ele>
        <time>2023-08-07T13:34:06+02:00</time>
      </trkpt>
      <trkpt lat="44.17649" lon="6.62101">
        <ele>1245.2998</ele>
        <time>2023-08-07T13:34:07+02:00</time>
      </trkpt>
      <trkpt lat="44.17637" lon="6.62085">
        <ele>1243.9004</ele>
        <time>2023-08-07T13:34:11+02:00</time>
      </trkpt>
      <trkpt lat="44.17633" lon="6.62081">
        <ele>1243.9004</ele>
        <time>2023-08-07T13:34:12+02:00</time>
      </trkpt>
      <trkpt lat="44.17622" lon="6.62061">
        <ele>1242.1006</ele>
        <time>2023-08-07T13:34:16+02:00</time>
      </trkpt>
      <trkpt lat="44.1762" lon="6.62055">
        <ele>1242.1006</ele>
        <time>2023-08-07T13:34:17+02:00</time>
      </trkpt>
      <trkpt lat="44.17605" lon="6.62039">
        <ele>1240.2002</ele>
        <time>2023-08-07T13:34:21+02:00</time>
      </trkpt>
      <trkpt lat="44.176" lon="6.62036">
        <ele>1239</ele>
        <time>2023-08-07T13:34:22+02:00</time>
      </trkpt>
      <trkpt lat="44.17583" lon="6.62033">
        <ele>1237.1006</ele>
        <time>2023-08-07T13:34:26+02:00</time>
      </trkpt>
      <trkpt lat="44.17579" lon="6.62036">
        <ele>1236.5</ele>
        <time>2023-08-07T13:34:27+02:00</time>
      </trkpt>
      <trkpt lat="44.17558" lon="6.62045">
        <ele>1235.6006</ele>
        <time>2023-08-07T13:34:31+02:00</time>
      </trkpt>
      <trkpt lat="44.17553" lon="6.62042">
        <ele>1235.1006</ele>
        <time>2023-08-07T13:34:32+02:00</time>
      </trkpt>
      <trkpt lat="44.17534" lon="6.62014">
        <ele>1232.2998</ele>
        <time>2023-08-07T13:34:36+02:00</time>
      </trkpt>
      <trkpt lat="44.1753" lon="6.62007">
        <ele>1231.4004</ele>
        <time>2023-08-07T13:34:37+02:00</time>
      </trkpt>
      <trkpt lat="44.17517" lon="6.61986">
        <ele>1229.7002</ele>
        <time>2023-08-07T13:34:41+02:00</time>
      </trkpt>
      <trkpt lat="44.17514" lon="6.61981">
        <ele>1229.2998</ele>
        <time>2023-08-07T13:34:42+02:00</time>
      </trkpt>
      <trkpt lat="44.17503" lon="6.61954">
        <ele>1227.1006</ele>
        <time>2023-08-07T13:34:46+02:00</time>
      </trkpt>
      <trkpt lat="44.17499" lon="6.61946">
        <ele>1226.4004</ele>
        <time>2023-08-07T13:34:47+02:00</time>
      </trkpt>
      <trkpt lat="44.17485" lon="6.61912">
        <ele>1223.9004</ele>
        <time>2023-08-07T13:34:51+02:00</time>
      </trkpt>
      <trkpt lat="44.17484" lon="6.61903">
        <ele>1223.4004</ele>
        <time>2023-08-07T13:34:52+02:00</time>
      </trkpt>
      <trkpt lat="44.17484" lon="6.61871">
        <ele>1221.6006</ele>
        <time>2023-08-07T13:34:56+02:00</time>
      </trkpt>
      <trkpt lat="44.17481" lon="6.61864">
        <ele>1221</ele>
        <time>2023-08-07T13:34:57+02:00</time>
      </trkpt>
      <trkpt lat="44.17462" lon="6.61835">
        <ele>1219.4004</ele>
        <time>2023-08-07T13:35:01+02:00</time>
      </trkpt>
      <trkpt lat="44.17455" lon="6.6183">
        <ele>1218.7998</ele>
        <time>2023-08-07T13:35:02+02:00</time>
      </trkpt>
      <trkpt lat="44.17431" lon="6.61817">
        <ele>1217.9004</ele>
        <time>2023-08-07T13:35:06+02:00</time>
      </trkpt>
      <trkpt lat="44.17425" lon="6.61815">
        <ele>1217.7998</ele>
        <time>2023-08-07T13:35:07+02:00</time>
      </trkpt>
      <trkpt lat="44.17402" lon="6.61808">
        <ele>1217.6006</ele>
        <time>2023-08-07T13:35:11+02:00</time>
      </trkpt>
      <trkpt lat="44.17397" lon="6.61807">
        <ele>1217.6006</ele>
        <time>2023-08-07T13:35:12+02:00</time>
      </trkpt>
      <trkpt lat="44.17376" lon="6.61807">
        <ele>1217.5</ele>
        <time>2023-08-07T13:35:16+02:00</time>
      </trkpt>
      <trkpt lat="44.1737" lon="6.61807">
        <ele>1217.6006</ele>
        <time>2023-08-07T13:35:17+02:00</time>
      </trkpt>
      <trkpt lat="44.17346" lon="6.61808">
        <ele>1218.6006</ele>
        <time>2023-08-07T13:35:21+02:00</time>
      </trkpt>
      <trkpt lat="44.1734" lon="6.61808">
        <ele>1219.1006</ele>
        <time>2023-08-07T13:35:22+02:00</time>
      </trkpt>
      <trkpt lat="44.17316" lon="6.61815">
        <ele>1221.7998</ele>
        <time>2023-08-07T13:35:26+02:00</time>
      </trkpt>
      <trkpt lat="44.1731" lon="6.61817">
        <ele>1222.4004</ele>
        <time>2023-08-07T13:35:27+02:00</time>
      </trkpt>
      <trkpt lat="44.17286" lon="6.61822">
        <ele>1224.2002</ele>
        <time>2023-08-07T13:35:31+02:00</time>
      </trkpt>
      <trkpt lat="44.1728" lon="6.6182">
        <ele>1224.4004</ele>
        <time>2023-08-07T13:35:32+02:00</time>
      </trkpt>
      <trkpt lat="44.17257" lon="6.6181">
        <ele>1224.4004</ele>
        <time>2023-08-07T13:35:36+02:00</time>
      </trkpt>
      <trkpt lat="44.17252" lon="6.61807">
        <ele>1224.4004</ele>
        <time>2023-08-07T13:35:37+02:00</time>
      </trkpt>
      <trkpt lat="44.17235" lon="6.61796">
        <ele>1222</ele>
        <time>2023-08-07T13:35:41+02:00</time>
      </trkpt>
      <trkpt lat="44.17231" lon="6.61795">
        <ele>1222</ele>
        <time>2023-08-07T13:35:42+02:00</time>
      </trkpt>
      <trkpt lat="44.17216" lon="6.61787">
        <ele>1220.5</ele>
        <time>2023-08-07T13:35:46+02:00</time>
      </trkpt>
      <trkpt lat="44.17212" lon="6.61785">
        <ele>1220.5</ele>
        <time>2023-08-07T13:35:47+02:00</time>
      </trkpt>
      <trkpt lat="44.17198" lon="6.61779">
        <ele>1219.6006</ele>
        <time>2023-08-07T13:35:51+02:00</time>
      </trkpt>
      <trkpt lat="44.17194" lon="6.61778">
        <ele>1219.6006</ele>
        <time>2023-08-07T13:35:52+02:00</time>
      </trkpt>
      <trkpt lat="44.17181" lon="6.61777">
        <ele>1219.6006</ele>
        <time>2023-08-07T13:35:56+02:00</time>
      </trkpt>
      <trkpt lat="44.17178" lon="6.61778">
        <ele>1219.5</ele>
        <time>2023-08-07T13:35:57+02:00</time>
      </trkpt>
      <trkpt lat="44.17168" lon="6.61781">
        <ele>1220.1006</ele>
        <time>2023-08-07T13:36:01+02:00</time>
      </trkpt>
      <trkpt lat="44.17165" lon="6.61781">
        <ele>1220.1006</ele>
        <time>2023-08-07T13:36:02+02:00</time>
      </trkpt>
      <trkpt lat="44.17151" lon="6.61781">
        <ele>1220.2998</ele>
        <time>2023-08-07T13:36:06+02:00</time>
      </trkpt>
      <trkpt lat="44.17147" lon="6.61781">
        <ele>1220.5</ele>
        <time>2023-08-07T13:36:07+02:00</time>
      </trkpt>
      <trkpt lat="44.17133" lon="6.61783">
        <ele>1221.1006</ele>
        <time>2023-08-07T13:36:11+02:00</time>
      </trkpt>
      <trkpt lat="44.1713" lon="6.61785">
        <ele>1221.4004</ele>
        <time>2023-08-07T13:36:12+02:00</time>
      </trkpt>
      <trkpt lat="44.17116" lon="6.61796">
        <ele>1223.2002</ele>
        <time>2023-08-07T13:36:16+02:00</time>
      </trkpt>
      <trkpt lat="44.17113" lon="6.61799">
        <ele>1224.4004</ele>
        <time>2023-08-07T13:36:17+02:00</time>
      </trkpt>
      <trkpt lat="44.17101" lon="6.61811">
        <ele>1227.6006</ele>
        <time>2023-08-07T13:36:21+02:00</time>
      </trkpt>
      <trkpt lat="44.17098" lon="6.61814">
        <ele>1228.7998</ele>
        <time>2023-08-07T13:36:22+02:00</time>
      </trkpt>
      <trkpt lat="44.17087" lon="6.61822">
        <ele>1233</ele>
        <time>2023-08-07T13:36:26+02:00</time>
      </trkpt>
      <trkpt lat="44.17084" lon="6.61823">
        <ele>1233</ele>
        <time>2023-08-07T13:36:27+02:00</time>
      </trkpt>
      <trkpt lat="44.17069" lon="6.6182">
        <ele>1235.7998</ele>
        <time>2023-08-07T13:36:31+02:00</time>
      </trkpt>
      <trkpt lat="44.17066" lon="6.61819">
        <ele>1237.1006</ele>
        <time>2023-08-07T13:36:32+02:00</time>
      </trkpt>
      <trkpt lat="44.17054" lon="6.61812">
        <ele>1237.6006</ele>
        <time>2023-08-07T13:36:36+02:00</time>
      </trkpt>
      <trkpt lat="44.17051" lon="6.6181">
        <ele>1237.6006</ele>
        <time>2023-08-07T13:36:37+02:00</time>
      </trkpt>
      <trkpt lat="44.17042" lon="6.61806">
        <ele>1239.9004</ele>
        <time>2023-08-07T13:36:41+02:00</time>
      </trkpt>
      <trkpt lat="44.1704" lon="6.61805">
        <ele>1237.9004</ele>
        <time>2023-08-07T13:36:42+02:00</time>
      </trkpt>
      <trkpt lat="44.17032" lon="6.61799">
        <ele>1238.9004</ele>
        <time>2023-08-07T13:36:46+02:00</time>
      </trkpt>
      <trkpt lat="44.1703" lon="6.61798">
        <ele>1239.9004</ele>
        <time>2023-08-07T13:36:47+02:00</time>
      </trkpt>
      <trkpt lat="44.1702" lon="6.61798">
        <ele>1241.7998</ele>
        <time>2023-08-07T13:36:51+02:00</time>
      </trkpt>
      <trkpt lat="44.17017" lon="6.61798">
        <ele>1241.7998</ele>
        <time>2023-08-07T13:36:52+02:00</time>
      </trkpt>
      <trkpt lat="44.17007" lon="6.61794">
        <ele>1241.4004</ele>
        <time>2023-08-07T13:36:56+02:00</time>
      </trkpt>
      <trkpt lat="44.17005" lon="6.61793">
        <ele>1241.4004</ele>
        <time>2023-08-07T13:36:57+02:00</time>
      </trkpt>
      <trkpt lat="44.16996" lon="6.61788">
        <ele>1240.1006</ele>
        <time>2023-08-07T13:37:01+02:00</time>
      </trkpt>
      <trkpt lat="44.16994" lon="6.61786">
        <ele>1240.9004</ele>
        <time>2023-08-07T13:37:02+02:00</time>
      </trkpt>
      <trkpt lat="44.16984" lon="6.61782">
        <ele>1241.7002</ele>
        <time>2023-08-07T13:37:06+02:00</time>
      </trkpt>
      <trkpt lat="44.16982" lon="6.61781">
        <ele>1242.4004</ele>
        <time>2023-08-07T13:37:07+02:00</time>
      </trkpt>
      <trkpt lat="44.16972" lon="6.61778">
        <ele>1240.9004</ele>
        <time>2023-08-07T13:37:11+02:00</time>
      </trkpt>
      <trkpt lat="44.1697" lon="6.61777">
        <ele>1241.5</ele>
        <time>2023-08-07T13:37:12+02:00</time>
      </trkpt>
      <trkpt lat="44.16961" lon="6.61773">
        <ele>1242</ele>
        <time>2023-08-07T13:37:16+02:00</time>
      </trkpt>
      <trkpt lat="44.16959" lon="6.61772">
        <ele>1242</ele>
        <time>2023-08-07T13:37:17+02:00</time>
      </trkpt>
      <trkpt lat="44.16951" lon="6.6177">
        <ele>1240.7998</ele>
        <time>2023-08-07T13:37:21+02:00</time>
      </trkpt>
      <trkpt lat="44.16949" lon="6.61769">
        <ele>1240.7998</ele>
        <time>2023-08-07T13:37:22+02:00</time>
      </trkpt>
      <trkpt lat="44.1694" lon="6.61769">
        <ele>1241.7002</ele>
        <time>2023-08-07T13:37:26+02:00</time>
      </trkpt>
      <trkpt lat="44.16938" lon="6.6177">
        <ele>1241.7002</ele>
        <time>2023-08-07T13:37:27+02:00</time>
      </trkpt>
      <trkpt lat="44.16929" lon="6.61773">
        <ele>1244.2998</ele>
        <time>2023-08-07T13:37:31+02:00</time>
      </trkpt>
      <trkpt lat="44.16926" lon="6.61775">
        <ele>1244.7998</ele>
        <time>2023-08-07T13:37:32+02:00</time>
      </trkpt>
      <trkpt lat="44.16916" lon="6.61779">
        <ele>1245.2998</ele>
        <time>2023-08-07T13:37:36+02:00</time>
      </trkpt>
      <trkpt lat="44.16913" lon="6.61779">
        <ele>1245.7998</ele>
        <time>2023-08-07T13:37:37+02:00</time>
      </trkpt>
      <trkpt lat="44.16902" lon="6.61782">
        <ele>1249.2998</ele>
        <time>2023-08-07T13:37:41+02:00</time>
      </trkpt>
      <trkpt lat="44.16898" lon="6.61783">
        <ele>1249.2998</ele>
        <time>2023-08-07T13:37:42+02:00</time>
      </trkpt>
      <trkpt lat="44.16886" lon="6.61781">
        <ele>1250.7002</ele>
        <time>2023-08-07T13:37:46+02:00</time>
      </trkpt>
      <trkpt lat="44.16883" lon="6.6178">
        <ele>1248.9004</ele>
        <time>2023-08-07T13:37:47+02:00</time>
      </trkpt>
      <trkpt lat="44.16873" lon="6.61777">
        <ele>1249.6006</ele>
        <time>2023-08-07T13:37:51+02:00</time>
      </trkpt>
      <trkpt lat="44.1687" lon="6.61776">
        <ele>1250.2998</ele>
        <time>2023-08-07T13:37:52+02:00</time>
      </trkpt>
      <trkpt lat="44.1686" lon="6.61771">
        <ele>1248.5</ele>
        <time>2023-08-07T13:37:56+02:00</time>
      </trkpt>
      <trkpt lat="44.16857" lon="6.6177">
        <ele>1249.4004</ele>
        <time>2023-08-07T13:37:57+02:00</time>
      </trkpt>
      <trkpt lat="44.16846" lon="6.61767">
        <ele>1251.2002</ele>
        <time>2023-08-07T13:38:01+02:00</time>
      </trkpt>
      <trkpt lat="44.16843" lon="6.61766">
        <ele>1251.2002</ele>
        <time>2023-08-07T13:38:02+02:00</time>
      </trkpt>
      <trkpt lat="44.16833" lon="6.61761">
        <ele>1250</ele>
        <time>2023-08-07T13:38:06+02:00</time>
      </trkpt>
      <trkpt lat="44.16831" lon="6.6176">
        <ele>1250</ele>
        <time>2023-08-07T13:38:07+02:00</time>
      </trkpt>
      <trkpt lat="44.1682" lon="6.61753">
        <ele>1248.6006</ele>
        <time>2023-08-07T13:38:11+02:00</time>
      </trkpt>
      <trkpt lat="44.16817" lon="6.61751">
        <ele>1248.6006</ele>
        <time>2023-08-07T13:38:12+02:00</time>
      </trkpt>
      <trkpt lat="44.16808" lon="6.61744">
        <ele>1247.2002</ele>
        <time>2023-08-07T13:38:16+02:00</time>
      </trkpt>
      <trkpt lat="44.16806" lon="6.61743">
        <ele>1247.2002</ele>
        <time>2023-08-07T13:38:17+02:00</time>
      </trkpt>
      <trkpt lat="44.16796" lon="6.6174">
        <ele>1248.6006</ele>
        <time>2023-08-07T13:38:21+02:00</time>
      </trkpt>
      <trkpt lat="44.16794" lon="6.61739">
        <ele>1248.6006</ele>
        <time>2023-08-07T13:38:22+02:00</time>
      </trkpt>
      <trkpt lat="44.16784" lon="6.6174">
        <ele>1250</ele>
        <time>2023-08-07T13:38:26+02:00</time>
      </trkpt>
      <trkpt lat="44.16782" lon="6.61741">
        <ele>1250</ele>
        <time>2023-08-07T13:38:27+02:00</time>
      </trkpt>
      <trkpt lat="44.16771" lon="6.61746">
        <ele>1254.2998</ele>
        <time>2023-08-07T13:38:31+02:00</time>
      </trkpt>
      <trkpt lat="44.16769" lon="6.61747">
        <ele>1254.2998</ele>
        <time>2023-08-07T13:38:32+02:00</time>
      </trkpt>
      <trkpt lat="44.16757" lon="6.61746">
        <ele>1255.6006</ele>
        <time>2023-08-07T13:38:36+02:00</time>
      </trkpt>
      <trkpt lat="44.16754" lon="6.61747">
        <ele>1256.2998</ele>
        <time>2023-08-07T13:38:37+02:00</time>
      </trkpt>
      <trkpt lat="44.16744" lon="6.61755">
        <ele>1259.7002</ele>
        <time>2023-08-07T13:38:41+02:00</time>
      </trkpt>
      <trkpt lat="44.16742" lon="6.61758">
        <ele>1260.2002</ele>
        <time>2023-08-07T13:38:42+02:00</time>
      </trkpt>
      <trkpt lat="44.16732" lon="6.6177">
        <ele>1263.6006</ele>
        <time>2023-08-07T13:38:46+02:00</time>
      </trkpt>
      <trkpt lat="44.1673" lon="6.61772">
        <ele>1264.2002</ele>
        <time>2023-08-07T13:38:47+02:00</time>
      </trkpt>
      <trkpt lat="44.16722" lon="6.61773">
        <ele>1267.7002</ele>
        <time>2023-08-07T13:38:51+02:00</time>
      </trkpt>
      <trkpt lat="44.1672" lon="6.61772">
        <ele>1264.7998</ele>
        <time>2023-08-07T13:38:52+02:00</time>
      </trkpt>
      <trkpt lat="44.16709" lon="6.61767">
        <ele>1266</ele>
        <time>2023-08-07T13:38:56+02:00</time>
      </trkpt>
      <trkpt lat="44.16706" lon="6.61767">
        <ele>1266</ele>
        <time>2023-08-07T13:38:57+02:00</time>
      </trkpt>
      <trkpt lat="44.16696" lon="6.61764">
        <ele>1267.4004</ele>
        <time>2023-08-07T13:39:01+02:00</time>
      </trkpt>
      <trkpt lat="44.16694" lon="6.61763">
        <ele>1265</ele>
        <time>2023-08-07T13:39:02+02:00</time>
      </trkpt>
      <trkpt lat="44.16684" lon="6.61756">
        <ele>1265.7002</ele>
        <time>2023-08-07T13:39:06+02:00</time>
      </trkpt>
      <trkpt lat="44.16682" lon="6.61754">
        <ele>1262.6006</ele>
        <time>2023-08-07T13:39:07+02:00</time>
      </trkpt>
      <trkpt lat="44.16672" lon="6.61747">
        <ele>1263.9004</ele>
        <time>2023-08-07T13:39:11+02:00</time>
      </trkpt>
      <trkpt lat="44.1667" lon="6.61745">
        <ele>1260.9004</ele>
        <time>2023-08-07T13:39:12+02:00</time>
      </trkpt>
      <trkpt lat="44.1666" lon="6.61741">
        <ele>1262.2002</ele>
        <time>2023-08-07T13:39:16+02:00</time>
      </trkpt>
      <trkpt lat="44.16658" lon="6.6174">
        <ele>1262.2002</ele>
        <time>2023-08-07T13:39:17+02:00</time>
      </trkpt>
      <trkpt lat="44.16647" lon="6.6174">
        <ele>1263.5</ele>
        <time>2023-08-07T13:39:21+02:00</time>
      </trkpt>
      <trkpt lat="44.16644" lon="6.61741">
        <ele>1264.2998</ele>
        <time>2023-08-07T13:39:22+02:00</time>
      </trkpt>
      <trkpt lat="44.16633" lon="6.61743">
        <ele>1265</ele>
        <time>2023-08-07T13:39:26+02:00</time>
      </trkpt>
      <trkpt lat="44.16631" lon="6.61744">
        <ele>1265.9004</ele>
        <time>2023-08-07T13:39:27+02:00</time>
      </trkpt>
      <trkpt lat="44.16621" lon="6.61745">
        <ele>1266.7002</ele>
        <time>2023-08-07T13:39:31+02:00</time>
      </trkpt>
      <trkpt lat="44.16618" lon="6.61745">
        <ele>1267.6006</ele>
        <time>2023-08-07T13:39:32+02:00</time>
      </trkpt>
      <trkpt lat="44.16608" lon="6.61748">
        <ele>1271.1006</ele>
        <time>2023-08-07T13:39:36+02:00</time>
      </trkpt>
      <trkpt lat="44.16606" lon="6.6175">
        <ele>1271.9004</ele>
        <time>2023-08-07T13:39:37+02:00</time>
      </trkpt>
      <trkpt lat="44.16596" lon="6.61758">
        <ele>1275.2998</ele>
        <time>2023-08-07T13:39:41+02:00</time>
      </trkpt>
      <trkpt lat="44.16594" lon="6.6176">
        <ele>1276.1006</ele>
        <time>2023-08-07T13:39:42+02:00</time>
      </trkpt>
      <trkpt lat="44.16587" lon="6.6177">
        <ele>1279.5</ele>
        <time>2023-08-07T13:39:46+02:00</time>
      </trkpt>
      <trkpt lat="44.16586" lon="6.61772">
        <ele>1282.2002</ele>
        <time>2023-08-07T13:39:47+02:00</time>
      </trkpt>
      <trkpt lat="44.16578" lon="6.61779">
        <ele>1283.2002</ele>
        <time>2023-08-07T13:39:51+02:00</time>
      </trkpt>
      <trkpt lat="44.16576" lon="6.6178">
        <ele>1284.2002</ele>
        <time>2023-08-07T13:39:52+02:00</time>
      </trkpt>
      <trkpt lat="44.16565" lon="6.61776">
        <ele>1284.9004</ele>
        <time>2023-08-07T13:39:56+02:00</time>
      </trkpt>
      <trkpt lat="44.16562" lon="6.61774">
        <ele>1285.4004</ele>
        <time>2023-08-07T13:39:57+02:00</time>
      </trkpt>
      <trkpt lat="44.16553" lon="6.61769">
        <ele>1283.6006</ele>
        <time>2023-08-07T13:40:01+02:00</time>
      </trkpt>
      <trkpt lat="44.16551" lon="6.61768">
        <ele>1284.4004</ele>
        <time>2023-08-07T13:40:02+02:00</time>
      </trkpt>
      <trkpt lat="44.16541" lon="6.61764">
        <ele>1285.2998</ele>
        <time>2023-08-07T13:40:06+02:00</time>
      </trkpt>
      <trkpt lat="44.16538" lon="6.61762">
        <ele>1283.7998</ele>
        <time>2023-08-07T13:40:07+02:00</time>
      </trkpt>
      <trkpt lat="44.16529" lon="6.61757">
        <ele>1284.6006</ele>
        <time>2023-08-07T13:40:11+02:00</time>
      </trkpt>
      <trkpt lat="44.16526" lon="6.61755">
        <ele>1285.6006</ele>
        <time>2023-08-07T13:40:12+02:00</time>
      </trkpt>
      <trkpt lat="44.16516" lon="6.6175">
        <ele>1284.4004</ele>
        <time>2023-08-07T13:40:16+02:00</time>
      </trkpt>
      <trkpt lat="44.16514" lon="6.61748">
        <ele>1285.9004</ele>
        <time>2023-08-07T13:40:17+02:00</time>
      </trkpt>
      <trkpt lat="44.16505" lon="6.61742">
        <ele>1285</ele>
        <time>2023-08-07T13:40:21+02:00</time>
      </trkpt>
      <trkpt lat="44.16503" lon="6.61741">
        <ele>1285</ele>
        <time>2023-08-07T13:40:22+02:00</time>
      </trkpt>
      <trkpt lat="44.16494" lon="6.61736">
        <ele>1286</ele>
        <time>2023-08-07T13:40:26+02:00</time>
      </trkpt>
      <trkpt lat="44.16492" lon="6.61735">
        <ele>1286</ele>
        <time>2023-08-07T13:40:27+02:00</time>
      </trkpt>
      <trkpt lat="44.16485" lon="6.61731">
        <ele>1287.7998</ele>
        <time>2023-08-07T13:40:31+02:00</time>
      </trkpt>
      <trkpt lat="44.16483" lon="6.61729">
        <ele>1289.7002</ele>
        <time>2023-08-07T13:40:32+02:00</time>
      </trkpt>
      <trkpt lat="44.16475" lon="6.61723">
        <ele>1289.2002</ele>
        <time>2023-08-07T13:40:36+02:00</time>
      </trkpt>
      <trkpt lat="44.16472" lon="6.61722">
        <ele>1289.2002</ele>
        <time>2023-08-07T13:40:37+02:00</time>
      </trkpt>
      <trkpt lat="44.16461" lon="6.61718">
        <ele>1290.9004</ele>
        <time>2023-08-07T13:40:41+02:00</time>
      </trkpt>
      <trkpt lat="44.16458" lon="6.61717">
        <ele>1293</ele>
        <time>2023-08-07T13:40:42+02:00</time>
      </trkpt>
      <trkpt lat="44.16447" lon="6.61715">
        <ele>1297.2998</ele>
        <time>2023-08-07T13:40:46+02:00</time>
      </trkpt>
      <trkpt lat="44.16444" lon="6.61714">
        <ele>1297.2998</ele>
        <time>2023-08-07T13:40:47+02:00</time>
      </trkpt>
      <trkpt lat="44.16433" lon="6.61713">
        <ele>1301.6006</ele>
        <time>2023-08-07T13:40:51+02:00</time>
      </trkpt>
      <trkpt lat="44.16431" lon="6.61713">
        <ele>1301.6006</ele>
        <time>2023-08-07T13:40:52+02:00</time>
      </trkpt>
      <trkpt lat="44.16422" lon="6.6171">
        <ele>1303.1006</ele>
        <time>2023-08-07T13:40:56+02:00</time>
      </trkpt>
      <trkpt lat="44.16419" lon="6.61708">
        <ele>1303.1006</ele>
        <time>2023-08-07T13:40:57+02:00</time>
      </trkpt>
      <trkpt lat="44.16411" lon="6.61703">
        <ele>1305</ele>
        <time>2023-08-07T13:41:01+02:00</time>
      </trkpt>
      <trkpt lat="44.16409" lon="6.61702">
        <ele>1304.4004</ele>
        <time>2023-08-07T13:41:02+02:00</time>
      </trkpt>
      <trkpt lat="44.164" lon="6.61697">
        <ele>1306.4004</ele>
        <time>2023-08-07T13:41:06+02:00</time>
      </trkpt>
      <trkpt lat="44.16397" lon="6.61695">
        <ele>1308.2998</ele>
        <time>2023-08-07T13:41:07+02:00</time>
      </trkpt>
      <trkpt lat="44.16387" lon="6.61691">
        <ele>1307.4004</ele>
        <time>2023-08-07T13:41:11+02:00</time>
      </trkpt>
      <trkpt lat="44.16385" lon="6.6169">
        <ele>1309.1006</ele>
        <time>2023-08-07T13:41:12+02:00</time>
      </trkpt>
      <trkpt lat="44.16375" lon="6.61686">
        <ele>1310.5</ele>
        <time>2023-08-07T13:41:16+02:00</time>
      </trkpt>
      <trkpt lat="44.16373" lon="6.61685">
        <ele>1309.4004</ele>
        <time>2023-08-07T13:41:17+02:00</time>
      </trkpt>
      <trkpt lat="44.16364" lon="6.6168">
        <ele>1310.7998</ele>
        <time>2023-08-07T13:41:21+02:00</time>
      </trkpt>
      <trkpt lat="44.16362" lon="6.61678">
        <ele>1310.7998</ele>
        <time>2023-08-07T13:41:22+02:00</time>
      </trkpt>
      <trkpt lat="44.16353" lon="6.61674">
        <ele>1311.2002</ele>
        <time>2023-08-07T13:41:26+02:00</time>
      </trkpt>
      <trkpt lat="44.1635" lon="6.61673">
        <ele>1311.2002</ele>
        <time>2023-08-07T13:41:27+02:00</time>
      </trkpt>
      <trkpt lat="44.16341" lon="6.61669">
        <ele>1311.5</ele>
        <time>2023-08-07T13:41:31+02:00</time>
      </trkpt>
      <trkpt lat="44.16338" lon="6.61667">
        <ele>1311.5</ele>
        <time>2023-08-07T13:41:32+02:00</time>
      </trkpt>
      <trkpt lat="44.1633" lon="6.6166">
        <ele>1311.6006</ele>
        <time>2023-08-07T13:41:36+02:00</time>
      </trkpt>
      <trkpt lat="44.16328" lon="6.61658">
        <ele>1311.6006</ele>
        <time>2023-08-07T13:41:37+02:00</time>
      </trkpt>
      <trkpt lat="44.16319" lon="6.61652">
        <ele>1310.4004</ele>
        <time>2023-08-07T13:41:41+02:00</time>
      </trkpt>
      <trkpt lat="44.16317" lon="6.6165">
        <ele>1311.5</ele>
        <time>2023-08-07T13:41:42+02:00</time>
      </trkpt>
      <trkpt lat="44.16307" lon="6.61644">
        <ele>1312.6006</ele>
        <time>2023-08-07T13:41:46+02:00</time>
      </trkpt>
      <trkpt lat="44.16305" lon="6.61642">
        <ele>1311.2002</ele>
        <time>2023-08-07T13:41:47+02:00</time>
      </trkpt>
      <trkpt lat="44.16295" lon="6.61638">
        <ele>1312.2998</ele>
        <time>2023-08-07T13:41:51+02:00</time>
      </trkpt>
      <trkpt lat="44.16292" lon="6.61637">
        <ele>1313.4004</ele>
        <time>2023-08-07T13:41:52+02:00</time>
      </trkpt>
      <trkpt lat="44.16282" lon="6.61631">
        <ele>1312.1006</ele>
        <time>2023-08-07T13:41:56+02:00</time>
      </trkpt>
      <trkpt lat="44.16279" lon="6.61629">
        <ele>1313.2002</ele>
        <time>2023-08-07T13:41:57+02:00</time>
      </trkpt>
      <trkpt lat="44.1627" lon="6.61622">
        <ele>1312</ele>
        <time>2023-08-07T13:42:01+02:00</time>
      </trkpt>
      <trkpt lat="44.16267" lon="6.61621">
        <ele>1312.9004</ele>
        <time>2023-08-07T13:42:02+02:00</time>
      </trkpt>
      <trkpt lat="44.16256" lon="6.61619">
        <ele>1314.5</ele>
        <time>2023-08-07T13:42:06+02:00</time>
      </trkpt>
      <trkpt lat="44.16253" lon="6.61618">
        <ele>1314.5</ele>
        <time>2023-08-07T13:42:07+02:00</time>
      </trkpt>
      <trkpt lat="44.16242" lon="6.61618">
        <ele>1316.4004</ele>
        <time>2023-08-07T13:42:11+02:00</time>
      </trkpt>
      <trkpt lat="44.16239" lon="6.61618">
        <ele>1316.4004</ele>
        <time>2023-08-07T13:42:12+02:00</time>
      </trkpt>
      <trkpt lat="44.16229" lon="6.61615">
        <ele>1316.7002</ele>
        <time>2023-08-07T13:42:16+02:00</time>
      </trkpt>
      <trkpt lat="44.16226" lon="6.61614">
        <ele>1316.7002</ele>
        <time>2023-08-07T13:42:17+02:00</time>
      </trkpt>
      <trkpt lat="44.16216" lon="6.61607">
        <ele>1317.1006</ele>
        <time>2023-08-07T13:42:21+02:00</time>
      </trkpt>
      <trkpt lat="44.16214" lon="6.61604">
        <ele>1317.1006</ele>
        <time>2023-08-07T13:42:22+02:00</time>
      </trkpt>
      <trkpt lat="44.16208" lon="6.61593">
        <ele>1316.5</ele>
        <time>2023-08-07T13:42:26+02:00</time>
      </trkpt>
      <trkpt lat="44.16207" lon="6.6159">
        <ele>1314.7998</ele>
        <time>2023-08-07T13:42:27+02:00</time>
      </trkpt>
      <trkpt lat="44.16205" lon="6.61574">
        <ele>1314.2998</ele>
        <time>2023-08-07T13:42:31+02:00</time>
      </trkpt>
      <trkpt lat="44.16204" lon="6.6157">
        <ele>1312.7002</ele>
        <time>2023-08-07T13:42:32+02:00</time>
      </trkpt>
      <trkpt lat="44.16199" lon="6.61554">
        <ele>1310.9004</ele>
        <time>2023-08-07T13:42:36+02:00</time>
      </trkpt>
      <trkpt lat="44.16197" lon="6.6155">
        <ele>1310.9004</ele>
        <time>2023-08-07T13:42:37+02:00</time>
      </trkpt>
      <trkpt lat="44.16192" lon="6.61536">
        <ele>1309.1006</ele>
        <time>2023-08-07T13:42:41+02:00</time>
      </trkpt>
      <trkpt lat="44.16191" lon="6.61532">
        <ele>1309.1006</ele>
        <time>2023-08-07T13:42:42+02:00</time>
      </trkpt>
      <trkpt lat="44.16184" lon="6.61519">
        <ele>1307.1006</ele>
        <time>2023-08-07T13:42:46+02:00</time>
      </trkpt>
      <trkpt lat="44.16182" lon="6.61515">
        <ele>1308.5</ele>
        <time>2023-08-07T13:42:47+02:00</time>
      </trkpt>
      <trkpt lat="44.16174" lon="6.61503">
        <ele>1306.2998</ele>
        <time>2023-08-07T13:42:51+02:00</time>
      </trkpt>
      <trkpt lat="44.16172" lon="6.61501">
        <ele>1306.2998</ele>
        <time>2023-08-07T13:42:52+02:00</time>
      </trkpt>
      <trkpt lat="44.1616" lon="6.61493">
        <ele>1306.7998</ele>
        <time>2023-08-07T13:42:56+02:00</time>
      </trkpt>
      <trkpt lat="44.16156" lon="6.61491">
        <ele>1307.9004</ele>
        <time>2023-08-07T13:42:57+02:00</time>
      </trkpt>
      <trkpt lat="44.16141" lon="6.61482">
        <ele>1307.9004</ele>
        <time>2023-08-07T13:43:01+02:00</time>
      </trkpt>
      <trkpt lat="44.16137" lon="6.6148">
        <ele>1308.7998</ele>
        <time>2023-08-07T13:43:02+02:00</time>
      </trkpt>
      <trkpt lat="44.16121" lon="6.61472">
        <ele>1309.2002</ele>
        <time>2023-08-07T13:43:06+02:00</time>
      </trkpt>
      <trkpt lat="44.16117" lon="6.6147">
        <ele>1308.5</ele>
        <time>2023-08-07T13:43:07+02:00</time>
      </trkpt>
      <trkpt lat="44.16102" lon="6.6146">
        <ele>1309.9004</ele>
        <time>2023-08-07T13:43:11+02:00</time>
      </trkpt>
      <trkpt lat="44.16099" lon="6.61458">
        <ele>1309.9004</ele>
        <time>2023-08-07T13:43:12+02:00</time>
      </trkpt>
      <trkpt lat="44.16084" lon="6.61448">
        <ele>1310.1006</ele>
        <time>2023-08-07T13:43:16+02:00</time>
      </trkpt>
      <trkpt lat="44.1608" lon="6.61447">
        <ele>1310.7998</ele>
        <time>2023-08-07T13:43:17+02:00</time>
      </trkpt>
      <trkpt lat="44.16065" lon="6.61443">
        <ele>1311.4004</ele>
        <time>2023-08-07T13:43:21+02:00</time>
      </trkpt>
      <trkpt lat="44.1606" lon="6.61443">
        <ele>1311.4004</ele>
        <time>2023-08-07T13:43:22+02:00</time>
      </trkpt>
      <trkpt lat="44.16045" lon="6.61447">
        <ele>1315.1006</ele>
        <time>2023-08-07T13:43:26+02:00</time>
      </trkpt>
      <trkpt lat="44.16041" lon="6.61449">
        <ele>1315.9004</ele>
        <time>2023-08-07T13:43:27+02:00</time>
      </trkpt>
      <trkpt lat="44.16025" lon="6.61456">
        <ele>1319</ele>
        <time>2023-08-07T13:43:31+02:00</time>
      </trkpt>
      <trkpt lat="44.16021" lon="6.61457">
        <ele>1320.1006</ele>
        <time>2023-08-07T13:43:32+02:00</time>
      </trkpt>
      <trkpt lat="44.16005" lon="6.61459">
        <ele>1322.4004</ele>
        <time>2023-08-07T13:43:36+02:00</time>
      </trkpt>
      <trkpt lat="44.16002" lon="6.61459">
        <ele>1323.7998</ele>
        <time>2023-08-07T13:43:37+02:00</time>
      </trkpt>
      <trkpt lat="44.15989" lon="6.61448">
        <ele>1325.7002</ele>
        <time>2023-08-07T13:43:41+02:00</time>
      </trkpt>
      <trkpt lat="44.15986" lon="6.61444">
        <ele>1324.4004</ele>
        <time>2023-08-07T13:43:42+02:00</time>
      </trkpt>
      <trkpt lat="44.15972" lon="6.61421">
        <ele>1326.4004</ele>
        <time>2023-08-07T13:43:46+02:00</time>
      </trkpt>
      <trkpt lat="44.15968" lon="6.61413">
        <ele>1324.9004</ele>
        <time>2023-08-07T13:43:47+02:00</time>
      </trkpt>
      <trkpt lat="44.15956" lon="6.61384">
        <ele>1322.4004</ele>
        <time>2023-08-07T13:43:51+02:00</time>
      </trkpt>
      <trkpt lat="44.15952" lon="6.61377">
        <ele>1322.5</ele>
        <time>2023-08-07T13:43:52+02:00</time>
      </trkpt>
      <trkpt lat="44.15935" lon="6.61349">
        <ele>1322.5</ele>
        <time>2023-08-07T13:43:56+02:00</time>
      </trkpt>
      <trkpt lat="44.15932" lon="6.61342">
        <ele>1320.6006</ele>
        <time>2023-08-07T13:43:57+02:00</time>
      </trkpt>
      <trkpt lat="44.15922" lon="6.61304">
        <ele>1316.2002</ele>
        <time>2023-08-07T13:44:01+02:00</time>
      </trkpt>
      <trkpt lat="44.15919" lon="6.61292">
        <ele>1314.2002</ele>
        <time>2023-08-07T13:44:02+02:00</time>
      </trkpt>
      <trkpt lat="44.15909" lon="6.61251">
        <ele>1307.2002</ele>
        <time>2023-08-07T13:44:06+02:00</time>
      </trkpt>
      <trkpt lat="44.15906" lon="6.61243">
        <ele>1305</ele>
        <time>2023-08-07T13:44:07+02:00</time>
      </trkpt>
      <trkpt lat="44.15886" lon="6.61229">
        <ele>1306.7998</ele>
        <time>2023-08-07T13:44:11+02:00</time>
      </trkpt>
      <trkpt lat="44.15879" lon="6.61228">
        <ele>1308.2998</ele>
        <time>2023-08-07T13:44:12+02:00</time>
      </trkpt>
      <trkpt lat="44.15857" lon="6.61223">
        <ele>1312.4004</ele>
        <time>2023-08-07T13:44:16+02:00</time>
      </trkpt>
      <trkpt lat="44.15853" lon="6.61221">
        <ele>1311.2002</ele>
        <time>2023-08-07T13:44:17+02:00</time>
      </trkpt>
      <trkpt lat="44.15835" lon="6.61212">
        <ele>1312.7002</ele>
        <time>2023-08-07T13:44:21+02:00</time>
      </trkpt>
      <trkpt lat="44.1583" lon="6.61209">
        <ele>1314</ele>
        <time>2023-08-07T13:44:22+02:00</time>
      </trkpt>
      <trkpt lat="44.15812" lon="6.61188">
        <ele>1310.7998</ele>
        <time>2023-08-07T13:44:26+02:00</time>
      </trkpt>
      <trkpt lat="44.15808" lon="6.61182">
        <ele>1310.7998</ele>
        <time>2023-08-07T13:44:27+02:00</time>
      </trkpt>
      <trkpt lat="44.15789" lon="6.61168">
        <ele>1310.1006</ele>
        <time>2023-08-07T13:44:31+02:00</time>
      </trkpt>
      <trkpt lat="44.15784" lon="6.61164">
        <ele>1311.2998</ele>
        <time>2023-08-07T13:44:32+02:00</time>
      </trkpt>
      <trkpt lat="44.15772" lon="6.61146">
        <ele>1309.9004</ele>
        <time>2023-08-07T13:44:36+02:00</time>
      </trkpt>
      <trkpt lat="44.15771" lon="6.61141">
        <ele>1307.9004</ele>
        <time>2023-08-07T13:44:37+02:00</time>
      </trkpt>
      <trkpt lat="44.15774" lon="6.61124">
        <ele>1304</ele>
        <time>2023-08-07T13:44:41+02:00</time>
      </trkpt>
      <trkpt lat="44.15776" lon="6.61121">
        <ele>1304</ele>
        <time>2023-08-07T13:44:42+02:00</time>
      </trkpt>
      <trkpt lat="44.15787" lon="6.61106">
        <ele>1297</ele>
        <time>2023-08-07T13:44:46+02:00</time>
      </trkpt>
      <trkpt lat="44.15789" lon="6.61101">
        <ele>1293.6006</ele>
        <time>2023-08-07T13:44:47+02:00</time>
      </trkpt>
      <trkpt lat="44.15787" lon="6.6108">
        <ele>1291</ele>
        <time>2023-08-07T13:44:51+02:00</time>
      </trkpt>
      <trkpt lat="44.15783" lon="6.61075">
        <ele>1289.1006</ele>
        <time>2023-08-07T13:44:52+02:00</time>
      </trkpt>
      <trkpt lat="44.15768" lon="6.6105">
        <ele>1287.4004</ele>
        <time>2023-08-07T13:44:56+02:00</time>
      </trkpt>
      <trkpt lat="44.15765" lon="6.61044">
        <ele>1287.4004</ele>
        <time>2023-08-07T13:44:57+02:00</time>
      </trkpt>
      <trkpt lat="44.15755" lon="6.61019">
        <ele>1283.6006</ele>
        <time>2023-08-07T13:45:01+02:00</time>
      </trkpt>
      <trkpt lat="44.15752" lon="6.61014">
        <ele>1281.2002</ele>
        <time>2023-08-07T13:45:02+02:00</time>
      </trkpt>
      <trkpt lat="44.15734" lon="6.61005">
        <ele>1283.1006</ele>
        <time>2023-08-07T13:45:06+02:00</time>
      </trkpt>
      <trkpt lat="44.15729" lon="6.61002">
        <ele>1284.6006</ele>
        <time>2023-08-07T13:45:07+02:00</time>
      </trkpt>
      <trkpt lat="44.15714" lon="6.6099">
        <ele>1284.6006</ele>
        <time>2023-08-07T13:45:11+02:00</time>
      </trkpt>
      <trkpt lat="44.15711" lon="6.60987">
        <ele>1284.6006</ele>
        <time>2023-08-07T13:45:12+02:00</time>
      </trkpt>
      <trkpt lat="44.15699" lon="6.6097">
        <ele>1283.2002</ele>
        <time>2023-08-07T13:45:16+02:00</time>
      </trkpt>
      <trkpt lat="44.15698" lon="6.60965">
        <ele>1281.1006</ele>
        <time>2023-08-07T13:45:17+02:00</time>
      </trkpt>
      <trkpt lat="44.15691" lon="6.60942">
        <ele>1278.2002</ele>
        <time>2023-08-07T13:45:21+02:00</time>
      </trkpt>
      <trkpt lat="44.15689" lon="6.60936">
        <ele>1277.6006</ele>
        <time>2023-08-07T13:45:22+02:00</time>
      </trkpt>
      <trkpt lat="44.15684" lon="6.60916">
        <ele>1274</ele>
        <time>2023-08-07T13:45:26+02:00</time>
      </trkpt>
      <trkpt lat="44.15682" lon="6.60912">
        <ele>1273.9004</ele>
        <time>2023-08-07T13:45:27+02:00</time>
      </trkpt>
      <trkpt lat="44.1567" lon="6.609">
        <ele>1274.9004</ele>
        <time>2023-08-07T13:45:31+02:00</time>
      </trkpt>
      <trkpt lat="44.15666" lon="6.60899">
        <ele>1274.9004</ele>
        <time>2023-08-07T13:45:32+02:00</time>
      </trkpt>
      <trkpt lat="44.1566" lon="6.6089">
        <ele>1274.6006</ele>
        <time>2023-08-07T13:45:36+02:00</time>
      </trkpt>
      <trkpt lat="44.1566" lon="6.60887">
        <ele>1272.9004</ele>
        <time>2023-08-07T13:45:37+02:00</time>
      </trkpt>
      <trkpt lat="44.15663" lon="6.60868">
        <ele>1270</ele>
        <time>2023-08-07T13:45:41+02:00</time>
      </trkpt>
      <trkpt lat="44.15664" lon="6.60863">
        <ele>1270</ele>
        <time>2023-08-07T13:45:42+02:00</time>
      </trkpt>
      <trkpt lat="44.15666" lon="6.6084">
        <ele>1264.9004</ele>
        <time>2023-08-07T13:45:46+02:00</time>
      </trkpt>
      <trkpt lat="44.15667" lon="6.60835">
        <ele>1263.7998</ele>
        <time>2023-08-07T13:45:47+02:00</time>
      </trkpt>
      <trkpt lat="44.15668" lon="6.60823">
        <ele>1262.7002</ele>
        <time>2023-08-07T13:45:51+02:00</time>
      </trkpt>
      <trkpt lat="44.15666" lon="6.60821">
        <ele>1262.7002</ele>
        <time>2023-08-07T13:45:52+02:00</time>
      </trkpt>
      <trkpt lat="44.15655" lon="6.60811">
        <ele>1263.7002</ele>
        <time>2023-08-07T13:45:56+02:00</time>
      </trkpt>
      <trkpt lat="44.15652" lon="6.60807">
        <ele>1263.7002</ele>
        <time>2023-08-07T13:45:57+02:00</time>
      </trkpt>
      <trkpt lat="44.15642" lon="6.60787">
        <ele>1262.2002</ele>
        <time>2023-08-07T13:46:01+02:00</time>
      </trkpt>
      <trkpt lat="44.15641" lon="6.60782">
        <ele>1262</ele>
        <time>2023-08-07T13:46:02+02:00</time>
      </trkpt>
      <trkpt lat="44.15635" lon="6.60759">
        <ele>1260.6006</ele>
        <time>2023-08-07T13:46:06+02:00</time>
      </trkpt>
      <trkpt lat="44.15633" lon="6.60754">
        <ele>1259.2998</ele>
        <time>2023-08-07T13:46:07+02:00</time>
      </trkpt>
      <trkpt lat="44.15624" lon="6.60738">
        <ele>1258</ele>
        <time>2023-08-07T13:46:11+02:00</time>
      </trkpt>
      <trkpt lat="44.15621" lon="6.60734">
        <ele>1259.2998</ele>
        <time>2023-08-07T13:46:12+02:00</time>
      </trkpt>
      <trkpt lat="44.15616" lon="6.60728">
        <ele>1259.2002</ele>
        <time>2023-08-07T13:46:16+02:00</time>
      </trkpt>
      <trkpt lat="44.15616" lon="6.60727">
        <ele>1259.2002</ele>
        <time>2023-08-07T13:46:17+02:00</time>
      </trkpt>
      <trkpt lat="44.15613" lon="6.60721">
        <ele>1257.6006</ele>
        <time>2023-08-07T13:46:21+02:00</time>
      </trkpt>
      <trkpt lat="44.15612" lon="6.60717">
        <ele>1257.6006</ele>
        <time>2023-08-07T13:46:22+02:00</time>
      </trkpt>
      <trkpt lat="44.15608" lon="6.60705">
        <ele>1255.5</ele>
        <time>2023-08-07T13:46:26+02:00</time>
      </trkpt>
      <trkpt lat="44.15607" lon="6.60702">
        <ele>1255.5</ele>
        <time>2023-08-07T13:46:27+02:00</time>
      </trkpt>
      <trkpt lat="44.15601" lon="6.60693">
        <ele>1255</ele>
        <time>2023-08-07T13:46:31+02:00</time>
      </trkpt>
      <trkpt lat="44.156" lon="6.60691">
        <ele>1255</ele>
        <time>2023-08-07T13:46:32+02:00</time>
      </trkpt>
      <trkpt lat="44.15594" lon="6.60677">
        <ele>1252.4004</ele>
        <time>2023-08-07T13:46:36+02:00</time>
      </trkpt>
      <trkpt lat="44.15591" lon="6.60673">
        <ele>1251.6006</ele>
        <time>2023-08-07T13:46:37+02:00</time>
      </trkpt>
      <trkpt lat="44.15576" lon="6.60661">
        <ele>1251.2998</ele>
        <time>2023-08-07T13:46:41+02:00</time>
      </trkpt>
      <trkpt lat="44.15572" lon="6.60656">
        <ele>1252.1006</ele>
        <time>2023-08-07T13:46:42+02:00</time>
      </trkpt>
      <trkpt lat="44.15556" lon="6.60642">
        <ele>1248.5</ele>
        <time>2023-08-07T13:46:46+02:00</time>
      </trkpt>
      <trkpt lat="44.1555" lon="6.6064">
        <ele>1249.2002</ele>
        <time>2023-08-07T13:46:47+02:00</time>
      </trkpt>
      <trkpt lat="44.1553" lon="6.60629">
        <ele>1245.6006</ele>
        <time>2023-08-07T13:46:51+02:00</time>
      </trkpt>
      <trkpt lat="44.15525" lon="6.60626">
        <ele>1246.2002</ele>
        <time>2023-08-07T13:46:52+02:00</time>
      </trkpt>
      <trkpt lat="44.15509" lon="6.60621">
        <ele>1244.9004</ele>
        <time>2023-08-07T13:46:56+02:00</time>
      </trkpt>
      <trkpt lat="44.15506" lon="6.60619">
        <ele>1244.9004</ele>
        <time>2023-08-07T13:46:57+02:00</time>
      </trkpt>
      <trkpt lat="44.15492" lon="6.60607">
        <ele>1244.2998</ele>
        <time>2023-08-07T13:47:01+02:00</time>
      </trkpt>
      <trkpt lat="44.15488" lon="6.60603">
        <ele>1241.4004</ele>
        <time>2023-08-07T13:47:02+02:00</time>
      </trkpt>
      <trkpt lat="44.15472" lon="6.60581">
        <ele>1239.1006</ele>
        <time>2023-08-07T13:47:06+02:00</time>
      </trkpt>
      <trkpt lat="44.15469" lon="6.60576">
        <ele>1236.2002</ele>
        <time>2023-08-07T13:47:07+02:00</time>
      </trkpt>
      <trkpt lat="44.15458" lon="6.60557">
        <ele>1233.4004</ele>
        <time>2023-08-07T13:47:11+02:00</time>
      </trkpt>
      <trkpt lat="44.15456" lon="6.60551">
        <ele>1232.2002</ele>
        <time>2023-08-07T13:47:12+02:00</time>
      </trkpt>
      <trkpt lat="44.15446" lon="6.60524">
        <ele>1225.2998</ele>
        <time>2023-08-07T13:47:16+02:00</time>
      </trkpt>
      <trkpt lat="44.15443" lon="6.60518">
        <ele>1224.2998</ele>
        <time>2023-08-07T13:47:17+02:00</time>
      </trkpt>
      <trkpt lat="44.15432" lon="6.60498">
        <ele>1220.2998</ele>
        <time>2023-08-07T13:47:21+02:00</time>
      </trkpt>
      <trkpt lat="44.15428" lon="6.60493">
        <ele>1222.2998</ele>
        <time>2023-08-07T13:47:22+02:00</time>
      </trkpt>
      <trkpt lat="44.15419" lon="6.60468">
        <ele>1217.5</ele>
        <time>2023-08-07T13:47:26+02:00</time>
      </trkpt>
      <trkpt lat="44.15418" lon="6.60462">
        <ele>1215</ele>
        <time>2023-08-07T13:47:27+02:00</time>
      </trkpt>
      <trkpt lat="44.15407" lon="6.60442">
        <ele>1214</ele>
        <time>2023-08-07T13:47:31+02:00</time>
      </trkpt>
      <trkpt lat="44.15403" lon="6.60438">
        <ele>1212</ele>
        <time>2023-08-07T13:47:32+02:00</time>
      </trkpt>
      <trkpt lat="44.1539" lon="6.60428">
        <ele>1213.1006</ele>
        <time>2023-08-07T13:47:36+02:00</time>
      </trkpt>
      <trkpt lat="44.15387" lon="6.60426">
        <ele>1214.4004</ele>
        <time>2023-08-07T13:47:37+02:00</time>
      </trkpt>
      <trkpt lat="44.15373" lon="6.60416">
        <ele>1214.7998</ele>
        <time>2023-08-07T13:47:41+02:00</time>
      </trkpt>
      <trkpt lat="44.15369" lon="6.60414">
        <ele>1213.9004</ele>
        <time>2023-08-07T13:47:42+02:00</time>
      </trkpt>
      <trkpt lat="44.15355" lon="6.60409">
        <ele>1216.1006</ele>
        <time>2023-08-07T13:47:46+02:00</time>
      </trkpt>
      <trkpt lat="44.15352" lon="6.60407">
        <ele>1216.1006</ele>
        <time>2023-08-07T13:47:47+02:00</time>
      </trkpt>
      <trkpt lat="44.15338" lon="6.60399">
        <ele>1217.5</ele>
        <time>2023-08-07T13:47:51+02:00</time>
      </trkpt>
      <trkpt lat="44.15335" lon="6.60396">
        <ele>1215.5</ele>
        <time>2023-08-07T13:47:52+02:00</time>
      </trkpt>
      <trkpt lat="44.15319" lon="6.60384">
        <ele>1217.1006</ele>
        <time>2023-08-07T13:47:56+02:00</time>
      </trkpt>
      <trkpt lat="44.15314" lon="6.6038">
        <ele>1216.2998</ele>
        <time>2023-08-07T13:47:57+02:00</time>
      </trkpt>
      <trkpt lat="44.15295" lon="6.60363">
        <ele>1216.2002</ele>
        <time>2023-08-07T13:48:01+02:00</time>
      </trkpt>
      <trkpt lat="44.15288" lon="6.60359">
        <ele>1217.6006</ele>
        <time>2023-08-07T13:48:02+02:00</time>
      </trkpt>
      <trkpt lat="44.1526" lon="6.60342">
        <ele>1219.9004</ele>
        <time>2023-08-07T13:48:06+02:00</time>
      </trkpt>
      <trkpt lat="44.15252" lon="6.60337">
        <ele>1220.9004</ele>
        <time>2023-08-07T13:48:07+02:00</time>
      </trkpt>
      <trkpt lat="44.15221" lon="6.60318">
        <ele>1223.4004</ele>
        <time>2023-08-07T13:48:11+02:00</time>
      </trkpt>
      <trkpt lat="44.15214" lon="6.60312">
        <ele>1222.1006</ele>
        <time>2023-08-07T13:48:12+02:00</time>
      </trkpt>
      <trkpt lat="44.15191" lon="6.60286">
        <ele>1218.5</ele>
        <time>2023-08-07T13:48:16+02:00</time>
      </trkpt>
      <trkpt lat="44.15186" lon="6.60278">
        <ele>1215.2002</ele>
        <time>2023-08-07T13:48:17+02:00</time>
      </trkpt>
      <trkpt lat="44.15172" lon="6.60251">
        <ele>1209.7998</ele>
        <time>2023-08-07T13:48:21+02:00</time>
      </trkpt>
      <trkpt lat="44.15169" lon="6.60247">
        <ele>1209.7998</ele>
        <time>2023-08-07T13:48:22+02:00</time>
      </trkpt>
      <trkpt lat="44.15155" lon="6.60233">
        <ele>1206.6006</ele>
        <time>2023-08-07T13:48:26+02:00</time>
      </trkpt>
      <trkpt lat="44.15151" lon="6.60229">
        <ele>1207.6006</ele>
        <time>2023-08-07T13:48:27+02:00</time>
      </trkpt>
      <trkpt lat="44.15128" lon="6.60212">
        <ele>1205.2998</ele>
        <time>2023-08-07T13:48:31+02:00</time>
      </trkpt>
      <trkpt lat="44.15121" lon="6.60208">
        <ele>1203.2002</ele>
        <time>2023-08-07T13:48:32+02:00</time>
      </trkpt>
      <trkpt lat="44.15089" lon="6.60192">
        <ele>1200</ele>
        <time>2023-08-07T13:48:36+02:00</time>
      </trkpt>
      <trkpt lat="44.1508" lon="6.60189">
        <ele>1200.6006</ele>
        <time>2023-08-07T13:48:37+02:00</time>
      </trkpt>
      <trkpt lat="44.15046" lon="6.60191">
        <ele>1201.2998</ele>
        <time>2023-08-07T13:48:41+02:00</time>
      </trkpt>
      <trkpt lat="44.15039" lon="6.60196">
        <ele>1203.1006</ele>
        <time>2023-08-07T13:48:42+02:00</time>
      </trkpt>
      <trkpt lat="44.15017" lon="6.60217">
        <ele>1206.7998</ele>
        <time>2023-08-07T13:48:46+02:00</time>
      </trkpt>
      <trkpt lat="44.15012" lon="6.60217">
        <ele>1207</ele>
        <time>2023-08-07T13:48:47+02:00</time>
      </trkpt>
      <trkpt lat="44.14997" lon="6.60209">
        <ele>1205.6006</ele>
        <time>2023-08-07T13:48:51+02:00</time>
      </trkpt>
      <trkpt lat="44.14994" lon="6.60207">
        <ele>1206</ele>
        <time>2023-08-07T13:48:52+02:00</time>
      </trkpt>
      <trkpt lat="44.14979" lon="6.60208">
        <ele>1206.7998</ele>
        <time>2023-08-07T13:48:56+02:00</time>
      </trkpt>
      <trkpt lat="44.14975" lon="6.60208">
        <ele>1207.2998</ele>
        <time>2023-08-07T13:48:57+02:00</time>
      </trkpt>
      <trkpt lat="44.1496" lon="6.60208">
        <ele>1208.4004</ele>
        <time>2023-08-07T13:49:01+02:00</time>
      </trkpt>
      <trkpt lat="44.14956" lon="6.60207">
        <ele>1209</ele>
        <time>2023-08-07T13:49:02+02:00</time>
      </trkpt>
      <trkpt lat="44.14941" lon="6.60201">
        <ele>1210.7998</ele>
        <time>2023-08-07T13:49:06+02:00</time>
      </trkpt>
      <trkpt lat="44.14937" lon="6.602">
        <ele>1210.2998</ele>
        <time>2023-08-07T13:49:07+02:00</time>
      </trkpt>
      <trkpt lat="44.14922" lon="6.60195">
        <ele>1213.7002</ele>
        <time>2023-08-07T13:49:11+02:00</time>
      </trkpt>
      <trkpt lat="44.14918" lon="6.60194">
        <ele>1215.4004</ele>
        <time>2023-08-07T13:49:12+02:00</time>
      </trkpt>
      <trkpt lat="44.14904" lon="6.60186">
        <ele>1216.4004</ele>
        <time>2023-08-07T13:49:16+02:00</time>
      </trkpt>
      <trkpt lat="44.14901" lon="6.60184">
        <ele>1215.7998</ele>
        <time>2023-08-07T13:49:17+02:00</time>
      </trkpt>
      <trkpt lat="44.14893" lon="6.60169">
        <ele>1215.1006</ele>
        <time>2023-08-07T13:49:21+02:00</time>
      </trkpt>
      <trkpt lat="44.14893" lon="6.60165">
        <ele>1213.1006</ele>
        <time>2023-08-07T13:49:22+02:00</time>
      </trkpt>
      <trkpt lat="44.14891" lon="6.60144">
        <ele>1209.2998</ele>
        <time>2023-08-07T13:49:26+02:00</time>
      </trkpt>
      <trkpt lat="44.1489" lon="6.60139">
        <ele>1207.6006</ele>
        <time>2023-08-07T13:49:27+02:00</time>
      </trkpt>
      <trkpt lat="44.1488" lon="6.60121">
        <ele>1206.7998</ele>
        <time>2023-08-07T13:49:31+02:00</time>
      </trkpt>
      <trkpt lat="44.14877" lon="6.60116">
        <ele>1207.7002</ele>
        <time>2023-08-07T13:49:32+02:00</time>
      </trkpt>
      <trkpt lat="44.14858" lon="6.60098">
        <ele>1207.5</ele>
        <time>2023-08-07T13:49:36+02:00</time>
      </trkpt>
      <trkpt lat="44.14852" lon="6.60092">
        <ele>1207</ele>
        <time>2023-08-07T13:49:37+02:00</time>
      </trkpt>
      <trkpt lat="44.14833" lon="6.60068">
        <ele>1205.7998</ele>
        <time>2023-08-07T13:49:41+02:00</time>
      </trkpt>
      <trkpt lat="44.14827" lon="6.60062">
        <ele>1205.4004</ele>
        <time>2023-08-07T13:49:42+02:00</time>
      </trkpt>
      <trkpt lat="44.14804" lon="6.6005">
        <ele>1206.7002</ele>
        <time>2023-08-07T13:49:46+02:00</time>
      </trkpt>
      <trkpt lat="44.14796" lon="6.60049">
        <ele>1208.5</ele>
        <time>2023-08-07T13:49:47+02:00</time>
      </trkpt>
      <trkpt lat="44.14773" lon="6.60037">
        <ele>1207.7002</ele>
        <time>2023-08-07T13:49:51+02:00</time>
      </trkpt>
      <trkpt lat="44.14768" lon="6.60032">
        <ele>1208.6006</ele>
        <time>2023-08-07T13:49:52+02:00</time>
      </trkpt>
      <trkpt lat="44.1475" lon="6.60013">
        <ele>1208.2002</ele>
        <time>2023-08-07T13:49:56+02:00</time>
      </trkpt>
      <trkpt lat="44.14746" lon="6.60009">
        <ele>1207.4004</ele>
        <time>2023-08-07T13:49:57+02:00</time>
      </trkpt>
      <trkpt lat="44.14725" lon="6.59993">
        <ele>1206.5</ele>
        <time>2023-08-07T13:50:01+02:00</time>
      </trkpt>
      <trkpt lat="44.14719" lon="6.5999">
        <ele>1207.6006</ele>
        <time>2023-08-07T13:50:02+02:00</time>
      </trkpt>
      <trkpt lat="44.14696" lon="6.59976">
        <ele>1208.2998</ele>
        <time>2023-08-07T13:50:06+02:00</time>
      </trkpt>
      <trkpt lat="44.14691" lon="6.59972">
        <ele>1209.7002</ele>
        <time>2023-08-07T13:50:07+02:00</time>
      </trkpt>
      <trkpt lat="44.14672" lon="6.59955">
        <ele>1209.6006</ele>
        <time>2023-08-07T13:50:11+02:00</time>
      </trkpt>
      <trkpt lat="44.14667" lon="6.59952">
        <ele>1208.2998</ele>
        <time>2023-08-07T13:50:12+02:00</time>
      </trkpt>
      <trkpt lat="44.14645" lon="6.59939">
        <ele>1208.1006</ele>
        <time>2023-08-07T13:50:16+02:00</time>
      </trkpt>
      <trkpt lat="44.14639" lon="6.59936">
        <ele>1208.7998</ele>
        <time>2023-08-07T13:50:17+02:00</time>
      </trkpt>
      <trkpt lat="44.14613" lon="6.59921">
        <ele>1206.5</ele>
        <time>2023-08-07T13:50:21+02:00</time>
      </trkpt>
      <trkpt lat="44.14606" lon="6.59918">
        <ele>1208.2002</ele>
        <time>2023-08-07T13:50:22+02:00</time>
      </trkpt>
      <trkpt lat="44.14577" lon="6.59903">
        <ele>1205.9004</ele>
        <time>2023-08-07T13:50:26+02:00</time>
      </trkpt>
      <trkpt lat="44.1457" lon="6.59898">
        <ele>1203.7998</ele>
        <time>2023-08-07T13:50:27+02:00</time>
      </trkpt>
      <trkpt lat="44.1454" lon="6.5988">
        <ele>1201.1006</ele>
        <time>2023-08-07T13:50:31+02:00</time>
      </trkpt>
      <trkpt lat="44.14532" lon="6.59874">
        <ele>1199.2998</ele>
        <time>2023-08-07T13:50:32+02:00</time>
      </trkpt>
      <trkpt lat="44.14501" lon="6.5985">
        <ele>1196.5</ele>
        <time>2023-08-07T13:50:36+02:00</time>
      </trkpt>
      <trkpt lat="44.14494" lon="6.59844">
        <ele>1194.4004</ele>
        <time>2023-08-07T13:50:37+02:00</time>
      </trkpt>
      <trkpt lat="44.14463" lon="6.59824">
        <ele>1194</ele>
        <time>2023-08-07T13:50:41+02:00</time>
      </trkpt>
      <trkpt lat="44.14456" lon="6.5982">
        <ele>1193</ele>
        <time>2023-08-07T13:50:42+02:00</time>
      </trkpt>
      <trkpt lat="44.14423" lon="6.59792">
        <ele>1192.7998</ele>
        <time>2023-08-07T13:50:46+02:00</time>
      </trkpt>
      <trkpt lat="44.14415" lon="6.59784">
        <ele>1192.2998</ele>
        <time>2023-08-07T13:50:47+02:00</time>
      </trkpt>
      <trkpt lat="44.14384" lon="6.59755">
        <ele>1184.7998</ele>
        <time>2023-08-07T13:50:51+02:00</time>
      </trkpt>
      <trkpt lat="44.14377" lon="6.59748">
        <ele>1184.6006</ele>
        <time>2023-08-07T13:50:52+02:00</time>
      </trkpt>
      <trkpt lat="44.14366" lon="6.59733">
        <ele>1180</ele>
        <time>2023-08-07T13:50:56+02:00</time>
      </trkpt>
      <trkpt lat="44.14365" lon="6.5973">
        <ele>1180</ele>
        <time>2023-08-07T13:50:57+02:00</time>
      </trkpt>
      <trkpt lat="44.14356" lon="6.59723">
        <ele>1178.1006</ele>
        <time>2023-08-07T13:51:01+02:00</time>
      </trkpt>
      <trkpt lat="44.14353" lon="6.5972">
        <ele>1176.4004</ele>
        <time>2023-08-07T13:51:02+02:00</time>
      </trkpt>
      <trkpt lat="44.14337" lon="6.59703">
        <ele>1172.7998</ele>
        <time>2023-08-07T13:51:06+02:00</time>
      </trkpt>
      <trkpt lat="44.14332" lon="6.59698">
        <ele>1173</ele>
        <time>2023-08-07T13:51:07+02:00</time>
      </trkpt>
      <trkpt lat="44.14316" lon="6.59677">
        <ele>1168.5</ele>
        <time>2023-08-07T13:51:11+02:00</time>
      </trkpt>
      <trkpt lat="44.14311" lon="6.59671">
        <ele>1168.5</ele>
        <time>2023-08-07T13:51:12+02:00</time>
      </trkpt>
      <trkpt lat="44.14292" lon="6.59645">
        <ele>1162.9004</ele>
        <time>2023-08-07T13:51:16+02:00</time>
      </trkpt>
      <trkpt lat="44.14287" lon="6.59639">
        <ele>1161.5</ele>
        <time>2023-08-07T13:51:17+02:00</time>
      </trkpt>
      <trkpt lat="44.14262" lon="6.59619">
        <ele>1159.9004</ele>
        <time>2023-08-07T13:51:21+02:00</time>
      </trkpt>
      <trkpt lat="44.14256" lon="6.59613">
        <ele>1159.6006</ele>
        <time>2023-08-07T13:51:22+02:00</time>
      </trkpt>
      <trkpt lat="44.14232" lon="6.59595">
        <ele>1160.2998</ele>
        <time>2023-08-07T13:51:26+02:00</time>
      </trkpt>
      <trkpt lat="44.14226" lon="6.59592">
        <ele>1161</ele>
        <time>2023-08-07T13:51:27+02:00</time>
      </trkpt>
      <trkpt lat="44.14201" lon="6.59586">
        <ele>1161.1006</ele>
        <time>2023-08-07T13:51:31+02:00</time>
      </trkpt>
      <trkpt lat="44.14194" lon="6.59584">
        <ele>1161.1006</ele>
        <time>2023-08-07T13:51:32+02:00</time>
      </trkpt>
      <trkpt lat="44.1417" lon="6.59575">
        <ele>1159.5</ele>
        <time>2023-08-07T13:51:36+02:00</time>
      </trkpt>
      <trkpt lat="44.14164" lon="6.59574">
        <ele>1157.7998</ele>
        <time>2023-08-07T13:51:37+02:00</time>
      </trkpt>
      <trkpt lat="44.14139" lon="6.59565">
        <ele>1155.7998</ele>
        <time>2023-08-07T13:51:41+02:00</time>
      </trkpt>
      <trkpt lat="44.14132" lon="6.59562">
        <ele>1155.7002</ele>
        <time>2023-08-07T13:51:42+02:00</time>
      </trkpt>
      <trkpt lat="44.14107" lon="6.59553">
        <ele>1153.6006</ele>
        <time>2023-08-07T13:51:46+02:00</time>
      </trkpt>
      <trkpt lat="44.141" lon="6.59551">
        <ele>1153.6006</ele>
        <time>2023-08-07T13:51:47+02:00</time>
      </trkpt>
      <trkpt lat="44.14077" lon="6.59548">
        <ele>1152</ele>
        <time>2023-08-07T13:51:51+02:00</time>
      </trkpt>
      <trkpt lat="44.14072" lon="6.59548">
        <ele>1151.9004</ele>
        <time>2023-08-07T13:51:52+02:00</time>
      </trkpt>
      <trkpt lat="44.14051" lon="6.5955">
        <ele>1152.7998</ele>
        <time>2023-08-07T13:51:56+02:00</time>
      </trkpt>
      <trkpt lat="44.14046" lon="6.5955">
        <ele>1152.7002</ele>
        <time>2023-08-07T13:51:57+02:00</time>
      </trkpt>
      <trkpt lat="44.14023" lon="6.59548">
        <ele>1151</ele>
        <time>2023-08-07T13:52:01+02:00</time>
      </trkpt>
      <trkpt lat="44.14017" lon="6.59548">
        <ele>1151</ele>
        <time>2023-08-07T13:52:02+02:00</time>
      </trkpt>
      <trkpt lat="44.13993" lon="6.59548">
        <ele>1151.7998</ele>
        <time>2023-08-07T13:52:06+02:00</time>
      </trkpt>
      <trkpt lat="44.13987" lon="6.59548">
        <ele>1152.4004</ele>
        <time>2023-08-07T13:52:07+02:00</time>
      </trkpt>
      <trkpt lat="44.13964" lon="6.59549">
        <ele>1157.7002</ele>
        <time>2023-08-07T13:52:11+02:00</time>
      </trkpt>
      <trkpt lat="44.13958" lon="6.59549">
        <ele>1157.2002</ele>
        <time>2023-08-07T13:52:12+02:00</time>
      </trkpt>
      <trkpt lat="44.13936" lon="6.59546">
        <ele>1161.7998</ele>
        <time>2023-08-07T13:52:16+02:00</time>
      </trkpt>
      <trkpt lat="44.13931" lon="6.59546">
        <ele>1163.5</ele>
        <time>2023-08-07T13:52:17+02:00</time>
      </trkpt>
      <trkpt lat="44.13911" lon="6.59548">
        <ele>1168.4004</ele>
        <time>2023-08-07T13:52:21+02:00</time>
      </trkpt>
      <trkpt lat="44.13906" lon="6.59548">
        <ele>1170.1006</ele>
        <time>2023-08-07T13:52:22+02:00</time>
      </trkpt>
      <trkpt lat="44.13887" lon="6.59541">
        <ele>1174.5</ele>
        <time>2023-08-07T13:52:26+02:00</time>
      </trkpt>
      <trkpt lat="44.13883" lon="6.5954">
        <ele>1173.6006</ele>
        <time>2023-08-07T13:52:27+02:00</time>
      </trkpt>
      <trkpt lat="44.13867" lon="6.59531">
        <ele>1173.5</ele>
        <time>2023-08-07T13:52:31+02:00</time>
      </trkpt>
      <trkpt lat="44.13863" lon="6.59527">
        <ele>1174.4004</ele>
        <time>2023-08-07T13:52:32+02:00</time>
      </trkpt>
      <trkpt lat="44.13849" lon="6.5951">
        <ele>1171</ele>
        <time>2023-08-07T13:52:36+02:00</time>
      </trkpt>
      <trkpt lat="44.13846" lon="6.59507">
        <ele>1171.5</ele>
        <time>2023-08-07T13:52:37+02:00</time>
      </trkpt>
      <trkpt lat="44.13828" lon="6.59496">
        <ele>1168.9004</ele>
        <time>2023-08-07T13:52:41+02:00</time>
      </trkpt>
      <trkpt lat="44.13824" lon="6.59492">
        <ele>1168.9004</ele>
        <time>2023-08-07T13:52:42+02:00</time>
      </trkpt>
      <trkpt lat="44.13808" lon="6.59477">
        <ele>1168.1006</ele>
        <time>2023-08-07T13:52:46+02:00</time>
      </trkpt>
      <trkpt lat="44.13804" lon="6.59473">
        <ele>1169.2998</ele>
        <time>2023-08-07T13:52:47+02:00</time>
      </trkpt>
      <trkpt lat="44.13785" lon="6.59456">
        <ele>1169.5</ele>
        <time>2023-08-07T13:52:51+02:00</time>
      </trkpt>
      <trkpt lat="44.1378" lon="6.59453">
        <ele>1168.9004</ele>
        <time>2023-08-07T13:52:52+02:00</time>
      </trkpt>
      <trkpt lat="44.13763" lon="6.5944">
        <ele>1169.5</ele>
        <time>2023-08-07T13:52:56+02:00</time>
      </trkpt>
      <trkpt lat="44.13759" lon="6.59436">
        <ele>1168.7002</ele>
        <time>2023-08-07T13:52:57+02:00</time>
      </trkpt>
      <trkpt lat="44.13741" lon="6.59427">
        <ele>1169.9004</ele>
        <time>2023-08-07T13:53:01+02:00</time>
      </trkpt>
      <trkpt lat="44.13737" lon="6.59425">
        <ele>1171.1006</ele>
        <time>2023-08-07T13:53:02+02:00</time>
      </trkpt>
      <trkpt lat="44.13722" lon="6.59415">
        <ele>1171.1006</ele>
        <time>2023-08-07T13:53:06+02:00</time>
      </trkpt>
      <trkpt lat="44.13719" lon="6.59412">
        <ele>1172.1006</ele>
        <time>2023-08-07T13:53:07+02:00</time>
      </trkpt>
      <trkpt lat="44.13705" lon="6.59398">
        <ele>1169</ele>
        <time>2023-08-07T13:53:11+02:00</time>
      </trkpt>
      <trkpt lat="44.13701" lon="6.59396">
        <ele>1169</ele>
        <time>2023-08-07T13:53:12+02:00</time>
      </trkpt>
      <trkpt lat="44.13692" lon="6.5939">
        <ele>1168.2002</ele>
        <time>2023-08-07T13:53:16+02:00</time>
      </trkpt>
      <trkpt lat="44.13691" lon="6.59389">
        <ele>1168.2002</ele>
        <time>2023-08-07T13:53:17+02:00</time>
      </trkpt>
      <trkpt lat="44.13685" lon="6.59386">
        <ele>1168.9004</ele>
        <time>2023-08-07T13:53:21+02:00</time>
      </trkpt>
      <trkpt lat="44.13682" lon="6.59384">
        <ele>1167.4004</ele>
        <time>2023-08-07T13:53:22+02:00</time>
      </trkpt>
      <trkpt lat="44.13673" lon="6.59378">
        <ele>1168</ele>
        <time>2023-08-07T13:53:26+02:00</time>
      </trkpt>
      <trkpt lat="44.13671" lon="6.59376">
        <ele>1165.7998</ele>
        <time>2023-08-07T13:53:27+02:00</time>
      </trkpt>
      <trkpt lat="44.13662" lon="6.59368">
        <ele>1165.1006</ele>
        <time>2023-08-07T13:53:31+02:00</time>
      </trkpt>
      <trkpt lat="44.1366" lon="6.59365">
        <ele>1165.1006</ele>
        <time>2023-08-07T13:53:32+02:00</time>
      </trkpt>
      <trkpt lat="44.13659" lon="6.59352">
        <ele>1163.2002</ele>
        <time>2023-08-07T13:53:36+02:00</time>
      </trkpt>
      <trkpt lat="44.13659" lon="6.59348">
        <ele>1161.6006</ele>
        <time>2023-08-07T13:53:37+02:00</time>
      </trkpt>
      <trkpt lat="44.13655" lon="6.59339">
        <ele>1160.9004</ele>
        <time>2023-08-07T13:53:41+02:00</time>
      </trkpt>
      <trkpt lat="44.13654" lon="6.59339">
        <ele>1160.9004</ele>
        <time>2023-08-07T13:53:42+02:00</time>
      </trkpt>
      <trkpt lat="44.13645" lon="6.5934">
        <ele>1162.4004</ele>
        <time>2023-08-07T13:53:46+02:00</time>
      </trkpt>
      <trkpt lat="44.13643" lon="6.5934">
        <ele>1162.4004</ele>
        <time>2023-08-07T13:53:47+02:00</time>
      </trkpt>
      <trkpt lat="44.1364" lon="6.59334">
        <ele>1161.1006</ele>
        <time>2023-08-07T13:53:51+02:00</time>
      </trkpt>
      <trkpt lat="44.13639" lon="6.59331">
        <ele>1161.1006</ele>
        <time>2023-08-07T13:53:52+02:00</time>
      </trkpt>
      <trkpt lat="44.13634" lon="6.59323">
        <ele>1160.7002</ele>
        <time>2023-08-07T13:53:56+02:00</time>
      </trkpt>
      <trkpt lat="44.13631" lon="6.59322">
        <ele>1161.6006</ele>
        <time>2023-08-07T13:53:57+02:00</time>
      </trkpt>
      <trkpt lat="44.1362" lon="6.59317">
        <ele>1162.4004</ele>
        <time>2023-08-07T13:54:01+02:00</time>
      </trkpt>
      <trkpt lat="44.13618" lon="6.59315">
        <ele>1162.4004</ele>
        <time>2023-08-07T13:54:02+02:00</time>
      </trkpt>
      <trkpt lat="44.1361" lon="6.59309">
        <ele>1163.5</ele>
        <time>2023-08-07T13:54:06+02:00</time>
      </trkpt>
      <trkpt lat="44.13608" lon="6.59307">
        <ele>1162.5</ele>
        <time>2023-08-07T13:54:07+02:00</time>
      </trkpt>
      <trkpt lat="44.13602" lon="6.59298">
        <ele>1163.9004</ele>
        <time>2023-08-07T13:54:11+02:00</time>
      </trkpt>
      <trkpt lat="44.136" lon="6.59297">
        <ele>1163.9004</ele>
        <time>2023-08-07T13:54:12+02:00</time>
      </trkpt>
      <trkpt lat="44.13594" lon="6.59295">
        <ele>1165.2002</ele>
        <time>2023-08-07T13:54:16+02:00</time>
      </trkpt>
      <trkpt lat="44.13594" lon="6.59294">
        <ele>1165.2002</ele>
        <time>2023-08-07T13:54:17+02:00</time>
      </trkpt>
      <trkpt lat="44.13596" lon="6.59282">
        <ele>1163.2998</ele>
        <time>2023-08-07T13:54:21+02:00</time>
      </trkpt>
      <trkpt lat="44.13596" lon="6.59277">
        <ele>1163.2998</ele>
        <time>2023-08-07T13:54:22+02:00</time>
      </trkpt>
      <trkpt lat="44.13594" lon="6.59256">
        <ele>1160.7002</ele>
        <time>2023-08-07T13:54:26+02:00</time>
      </trkpt>
      <trkpt lat="44.13592" lon="6.59251">
        <ele>1160.7002</ele>
        <time>2023-08-07T13:54:27+02:00</time>
      </trkpt>
      <trkpt lat="44.13579" lon="6.59241">
        <ele>1162.6006</ele>
        <time>2023-08-07T13:54:31+02:00</time>
      </trkpt>
      <trkpt lat="44.13576" lon="6.5924">
        <ele>1164.1006</ele>
        <time>2023-08-07T13:54:32+02:00</time>
      </trkpt>
      <trkpt lat="44.13562" lon="6.59232">
        <ele>1166.5</ele>
        <time>2023-08-07T13:54:36+02:00</time>
      </trkpt>
      <trkpt lat="44.13558" lon="6.59229">
        <ele>1167.4004</ele>
        <time>2023-08-07T13:54:37+02:00</time>
      </trkpt>
      <trkpt lat="44.13543" lon="6.59215">
        <ele>1169.7002</ele>
        <time>2023-08-07T13:54:41+02:00</time>
      </trkpt>
      <trkpt lat="44.13539" lon="6.59212">
        <ele>1170.5</ele>
        <time>2023-08-07T13:54:42+02:00</time>
      </trkpt>
      <trkpt lat="44.13524" lon="6.592">
        <ele>1172.4004</ele>
        <time>2023-08-07T13:54:46+02:00</time>
      </trkpt>
      <trkpt lat="44.13522" lon="6.59198">
        <ele>1173.6006</ele>
        <time>2023-08-07T13:54:47+02:00</time>
      </trkpt>
      <trkpt lat="44.1351" lon="6.59195">
        <ele>1173.6006</ele>
        <time>2023-08-07T13:54:51+02:00</time>
      </trkpt>
      <trkpt lat="44.13508" lon="6.59193">
        <ele>1174.6006</ele>
        <time>2023-08-07T13:54:52+02:00</time>
      </trkpt>
      <trkpt lat="44.13489" lon="6.59188">
        <ele>1174.7002</ele>
        <time>2023-08-07T13:54:56+02:00</time>
      </trkpt>
      <trkpt lat="44.13484" lon="6.59188">
        <ele>1174.7998</ele>
        <time>2023-08-07T13:54:57+02:00</time>
      </trkpt>
      <trkpt lat="44.13466" lon="6.5919">
        <ele>1176</ele>
        <time>2023-08-07T13:55:01+02:00</time>
      </trkpt>
      <trkpt lat="44.13461" lon="6.59191">
        <ele>1176</ele>
        <time>2023-08-07T13:55:02+02:00</time>
      </trkpt>
      <trkpt lat="44.13445" lon="6.59191">
        <ele>1174.4004</ele>
        <time>2023-08-07T13:55:06+02:00</time>
      </trkpt>
      <trkpt lat="44.13442" lon="6.59189">
        <ele>1174.4004</ele>
        <time>2023-08-07T13:55:07+02:00</time>
      </trkpt>
      <trkpt lat="44.13429" lon="6.59177">
        <ele>1167.7002</ele>
        <time>2023-08-07T13:55:11+02:00</time>
      </trkpt>
      <trkpt lat="44.13425" lon="6.59175">
        <ele>1167.7002</ele>
        <time>2023-08-07T13:55:12+02:00</time>
      </trkpt>
      <trkpt lat="44.13409" lon="6.59166">
        <ele>1162.2002</ele>
        <time>2023-08-07T13:55:16+02:00</time>
      </trkpt>
      <trkpt lat="44.13405" lon="6.59165">
        <ele>1160.7998</ele>
        <time>2023-08-07T13:55:17+02:00</time>
      </trkpt>
      <trkpt lat="44.13389" lon="6.59166">
        <ele>1158.1006</ele>
        <time>2023-08-07T13:55:21+02:00</time>
      </trkpt>
      <trkpt lat="44.13386" lon="6.59167">
        <ele>1156.7998</ele>
        <time>2023-08-07T13:55:22+02:00</time>
      </trkpt>
      <trkpt lat="44.1337" lon="6.59171">
        <ele>1155.6006</ele>
        <time>2023-08-07T13:55:26+02:00</time>
      </trkpt>
      <trkpt lat="44.13366" lon="6.59172">
        <ele>1154.4004</ele>
        <time>2023-08-07T13:55:27+02:00</time>
      </trkpt>
      <trkpt lat="44.13347" lon="6.59172">
        <ele>1151.2002</ele>
        <time>2023-08-07T13:55:31+02:00</time>
      </trkpt>
      <trkpt lat="44.13342" lon="6.59172">
        <ele>1150.4004</ele>
        <time>2023-08-07T13:55:32+02:00</time>
      </trkpt>
      <trkpt lat="44.13324" lon="6.59171">
        <ele>1147.6006</ele>
        <time>2023-08-07T13:55:36+02:00</time>
      </trkpt>
      <trkpt lat="44.13319" lon="6.5917">
        <ele>1147.6006</ele>
        <time>2023-08-07T13:55:37+02:00</time>
      </trkpt>
      <trkpt lat="44.13301" lon="6.59167">
        <ele>1145.9004</ele>
        <time>2023-08-07T13:55:41+02:00</time>
      </trkpt>
      <trkpt lat="44.13297" lon="6.59167">
        <ele>1145.7998</ele>
        <time>2023-08-07T13:55:42+02:00</time>
      </trkpt>
      <trkpt lat="44.13281" lon="6.59167">
        <ele>1146.1006</ele>
        <time>2023-08-07T13:55:46+02:00</time>
      </trkpt>
      <trkpt lat="44.13277" lon="6.59166">
        <ele>1146.1006</ele>
        <time>2023-08-07T13:55:47+02:00</time>
      </trkpt>
      <trkpt lat="44.13261" lon="6.59168">
        <ele>1146.9004</ele>
        <time>2023-08-07T13:55:51+02:00</time>
      </trkpt>
      <trkpt lat="44.13257" lon="6.5917">
        <ele>1146.9004</ele>
        <time>2023-08-07T13:55:52+02:00</time>
      </trkpt>
      <trkpt lat="44.13242" lon="6.59176">
        <ele>1148</ele>
        <time>2023-08-07T13:55:56+02:00</time>
      </trkpt>
      <trkpt lat="44.13238" lon="6.59178">
        <ele>1148.7002</ele>
        <time>2023-08-07T13:55:57+02:00</time>
      </trkpt>
      <trkpt lat="44.13225" lon="6.59185">
        <ele>1150.2002</ele>
        <time>2023-08-07T13:56:01+02:00</time>
      </trkpt>
      <trkpt lat="44.13222" lon="6.59186">
        <ele>1150.2002</ele>
        <time>2023-08-07T13:56:02+02:00</time>
      </trkpt>
      <trkpt lat="44.13213" lon="6.59192">
        <ele>1152.1006</ele>
        <time>2023-08-07T13:56:06+02:00</time>
      </trkpt>
      <trkpt lat="44.1321" lon="6.59194">
        <ele>1152.1006</ele>
        <time>2023-08-07T13:56:07+02:00</time>
      </trkpt>
      <trkpt lat="44.13195" lon="6.59201">
        <ele>1155.1006</ele>
        <time>2023-08-07T13:56:11+02:00</time>
      </trkpt>
      <trkpt lat="44.13191" lon="6.59203">
        <ele>1155.1006</ele>
        <time>2023-08-07T13:56:12+02:00</time>
      </trkpt>
      <trkpt lat="44.13178" lon="6.59211">
        <ele>1157</ele>
        <time>2023-08-07T13:56:16+02:00</time>
      </trkpt>
      <trkpt lat="44.13175" lon="6.59213">
        <ele>1158.1006</ele>
        <time>2023-08-07T13:56:17+02:00</time>
      </trkpt>
      <trkpt lat="44.13164" lon="6.59224">
        <ele>1160.2998</ele>
        <time>2023-08-07T13:56:21+02:00</time>
      </trkpt>
      <trkpt lat="44.13161" lon="6.59227">
        <ele>1160.2998</ele>
        <time>2023-08-07T13:56:22+02:00</time>
      </trkpt>
      <trkpt lat="44.13149" lon="6.59238">
        <ele>1162.4004</ele>
        <time>2023-08-07T13:56:26+02:00</time>
      </trkpt>
      <trkpt lat="44.13146" lon="6.5924">
        <ele>1163.2998</ele>
        <time>2023-08-07T13:56:27+02:00</time>
      </trkpt>
      <trkpt lat="44.13133" lon="6.59242">
        <ele>1165.5</ele>
        <time>2023-08-07T13:56:31+02:00</time>
      </trkpt>
      <trkpt lat="44.13129" lon="6.59242">
        <ele>1165.5</ele>
        <time>2023-08-07T13:56:32+02:00</time>
      </trkpt>
      <trkpt lat="44.13115" lon="6.59239">
        <ele>1167.7002</ele>
        <time>2023-08-07T13:56:36+02:00</time>
      </trkpt>
      <trkpt lat="44.13112" lon="6.59239">
        <ele>1167.7002</ele>
        <time>2023-08-07T13:56:37+02:00</time>
      </trkpt>
      <trkpt lat="44.13099" lon="6.5924">
        <ele>1169.9004</ele>
        <time>2023-08-07T13:56:41+02:00</time>
      </trkpt>
      <trkpt lat="44.13096" lon="6.59241">
        <ele>1170.7002</ele>
        <time>2023-08-07T13:56:42+02:00</time>
      </trkpt>
      <trkpt lat="44.13083" lon="6.59246">
        <ele>1172.2002</ele>
        <time>2023-08-07T13:56:46+02:00</time>
      </trkpt>
      <trkpt lat="44.13078" lon="6.59247">
        <ele>1172.9004</ele>
        <time>2023-08-07T13:56:47+02:00</time>
      </trkpt>
      <trkpt lat="44.13065" lon="6.5925">
        <ele>1174.5</ele>
        <time>2023-08-07T13:56:51+02:00</time>
      </trkpt>
      <trkpt lat="44.13061" lon="6.59251">
        <ele>1174.5</ele>
        <time>2023-08-07T13:56:52+02:00</time>
      </trkpt>
      <trkpt lat="44.13047" lon="6.59252">
        <ele>1175.6006</ele>
        <time>2023-08-07T13:56:56+02:00</time>
      </trkpt>
      <trkpt lat="44.13043" lon="6.59251">
        <ele>1175.6006</ele>
        <time>2023-08-07T13:56:57+02:00</time>
      </trkpt>
      <trkpt lat="44.13029" lon="6.59247">
        <ele>1175.5</ele>
        <time>2023-08-07T13:57:01+02:00</time>
      </trkpt>
      <trkpt lat="44.13025" lon="6.59246">
        <ele>1175.5</ele>
        <time>2023-08-07T13:57:02+02:00</time>
      </trkpt>
      <trkpt lat="44.13011" lon="6.59242">
        <ele>1175.5</ele>
        <time>2023-08-07T13:57:06+02:00</time>
      </trkpt>
      <trkpt lat="44.13008" lon="6.5924">
        <ele>1174.9004</ele>
        <time>2023-08-07T13:57:07+02:00</time>
      </trkpt>
      <trkpt lat="44.12996" lon="6.5923">
        <ele>1174.1006</ele>
        <time>2023-08-07T13:57:11+02:00</time>
      </trkpt>
      <trkpt lat="44.12993" lon="6.59227">
        <ele>1174.1006</ele>
        <time>2023-08-07T13:57:12+02:00</time>
      </trkpt>
      <trkpt lat="44.1298" lon="6.59217">
        <ele>1173.1006</ele>
        <time>2023-08-07T13:57:16+02:00</time>
      </trkpt>
      <trkpt lat="44.12976" lon="6.59215">
        <ele>1173.1006</ele>
        <time>2023-08-07T13:57:17+02:00</time>
      </trkpt>
      <trkpt lat="44.12963" lon="6.59208">
        <ele>1172.1006</ele>
        <time>2023-08-07T13:57:21+02:00</time>
      </trkpt>
      <trkpt lat="44.12959" lon="6.59205">
        <ele>1171.2002</ele>
        <time>2023-08-07T13:57:22+02:00</time>
      </trkpt>
      <trkpt lat="44.12951" lon="6.59186">
        <ele>1169.5</ele>
        <time>2023-08-07T13:57:26+02:00</time>
      </trkpt>
      <trkpt lat="44.12952" lon="6.59181">
        <ele>1169.5</ele>
        <time>2023-08-07T13:57:27+02:00</time>
      </trkpt>
      <trkpt lat="44.12946" lon="6.5917">
        <ele>1167.7998</ele>
        <time>2023-08-07T13:57:31+02:00</time>
      </trkpt>
      <trkpt lat="44.12943" lon="6.59174">
        <ele>1168.5</ele>
        <time>2023-08-07T13:57:32+02:00</time>
      </trkpt>
      <trkpt lat="44.12929" lon="6.59202">
        <ele>1170.6006</ele>
        <time>2023-08-07T13:57:36+02:00</time>
      </trkpt>
      <trkpt lat="44.12924" lon="6.5921">
        <ele>1171.2998</ele>
        <time>2023-08-07T13:57:37+02:00</time>
      </trkpt>
      <trkpt lat="44.12901" lon="6.59242">
        <ele>1174.2002</ele>
        <time>2023-08-07T13:57:41+02:00</time>
      </trkpt>
      <trkpt lat="44.12896" lon="6.59249">
        <ele>1174.7998</ele>
        <time>2023-08-07T13:57:42+02:00</time>
      </trkpt>
      <trkpt lat="44.12882" lon="6.59264">
        <ele>1175.4004</ele>
        <time>2023-08-07T13:57:46+02:00</time>
      </trkpt>
      <trkpt lat="44.12879" lon="6.59266">
        <ele>1176</ele>
        <time>2023-08-07T13:57:47+02:00</time>
      </trkpt>
      <trkpt lat="44.12865" lon="6.59267">
        <ele>1176.2998</ele>
        <time>2023-08-07T13:57:51+02:00</time>
      </trkpt>
      <trkpt lat="44.12861" lon="6.59265">
        <ele>1176.1006</ele>
        <time>2023-08-07T13:57:52+02:00</time>
      </trkpt>
      <trkpt lat="44.12856" lon="6.59238">
        <ele>1174.5</ele>
        <time>2023-08-07T13:57:56+02:00</time>
      </trkpt>
      <trkpt lat="44.12856" lon="6.5923">
        <ele>1173.9004</ele>
        <time>2023-08-07T13:57:57+02:00</time>
      </trkpt>
      <trkpt lat="44.12856" lon="6.59199">
        <ele>1172.6006</ele>
        <time>2023-08-07T13:58:01+02:00</time>
      </trkpt>
      <trkpt lat="44.12855" lon="6.59192">
        <ele>1172.1006</ele>
        <time>2023-08-07T13:58:02+02:00</time>
      </trkpt>
      <trkpt lat="44.12856" lon="6.5917">
        <ele>1170.7998</ele>
        <time>2023-08-07T13:58:06+02:00</time>
      </trkpt>
      <trkpt lat="44.12857" lon="6.59164">
        <ele>1170.2998</ele>
        <time>2023-08-07T13:58:07+02:00</time>
      </trkpt>
      <trkpt lat="44.12868" lon="6.59136">
        <ele>1168.2002</ele>
        <time>2023-08-07T13:58:11+02:00</time>
      </trkpt>
      <trkpt lat="44.12874" lon="6.59131">
        <ele>1167.7002</ele>
        <time>2023-08-07T13:58:12+02:00</time>
      </trkpt>
      <trkpt lat="44.12896" lon="6.59116">
        <ele>1165.5</ele>
        <time>2023-08-07T13:58:16+02:00</time>
      </trkpt>
      <trkpt lat="44.12899" lon="6.5911">
        <ele>1165.2002</ele>
        <time>2023-08-07T13:58:17+02:00</time>
      </trkpt>
      <trkpt lat="44.129" lon="6.59077">
        <ele>1163.5</ele>
        <time>2023-08-07T13:58:21+02:00</time>
      </trkpt>
      <trkpt lat="44.12899" lon="6.59066">
        <ele>1163.1006</ele>
        <time>2023-08-07T13:58:22+02:00</time>
      </trkpt>
      <trkpt lat="44.12903" lon="6.59026">
        <ele>1161.2002</ele>
        <time>2023-08-07T13:58:26+02:00</time>
      </trkpt>
      <trkpt lat="44.12902" lon="6.59017">
        <ele>1160.7998</ele>
        <time>2023-08-07T13:58:27+02:00</time>
      </trkpt>
      <trkpt lat="44.12887" lon="6.58997">
        <ele>1161.4004</ele>
        <time>2023-08-07T13:58:31+02:00</time>
      </trkpt>
      <trkpt lat="44.12883" lon="6.58993">
        <ele>1161.4004</ele>
        <time>2023-08-07T13:58:32+02:00</time>
      </trkpt>
      <trkpt lat="44.12872" lon="6.58978">
        <ele>1162.2998</ele>
        <time>2023-08-07T13:58:36+02:00</time>
      </trkpt>
      <trkpt lat="44.1287" lon="6.58974">
        <ele>1162.2998</ele>
        <time>2023-08-07T13:58:37+02:00</time>
      </trkpt>
      <trkpt lat="44.12865" lon="6.58955">
        <ele>1163</ele>
        <time>2023-08-07T13:58:41+02:00</time>
      </trkpt>
      <trkpt lat="44.12864" lon="6.5895">
        <ele>1163</ele>
        <time>2023-08-07T13:58:42+02:00</time>
      </trkpt>
      <trkpt lat="44.12856" lon="6.58934">
        <ele>1164.2002</ele>
        <time>2023-08-07T13:58:46+02:00</time>
      </trkpt>
      <trkpt lat="44.12852" lon="6.58931">
        <ele>1164.2002</ele>
        <time>2023-08-07T13:58:47+02:00</time>
      </trkpt>
      <trkpt lat="44.12838" lon="6.58928">
        <ele>1166</ele>
        <time>2023-08-07T13:58:51+02:00</time>
      </trkpt>
      <trkpt lat="44.12834" lon="6.58928">
        <ele>1166</ele>
        <time>2023-08-07T13:58:52+02:00</time>
      </trkpt>
      <trkpt lat="44.1282" lon="6.58925">
        <ele>1167.2998</ele>
        <time>2023-08-07T13:58:56+02:00</time>
      </trkpt>
      <trkpt lat="44.12816" lon="6.58924">
        <ele>1167.9004</ele>
        <time>2023-08-07T13:58:57+02:00</time>
      </trkpt>
      <trkpt lat="44.12801" lon="6.58918">
        <ele>1169.6006</ele>
        <time>2023-08-07T13:59:01+02:00</time>
      </trkpt>
      <trkpt lat="44.12797" lon="6.58917">
        <ele>1169.6006</ele>
        <time>2023-08-07T13:59:02+02:00</time>
      </trkpt>
      <trkpt lat="44.12783" lon="6.5891">
        <ele>1170.5</ele>
        <time>2023-08-07T13:59:06+02:00</time>
      </trkpt>
      <trkpt lat="44.1278" lon="6.58908">
        <ele>1171</ele>
        <time>2023-08-07T13:59:07+02:00</time>
      </trkpt>
      <trkpt lat="44.12764" lon="6.58898">
        <ele>1172.1006</ele>
        <time>2023-08-07T13:59:11+02:00</time>
      </trkpt>
      <trkpt lat="44.1276" lon="6.58895">
        <ele>1171.9004</ele>
        <time>2023-08-07T13:59:12+02:00</time>
      </trkpt>
      <trkpt lat="44.12743" lon="6.58885">
        <ele>1172.7002</ele>
        <time>2023-08-07T13:59:16+02:00</time>
      </trkpt>
      <trkpt lat="44.12739" lon="6.58881">
        <ele>1173.1006</ele>
        <time>2023-08-07T13:59:17+02:00</time>
      </trkpt>
      <trkpt lat="44.1272" lon="6.58866">
        <ele>1173.2998</ele>
        <time>2023-08-07T13:59:21+02:00</time>
      </trkpt>
      <trkpt lat="44.12715" lon="6.58863">
        <ele>1173.2998</ele>
        <time>2023-08-07T13:59:22+02:00</time>
      </trkpt>
      <trkpt lat="44.12695" lon="6.58848">
        <ele>1172.7998</ele>
        <time>2023-08-07T13:59:26+02:00</time>
      </trkpt>
      <trkpt lat="44.12688" lon="6.58844">
        <ele>1172</ele>
        <time>2023-08-07T13:59:27+02:00</time>
      </trkpt>
      <trkpt lat="44.12662" lon="6.58825">
        <ele>1170</ele>
        <time>2023-08-07T13:59:31+02:00</time>
      </trkpt>
      <trkpt lat="44.12655" lon="6.5882">
        <ele>1169.9004</ele>
        <time>2023-08-07T13:59:32+02:00</time>
      </trkpt>
      <trkpt lat="44.12624" lon="6.58798">
        <ele>1166</ele>
        <time>2023-08-07T13:59:36+02:00</time>
      </trkpt>
      <trkpt lat="44.12616" lon="6.58792">
        <ele>1164.6006</ele>
        <time>2023-08-07T13:59:37+02:00</time>
      </trkpt>
      <trkpt lat="44.12587" lon="6.58763">
        <ele>1160.7002</ele>
        <time>2023-08-07T13:59:41+02:00</time>
      </trkpt>
      <trkpt lat="44.12581" lon="6.58755">
        <ele>1159.6006</ele>
        <time>2023-08-07T13:59:42+02:00</time>
      </trkpt>
      <trkpt lat="44.12555" lon="6.58725">
        <ele>1157</ele>
        <time>2023-08-07T13:59:46+02:00</time>
      </trkpt>
      <trkpt lat="44.12549" lon="6.58718">
        <ele>1156.2998</ele>
        <time>2023-08-07T13:59:47+02:00</time>
      </trkpt>
      <trkpt lat="44.12531" lon="6.58694">
        <ele>1154.4004</ele>
        <time>2023-08-07T13:59:51+02:00</time>
      </trkpt>
      <trkpt lat="44.12526" lon="6.58689">
        <ele>1153.7002</ele>
        <time>2023-08-07T13:59:52+02:00</time>
      </trkpt>
      <trkpt lat="44.12508" lon="6.58677">
        <ele>1153.1006</ele>
        <time>2023-08-07T13:59:56+02:00</time>
      </trkpt>
      <trkpt lat="44.12504" lon="6.58675">
        <ele>1153.1006</ele>
        <time>2023-08-07T13:59:57+02:00</time>
      </trkpt>
      <trkpt lat="44.12485" lon="6.58664">
        <ele>1152.4004</ele>
        <time>2023-08-07T14:00:01+02:00</time>
      </trkpt>
      <trkpt lat="44.1248" lon="6.58662">
        <ele>1152.7002</ele>
        <time>2023-08-07T14:00:02+02:00</time>
      </trkpt>
      <trkpt lat="44.1246" lon="6.58653">
        <ele>1152.4004</ele>
        <time>2023-08-07T14:00:06+02:00</time>
      </trkpt>
      <trkpt lat="44.12454" lon="6.5865">
        <ele>1152.4004</ele>
        <time>2023-08-07T14:00:07+02:00</time>
      </trkpt>
      <trkpt lat="44.12436" lon="6.5863">
        <ele>1149.2002</ele>
        <time>2023-08-07T14:00:11+02:00</time>
      </trkpt>
      <trkpt lat="44.12432" lon="6.58624">
        <ele>1149.1006</ele>
        <time>2023-08-07T14:00:12+02:00</time>
      </trkpt>
      <trkpt lat="44.12415" lon="6.58601">
        <ele>1146.9004</ele>
        <time>2023-08-07T14:00:16+02:00</time>
      </trkpt>
      <trkpt lat="44.1241" lon="6.58595">
        <ele>1146.4004</ele>
        <time>2023-08-07T14:00:17+02:00</time>
      </trkpt>
      <trkpt lat="44.12387" lon="6.58577">
        <ele>1146.6006</ele>
        <time>2023-08-07T14:00:21+02:00</time>
      </trkpt>
      <trkpt lat="44.12379" lon="6.58571">
        <ele>1146.9004</ele>
        <time>2023-08-07T14:00:22+02:00</time>
      </trkpt>
      <trkpt lat="44.12349" lon="6.58548">
        <ele>1147.5</ele>
        <time>2023-08-07T14:00:26+02:00</time>
      </trkpt>
      <trkpt lat="44.12342" lon="6.58542">
        <ele>1147.7002</ele>
        <time>2023-08-07T14:00:27+02:00</time>
      </trkpt>
      <trkpt lat="44.12325" lon="6.58514">
        <ele>1148.6006</ele>
        <time>2023-08-07T14:00:31+02:00</time>
      </trkpt>
      <trkpt lat="44.12323" lon="6.58505">
        <ele>1148.4004</ele>
        <time>2023-08-07T14:00:32+02:00</time>
      </trkpt>
      <trkpt lat="44.12309" lon="6.58473">
        <ele>1146.7002</ele>
        <time>2023-08-07T14:00:36+02:00</time>
      </trkpt>
      <trkpt lat="44.12303" lon="6.58469">
        <ele>1146.7998</ele>
        <time>2023-08-07T14:00:37+02:00</time>
      </trkpt>
      <trkpt lat="44.12276" lon="6.58458">
        <ele>1143.4004</ele>
        <time>2023-08-07T14:00:41+02:00</time>
      </trkpt>
      <trkpt lat="44.12269" lon="6.58456">
        <ele>1142.9004</ele>
        <time>2023-08-07T14:00:42+02:00</time>
      </trkpt>
      <trkpt lat="44.12241" lon="6.5845">
        <ele>1139.4004</ele>
        <time>2023-08-07T14:00:46+02:00</time>
      </trkpt>
      <trkpt lat="44.12233" lon="6.58449">
        <ele>1138.5</ele>
        <time>2023-08-07T14:00:47+02:00</time>
      </trkpt>
      <trkpt lat="44.12196" lon="6.58445">
        <ele>1135.1006</ele>
        <time>2023-08-07T14:00:51+02:00</time>
      </trkpt>
      <trkpt lat="44.12188" lon="6.58442">
        <ele>1134.4004</ele>
        <time>2023-08-07T14:00:52+02:00</time>
      </trkpt>
      <trkpt lat="44.12161" lon="6.58447">
        <ele>1131.7002</ele>
        <time>2023-08-07T14:00:56+02:00</time>
      </trkpt>
      <trkpt lat="44.12156" lon="6.58451">
        <ele>1132.6006</ele>
        <time>2023-08-07T14:00:57+02:00</time>
      </trkpt>
      <trkpt lat="44.12138" lon="6.58469">
        <ele>1133.9004</ele>
        <time>2023-08-07T14:01:01+02:00</time>
      </trkpt>
      <trkpt lat="44.12135" lon="6.58476">
        <ele>1134.9004</ele>
        <time>2023-08-07T14:01:02+02:00</time>
      </trkpt>
      <trkpt lat="44.12118" lon="6.58496">
        <ele>1137.5</ele>
        <time>2023-08-07T14:01:06+02:00</time>
      </trkpt>
      <trkpt lat="44.12113" lon="6.58495">
        <ele>1137.2998</ele>
        <time>2023-08-07T14:01:07+02:00</time>
      </trkpt>
      <trkpt lat="44.12102" lon="6.58467">
        <ele>1129.7998</ele>
        <time>2023-08-07T14:01:11+02:00</time>
      </trkpt>
      <trkpt lat="44.12101" lon="6.5846">
        <ele>1129.7998</ele>
        <time>2023-08-07T14:01:12+02:00</time>
      </trkpt>
      <trkpt lat="44.12087" lon="6.58441">
        <ele>1123.7002</ele>
        <time>2023-08-07T14:01:16+02:00</time>
      </trkpt>
      <trkpt lat="44.1208" lon="6.5844">
        <ele>1123.5</ele>
        <time>2023-08-07T14:01:17+02:00</time>
      </trkpt>
      <trkpt lat="44.12052" lon="6.58443">
        <ele>1126.5</ele>
        <time>2023-08-07T14:01:21+02:00</time>
      </trkpt>
      <trkpt lat="44.12044" lon="6.58443">
        <ele>1127</ele>
        <time>2023-08-07T14:01:22+02:00</time>
      </trkpt>
      <trkpt lat="44.12013" lon="6.58446">
        <ele>1129.9004</ele>
        <time>2023-08-07T14:01:26+02:00</time>
      </trkpt>
      <trkpt lat="44.12005" lon="6.58446">
        <ele>1131.1006</ele>
        <time>2023-08-07T14:01:27+02:00</time>
      </trkpt>
      <trkpt lat="44.11975" lon="6.58444">
        <ele>1134.9004</ele>
        <time>2023-08-07T14:01:31+02:00</time>
      </trkpt>
      <trkpt lat="44.11967" lon="6.58442">
        <ele>1135.6006</ele>
        <time>2023-08-07T14:01:32+02:00</time>
      </trkpt>
      <trkpt lat="44.1194" lon="6.58428">
        <ele>1133.5</ele>
        <time>2023-08-07T14:01:36+02:00</time>
      </trkpt>
      <trkpt lat="44.11934" lon="6.58425">
        <ele>1133.9004</ele>
        <time>2023-08-07T14:01:37+02:00</time>
      </trkpt>
      <trkpt lat="44.11907" lon="6.58411">
        <ele>1131.1006</ele>
        <time>2023-08-07T14:01:41+02:00</time>
      </trkpt>
      <trkpt lat="44.119" lon="6.58407">
        <ele>1131.2998</ele>
        <time>2023-08-07T14:01:42+02:00</time>
      </trkpt>
      <trkpt lat="44.11874" lon="6.58395">
        <ele>1127.9004</ele>
        <time>2023-08-07T14:01:46+02:00</time>
      </trkpt>
      <trkpt lat="44.11868" lon="6.58392">
        <ele>1128.1006</ele>
        <time>2023-08-07T14:01:47+02:00</time>
      </trkpt>
      <trkpt lat="44.11841" lon="6.58388">
        <ele>1127.5</ele>
        <time>2023-08-07T14:01:51+02:00</time>
      </trkpt>
      <trkpt lat="44.11833" lon="6.58389">
        <ele>1128</ele>
        <time>2023-08-07T14:01:52+02:00</time>
      </trkpt>
      <trkpt lat="44.11803" lon="6.58396">
        <ele>1129.9004</ele>
        <time>2023-08-07T14:01:56+02:00</time>
      </trkpt>
      <trkpt lat="44.11797" lon="6.58398">
        <ele>1129.7002</ele>
        <time>2023-08-07T14:01:57+02:00</time>
      </trkpt>
      <trkpt lat="44.1177" lon="6.58408">
        <ele>1132.4004</ele>
        <time>2023-08-07T14:02:01+02:00</time>
      </trkpt>
      <trkpt lat="44.11763" lon="6.5841">
        <ele>1132.1006</ele>
        <time>2023-08-07T14:02:02+02:00</time>
      </trkpt>
      <trkpt lat="44.11739" lon="6.58416">
        <ele>1133.6006</ele>
        <time>2023-08-07T14:02:06+02:00</time>
      </trkpt>
      <trkpt lat="44.11733" lon="6.58418">
        <ele>1133.7002</ele>
        <time>2023-08-07T14:02:07+02:00</time>
      </trkpt>
      <trkpt lat="44.11708" lon="6.58424">
        <ele>1133.4004</ele>
        <time>2023-08-07T14:02:11+02:00</time>
      </trkpt>
      <trkpt lat="44.11702" lon="6.58425">
        <ele>1135.5</ele>
        <time>2023-08-07T14:02:12+02:00</time>
      </trkpt>
      <trkpt lat="44.11679" lon="6.58421">
        <ele>1131.5</ele>
        <time>2023-08-07T14:02:16+02:00</time>
      </trkpt>
      <trkpt lat="44.11674" lon="6.58418">
        <ele>1131.5</ele>
        <time>2023-08-07T14:02:17+02:00</time>
      </trkpt>
      <trkpt lat="44.11652" lon="6.58408">
        <ele>1126.7998</ele>
        <time>2023-08-07T14:02:21+02:00</time>
      </trkpt>
      <trkpt lat="44.11646" lon="6.58408">
        <ele>1125.7998</ele>
        <time>2023-08-07T14:02:22+02:00</time>
      </trkpt>
      <trkpt lat="44.11621" lon="6.58413">
        <ele>1121.9004</ele>
        <time>2023-08-07T14:02:26+02:00</time>
      </trkpt>
      <trkpt lat="44.11615" lon="6.58413">
        <ele>1121</ele>
        <time>2023-08-07T14:02:27+02:00</time>
      </trkpt>
      <trkpt lat="44.11599" lon="6.58418">
        <ele>1119.2998</ele>
        <time>2023-08-07T14:02:31+02:00</time>
      </trkpt>
      <trkpt lat="44.11597" lon="6.58422">
        <ele>1119.2998</ele>
        <time>2023-08-07T14:02:32+02:00</time>
      </trkpt>
      <trkpt lat="44.11598" lon="6.58444">
        <ele>1122.2998</ele>
        <time>2023-08-07T14:02:36+02:00</time>
      </trkpt>
      <trkpt lat="44.116" lon="6.5845">
        <ele>1124.6006</ele>
        <time>2023-08-07T14:02:37+02:00</time>
      </trkpt>
      <trkpt lat="44.11611" lon="6.58463">
        <ele>1127.4004</ele>
        <time>2023-08-07T14:02:41+02:00</time>
      </trkpt>
      <trkpt lat="44.11615" lon="6.58464">
        <ele>1128.7998</ele>
        <time>2023-08-07T14:02:42+02:00</time>
      </trkpt>
      <trkpt lat="44.11628" lon="6.58465">
        <ele>1131.9004</ele>
        <time>2023-08-07T14:02:46+02:00</time>
      </trkpt>
      <trkpt lat="44.11631" lon="6.58463">
        <ele>1133.4004</ele>
        <time>2023-08-07T14:02:47+02:00</time>
      </trkpt>
      <trkpt lat="44.11645" lon="6.58453">
        <ele>1134.2998</ele>
        <time>2023-08-07T14:02:51+02:00</time>
      </trkpt>
      <trkpt lat="44.11648" lon="6.58452">
        <ele>1134.2998</ele>
        <time>2023-08-07T14:02:52+02:00</time>
      </trkpt>
      <trkpt lat="44.1166" lon="6.58459">
        <ele>1139.2002</ele>
        <time>2023-08-07T14:02:56+02:00</time>
      </trkpt>
      <trkpt lat="44.1166" lon="6.58464">
        <ele>1139.2002</ele>
        <time>2023-08-07T14:02:57+02:00</time>
      </trkpt>
      <trkpt lat="44.11649" lon="6.58479">
        <ele>1140.7998</ele>
        <time>2023-08-07T14:03:01+02:00</time>
      </trkpt>
      <trkpt lat="44.11645" lon="6.58481">
        <ele>1140.7998</ele>
        <time>2023-08-07T14:03:02+02:00</time>
      </trkpt>
      <trkpt lat="44.11633" lon="6.5849">
        <ele>1139.6006</ele>
        <time>2023-08-07T14:03:06+02:00</time>
      </trkpt>
      <trkpt lat="44.11631" lon="6.58493">
        <ele>1140.2998</ele>
        <time>2023-08-07T14:03:07+02:00</time>
      </trkpt>
      <trkpt lat="44.1162" lon="6.58504">
        <ele>1141.1006</ele>
        <time>2023-08-07T14:03:11+02:00</time>
      </trkpt>
      <trkpt lat="44.11617" lon="6.58506">
        <ele>1139.2998</ele>
        <time>2023-08-07T14:03:12+02:00</time>
      </trkpt>
      <trkpt lat="44.11607" lon="6.58514">
        <ele>1140.1006</ele>
        <time>2023-08-07T14:03:16+02:00</time>
      </trkpt>
      <trkpt lat="44.11604" lon="6.58515">
        <ele>1138.5</ele>
        <time>2023-08-07T14:03:17+02:00</time>
      </trkpt>
      <trkpt lat="44.11593" lon="6.5852">
        <ele>1138.2002</ele>
        <time>2023-08-07T14:03:21+02:00</time>
      </trkpt>
      <trkpt lat="44.1159" lon="6.58521">
        <ele>1138.2002</ele>
        <time>2023-08-07T14:03:22+02:00</time>
      </trkpt>
      <trkpt lat="44.1158" lon="6.58528">
        <ele>1138.1006</ele>
        <time>2023-08-07T14:03:26+02:00</time>
      </trkpt>
      <trkpt lat="44.11577" lon="6.5853">
        <ele>1138.1006</ele>
        <time>2023-08-07T14:03:27+02:00</time>
      </trkpt>
      <trkpt lat="44.11568" lon="6.58539">
        <ele>1138.5</ele>
        <time>2023-08-07T14:03:31+02:00</time>
      </trkpt>
      <trkpt lat="44.11566" lon="6.58542">
        <ele>1138.5</ele>
        <time>2023-08-07T14:03:32+02:00</time>
      </trkpt>
      <trkpt lat="44.11558" lon="6.58553">
        <ele>1140</ele>
        <time>2023-08-07T14:03:36+02:00</time>
      </trkpt>
      <trkpt lat="44.11556" lon="6.58555">
        <ele>1141.5</ele>
        <time>2023-08-07T14:03:37+02:00</time>
      </trkpt>
      <trkpt lat="44.11549" lon="6.58566">
        <ele>1143</ele>
        <time>2023-08-07T14:03:41+02:00</time>
      </trkpt>
      <trkpt lat="44.11547" lon="6.58568">
        <ele>1143</ele>
        <time>2023-08-07T14:03:42+02:00</time>
      </trkpt>
      <trkpt lat="44.11538" lon="6.58577">
        <ele>1144.5</ele>
        <time>2023-08-07T14:03:46+02:00</time>
      </trkpt>
      <trkpt lat="44.11536" lon="6.5858">
        <ele>1146</ele>
        <time>2023-08-07T14:03:47+02:00</time>
      </trkpt>
      <trkpt lat="44.11527" lon="6.5859">
        <ele>1147.9004</ele>
        <time>2023-08-07T14:03:51+02:00</time>
      </trkpt>
      <trkpt lat="44.11525" lon="6.58592">
        <ele>1147.1006</ele>
        <time>2023-08-07T14:03:52+02:00</time>
      </trkpt>
      <trkpt lat="44.11516" lon="6.58602">
        <ele>1149.2002</ele>
        <time>2023-08-07T14:03:56+02:00</time>
      </trkpt>
      <trkpt lat="44.11514" lon="6.58604">
        <ele>1149.2002</ele>
        <time>2023-08-07T14:03:57+02:00</time>
      </trkpt>
      <trkpt lat="44.11506" lon="6.58613">
        <ele>1153.4004</ele>
        <time>2023-08-07T14:04:01+02:00</time>
      </trkpt>
      <trkpt lat="44.11504" lon="6.58616">
        <ele>1153.4004</ele>
        <time>2023-08-07T14:04:02+02:00</time>
      </trkpt>
      <trkpt lat="44.11497" lon="6.58624">
        <ele>1155.6006</ele>
        <time>2023-08-07T14:04:06+02:00</time>
      </trkpt>
      <trkpt lat="44.11495" lon="6.58626">
        <ele>1154.7002</ele>
        <time>2023-08-07T14:04:07+02:00</time>
      </trkpt>
      <trkpt lat="44.11488" lon="6.58635">
        <ele>1156.7002</ele>
        <time>2023-08-07T14:04:11+02:00</time>
      </trkpt>
      <trkpt lat="44.11486" lon="6.58637">
        <ele>1156.7002</ele>
        <time>2023-08-07T14:04:12+02:00</time>
      </trkpt>
      <trkpt lat="44.11477" lon="6.58645">
        <ele>1158.6006</ele>
        <time>2023-08-07T14:04:16+02:00</time>
      </trkpt>
      <trkpt lat="44.11475" lon="6.58647">
        <ele>1157.6006</ele>
        <time>2023-08-07T14:04:17+02:00</time>
      </trkpt>
      <trkpt lat="44.11468" lon="6.58654">
        <ele>1159.2998</ele>
        <time>2023-08-07T14:04:21+02:00</time>
      </trkpt>
      <trkpt lat="44.11466" lon="6.58656">
        <ele>1161.9004</ele>
        <time>2023-08-07T14:04:22+02:00</time>
      </trkpt>
      <trkpt lat="44.11459" lon="6.58665">
        <ele>1163.4004</ele>
        <time>2023-08-07T14:04:26+02:00</time>
      </trkpt>
      <trkpt lat="44.11457" lon="6.58667">
        <ele>1162.2998</ele>
        <time>2023-08-07T14:04:27+02:00</time>
      </trkpt>
      <trkpt lat="44.11449" lon="6.58677">
        <ele>1163.7998</ele>
        <time>2023-08-07T14:04:31+02:00</time>
      </trkpt>
      <trkpt lat="44.11447" lon="6.58679">
        <ele>1163.7998</ele>
        <time>2023-08-07T14:04:32+02:00</time>
      </trkpt>
      <trkpt lat="44.11439" lon="6.58689">
        <ele>1164.2002</ele>
        <time>2023-08-07T14:04:36+02:00</time>
      </trkpt>
      <trkpt lat="44.11438" lon="6.58691">
        <ele>1166.6006</ele>
        <time>2023-08-07T14:04:37+02:00</time>
      </trkpt>
      <trkpt lat="44.11431" lon="6.58703">
        <ele>1167.7002</ele>
        <time>2023-08-07T14:04:41+02:00</time>
      </trkpt>
      <trkpt lat="44.1143" lon="6.58706">
        <ele>1167.7002</ele>
        <time>2023-08-07T14:04:42+02:00</time>
      </trkpt>
      <trkpt lat="44.11424" lon="6.58716">
        <ele>1170.9004</ele>
        <time>2023-08-07T14:04:46+02:00</time>
      </trkpt>
      <trkpt lat="44.11423" lon="6.5872">
        <ele>1170.9004</ele>
        <time>2023-08-07T14:04:47+02:00</time>
      </trkpt>
      <trkpt lat="44.11417" lon="6.58731">
        <ele>1171.7998</ele>
        <time>2023-08-07T14:04:51+02:00</time>
      </trkpt>
      <trkpt lat="44.11415" lon="6.58734">
        <ele>1172.7998</ele>
        <time>2023-08-07T14:04:52+02:00</time>
      </trkpt>
      <trkpt lat="44.11406" lon="6.58743">
        <ele>1173.7998</ele>
        <time>2023-08-07T14:04:56+02:00</time>
      </trkpt>
      <trkpt lat="44.11404" lon="6.58745">
        <ele>1173.7998</ele>
        <time>2023-08-07T14:04:57+02:00</time>
      </trkpt>
      <trkpt lat="44.11395" lon="6.58755">
        <ele>1173.5</ele>
        <time>2023-08-07T14:05:01+02:00</time>
      </trkpt>
      <trkpt lat="44.11393" lon="6.58757">
        <ele>1173.5</ele>
        <time>2023-08-07T14:05:02+02:00</time>
      </trkpt>
      <trkpt lat="44.11386" lon="6.58768">
        <ele>1176.6006</ele>
        <time>2023-08-07T14:05:06+02:00</time>
      </trkpt>
      <trkpt lat="44.11384" lon="6.58771">
        <ele>1175.2002</ele>
        <time>2023-08-07T14:05:07+02:00</time>
      </trkpt>
      <trkpt lat="44.11376" lon="6.58781">
        <ele>1175.7998</ele>
        <time>2023-08-07T14:05:11+02:00</time>
      </trkpt>
      <trkpt lat="44.11375" lon="6.58784">
        <ele>1175.7998</ele>
        <time>2023-08-07T14:05:12+02:00</time>
      </trkpt>
      <trkpt lat="44.11367" lon="6.58795">
        <ele>1178.2998</ele>
        <time>2023-08-07T14:05:16+02:00</time>
      </trkpt>
      <trkpt lat="44.11366" lon="6.58798">
        <ele>1176.6006</ele>
        <time>2023-08-07T14:05:17+02:00</time>
      </trkpt>
      <trkpt lat="44.11357" lon="6.58807">
        <ele>1176.7002</ele>
        <time>2023-08-07T14:05:21+02:00</time>
      </trkpt>
      <trkpt lat="44.11355" lon="6.58809">
        <ele>1176.7002</ele>
        <time>2023-08-07T14:05:22+02:00</time>
      </trkpt>
      <trkpt lat="44.11348" lon="6.58819">
        <ele>1176.7998</ele>
        <time>2023-08-07T14:05:26+02:00</time>
      </trkpt>
      <trkpt lat="44.11346" lon="6.58822">
        <ele>1176.7998</ele>
        <time>2023-08-07T14:05:27+02:00</time>
      </trkpt>
      <trkpt lat="44.11338" lon="6.58833">
        <ele>1177</ele>
        <time>2023-08-07T14:05:31+02:00</time>
      </trkpt>
      <trkpt lat="44.11336" lon="6.58835">
        <ele>1177</ele>
        <time>2023-08-07T14:05:32+02:00</time>
      </trkpt>
      <trkpt lat="44.11328" lon="6.58845">
        <ele>1177.7998</ele>
        <time>2023-08-07T14:05:36+02:00</time>
      </trkpt>
      <trkpt lat="44.11326" lon="6.58848">
        <ele>1177.7998</ele>
        <time>2023-08-07T14:05:37+02:00</time>
      </trkpt>
      <trkpt lat="44.11318" lon="6.58857">
        <ele>1178.4004</ele>
        <time>2023-08-07T14:05:41+02:00</time>
      </trkpt>
      <trkpt lat="44.11316" lon="6.5886">
        <ele>1176.7002</ele>
        <time>2023-08-07T14:05:42+02:00</time>
      </trkpt>
      <trkpt lat="44.11308" lon="6.58871">
        <ele>1177.6006</ele>
        <time>2023-08-07T14:05:46+02:00</time>
      </trkpt>
      <trkpt lat="44.11305" lon="6.58874">
        <ele>1180.2002</ele>
        <time>2023-08-07T14:05:47+02:00</time>
      </trkpt>
      <trkpt lat="44.11296" lon="6.58883">
        <ele>1179.7002</ele>
        <time>2023-08-07T14:05:51+02:00</time>
      </trkpt>
      <trkpt lat="44.11294" lon="6.58885">
        <ele>1179.7002</ele>
        <time>2023-08-07T14:05:52+02:00</time>
      </trkpt>
      <trkpt lat="44.1129" lon="6.58898">
        <ele>1182.7998</ele>
        <time>2023-08-07T14:05:56+02:00</time>
      </trkpt>
      <trkpt lat="44.11291" lon="6.58901">
        <ele>1182.7998</ele>
        <time>2023-08-07T14:05:57+02:00</time>
      </trkpt>
      <trkpt lat="44.11301" lon="6.58905">
        <ele>1187.9004</ele>
        <time>2023-08-07T14:06:01+02:00</time>
      </trkpt>
      <trkpt lat="44.11304" lon="6.58903">
        <ele>1185.7998</ele>
        <time>2023-08-07T14:06:02+02:00</time>
      </trkpt>
      <trkpt lat="44.11312" lon="6.58891">
        <ele>1186.6006</ele>
        <time>2023-08-07T14:06:06+02:00</time>
      </trkpt>
      <trkpt lat="44.11315" lon="6.58889">
        <ele>1186.6006</ele>
        <time>2023-08-07T14:06:07+02:00</time>
      </trkpt>
      <trkpt lat="44.11324" lon="6.58881">
        <ele>1187.5</ele>
        <time>2023-08-07T14:06:11+02:00</time>
      </trkpt>
      <trkpt lat="44.11327" lon="6.5888">
        <ele>1187.5</ele>
        <time>2023-08-07T14:06:12+02:00</time>
      </trkpt>
      <trkpt lat="44.11338" lon="6.58876">
        <ele>1188.2002</ele>
        <time>2023-08-07T14:06:16+02:00</time>
      </trkpt>
      <trkpt lat="44.11341" lon="6.58874">
        <ele>1188.2002</ele>
        <time>2023-08-07T14:06:17+02:00</time>
      </trkpt>
      <trkpt lat="44.11352" lon="6.5887">
        <ele>1189</ele>
        <time>2023-08-07T14:06:21+02:00</time>
      </trkpt>
      <trkpt lat="44.11355" lon="6.58869">
        <ele>1190.6006</ele>
        <time>2023-08-07T14:06:22+02:00</time>
      </trkpt>
      <trkpt lat="44.11366" lon="6.58865">
        <ele>1193.7998</ele>
        <time>2023-08-07T14:06:26+02:00</time>
      </trkpt>
      <trkpt lat="44.11369" lon="6.58864">
        <ele>1193.7998</ele>
        <time>2023-08-07T14:06:27+02:00</time>
      </trkpt>
      <trkpt lat="44.1138" lon="6.58859">
        <ele>1195.1006</ele>
        <time>2023-08-07T14:06:31+02:00</time>
      </trkpt>
      <trkpt lat="44.11383" lon="6.58858">
        <ele>1195.1006</ele>
        <time>2023-08-07T14:06:32+02:00</time>
      </trkpt>
      <trkpt lat="44.11394" lon="6.58852">
        <ele>1196.2002</ele>
        <time>2023-08-07T14:06:36+02:00</time>
      </trkpt>
      <trkpt lat="44.11397" lon="6.58851">
        <ele>1197.7002</ele>
        <time>2023-08-07T14:06:37+02:00</time>
      </trkpt>
      <trkpt lat="44.11407" lon="6.58847">
        <ele>1199.2002</ele>
        <time>2023-08-07T14:06:41+02:00</time>
      </trkpt>
      <trkpt lat="44.11409" lon="6.58845">
        <ele>1200.6006</ele>
        <time>2023-08-07T14:06:42+02:00</time>
      </trkpt>
      <trkpt lat="44.1142" lon="6.5884">
        <ele>1199.7998</ele>
        <time>2023-08-07T14:06:46+02:00</time>
      </trkpt>
      <trkpt lat="44.11422" lon="6.58839">
        <ele>1201.2002</ele>
        <time>2023-08-07T14:06:47+02:00</time>
      </trkpt>
      <trkpt lat="44.11433" lon="6.58834">
        <ele>1200.2998</ele>
        <time>2023-08-07T14:06:51+02:00</time>
      </trkpt>
      <trkpt lat="44.11436" lon="6.58833">
        <ele>1201.7998</ele>
        <time>2023-08-07T14:06:52+02:00</time>
      </trkpt>
      <trkpt lat="44.11446" lon="6.58828">
        <ele>1205.1006</ele>
        <time>2023-08-07T14:06:56+02:00</time>
      </trkpt>
      <trkpt lat="44.11449" lon="6.58827">
        <ele>1202.7002</ele>
        <time>2023-08-07T14:06:57+02:00</time>
      </trkpt>
      <trkpt lat="44.11459" lon="6.5882">
        <ele>1206.2998</ele>
        <time>2023-08-07T14:07:01+02:00</time>
      </trkpt>
      <trkpt lat="44.11462" lon="6.58818">
        <ele>1203.7998</ele>
        <time>2023-08-07T14:07:02+02:00</time>
      </trkpt>
      <trkpt lat="44.11471" lon="6.5881">
        <ele>1204.9004</ele>
        <time>2023-08-07T14:07:06+02:00</time>
      </trkpt>
      <trkpt lat="44.11473" lon="6.58809">
        <ele>1204.9004</ele>
        <time>2023-08-07T14:07:07+02:00</time>
      </trkpt>
      <trkpt lat="44.11482" lon="6.58801">
        <ele>1204.2002</ele>
        <time>2023-08-07T14:07:11+02:00</time>
      </trkpt>
      <trkpt lat="44.11485" lon="6.58798">
        <ele>1206.2002</ele>
        <time>2023-08-07T14:07:12+02:00</time>
      </trkpt>
      <trkpt lat="44.11493" lon="6.58788">
        <ele>1205.5</ele>
        <time>2023-08-07T14:07:16+02:00</time>
      </trkpt>
      <trkpt lat="44.11495" lon="6.58786">
        <ele>1207.5</ele>
        <time>2023-08-07T14:07:17+02:00</time>
      </trkpt>
      <trkpt lat="44.11506" lon="6.5878">
        <ele>1206.6006</ele>
        <time>2023-08-07T14:07:21+02:00</time>
      </trkpt>
      <trkpt lat="44.11509" lon="6.58778">
        <ele>1208.6006</ele>
        <time>2023-08-07T14:07:22+02:00</time>
      </trkpt>
      <trkpt lat="44.1152" lon="6.58772">
        <ele>1209.7998</ele>
        <time>2023-08-07T14:07:26+02:00</time>
      </trkpt>
      <trkpt lat="44.11522" lon="6.58771">
        <ele>1209.7998</ele>
        <time>2023-08-07T14:07:27+02:00</time>
      </trkpt>
      <trkpt lat="44.11532" lon="6.58763">
        <ele>1208.7998</ele>
        <time>2023-08-07T14:07:31+02:00</time>
      </trkpt>
      <trkpt lat="44.11535" lon="6.58762">
        <ele>1210.7998</ele>
        <time>2023-08-07T14:07:32+02:00</time>
      </trkpt>
      <trkpt lat="44.11545" lon="6.58756">
        <ele>1212</ele>
        <time>2023-08-07T14:07:36+02:00</time>
      </trkpt>
      <trkpt lat="44.11548" lon="6.58755">
        <ele>1212</ele>
        <time>2023-08-07T14:07:37+02:00</time>
      </trkpt>
      <trkpt lat="44.11559" lon="6.58754">
        <ele>1215.9004</ele>
        <time>2023-08-07T14:07:41+02:00</time>
      </trkpt>
      <trkpt lat="44.11561" lon="6.58754">
        <ele>1215.9004</ele>
        <time>2023-08-07T14:07:42+02:00</time>
      </trkpt>
      <trkpt lat="44.11572" lon="6.58753">
        <ele>1219.2998</ele>
        <time>2023-08-07T14:07:46+02:00</time>
      </trkpt>
      <trkpt lat="44.11575" lon="6.58752">
        <ele>1219.2998</ele>
        <time>2023-08-07T14:07:47+02:00</time>
      </trkpt>
      <trkpt lat="44.11586" lon="6.5875">
        <ele>1219.6006</ele>
        <time>2023-08-07T14:07:51+02:00</time>
      </trkpt>
      <trkpt lat="44.11589" lon="6.58749">
        <ele>1220.9004</ele>
        <time>2023-08-07T14:07:52+02:00</time>
      </trkpt>
      <trkpt lat="44.116" lon="6.58748">
        <ele>1222.1006</ele>
        <time>2023-08-07T14:07:56+02:00</time>
      </trkpt>
      <trkpt lat="44.11602" lon="6.58748">
        <ele>1223.2002</ele>
        <time>2023-08-07T14:07:57+02:00</time>
      </trkpt>
      <trkpt lat="44.11613" lon="6.58752">
        <ele>1227</ele>
        <time>2023-08-07T14:08:01+02:00</time>
      </trkpt>
      <trkpt lat="44.11616" lon="6.58754">
        <ele>1227</ele>
        <time>2023-08-07T14:08:02+02:00</time>
      </trkpt>
      <trkpt lat="44.11625" lon="6.58762">
        <ele>1229.9004</ele>
        <time>2023-08-07T14:08:06+02:00</time>
      </trkpt>
      <trkpt lat="44.11628" lon="6.58764">
        <ele>1229.9004</ele>
        <time>2023-08-07T14:08:07+02:00</time>
      </trkpt>
      <trkpt lat="44.11638" lon="6.58771">
        <ele>1231.9004</ele>
        <time>2023-08-07T14:08:11+02:00</time>
      </trkpt>
      <trkpt lat="44.1164" lon="6.58773">
        <ele>1231.9004</ele>
        <time>2023-08-07T14:08:12+02:00</time>
      </trkpt>
      <trkpt lat="44.11649" lon="6.58779">
        <ele>1233.1006</ele>
        <time>2023-08-07T14:08:16+02:00</time>
      </trkpt>
      <trkpt lat="44.11652" lon="6.58781">
        <ele>1233.1006</ele>
        <time>2023-08-07T14:08:17+02:00</time>
      </trkpt>
      <trkpt lat="44.11661" lon="6.58789">
        <ele>1234.5</ele>
        <time>2023-08-07T14:08:21+02:00</time>
      </trkpt>
      <trkpt lat="44.11663" lon="6.58791">
        <ele>1234.2002</ele>
        <time>2023-08-07T14:08:22+02:00</time>
      </trkpt>
      <trkpt lat="44.11672" lon="6.58801">
        <ele>1235.6006</ele>
        <time>2023-08-07T14:08:26+02:00</time>
      </trkpt>
      <trkpt lat="44.11674" lon="6.58804">
        <ele>1237.2998</ele>
        <time>2023-08-07T14:08:27+02:00</time>
      </trkpt>
      <trkpt lat="44.11679" lon="6.58817">
        <ele>1239.2998</ele>
        <time>2023-08-07T14:08:31+02:00</time>
      </trkpt>
      <trkpt lat="44.11677" lon="6.58821">
        <ele>1241.4004</ele>
        <time>2023-08-07T14:08:32+02:00</time>
      </trkpt>
      <trkpt lat="44.11666" lon="6.58822">
        <ele>1241.9004</ele>
        <time>2023-08-07T14:08:36+02:00</time>
      </trkpt>
      <trkpt lat="44.11663" lon="6.58821">
        <ele>1241.9004</ele>
        <time>2023-08-07T14:08:37+02:00</time>
      </trkpt>
      <trkpt lat="44.11653" lon="6.58814">
        <ele>1240.5</ele>
        <time>2023-08-07T14:08:41+02:00</time>
      </trkpt>
      <trkpt lat="44.11651" lon="6.58813">
        <ele>1240.5</ele>
        <time>2023-08-07T14:08:42+02:00</time>
      </trkpt>
      <trkpt lat="44.11642" lon="6.58812">
        <ele>1241.1006</ele>
        <time>2023-08-07T14:08:46+02:00</time>
      </trkpt>
      <trkpt lat="44.1164" lon="6.58813">
        <ele>1241.1006</ele>
        <time>2023-08-07T14:08:47+02:00</time>
      </trkpt>
      <trkpt lat="44.11631" lon="6.58818">
        <ele>1241.2002</ele>
        <time>2023-08-07T14:08:51+02:00</time>
      </trkpt>
      <trkpt lat="44.11629" lon="6.58819">
        <ele>1241.2998</ele>
        <time>2023-08-07T14:08:52+02:00</time>
      </trkpt>
      <trkpt lat="44.11621" lon="6.58823">
        <ele>1243.4004</ele>
        <time>2023-08-07T14:08:56+02:00</time>
      </trkpt>
      <trkpt lat="44.11619" lon="6.58823">
        <ele>1243.4004</ele>
        <time>2023-08-07T14:08:57+02:00</time>
      </trkpt>
      <trkpt lat="44.11609" lon="6.58826">
        <ele>1243.2002</ele>
        <time>2023-08-07T14:09:01+02:00</time>
      </trkpt>
      <trkpt lat="44.11607" lon="6.58827">
        <ele>1243.2002</ele>
        <time>2023-08-07T14:09:02+02:00</time>
      </trkpt>
      <trkpt lat="44.11597" lon="6.58832">
        <ele>1244.7998</ele>
        <time>2023-08-07T14:09:06+02:00</time>
      </trkpt>
      <trkpt lat="44.11594" lon="6.58834">
        <ele>1244.7998</ele>
        <time>2023-08-07T14:09:07+02:00</time>
      </trkpt>
      <trkpt lat="44.11584" lon="6.58841">
        <ele>1246</ele>
        <time>2023-08-07T14:09:11+02:00</time>
      </trkpt>
      <trkpt lat="44.11581" lon="6.58843">
        <ele>1245.2998</ele>
        <time>2023-08-07T14:09:12+02:00</time>
      </trkpt>
      <trkpt lat="44.11571" lon="6.58847">
        <ele>1246.7998</ele>
        <time>2023-08-07T14:09:16+02:00</time>
      </trkpt>
      <trkpt lat="44.11569" lon="6.58848">
        <ele>1245.9004</ele>
        <time>2023-08-07T14:09:17+02:00</time>
      </trkpt>
      <trkpt lat="44.11559" lon="6.58851">
        <ele>1244.9004</ele>
        <time>2023-08-07T14:09:21+02:00</time>
      </trkpt>
      <trkpt lat="44.11556" lon="6.58852">
        <ele>1243.5</ele>
        <time>2023-08-07T14:09:22+02:00</time>
      </trkpt>
      <trkpt lat="44.11547" lon="6.58857">
        <ele>1244.2998</ele>
        <time>2023-08-07T14:09:26+02:00</time>
      </trkpt>
      <trkpt lat="44.11545" lon="6.58859">
        <ele>1244.2998</ele>
        <time>2023-08-07T14:09:27+02:00</time>
      </trkpt>
      <trkpt lat="44.11538" lon="6.5887">
        <ele>1243.2002</ele>
        <time>2023-08-07T14:09:31+02:00</time>
      </trkpt>
      <trkpt lat="44.11536" lon="6.58873">
        <ele>1245.7998</ele>
        <time>2023-08-07T14:09:32+02:00</time>
      </trkpt>
      <trkpt lat="44.11529" lon="6.58883">
        <ele>1246.6006</ele>
        <time>2023-08-07T14:09:36+02:00</time>
      </trkpt>
      <trkpt lat="44.11527" lon="6.58886">
        <ele>1246.6006</ele>
        <time>2023-08-07T14:09:37+02:00</time>
      </trkpt>
      <trkpt lat="44.11519" lon="6.58897">
        <ele>1248.2998</ele>
        <time>2023-08-07T14:09:41+02:00</time>
      </trkpt>
      <trkpt lat="44.11517" lon="6.589">
        <ele>1248.2998</ele>
        <time>2023-08-07T14:09:42+02:00</time>
      </trkpt>
      <trkpt lat="44.11511" lon="6.58912">
        <ele>1249</ele>
        <time>2023-08-07T14:09:46+02:00</time>
      </trkpt>
      <trkpt lat="44.1151" lon="6.58915">
        <ele>1251.7002</ele>
        <time>2023-08-07T14:09:47+02:00</time>
      </trkpt>
      <trkpt lat="44.11504" lon="6.58928">
        <ele>1252.2998</ele>
        <time>2023-08-07T14:09:51+02:00</time>
      </trkpt>
      <trkpt lat="44.11503" lon="6.58932">
        <ele>1254.9004</ele>
        <time>2023-08-07T14:09:52+02:00</time>
      </trkpt>
      <trkpt lat="44.11496" lon="6.58944">
        <ele>1255.2998</ele>
        <time>2023-08-07T14:09:56+02:00</time>
      </trkpt>
      <trkpt lat="44.11495" lon="6.58947">
        <ele>1253.1006</ele>
        <time>2023-08-07T14:09:57+02:00</time>
      </trkpt>
      <trkpt lat="44.1149" lon="6.58961">
        <ele>1258.2002</ele>
        <time>2023-08-07T14:10:01+02:00</time>
      </trkpt>
      <trkpt lat="44.11489" lon="6.58964">
        <ele>1256</ele>
        <time>2023-08-07T14:10:02+02:00</time>
      </trkpt>
      <trkpt lat="44.11483" lon="6.58977">
        <ele>1260.7998</ele>
        <time>2023-08-07T14:10:06+02:00</time>
      </trkpt>
      <trkpt lat="44.11482" lon="6.5898">
        <ele>1258.6006</ele>
        <time>2023-08-07T14:10:07+02:00</time>
      </trkpt>
      <trkpt lat="44.11477" lon="6.58993">
        <ele>1263.1006</ele>
        <time>2023-08-07T14:10:11+02:00</time>
      </trkpt>
      <trkpt lat="44.11475" lon="6.58996">
        <ele>1260.7998</ele>
        <time>2023-08-07T14:10:12+02:00</time>
      </trkpt>
      <trkpt lat="44.11468" lon="6.59007">
        <ele>1260.6006</ele>
        <time>2023-08-07T14:10:16+02:00</time>
      </trkpt>
      <trkpt lat="44.11466" lon="6.5901">
        <ele>1262.6006</ele>
        <time>2023-08-07T14:10:17+02:00</time>
      </trkpt>
      <trkpt lat="44.1146" lon="6.59022">
        <ele>1262.2002</ele>
        <time>2023-08-07T14:10:21+02:00</time>
      </trkpt>
      <trkpt lat="44.11458" lon="6.59026">
        <ele>1264.2002</ele>
        <time>2023-08-07T14:10:22+02:00</time>
      </trkpt>
      <trkpt lat="44.11453" lon="6.5904">
        <ele>1263.9004</ele>
        <time>2023-08-07T14:10:26+02:00</time>
      </trkpt>
      <trkpt lat="44.11452" lon="6.59043">
        <ele>1263.6006</ele>
        <time>2023-08-07T14:10:27+02:00</time>
      </trkpt>
      <trkpt lat="44.11447" lon="6.59056">
        <ele>1265.7002</ele>
        <time>2023-08-07T14:10:31+02:00</time>
      </trkpt>
      <trkpt lat="44.11445" lon="6.59059">
        <ele>1263.4004</ele>
        <time>2023-08-07T14:10:32+02:00</time>
      </trkpt>
      <trkpt lat="44.11439" lon="6.59071">
        <ele>1265.4004</ele>
        <time>2023-08-07T14:10:36+02:00</time>
      </trkpt>
      <trkpt lat="44.11437" lon="6.59075">
        <ele>1265.4004</ele>
        <time>2023-08-07T14:10:37+02:00</time>
      </trkpt>
      <trkpt lat="44.11432" lon="6.59089">
        <ele>1267.5</ele>
        <time>2023-08-07T14:10:41+02:00</time>
      </trkpt>
      <trkpt lat="44.1143" lon="6.59093">
        <ele>1267.5</ele>
        <time>2023-08-07T14:10:42+02:00</time>
      </trkpt>
      <trkpt lat="44.11425" lon="6.59107">
        <ele>1269.7002</ele>
        <time>2023-08-07T14:10:46+02:00</time>
      </trkpt>
      <trkpt lat="44.11424" lon="6.5911">
        <ele>1269.7002</ele>
        <time>2023-08-07T14:10:47+02:00</time>
      </trkpt>
      <trkpt lat="44.11418" lon="6.59122">
        <ele>1271.7998</ele>
        <time>2023-08-07T14:10:51+02:00</time>
      </trkpt>
      <trkpt lat="44.11417" lon="6.59126">
        <ele>1271.7998</ele>
        <time>2023-08-07T14:10:52+02:00</time>
      </trkpt>
      <trkpt lat="44.1141" lon="6.59137">
        <ele>1274.2998</ele>
        <time>2023-08-07T14:10:56+02:00</time>
      </trkpt>
      <trkpt lat="44.11408" lon="6.59141">
        <ele>1272.5</ele>
        <time>2023-08-07T14:10:57+02:00</time>
      </trkpt>
      <trkpt lat="44.11402" lon="6.59153">
        <ele>1273</ele>
        <time>2023-08-07T14:11:01+02:00</time>
      </trkpt>
      <trkpt lat="44.114" lon="6.59157">
        <ele>1275.2002</ele>
        <time>2023-08-07T14:11:02+02:00</time>
      </trkpt>
      <trkpt lat="44.11392" lon="6.59168">
        <ele>1275.7002</ele>
        <time>2023-08-07T14:11:06+02:00</time>
      </trkpt>
      <trkpt lat="44.1139" lon="6.59171">
        <ele>1274</ele>
        <time>2023-08-07T14:11:07+02:00</time>
      </trkpt>
      <trkpt lat="44.11382" lon="6.59182">
        <ele>1276.1006</ele>
        <time>2023-08-07T14:11:11+02:00</time>
      </trkpt>
      <trkpt lat="44.11381" lon="6.59185">
        <ele>1276.1006</ele>
        <time>2023-08-07T14:11:12+02:00</time>
      </trkpt>
      <trkpt lat="44.11374" lon="6.59198">
        <ele>1278.1006</ele>
        <time>2023-08-07T14:11:16+02:00</time>
      </trkpt>
      <trkpt lat="44.11373" lon="6.59201">
        <ele>1278.1006</ele>
        <time>2023-08-07T14:11:17+02:00</time>
      </trkpt>
      <trkpt lat="44.11368" lon="6.59215">
        <ele>1279.9004</ele>
        <time>2023-08-07T14:11:21+02:00</time>
      </trkpt>
      <trkpt lat="44.11367" lon="6.59218">
        <ele>1279.9004</ele>
        <time>2023-08-07T14:11:22+02:00</time>
      </trkpt>
      <trkpt lat="44.11364" lon="6.59233">
        <ele>1281.1006</ele>
        <time>2023-08-07T14:11:26+02:00</time>
      </trkpt>
      <trkpt lat="44.11363" lon="6.59237">
        <ele>1281.1006</ele>
        <time>2023-08-07T14:11:27+02:00</time>
      </trkpt>
      <trkpt lat="44.11361" lon="6.59252">
        <ele>1284.1006</ele>
        <time>2023-08-07T14:11:31+02:00</time>
      </trkpt>
      <trkpt lat="44.11361" lon="6.59256">
        <ele>1284.1006</ele>
        <time>2023-08-07T14:11:32+02:00</time>
      </trkpt>
      <trkpt lat="44.1136" lon="6.59272">
        <ele>1287.1006</ele>
        <time>2023-08-07T14:11:36+02:00</time>
      </trkpt>
      <trkpt lat="44.1136" lon="6.59275">
        <ele>1288.6006</ele>
        <time>2023-08-07T14:11:37+02:00</time>
      </trkpt>
      <trkpt lat="44.11359" lon="6.59291">
        <ele>1289.2002</ele>
        <time>2023-08-07T14:11:41+02:00</time>
      </trkpt>
      <trkpt lat="44.11359" lon="6.59295">
        <ele>1289.2002</ele>
        <time>2023-08-07T14:11:42+02:00</time>
      </trkpt>
      <trkpt lat="44.11359" lon="6.59311">
        <ele>1292.2002</ele>
        <time>2023-08-07T14:11:46+02:00</time>
      </trkpt>
      <trkpt lat="44.11359" lon="6.59315">
        <ele>1292.2002</ele>
        <time>2023-08-07T14:11:47+02:00</time>
      </trkpt>
      <trkpt lat="44.11357" lon="6.5933">
        <ele>1295.1006</ele>
        <time>2023-08-07T14:11:51+02:00</time>
      </trkpt>
      <trkpt lat="44.11357" lon="6.59334">
        <ele>1295.1006</ele>
        <time>2023-08-07T14:11:52+02:00</time>
      </trkpt>
      <trkpt lat="44.11354" lon="6.59348">
        <ele>1297.9004</ele>
        <time>2023-08-07T14:11:56+02:00</time>
      </trkpt>
      <trkpt lat="44.11354" lon="6.59352">
        <ele>1299.2002</ele>
        <time>2023-08-07T14:11:57+02:00</time>
      </trkpt>
      <trkpt lat="44.1135" lon="6.59366">
        <ele>1297.4004</ele>
        <time>2023-08-07T14:12:01+02:00</time>
      </trkpt>
      <trkpt lat="44.11349" lon="6.5937">
        <ele>1298.5</ele>
        <time>2023-08-07T14:12:02+02:00</time>
      </trkpt>
      <trkpt lat="44.11345" lon="6.59383">
        <ele>1296.5</ele>
        <time>2023-08-07T14:12:06+02:00</time>
      </trkpt>
      <trkpt lat="44.11343" lon="6.59387">
        <ele>1297.4004</ele>
        <time>2023-08-07T14:12:07+02:00</time>
      </trkpt>
      <trkpt lat="44.11337" lon="6.594">
        <ele>1295.5</ele>
        <time>2023-08-07T14:12:11+02:00</time>
      </trkpt>
      <trkpt lat="44.11336" lon="6.59404">
        <ele>1296.4004</ele>
        <time>2023-08-07T14:12:12+02:00</time>
      </trkpt>
      <trkpt lat="44.11331" lon="6.59417">
        <ele>1294.6006</ele>
        <time>2023-08-07T14:12:16+02:00</time>
      </trkpt>
      <trkpt lat="44.1133" lon="6.5942">
        <ele>1295.2998</ele>
        <time>2023-08-07T14:12:17+02:00</time>
      </trkpt>
      <trkpt lat="44.11327" lon="6.59435">
        <ele>1293.5</ele>
        <time>2023-08-07T14:12:21+02:00</time>
      </trkpt>
      <trkpt lat="44.11326" lon="6.59438">
        <ele>1294.2002</ele>
        <time>2023-08-07T14:12:22+02:00</time>
      </trkpt>
      <trkpt lat="44.11323" lon="6.59453">
        <ele>1295</ele>
        <time>2023-08-07T14:12:26+02:00</time>
      </trkpt>
      <trkpt lat="44.11323" lon="6.59457">
        <ele>1295.7998</ele>
        <time>2023-08-07T14:12:27+02:00</time>
      </trkpt>
      <trkpt lat="44.11321" lon="6.59472">
        <ele>1295.2998</ele>
        <time>2023-08-07T14:12:31+02:00</time>
      </trkpt>
      <trkpt lat="44.1132" lon="6.59476">
        <ele>1295.2998</ele>
        <time>2023-08-07T14:12:32+02:00</time>
      </trkpt>
      <trkpt lat="44.11318" lon="6.5949">
        <ele>1297.5</ele>
        <time>2023-08-07T14:12:36+02:00</time>
      </trkpt>
      <trkpt lat="44.11317" lon="6.59493">
        <ele>1297.5</ele>
        <time>2023-08-07T14:12:37+02:00</time>
      </trkpt>
      <trkpt lat="44.11313" lon="6.59507">
        <ele>1297.4004</ele>
        <time>2023-08-07T14:12:41+02:00</time>
      </trkpt>
      <trkpt lat="44.11312" lon="6.59511">
        <ele>1297.4004</ele>
        <time>2023-08-07T14:12:42+02:00</time>
      </trkpt>
      <trkpt lat="44.11307" lon="6.59525">
        <ele>1297.6006</ele>
        <time>2023-08-07T14:12:46+02:00</time>
      </trkpt>
      <trkpt lat="44.11308" lon="6.59529">
        <ele>1297.6006</ele>
        <time>2023-08-07T14:12:47+02:00</time>
      </trkpt>
      <trkpt lat="44.11317" lon="6.59534">
        <ele>1303</ele>
        <time>2023-08-07T14:12:51+02:00</time>
      </trkpt>
      <trkpt lat="44.1132" lon="6.59532">
        <ele>1303</ele>
        <time>2023-08-07T14:12:52+02:00</time>
      </trkpt>
      <trkpt lat="44.11325" lon="6.59518">
        <ele>1303.2002</ele>
        <time>2023-08-07T14:12:56+02:00</time>
      </trkpt>
      <trkpt lat="44.11325" lon="6.59514">
        <ele>1302.1006</ele>
        <time>2023-08-07T14:12:57+02:00</time>
      </trkpt>
      <trkpt lat="44.11328" lon="6.59499">
        <ele>1301</ele>
        <time>2023-08-07T14:13:01+02:00</time>
      </trkpt>
      <trkpt lat="44.11329" lon="6.59496">
        <ele>1299.9004</ele>
        <time>2023-08-07T14:13:02+02:00</time>
      </trkpt>
      <trkpt lat="44.11333" lon="6.59483">
        <ele>1301.2002</ele>
        <time>2023-08-07T14:13:06+02:00</time>
      </trkpt>
      <trkpt lat="44.11334" lon="6.5948">
        <ele>1300.1006</ele>
        <time>2023-08-07T14:13:07+02:00</time>
      </trkpt>
      <trkpt lat="44.11339" lon="6.59469">
        <ele>1302</ele>
        <time>2023-08-07T14:13:11+02:00</time>
      </trkpt>
      <trkpt lat="44.11341" lon="6.59466">
        <ele>1302</ele>
        <time>2023-08-07T14:13:12+02:00</time>
      </trkpt>
      <trkpt lat="44.11345" lon="6.59456">
        <ele>1304.1006</ele>
        <time>2023-08-07T14:13:16+02:00</time>
      </trkpt>
      <trkpt lat="44.11347" lon="6.59453">
        <ele>1303.2002</ele>
        <time>2023-08-07T14:13:17+02:00</time>
      </trkpt>
      <trkpt lat="44.11352" lon="6.59444">
        <ele>1305.5</ele>
        <time>2023-08-07T14:13:21+02:00</time>
      </trkpt>
      <trkpt lat="44.11353" lon="6.59441">
        <ele>1305.5</ele>
        <time>2023-08-07T14:13:22+02:00</time>
      </trkpt>
      <trkpt lat="44.11359" lon="6.59431">
        <ele>1307.7998</ele>
        <time>2023-08-07T14:13:26+02:00</time>
      </trkpt>
      <trkpt lat="44.11361" lon="6.59429">
        <ele>1310.2002</ele>
        <time>2023-08-07T14:13:27+02:00</time>
      </trkpt>
      <trkpt lat="44.11367" lon="6.59418">
        <ele>1312.5</ele>
        <time>2023-08-07T14:13:31+02:00</time>
      </trkpt>
      <trkpt lat="44.11369" lon="6.59416">
        <ele>1312.5</ele>
        <time>2023-08-07T14:13:32+02:00</time>
      </trkpt>
      <trkpt lat="44.11374" lon="6.59405">
        <ele>1314.7998</ele>
        <time>2023-08-07T14:13:36+02:00</time>
      </trkpt>
      <trkpt lat="44.11375" lon="6.59402">
        <ele>1313.7998</ele>
        <time>2023-08-07T14:13:37+02:00</time>
      </trkpt>
      <trkpt lat="44.11381" lon="6.59392">
        <ele>1315.9004</ele>
        <time>2023-08-07T14:13:41+02:00</time>
      </trkpt>
      <trkpt lat="44.11382" lon="6.59389">
        <ele>1315.9004</ele>
        <time>2023-08-07T14:13:42+02:00</time>
      </trkpt>
      <trkpt lat="44.11386" lon="6.59378">
        <ele>1317.7998</ele>
        <time>2023-08-07T14:13:46+02:00</time>
      </trkpt>
      <trkpt lat="44.11387" lon="6.59375">
        <ele>1316.4004</ele>
        <time>2023-08-07T14:13:47+02:00</time>
      </trkpt>
      <trkpt lat="44.11393" lon="6.59364">
        <ele>1317.9004</ele>
        <time>2023-08-07T14:13:51+02:00</time>
      </trkpt>
      <trkpt lat="44.11395" lon="6.59362">
        <ele>1317.9004</ele>
        <time>2023-08-07T14:13:52+02:00</time>
      </trkpt>
      <trkpt lat="44.11401" lon="6.59352">
        <ele>1319.1006</ele>
        <time>2023-08-07T14:13:56+02:00</time>
      </trkpt>
      <trkpt lat="44.11403" lon="6.5935">
        <ele>1320</ele>
        <time>2023-08-07T14:13:57+02:00</time>
      </trkpt>
      <trkpt lat="44.1141" lon="6.5934">
        <ele>1320.7998</ele>
        <time>2023-08-07T14:14:01+02:00</time>
      </trkpt>
      <trkpt lat="44.11412" lon="6.59338">
        <ele>1320.7998</ele>
        <time>2023-08-07T14:14:02+02:00</time>
      </trkpt>
      <trkpt lat="44.11418" lon="6.59329">
        <ele>1321.4004</ele>
        <time>2023-08-07T14:14:06+02:00</time>
      </trkpt>
      <trkpt lat="44.11419" lon="6.59326">
        <ele>1321.4004</ele>
        <time>2023-08-07T14:14:07+02:00</time>
      </trkpt>
      <trkpt lat="44.11424" lon="6.59318">
        <ele>1321.9004</ele>
        <time>2023-08-07T14:14:11+02:00</time>
      </trkpt>
      <trkpt lat="44.11425" lon="6.59315">
        <ele>1319.9004</ele>
        <time>2023-08-07T14:14:12+02:00</time>
      </trkpt>
      <trkpt lat="44.11431" lon="6.59306">
        <ele>1320.2002</ele>
        <time>2023-08-07T14:14:16+02:00</time>
      </trkpt>
      <trkpt lat="44.11433" lon="6.59304">
        <ele>1320.2002</ele>
        <time>2023-08-07T14:14:17+02:00</time>
      </trkpt>
      <trkpt lat="44.11438" lon="6.59295">
        <ele>1320.4004</ele>
        <time>2023-08-07T14:14:21+02:00</time>
      </trkpt>
      <trkpt lat="44.11439" lon="6.59292">
        <ele>1320.4004</ele>
        <time>2023-08-07T14:14:22+02:00</time>
      </trkpt>
      <trkpt lat="44.11444" lon="6.59282">
        <ele>1318.4004</ele>
        <time>2023-08-07T14:14:26+02:00</time>
      </trkpt>
      <trkpt lat="44.11445" lon="6.59279">
        <ele>1318.4004</ele>
        <time>2023-08-07T14:14:27+02:00</time>
      </trkpt>
      <trkpt lat="44.11448" lon="6.59267">
        <ele>1318.5</ele>
        <time>2023-08-07T14:14:31+02:00</time>
      </trkpt>
      <trkpt lat="44.11449" lon="6.59264">
        <ele>1316.2998</ele>
        <time>2023-08-07T14:14:32+02:00</time>
      </trkpt>
      <trkpt lat="44.11454" lon="6.59253">
        <ele>1316.2002</ele>
        <time>2023-08-07T14:14:36+02:00</time>
      </trkpt>
      <trkpt lat="44.11455" lon="6.5925">
        <ele>1316.2002</ele>
        <time>2023-08-07T14:14:37+02:00</time>
      </trkpt>
      <trkpt lat="44.1146" lon="6.59239">
        <ele>1313.7002</ele>
        <time>2023-08-07T14:14:41+02:00</time>
      </trkpt>
      <trkpt lat="44.11462" lon="6.59237">
        <ele>1313.7002</ele>
        <time>2023-08-07T14:14:42+02:00</time>
      </trkpt>
      <trkpt lat="44.11467" lon="6.59226">
        <ele>1313.4004</ele>
        <time>2023-08-07T14:14:46+02:00</time>
      </trkpt>
      <trkpt lat="44.11469" lon="6.59224">
        <ele>1313.4004</ele>
        <time>2023-08-07T14:14:47+02:00</time>
      </trkpt>
      <trkpt lat="44.11476" lon="6.59218">
        <ele>1313</ele>
        <time>2023-08-07T14:14:51+02:00</time>
      </trkpt>
      <trkpt lat="44.11479" lon="6.59217">
        <ele>1315</ele>
        <time>2023-08-07T14:14:52+02:00</time>
      </trkpt>
      <trkpt lat="44.11487" lon="6.59211">
        <ele>1314.7002</ele>
        <time>2023-08-07T14:14:56+02:00</time>
      </trkpt>
      <trkpt lat="44.11489" lon="6.5921">
        <ele>1316.6006</ele>
        <time>2023-08-07T14:14:57+02:00</time>
      </trkpt>
      <trkpt lat="44.11497" lon="6.59204">
        <ele>1316.4004</ele>
        <time>2023-08-07T14:15:01+02:00</time>
      </trkpt>
      <trkpt lat="44.11499" lon="6.59202">
        <ele>1316.4004</ele>
        <time>2023-08-07T14:15:02+02:00</time>
      </trkpt>
      <trkpt lat="44.11507" lon="6.59197">
        <ele>1316.1006</ele>
        <time>2023-08-07T14:15:06+02:00</time>
      </trkpt>
      <trkpt lat="44.11509" lon="6.59195">
        <ele>1317.7998</ele>
        <time>2023-08-07T14:15:07+02:00</time>
      </trkpt>
      <trkpt lat="44.11518" lon="6.5919">
        <ele>1319.4004</ele>
        <time>2023-08-07T14:15:11+02:00</time>
      </trkpt>
      <trkpt lat="44.1152" lon="6.59189">
        <ele>1319.4004</ele>
        <time>2023-08-07T14:15:12+02:00</time>
      </trkpt>
      <trkpt lat="44.11527" lon="6.59183">
        <ele>1320.4004</ele>
        <time>2023-08-07T14:15:16+02:00</time>
      </trkpt>
      <trkpt lat="44.1153" lon="6.59182">
        <ele>1320.4004</ele>
        <time>2023-08-07T14:15:17+02:00</time>
      </trkpt>
      <trkpt lat="44.11537" lon="6.59176">
        <ele>1319.7998</ele>
        <time>2023-08-07T14:15:21+02:00</time>
      </trkpt>
      <trkpt lat="44.11539" lon="6.59174">
        <ele>1321.2002</ele>
        <time>2023-08-07T14:15:22+02:00</time>
      </trkpt>
      <trkpt lat="44.11546" lon="6.59167">
        <ele>1320.7002</ele>
        <time>2023-08-07T14:15:26+02:00</time>
      </trkpt>
      <trkpt lat="44.11548" lon="6.59165">
        <ele>1320.7002</ele>
        <time>2023-08-07T14:15:27+02:00</time>
      </trkpt>
      <trkpt lat="44.11555" lon="6.59158">
        <ele>1320.2998</ele>
        <time>2023-08-07T14:15:31+02:00</time>
      </trkpt>
      <trkpt lat="44.11557" lon="6.59156">
        <ele>1321.6006</ele>
        <time>2023-08-07T14:15:32+02:00</time>
      </trkpt>
      <trkpt lat="44.11564" lon="6.59149">
        <ele>1321.2002</ele>
        <time>2023-08-07T14:15:36+02:00</time>
      </trkpt>
      <trkpt lat="44.11565" lon="6.59147">
        <ele>1321.2002</ele>
        <time>2023-08-07T14:15:37+02:00</time>
      </trkpt>
      <trkpt lat="44.11573" lon="6.59139">
        <ele>1320.9004</ele>
        <time>2023-08-07T14:15:41+02:00</time>
      </trkpt>
      <trkpt lat="44.11574" lon="6.59137">
        <ele>1320.9004</ele>
        <time>2023-08-07T14:15:42+02:00</time>
      </trkpt>
      <trkpt lat="44.11582" lon="6.5913">
        <ele>1321.7002</ele>
        <time>2023-08-07T14:15:46+02:00</time>
      </trkpt>
      <trkpt lat="44.11584" lon="6.59128">
        <ele>1321.7002</ele>
        <time>2023-08-07T14:15:47+02:00</time>
      </trkpt>
      <trkpt lat="44.11592" lon="6.59126">
        <ele>1321.2002</ele>
        <time>2023-08-07T14:15:51+02:00</time>
      </trkpt>
      <trkpt lat="44.11594" lon="6.59127">
        <ele>1322.2002</ele>
        <time>2023-08-07T14:15:52+02:00</time>
      </trkpt>
      <trkpt lat="44.11603" lon="6.5913">
        <ele>1325</ele>
        <time>2023-08-07T14:15:56+02:00</time>
      </trkpt>
      <trkpt lat="44.11605" lon="6.59131">
        <ele>1325</ele>
        <time>2023-08-07T14:15:57+02:00</time>
      </trkpt>
      <trkpt lat="44.11613" lon="6.59137">
        <ele>1328.7998</ele>
        <time>2023-08-07T14:16:01+02:00</time>
      </trkpt>
      <trkpt lat="44.11615" lon="6.59138">
        <ele>1328.7998</ele>
        <time>2023-08-07T14:16:02+02:00</time>
      </trkpt>
      <trkpt lat="44.11623" lon="6.59142">
        <ele>1329.7998</ele>
        <time>2023-08-07T14:16:06+02:00</time>
      </trkpt>
      <trkpt lat="44.11625" lon="6.59144">
        <ele>1330.7998</ele>
        <time>2023-08-07T14:16:07+02:00</time>
      </trkpt>
      <trkpt lat="44.11634" lon="6.59148">
        <ele>1334</ele>
        <time>2023-08-07T14:16:11+02:00</time>
      </trkpt>
      <trkpt lat="44.11636" lon="6.5915">
        <ele>1334</ele>
        <time>2023-08-07T14:16:12+02:00</time>
      </trkpt>
      <trkpt lat="44.11644" lon="6.59156">
        <ele>1338.7002</ele>
        <time>2023-08-07T14:16:16+02:00</time>
      </trkpt>
      <trkpt lat="44.11646" lon="6.59157">
        <ele>1338.7002</ele>
        <time>2023-08-07T14:16:17+02:00</time>
      </trkpt>
      <trkpt lat="44.11653" lon="6.5916">
        <ele>1339.9004</ele>
        <time>2023-08-07T14:16:21+02:00</time>
      </trkpt>
      <trkpt lat="44.11655" lon="6.59161">
        <ele>1339.9004</ele>
        <time>2023-08-07T14:16:22+02:00</time>
      </trkpt>
      <trkpt lat="44.11664" lon="6.59163">
        <ele>1344.7998</ele>
        <time>2023-08-07T14:16:26+02:00</time>
      </trkpt>
      <trkpt lat="44.11666" lon="6.59163">
        <ele>1344.7998</ele>
        <time>2023-08-07T14:16:27+02:00</time>
      </trkpt>
      <trkpt lat="44.11674" lon="6.59164">
        <ele>1346.9004</ele>
        <time>2023-08-07T14:16:31+02:00</time>
      </trkpt>
      <trkpt lat="44.11676" lon="6.59164">
        <ele>1346.9004</ele>
        <time>2023-08-07T14:16:32+02:00</time>
      </trkpt>
      <trkpt lat="44.11685" lon="6.59161">
        <ele>1344.7998</ele>
        <time>2023-08-07T14:16:36+02:00</time>
      </trkpt>
      <trkpt lat="44.11687" lon="6.5916">
        <ele>1345.5</ele>
        <time>2023-08-07T14:16:37+02:00</time>
      </trkpt>
      <trkpt lat="44.11695" lon="6.59159">
        <ele>1346.2002</ele>
        <time>2023-08-07T14:16:41+02:00</time>
      </trkpt>
      <trkpt lat="44.11697" lon="6.59158">
        <ele>1346.2002</ele>
        <time>2023-08-07T14:16:42+02:00</time>
      </trkpt>
      <trkpt lat="44.11705" lon="6.59155">
        <ele>1347.2002</ele>
        <time>2023-08-07T14:16:46+02:00</time>
      </trkpt>
      <trkpt lat="44.11708" lon="6.59155">
        <ele>1347.2002</ele>
        <time>2023-08-07T14:16:47+02:00</time>
      </trkpt>
      <trkpt lat="44.11715" lon="6.59154">
        <ele>1344.1006</ele>
        <time>2023-08-07T14:16:51+02:00</time>
      </trkpt>
      <trkpt lat="44.11717" lon="6.59154">
        <ele>1344.2998</ele>
        <time>2023-08-07T14:16:52+02:00</time>
      </trkpt>
      <trkpt lat="44.11725" lon="6.59155">
        <ele>1348.1006</ele>
        <time>2023-08-07T14:16:56+02:00</time>
      </trkpt>
      <trkpt lat="44.11727" lon="6.59156">
        <ele>1348.1006</ele>
        <time>2023-08-07T14:16:57+02:00</time>
      </trkpt>
      <trkpt lat="44.11735" lon="6.59159">
        <ele>1348.2998</ele>
        <time>2023-08-07T14:17:01+02:00</time>
      </trkpt>
      <trkpt lat="44.11737" lon="6.5916">
        <ele>1348.5</ele>
        <time>2023-08-07T14:17:02+02:00</time>
      </trkpt>
      <trkpt lat="44.11745" lon="6.59162">
        <ele>1348.6006</ele>
        <time>2023-08-07T14:17:06+02:00</time>
      </trkpt>
      <trkpt lat="44.11748" lon="6.59162">
        <ele>1348.6006</ele>
        <time>2023-08-07T14:17:07+02:00</time>
      </trkpt>
      <trkpt lat="44.11757" lon="6.59164">
        <ele>1352.2002</ele>
        <time>2023-08-07T14:17:11+02:00</time>
      </trkpt>
      <trkpt lat="44.11759" lon="6.59164">
        <ele>1352.2002</ele>
        <time>2023-08-07T14:17:12+02:00</time>
      </trkpt>
      <trkpt lat="44.11769" lon="6.59167">
        <ele>1352.2002</ele>
        <time>2023-08-07T14:17:16+02:00</time>
      </trkpt>
      <trkpt lat="44.11772" lon="6.59168">
        <ele>1352.2002</ele>
        <time>2023-08-07T14:17:17+02:00</time>
      </trkpt>
      <trkpt lat="44.11781" lon="6.59172">
        <ele>1355.7002</ele>
        <time>2023-08-07T14:17:21+02:00</time>
      </trkpt>
      <trkpt lat="44.11784" lon="6.59173">
        <ele>1355.7002</ele>
        <time>2023-08-07T14:17:22+02:00</time>
      </trkpt>
      <trkpt lat="44.11792" lon="6.59178">
        <ele>1355.6006</ele>
        <time>2023-08-07T14:17:26+02:00</time>
      </trkpt>
      <trkpt lat="44.11795" lon="6.59178">
        <ele>1355.6006</ele>
        <time>2023-08-07T14:17:27+02:00</time>
      </trkpt>
      <trkpt lat="44.11804" lon="6.5918">
        <ele>1359.2998</ele>
        <time>2023-08-07T14:17:31+02:00</time>
      </trkpt>
      <trkpt lat="44.11806" lon="6.59181">
        <ele>1359.2998</ele>
        <time>2023-08-07T14:17:32+02:00</time>
      </trkpt>
      <trkpt lat="44.11816" lon="6.59185">
        <ele>1359.4004</ele>
        <time>2023-08-07T14:17:36+02:00</time>
      </trkpt>
      <trkpt lat="44.11819" lon="6.59186">
        <ele>1359.4004</ele>
        <time>2023-08-07T14:17:37+02:00</time>
      </trkpt>
      <trkpt lat="44.11827" lon="6.59192">
        <ele>1363.1006</ele>
        <time>2023-08-07T14:17:41+02:00</time>
      </trkpt>
      <trkpt lat="44.11829" lon="6.59194">
        <ele>1363</ele>
        <time>2023-08-07T14:17:42+02:00</time>
      </trkpt>
      <trkpt lat="44.11837" lon="6.592">
        <ele>1366.6006</ele>
        <time>2023-08-07T14:17:46+02:00</time>
      </trkpt>
      <trkpt lat="44.11839" lon="6.59202">
        <ele>1366.6006</ele>
        <time>2023-08-07T14:17:47+02:00</time>
      </trkpt>
      <trkpt lat="44.11847" lon="6.59207">
        <ele>1369.7002</ele>
        <time>2023-08-07T14:17:51+02:00</time>
      </trkpt>
      <trkpt lat="44.11849" lon="6.59207">
        <ele>1369.7002</ele>
        <time>2023-08-07T14:17:52+02:00</time>
      </trkpt>
      <trkpt lat="44.11858" lon="6.59208">
        <ele>1369.5</ele>
        <time>2023-08-07T14:17:56+02:00</time>
      </trkpt>
      <trkpt lat="44.11861" lon="6.59207">
        <ele>1369.2998</ele>
        <time>2023-08-07T14:17:57+02:00</time>
      </trkpt>
      <trkpt lat="44.11869" lon="6.59206">
        <ele>1369.4004</ele>
        <time>2023-08-07T14:18:01+02:00</time>
      </trkpt>
      <trkpt lat="44.11872" lon="6.59206">
        <ele>1369.4004</ele>
        <time>2023-08-07T14:18:02+02:00</time>
      </trkpt>
      <trkpt lat="44.11881" lon="6.59206">
        <ele>1369.4004</ele>
        <time>2023-08-07T14:18:06+02:00</time>
      </trkpt>
      <trkpt lat="44.11883" lon="6.59207">
        <ele>1369.4004</ele>
        <time>2023-08-07T14:18:07+02:00</time>
      </trkpt>
      <trkpt lat="44.11892" lon="6.59206">
        <ele>1369.5</ele>
        <time>2023-08-07T14:18:11+02:00</time>
      </trkpt>
      <trkpt lat="44.11895" lon="6.59206">
        <ele>1369.5</ele>
        <time>2023-08-07T14:18:12+02:00</time>
      </trkpt>
      <trkpt lat="44.11904" lon="6.59206">
        <ele>1369.7002</ele>
        <time>2023-08-07T14:18:16+02:00</time>
      </trkpt>
      <trkpt lat="44.11906" lon="6.59206">
        <ele>1369.7002</ele>
        <time>2023-08-07T14:18:17+02:00</time>
      </trkpt>
      <trkpt lat="44.11914" lon="6.59206">
        <ele>1370</ele>
        <time>2023-08-07T14:18:21+02:00</time>
      </trkpt>
      <trkpt lat="44.11916" lon="6.59206">
        <ele>1370</ele>
        <time>2023-08-07T14:18:22+02:00</time>
      </trkpt>
      <trkpt lat="44.11924" lon="6.59207">
        <ele>1370.1006</ele>
        <time>2023-08-07T14:18:26+02:00</time>
      </trkpt>
      <trkpt lat="44.11925" lon="6.59207">
        <ele>1370.1006</ele>
        <time>2023-08-07T14:18:27+02:00</time>
      </trkpt>
      <trkpt lat="44.11934" lon="6.59208">
        <ele>1370.4004</ele>
        <time>2023-08-07T14:18:31+02:00</time>
      </trkpt>
      <trkpt lat="44.11937" lon="6.59209">
        <ele>1370.4004</ele>
        <time>2023-08-07T14:18:32+02:00</time>
      </trkpt>
      <trkpt lat="44.11945" lon="6.59216">
        <ele>1373.5</ele>
        <time>2023-08-07T14:18:36+02:00</time>
      </trkpt>
      <trkpt lat="44.11947" lon="6.59218">
        <ele>1373.5</ele>
        <time>2023-08-07T14:18:37+02:00</time>
      </trkpt>
      <trkpt lat="44.11955" lon="6.59223">
        <ele>1376.2002</ele>
        <time>2023-08-07T14:18:41+02:00</time>
      </trkpt>
      <trkpt lat="44.11957" lon="6.59225">
        <ele>1376.2002</ele>
        <time>2023-08-07T14:18:42+02:00</time>
      </trkpt>
      <trkpt lat="44.11965" lon="6.59227">
        <ele>1376</ele>
        <time>2023-08-07T14:18:46+02:00</time>
      </trkpt>
      <trkpt lat="44.11967" lon="6.59228">
        <ele>1376</ele>
        <time>2023-08-07T14:18:47+02:00</time>
      </trkpt>
      <trkpt lat="44.11977" lon="6.59228">
        <ele>1376.2002</ele>
        <time>2023-08-07T14:18:51+02:00</time>
      </trkpt>
      <trkpt lat="44.11979" lon="6.59228">
        <ele>1376.2002</ele>
        <time>2023-08-07T14:18:52+02:00</time>
      </trkpt>
      <trkpt lat="44.11989" lon="6.59229">
        <ele>1376.9004</ele>
        <time>2023-08-07T14:18:56+02:00</time>
      </trkpt>
      <trkpt lat="44.11991" lon="6.5923">
        <ele>1376.9004</ele>
        <time>2023-08-07T14:18:57+02:00</time>
      </trkpt>
      <trkpt lat="44.11999" lon="6.59235">
        <ele>1379.6006</ele>
        <time>2023-08-07T14:19:01+02:00</time>
      </trkpt>
      <trkpt lat="44.12002" lon="6.59236">
        <ele>1379.6006</ele>
        <time>2023-08-07T14:19:02+02:00</time>
      </trkpt>
      <trkpt lat="44.1201" lon="6.59243">
        <ele>1381.7998</ele>
        <time>2023-08-07T14:19:06+02:00</time>
      </trkpt>
      <trkpt lat="44.12012" lon="6.59245">
        <ele>1381.7998</ele>
        <time>2023-08-07T14:19:07+02:00</time>
      </trkpt>
      <trkpt lat="44.12021" lon="6.59253">
        <ele>1383.9004</ele>
        <time>2023-08-07T14:19:11+02:00</time>
      </trkpt>
      <trkpt lat="44.12023" lon="6.59255">
        <ele>1383.9004</ele>
        <time>2023-08-07T14:19:12+02:00</time>
      </trkpt>
      <trkpt lat="44.12031" lon="6.59263">
        <ele>1386</ele>
        <time>2023-08-07T14:19:16+02:00</time>
      </trkpt>
      <trkpt lat="44.12033" lon="6.59265">
        <ele>1386</ele>
        <time>2023-08-07T14:19:17+02:00</time>
      </trkpt>
      <trkpt lat="44.1204" lon="6.59273">
        <ele>1388.2002</ele>
        <time>2023-08-07T14:19:21+02:00</time>
      </trkpt>
      <trkpt lat="44.12042" lon="6.59274">
        <ele>1388.2002</ele>
        <time>2023-08-07T14:19:22+02:00</time>
      </trkpt>
      <trkpt lat="44.12051" lon="6.59277">
        <ele>1390.4004</ele>
        <time>2023-08-07T14:19:26+02:00</time>
      </trkpt>
      <trkpt lat="44.12053" lon="6.59277">
        <ele>1390.4004</ele>
        <time>2023-08-07T14:19:27+02:00</time>
      </trkpt>
      <trkpt lat="44.12063" lon="6.59277">
        <ele>1390.4004</ele>
        <time>2023-08-07T14:19:31+02:00</time>
      </trkpt>
      <trkpt lat="44.12065" lon="6.59277">
        <ele>1390.4004</ele>
        <time>2023-08-07T14:19:32+02:00</time>
      </trkpt>
      <trkpt lat="44.12074" lon="6.59275">
        <ele>1390.2998</ele>
        <time>2023-08-07T14:19:36+02:00</time>
      </trkpt>
      <trkpt lat="44.12077" lon="6.59275">
        <ele>1390.2998</ele>
        <time>2023-08-07T14:19:37+02:00</time>
      </trkpt>
      <trkpt lat="44.12085" lon="6.59275">
        <ele>1390.2998</ele>
        <time>2023-08-07T14:19:41+02:00</time>
      </trkpt>
      <trkpt lat="44.12087" lon="6.59275">
        <ele>1390.2002</ele>
        <time>2023-08-07T14:19:42+02:00</time>
      </trkpt>
      <trkpt lat="44.12096" lon="6.59279">
        <ele>1390.1006</ele>
        <time>2023-08-07T14:19:46+02:00</time>
      </trkpt>
      <trkpt lat="44.12099" lon="6.5928">
        <ele>1390.1006</ele>
        <time>2023-08-07T14:19:47+02:00</time>
      </trkpt>
      <trkpt lat="44.12108" lon="6.5928">
        <ele>1390</ele>
        <time>2023-08-07T14:19:51+02:00</time>
      </trkpt>
      <trkpt lat="44.12111" lon="6.59281">
        <ele>1390</ele>
        <time>2023-08-07T14:19:52+02:00</time>
      </trkpt>
      <trkpt lat="44.1212" lon="6.59282">
        <ele>1389.7998</ele>
        <time>2023-08-07T14:19:56+02:00</time>
      </trkpt>
      <trkpt lat="44.12123" lon="6.59283">
        <ele>1392.2998</ele>
        <time>2023-08-07T14:19:57+02:00</time>
      </trkpt>
      <trkpt lat="44.12132" lon="6.59286">
        <ele>1392</ele>
        <time>2023-08-07T14:20:01+02:00</time>
      </trkpt>
      <trkpt lat="44.12135" lon="6.59287">
        <ele>1392</ele>
        <time>2023-08-07T14:20:02+02:00</time>
      </trkpt>
      <trkpt lat="44.12144" lon="6.5929">
        <ele>1391.6006</ele>
        <time>2023-08-07T14:20:06+02:00</time>
      </trkpt>
      <trkpt lat="44.12146" lon="6.59291">
        <ele>1391.6006</ele>
        <time>2023-08-07T14:20:07+02:00</time>
      </trkpt>
      <trkpt lat="44.12156" lon="6.59295">
        <ele>1393.6006</ele>
        <time>2023-08-07T14:20:11+02:00</time>
      </trkpt>
      <trkpt lat="44.12158" lon="6.59297">
        <ele>1393.6006</ele>
        <time>2023-08-07T14:20:12+02:00</time>
      </trkpt>
      <trkpt lat="44.12167" lon="6.59303">
        <ele>1395.7998</ele>
        <time>2023-08-07T14:20:16+02:00</time>
      </trkpt>
      <trkpt lat="44.12169" lon="6.59305">
        <ele>1395.5</ele>
        <time>2023-08-07T14:20:17+02:00</time>
      </trkpt>
      <trkpt lat="44.12177" lon="6.59311">
        <ele>1397.6006</ele>
        <time>2023-08-07T14:20:21+02:00</time>
      </trkpt>
      <trkpt lat="44.12179" lon="6.59313">
        <ele>1397.6006</ele>
        <time>2023-08-07T14:20:22+02:00</time>
      </trkpt>
      <trkpt lat="44.12186" lon="6.59321">
        <ele>1399.2002</ele>
        <time>2023-08-07T14:20:26+02:00</time>
      </trkpt>
      <trkpt lat="44.12188" lon="6.59322">
        <ele>1399.2002</ele>
        <time>2023-08-07T14:20:27+02:00</time>
      </trkpt>
      <trkpt lat="44.12196" lon="6.59323">
        <ele>1398.7998</ele>
        <time>2023-08-07T14:20:31+02:00</time>
      </trkpt>
      <trkpt lat="44.12198" lon="6.59323">
        <ele>1398.4004</ele>
        <time>2023-08-07T14:20:32+02:00</time>
      </trkpt>
      <trkpt lat="44.12209" lon="6.59323">
        <ele>1397.7998</ele>
        <time>2023-08-07T14:20:36+02:00</time>
      </trkpt>
      <trkpt lat="44.12211" lon="6.59322">
        <ele>1397.2002</ele>
        <time>2023-08-07T14:20:37+02:00</time>
      </trkpt>
      <trkpt lat="44.12222" lon="6.59318">
        <ele>1396.5</ele>
        <time>2023-08-07T14:20:41+02:00</time>
      </trkpt>
      <trkpt lat="44.12224" lon="6.59317">
        <ele>1395.7998</ele>
        <time>2023-08-07T14:20:42+02:00</time>
      </trkpt>
      <trkpt lat="44.12234" lon="6.59322">
        <ele>1395</ele>
        <time>2023-08-07T14:20:46+02:00</time>
      </trkpt>
      <trkpt lat="44.12236" lon="6.59325">
        <ele>1394.2002</ele>
        <time>2023-08-07T14:20:47+02:00</time>
      </trkpt>
      <trkpt lat="44.12242" lon="6.59336">
        <ele>1397.1006</ele>
        <time>2023-08-07T14:20:51+02:00</time>
      </trkpt>
      <trkpt lat="44.12244" lon="6.59339">
        <ele>1397.1006</ele>
        <time>2023-08-07T14:20:52+02:00</time>
      </trkpt>
      <trkpt lat="44.12247" lon="6.59351">
        <ele>1397.7998</ele>
        <time>2023-08-07T14:20:56+02:00</time>
      </trkpt>
      <trkpt lat="44.12248" lon="6.59354">
        <ele>1399.4004</ele>
        <time>2023-08-07T14:20:57+02:00</time>
      </trkpt>
      <trkpt lat="44.12251" lon="6.59367">
        <ele>1401.1006</ele>
        <time>2023-08-07T14:21:01+02:00</time>
      </trkpt>
      <trkpt lat="44.12252" lon="6.59371">
        <ele>1402.7002</ele>
        <time>2023-08-07T14:21:02+02:00</time>
      </trkpt>
      <trkpt lat="44.12258" lon="6.5938">
        <ele>1403.1006</ele>
        <time>2023-08-07T14:21:06+02:00</time>
      </trkpt>
      <trkpt lat="44.1226" lon="6.59381">
        <ele>1401.6006</ele>
        <time>2023-08-07T14:21:07+02:00</time>
      </trkpt>
      <trkpt lat="44.12268" lon="6.59385">
        <ele>1400.1006</ele>
        <time>2023-08-07T14:21:11+02:00</time>
      </trkpt>
      <trkpt lat="44.1227" lon="6.59385">
        <ele>1400.1006</ele>
        <time>2023-08-07T14:21:12+02:00</time>
      </trkpt>
      <trkpt lat="44.12279" lon="6.59384">
        <ele>1396.5</ele>
        <time>2023-08-07T14:21:16+02:00</time>
      </trkpt>
      <trkpt lat="44.12281" lon="6.59384">
        <ele>1396.5</ele>
        <time>2023-08-07T14:21:17+02:00</time>
      </trkpt>
      <trkpt lat="44.12288" lon="6.5939">
        <ele>1395.9004</ele>
        <time>2023-08-07T14:21:21+02:00</time>
      </trkpt>
      <trkpt lat="44.12288" lon="6.59393">
        <ele>1395.9004</ele>
        <time>2023-08-07T14:21:22+02:00</time>
      </trkpt>
      <trkpt lat="44.12283" lon="6.59402">
        <ele>1399.4004</ele>
        <time>2023-08-07T14:21:26+02:00</time>
      </trkpt>
      <trkpt lat="44.12281" lon="6.59402">
        <ele>1399.4004</ele>
        <time>2023-08-07T14:21:27+02:00</time>
      </trkpt>
      <trkpt lat="44.12271" lon="6.59402">
        <ele>1403</ele>
        <time>2023-08-07T14:21:31+02:00</time>
      </trkpt>
      <trkpt lat="44.12269" lon="6.59403">
        <ele>1403</ele>
        <time>2023-08-07T14:21:32+02:00</time>
      </trkpt>
      <trkpt lat="44.12261" lon="6.59405">
        <ele>1406.1006</ele>
        <time>2023-08-07T14:21:36+02:00</time>
      </trkpt>
      <trkpt lat="44.12259" lon="6.59406">
        <ele>1407.6006</ele>
        <time>2023-08-07T14:21:37+02:00</time>
      </trkpt>
      <trkpt lat="44.12251" lon="6.59409">
        <ele>1409</ele>
        <time>2023-08-07T14:21:41+02:00</time>
      </trkpt>
      <trkpt lat="44.12249" lon="6.59409">
        <ele>1409</ele>
        <time>2023-08-07T14:21:42+02:00</time>
      </trkpt>
      <trkpt lat="44.12242" lon="6.59411">
        <ele>1412</ele>
        <time>2023-08-07T14:21:46+02:00</time>
      </trkpt>
      <trkpt lat="44.1224" lon="6.59411">
        <ele>1413.2998</ele>
        <time>2023-08-07T14:21:47+02:00</time>
      </trkpt>
      <trkpt lat="44.12232" lon="6.59411">
        <ele>1412.7998</ele>
        <time>2023-08-07T14:21:51+02:00</time>
      </trkpt>
      <trkpt lat="44.1223" lon="6.59411">
        <ele>1412.7998</ele>
        <time>2023-08-07T14:21:52+02:00</time>
      </trkpt>
      <trkpt lat="44.12223" lon="6.59413">
        <ele>1415.9004</ele>
        <time>2023-08-07T14:21:56+02:00</time>
      </trkpt>
      <trkpt lat="44.12221" lon="6.59414">
        <ele>1417.1006</ele>
        <time>2023-08-07T14:21:57+02:00</time>
      </trkpt>
      <trkpt lat="44.12214" lon="6.59417">
        <ele>1418.2002</ele>
        <time>2023-08-07T14:22:01+02:00</time>
      </trkpt>
      <trkpt lat="44.12212" lon="6.59417">
        <ele>1418.2002</ele>
        <time>2023-08-07T14:22:02+02:00</time>
      </trkpt>
      <trkpt lat="44.12205" lon="6.59418">
        <ele>1419.2002</ele>
        <time>2023-08-07T14:22:06+02:00</time>
      </trkpt>
      <trkpt lat="44.12203" lon="6.59418">
        <ele>1420.2002</ele>
        <time>2023-08-07T14:22:07+02:00</time>
      </trkpt>
      <trkpt lat="44.12196" lon="6.59414">
        <ele>1421.2002</ele>
        <time>2023-08-07T14:22:11+02:00</time>
      </trkpt>
      <trkpt lat="44.12195" lon="6.59412">
        <ele>1421.2002</ele>
        <time>2023-08-07T14:22:12+02:00</time>
      </trkpt>
      <trkpt lat="44.12188" lon="6.59409">
        <ele>1419.9004</ele>
        <time>2023-08-07T14:22:16+02:00</time>
      </trkpt>
      <trkpt lat="44.12186" lon="6.59409">
        <ele>1419.9004</ele>
        <time>2023-08-07T14:22:17+02:00</time>
      </trkpt>
      <trkpt lat="44.12179" lon="6.59411">
        <ele>1421.2998</ele>
        <time>2023-08-07T14:22:21+02:00</time>
      </trkpt>
      <trkpt lat="44.12177" lon="6.59412">
        <ele>1423.6006</ele>
        <time>2023-08-07T14:22:22+02:00</time>
      </trkpt>
      <trkpt lat="44.12169" lon="6.59415">
        <ele>1424.2002</ele>
        <time>2023-08-07T14:22:26+02:00</time>
      </trkpt>
      <trkpt lat="44.12168" lon="6.59416">
        <ele>1424.2002</ele>
        <time>2023-08-07T14:22:27+02:00</time>
      </trkpt>
      <trkpt lat="44.1216" lon="6.59416">
        <ele>1425.5</ele>
        <time>2023-08-07T14:22:31+02:00</time>
      </trkpt>
      <trkpt lat="44.12158" lon="6.59416">
        <ele>1425.5</ele>
        <time>2023-08-07T14:22:32+02:00</time>
      </trkpt>
      <trkpt lat="44.12151" lon="6.59417">
        <ele>1426.1006</ele>
        <time>2023-08-07T14:22:36+02:00</time>
      </trkpt>
      <trkpt lat="44.12149" lon="6.59417">
        <ele>1426.1006</ele>
        <time>2023-08-07T14:22:37+02:00</time>
      </trkpt>
      <trkpt lat="44.12142" lon="6.59417">
        <ele>1427.2002</ele>
        <time>2023-08-07T14:22:41+02:00</time>
      </trkpt>
      <trkpt lat="44.1214" lon="6.59417">
        <ele>1427.2002</ele>
        <time>2023-08-07T14:22:42+02:00</time>
      </trkpt>
      <trkpt lat="44.12133" lon="6.59414">
        <ele>1427.6006</ele>
        <time>2023-08-07T14:22:46+02:00</time>
      </trkpt>
      <trkpt lat="44.12131" lon="6.59414">
        <ele>1427.6006</ele>
        <time>2023-08-07T14:22:47+02:00</time>
      </trkpt>
      <trkpt lat="44.12123" lon="6.59411">
        <ele>1428.2002</ele>
        <time>2023-08-07T14:22:51+02:00</time>
      </trkpt>
      <trkpt lat="44.12121" lon="6.59411">
        <ele>1426</ele>
        <time>2023-08-07T14:22:52+02:00</time>
      </trkpt>
      <trkpt lat="44.12113" lon="6.59408">
        <ele>1426.2002</ele>
        <time>2023-08-07T14:22:56+02:00</time>
      </trkpt>
      <trkpt lat="44.1211" lon="6.59408">
        <ele>1426.4004</ele>
        <time>2023-08-07T14:22:57+02:00</time>
      </trkpt>
      <trkpt lat="44.12102" lon="6.59407">
        <ele>1426.4004</ele>
        <time>2023-08-07T14:23:01+02:00</time>
      </trkpt>
      <trkpt lat="44.121" lon="6.59407">
        <ele>1426.4004</ele>
        <time>2023-08-07T14:23:02+02:00</time>
      </trkpt>
      <trkpt lat="44.12092" lon="6.59409">
        <ele>1426.4004</ele>
        <time>2023-08-07T14:23:06+02:00</time>
      </trkpt>
      <trkpt lat="44.1209" lon="6.5941">
        <ele>1426.4004</ele>
        <time>2023-08-07T14:23:07+02:00</time>
      </trkpt>
      <trkpt lat="44.12083" lon="6.59413">
        <ele>1428.4004</ele>
        <time>2023-08-07T14:23:11+02:00</time>
      </trkpt>
      <trkpt lat="44.12081" lon="6.59414">
        <ele>1428.4004</ele>
        <time>2023-08-07T14:23:12+02:00</time>
      </trkpt>
      <trkpt lat="44.12074" lon="6.59419">
        <ele>1428.1006</ele>
        <time>2023-08-07T14:23:16+02:00</time>
      </trkpt>
      <trkpt lat="44.12072" lon="6.59419">
        <ele>1428.1006</ele>
        <time>2023-08-07T14:23:17+02:00</time>
      </trkpt>
      <trkpt lat="44.12065" lon="6.59423">
        <ele>1429.7998</ele>
        <time>2023-08-07T14:23:21+02:00</time>
      </trkpt>
      <trkpt lat="44.12063" lon="6.59424">
        <ele>1429.7998</ele>
        <time>2023-08-07T14:23:22+02:00</time>
      </trkpt>
      <trkpt lat="44.12055" lon="6.59429">
        <ele>1431.2002</ele>
        <time>2023-08-07T14:23:26+02:00</time>
      </trkpt>
      <trkpt lat="44.12054" lon="6.5943">
        <ele>1431.2002</ele>
        <time>2023-08-07T14:23:27+02:00</time>
      </trkpt>
      <trkpt lat="44.12047" lon="6.59435">
        <ele>1430.9004</ele>
        <time>2023-08-07T14:23:31+02:00</time>
      </trkpt>
      <trkpt lat="44.12045" lon="6.59436">
        <ele>1430.9004</ele>
        <time>2023-08-07T14:23:32+02:00</time>
      </trkpt>
      <trkpt lat="44.12039" lon="6.59441">
        <ele>1432.2002</ele>
        <time>2023-08-07T14:23:36+02:00</time>
      </trkpt>
      <trkpt lat="44.12038" lon="6.59442">
        <ele>1432.2002</ele>
        <time>2023-08-07T14:23:37+02:00</time>
      </trkpt>
      <trkpt lat="44.1203" lon="6.59447">
        <ele>1433.1006</ele>
        <time>2023-08-07T14:23:41+02:00</time>
      </trkpt>
      <trkpt lat="44.12028" lon="6.59448">
        <ele>1433.1006</ele>
        <time>2023-08-07T14:23:42+02:00</time>
      </trkpt>
      <trkpt lat="44.12021" lon="6.59453">
        <ele>1432.7998</ele>
        <time>2023-08-07T14:23:46+02:00</time>
      </trkpt>
      <trkpt lat="44.12019" lon="6.59454">
        <ele>1432.5</ele>
        <time>2023-08-07T14:23:47+02:00</time>
      </trkpt>
      <trkpt lat="44.12011" lon="6.59459">
        <ele>1433.7002</ele>
        <time>2023-08-07T14:23:51+02:00</time>
      </trkpt>
      <trkpt lat="44.12009" lon="6.59461">
        <ele>1433.7002</ele>
        <time>2023-08-07T14:23:52+02:00</time>
      </trkpt>
      <trkpt lat="44.12002" lon="6.59466">
        <ele>1434.7998</ele>
        <time>2023-08-07T14:23:56+02:00</time>
      </trkpt>
      <trkpt lat="44.12001" lon="6.59468">
        <ele>1434.7998</ele>
        <time>2023-08-07T14:23:57+02:00</time>
      </trkpt>
      <trkpt lat="44.11994" lon="6.59473">
        <ele>1435.2998</ele>
        <time>2023-08-07T14:24:01+02:00</time>
      </trkpt>
      <trkpt lat="44.11992" lon="6.59475">
        <ele>1435.2998</ele>
        <time>2023-08-07T14:24:02+02:00</time>
      </trkpt>
      <trkpt lat="44.11986" lon="6.59482">
        <ele>1436.2998</ele>
        <time>2023-08-07T14:24:06+02:00</time>
      </trkpt>
      <trkpt lat="44.11984" lon="6.59484">
        <ele>1436.2998</ele>
        <time>2023-08-07T14:24:07+02:00</time>
      </trkpt>
      <trkpt lat="44.11978" lon="6.59492">
        <ele>1437.2998</ele>
        <time>2023-08-07T14:24:11+02:00</time>
      </trkpt>
      <trkpt lat="44.11977" lon="6.59494">
        <ele>1437.2998</ele>
        <time>2023-08-07T14:24:12+02:00</time>
      </trkpt>
      <trkpt lat="44.11971" lon="6.59501">
        <ele>1438.4004</ele>
        <time>2023-08-07T14:24:16+02:00</time>
      </trkpt>
      <trkpt lat="44.11969" lon="6.59503">
        <ele>1438.1006</ele>
        <time>2023-08-07T14:24:17+02:00</time>
      </trkpt>
      <trkpt lat="44.11963" lon="6.59511">
        <ele>1439.6006</ele>
        <time>2023-08-07T14:24:21+02:00</time>
      </trkpt>
      <trkpt lat="44.11961" lon="6.59512">
        <ele>1439.6006</ele>
        <time>2023-08-07T14:24:22+02:00</time>
      </trkpt>
      <trkpt lat="44.11955" lon="6.5952">
        <ele>1441.2998</ele>
        <time>2023-08-07T14:24:26+02:00</time>
      </trkpt>
      <trkpt lat="44.11953" lon="6.59522">
        <ele>1441.2998</ele>
        <time>2023-08-07T14:24:27+02:00</time>
      </trkpt>
      <trkpt lat="44.11946" lon="6.59528">
        <ele>1443.4004</ele>
        <time>2023-08-07T14:24:31+02:00</time>
      </trkpt>
      <trkpt lat="44.11944" lon="6.59529">
        <ele>1443.2002</ele>
        <time>2023-08-07T14:24:32+02:00</time>
      </trkpt>
      <trkpt lat="44.11937" lon="6.59533">
        <ele>1445.7002</ele>
        <time>2023-08-07T14:24:36+02:00</time>
      </trkpt>
      <trkpt lat="44.11935" lon="6.59534">
        <ele>1445.7002</ele>
        <time>2023-08-07T14:24:37+02:00</time>
      </trkpt>
      <trkpt lat="44.11927" lon="6.59538">
        <ele>1446</ele>
        <time>2023-08-07T14:24:41+02:00</time>
      </trkpt>
      <trkpt lat="44.11925" lon="6.59539">
        <ele>1446.2998</ele>
        <time>2023-08-07T14:24:42+02:00</time>
      </trkpt>
      <trkpt lat="44.11918" lon="6.59542">
        <ele>1449.1006</ele>
        <time>2023-08-07T14:24:46+02:00</time>
      </trkpt>
      <trkpt lat="44.11916" lon="6.59543">
        <ele>1449.1006</ele>
        <time>2023-08-07T14:24:47+02:00</time>
      </trkpt>
      <trkpt lat="44.11907" lon="6.59546">
        <ele>1449</ele>
        <time>2023-08-07T14:24:51+02:00</time>
      </trkpt>
      <trkpt lat="44.11904" lon="6.59547">
        <ele>1449</ele>
        <time>2023-08-07T14:24:52+02:00</time>
      </trkpt>
      <trkpt lat="44.11896" lon="6.5955">
        <ele>1451.5</ele>
        <time>2023-08-07T14:24:56+02:00</time>
      </trkpt>
      <trkpt lat="44.11894" lon="6.59551">
        <ele>1451.2998</ele>
        <time>2023-08-07T14:24:57+02:00</time>
      </trkpt>
      <trkpt lat="44.11887" lon="6.59556">
        <ele>1451.1006</ele>
        <time>2023-08-07T14:25:01+02:00</time>
      </trkpt>
      <trkpt lat="44.11885" lon="6.59558">
        <ele>1453.9004</ele>
        <time>2023-08-07T14:25:02+02:00</time>
      </trkpt>
      <trkpt lat="44.11879" lon="6.59564">
        <ele>1453.7002</ele>
        <time>2023-08-07T14:25:06+02:00</time>
      </trkpt>
      <trkpt lat="44.11877" lon="6.59565">
        <ele>1453.5</ele>
        <time>2023-08-07T14:25:07+02:00</time>
      </trkpt>
      <trkpt lat="44.1187" lon="6.59569">
        <ele>1456.4004</ele>
        <time>2023-08-07T14:25:11+02:00</time>
      </trkpt>
      <trkpt lat="44.11868" lon="6.59569">
        <ele>1456.4004</ele>
        <time>2023-08-07T14:25:12+02:00</time>
      </trkpt>
      <trkpt lat="44.1186" lon="6.5957">
        <ele>1456.2998</ele>
        <time>2023-08-07T14:25:16+02:00</time>
      </trkpt>
      <trkpt lat="44.11858" lon="6.59571">
        <ele>1456.2002</ele>
        <time>2023-08-07T14:25:17+02:00</time>
      </trkpt>
      <trkpt lat="44.11849" lon="6.59573">
        <ele>1456.1006</ele>
        <time>2023-08-07T14:25:21+02:00</time>
      </trkpt>
      <trkpt lat="44.11847" lon="6.59573">
        <ele>1456.1006</ele>
        <time>2023-08-07T14:25:22+02:00</time>
      </trkpt>
      <trkpt lat="44.11839" lon="6.59572">
        <ele>1456.1006</ele>
        <time>2023-08-07T14:25:26+02:00</time>
      </trkpt>
      <trkpt lat="44.11837" lon="6.59572">
        <ele>1456.1006</ele>
        <time>2023-08-07T14:25:27+02:00</time>
      </trkpt>
      <trkpt lat="44.11829" lon="6.59571">
        <ele>1456.1006</ele>
        <time>2023-08-07T14:25:31+02:00</time>
      </trkpt>
      <trkpt lat="44.11827" lon="6.5957">
        <ele>1456.1006</ele>
        <time>2023-08-07T14:25:32+02:00</time>
      </trkpt>
      <trkpt lat="44.1182" lon="6.5957">
        <ele>1456</ele>
        <time>2023-08-07T14:25:36+02:00</time>
      </trkpt>
      <trkpt lat="44.11817" lon="6.5957">
        <ele>1456</ele>
        <time>2023-08-07T14:25:37+02:00</time>
      </trkpt>
      <trkpt lat="44.11809" lon="6.59572">
        <ele>1456</ele>
        <time>2023-08-07T14:25:41+02:00</time>
      </trkpt>
      <trkpt lat="44.11807" lon="6.59572">
        <ele>1456</ele>
        <time>2023-08-07T14:25:42+02:00</time>
      </trkpt>
      <trkpt lat="44.118" lon="6.59577">
        <ele>1458.2998</ele>
        <time>2023-08-07T14:25:46+02:00</time>
      </trkpt>
      <trkpt lat="44.11798" lon="6.59579">
        <ele>1458.2998</ele>
        <time>2023-08-07T14:25:47+02:00</time>
      </trkpt>
      <trkpt lat="44.11791" lon="6.59586">
        <ele>1460.1006</ele>
        <time>2023-08-07T14:25:51+02:00</time>
      </trkpt>
      <trkpt lat="44.1179" lon="6.59588">
        <ele>1459.4004</ele>
        <time>2023-08-07T14:25:52+02:00</time>
      </trkpt>
      <trkpt lat="44.11784" lon="6.59596">
        <ele>1460.9004</ele>
        <time>2023-08-07T14:25:56+02:00</time>
      </trkpt>
      <trkpt lat="44.11783" lon="6.59598">
        <ele>1460.9004</ele>
        <time>2023-08-07T14:25:57+02:00</time>
      </trkpt>
      <trkpt lat="44.11776" lon="6.59606">
        <ele>1462.2002</ele>
        <time>2023-08-07T14:26:01+02:00</time>
      </trkpt>
      <trkpt lat="44.11774" lon="6.59607">
        <ele>1462.2002</ele>
        <time>2023-08-07T14:26:02+02:00</time>
      </trkpt>
      <trkpt lat="44.11767" lon="6.59614">
        <ele>1463.2998</ele>
        <time>2023-08-07T14:26:06+02:00</time>
      </trkpt>
      <trkpt lat="44.11765" lon="6.59615">
        <ele>1462.1006</ele>
        <time>2023-08-07T14:26:07+02:00</time>
      </trkpt>
      <trkpt lat="44.11758" lon="6.59622">
        <ele>1463</ele>
        <time>2023-08-07T14:26:11+02:00</time>
      </trkpt>
      <trkpt lat="44.11757" lon="6.59624">
        <ele>1463</ele>
        <time>2023-08-07T14:26:12+02:00</time>
      </trkpt>
      <trkpt lat="44.11752" lon="6.59633">
        <ele>1463.9004</ele>
        <time>2023-08-07T14:26:16+02:00</time>
      </trkpt>
      <trkpt lat="44.11751" lon="6.59635">
        <ele>1466</ele>
        <time>2023-08-07T14:26:17+02:00</time>
      </trkpt>
      <trkpt lat="44.11747" lon="6.59644">
        <ele>1466.9004</ele>
        <time>2023-08-07T14:26:21+02:00</time>
      </trkpt>
      <trkpt lat="44.11746" lon="6.59646">
        <ele>1466.9004</ele>
        <time>2023-08-07T14:26:22+02:00</time>
      </trkpt>
      <trkpt lat="44.11742" lon="6.59655">
        <ele>1469</ele>
        <time>2023-08-07T14:26:26+02:00</time>
      </trkpt>
      <trkpt lat="44.11741" lon="6.59658">
        <ele>1467.6006</ele>
        <time>2023-08-07T14:26:27+02:00</time>
      </trkpt>
      <trkpt lat="44.11738" lon="6.59668">
        <ele>1469.6006</ele>
        <time>2023-08-07T14:26:31+02:00</time>
      </trkpt>
      <trkpt lat="44.11737" lon="6.59671">
        <ele>1471.4004</ele>
        <time>2023-08-07T14:26:32+02:00</time>
      </trkpt>
      <trkpt lat="44.11736" lon="6.59682">
        <ele>1473</ele>
        <time>2023-08-07T14:26:36+02:00</time>
      </trkpt>
      <trkpt lat="44.11736" lon="6.59686">
        <ele>1473</ele>
        <time>2023-08-07T14:26:37+02:00</time>
      </trkpt>
      <trkpt lat="44.11735" lon="6.59697">
        <ele>1474.4004</ele>
        <time>2023-08-07T14:26:41+02:00</time>
      </trkpt>
      <trkpt lat="44.11735" lon="6.59699">
        <ele>1474.4004</ele>
        <time>2023-08-07T14:26:42+02:00</time>
      </trkpt>
      <trkpt lat="44.11734" lon="6.5971">
        <ele>1476</ele>
        <time>2023-08-07T14:26:46+02:00</time>
      </trkpt>
      <trkpt lat="44.11733" lon="6.59713">
        <ele>1477.5</ele>
        <time>2023-08-07T14:26:47+02:00</time>
      </trkpt>
      <trkpt lat="44.11732" lon="6.59723">
        <ele>1479.1006</ele>
        <time>2023-08-07T14:26:51+02:00</time>
      </trkpt>
      <trkpt lat="44.11731" lon="6.59726">
        <ele>1479.1006</ele>
        <time>2023-08-07T14:26:52+02:00</time>
      </trkpt>
      <trkpt lat="44.11729" lon="6.59736">
        <ele>1479</ele>
        <time>2023-08-07T14:26:56+02:00</time>
      </trkpt>
      <trkpt lat="44.11729" lon="6.59738">
        <ele>1480.6006</ele>
        <time>2023-08-07T14:26:57+02:00</time>
      </trkpt>
      <trkpt lat="44.11727" lon="6.59749">
        <ele>1482.2998</ele>
        <time>2023-08-07T14:27:01+02:00</time>
      </trkpt>
      <trkpt lat="44.11726" lon="6.59752">
        <ele>1482.2998</ele>
        <time>2023-08-07T14:27:02+02:00</time>
      </trkpt>
      <trkpt lat="44.11723" lon="6.59762">
        <ele>1484</ele>
        <time>2023-08-07T14:27:06+02:00</time>
      </trkpt>
      <trkpt lat="44.11723" lon="6.59765">
        <ele>1483.7002</ele>
        <time>2023-08-07T14:27:07+02:00</time>
      </trkpt>
      <trkpt lat="44.11719" lon="6.59775">
        <ele>1485.2998</ele>
        <time>2023-08-07T14:27:11+02:00</time>
      </trkpt>
      <trkpt lat="44.11718" lon="6.59778">
        <ele>1485.2998</ele>
        <time>2023-08-07T14:27:12+02:00</time>
      </trkpt>
      <trkpt lat="44.11715" lon="6.59788">
        <ele>1484.7998</ele>
        <time>2023-08-07T14:27:16+02:00</time>
      </trkpt>
      <trkpt lat="44.11714" lon="6.5979">
        <ele>1486.2998</ele>
        <time>2023-08-07T14:27:17+02:00</time>
      </trkpt>
      <trkpt lat="44.11711" lon="6.59801">
        <ele>1487.9004</ele>
        <time>2023-08-07T14:27:21+02:00</time>
      </trkpt>
      <trkpt lat="44.11711" lon="6.59804">
        <ele>1485.7998</ele>
        <time>2023-08-07T14:27:22+02:00</time>
      </trkpt>
      <trkpt lat="44.11708" lon="6.59814">
        <ele>1487.2002</ele>
        <time>2023-08-07T14:27:26+02:00</time>
      </trkpt>
      <trkpt lat="44.11708" lon="6.59817">
        <ele>1488.7002</ele>
        <time>2023-08-07T14:27:27+02:00</time>
      </trkpt>
      <trkpt lat="44.11705" lon="6.59828">
        <ele>1490.2002</ele>
        <time>2023-08-07T14:27:31+02:00</time>
      </trkpt>
      <trkpt lat="44.11705" lon="6.59831">
        <ele>1490.2002</ele>
        <time>2023-08-07T14:27:32+02:00</time>
      </trkpt>
      <trkpt lat="44.11703" lon="6.59842">
        <ele>1491.4004</ele>
        <time>2023-08-07T14:27:36+02:00</time>
      </trkpt>
      <trkpt lat="44.11702" lon="6.59844">
        <ele>1491.4004</ele>
        <time>2023-08-07T14:27:37+02:00</time>
      </trkpt>
      <trkpt lat="44.117" lon="6.59854">
        <ele>1493.1006</ele>
        <time>2023-08-07T14:27:41+02:00</time>
      </trkpt>
      <trkpt lat="44.11699" lon="6.59856">
        <ele>1493.1006</ele>
        <time>2023-08-07T14:27:42+02:00</time>
      </trkpt>
      <trkpt lat="44.11697" lon="6.59865">
        <ele>1492.6006</ele>
        <time>2023-08-07T14:27:46+02:00</time>
      </trkpt>
      <trkpt lat="44.11696" lon="6.59868">
        <ele>1494.2002</ele>
        <time>2023-08-07T14:27:47+02:00</time>
      </trkpt>
      <trkpt lat="44.11693" lon="6.59877">
        <ele>1495.9004</ele>
        <time>2023-08-07T14:27:51+02:00</time>
      </trkpt>
      <trkpt lat="44.11692" lon="6.5988">
        <ele>1493.7002</ele>
        <time>2023-08-07T14:27:52+02:00</time>
      </trkpt>
      <trkpt lat="44.1169" lon="6.59893">
        <ele>1497</ele>
        <time>2023-08-07T14:27:56+02:00</time>
      </trkpt>
      <trkpt lat="44.11689" lon="6.59896">
        <ele>1497</ele>
        <time>2023-08-07T14:27:57+02:00</time>
      </trkpt>
      <trkpt lat="44.11685" lon="6.59905">
        <ele>1496.2998</ele>
        <time>2023-08-07T14:28:01+02:00</time>
      </trkpt>
      <trkpt lat="44.11684" lon="6.59908">
        <ele>1496.2998</ele>
        <time>2023-08-07T14:28:02+02:00</time>
      </trkpt>
      <trkpt lat="44.1168" lon="6.59918">
        <ele>1499.4004</ele>
        <time>2023-08-07T14:28:06+02:00</time>
      </trkpt>
      <trkpt lat="44.11679" lon="6.59921">
        <ele>1497.2002</ele>
        <time>2023-08-07T14:28:07+02:00</time>
      </trkpt>
      <trkpt lat="44.11676" lon="6.59932">
        <ele>1498.7998</ele>
        <time>2023-08-07T14:28:11+02:00</time>
      </trkpt>
      <trkpt lat="44.11675" lon="6.59935">
        <ele>1498.7998</ele>
        <time>2023-08-07T14:28:12+02:00</time>
      </trkpt>
      <trkpt lat="44.11671" lon="6.59946">
        <ele>1499.7998</ele>
        <time>2023-08-07T14:28:16+02:00</time>
      </trkpt>
      <trkpt lat="44.1167" lon="6.59948">
        <ele>1499.7998</ele>
        <time>2023-08-07T14:28:17+02:00</time>
      </trkpt>
      <trkpt lat="44.11667" lon="6.59958">
        <ele>1499.2002</ele>
        <time>2023-08-07T14:28:21+02:00</time>
      </trkpt>
      <trkpt lat="44.11666" lon="6.5996">
        <ele>1499.2002</ele>
        <time>2023-08-07T14:28:22+02:00</time>
      </trkpt>
      <trkpt lat="44.11663" lon="6.59968">
        <ele>1500.9004</ele>
        <time>2023-08-07T14:28:26+02:00</time>
      </trkpt>
      <trkpt lat="44.11662" lon="6.5997">
        <ele>1502.7002</ele>
        <time>2023-08-07T14:28:27+02:00</time>
      </trkpt>
      <trkpt lat="44.11659" lon="6.5998">
        <ele>1502.2002</ele>
        <time>2023-08-07T14:28:31+02:00</time>
      </trkpt>
      <trkpt lat="44.11658" lon="6.59983">
        <ele>1502.2002</ele>
        <time>2023-08-07T14:28:32+02:00</time>
      </trkpt>
      <trkpt lat="44.11655" lon="6.59994">
        <ele>1501.7998</ele>
        <time>2023-08-07T14:28:36+02:00</time>
      </trkpt>
      <trkpt lat="44.11654" lon="6.59997">
        <ele>1503.7002</ele>
        <time>2023-08-07T14:28:37+02:00</time>
      </trkpt>
      <trkpt lat="44.11651" lon="6.60007">
        <ele>1505.5</ele>
        <time>2023-08-07T14:28:41+02:00</time>
      </trkpt>
      <trkpt lat="44.1165" lon="6.6001">
        <ele>1505.5</ele>
        <time>2023-08-07T14:28:42+02:00</time>
      </trkpt>
      <trkpt lat="44.11645" lon="6.60019">
        <ele>1505.1006</ele>
        <time>2023-08-07T14:28:46+02:00</time>
      </trkpt>
      <trkpt lat="44.11644" lon="6.60021">
        <ele>1506.9004</ele>
        <time>2023-08-07T14:28:47+02:00</time>
      </trkpt>
      <trkpt lat="44.11641" lon="6.60031">
        <ele>1506.2998</ele>
        <time>2023-08-07T14:28:51+02:00</time>
      </trkpt>
      <trkpt lat="44.1164" lon="6.60034">
        <ele>1506.2998</ele>
        <time>2023-08-07T14:28:52+02:00</time>
      </trkpt>
      <trkpt lat="44.11637" lon="6.60044">
        <ele>1505.7998</ele>
        <time>2023-08-07T14:28:56+02:00</time>
      </trkpt>
      <trkpt lat="44.11636" lon="6.60047">
        <ele>1507.5</ele>
        <time>2023-08-07T14:28:57+02:00</time>
      </trkpt>
      <trkpt lat="44.11632" lon="6.60055">
        <ele>1509.5</ele>
        <time>2023-08-07T14:29:01+02:00</time>
      </trkpt>
      <trkpt lat="44.1163" lon="6.60058">
        <ele>1507.4004</ele>
        <time>2023-08-07T14:29:02+02:00</time>
      </trkpt>
      <trkpt lat="44.11626" lon="6.60067">
        <ele>1509.5</ele>
        <time>2023-08-07T14:29:06+02:00</time>
      </trkpt>
      <trkpt lat="44.11625" lon="6.60069">
        <ele>1509.5</ele>
        <time>2023-08-07T14:29:07+02:00</time>
      </trkpt>
      <trkpt lat="44.1162" lon="6.60078">
        <ele>1509.6006</ele>
        <time>2023-08-07T14:29:11+02:00</time>
      </trkpt>
      <trkpt lat="44.11619" lon="6.60081">
        <ele>1509.6006</ele>
        <time>2023-08-07T14:29:12+02:00</time>
      </trkpt>
      <trkpt lat="44.11614" lon="6.6009">
        <ele>1511.7002</ele>
        <time>2023-08-07T14:29:16+02:00</time>
      </trkpt>
      <trkpt lat="44.11613" lon="6.60093">
        <ele>1511.7002</ele>
        <time>2023-08-07T14:29:17+02:00</time>
      </trkpt>
      <trkpt lat="44.1161" lon="6.60103">
        <ele>1511.7998</ele>
        <time>2023-08-07T14:29:21+02:00</time>
      </trkpt>
      <trkpt lat="44.11608" lon="6.60106">
        <ele>1511.7998</ele>
        <time>2023-08-07T14:29:22+02:00</time>
      </trkpt>
      <trkpt lat="44.11603" lon="6.60115">
        <ele>1513.9004</ele>
        <time>2023-08-07T14:29:26+02:00</time>
      </trkpt>
      <trkpt lat="44.11601" lon="6.60117">
        <ele>1513.9004</ele>
        <time>2023-08-07T14:29:27+02:00</time>
      </trkpt>
      <trkpt lat="44.11594" lon="6.60124">
        <ele>1513.9004</ele>
        <time>2023-08-07T14:29:31+02:00</time>
      </trkpt>
      <trkpt lat="44.11592" lon="6.60126">
        <ele>1512</ele>
        <time>2023-08-07T14:29:32+02:00</time>
      </trkpt>
      <trkpt lat="44.11586" lon="6.60132">
        <ele>1510.2002</ele>
        <time>2023-08-07T14:29:36+02:00</time>
      </trkpt>
      <trkpt lat="44.11584" lon="6.60133">
        <ele>1511.7998</ele>
        <time>2023-08-07T14:29:37+02:00</time>
      </trkpt>
      <trkpt lat="44.11578" lon="6.6014">
        <ele>1510</ele>
        <time>2023-08-07T14:29:41+02:00</time>
      </trkpt>
      <trkpt lat="44.11577" lon="6.60141">
        <ele>1511.6006</ele>
        <time>2023-08-07T14:29:42+02:00</time>
      </trkpt>
      <trkpt lat="44.11573" lon="6.60149">
        <ele>1509.7002</ele>
        <time>2023-08-07T14:29:46+02:00</time>
      </trkpt>
      <trkpt lat="44.11572" lon="6.60151">
        <ele>1511.2998</ele>
        <time>2023-08-07T14:29:47+02:00</time>
      </trkpt>
      <trkpt lat="44.1157" lon="6.6016">
        <ele>1512.9004</ele>
        <time>2023-08-07T14:29:51+02:00</time>
      </trkpt>
      <trkpt lat="44.11569" lon="6.60162">
        <ele>1512.9004</ele>
        <time>2023-08-07T14:29:52+02:00</time>
      </trkpt>
      <trkpt lat="44.11568" lon="6.60172">
        <ele>1512.6006</ele>
        <time>2023-08-07T14:29:56+02:00</time>
      </trkpt>
      <trkpt lat="44.11568" lon="6.60175">
        <ele>1512.6006</ele>
        <time>2023-08-07T14:29:57+02:00</time>
      </trkpt>
      <trkpt lat="44.11569" lon="6.60186">
        <ele>1517.2002</ele>
        <time>2023-08-07T14:30:01+02:00</time>
      </trkpt>
      <trkpt lat="44.1157" lon="6.6019">
        <ele>1517.2002</ele>
        <time>2023-08-07T14:30:02+02:00</time>
      </trkpt>
      <trkpt lat="44.1157" lon="6.60201">
        <ele>1519.7002</ele>
        <time>2023-08-07T14:30:06+02:00</time>
      </trkpt>
      <trkpt lat="44.1157" lon="6.60204">
        <ele>1519.7002</ele>
        <time>2023-08-07T14:30:07+02:00</time>
      </trkpt>
      <trkpt lat="44.11569" lon="6.60216">
        <ele>1519</ele>
        <time>2023-08-07T14:30:11+02:00</time>
      </trkpt>
      <trkpt lat="44.11568" lon="6.60219">
        <ele>1520.1006</ele>
        <time>2023-08-07T14:30:12+02:00</time>
      </trkpt>
      <trkpt lat="44.11566" lon="6.6023">
        <ele>1521.2002</ele>
        <time>2023-08-07T14:30:16+02:00</time>
      </trkpt>
      <trkpt lat="44.11564" lon="6.60232">
        <ele>1521.2002</ele>
        <time>2023-08-07T14:30:17+02:00</time>
      </trkpt>
      <trkpt lat="44.11559" lon="6.6024">
        <ele>1520.6006</ele>
        <time>2023-08-07T14:30:21+02:00</time>
      </trkpt>
      <trkpt lat="44.11558" lon="6.60243">
        <ele>1520.6006</ele>
        <time>2023-08-07T14:30:22+02:00</time>
      </trkpt>
      <trkpt lat="44.11551" lon="6.6025">
        <ele>1520</ele>
        <time>2023-08-07T14:30:26+02:00</time>
      </trkpt>
      <trkpt lat="44.11549" lon="6.60251">
        <ele>1518.4004</ele>
        <time>2023-08-07T14:30:27+02:00</time>
      </trkpt>
      <trkpt lat="44.11541" lon="6.60257">
        <ele>1517.7998</ele>
        <time>2023-08-07T14:30:31+02:00</time>
      </trkpt>
      <trkpt lat="44.11539" lon="6.60259">
        <ele>1517.7998</ele>
        <time>2023-08-07T14:30:32+02:00</time>
      </trkpt>
      <trkpt lat="44.11533" lon="6.60266">
        <ele>1517.2998</ele>
        <time>2023-08-07T14:30:36+02:00</time>
      </trkpt>
      <trkpt lat="44.11532" lon="6.60268">
        <ele>1515.9004</ele>
        <time>2023-08-07T14:30:37+02:00</time>
      </trkpt>
      <trkpt lat="44.11525" lon="6.60276">
        <ele>1515.7998</ele>
        <time>2023-08-07T14:30:41+02:00</time>
      </trkpt>
      <trkpt lat="44.11524" lon="6.60278">
        <ele>1515.7998</ele>
        <time>2023-08-07T14:30:42+02:00</time>
      </trkpt>
      <trkpt lat="44.11519" lon="6.60287">
        <ele>1515.9004</ele>
        <time>2023-08-07T14:30:46+02:00</time>
      </trkpt>
      <trkpt lat="44.11518" lon="6.60289">
        <ele>1517.2998</ele>
        <time>2023-08-07T14:30:47+02:00</time>
      </trkpt>
      <trkpt lat="44.11513" lon="6.60298">
        <ele>1517.7002</ele>
        <time>2023-08-07T14:30:51+02:00</time>
      </trkpt>
      <trkpt lat="44.11511" lon="6.603">
        <ele>1517.7002</ele>
        <time>2023-08-07T14:30:52+02:00</time>
      </trkpt>
      <trkpt lat="44.11505" lon="6.60308">
        <ele>1518.2998</ele>
        <time>2023-08-07T14:30:56+02:00</time>
      </trkpt>
      <trkpt lat="44.11504" lon="6.60309">
        <ele>1518.2998</ele>
        <time>2023-08-07T14:30:57+02:00</time>
      </trkpt>
      <trkpt lat="44.11497" lon="6.60317">
        <ele>1519.1006</ele>
        <time>2023-08-07T14:31:01+02:00</time>
      </trkpt>
      <trkpt lat="44.11496" lon="6.60319">
        <ele>1519.1006</ele>
        <time>2023-08-07T14:31:02+02:00</time>
      </trkpt>
      <trkpt lat="44.11495" lon="6.6033">
        <ele>1523.2998</ele>
        <time>2023-08-07T14:31:06+02:00</time>
      </trkpt>
      <trkpt lat="44.11497" lon="6.60333">
        <ele>1523.2998</ele>
        <time>2023-08-07T14:31:07+02:00</time>
      </trkpt>
      <trkpt lat="44.11504" lon="6.60336">
        <ele>1524.2998</ele>
        <time>2023-08-07T14:31:11+02:00</time>
      </trkpt>
      <trkpt lat="44.11507" lon="6.60335">
        <ele>1524.2998</ele>
        <time>2023-08-07T14:31:12+02:00</time>
      </trkpt>
      <trkpt lat="44.11513" lon="6.60328">
        <ele>1523.2002</ele>
        <time>2023-08-07T14:31:16+02:00</time>
      </trkpt>
      <trkpt lat="44.11515" lon="6.60326">
        <ele>1524.2002</ele>
        <time>2023-08-07T14:31:17+02:00</time>
      </trkpt>
      <trkpt lat="44.11522" lon="6.60319">
        <ele>1523.4004</ele>
        <time>2023-08-07T14:31:21+02:00</time>
      </trkpt>
      <trkpt lat="44.11523" lon="6.60317">
        <ele>1523.4004</ele>
        <time>2023-08-07T14:31:22+02:00</time>
      </trkpt>
      <trkpt lat="44.1153" lon="6.6031">
        <ele>1522.7002</ele>
        <time>2023-08-07T14:31:26+02:00</time>
      </trkpt>
      <trkpt lat="44.11532" lon="6.60309">
        <ele>1522.7002</ele>
        <time>2023-08-07T14:31:27+02:00</time>
      </trkpt>
      <trkpt lat="44.11538" lon="6.60303">
        <ele>1523.7002</ele>
        <time>2023-08-07T14:31:31+02:00</time>
      </trkpt>
      <trkpt lat="44.1154" lon="6.60301">
        <ele>1523.7002</ele>
        <time>2023-08-07T14:31:32+02:00</time>
      </trkpt>
      <trkpt lat="44.11546" lon="6.60296">
        <ele>1525</ele>
        <time>2023-08-07T14:31:36+02:00</time>
      </trkpt>
      <trkpt lat="44.11548" lon="6.60295">
        <ele>1523.7002</ele>
        <time>2023-08-07T14:31:37+02:00</time>
      </trkpt>
      <trkpt lat="44.11556" lon="6.60292">
        <ele>1525.1006</ele>
        <time>2023-08-07T14:31:41+02:00</time>
      </trkpt>
      <trkpt lat="44.11558" lon="6.60292">
        <ele>1526.6006</ele>
        <time>2023-08-07T14:31:42+02:00</time>
      </trkpt>
      <trkpt lat="44.11566" lon="6.6029">
        <ele>1528.2002</ele>
        <time>2023-08-07T14:31:46+02:00</time>
      </trkpt>
      <trkpt lat="44.11568" lon="6.60289">
        <ele>1528.2002</ele>
        <time>2023-08-07T14:31:47+02:00</time>
      </trkpt>
      <trkpt lat="44.11576" lon="6.60288">
        <ele>1531.5</ele>
        <time>2023-08-07T14:31:51+02:00</time>
      </trkpt>
      <trkpt lat="44.11578" lon="6.60288">
        <ele>1531.5</ele>
        <time>2023-08-07T14:31:52+02:00</time>
      </trkpt>
      <trkpt lat="44.11586" lon="6.60286">
        <ele>1531.9004</ele>
        <time>2023-08-07T14:31:56+02:00</time>
      </trkpt>
      <trkpt lat="44.11588" lon="6.60286">
        <ele>1533.7998</ele>
        <time>2023-08-07T14:31:57+02:00</time>
      </trkpt>
      <trkpt lat="44.11596" lon="6.60282">
        <ele>1535.7002</ele>
        <time>2023-08-07T14:32:01+02:00</time>
      </trkpt>
      <trkpt lat="44.11597" lon="6.60281">
        <ele>1535.7002</ele>
        <time>2023-08-07T14:32:02+02:00</time>
      </trkpt>
      <trkpt lat="44.11605" lon="6.60275">
        <ele>1536.2998</ele>
        <time>2023-08-07T14:32:06+02:00</time>
      </trkpt>
      <trkpt lat="44.11606" lon="6.60273">
        <ele>1538.2002</ele>
        <time>2023-08-07T14:32:07+02:00</time>
      </trkpt>
      <trkpt lat="44.11612" lon="6.60266">
        <ele>1536.9004</ele>
        <time>2023-08-07T14:32:11+02:00</time>
      </trkpt>
      <trkpt lat="44.11614" lon="6.60264">
        <ele>1538.7998</ele>
        <time>2023-08-07T14:32:12+02:00</time>
      </trkpt>
      <trkpt lat="44.1162" lon="6.60256">
        <ele>1539.4004</ele>
        <time>2023-08-07T14:32:16+02:00</time>
      </trkpt>
      <trkpt lat="44.11621" lon="6.60254">
        <ele>1539.4004</ele>
        <time>2023-08-07T14:32:17+02:00</time>
      </trkpt>
      <trkpt lat="44.11627" lon="6.60248">
        <ele>1540.1006</ele>
        <time>2023-08-07T14:32:21+02:00</time>
      </trkpt>
      <trkpt lat="44.11628" lon="6.60247">
        <ele>1540.1006</ele>
        <time>2023-08-07T14:32:22+02:00</time>
      </trkpt>
      <trkpt lat="44.11635" lon="6.60241">
        <ele>1540.7002</ele>
        <time>2023-08-07T14:32:26+02:00</time>
      </trkpt>
      <trkpt lat="44.11636" lon="6.6024">
        <ele>1540.7002</ele>
        <time>2023-08-07T14:32:27+02:00</time>
      </trkpt>
      <trkpt lat="44.11643" lon="6.60236">
        <ele>1544.6006</ele>
        <time>2023-08-07T14:32:31+02:00</time>
      </trkpt>
      <trkpt lat="44.11645" lon="6.60235">
        <ele>1543.2998</ele>
        <time>2023-08-07T14:32:32+02:00</time>
      </trkpt>
      <trkpt lat="44.11652" lon="6.60232">
        <ele>1545.2002</ele>
        <time>2023-08-07T14:32:36+02:00</time>
      </trkpt>
      <trkpt lat="44.11654" lon="6.60231">
        <ele>1545.2002</ele>
        <time>2023-08-07T14:32:37+02:00</time>
      </trkpt>
      <trkpt lat="44.11662" lon="6.60228">
        <ele>1549.1006</ele>
        <time>2023-08-07T14:32:41+02:00</time>
      </trkpt>
      <trkpt lat="44.11664" lon="6.60227">
        <ele>1549.1006</ele>
        <time>2023-08-07T14:32:42+02:00</time>
      </trkpt>
      <trkpt lat="44.11671" lon="6.60221">
        <ele>1549.9004</ele>
        <time>2023-08-07T14:32:46+02:00</time>
      </trkpt>
      <trkpt lat="44.11672" lon="6.6022">
        <ele>1549.9004</ele>
        <time>2023-08-07T14:32:47+02:00</time>
      </trkpt>
      <trkpt lat="44.11679" lon="6.60212">
        <ele>1550.7002</ele>
        <time>2023-08-07T14:32:51+02:00</time>
      </trkpt>
      <trkpt lat="44.1168" lon="6.6021">
        <ele>1552.7998</ele>
        <time>2023-08-07T14:32:52+02:00</time>
      </trkpt>
      <trkpt lat="44.11687" lon="6.60202">
        <ele>1553.6006</ele>
        <time>2023-08-07T14:32:56+02:00</time>
      </trkpt>
      <trkpt lat="44.11688" lon="6.602">
        <ele>1552.4004</ele>
        <time>2023-08-07T14:32:57+02:00</time>
      </trkpt>
      <trkpt lat="44.11693" lon="6.6019">
        <ele>1553.2002</ele>
        <time>2023-08-07T14:33:01+02:00</time>
      </trkpt>
      <trkpt lat="44.11694" lon="6.60188">
        <ele>1553.2002</ele>
        <time>2023-08-07T14:33:02+02:00</time>
      </trkpt>
      <trkpt lat="44.11699" lon="6.60178">
        <ele>1553.9004</ele>
        <time>2023-08-07T14:33:06+02:00</time>
      </trkpt>
      <trkpt lat="44.117" lon="6.60175">
        <ele>1552.7002</ele>
        <time>2023-08-07T14:33:07+02:00</time>
      </trkpt>
      <trkpt lat="44.11705" lon="6.60165">
        <ele>1551.5</ele>
        <time>2023-08-07T14:33:11+02:00</time>
      </trkpt>
      <trkpt lat="44.11706" lon="6.60163">
        <ele>1553.4004</ele>
        <time>2023-08-07T14:33:12+02:00</time>
      </trkpt>
      <trkpt lat="44.1171" lon="6.60153">
        <ele>1552.2002</ele>
        <time>2023-08-07T14:33:16+02:00</time>
      </trkpt>
      <trkpt lat="44.11711" lon="6.6015">
        <ele>1554.1006</ele>
        <time>2023-08-07T14:33:17+02:00</time>
      </trkpt>
      <trkpt lat="44.11716" lon="6.6014">
        <ele>1551.6006</ele>
        <time>2023-08-07T14:33:21+02:00</time>
      </trkpt>
      <trkpt lat="44.11717" lon="6.60138">
        <ele>1553.6006</ele>
        <time>2023-08-07T14:33:22+02:00</time>
      </trkpt>
      <trkpt lat="44.11722" lon="6.60128">
        <ele>1552.2998</ele>
        <time>2023-08-07T14:33:26+02:00</time>
      </trkpt>
      <trkpt lat="44.11723" lon="6.60125">
        <ele>1554.2002</ele>
        <time>2023-08-07T14:33:27+02:00</time>
      </trkpt>
      <trkpt lat="44.11727" lon="6.60115">
        <ele>1552.9004</ele>
        <time>2023-08-07T14:33:31+02:00</time>
      </trkpt>
      <trkpt lat="44.11728" lon="6.60113">
        <ele>1551.6006</ele>
        <time>2023-08-07T14:33:32+02:00</time>
      </trkpt>
      <trkpt lat="44.11733" lon="6.60103">
        <ele>1552.1006</ele>
        <time>2023-08-07T14:33:36+02:00</time>
      </trkpt>
      <trkpt lat="44.11734" lon="6.60101">
        <ele>1552.1006</ele>
        <time>2023-08-07T14:33:37+02:00</time>
      </trkpt>
      <trkpt lat="44.11739" lon="6.60092">
        <ele>1552.2998</ele>
        <time>2023-08-07T14:33:41+02:00</time>
      </trkpt>
      <trkpt lat="44.11741" lon="6.60089">
        <ele>1550.9004</ele>
        <time>2023-08-07T14:33:42+02:00</time>
      </trkpt>
      <trkpt lat="44.11746" lon="6.6008">
        <ele>1551</ele>
        <time>2023-08-07T14:33:46+02:00</time>
      </trkpt>
      <trkpt lat="44.11748" lon="6.60078">
        <ele>1551</ele>
        <time>2023-08-07T14:33:47+02:00</time>
      </trkpt>
      <trkpt lat="44.11754" lon="6.60068">
        <ele>1551.2002</ele>
        <time>2023-08-07T14:33:51+02:00</time>
      </trkpt>
      <trkpt lat="44.11755" lon="6.60066">
        <ele>1552.9004</ele>
        <time>2023-08-07T14:33:52+02:00</time>
      </trkpt>
      <trkpt lat="44.11761" lon="6.60057">
        <ele>1553.1006</ele>
        <time>2023-08-07T14:33:56+02:00</time>
      </trkpt>
      <trkpt lat="44.11762" lon="6.60055">
        <ele>1551.7002</ele>
        <time>2023-08-07T14:33:57+02:00</time>
      </trkpt>
      <trkpt lat="44.11768" lon="6.60047">
        <ele>1553.2002</ele>
        <time>2023-08-07T14:34:01+02:00</time>
      </trkpt>
      <trkpt lat="44.11769" lon="6.60044">
        <ele>1551.7002</ele>
        <time>2023-08-07T14:34:02+02:00</time>
      </trkpt>
      <trkpt lat="44.11774" lon="6.60036">
        <ele>1551.6006</ele>
        <time>2023-08-07T14:34:06+02:00</time>
      </trkpt>
      <trkpt lat="44.11776" lon="6.60033">
        <ele>1551.6006</ele>
        <time>2023-08-07T14:34:07+02:00</time>
      </trkpt>
      <trkpt lat="44.11782" lon="6.60025">
        <ele>1551.5</ele>
        <time>2023-08-07T14:34:11+02:00</time>
      </trkpt>
      <trkpt lat="44.11783" lon="6.60023">
        <ele>1551.5</ele>
        <time>2023-08-07T14:34:12+02:00</time>
      </trkpt>
      <trkpt lat="44.1179" lon="6.60015">
        <ele>1551.4004</ele>
        <time>2023-08-07T14:34:16+02:00</time>
      </trkpt>
      <trkpt lat="44.11791" lon="6.60013">
        <ele>1552.9004</ele>
        <time>2023-08-07T14:34:17+02:00</time>
      </trkpt>
      <trkpt lat="44.11798" lon="6.60006">
        <ele>1552.7002</ele>
        <time>2023-08-07T14:34:21+02:00</time>
      </trkpt>
      <trkpt lat="44.118" lon="6.60004">
        <ele>1552.7002</ele>
        <time>2023-08-07T14:34:22+02:00</time>
      </trkpt>
      <trkpt lat="44.11806" lon="6.59996">
        <ele>1552.4004</ele>
        <time>2023-08-07T14:34:26+02:00</time>
      </trkpt>
      <trkpt lat="44.11807" lon="6.59994">
        <ele>1550.6006</ele>
        <time>2023-08-07T14:34:27+02:00</time>
      </trkpt>
      <trkpt lat="44.11812" lon="6.59985">
        <ele>1550.1006</ele>
        <time>2023-08-07T14:34:31+02:00</time>
      </trkpt>
      <trkpt lat="44.11814" lon="6.59983">
        <ele>1550.1006</ele>
        <time>2023-08-07T14:34:32+02:00</time>
      </trkpt>
      <trkpt lat="44.11819" lon="6.59974">
        <ele>1549.4004</ele>
        <time>2023-08-07T14:34:36+02:00</time>
      </trkpt>
      <trkpt lat="44.1182" lon="6.59971">
        <ele>1549.4004</ele>
        <time>2023-08-07T14:34:37+02:00</time>
      </trkpt>
      <trkpt lat="44.11824" lon="6.5996">
        <ele>1547</ele>
        <time>2023-08-07T14:34:41+02:00</time>
      </trkpt>
      <trkpt lat="44.11825" lon="6.59957">
        <ele>1547</ele>
        <time>2023-08-07T14:34:42+02:00</time>
      </trkpt>
      <trkpt lat="44.11834" lon="6.59958">
        <ele>1549.2998</ele>
        <time>2023-08-07T14:34:46+02:00</time>
      </trkpt>
      <trkpt lat="44.11836" lon="6.5996">
        <ele>1549.2998</ele>
        <time>2023-08-07T14:34:47+02:00</time>
      </trkpt>
      <trkpt lat="44.11838" lon="6.59972">
        <ele>1553.2998</ele>
        <time>2023-08-07T14:34:51+02:00</time>
      </trkpt>
      <trkpt lat="44.11836" lon="6.59975">
        <ele>1553.2998</ele>
        <time>2023-08-07T14:34:52+02:00</time>
      </trkpt>
      <trkpt lat="44.11829" lon="6.59985">
        <ele>1553.9004</ele>
        <time>2023-08-07T14:34:56+02:00</time>
      </trkpt>
      <trkpt lat="44.11828" lon="6.59987">
        <ele>1554.6006</ele>
        <time>2023-08-07T14:34:57+02:00</time>
      </trkpt>
      <trkpt lat="44.11822" lon="6.59998">
        <ele>1556.7002</ele>
        <time>2023-08-07T14:35:01+02:00</time>
      </trkpt>
      <trkpt lat="44.11821" lon="6.60001">
        <ele>1555.2002</ele>
        <time>2023-08-07T14:35:02+02:00</time>
      </trkpt>
      <trkpt lat="44.11817" lon="6.60012">
        <ele>1559.5</ele>
        <time>2023-08-07T14:35:06+02:00</time>
      </trkpt>
      <trkpt lat="44.11815" lon="6.60015">
        <ele>1557.7002</ele>
        <time>2023-08-07T14:35:07+02:00</time>
      </trkpt>
      <trkpt lat="44.1181" lon="6.60026">
        <ele>1559.7998</ele>
        <time>2023-08-07T14:35:11+02:00</time>
      </trkpt>
      <trkpt lat="44.11808" lon="6.60028">
        <ele>1558</ele>
        <time>2023-08-07T14:35:12+02:00</time>
      </trkpt>
      <trkpt lat="44.11802" lon="6.60037">
        <ele>1558.2002</ele>
        <time>2023-08-07T14:35:16+02:00</time>
      </trkpt>
      <trkpt lat="44.11801" lon="6.6004">
        <ele>1560.1006</ele>
        <time>2023-08-07T14:35:17+02:00</time>
      </trkpt>
      <trkpt lat="44.11797" lon="6.60051">
        <ele>1561.9004</ele>
        <time>2023-08-07T14:35:21+02:00</time>
      </trkpt>
      <trkpt lat="44.11797" lon="6.60053">
        <ele>1560</ele>
        <time>2023-08-07T14:35:22+02:00</time>
      </trkpt>
      <trkpt lat="44.11794" lon="6.60064">
        <ele>1563.5</ele>
        <time>2023-08-07T14:35:26+02:00</time>
      </trkpt>
      <trkpt lat="44.11793" lon="6.60066">
        <ele>1563.5</ele>
        <time>2023-08-07T14:35:27+02:00</time>
      </trkpt>
      <trkpt lat="44.1179" lon="6.60076">
        <ele>1563.4004</ele>
        <time>2023-08-07T14:35:31+02:00</time>
      </trkpt>
      <trkpt lat="44.11789" lon="6.60079">
        <ele>1563.4004</ele>
        <time>2023-08-07T14:35:32+02:00</time>
      </trkpt>
      <trkpt lat="44.11786" lon="6.6009">
        <ele>1566.9004</ele>
        <time>2023-08-07T14:35:36+02:00</time>
      </trkpt>
      <trkpt lat="44.11785" lon="6.60093">
        <ele>1566.9004</ele>
        <time>2023-08-07T14:35:37+02:00</time>
      </trkpt>
      <trkpt lat="44.11782" lon="6.60105">
        <ele>1566.7998</ele>
        <time>2023-08-07T14:35:41+02:00</time>
      </trkpt>
      <trkpt lat="44.11781" lon="6.60107">
        <ele>1568.5</ele>
        <time>2023-08-07T14:35:42+02:00</time>
      </trkpt>
      <trkpt lat="44.11778" lon="6.60117">
        <ele>1568.1006</ele>
        <time>2023-08-07T14:35:46+02:00</time>
      </trkpt>
      <trkpt lat="44.11777" lon="6.6012">
        <ele>1568.1006</ele>
        <time>2023-08-07T14:35:47+02:00</time>
      </trkpt>
      <trkpt lat="44.11774" lon="6.6013">
        <ele>1569.7998</ele>
        <time>2023-08-07T14:35:51+02:00</time>
      </trkpt>
      <trkpt lat="44.11774" lon="6.60133">
        <ele>1571.4004</ele>
        <time>2023-08-07T14:35:52+02:00</time>
      </trkpt>
      <trkpt lat="44.11772" lon="6.60143">
        <ele>1570.9004</ele>
        <time>2023-08-07T14:35:56+02:00</time>
      </trkpt>
      <trkpt lat="44.11772" lon="6.60145">
        <ele>1570.9004</ele>
        <time>2023-08-07T14:35:57+02:00</time>
      </trkpt>
      <trkpt lat="44.1177" lon="6.60156">
        <ele>1572.5</ele>
        <time>2023-08-07T14:36:01+02:00</time>
      </trkpt>
      <trkpt lat="44.1177" lon="6.6016">
        <ele>1574</ele>
        <time>2023-08-07T14:36:02+02:00</time>
      </trkpt>
      <trkpt lat="44.11768" lon="6.6017">
        <ele>1575.7002</ele>
        <time>2023-08-07T14:36:06+02:00</time>
      </trkpt>
      <trkpt lat="44.11767" lon="6.60173">
        <ele>1575.7002</ele>
        <time>2023-08-07T14:36:07+02:00</time>
      </trkpt>
      <trkpt lat="44.11765" lon="6.60183">
        <ele>1574.9004</ele>
        <time>2023-08-07T14:36:11+02:00</time>
      </trkpt>
      <trkpt lat="44.11764" lon="6.60186">
        <ele>1576.6006</ele>
        <time>2023-08-07T14:36:12+02:00</time>
      </trkpt>
      <trkpt lat="44.11762" lon="6.60197">
        <ele>1578.2998</ele>
        <time>2023-08-07T14:36:16+02:00</time>
      </trkpt>
      <trkpt lat="44.11761" lon="6.602">
        <ele>1578.2998</ele>
        <time>2023-08-07T14:36:17+02:00</time>
      </trkpt>
      <trkpt lat="44.11759" lon="6.60211">
        <ele>1579.5</ele>
        <time>2023-08-07T14:36:21+02:00</time>
      </trkpt>
      <trkpt lat="44.11759" lon="6.60214">
        <ele>1579.5</ele>
        <time>2023-08-07T14:36:22+02:00</time>
      </trkpt>
      <trkpt lat="44.11757" lon="6.60224">
        <ele>1581.7002</ele>
        <time>2023-08-07T14:36:26+02:00</time>
      </trkpt>
      <trkpt lat="44.11756" lon="6.60226">
        <ele>1581.7002</ele>
        <time>2023-08-07T14:36:27+02:00</time>
      </trkpt>
      <trkpt lat="44.11754" lon="6.60236">
        <ele>1586.4004</ele>
        <time>2023-08-07T14:36:31+02:00</time>
      </trkpt>
      <trkpt lat="44.11753" lon="6.60239">
        <ele>1583.7002</ele>
        <time>2023-08-07T14:36:32+02:00</time>
      </trkpt>
      <trkpt lat="44.1175" lon="6.60248">
        <ele>1586.2998</ele>
        <time>2023-08-07T14:36:36+02:00</time>
      </trkpt>
      <trkpt lat="44.11749" lon="6.6025">
        <ele>1586.2998</ele>
        <time>2023-08-07T14:36:37+02:00</time>
      </trkpt>
      <trkpt lat="44.11746" lon="6.6026">
        <ele>1586.2002</ele>
        <time>2023-08-07T14:36:41+02:00</time>
      </trkpt>
      <trkpt lat="44.11745" lon="6.60263">
        <ele>1589</ele>
        <time>2023-08-07T14:36:42+02:00</time>
      </trkpt>
      <trkpt lat="44.11741" lon="6.60272">
        <ele>1589.1006</ele>
        <time>2023-08-07T14:36:46+02:00</time>
      </trkpt>
      <trkpt lat="44.1174" lon="6.60274">
        <ele>1589.1006</ele>
        <time>2023-08-07T14:36:47+02:00</time>
      </trkpt>
      <trkpt lat="44.11736" lon="6.60283">
        <ele>1592.2002</ele>
        <time>2023-08-07T14:36:51+02:00</time>
      </trkpt>
      <trkpt lat="44.11735" lon="6.60285">
        <ele>1589.2998</ele>
        <time>2023-08-07T14:36:52+02:00</time>
      </trkpt>
      <trkpt lat="44.1173" lon="6.60294">
        <ele>1592.4004</ele>
        <time>2023-08-07T14:36:56+02:00</time>
      </trkpt>
      <trkpt lat="44.11729" lon="6.60296">
        <ele>1592.6006</ele>
        <time>2023-08-07T14:36:57+02:00</time>
      </trkpt>
      <trkpt lat="44.11725" lon="6.60304">
        <ele>1592.6006</ele>
        <time>2023-08-07T14:37:01+02:00</time>
      </trkpt>
      <trkpt lat="44.11724" lon="6.60306">
        <ele>1596</ele>
        <time>2023-08-07T14:37:02+02:00</time>
      </trkpt>
      <trkpt lat="44.11719" lon="6.60315">
        <ele>1596.2998</ele>
        <time>2023-08-07T14:37:06+02:00</time>
      </trkpt>
      <trkpt lat="44.11718" lon="6.60318">
        <ele>1596.2998</ele>
        <time>2023-08-07T14:37:07+02:00</time>
      </trkpt>
      <trkpt lat="44.11715" lon="6.60326">
        <ele>1596.6006</ele>
        <time>2023-08-07T14:37:11+02:00</time>
      </trkpt>
      <trkpt lat="44.11714" lon="6.60329">
        <ele>1596.6006</ele>
        <time>2023-08-07T14:37:12+02:00</time>
      </trkpt>
      <trkpt lat="44.11709" lon="6.60337">
        <ele>1596.7998</ele>
        <time>2023-08-07T14:37:16+02:00</time>
      </trkpt>
      <trkpt lat="44.11708" lon="6.60339">
        <ele>1600.4004</ele>
        <time>2023-08-07T14:37:17+02:00</time>
      </trkpt>
      <trkpt lat="44.11703" lon="6.60347">
        <ele>1600.9004</ele>
        <time>2023-08-07T14:37:21+02:00</time>
      </trkpt>
      <trkpt lat="44.11702" lon="6.60349">
        <ele>1600.9004</ele>
        <time>2023-08-07T14:37:22+02:00</time>
      </trkpt>
      <trkpt lat="44.11697" lon="6.60358">
        <ele>1601.2998</ele>
        <time>2023-08-07T14:37:26+02:00</time>
      </trkpt>
      <trkpt lat="44.11695" lon="6.6036">
        <ele>1601.2998</ele>
        <time>2023-08-07T14:37:27+02:00</time>
      </trkpt>
      <trkpt lat="44.1169" lon="6.60368">
        <ele>1601.4004</ele>
        <time>2023-08-07T14:37:31+02:00</time>
      </trkpt>
      <trkpt lat="44.11689" lon="6.6037">
        <ele>1601.4004</ele>
        <time>2023-08-07T14:37:32+02:00</time>
      </trkpt>
      <trkpt lat="44.11683" lon="6.60379">
        <ele>1601.4004</ele>
        <time>2023-08-07T14:37:36+02:00</time>
      </trkpt>
      <trkpt lat="44.11682" lon="6.60381">
        <ele>1601.4004</ele>
        <time>2023-08-07T14:37:37+02:00</time>
      </trkpt>
      <trkpt lat="44.11676" lon="6.60387">
        <ele>1601.6006</ele>
        <time>2023-08-07T14:37:41+02:00</time>
      </trkpt>
      <trkpt lat="44.11675" lon="6.60389">
        <ele>1601.6006</ele>
        <time>2023-08-07T14:37:42+02:00</time>
      </trkpt>
      <trkpt lat="44.1167" lon="6.60397">
        <ele>1602.1006</ele>
        <time>2023-08-07T14:37:46+02:00</time>
      </trkpt>
      <trkpt lat="44.11669" lon="6.60399">
        <ele>1606.2002</ele>
        <time>2023-08-07T14:37:47+02:00</time>
      </trkpt>
      <trkpt lat="44.11664" lon="6.60407">
        <ele>1607.1006</ele>
        <time>2023-08-07T14:37:51+02:00</time>
      </trkpt>
      <trkpt lat="44.11662" lon="6.60409">
        <ele>1607.1006</ele>
        <time>2023-08-07T14:37:52+02:00</time>
      </trkpt>
      <trkpt lat="44.11657" lon="6.60417">
        <ele>1608.1006</ele>
        <time>2023-08-07T14:37:56+02:00</time>
      </trkpt>
      <trkpt lat="44.11656" lon="6.60419">
        <ele>1608.1006</ele>
        <time>2023-08-07T14:37:57+02:00</time>
      </trkpt>
      <trkpt lat="44.11651" lon="6.60427">
        <ele>1609.2002</ele>
        <time>2023-08-07T14:38:01+02:00</time>
      </trkpt>
      <trkpt lat="44.11649" lon="6.6043">
        <ele>1609.2002</ele>
        <time>2023-08-07T14:38:02+02:00</time>
      </trkpt>
      <trkpt lat="44.11644" lon="6.60439">
        <ele>1610.7002</ele>
        <time>2023-08-07T14:38:06+02:00</time>
      </trkpt>
      <trkpt lat="44.11643" lon="6.60442">
        <ele>1612.4004</ele>
        <time>2023-08-07T14:38:07+02:00</time>
      </trkpt>
      <trkpt lat="44.11637" lon="6.60449">
        <ele>1612.4004</ele>
        <time>2023-08-07T14:38:11+02:00</time>
      </trkpt>
      <trkpt lat="44.11636" lon="6.60451">
        <ele>1614.1006</ele>
        <time>2023-08-07T14:38:12+02:00</time>
      </trkpt>
      <trkpt lat="44.1163" lon="6.60458">
        <ele>1611.2002</ele>
        <time>2023-08-07T14:38:16+02:00</time>
      </trkpt>
      <trkpt lat="44.11628" lon="6.6046">
        <ele>1615.7002</ele>
        <time>2023-08-07T14:38:17+02:00</time>
      </trkpt>
      <trkpt lat="44.11621" lon="6.60464">
        <ele>1612.7998</ele>
        <time>2023-08-07T14:38:21+02:00</time>
      </trkpt>
      <trkpt lat="44.11619" lon="6.60465">
        <ele>1612.7998</ele>
        <time>2023-08-07T14:38:22+02:00</time>
      </trkpt>
      <trkpt lat="44.11612" lon="6.60471">
        <ele>1611.7998</ele>
        <time>2023-08-07T14:38:26+02:00</time>
      </trkpt>
      <trkpt lat="44.1161" lon="6.60472">
        <ele>1611.7998</ele>
        <time>2023-08-07T14:38:27+02:00</time>
      </trkpt>
      <trkpt lat="44.11604" lon="6.60478">
        <ele>1613.7998</ele>
        <time>2023-08-07T14:38:31+02:00</time>
      </trkpt>
      <trkpt lat="44.11603" lon="6.6048">
        <ele>1613.7998</ele>
        <time>2023-08-07T14:38:32+02:00</time>
      </trkpt>
      <trkpt lat="44.11596" lon="6.60485">
        <ele>1616</ele>
        <time>2023-08-07T14:38:36+02:00</time>
      </trkpt>
      <trkpt lat="44.11595" lon="6.60487">
        <ele>1616</ele>
        <time>2023-08-07T14:38:37+02:00</time>
      </trkpt>
      <trkpt lat="44.1159" lon="6.60495">
        <ele>1618.2998</ele>
        <time>2023-08-07T14:38:41+02:00</time>
      </trkpt>
      <trkpt lat="44.11589" lon="6.60497">
        <ele>1618.2998</ele>
        <time>2023-08-07T14:38:42+02:00</time>
      </trkpt>
      <trkpt lat="44.11584" lon="6.60506">
        <ele>1620.6006</ele>
        <time>2023-08-07T14:38:46+02:00</time>
      </trkpt>
      <trkpt lat="44.11583" lon="6.60508">
        <ele>1620.6006</ele>
        <time>2023-08-07T14:38:47+02:00</time>
      </trkpt>
      <trkpt lat="44.11577" lon="6.60516">
        <ele>1622.7002</ele>
        <time>2023-08-07T14:38:51+02:00</time>
      </trkpt>
      <trkpt lat="44.11576" lon="6.60518">
        <ele>1622.7002</ele>
        <time>2023-08-07T14:38:52+02:00</time>
      </trkpt>
      <trkpt lat="44.11569" lon="6.60525">
        <ele>1624.6006</ele>
        <time>2023-08-07T14:38:56+02:00</time>
      </trkpt>
      <trkpt lat="44.11568" lon="6.60527">
        <ele>1622.4004</ele>
        <time>2023-08-07T14:38:57+02:00</time>
      </trkpt>
      <trkpt lat="44.11561" lon="6.60532">
        <ele>1624.1006</ele>
        <time>2023-08-07T14:39:01+02:00</time>
      </trkpt>
      <trkpt lat="44.11559" lon="6.60534">
        <ele>1624.1006</ele>
        <time>2023-08-07T14:39:02+02:00</time>
      </trkpt>
      <trkpt lat="44.11553" lon="6.60541">
        <ele>1625.7998</ele>
        <time>2023-08-07T14:39:06+02:00</time>
      </trkpt>
      <trkpt lat="44.11551" lon="6.60543">
        <ele>1625.7998</ele>
        <time>2023-08-07T14:39:07+02:00</time>
      </trkpt>
      <trkpt lat="44.11546" lon="6.6055">
        <ele>1627.4004</ele>
        <time>2023-08-07T14:39:11+02:00</time>
      </trkpt>
      <trkpt lat="44.11544" lon="6.60551">
        <ele>1625.5</ele>
        <time>2023-08-07T14:39:12+02:00</time>
      </trkpt>
      <trkpt lat="44.11538" lon="6.60559">
        <ele>1628.9004</ele>
        <time>2023-08-07T14:39:16+02:00</time>
      </trkpt>
      <trkpt lat="44.11537" lon="6.6056">
        <ele>1627.1006</ele>
        <time>2023-08-07T14:39:17+02:00</time>
      </trkpt>
      <trkpt lat="44.11531" lon="6.60567">
        <ele>1628.6006</ele>
        <time>2023-08-07T14:39:21+02:00</time>
      </trkpt>
      <trkpt lat="44.1153" lon="6.60569">
        <ele>1628.6006</ele>
        <time>2023-08-07T14:39:22+02:00</time>
      </trkpt>
      <trkpt lat="44.11523" lon="6.60576">
        <ele>1630.1006</ele>
        <time>2023-08-07T14:39:26+02:00</time>
      </trkpt>
      <trkpt lat="44.11522" lon="6.60578">
        <ele>1630.1006</ele>
        <time>2023-08-07T14:39:27+02:00</time>
      </trkpt>
      <trkpt lat="44.11515" lon="6.60583">
        <ele>1631.5</ele>
        <time>2023-08-07T14:39:31+02:00</time>
      </trkpt>
      <trkpt lat="44.11513" lon="6.60585">
        <ele>1629.9004</ele>
        <time>2023-08-07T14:39:32+02:00</time>
      </trkpt>
      <trkpt lat="44.11506" lon="6.6059">
        <ele>1631.2998</ele>
        <time>2023-08-07T14:39:36+02:00</time>
      </trkpt>
      <trkpt lat="44.11504" lon="6.60592">
        <ele>1631.2998</ele>
        <time>2023-08-07T14:39:37+02:00</time>
      </trkpt>
      <trkpt lat="44.11497" lon="6.60598">
        <ele>1632.5</ele>
        <time>2023-08-07T14:39:41+02:00</time>
      </trkpt>
      <trkpt lat="44.11496" lon="6.60599">
        <ele>1632.5</ele>
        <time>2023-08-07T14:39:42+02:00</time>
      </trkpt>
      <trkpt lat="44.11489" lon="6.60604">
        <ele>1629.2002</ele>
        <time>2023-08-07T14:39:46+02:00</time>
      </trkpt>
      <trkpt lat="44.11487" lon="6.60605">
        <ele>1632</ele>
        <time>2023-08-07T14:39:47+02:00</time>
      </trkpt>
      <trkpt lat="44.1148" lon="6.60611">
        <ele>1630.4004</ele>
        <time>2023-08-07T14:39:51+02:00</time>
      </trkpt>
      <trkpt lat="44.11479" lon="6.60612">
        <ele>1630.4004</ele>
        <time>2023-08-07T14:39:52+02:00</time>
      </trkpt>
      <trkpt lat="44.11473" lon="6.60619">
        <ele>1631.7002</ele>
        <time>2023-08-07T14:39:56+02:00</time>
      </trkpt>
      <trkpt lat="44.11471" lon="6.6062">
        <ele>1631.7002</ele>
        <time>2023-08-07T14:39:57+02:00</time>
      </trkpt>
      <trkpt lat="44.11464" lon="6.60627">
        <ele>1631.4004</ele>
        <time>2023-08-07T14:40:01+02:00</time>
      </trkpt>
      <trkpt lat="44.11462" lon="6.60629">
        <ele>1631.4004</ele>
        <time>2023-08-07T14:40:02+02:00</time>
      </trkpt>
      <trkpt lat="44.11456" lon="6.60634">
        <ele>1632.6006</ele>
        <time>2023-08-07T14:40:06+02:00</time>
      </trkpt>
      <trkpt lat="44.11455" lon="6.60635">
        <ele>1632.6006</ele>
        <time>2023-08-07T14:40:07+02:00</time>
      </trkpt>
      <trkpt lat="44.11448" lon="6.60641">
        <ele>1633.7002</ele>
        <time>2023-08-07T14:40:11+02:00</time>
      </trkpt>
      <trkpt lat="44.11447" lon="6.60642">
        <ele>1633.7002</ele>
        <time>2023-08-07T14:40:12+02:00</time>
      </trkpt>
      <trkpt lat="44.11442" lon="6.6065">
        <ele>1634.7002</ele>
        <time>2023-08-07T14:40:16+02:00</time>
      </trkpt>
      <trkpt lat="44.11441" lon="6.60652">
        <ele>1634.7002</ele>
        <time>2023-08-07T14:40:17+02:00</time>
      </trkpt>
      <trkpt lat="44.11436" lon="6.60658">
        <ele>1635.5</ele>
        <time>2023-08-07T14:40:21+02:00</time>
      </trkpt>
      <trkpt lat="44.11435" lon="6.60661">
        <ele>1635.5</ele>
        <time>2023-08-07T14:40:22+02:00</time>
      </trkpt>
      <trkpt lat="44.1143" lon="6.60669">
        <ele>1636.1006</ele>
        <time>2023-08-07T14:40:26+02:00</time>
      </trkpt>
      <trkpt lat="44.1143" lon="6.60671">
        <ele>1636.1006</ele>
        <time>2023-08-07T14:40:27+02:00</time>
      </trkpt>
      <trkpt lat="44.11429" lon="6.60681">
        <ele>1638.7002</ele>
        <time>2023-08-07T14:40:31+02:00</time>
      </trkpt>
      <trkpt lat="44.11429" lon="6.60684">
        <ele>1641</ele>
        <time>2023-08-07T14:40:32+02:00</time>
      </trkpt>
      <trkpt lat="44.11429" lon="6.60694">
        <ele>1643.2998</ele>
        <time>2023-08-07T14:40:36+02:00</time>
      </trkpt>
      <trkpt lat="44.11429" lon="6.60697">
        <ele>1643.2998</ele>
        <time>2023-08-07T14:40:37+02:00</time>
      </trkpt>
      <trkpt lat="44.11431" lon="6.60707">
        <ele>1645.5</ele>
        <time>2023-08-07T14:40:41+02:00</time>
      </trkpt>
      <trkpt lat="44.11431" lon="6.6071">
        <ele>1647.6006</ele>
        <time>2023-08-07T14:40:42+02:00</time>
      </trkpt>
      <trkpt lat="44.11432" lon="6.60722">
        <ele>1649.7002</ele>
        <time>2023-08-07T14:40:46+02:00</time>
      </trkpt>
      <trkpt lat="44.11432" lon="6.60725">
        <ele>1651.7002</ele>
        <time>2023-08-07T14:40:47+02:00</time>
      </trkpt>
      <trkpt lat="44.11432" lon="6.60735">
        <ele>1653.7998</ele>
        <time>2023-08-07T14:40:51+02:00</time>
      </trkpt>
      <trkpt lat="44.11432" lon="6.60738">
        <ele>1653.7998</ele>
        <time>2023-08-07T14:40:52+02:00</time>
      </trkpt>
      <trkpt lat="44.11432" lon="6.60749">
        <ele>1655.7002</ele>
        <time>2023-08-07T14:40:56+02:00</time>
      </trkpt>
      <trkpt lat="44.11432" lon="6.60752">
        <ele>1657.7002</ele>
        <time>2023-08-07T14:40:57+02:00</time>
      </trkpt>
      <trkpt lat="44.1143" lon="6.60763">
        <ele>1659.5</ele>
        <time>2023-08-07T14:41:01+02:00</time>
      </trkpt>
      <trkpt lat="44.1143" lon="6.60765">
        <ele>1659.5</ele>
        <time>2023-08-07T14:41:02+02:00</time>
      </trkpt>
      <trkpt lat="44.11429" lon="6.60777">
        <ele>1663.1006</ele>
        <time>2023-08-07T14:41:06+02:00</time>
      </trkpt>
      <trkpt lat="44.11428" lon="6.6078">
        <ele>1663.1006</ele>
        <time>2023-08-07T14:41:07+02:00</time>
      </trkpt>
      <trkpt lat="44.11426" lon="6.60791">
        <ele>1661.9004</ele>
        <time>2023-08-07T14:41:11+02:00</time>
      </trkpt>
      <trkpt lat="44.11426" lon="6.60793">
        <ele>1661.9004</ele>
        <time>2023-08-07T14:41:12+02:00</time>
      </trkpt>
      <trkpt lat="44.11424" lon="6.60803">
        <ele>1665</ele>
        <time>2023-08-07T14:41:16+02:00</time>
      </trkpt>
      <trkpt lat="44.11423" lon="6.60806">
        <ele>1665</ele>
        <time>2023-08-07T14:41:17+02:00</time>
      </trkpt>
      <trkpt lat="44.11421" lon="6.60818">
        <ele>1663.9004</ele>
        <time>2023-08-07T14:41:21+02:00</time>
      </trkpt>
      <trkpt lat="44.1142" lon="6.60821">
        <ele>1665.5</ele>
        <time>2023-08-07T14:41:22+02:00</time>
      </trkpt>
      <trkpt lat="44.11418" lon="6.60832">
        <ele>1667.1006</ele>
        <time>2023-08-07T14:41:26+02:00</time>
      </trkpt>
      <trkpt lat="44.11418" lon="6.60835">
        <ele>1667.1006</ele>
        <time>2023-08-07T14:41:27+02:00</time>
      </trkpt>
      <trkpt lat="44.11416" lon="6.60845">
        <ele>1668.7002</ele>
        <time>2023-08-07T14:41:31+02:00</time>
      </trkpt>
      <trkpt lat="44.11415" lon="6.60847">
        <ele>1670.4004</ele>
        <time>2023-08-07T14:41:32+02:00</time>
      </trkpt>
      <trkpt lat="44.11413" lon="6.60856">
        <ele>1669.4004</ele>
        <time>2023-08-07T14:41:36+02:00</time>
      </trkpt>
      <trkpt lat="44.11413" lon="6.60858">
        <ele>1669.4004</ele>
        <time>2023-08-07T14:41:37+02:00</time>
      </trkpt>
      <trkpt lat="44.1141" lon="6.60871">
        <ele>1672.9004</ele>
        <time>2023-08-07T14:41:41+02:00</time>
      </trkpt>
      <trkpt lat="44.1141" lon="6.60874">
        <ele>1672.9004</ele>
        <time>2023-08-07T14:41:42+02:00</time>
      </trkpt>
      <trkpt lat="44.11406" lon="6.60886">
        <ele>1671.9004</ele>
        <time>2023-08-07T14:41:46+02:00</time>
      </trkpt>
      <trkpt lat="44.11405" lon="6.60888">
        <ele>1673.7998</ele>
        <time>2023-08-07T14:41:47+02:00</time>
      </trkpt>
      <trkpt lat="44.11399" lon="6.60894">
        <ele>1671</ele>
        <time>2023-08-07T14:41:51+02:00</time>
      </trkpt>
      <trkpt lat="44.11398" lon="6.60895">
        <ele>1671</ele>
        <time>2023-08-07T14:41:52+02:00</time>
      </trkpt>
      <trkpt lat="44.1139" lon="6.60898">
        <ele>1667.4004</ele>
        <time>2023-08-07T14:41:56+02:00</time>
      </trkpt>
      <trkpt lat="44.11388" lon="6.60899">
        <ele>1667.4004</ele>
        <time>2023-08-07T14:41:57+02:00</time>
      </trkpt>
      <trkpt lat="44.11384" lon="6.60899">
        <ele>1664.7002</ele>
        <time>2023-08-07T14:42:01+02:00</time>
      </trkpt>
      <trkpt lat="44.11384" lon="6.60899">
        <ele>1664.7002</ele>
        <time>2023-08-07T14:42:02+02:00</time>
      </trkpt>
      <trkpt lat="44.11384" lon="6.60899">
        <ele>1664.7002</ele>
        <time>2023-08-07T14:42:06+02:00</time>
      </trkpt>
      <trkpt lat="44.11384" lon="6.60899">
        <ele>1664.7002</ele>
        <time>2023-08-07T14:42:07+02:00</time>
      </trkpt>
      <trkpt lat="44.11384" lon="6.60899">
        <ele>1664.7002</ele>
        <time>2023-08-07T14:42:11+02:00</time>
      </trkpt>
      <trkpt lat="44.11384" lon="6.60899">
        <ele>1664.7002</ele>
        <time>2023-08-07T14:42:12+02:00</time>
      </trkpt>
      <trkpt lat="44.11384" lon="6.60899">
        <ele>1664.7002</ele>
        <time>2023-08-07T14:42:16+02:00</time>
      </trkpt>
      <trkpt lat="44.11384" lon="6.60899">
        <ele>1664.7002</ele>
        <time>2023-08-07T14:42:17+02:00</time>
      </trkpt>
      <trkpt lat="44.11384" lon="6.60899">
        <ele>1664.7002</ele>
        <time>2023-08-07T14:42:21+02:00</time>
      </trkpt>
      <trkpt lat="44.11384" lon="6.60899">
        <ele>1664.7002</ele>
        <time>2023-08-07T14:42:22+02:00</time>
      </trkpt>
      <trkpt lat="44.11384" lon="6.60899">
        <ele>1664.7002</ele>
        <time>2023-08-07T14:42:26+02:00</time>
      </trkpt>
      <trkpt lat="44.11384" lon="6.60899">
        <ele>1664.7002</ele>
        <time>2023-08-07T14:42:27+02:00</time>
      </trkpt>
      <trkpt lat="44.11384" lon="6.60899">
        <ele>1664.7002</ele>
        <time>2023-08-07T14:42:31+02:00</time>
      </trkpt>
      <trkpt lat="44.11384" lon="6.60899">
        <ele>1664.7002</ele>
        <time>2023-08-07T14:42:32+02:00</time>
      </trkpt>
      <trkpt lat="44.11384" lon="6.60899">
        <ele>1664.7002</ele>
        <time>2023-08-07T14:42:36+02:00</time>
      </trkpt>
      <trkpt lat="44.11384" lon="6.60899">
        <ele>1664.7002</ele>
        <time>2023-08-07T14:42:37+02:00</time>
      </trkpt>
      <trkpt lat="44.11384" lon="6.60899">
        <ele>1664.7002</ele>
        <time>2023-08-07T14:42:41+02:00</time>
      </trkpt>
      <trkpt lat="44.11384" lon="6.60899">
        <ele>1664.7002</ele>
        <time>2023-08-07T14:42:42+02:00</time>
      </trkpt>
      <trkpt lat="44.11384" lon="6.60899">
        <ele>1664.7002</ele>
        <time>2023-08-07T14:42:46+02:00</time>
      </trkpt>
      <trkpt lat="44.11384" lon="6.60899">
        <ele>1664.7002</ele>
        <time>2023-08-07T14:42:47+02:00</time>
      </trkpt>
      <trkpt lat="44.11384" lon="6.60899">
        <ele>1664.7002</ele>
        <time>2023-08-07T14:42:51+02:00</time>
      </trkpt>
      <trkpt lat="44.11381" lon="6.609">
        <ele>1664.7002</ele>
        <time>2023-08-07T14:42:52+02:00</time>
      </trkpt>
      <trkpt lat="44.11372" lon="6.60904">
        <ele>1659.5</ele>
        <time>2023-08-07T14:42:56+02:00</time>
      </trkpt>
      <trkpt lat="44.1137" lon="6.60905">
        <ele>1659.5</ele>
        <time>2023-08-07T14:42:57+02:00</time>
      </trkpt>
      <trkpt lat="44.11362" lon="6.6091">
        <ele>1659</ele>
        <time>2023-08-07T14:43:01+02:00</time>
      </trkpt>
      <trkpt lat="44.1136" lon="6.60912">
        <ele>1656.5</ele>
        <time>2023-08-07T14:43:02+02:00</time>
      </trkpt>
      <trkpt lat="44.11352" lon="6.60917">
        <ele>1656</ele>
        <time>2023-08-07T14:43:06+02:00</time>
      </trkpt>
      <trkpt lat="44.1135" lon="6.60919">
        <ele>1656</ele>
        <time>2023-08-07T14:43:07+02:00</time>
      </trkpt>
      <trkpt lat="44.11344" lon="6.60927">
        <ele>1655.7002</ele>
        <time>2023-08-07T14:43:11+02:00</time>
      </trkpt>
      <trkpt lat="44.11343" lon="6.60929">
        <ele>1655.7002</ele>
        <time>2023-08-07T14:43:12+02:00</time>
      </trkpt>
      <trkpt lat="44.11338" lon="6.60937">
        <ele>1655.4004</ele>
        <time>2023-08-07T14:43:16+02:00</time>
      </trkpt>
      <trkpt lat="44.11337" lon="6.60939">
        <ele>1657.6006</ele>
        <time>2023-08-07T14:43:17+02:00</time>
      </trkpt>
      <trkpt lat="44.11334" lon="6.60946">
        <ele>1655.2002</ele>
        <time>2023-08-07T14:43:21+02:00</time>
      </trkpt>
      <trkpt lat="44.11333" lon="6.60948">
        <ele>1657.2998</ele>
        <time>2023-08-07T14:43:22+02:00</time>
      </trkpt>
      <trkpt lat="44.11331" lon="6.60958">
        <ele>1659.4004</ele>
        <time>2023-08-07T14:43:26+02:00</time>
      </trkpt>
      <trkpt lat="44.1133" lon="6.6096">
        <ele>1659.4004</ele>
        <time>2023-08-07T14:43:27+02:00</time>
      </trkpt>
      <trkpt lat="44.11329" lon="6.60972">
        <ele>1661.6006</ele>
        <time>2023-08-07T14:43:31+02:00</time>
      </trkpt>
      <trkpt lat="44.11329" lon="6.60975">
        <ele>1663.7998</ele>
        <time>2023-08-07T14:43:32+02:00</time>
      </trkpt>
      <trkpt lat="44.11329" lon="6.60983">
        <ele>1666</ele>
        <time>2023-08-07T14:43:36+02:00</time>
      </trkpt>
      <trkpt lat="44.11329" lon="6.60986">
        <ele>1666</ele>
        <time>2023-08-07T14:43:37+02:00</time>
      </trkpt>
      <trkpt lat="44.11329" lon="6.60997">
        <ele>1668.2998</ele>
        <time>2023-08-07T14:43:41+02:00</time>
      </trkpt>
      <trkpt lat="44.11329" lon="6.61">
        <ele>1670.7002</ele>
        <time>2023-08-07T14:43:42+02:00</time>
      </trkpt>
      <trkpt lat="44.11329" lon="6.61012">
        <ele>1673</ele>
        <time>2023-08-07T14:43:46+02:00</time>
      </trkpt>
      <trkpt lat="44.11329" lon="6.61015">
        <ele>1673</ele>
        <time>2023-08-07T14:43:47+02:00</time>
      </trkpt>
      <trkpt lat="44.11328" lon="6.61026">
        <ele>1675.2002</ele>
        <time>2023-08-07T14:43:51+02:00</time>
      </trkpt>
      <trkpt lat="44.11328" lon="6.61029">
        <ele>1675.2002</ele>
        <time>2023-08-07T14:43:52+02:00</time>
      </trkpt>
      <trkpt lat="44.11326" lon="6.61039">
        <ele>1677.7002</ele>
        <time>2023-08-07T14:43:56+02:00</time>
      </trkpt>
      <trkpt lat="44.11325" lon="6.61041">
        <ele>1677.7002</ele>
        <time>2023-08-07T14:43:57+02:00</time>
      </trkpt>
      <trkpt lat="44.1132" lon="6.61051">
        <ele>1677.6006</ele>
        <time>2023-08-07T14:44:01+02:00</time>
      </trkpt>
      <trkpt lat="44.11319" lon="6.61053">
        <ele>1680.2002</ele>
        <time>2023-08-07T14:44:02+02:00</time>
      </trkpt>
      <trkpt lat="44.11313" lon="6.61062">
        <ele>1680.2998</ele>
        <time>2023-08-07T14:44:06+02:00</time>
      </trkpt>
      <trkpt lat="44.11312" lon="6.61065">
        <ele>1680.2998</ele>
        <time>2023-08-07T14:44:07+02:00</time>
      </trkpt>
      <trkpt lat="44.11312" lon="6.61076">
        <ele>1683.1006</ele>
        <time>2023-08-07T14:44:11+02:00</time>
      </trkpt>
      <trkpt lat="44.11313" lon="6.61079">
        <ele>1686</ele>
        <time>2023-08-07T14:44:12+02:00</time>
      </trkpt>
      <trkpt lat="44.11321" lon="6.61085">
        <ele>1688.2998</ele>
        <time>2023-08-07T14:44:16+02:00</time>
      </trkpt>
      <trkpt lat="44.11323" lon="6.61085">
        <ele>1690.7002</ele>
        <time>2023-08-07T14:44:17+02:00</time>
      </trkpt>
      <trkpt lat="44.11331" lon="6.61083">
        <ele>1693</ele>
        <time>2023-08-07T14:44:21+02:00</time>
      </trkpt>
      <trkpt lat="44.11333" lon="6.61082">
        <ele>1693</ele>
        <time>2023-08-07T14:44:22+02:00</time>
      </trkpt>
      <trkpt lat="44.11338" lon="6.61073">
        <ele>1692.6006</ele>
        <time>2023-08-07T14:44:26+02:00</time>
      </trkpt>
      <trkpt lat="44.11339" lon="6.61071">
        <ele>1692.6006</ele>
        <time>2023-08-07T14:44:27+02:00</time>
      </trkpt>
      <trkpt lat="44.11342" lon="6.6106">
        <ele>1692.2998</ele>
        <time>2023-08-07T14:44:31+02:00</time>
      </trkpt>
      <trkpt lat="44.11343" lon="6.61057">
        <ele>1690</ele>
        <time>2023-08-07T14:44:32+02:00</time>
      </trkpt>
      <trkpt lat="44.11344" lon="6.61045">
        <ele>1687.7002</ele>
        <time>2023-08-07T14:44:36+02:00</time>
      </trkpt>
      <trkpt lat="44.11344" lon="6.61042">
        <ele>1685.5</ele>
        <time>2023-08-07T14:44:37+02:00</time>
      </trkpt>
      <trkpt lat="44.11346" lon="6.6103">
        <ele>1683.2002</ele>
        <time>2023-08-07T14:44:41+02:00</time>
      </trkpt>
      <trkpt lat="44.11347" lon="6.61027">
        <ele>1683.2002</ele>
        <time>2023-08-07T14:44:42+02:00</time>
      </trkpt>
      <trkpt lat="44.11348" lon="6.61015">
        <ele>1681.2998</ele>
        <time>2023-08-07T14:44:46+02:00</time>
      </trkpt>
      <trkpt lat="44.11348" lon="6.61012">
        <ele>1681.2998</ele>
        <time>2023-08-07T14:44:47+02:00</time>
      </trkpt>
      <trkpt lat="44.11349" lon="6.61001">
        <ele>1679</ele>
        <time>2023-08-07T14:44:51+02:00</time>
      </trkpt>
      <trkpt lat="44.1135" lon="6.60998">
        <ele>1676.5</ele>
        <time>2023-08-07T14:44:52+02:00</time>
      </trkpt>
      <trkpt lat="44.11354" lon="6.60988">
        <ele>1676.7998</ele>
        <time>2023-08-07T14:44:56+02:00</time>
      </trkpt>
      <trkpt lat="44.11355" lon="6.60986">
        <ele>1676.7998</ele>
        <time>2023-08-07T14:44:57+02:00</time>
      </trkpt>
      <trkpt lat="44.11362" lon="6.60981">
        <ele>1677</ele>
        <time>2023-08-07T14:45:01+02:00</time>
      </trkpt>
      <trkpt lat="44.11364" lon="6.60979">
        <ele>1677</ele>
        <time>2023-08-07T14:45:02+02:00</time>
      </trkpt>
      <trkpt lat="44.1137" lon="6.60973">
        <ele>1677.2002</ele>
        <time>2023-08-07T14:45:06+02:00</time>
      </trkpt>
      <trkpt lat="44.11371" lon="6.60972">
        <ele>1677.2002</ele>
        <time>2023-08-07T14:45:07+02:00</time>
      </trkpt>
      <trkpt lat="44.11378" lon="6.60968">
        <ele>1680</ele>
        <time>2023-08-07T14:45:11+02:00</time>
      </trkpt>
      <trkpt lat="44.1138" lon="6.60968">
        <ele>1682.7998</ele>
        <time>2023-08-07T14:45:12+02:00</time>
      </trkpt>
      <trkpt lat="44.11388" lon="6.60966">
        <ele>1685.7002</ele>
        <time>2023-08-07T14:45:16+02:00</time>
      </trkpt>
      <trkpt lat="44.1139" lon="6.60965">
        <ele>1685.7002</ele>
        <time>2023-08-07T14:45:17+02:00</time>
      </trkpt>
      <trkpt lat="44.11398" lon="6.60964">
        <ele>1688.9004</ele>
        <time>2023-08-07T14:45:21+02:00</time>
      </trkpt>
      <trkpt lat="44.114" lon="6.60964">
        <ele>1688.9004</ele>
        <time>2023-08-07T14:45:22+02:00</time>
      </trkpt>
      <trkpt lat="44.11408" lon="6.6096">
        <ele>1691.7998</ele>
        <time>2023-08-07T14:45:26+02:00</time>
      </trkpt>
      <trkpt lat="44.11409" lon="6.60959">
        <ele>1694.7002</ele>
        <time>2023-08-07T14:45:27+02:00</time>
      </trkpt>
      <trkpt lat="44.11418" lon="6.60957">
        <ele>1697.6006</ele>
        <time>2023-08-07T14:45:31+02:00</time>
      </trkpt>
      <trkpt lat="44.1142" lon="6.60957">
        <ele>1697.6006</ele>
        <time>2023-08-07T14:45:32+02:00</time>
      </trkpt>
      <trkpt lat="44.11429" lon="6.60956">
        <ele>1700.7002</ele>
        <time>2023-08-07T14:45:36+02:00</time>
      </trkpt>
      <trkpt lat="44.11431" lon="6.60956">
        <ele>1700.7002</ele>
        <time>2023-08-07T14:45:37+02:00</time>
      </trkpt>
      <trkpt lat="44.11438" lon="6.6095">
        <ele>1703.6006</ele>
        <time>2023-08-07T14:45:41+02:00</time>
      </trkpt>
      <trkpt lat="44.1144" lon="6.60948">
        <ele>1706.5</ele>
        <time>2023-08-07T14:45:42+02:00</time>
      </trkpt>
      <trkpt lat="44.11445" lon="6.6094">
        <ele>1704</ele>
        <time>2023-08-07T14:45:46+02:00</time>
      </trkpt>
      <trkpt lat="44.11446" lon="6.60937">
        <ele>1704.2998</ele>
        <time>2023-08-07T14:45:47+02:00</time>
      </trkpt>
      <trkpt lat="44.1145" lon="6.60927">
        <ele>1701.9004</ele>
        <time>2023-08-07T14:45:51+02:00</time>
      </trkpt>
      <trkpt lat="44.11452" lon="6.60924">
        <ele>1701.9004</ele>
        <time>2023-08-07T14:45:52+02:00</time>
      </trkpt>
      <trkpt lat="44.11457" lon="6.60914">
        <ele>1702.5</ele>
        <time>2023-08-07T14:45:56+02:00</time>
      </trkpt>
      <trkpt lat="44.11458" lon="6.60912">
        <ele>1703.2002</ele>
        <time>2023-08-07T14:45:57+02:00</time>
      </trkpt>
      <trkpt lat="44.11463" lon="6.60901">
        <ele>1701.1006</ele>
        <time>2023-08-07T14:46:01+02:00</time>
      </trkpt>
      <trkpt lat="44.11464" lon="6.60899">
        <ele>1701.1006</ele>
        <time>2023-08-07T14:46:02+02:00</time>
      </trkpt>
      <trkpt lat="44.11468" lon="6.60889">
        <ele>1702</ele>
        <time>2023-08-07T14:46:06+02:00</time>
      </trkpt>
      <trkpt lat="44.11469" lon="6.60886">
        <ele>1700</ele>
        <time>2023-08-07T14:46:07+02:00</time>
      </trkpt>
      <trkpt lat="44.11472" lon="6.60876">
        <ele>1701</ele>
        <time>2023-08-07T14:46:11+02:00</time>
      </trkpt>
      <trkpt lat="44.11474" lon="6.60874">
        <ele>1701</ele>
        <time>2023-08-07T14:46:12+02:00</time>
      </trkpt>
      <trkpt lat="44.11478" lon="6.60864">
        <ele>1701.9004</ele>
        <time>2023-08-07T14:46:16+02:00</time>
      </trkpt>
      <trkpt lat="44.11478" lon="6.60862">
        <ele>1700</ele>
        <time>2023-08-07T14:46:17+02:00</time>
      </trkpt>
      <trkpt lat="44.11482" lon="6.60852">
        <ele>1698</ele>
        <time>2023-08-07T14:46:21+02:00</time>
      </trkpt>
      <trkpt lat="44.11484" lon="6.6085">
        <ele>1700.9004</ele>
        <time>2023-08-07T14:46:22+02:00</time>
      </trkpt>
      <trkpt lat="44.11488" lon="6.6084">
        <ele>1699</ele>
        <time>2023-08-07T14:46:26+02:00</time>
      </trkpt>
      <trkpt lat="44.11489" lon="6.60838">
        <ele>1701.9004</ele>
        <time>2023-08-07T14:46:27+02:00</time>
      </trkpt>
      <trkpt lat="44.11494" lon="6.60829">
        <ele>1699.9004</ele>
        <time>2023-08-07T14:46:31+02:00</time>
      </trkpt>
      <trkpt lat="44.11495" lon="6.60826">
        <ele>1698</ele>
        <time>2023-08-07T14:46:32+02:00</time>
      </trkpt>
      <trkpt lat="44.115" lon="6.60818">
        <ele>1698.7998</ele>
        <time>2023-08-07T14:46:36+02:00</time>
      </trkpt>
      <trkpt lat="44.11501" lon="6.60815">
        <ele>1698.7998</ele>
        <time>2023-08-07T14:46:37+02:00</time>
      </trkpt>
      <trkpt lat="44.11505" lon="6.60806">
        <ele>1699.5</ele>
        <time>2023-08-07T14:46:41+02:00</time>
      </trkpt>
      <trkpt lat="44.11506" lon="6.60804">
        <ele>1699.5</ele>
        <time>2023-08-07T14:46:42+02:00</time>
      </trkpt>
      <trkpt lat="44.11511" lon="6.60794">
        <ele>1700.1006</ele>
        <time>2023-08-07T14:46:46+02:00</time>
      </trkpt>
      <trkpt lat="44.11512" lon="6.60792">
        <ele>1698.1006</ele>
        <time>2023-08-07T14:46:47+02:00</time>
      </trkpt>
      <trkpt lat="44.11517" lon="6.60784">
        <ele>1698.4004</ele>
        <time>2023-08-07T14:46:51+02:00</time>
      </trkpt>
      <trkpt lat="44.11519" lon="6.60782">
        <ele>1698.4004</ele>
        <time>2023-08-07T14:46:52+02:00</time>
      </trkpt>
      <trkpt lat="44.11524" lon="6.60774">
        <ele>1698.2998</ele>
        <time>2023-08-07T14:46:56+02:00</time>
      </trkpt>
      <trkpt lat="44.11526" lon="6.60773">
        <ele>1698.2998</ele>
        <time>2023-08-07T14:46:57+02:00</time>
      </trkpt>
      <trkpt lat="44.11532" lon="6.60765">
        <ele>1698</ele>
        <time>2023-08-07T14:47:01+02:00</time>
      </trkpt>
      <trkpt lat="44.11534" lon="6.60763">
        <ele>1700.1006</ele>
        <time>2023-08-07T14:47:02+02:00</time>
      </trkpt>
      <trkpt lat="44.1154" lon="6.60756">
        <ele>1699.7002</ele>
        <time>2023-08-07T14:47:06+02:00</time>
      </trkpt>
      <trkpt lat="44.11541" lon="6.60754">
        <ele>1699.7002</ele>
        <time>2023-08-07T14:47:07+02:00</time>
      </trkpt>
      <trkpt lat="44.11547" lon="6.60748">
        <ele>1699.2998</ele>
        <time>2023-08-07T14:47:11+02:00</time>
      </trkpt>
      <trkpt lat="44.11549" lon="6.60747">
        <ele>1699.2998</ele>
        <time>2023-08-07T14:47:12+02:00</time>
      </trkpt>
      <trkpt lat="44.11555" lon="6.60742">
        <ele>1701.5</ele>
        <time>2023-08-07T14:47:16+02:00</time>
      </trkpt>
      <trkpt lat="44.11557" lon="6.60741">
        <ele>1701.1006</ele>
        <time>2023-08-07T14:47:17+02:00</time>
      </trkpt>
      <trkpt lat="44.11566" lon="6.60736">
        <ele>1703.4004</ele>
        <time>2023-08-07T14:47:21+02:00</time>
      </trkpt>
      <trkpt lat="44.11568" lon="6.60735">
        <ele>1703.4004</ele>
        <time>2023-08-07T14:47:22+02:00</time>
      </trkpt>
      <trkpt lat="44.11576" lon="6.60731">
        <ele>1705.1006</ele>
        <time>2023-08-07T14:47:26+02:00</time>
      </trkpt>
      <trkpt lat="44.11578" lon="6.6073">
        <ele>1705.1006</ele>
        <time>2023-08-07T14:47:27+02:00</time>
      </trkpt>
      <trkpt lat="44.11585" lon="6.60726">
        <ele>1707.5</ele>
        <time>2023-08-07T14:47:31+02:00</time>
      </trkpt>
      <trkpt lat="44.11587" lon="6.60725">
        <ele>1707.5</ele>
        <time>2023-08-07T14:47:32+02:00</time>
      </trkpt>
      <trkpt lat="44.11595" lon="6.60723">
        <ele>1709.2998</ele>
        <time>2023-08-07T14:47:36+02:00</time>
      </trkpt>
      <trkpt lat="44.11597" lon="6.60722">
        <ele>1709.2998</ele>
        <time>2023-08-07T14:47:37+02:00</time>
      </trkpt>
      <trkpt lat="44.11604" lon="6.60719">
        <ele>1711.7998</ele>
        <time>2023-08-07T14:47:41+02:00</time>
      </trkpt>
      <trkpt lat="44.11607" lon="6.60718">
        <ele>1714.2002</ele>
        <time>2023-08-07T14:47:42+02:00</time>
      </trkpt>
      <trkpt lat="44.11614" lon="6.60714">
        <ele>1713.6006</ele>
        <time>2023-08-07T14:47:46+02:00</time>
      </trkpt>
      <trkpt lat="44.11616" lon="6.60713">
        <ele>1713.6006</ele>
        <time>2023-08-07T14:47:47+02:00</time>
      </trkpt>
      <trkpt lat="44.11624" lon="6.60712">
        <ele>1716</ele>
        <time>2023-08-07T14:47:51+02:00</time>
      </trkpt>
      <trkpt lat="44.11626" lon="6.60711">
        <ele>1718.4004</ele>
        <time>2023-08-07T14:47:52+02:00</time>
      </trkpt>
      <trkpt lat="44.11634" lon="6.60708">
        <ele>1720.7998</ele>
        <time>2023-08-07T14:47:56+02:00</time>
      </trkpt>
      <trkpt lat="44.11636" lon="6.60707">
        <ele>1717.7998</ele>
        <time>2023-08-07T14:47:57+02:00</time>
      </trkpt>
      <trkpt lat="44.11643" lon="6.60704">
        <ele>1722.9004</ele>
        <time>2023-08-07T14:48:01+02:00</time>
      </trkpt>
      <trkpt lat="44.11645" lon="6.60703">
        <ele>1722.9004</ele>
        <time>2023-08-07T14:48:02+02:00</time>
      </trkpt>
      <trkpt lat="44.11654" lon="6.60701">
        <ele>1725.5</ele>
        <time>2023-08-07T14:48:06+02:00</time>
      </trkpt>
      <trkpt lat="44.11655" lon="6.607">
        <ele>1728.2002</ele>
        <time>2023-08-07T14:48:07+02:00</time>
      </trkpt>
      <trkpt lat="44.11663" lon="6.60697">
        <ele>1727.9004</ele>
        <time>2023-08-07T14:48:11+02:00</time>
      </trkpt>
      <trkpt lat="44.11665" lon="6.60695">
        <ele>1727.9004</ele>
        <time>2023-08-07T14:48:12+02:00</time>
      </trkpt>
      <trkpt lat="44.11672" lon="6.6069">
        <ele>1727.6006</ele>
        <time>2023-08-07T14:48:16+02:00</time>
      </trkpt>
      <trkpt lat="44.11674" lon="6.60688">
        <ele>1730.2002</ele>
        <time>2023-08-07T14:48:17+02:00</time>
      </trkpt>
      <trkpt lat="44.11681" lon="6.60682">
        <ele>1732.7002</ele>
        <time>2023-08-07T14:48:21+02:00</time>
      </trkpt>
      <trkpt lat="44.11683" lon="6.60681">
        <ele>1729.7998</ele>
        <time>2023-08-07T14:48:22+02:00</time>
      </trkpt>
      <trkpt lat="44.1169" lon="6.60675">
        <ele>1732.4004</ele>
        <time>2023-08-07T14:48:26+02:00</time>
      </trkpt>
      <trkpt lat="44.11691" lon="6.60673">
        <ele>1732.4004</ele>
        <time>2023-08-07T14:48:27+02:00</time>
      </trkpt>
      <trkpt lat="44.11698" lon="6.60668">
        <ele>1732.1006</ele>
        <time>2023-08-07T14:48:31+02:00</time>
      </trkpt>
      <trkpt lat="44.117" lon="6.60666">
        <ele>1734.6006</ele>
        <time>2023-08-07T14:48:32+02:00</time>
      </trkpt>
      <trkpt lat="44.11708" lon="6.60662">
        <ele>1734.2002</ele>
        <time>2023-08-07T14:48:36+02:00</time>
      </trkpt>
      <trkpt lat="44.1171" lon="6.60661">
        <ele>1734.2002</ele>
        <time>2023-08-07T14:48:37+02:00</time>
      </trkpt>
      <trkpt lat="44.11718" lon="6.60657">
        <ele>1739.2998</ele>
        <time>2023-08-07T14:48:41+02:00</time>
      </trkpt>
      <trkpt lat="44.1172" lon="6.60656">
        <ele>1739.2998</ele>
        <time>2023-08-07T14:48:42+02:00</time>
      </trkpt>
      <trkpt lat="44.11727" lon="6.60652">
        <ele>1738.7998</ele>
        <time>2023-08-07T14:48:46+02:00</time>
      </trkpt>
      <trkpt lat="44.11729" lon="6.60651">
        <ele>1738.7998</ele>
        <time>2023-08-07T14:48:47+02:00</time>
      </trkpt>
      <trkpt lat="44.11736" lon="6.60646">
        <ele>1740.7002</ele>
        <time>2023-08-07T14:48:51+02:00</time>
      </trkpt>
      <trkpt lat="44.11738" lon="6.60645">
        <ele>1740.7002</ele>
        <time>2023-08-07T14:48:52+02:00</time>
      </trkpt>
      <trkpt lat="44.11745" lon="6.60638">
        <ele>1739.9004</ele>
        <time>2023-08-07T14:48:56+02:00</time>
      </trkpt>
      <trkpt lat="44.11747" lon="6.60637">
        <ele>1739.9004</ele>
        <time>2023-08-07T14:48:57+02:00</time>
      </trkpt>
      <trkpt lat="44.11753" lon="6.6063">
        <ele>1739.1006</ele>
        <time>2023-08-07T14:49:01+02:00</time>
      </trkpt>
      <trkpt lat="44.11755" lon="6.60628">
        <ele>1741.2998</ele>
        <time>2023-08-07T14:49:02+02:00</time>
      </trkpt>
      <trkpt lat="44.11761" lon="6.60622">
        <ele>1743.4004</ele>
        <time>2023-08-07T14:49:06+02:00</time>
      </trkpt>
      <trkpt lat="44.11763" lon="6.6062">
        <ele>1740.5</ele>
        <time>2023-08-07T14:49:07+02:00</time>
      </trkpt>
      <trkpt lat="44.11769" lon="6.60614">
        <ele>1742.6006</ele>
        <time>2023-08-07T14:49:11+02:00</time>
      </trkpt>
      <trkpt lat="44.11771" lon="6.60612">
        <ele>1739.6006</ele>
        <time>2023-08-07T14:49:12+02:00</time>
      </trkpt>
      <trkpt lat="44.11778" lon="6.60607">
        <ele>1741.7002</ele>
        <time>2023-08-07T14:49:16+02:00</time>
      </trkpt>
      <trkpt lat="44.1178" lon="6.60605">
        <ele>1743.7002</ele>
        <time>2023-08-07T14:49:17+02:00</time>
      </trkpt>
      <trkpt lat="44.11786" lon="6.60599">
        <ele>1742.5</ele>
        <time>2023-08-07T14:49:21+02:00</time>
      </trkpt>
      <trkpt lat="44.11788" lon="6.60597">
        <ele>1742.5</ele>
        <time>2023-08-07T14:49:22+02:00</time>
      </trkpt>
      <trkpt lat="44.11796" lon="6.60592">
        <ele>1741.2002</ele>
        <time>2023-08-07T14:49:26+02:00</time>
      </trkpt>
      <trkpt lat="44.11797" lon="6.60591">
        <ele>1743</ele>
        <time>2023-08-07T14:49:27+02:00</time>
      </trkpt>
      <trkpt lat="44.11805" lon="6.60585">
        <ele>1741.6006</ele>
        <time>2023-08-07T14:49:31+02:00</time>
      </trkpt>
      <trkpt lat="44.11807" lon="6.60584">
        <ele>1741.6006</ele>
        <time>2023-08-07T14:49:32+02:00</time>
      </trkpt>
      <trkpt lat="44.11814" lon="6.6058">
        <ele>1743.2998</ele>
        <time>2023-08-07T14:49:36+02:00</time>
      </trkpt>
      <trkpt lat="44.11816" lon="6.60579">
        <ele>1745</ele>
        <time>2023-08-07T14:49:37+02:00</time>
      </trkpt>
      <trkpt lat="44.11823" lon="6.60575">
        <ele>1743.7002</ele>
        <time>2023-08-07T14:49:41+02:00</time>
      </trkpt>
      <trkpt lat="44.11825" lon="6.60574">
        <ele>1743.7002</ele>
        <time>2023-08-07T14:49:42+02:00</time>
      </trkpt>
      <trkpt lat="44.11833" lon="6.6057">
        <ele>1745.4004</ele>
        <time>2023-08-07T14:49:46+02:00</time>
      </trkpt>
      <trkpt lat="44.11835" lon="6.6057">
        <ele>1744.2998</ele>
        <time>2023-08-07T14:49:47+02:00</time>
      </trkpt>
      <trkpt lat="44.11842" lon="6.60565">
        <ele>1746.1006</ele>
        <time>2023-08-07T14:49:51+02:00</time>
      </trkpt>
      <trkpt lat="44.11844" lon="6.60563">
        <ele>1746.1006</ele>
        <time>2023-08-07T14:49:52+02:00</time>
      </trkpt>
      <trkpt lat="44.11852" lon="6.60559">
        <ele>1745.4004</ele>
        <time>2023-08-07T14:49:56+02:00</time>
      </trkpt>
      <trkpt lat="44.11854" lon="6.60558">
        <ele>1747.2998</ele>
        <time>2023-08-07T14:49:57+02:00</time>
      </trkpt>
      <trkpt lat="44.1186" lon="6.60553">
        <ele>1746.9004</ele>
        <time>2023-08-07T14:50:01+02:00</time>
      </trkpt>
      <trkpt lat="44.11862" lon="6.60551">
        <ele>1746.9004</ele>
        <time>2023-08-07T14:50:02+02:00</time>
      </trkpt>
      <trkpt lat="44.11869" lon="6.60545">
        <ele>1748.7002</ele>
        <time>2023-08-07T14:50:06+02:00</time>
      </trkpt>
      <trkpt lat="44.1187" lon="6.60543">
        <ele>1746.6006</ele>
        <time>2023-08-07T14:50:07+02:00</time>
      </trkpt>
      <trkpt lat="44.11877" lon="6.60535">
        <ele>1746.5</ele>
        <time>2023-08-07T14:50:11+02:00</time>
      </trkpt>
      <trkpt lat="44.11878" lon="6.60533">
        <ele>1748.2998</ele>
        <time>2023-08-07T14:50:12+02:00</time>
      </trkpt>
      <trkpt lat="44.11884" lon="6.60525">
        <ele>1748.6006</ele>
        <time>2023-08-07T14:50:16+02:00</time>
      </trkpt>
      <trkpt lat="44.11886" lon="6.60522">
        <ele>1748.6006</ele>
        <time>2023-08-07T14:50:17+02:00</time>
      </trkpt>
      <trkpt lat="44.11891" lon="6.60514">
        <ele>1749</ele>
        <time>2023-08-07T14:50:21+02:00</time>
      </trkpt>
      <trkpt lat="44.11893" lon="6.60511">
        <ele>1749</ele>
        <time>2023-08-07T14:50:22+02:00</time>
      </trkpt>
      <trkpt lat="44.11898" lon="6.60503">
        <ele>1749.2998</ele>
        <time>2023-08-07T14:50:26+02:00</time>
      </trkpt>
      <trkpt lat="44.11899" lon="6.605">
        <ele>1748</ele>
        <time>2023-08-07T14:50:27+02:00</time>
      </trkpt>
      <trkpt lat="44.11905" lon="6.60491">
        <ele>1748.5</ele>
        <time>2023-08-07T14:50:31+02:00</time>
      </trkpt>
      <trkpt lat="44.11906" lon="6.60489">
        <ele>1748.5</ele>
        <time>2023-08-07T14:50:32+02:00</time>
      </trkpt>
      <trkpt lat="44.11911" lon="6.60479">
        <ele>1749</ele>
        <time>2023-08-07T14:50:36+02:00</time>
      </trkpt>
      <trkpt lat="44.11912" lon="6.60477">
        <ele>1749</ele>
        <time>2023-08-07T14:50:37+02:00</time>
      </trkpt>
      <trkpt lat="44.11917" lon="6.60467">
        <ele>1749.2002</ele>
        <time>2023-08-07T14:50:41+02:00</time>
      </trkpt>
      <trkpt lat="44.11918" lon="6.60465">
        <ele>1748.2002</ele>
        <time>2023-08-07T14:50:42+02:00</time>
      </trkpt>
      <trkpt lat="44.11923" lon="6.60455">
        <ele>1748.2998</ele>
        <time>2023-08-07T14:50:46+02:00</time>
      </trkpt>
      <trkpt lat="44.11925" lon="6.60453">
        <ele>1748.2998</ele>
        <time>2023-08-07T14:50:47+02:00</time>
      </trkpt>
      <trkpt lat="44.11931" lon="6.60444">
        <ele>1748.5</ele>
        <time>2023-08-07T14:50:51+02:00</time>
      </trkpt>
      <trkpt lat="44.11932" lon="6.60441">
        <ele>1747.7002</ele>
        <time>2023-08-07T14:50:52+02:00</time>
      </trkpt>
      <trkpt lat="44.11937" lon="6.60431">
        <ele>1747.6006</ele>
        <time>2023-08-07T14:50:56+02:00</time>
      </trkpt>
      <trkpt lat="44.11938" lon="6.60429">
        <ele>1747.6006</ele>
        <time>2023-08-07T14:50:57+02:00</time>
      </trkpt>
      <trkpt lat="44.11943" lon="6.6042">
        <ele>1747.1006</ele>
        <time>2023-08-07T14:51:01+02:00</time>
      </trkpt>
      <trkpt lat="44.11945" lon="6.60417">
        <ele>1747.1006</ele>
        <time>2023-08-07T14:51:02+02:00</time>
      </trkpt>
      <trkpt lat="44.11949" lon="6.60408">
        <ele>1746.2998</ele>
        <time>2023-08-07T14:51:06+02:00</time>
      </trkpt>
      <trkpt lat="44.11951" lon="6.60406">
        <ele>1745.5</ele>
        <time>2023-08-07T14:51:07+02:00</time>
      </trkpt>
      <trkpt lat="44.11956" lon="6.60398">
        <ele>1744.6006</ele>
        <time>2023-08-07T14:51:11+02:00</time>
      </trkpt>
      <trkpt lat="44.11958" lon="6.60396">
        <ele>1744</ele>
        <time>2023-08-07T14:51:12+02:00</time>
      </trkpt>
      <trkpt lat="44.11965" lon="6.60391">
        <ele>1743</ele>
        <time>2023-08-07T14:51:16+02:00</time>
      </trkpt>
      <trkpt lat="44.11967" lon="6.60391">
        <ele>1743</ele>
        <time>2023-08-07T14:51:17+02:00</time>
      </trkpt>
      <trkpt lat="44.11973" lon="6.60396">
        <ele>1741.5</ele>
        <time>2023-08-07T14:51:21+02:00</time>
      </trkpt>
      <trkpt lat="44.11974" lon="6.60399">
        <ele>1741.7002</ele>
        <time>2023-08-07T14:51:22+02:00</time>
      </trkpt>
      <trkpt lat="44.11973" lon="6.6041">
        <ele>1741.7998</ele>
        <time>2023-08-07T14:51:26+02:00</time>
      </trkpt>
      <trkpt lat="44.11972" lon="6.60412">
        <ele>1741.7998</ele>
        <time>2023-08-07T14:51:27+02:00</time>
      </trkpt>
      <trkpt lat="44.11965" lon="6.60419">
        <ele>1743.7998</ele>
        <time>2023-08-07T14:51:31+02:00</time>
      </trkpt>
      <trkpt lat="44.11963" lon="6.6042">
        <ele>1745.4004</ele>
        <time>2023-08-07T14:51:32+02:00</time>
      </trkpt>
      <trkpt lat="44.11956" lon="6.60425">
        <ele>1747</ele>
        <time>2023-08-07T14:51:36+02:00</time>
      </trkpt>
      <trkpt lat="44.11954" lon="6.60426">
        <ele>1747</ele>
        <time>2023-08-07T14:51:37+02:00</time>
      </trkpt>
      <trkpt lat="44.11949" lon="6.60433">
        <ele>1747.7002</ele>
        <time>2023-08-07T14:51:41+02:00</time>
      </trkpt>
      <trkpt lat="44.11948" lon="6.60435">
        <ele>1748.2002</ele>
        <time>2023-08-07T14:51:42+02:00</time>
      </trkpt>
      <trkpt lat="44.11943" lon="6.60444">
        <ele>1749.1006</ele>
        <time>2023-08-07T14:51:46+02:00</time>
      </trkpt>
      <trkpt lat="44.11942" lon="6.60446">
        <ele>1749.1006</ele>
        <time>2023-08-07T14:51:47+02:00</time>
      </trkpt>
      <trkpt lat="44.11938" lon="6.60456">
        <ele>1749.6006</ele>
        <time>2023-08-07T14:51:51+02:00</time>
      </trkpt>
      <trkpt lat="44.11937" lon="6.60459">
        <ele>1750.2002</ele>
        <time>2023-08-07T14:51:52+02:00</time>
      </trkpt>
      <trkpt lat="44.11933" lon="6.60469">
        <ele>1750.7998</ele>
        <time>2023-08-07T14:51:56+02:00</time>
      </trkpt>
      <trkpt lat="44.11932" lon="6.60471">
        <ele>1750.7002</ele>
        <time>2023-08-07T14:51:57+02:00</time>
      </trkpt>
      <trkpt lat="44.11928" lon="6.60481">
        <ele>1751.4004</ele>
        <time>2023-08-07T14:52:01+02:00</time>
      </trkpt>
      <trkpt lat="44.11928" lon="6.60483">
        <ele>1751.4004</ele>
        <time>2023-08-07T14:52:02+02:00</time>
      </trkpt>
      <trkpt lat="44.11925" lon="6.60492">
        <ele>1751.7002</ele>
        <time>2023-08-07T14:52:06+02:00</time>
      </trkpt>
      <trkpt lat="44.11924" lon="6.60494">
        <ele>1752.5</ele>
        <time>2023-08-07T14:52:07+02:00</time>
      </trkpt>
      <trkpt lat="44.11922" lon="6.60504">
        <ele>1753.2998</ele>
        <time>2023-08-07T14:52:11+02:00</time>
      </trkpt>
      <trkpt lat="44.11921" lon="6.60506">
        <ele>1753.2998</ele>
        <time>2023-08-07T14:52:12+02:00</time>
      </trkpt>
      <trkpt lat="44.11919" lon="6.60516">
        <ele>1753.6006</ele>
        <time>2023-08-07T14:52:16+02:00</time>
      </trkpt>
      <trkpt lat="44.11919" lon="6.60519">
        <ele>1754.4004</ele>
        <time>2023-08-07T14:52:17+02:00</time>
      </trkpt>
      <trkpt lat="44.11917" lon="6.60529">
        <ele>1755.2998</ele>
        <time>2023-08-07T14:52:21+02:00</time>
      </trkpt>
      <trkpt lat="44.11917" lon="6.60532">
        <ele>1755.2998</ele>
        <time>2023-08-07T14:52:22+02:00</time>
      </trkpt>
      <trkpt lat="44.11915" lon="6.60542">
        <ele>1756.4004</ele>
        <time>2023-08-07T14:52:26+02:00</time>
      </trkpt>
      <trkpt lat="44.11914" lon="6.60545">
        <ele>1757.7002</ele>
        <time>2023-08-07T14:52:27+02:00</time>
      </trkpt>
      <trkpt lat="44.11912" lon="6.60554">
        <ele>1759</ele>
        <time>2023-08-07T14:52:31+02:00</time>
      </trkpt>
      <trkpt lat="44.11911" lon="6.60557">
        <ele>1759</ele>
        <time>2023-08-07T14:52:32+02:00</time>
      </trkpt>
      <trkpt lat="44.1191" lon="6.60566">
        <ele>1760.5</ele>
        <time>2023-08-07T14:52:36+02:00</time>
      </trkpt>
      <trkpt lat="44.11909" lon="6.60569">
        <ele>1760.5</ele>
        <time>2023-08-07T14:52:37+02:00</time>
      </trkpt>
      <trkpt lat="44.11904" lon="6.60576">
        <ele>1761.7998</ele>
        <time>2023-08-07T14:52:41+02:00</time>
      </trkpt>
      <trkpt lat="44.11903" lon="6.60578">
        <ele>1761.7998</ele>
        <time>2023-08-07T14:52:42+02:00</time>
      </trkpt>
      <trkpt lat="44.11898" lon="6.60585">
        <ele>1763.2002</ele>
        <time>2023-08-07T14:52:46+02:00</time>
      </trkpt>
      <trkpt lat="44.11897" lon="6.60587">
        <ele>1763.2002</ele>
        <time>2023-08-07T14:52:47+02:00</time>
      </trkpt>
      <trkpt lat="44.11891" lon="6.60592">
        <ele>1764.5</ele>
        <time>2023-08-07T14:52:51+02:00</time>
      </trkpt>
      <trkpt lat="44.11889" lon="6.60594">
        <ele>1763.5</ele>
        <time>2023-08-07T14:52:52+02:00</time>
      </trkpt>
      <trkpt lat="44.11883" lon="6.606">
        <ele>1764.7998</ele>
        <time>2023-08-07T14:52:56+02:00</time>
      </trkpt>
      <trkpt lat="44.11882" lon="6.60601">
        <ele>1764.7998</ele>
        <time>2023-08-07T14:52:57+02:00</time>
      </trkpt>
      <trkpt lat="44.11876" lon="6.60606">
        <ele>1766.4004</ele>
        <time>2023-08-07T14:53:01+02:00</time>
      </trkpt>
      <trkpt lat="44.11875" lon="6.60608">
        <ele>1766.4004</ele>
        <time>2023-08-07T14:53:02+02:00</time>
      </trkpt>
      <trkpt lat="44.11869" lon="6.60613">
        <ele>1768.1006</ele>
        <time>2023-08-07T14:53:06+02:00</time>
      </trkpt>
      <trkpt lat="44.11867" lon="6.60615">
        <ele>1768.1006</ele>
        <time>2023-08-07T14:53:07+02:00</time>
      </trkpt>
      <trkpt lat="44.11862" lon="6.60621">
        <ele>1766.9004</ele>
        <time>2023-08-07T14:53:11+02:00</time>
      </trkpt>
      <trkpt lat="44.1186" lon="6.60622">
        <ele>1769.7002</ele>
        <time>2023-08-07T14:53:12+02:00</time>
      </trkpt>
      <trkpt lat="44.11855" lon="6.60626">
        <ele>1768.5</ele>
        <time>2023-08-07T14:53:16+02:00</time>
      </trkpt>
      <trkpt lat="44.11853" lon="6.60627">
        <ele>1768.5</ele>
        <time>2023-08-07T14:53:17+02:00</time>
      </trkpt>
      <trkpt lat="44.11847" lon="6.60631">
        <ele>1770.2998</ele>
        <time>2023-08-07T14:53:21+02:00</time>
      </trkpt>
      <trkpt lat="44.11846" lon="6.60633">
        <ele>1768.9004</ele>
        <time>2023-08-07T14:53:22+02:00</time>
      </trkpt>
      <trkpt lat="44.11841" lon="6.60639">
        <ele>1772.1006</ele>
        <time>2023-08-07T14:53:26+02:00</time>
      </trkpt>
      <trkpt lat="44.11839" lon="6.60641">
        <ele>1770.7002</ele>
        <time>2023-08-07T14:53:27+02:00</time>
      </trkpt>
      <trkpt lat="44.11834" lon="6.60649">
        <ele>1773.9004</ele>
        <time>2023-08-07T14:53:31+02:00</time>
      </trkpt>
      <trkpt lat="44.11833" lon="6.6065">
        <ele>1772.5</ele>
        <time>2023-08-07T14:53:32+02:00</time>
      </trkpt>
      <trkpt lat="44.11828" lon="6.60658">
        <ele>1775.7002</ele>
        <time>2023-08-07T14:53:36+02:00</time>
      </trkpt>
      <trkpt lat="44.11827" lon="6.6066">
        <ele>1774.2002</ele>
        <time>2023-08-07T14:53:37+02:00</time>
      </trkpt>
      <trkpt lat="44.11822" lon="6.60669">
        <ele>1777.2998</ele>
        <time>2023-08-07T14:53:41+02:00</time>
      </trkpt>
      <trkpt lat="44.11821" lon="6.60671">
        <ele>1775.6006</ele>
        <time>2023-08-07T14:53:42+02:00</time>
      </trkpt>
      <trkpt lat="44.11818" lon="6.6068">
        <ele>1778.6006</ele>
        <time>2023-08-07T14:53:46+02:00</time>
      </trkpt>
      <trkpt lat="44.11817" lon="6.60683">
        <ele>1781.6006</ele>
        <time>2023-08-07T14:53:47+02:00</time>
      </trkpt>
      <trkpt lat="44.11812" lon="6.60693">
        <ele>1782.9004</ele>
        <time>2023-08-07T14:53:51+02:00</time>
      </trkpt>
      <trkpt lat="44.11811" lon="6.60695">
        <ele>1782.9004</ele>
        <time>2023-08-07T14:53:52+02:00</time>
      </trkpt>
      <trkpt lat="44.11806" lon="6.60704">
        <ele>1784.2002</ele>
        <time>2023-08-07T14:53:56+02:00</time>
      </trkpt>
      <trkpt lat="44.11805" lon="6.60706">
        <ele>1784.2002</ele>
        <time>2023-08-07T14:53:57+02:00</time>
      </trkpt>
      <trkpt lat="44.11802" lon="6.60716">
        <ele>1788.5</ele>
        <time>2023-08-07T14:54:01+02:00</time>
      </trkpt>
      <trkpt lat="44.118" lon="6.60719">
        <ele>1788.5</ele>
        <time>2023-08-07T14:54:02+02:00</time>
      </trkpt>
      <trkpt lat="44.11795" lon="6.60727">
        <ele>1789.6006</ele>
        <time>2023-08-07T14:54:06+02:00</time>
      </trkpt>
      <trkpt lat="44.11794" lon="6.60728">
        <ele>1789.6006</ele>
        <time>2023-08-07T14:54:07+02:00</time>
      </trkpt>
      <trkpt lat="44.11789" lon="6.60736">
        <ele>1790.4004</ele>
        <time>2023-08-07T14:54:11+02:00</time>
      </trkpt>
      <trkpt lat="44.11787" lon="6.60738">
        <ele>1790.4004</ele>
        <time>2023-08-07T14:54:12+02:00</time>
      </trkpt>
      <trkpt lat="44.11782" lon="6.60745">
        <ele>1791.2998</ele>
        <time>2023-08-07T14:54:16+02:00</time>
      </trkpt>
      <trkpt lat="44.1178" lon="6.60747">
        <ele>1791.2998</ele>
        <time>2023-08-07T14:54:17+02:00</time>
      </trkpt>
      <trkpt lat="44.11774" lon="6.60754">
        <ele>1792.2002</ele>
        <time>2023-08-07T14:54:21+02:00</time>
      </trkpt>
      <trkpt lat="44.11773" lon="6.60757">
        <ele>1792.2002</ele>
        <time>2023-08-07T14:54:22+02:00</time>
      </trkpt>
      <trkpt lat="44.11768" lon="6.60766">
        <ele>1793.1006</ele>
        <time>2023-08-07T14:54:26+02:00</time>
      </trkpt>
      <trkpt lat="44.11767" lon="6.60768">
        <ele>1796.1006</ele>
        <time>2023-08-07T14:54:27+02:00</time>
      </trkpt>
      <trkpt lat="44.11762" lon="6.60777">
        <ele>1797.1006</ele>
        <time>2023-08-07T14:54:31+02:00</time>
      </trkpt>
      <trkpt lat="44.1176" lon="6.6078">
        <ele>1797.1006</ele>
        <time>2023-08-07T14:54:32+02:00</time>
      </trkpt>
      <trkpt lat="44.11756" lon="6.60788">
        <ele>1798.2002</ele>
        <time>2023-08-07T14:54:36+02:00</time>
      </trkpt>
      <trkpt lat="44.11754" lon="6.6079">
        <ele>1798.2002</ele>
        <time>2023-08-07T14:54:37+02:00</time>
      </trkpt>
      <trkpt lat="44.11749" lon="6.60799">
        <ele>1799.4004</ele>
        <time>2023-08-07T14:54:41+02:00</time>
      </trkpt>
      <trkpt lat="44.11748" lon="6.60801">
        <ele>1797.5</ele>
        <time>2023-08-07T14:54:42+02:00</time>
      </trkpt>
      <trkpt lat="44.11743" lon="6.60809">
        <ele>1800.6006</ele>
        <time>2023-08-07T14:54:46+02:00</time>
      </trkpt>
      <trkpt lat="44.11742" lon="6.60811">
        <ele>1801.9004</ele>
        <time>2023-08-07T14:54:47+02:00</time>
      </trkpt>
      <trkpt lat="44.11737" lon="6.60819">
        <ele>1804.9004</ele>
        <time>2023-08-07T14:54:51+02:00</time>
      </trkpt>
      <trkpt lat="44.11735" lon="6.60822">
        <ele>1803.1006</ele>
        <time>2023-08-07T14:54:52+02:00</time>
      </trkpt>
      <trkpt lat="44.1173" lon="6.60832">
        <ele>1806</ele>
        <time>2023-08-07T14:54:56+02:00</time>
      </trkpt>
      <trkpt lat="44.11729" lon="6.60834">
        <ele>1804.2002</ele>
        <time>2023-08-07T14:54:57+02:00</time>
      </trkpt>
      <trkpt lat="44.11724" lon="6.60843">
        <ele>1806.9004</ele>
        <time>2023-08-07T14:55:01+02:00</time>
      </trkpt>
      <trkpt lat="44.11723" lon="6.60845">
        <ele>1805</ele>
        <time>2023-08-07T14:55:02+02:00</time>
      </trkpt>
      <trkpt lat="44.11717" lon="6.60852">
        <ele>1807.7998</ele>
        <time>2023-08-07T14:55:06+02:00</time>
      </trkpt>
      <trkpt lat="44.11716" lon="6.60854">
        <ele>1808.6006</ele>
        <time>2023-08-07T14:55:07+02:00</time>
      </trkpt>
      <trkpt lat="44.1171" lon="6.60861">
        <ele>1806.6006</ele>
        <time>2023-08-07T14:55:11+02:00</time>
      </trkpt>
      <trkpt lat="44.11709" lon="6.60863">
        <ele>1809.4004</ele>
        <time>2023-08-07T14:55:12+02:00</time>
      </trkpt>
      <trkpt lat="44.11703" lon="6.60871">
        <ele>1810.2002</ele>
        <time>2023-08-07T14:55:16+02:00</time>
      </trkpt>
      <trkpt lat="44.11703" lon="6.60873">
        <ele>1810.2002</ele>
        <time>2023-08-07T14:55:17+02:00</time>
      </trkpt>
      <trkpt lat="44.11698" lon="6.60882">
        <ele>1811.1006</ele>
        <time>2023-08-07T14:55:21+02:00</time>
      </trkpt>
      <trkpt lat="44.11697" lon="6.60884">
        <ele>1811.1006</ele>
        <time>2023-08-07T14:55:22+02:00</time>
      </trkpt>
      <trkpt lat="44.11693" lon="6.60894">
        <ele>1813.7998</ele>
        <time>2023-08-07T14:55:26+02:00</time>
      </trkpt>
      <trkpt lat="44.11692" lon="6.60896">
        <ele>1811.7998</ele>
        <time>2023-08-07T14:55:27+02:00</time>
      </trkpt>
      <trkpt lat="44.11688" lon="6.60905">
        <ele>1816.9004</ele>
        <time>2023-08-07T14:55:31+02:00</time>
      </trkpt>
      <trkpt lat="44.11687" lon="6.60907">
        <ele>1816.9004</ele>
        <time>2023-08-07T14:55:32+02:00</time>
      </trkpt>
      <trkpt lat="44.11682" lon="6.60915">
        <ele>1817</ele>
        <time>2023-08-07T14:55:36+02:00</time>
      </trkpt>
      <trkpt lat="44.1168" lon="6.60917">
        <ele>1817</ele>
        <time>2023-08-07T14:55:37+02:00</time>
      </trkpt>
      <trkpt lat="44.11676" lon="6.60925">
        <ele>1816.9004</ele>
        <time>2023-08-07T14:55:41+02:00</time>
      </trkpt>
      <trkpt lat="44.11675" lon="6.60928">
        <ele>1816.9004</ele>
        <time>2023-08-07T14:55:42+02:00</time>
      </trkpt>
      <trkpt lat="44.1167" lon="6.60936">
        <ele>1816.7002</ele>
        <time>2023-08-07T14:55:46+02:00</time>
      </trkpt>
      <trkpt lat="44.11669" lon="6.60938">
        <ele>1816.7002</ele>
        <time>2023-08-07T14:55:47+02:00</time>
      </trkpt>
      <trkpt lat="44.11665" lon="6.60945">
        <ele>1816.6006</ele>
        <time>2023-08-07T14:55:51+02:00</time>
      </trkpt>
      <trkpt lat="44.11664" lon="6.60947">
        <ele>1816.6006</ele>
        <time>2023-08-07T14:55:52+02:00</time>
      </trkpt>
      <trkpt lat="44.11659" lon="6.60955">
        <ele>1816.5</ele>
        <time>2023-08-07T14:55:56+02:00</time>
      </trkpt>
      <trkpt lat="44.11658" lon="6.60957">
        <ele>1818.6006</ele>
        <time>2023-08-07T14:55:57+02:00</time>
      </trkpt>
      <trkpt lat="44.11654" lon="6.60967">
        <ele>1818.2998</ele>
        <time>2023-08-07T14:56:01+02:00</time>
      </trkpt>
      <trkpt lat="44.11653" lon="6.60969">
        <ele>1818.2998</ele>
        <time>2023-08-07T14:56:02+02:00</time>
      </trkpt>
      <trkpt lat="44.11649" lon="6.6098">
        <ele>1817.9004</ele>
        <time>2023-08-07T14:56:06+02:00</time>
      </trkpt>
      <trkpt lat="44.11648" lon="6.60982">
        <ele>1817.9004</ele>
        <time>2023-08-07T14:56:07+02:00</time>
      </trkpt>
      <trkpt lat="44.11644" lon="6.60993">
        <ele>1821.7998</ele>
        <time>2023-08-07T14:56:11+02:00</time>
      </trkpt>
      <trkpt lat="44.11643" lon="6.60996">
        <ele>1819.2002</ele>
        <time>2023-08-07T14:56:12+02:00</time>
      </trkpt>
      <trkpt lat="44.11639" lon="6.61005">
        <ele>1821.2002</ele>
        <time>2023-08-07T14:56:16+02:00</time>
      </trkpt>
      <trkpt lat="44.11638" lon="6.61007">
        <ele>1821.2002</ele>
        <time>2023-08-07T14:56:17+02:00</time>
      </trkpt>
      <trkpt lat="44.11634" lon="6.61017">
        <ele>1822.4004</ele>
        <time>2023-08-07T14:56:21+02:00</time>
      </trkpt>
      <trkpt lat="44.11633" lon="6.61019">
        <ele>1822.4004</ele>
        <time>2023-08-07T14:56:22+02:00</time>
      </trkpt>
      <trkpt lat="44.11629" lon="6.6103">
        <ele>1821.7002</ele>
        <time>2023-08-07T14:56:26+02:00</time>
      </trkpt>
      <trkpt lat="44.11628" lon="6.61033">
        <ele>1821.7002</ele>
        <time>2023-08-07T14:56:27+02:00</time>
      </trkpt>
      <trkpt lat="44.11625" lon="6.61043">
        <ele>1825.5</ele>
        <time>2023-08-07T14:56:31+02:00</time>
      </trkpt>
      <trkpt lat="44.11624" lon="6.61046">
        <ele>1822.9004</ele>
        <time>2023-08-07T14:56:32+02:00</time>
      </trkpt>
      <trkpt lat="44.11621" lon="6.61055">
        <ele>1824.9004</ele>
        <time>2023-08-07T14:56:36+02:00</time>
      </trkpt>
      <trkpt lat="44.1162" lon="6.61058">
        <ele>1824.9004</ele>
        <time>2023-08-07T14:56:37+02:00</time>
      </trkpt>
      <trkpt lat="44.11617" lon="6.61068">
        <ele>1826.7998</ele>
        <time>2023-08-07T14:56:41+02:00</time>
      </trkpt>
      <trkpt lat="44.11616" lon="6.61071">
        <ele>1826.7998</ele>
        <time>2023-08-07T14:56:42+02:00</time>
      </trkpt>
      <trkpt lat="44.11613" lon="6.61082">
        <ele>1828.9004</ele>
        <time>2023-08-07T14:56:46+02:00</time>
      </trkpt>
      <trkpt lat="44.11612" lon="6.61085">
        <ele>1826.6006</ele>
        <time>2023-08-07T14:56:47+02:00</time>
      </trkpt>
      <trkpt lat="44.11608" lon="6.61095">
        <ele>1830.7002</ele>
        <time>2023-08-07T14:56:51+02:00</time>
      </trkpt>
      <trkpt lat="44.11607" lon="6.61098">
        <ele>1830.7002</ele>
        <time>2023-08-07T14:56:52+02:00</time>
      </trkpt>
      <trkpt lat="44.11602" lon="6.61108">
        <ele>1830.4004</ele>
        <time>2023-08-07T14:56:56+02:00</time>
      </trkpt>
      <trkpt lat="44.11601" lon="6.6111">
        <ele>1830.4004</ele>
        <time>2023-08-07T14:56:57+02:00</time>
      </trkpt>
      <trkpt lat="44.11597" lon="6.6112">
        <ele>1832.2998</ele>
        <time>2023-08-07T14:57:01+02:00</time>
      </trkpt>
      <trkpt lat="44.11596" lon="6.61123">
        <ele>1832.2998</ele>
        <time>2023-08-07T14:57:02+02:00</time>
      </trkpt>
      <trkpt lat="44.11591" lon="6.61132">
        <ele>1832.2998</ele>
        <time>2023-08-07T14:57:06+02:00</time>
      </trkpt>
      <trkpt lat="44.1159" lon="6.61135">
        <ele>1832.2998</ele>
        <time>2023-08-07T14:57:07+02:00</time>
      </trkpt>
      <trkpt lat="44.11587" lon="6.61144">
        <ele>1832.2998</ele>
        <time>2023-08-07T14:57:11+02:00</time>
      </trkpt>
      <trkpt lat="44.11586" lon="6.61147">
        <ele>1834.4004</ele>
        <time>2023-08-07T14:57:12+02:00</time>
      </trkpt>
      <trkpt lat="44.11583" lon="6.61157">
        <ele>1836.6006</ele>
        <time>2023-08-07T14:57:16+02:00</time>
      </trkpt>
      <trkpt lat="44.11582" lon="6.6116">
        <ele>1836.6006</ele>
        <time>2023-08-07T14:57:17+02:00</time>
      </trkpt>
      <trkpt lat="44.11579" lon="6.6117">
        <ele>1836.6006</ele>
        <time>2023-08-07T14:57:21+02:00</time>
      </trkpt>
      <trkpt lat="44.11578" lon="6.61173">
        <ele>1838.7998</ele>
        <time>2023-08-07T14:57:22+02:00</time>
      </trkpt>
      <trkpt lat="44.11575" lon="6.61183">
        <ele>1839.4004</ele>
        <time>2023-08-07T14:57:26+02:00</time>
      </trkpt>
      <trkpt lat="44.11574" lon="6.61186">
        <ele>1839.4004</ele>
        <time>2023-08-07T14:57:27+02:00</time>
      </trkpt>
      <trkpt lat="44.1157" lon="6.61196">
        <ele>1842.2002</ele>
        <time>2023-08-07T14:57:31+02:00</time>
      </trkpt>
      <trkpt lat="44.1157" lon="6.61199">
        <ele>1845.2998</ele>
        <time>2023-08-07T14:57:32+02:00</time>
      </trkpt>
      <trkpt lat="44.11565" lon="6.61208">
        <ele>1846.5</ele>
        <time>2023-08-07T14:57:36+02:00</time>
      </trkpt>
      <trkpt lat="44.11564" lon="6.6121">
        <ele>1846.5</ele>
        <time>2023-08-07T14:57:37+02:00</time>
      </trkpt>
      <trkpt lat="44.11558" lon="6.61218">
        <ele>1847.7998</ele>
        <time>2023-08-07T14:57:41+02:00</time>
      </trkpt>
      <trkpt lat="44.11556" lon="6.61219">
        <ele>1845.7002</ele>
        <time>2023-08-07T14:57:42+02:00</time>
      </trkpt>
      <trkpt lat="44.11548" lon="6.6122">
        <ele>1843.7002</ele>
        <time>2023-08-07T14:57:46+02:00</time>
      </trkpt>
      <trkpt lat="44.11546" lon="6.6122">
        <ele>1843.7002</ele>
        <time>2023-08-07T14:57:47+02:00</time>
      </trkpt>
      <trkpt lat="44.11538" lon="6.61221">
        <ele>1840</ele>
        <time>2023-08-07T14:57:51+02:00</time>
      </trkpt>
      <trkpt lat="44.11536" lon="6.61222">
        <ele>1840</ele>
        <time>2023-08-07T14:57:52+02:00</time>
      </trkpt>
      <trkpt lat="44.11526" lon="6.61224">
        <ele>1839.7002</ele>
        <time>2023-08-07T14:57:56+02:00</time>
      </trkpt>
      <trkpt lat="44.11524" lon="6.61224">
        <ele>1839.7002</ele>
        <time>2023-08-07T14:57:57+02:00</time>
      </trkpt>
      <trkpt lat="44.11516" lon="6.61228">
        <ele>1838.2002</ele>
        <time>2023-08-07T14:58:01+02:00</time>
      </trkpt>
      <trkpt lat="44.11514" lon="6.6123">
        <ele>1838.2002</ele>
        <time>2023-08-07T14:58:02+02:00</time>
      </trkpt>
      <trkpt lat="44.11508" lon="6.61237">
        <ele>1839.9004</ele>
        <time>2023-08-07T14:58:06+02:00</time>
      </trkpt>
      <trkpt lat="44.11506" lon="6.61238">
        <ele>1838.6006</ele>
        <time>2023-08-07T14:58:07+02:00</time>
      </trkpt>
      <trkpt lat="44.115" lon="6.61246">
        <ele>1840.2998</ele>
        <time>2023-08-07T14:58:11+02:00</time>
      </trkpt>
      <trkpt lat="44.11498" lon="6.61247">
        <ele>1840.2998</ele>
        <time>2023-08-07T14:58:12+02:00</time>
      </trkpt>
      <trkpt lat="44.11493" lon="6.61256">
        <ele>1842</ele>
        <time>2023-08-07T14:58:16+02:00</time>
      </trkpt>
      <trkpt lat="44.11492" lon="6.61259">
        <ele>1845.2998</ele>
        <time>2023-08-07T14:58:17+02:00</time>
      </trkpt>
      <trkpt lat="44.1149" lon="6.61269">
        <ele>1848.7998</ele>
        <time>2023-08-07T14:58:21+02:00</time>
      </trkpt>
      <trkpt lat="44.1149" lon="6.61272">
        <ele>1848.7998</ele>
        <time>2023-08-07T14:58:22+02:00</time>
      </trkpt>
      <trkpt lat="44.11488" lon="6.61282">
        <ele>1850.7998</ele>
        <time>2023-08-07T14:58:26+02:00</time>
      </trkpt>
      <trkpt lat="44.11488" lon="6.61284">
        <ele>1854.5</ele>
        <time>2023-08-07T14:58:27+02:00</time>
      </trkpt>
      <trkpt lat="44.11485" lon="6.61294">
        <ele>1858.2998</ele>
        <time>2023-08-07T14:58:31+02:00</time>
      </trkpt>
      <trkpt lat="44.11484" lon="6.61296">
        <ele>1858.2998</ele>
        <time>2023-08-07T14:58:32+02:00</time>
      </trkpt>
      <trkpt lat="44.11481" lon="6.61307">
        <ele>1860.2002</ele>
        <time>2023-08-07T14:58:36+02:00</time>
      </trkpt>
      <trkpt lat="44.1148" lon="6.61309">
        <ele>1864</ele>
        <time>2023-08-07T14:58:37+02:00</time>
      </trkpt>
      <trkpt lat="44.11477" lon="6.6132">
        <ele>1867.9004</ele>
        <time>2023-08-07T14:58:41+02:00</time>
      </trkpt>
      <trkpt lat="44.11476" lon="6.61323">
        <ele>1865.7002</ele>
        <time>2023-08-07T14:58:42+02:00</time>
      </trkpt>
      <trkpt lat="44.11472" lon="6.61333">
        <ele>1869.6006</ele>
        <time>2023-08-07T14:58:46+02:00</time>
      </trkpt>
      <trkpt lat="44.11471" lon="6.61335">
        <ele>1873.2998</ele>
        <time>2023-08-07T14:58:47+02:00</time>
      </trkpt>
      <trkpt lat="44.11467" lon="6.61345">
        <ele>1874.6006</ele>
        <time>2023-08-07T14:58:51+02:00</time>
      </trkpt>
      <trkpt lat="44.11466" lon="6.61348">
        <ele>1874.6006</ele>
        <time>2023-08-07T14:58:52+02:00</time>
      </trkpt>
      <trkpt lat="44.11459" lon="6.61354">
        <ele>1875.7002</ele>
        <time>2023-08-07T14:58:56+02:00</time>
      </trkpt>
      <trkpt lat="44.11457" lon="6.61355">
        <ele>1873.2998</ele>
        <time>2023-08-07T14:58:57+02:00</time>
      </trkpt>
      <trkpt lat="44.11449" lon="6.61357">
        <ele>1870.7998</ele>
        <time>2023-08-07T14:59:01+02:00</time>
      </trkpt>
      <trkpt lat="44.11447" lon="6.61358">
        <ele>1870.7998</ele>
        <time>2023-08-07T14:59:02+02:00</time>
      </trkpt>
      <trkpt lat="44.1144" lon="6.61358">
        <ele>1866</ele>
        <time>2023-08-07T14:59:06+02:00</time>
      </trkpt>
      <trkpt lat="44.11437" lon="6.61357">
        <ele>1866</ele>
        <time>2023-08-07T14:59:07+02:00</time>
      </trkpt>
      <trkpt lat="44.1143" lon="6.61359">
        <ele>1863.7002</ele>
        <time>2023-08-07T14:59:11+02:00</time>
      </trkpt>
      <trkpt lat="44.11428" lon="6.6136">
        <ele>1867.1006</ele>
        <time>2023-08-07T14:59:12+02:00</time>
      </trkpt>
      <trkpt lat="44.1142" lon="6.61365">
        <ele>1862.6006</ele>
        <time>2023-08-07T14:59:16+02:00</time>
      </trkpt>
      <trkpt lat="44.11418" lon="6.61365">
        <ele>1862.6006</ele>
        <time>2023-08-07T14:59:17+02:00</time>
      </trkpt>
      <trkpt lat="44.11411" lon="6.6137">
        <ele>1863.7998</ele>
        <time>2023-08-07T14:59:21+02:00</time>
      </trkpt>
      <trkpt lat="44.1141" lon="6.61372">
        <ele>1863.7998</ele>
        <time>2023-08-07T14:59:22+02:00</time>
      </trkpt>
      <trkpt lat="44.11403" lon="6.61378">
        <ele>1864.7998</ele>
        <time>2023-08-07T14:59:26+02:00</time>
      </trkpt>
      <trkpt lat="44.11402" lon="6.6138">
        <ele>1862.2998</ele>
        <time>2023-08-07T14:59:27+02:00</time>
      </trkpt>
      <trkpt lat="44.11397" lon="6.61388">
        <ele>1865.7998</ele>
        <time>2023-08-07T14:59:31+02:00</time>
      </trkpt>
      <trkpt lat="44.11396" lon="6.6139">
        <ele>1863.1006</ele>
        <time>2023-08-07T14:59:32+02:00</time>
      </trkpt>
      <trkpt lat="44.11391" lon="6.61396">
        <ele>1866.6006</ele>
        <time>2023-08-07T14:59:36+02:00</time>
      </trkpt>
      <trkpt lat="44.1139" lon="6.61398">
        <ele>1863.9004</ele>
        <time>2023-08-07T14:59:37+02:00</time>
      </trkpt>
      <trkpt lat="44.11386" lon="6.61405">
        <ele>1867.5</ele>
        <time>2023-08-07T14:59:41+02:00</time>
      </trkpt>
      <trkpt lat="44.11385" lon="6.61408">
        <ele>1867.5</ele>
        <time>2023-08-07T14:59:42+02:00</time>
      </trkpt>
      <trkpt lat="44.11381" lon="6.61416">
        <ele>1868.5</ele>
        <time>2023-08-07T14:59:46+02:00</time>
      </trkpt>
      <trkpt lat="44.1138" lon="6.61419">
        <ele>1868.5</ele>
        <time>2023-08-07T14:59:47+02:00</time>
      </trkpt>
      <trkpt lat="44.11377" lon="6.61428">
        <ele>1869.5</ele>
        <time>2023-08-07T14:59:51+02:00</time>
      </trkpt>
      <trkpt lat="44.11375" lon="6.6143">
        <ele>1873.4004</ele>
        <time>2023-08-07T14:59:52+02:00</time>
      </trkpt>
      <trkpt lat="44.11371" lon="6.61439">
        <ele>1874.7998</ele>
        <time>2023-08-07T14:59:56+02:00</time>
      </trkpt>
      <trkpt lat="44.1137" lon="6.61441">
        <ele>1874.7998</ele>
        <time>2023-08-07T14:59:57+02:00</time>
      </trkpt>
      <trkpt lat="44.11366" lon="6.6145">
        <ele>1879.1006</ele>
        <time>2023-08-07T15:00:01+02:00</time>
      </trkpt>
      <trkpt lat="44.11365" lon="6.61452">
        <ele>1876.4004</ele>
        <time>2023-08-07T15:00:02+02:00</time>
      </trkpt>
      <trkpt lat="44.11361" lon="6.61461">
        <ele>1880.7002</ele>
        <time>2023-08-07T15:00:06+02:00</time>
      </trkpt>
      <trkpt lat="44.11359" lon="6.61463">
        <ele>1882.4004</ele>
        <time>2023-08-07T15:00:07+02:00</time>
      </trkpt>
      <trkpt lat="44.11352" lon="6.61468">
        <ele>1879.6006</ele>
        <time>2023-08-07T15:00:11+02:00</time>
      </trkpt>
      <trkpt lat="44.1135" lon="6.61469">
        <ele>1879.6006</ele>
        <time>2023-08-07T15:00:12+02:00</time>
      </trkpt>
      <trkpt lat="44.11342" lon="6.61472">
        <ele>1881.2998</ele>
        <time>2023-08-07T15:00:16+02:00</time>
      </trkpt>
      <trkpt lat="44.1134" lon="6.61473">
        <ele>1878.5</ele>
        <time>2023-08-07T15:00:17+02:00</time>
      </trkpt>
      <trkpt lat="44.11332" lon="6.61476">
        <ele>1875.6006</ele>
        <time>2023-08-07T15:00:21+02:00</time>
      </trkpt>
      <trkpt lat="44.1133" lon="6.61476">
        <ele>1875.6006</ele>
        <time>2023-08-07T15:00:22+02:00</time>
      </trkpt>
      <trkpt lat="44.11324" lon="6.61478">
        <ele>1872.7002</ele>
        <time>2023-08-07T15:00:26+02:00</time>
      </trkpt>
      <trkpt lat="44.11322" lon="6.61479">
        <ele>1869.7002</ele>
        <time>2023-08-07T15:00:27+02:00</time>
      </trkpt>
      <trkpt lat="44.11315" lon="6.61484">
        <ele>1871.7998</ele>
        <time>2023-08-07T15:00:31+02:00</time>
      </trkpt>
      <trkpt lat="44.11314" lon="6.61486">
        <ele>1871.7998</ele>
        <time>2023-08-07T15:00:32+02:00</time>
      </trkpt>
      <trkpt lat="44.11307" lon="6.61492">
        <ele>1874.1006</ele>
        <time>2023-08-07T15:00:36+02:00</time>
      </trkpt>
      <trkpt lat="44.11305" lon="6.61493">
        <ele>1874.1006</ele>
        <time>2023-08-07T15:00:37+02:00</time>
      </trkpt>
      <trkpt lat="44.113" lon="6.615">
        <ele>1876.2998</ele>
        <time>2023-08-07T15:00:41+02:00</time>
      </trkpt>
      <trkpt lat="44.11298" lon="6.61502">
        <ele>1876.2998</ele>
        <time>2023-08-07T15:00:42+02:00</time>
      </trkpt>
      <trkpt lat="44.11294" lon="6.6151">
        <ele>1878.2002</ele>
        <time>2023-08-07T15:00:46+02:00</time>
      </trkpt>
      <trkpt lat="44.11293" lon="6.61511">
        <ele>1878.2002</ele>
        <time>2023-08-07T15:00:47+02:00</time>
      </trkpt>
      <trkpt lat="44.11289" lon="6.61519">
        <ele>1879.7998</ele>
        <time>2023-08-07T15:00:51+02:00</time>
      </trkpt>
      <trkpt lat="44.11288" lon="6.61522">
        <ele>1879.7998</ele>
        <time>2023-08-07T15:00:52+02:00</time>
      </trkpt>
      <trkpt lat="44.11283" lon="6.61527">
        <ele>1881.2998</ele>
        <time>2023-08-07T15:00:56+02:00</time>
      </trkpt>
      <trkpt lat="44.11281" lon="6.61528">
        <ele>1881.2998</ele>
        <time>2023-08-07T15:00:57+02:00</time>
      </trkpt>
      <trkpt lat="44.11276" lon="6.61537">
        <ele>1882.4004</ele>
        <time>2023-08-07T15:01:01+02:00</time>
      </trkpt>
      <trkpt lat="44.11274" lon="6.6154">
        <ele>1882.4004</ele>
        <time>2023-08-07T15:01:02+02:00</time>
      </trkpt>
      <trkpt lat="44.11269" lon="6.61547">
        <ele>1883.1006</ele>
        <time>2023-08-07T15:01:06+02:00</time>
      </trkpt>
      <trkpt lat="44.11268" lon="6.61549">
        <ele>1883.1006</ele>
        <time>2023-08-07T15:01:07+02:00</time>
      </trkpt>
      <trkpt lat="44.11263" lon="6.61556">
        <ele>1883.2998</ele>
        <time>2023-08-07T15:01:11+02:00</time>
      </trkpt>
      <trkpt lat="44.11261" lon="6.61558">
        <ele>1887.7998</ele>
        <time>2023-08-07T15:01:12+02:00</time>
      </trkpt>
      <trkpt lat="44.11257" lon="6.61567">
        <ele>1887.5</ele>
        <time>2023-08-07T15:01:16+02:00</time>
      </trkpt>
      <trkpt lat="44.11256" lon="6.61569">
        <ele>1887.5</ele>
        <time>2023-08-07T15:01:17+02:00</time>
      </trkpt>
      <trkpt lat="44.11252" lon="6.61578">
        <ele>1886.7998</ele>
        <time>2023-08-07T15:01:21+02:00</time>
      </trkpt>
      <trkpt lat="44.11251" lon="6.6158">
        <ele>1886.7998</ele>
        <time>2023-08-07T15:01:22+02:00</time>
      </trkpt>
      <trkpt lat="44.11248" lon="6.6159">
        <ele>1885.7998</ele>
        <time>2023-08-07T15:01:26+02:00</time>
      </trkpt>
      <trkpt lat="44.11247" lon="6.61593">
        <ele>1889.5</ele>
        <time>2023-08-07T15:01:27+02:00</time>
      </trkpt>
      <trkpt lat="44.11244" lon="6.61602">
        <ele>1892.9004</ele>
        <time>2023-08-07T15:01:31+02:00</time>
      </trkpt>
      <trkpt lat="44.11243" lon="6.61605">
        <ele>1892.9004</ele>
        <time>2023-08-07T15:01:32+02:00</time>
      </trkpt>
      <trkpt lat="44.11241" lon="6.61614">
        <ele>1891</ele>
        <time>2023-08-07T15:01:36+02:00</time>
      </trkpt>
      <trkpt lat="44.1124" lon="6.61616">
        <ele>1891</ele>
        <time>2023-08-07T15:01:37+02:00</time>
      </trkpt>
      <trkpt lat="44.11238" lon="6.61626">
        <ele>1897</ele>
        <time>2023-08-07T15:01:41+02:00</time>
      </trkpt>
      <trkpt lat="44.11238" lon="6.61629">
        <ele>1897</ele>
        <time>2023-08-07T15:01:42+02:00</time>
      </trkpt>
      <trkpt lat="44.11236" lon="6.61638">
        <ele>1894.9004</ele>
        <time>2023-08-07T15:01:46+02:00</time>
      </trkpt>
      <trkpt lat="44.11236" lon="6.61641">
        <ele>1894.9004</ele>
        <time>2023-08-07T15:01:47+02:00</time>
      </trkpt>
      <trkpt lat="44.11235" lon="6.61651">
        <ele>1897.9004</ele>
        <time>2023-08-07T15:01:51+02:00</time>
      </trkpt>
      <trkpt lat="44.11234" lon="6.61653">
        <ele>1900.9004</ele>
        <time>2023-08-07T15:01:52+02:00</time>
      </trkpt>
      <trkpt lat="44.11232" lon="6.61662">
        <ele>1903.7998</ele>
        <time>2023-08-07T15:01:56+02:00</time>
      </trkpt>
      <trkpt lat="44.11232" lon="6.61664">
        <ele>1903.7998</ele>
        <time>2023-08-07T15:01:57+02:00</time>
      </trkpt>
      <trkpt lat="44.11229" lon="6.61673">
        <ele>1902</ele>
        <time>2023-08-07T15:02:01+02:00</time>
      </trkpt>
      <trkpt lat="44.11228" lon="6.61675">
        <ele>1902</ele>
        <time>2023-08-07T15:02:02+02:00</time>
      </trkpt>
      <trkpt lat="44.11223" lon="6.61683">
        <ele>1900.5</ele>
        <time>2023-08-07T15:02:06+02:00</time>
      </trkpt>
      <trkpt lat="44.11222" lon="6.61685">
        <ele>1900.5</ele>
        <time>2023-08-07T15:02:07+02:00</time>
      </trkpt>
      <trkpt lat="44.11219" lon="6.61695">
        <ele>1906.9004</ele>
        <time>2023-08-07T15:02:11+02:00</time>
      </trkpt>
      <trkpt lat="44.11218" lon="6.61697">
        <ele>1902.5</ele>
        <time>2023-08-07T15:02:12+02:00</time>
      </trkpt>
      <trkpt lat="44.11214" lon="6.61707">
        <ele>1905.7998</ele>
        <time>2023-08-07T15:02:16+02:00</time>
      </trkpt>
      <trkpt lat="44.11213" lon="6.61709">
        <ele>1905.7998</ele>
        <time>2023-08-07T15:02:17+02:00</time>
      </trkpt>
      <trkpt lat="44.11209" lon="6.61719">
        <ele>1904.9004</ele>
        <time>2023-08-07T15:02:21+02:00</time>
      </trkpt>
      <trkpt lat="44.11208" lon="6.61722">
        <ele>1908.4004</ele>
        <time>2023-08-07T15:02:22+02:00</time>
      </trkpt>
      <trkpt lat="44.11205" lon="6.61732">
        <ele>1907.9004</ele>
        <time>2023-08-07T15:02:26+02:00</time>
      </trkpt>
      <trkpt lat="44.11205" lon="6.61735">
        <ele>1907.9004</ele>
        <time>2023-08-07T15:02:27+02:00</time>
      </trkpt>
      <trkpt lat="44.11202" lon="6.61745">
        <ele>1911.2998</ele>
        <time>2023-08-07T15:02:31+02:00</time>
      </trkpt>
      <trkpt lat="44.11202" lon="6.61749">
        <ele>1914.6006</ele>
        <time>2023-08-07T15:02:32+02:00</time>
      </trkpt>
      <trkpt lat="44.112" lon="6.61759">
        <ele>1917.7998</ele>
        <time>2023-08-07T15:02:36+02:00</time>
      </trkpt>
      <trkpt lat="44.112" lon="6.61762">
        <ele>1917.7998</ele>
        <time>2023-08-07T15:02:37+02:00</time>
      </trkpt>
      <trkpt lat="44.11198" lon="6.61771">
        <ele>1917.7998</ele>
        <time>2023-08-07T15:02:41+02:00</time>
      </trkpt>
      <trkpt lat="44.11197" lon="6.61773">
        <ele>1921.1006</ele>
        <time>2023-08-07T15:02:42+02:00</time>
      </trkpt>
      <trkpt lat="44.11192" lon="6.61779">
        <ele>1918</ele>
        <time>2023-08-07T15:02:46+02:00</time>
      </trkpt>
      <trkpt lat="44.11191" lon="6.61781">
        <ele>1921.2998</ele>
        <time>2023-08-07T15:02:47+02:00</time>
      </trkpt>
      <trkpt lat="44.11184" lon="6.61785">
        <ele>1918.2998</ele>
        <time>2023-08-07T15:02:51+02:00</time>
      </trkpt>
      <trkpt lat="44.11183" lon="6.61786">
        <ele>1918.2998</ele>
        <time>2023-08-07T15:02:52+02:00</time>
      </trkpt>
      <trkpt lat="44.11176" lon="6.6179">
        <ele>1918.9004</ele>
        <time>2023-08-07T15:02:56+02:00</time>
      </trkpt>
      <trkpt lat="44.11174" lon="6.61791">
        <ele>1916.1006</ele>
        <time>2023-08-07T15:02:57+02:00</time>
      </trkpt>
      <trkpt lat="44.11167" lon="6.61795">
        <ele>1913.2998</ele>
        <time>2023-08-07T15:03:01+02:00</time>
      </trkpt>
      <trkpt lat="44.11165" lon="6.61796">
        <ele>1913.2998</ele>
        <time>2023-08-07T15:03:02+02:00</time>
      </trkpt>
      <trkpt lat="44.11158" lon="6.618">
        <ele>1914.2002</ele>
        <time>2023-08-07T15:03:06+02:00</time>
      </trkpt>
      <trkpt lat="44.11156" lon="6.61801">
        <ele>1911.4004</ele>
        <time>2023-08-07T15:03:07+02:00</time>
      </trkpt>
      <trkpt lat="44.11149" lon="6.61806">
        <ele>1912.2998</ele>
        <time>2023-08-07T15:03:11+02:00</time>
      </trkpt>
      <trkpt lat="44.11148" lon="6.61808">
        <ele>1912.2998</ele>
        <time>2023-08-07T15:03:12+02:00</time>
      </trkpt>
      <trkpt lat="44.11143" lon="6.61815">
        <ele>1913.1006</ele>
        <time>2023-08-07T15:03:16+02:00</time>
      </trkpt>
      <trkpt lat="44.11141" lon="6.61817">
        <ele>1913.1006</ele>
        <time>2023-08-07T15:03:17+02:00</time>
      </trkpt>
      <trkpt lat="44.11136" lon="6.61824">
        <ele>1913.9004</ele>
        <time>2023-08-07T15:03:21+02:00</time>
      </trkpt>
      <trkpt lat="44.11135" lon="6.61826">
        <ele>1913.9004</ele>
        <time>2023-08-07T15:03:22+02:00</time>
      </trkpt>
      <trkpt lat="44.1113" lon="6.61833">
        <ele>1914.6006</ele>
        <time>2023-08-07T15:03:26+02:00</time>
      </trkpt>
      <trkpt lat="44.11129" lon="6.61834">
        <ele>1914.6006</ele>
        <time>2023-08-07T15:03:27+02:00</time>
      </trkpt>
      <trkpt lat="44.11126" lon="6.61842">
        <ele>1917.9004</ele>
        <time>2023-08-07T15:03:31+02:00</time>
      </trkpt>
      <trkpt lat="44.11126" lon="6.61843">
        <ele>1917.9004</ele>
        <time>2023-08-07T15:03:32+02:00</time>
      </trkpt>
      <trkpt lat="44.11123" lon="6.6185">
        <ele>1918.4004</ele>
        <time>2023-08-07T15:03:36+02:00</time>
      </trkpt>
      <trkpt lat="44.11122" lon="6.61851">
        <ele>1918.4004</ele>
        <time>2023-08-07T15:03:37+02:00</time>
      </trkpt>
      <trkpt lat="44.11118" lon="6.61861">
        <ele>1918.7998</ele>
        <time>2023-08-07T15:03:41+02:00</time>
      </trkpt>
      <trkpt lat="44.11117" lon="6.61863">
        <ele>1918.7998</ele>
        <time>2023-08-07T15:03:42+02:00</time>
      </trkpt>
      <trkpt lat="44.11112" lon="6.61871">
        <ele>1919.2002</ele>
        <time>2023-08-07T15:03:46+02:00</time>
      </trkpt>
      <trkpt lat="44.11111" lon="6.61873">
        <ele>1919.2002</ele>
        <time>2023-08-07T15:03:47+02:00</time>
      </trkpt>
      <trkpt lat="44.11107" lon="6.61881">
        <ele>1919.6006</ele>
        <time>2023-08-07T15:03:51+02:00</time>
      </trkpt>
      <trkpt lat="44.11106" lon="6.61883">
        <ele>1919.6006</ele>
        <time>2023-08-07T15:03:52+02:00</time>
      </trkpt>
      <trkpt lat="44.11102" lon="6.61892">
        <ele>1925.7998</ele>
        <time>2023-08-07T15:03:56+02:00</time>
      </trkpt>
      <trkpt lat="44.111" lon="6.61894">
        <ele>1923.1006</ele>
        <time>2023-08-07T15:03:57+02:00</time>
      </trkpt>
      <trkpt lat="44.11095" lon="6.61902">
        <ele>1926.2998</ele>
        <time>2023-08-07T15:04:01+02:00</time>
      </trkpt>
      <trkpt lat="44.11094" lon="6.61904">
        <ele>1923.6006</ele>
        <time>2023-08-07T15:04:02+02:00</time>
      </trkpt>
      <trkpt lat="44.11089" lon="6.61912">
        <ele>1926.7002</ele>
        <time>2023-08-07T15:04:06+02:00</time>
      </trkpt>
      <trkpt lat="44.11088" lon="6.61914">
        <ele>1924</ele>
        <time>2023-08-07T15:04:07+02:00</time>
      </trkpt>
      <trkpt lat="44.11083" lon="6.61921">
        <ele>1927.2002</ele>
        <time>2023-08-07T15:04:11+02:00</time>
      </trkpt>
      <trkpt lat="44.11082" lon="6.61923">
        <ele>1924.4004</ele>
        <time>2023-08-07T15:04:12+02:00</time>
      </trkpt>
      <trkpt lat="44.11081" lon="6.61924">
        <ele>1924.4004</ele>
        <time>2023-08-07T15:04:16+02:00</time>
      </trkpt>
      <trkpt lat="44.11081" lon="6.61924">
        <ele>1924.4004</ele>
        <time>2023-08-07T15:04:17+02:00</time>
      </trkpt>
      <trkpt lat="44.11081" lon="6.61924">
        <ele>1924.4004</ele>
        <time>2023-08-07T15:04:21+02:00</time>
      </trkpt>
      <trkpt lat="44.11081" lon="6.61924">
        <ele>1924.4004</ele>
        <time>2023-08-07T15:04:22+02:00</time>
      </trkpt>
      <trkpt lat="44.11082" lon="6.61924">
        <ele>1924.4004</ele>
        <time>2023-08-07T15:04:26+02:00</time>
      </trkpt>
      <trkpt lat="44.11082" lon="6.61924">
        <ele>1924.4004</ele>
        <time>2023-08-07T15:04:27+02:00</time>
      </trkpt>
      <trkpt lat="44.11082" lon="6.61924">
        <ele>1924.4004</ele>
        <time>2023-08-07T15:04:31+02:00</time>
      </trkpt>
      <trkpt lat="44.11082" lon="6.61924">
        <ele>1924.4004</ele>
        <time>2023-08-07T15:04:32+02:00</time>
      </trkpt>
      <trkpt lat="44.11082" lon="6.61924">
        <ele>1924.4004</ele>
        <time>2023-08-07T15:04:36+02:00</time>
      </trkpt>
      <trkpt lat="44.11082" lon="6.61924">
        <ele>1924.4004</ele>
        <time>2023-08-07T15:04:37+02:00</time>
      </trkpt>
      <trkpt lat="44.11082" lon="6.61924">
        <ele>1924.4004</ele>
        <time>2023-08-07T15:04:41+02:00</time>
      </trkpt>
      <trkpt lat="44.11082" lon="6.61924">
        <ele>1924.4004</ele>
        <time>2023-08-07T15:04:42+02:00</time>
      </trkpt>
      <trkpt lat="44.11082" lon="6.61924">
        <ele>1924.4004</ele>
        <time>2023-08-07T15:04:46+02:00</time>
      </trkpt>
      <trkpt lat="44.11082" lon="6.61924">
        <ele>1924.4004</ele>
        <time>2023-08-07T15:04:47+02:00</time>
      </trkpt>
      <trkpt lat="44.11082" lon="6.61924">
        <ele>1924.4004</ele>
        <time>2023-08-07T15:04:51+02:00</time>
      </trkpt>
      <trkpt lat="44.11082" lon="6.61924">
        <ele>1924.4004</ele>
        <time>2023-08-07T15:04:52+02:00</time>
      </trkpt>
      <trkpt lat="44.11082" lon="6.61924">
        <ele>1924.4004</ele>
        <time>2023-08-07T15:04:56+02:00</time>
      </trkpt>
      <trkpt lat="44.11081" lon="6.61925">
        <ele>1924.4004</ele>
        <time>2023-08-07T15:04:57+02:00</time>
      </trkpt>
      <trkpt lat="44.11077" lon="6.61932">
        <ele>1927.6006</ele>
        <time>2023-08-07T15:05:01+02:00</time>
      </trkpt>
      <trkpt lat="44.11076" lon="6.61935">
        <ele>1924.7002</ele>
        <time>2023-08-07T15:05:02+02:00</time>
      </trkpt>
      <trkpt lat="44.11071" lon="6.61944">
        <ele>1931.4004</ele>
        <time>2023-08-07T15:05:06+02:00</time>
      </trkpt>
      <trkpt lat="44.1107" lon="6.61947">
        <ele>1931.4004</ele>
        <time>2023-08-07T15:05:07+02:00</time>
      </trkpt>
      <trkpt lat="44.11065" lon="6.61956">
        <ele>1931.9004</ele>
        <time>2023-08-07T15:05:11+02:00</time>
      </trkpt>
      <trkpt lat="44.11064" lon="6.61958">
        <ele>1931.9004</ele>
        <time>2023-08-07T15:05:12+02:00</time>
      </trkpt>
      <trkpt lat="44.1106" lon="6.61965">
        <ele>1932.2002</ele>
        <time>2023-08-07T15:05:16+02:00</time>
      </trkpt>
      <trkpt lat="44.11059" lon="6.61967">
        <ele>1932.2002</ele>
        <time>2023-08-07T15:05:17+02:00</time>
      </trkpt>
      <trkpt lat="44.11054" lon="6.61975">
        <ele>1932.4004</ele>
        <time>2023-08-07T15:05:21+02:00</time>
      </trkpt>
      <trkpt lat="44.11053" lon="6.61977">
        <ele>1932.4004</ele>
        <time>2023-08-07T15:05:22+02:00</time>
      </trkpt>
      <trkpt lat="44.1105" lon="6.61987">
        <ele>1935.7998</ele>
        <time>2023-08-07T15:05:26+02:00</time>
      </trkpt>
      <trkpt lat="44.11049" lon="6.61989">
        <ele>1935.7998</ele>
        <time>2023-08-07T15:05:27+02:00</time>
      </trkpt>
      <trkpt lat="44.11045" lon="6.61996">
        <ele>1938.7998</ele>
        <time>2023-08-07T15:05:31+02:00</time>
      </trkpt>
      <trkpt lat="44.11045" lon="6.61999">
        <ele>1935.7998</ele>
        <time>2023-08-07T15:05:32+02:00</time>
      </trkpt>
      <trkpt lat="44.11041" lon="6.6201">
        <ele>1938.9004</ele>
        <time>2023-08-07T15:05:36+02:00</time>
      </trkpt>
      <trkpt lat="44.11039" lon="6.62013">
        <ele>1942</ele>
        <time>2023-08-07T15:05:37+02:00</time>
      </trkpt>
      <trkpt lat="44.11035" lon="6.62025">
        <ele>1942.2002</ele>
        <time>2023-08-07T15:05:41+02:00</time>
      </trkpt>
      <trkpt lat="44.11034" lon="6.62029">
        <ele>1942.2002</ele>
        <time>2023-08-07T15:05:42+02:00</time>
      </trkpt>
      <trkpt lat="44.11029" lon="6.6204">
        <ele>1945.1006</ele>
        <time>2023-08-07T15:05:46+02:00</time>
      </trkpt>
      <trkpt lat="44.11028" lon="6.62042">
        <ele>1945.1006</ele>
        <time>2023-08-07T15:05:47+02:00</time>
      </trkpt>
      <trkpt lat="44.11024" lon="6.62052">
        <ele>1945.1006</ele>
        <time>2023-08-07T15:05:51+02:00</time>
      </trkpt>
      <trkpt lat="44.11022" lon="6.62055">
        <ele>1945.1006</ele>
        <time>2023-08-07T15:05:52+02:00</time>
      </trkpt>
      <trkpt lat="44.11018" lon="6.62064">
        <ele>1947.2998</ele>
        <time>2023-08-07T15:05:56+02:00</time>
      </trkpt>
      <trkpt lat="44.11017" lon="6.62066">
        <ele>1947.2998</ele>
        <time>2023-08-07T15:05:57+02:00</time>
      </trkpt>
      <trkpt lat="44.11011" lon="6.62075">
        <ele>1947</ele>
        <time>2023-08-07T15:06:01+02:00</time>
      </trkpt>
      <trkpt lat="44.1101" lon="6.62077">
        <ele>1947</ele>
        <time>2023-08-07T15:06:02+02:00</time>
      </trkpt>
      <trkpt lat="44.11003" lon="6.62086">
        <ele>1946.6006</ele>
        <time>2023-08-07T15:06:06+02:00</time>
      </trkpt>
      <trkpt lat="44.11" lon="6.62088">
        <ele>1944.2002</ele>
        <time>2023-08-07T15:06:07+02:00</time>
      </trkpt>
      <trkpt lat="44.10992" lon="6.62095">
        <ele>1943.6006</ele>
        <time>2023-08-07T15:06:11+02:00</time>
      </trkpt>
      <trkpt lat="44.1099" lon="6.62097">
        <ele>1941.1006</ele>
        <time>2023-08-07T15:06:12+02:00</time>
      </trkpt>
      <trkpt lat="44.10983" lon="6.62105">
        <ele>1940.2002</ele>
        <time>2023-08-07T15:06:16+02:00</time>
      </trkpt>
      <trkpt lat="44.10981" lon="6.62108">
        <ele>1941.6006</ele>
        <time>2023-08-07T15:06:17+02:00</time>
      </trkpt>
      <trkpt lat="44.10978" lon="6.6212">
        <ele>1942.9004</ele>
        <time>2023-08-07T15:06:21+02:00</time>
      </trkpt>
      <trkpt lat="44.10978" lon="6.62124">
        <ele>1944.1006</ele>
        <time>2023-08-07T15:06:22+02:00</time>
      </trkpt>
      <trkpt lat="44.10978" lon="6.62136">
        <ele>1945.2002</ele>
        <time>2023-08-07T15:06:26+02:00</time>
      </trkpt>
      <trkpt lat="44.10978" lon="6.62139">
        <ele>1945.2002</ele>
        <time>2023-08-07T15:06:27+02:00</time>
      </trkpt>
      <trkpt lat="44.10979" lon="6.62151">
        <ele>1947</ele>
        <time>2023-08-07T15:06:31+02:00</time>
      </trkpt>
      <trkpt lat="44.10979" lon="6.62155">
        <ele>1947</ele>
        <time>2023-08-07T15:06:32+02:00</time>
      </trkpt>
      <trkpt lat="44.10983" lon="6.62168">
        <ele>1948.4004</ele>
        <time>2023-08-07T15:06:36+02:00</time>
      </trkpt>
      <trkpt lat="44.10984" lon="6.62171">
        <ele>1950.6006</ele>
        <time>2023-08-07T15:06:37+02:00</time>
      </trkpt>
      <trkpt lat="44.10986" lon="6.62185">
        <ele>1951.4004</ele>
        <time>2023-08-07T15:06:41+02:00</time>
      </trkpt>
      <trkpt lat="44.10986" lon="6.62189">
        <ele>1951.4004</ele>
        <time>2023-08-07T15:06:42+02:00</time>
      </trkpt>
      <trkpt lat="44.10986" lon="6.62204">
        <ele>1951.7998</ele>
        <time>2023-08-07T15:06:46+02:00</time>
      </trkpt>
      <trkpt lat="44.10986" lon="6.62208">
        <ele>1951.7998</ele>
        <time>2023-08-07T15:06:47+02:00</time>
      </trkpt>
      <trkpt lat="44.10985" lon="6.62224">
        <ele>1951.9004</ele>
        <time>2023-08-07T15:06:51+02:00</time>
      </trkpt>
      <trkpt lat="44.10985" lon="6.62228">
        <ele>1951.9004</ele>
        <time>2023-08-07T15:06:52+02:00</time>
      </trkpt>
      <trkpt lat="44.10983" lon="6.62244">
        <ele>1949.9004</ele>
        <time>2023-08-07T15:06:56+02:00</time>
      </trkpt>
      <trkpt lat="44.10983" lon="6.62248">
        <ele>1949.9004</ele>
        <time>2023-08-07T15:06:57+02:00</time>
      </trkpt>
      <trkpt lat="44.10981" lon="6.62262">
        <ele>1949.7998</ele>
        <time>2023-08-07T15:07:01+02:00</time>
      </trkpt>
      <trkpt lat="44.10981" lon="6.62266">
        <ele>1949.7998</ele>
        <time>2023-08-07T15:07:02+02:00</time>
      </trkpt>
      <trkpt lat="44.1098" lon="6.62281">
        <ele>1949.6006</ele>
        <time>2023-08-07T15:07:06+02:00</time>
      </trkpt>
      <trkpt lat="44.1098" lon="6.62285">
        <ele>1949.6006</ele>
        <time>2023-08-07T15:07:07+02:00</time>
      </trkpt>
      <trkpt lat="44.10979" lon="6.62299">
        <ele>1949.1006</ele>
        <time>2023-08-07T15:07:11+02:00</time>
      </trkpt>
      <trkpt lat="44.10978" lon="6.62303">
        <ele>1949.1006</ele>
        <time>2023-08-07T15:07:12+02:00</time>
      </trkpt>
      <trkpt lat="44.10978" lon="6.62317">
        <ele>1948.4004</ele>
        <time>2023-08-07T15:07:16+02:00</time>
      </trkpt>
      <trkpt lat="44.10979" lon="6.62321">
        <ele>1947.9004</ele>
        <time>2023-08-07T15:07:17+02:00</time>
      </trkpt>
      <trkpt lat="44.10981" lon="6.62335">
        <ele>1947.4004</ele>
        <time>2023-08-07T15:07:21+02:00</time>
      </trkpt>
      <trkpt lat="44.10982" lon="6.62339">
        <ele>1946.7998</ele>
        <time>2023-08-07T15:07:22+02:00</time>
      </trkpt>
      <trkpt lat="44.10987" lon="6.62351">
        <ele>1947.7998</ele>
        <time>2023-08-07T15:07:26+02:00</time>
      </trkpt>
      <trkpt lat="44.10989" lon="6.62354">
        <ele>1947.7998</ele>
        <time>2023-08-07T15:07:27+02:00</time>
      </trkpt>
      <trkpt lat="44.10997" lon="6.62363">
        <ele>1950</ele>
        <time>2023-08-07T15:07:31+02:00</time>
      </trkpt>
      <trkpt lat="44.11" lon="6.62365">
        <ele>1949</ele>
        <time>2023-08-07T15:07:32+02:00</time>
      </trkpt>
      <trkpt lat="44.11009" lon="6.62373">
        <ele>1950.2002</ele>
        <time>2023-08-07T15:07:36+02:00</time>
      </trkpt>
      <trkpt lat="44.11011" lon="6.62375">
        <ele>1950.2002</ele>
        <time>2023-08-07T15:07:37+02:00</time>
      </trkpt>
      <trkpt lat="44.11021" lon="6.62381">
        <ele>1951</ele>
        <time>2023-08-07T15:07:41+02:00</time>
      </trkpt>
      <trkpt lat="44.11023" lon="6.62383">
        <ele>1951</ele>
        <time>2023-08-07T15:07:42+02:00</time>
      </trkpt>
      <trkpt lat="44.11032" lon="6.6239">
        <ele>1950.6006</ele>
        <time>2023-08-07T15:07:46+02:00</time>
      </trkpt>
      <trkpt lat="44.11035" lon="6.62392">
        <ele>1951.6006</ele>
        <time>2023-08-07T15:07:47+02:00</time>
      </trkpt>
      <trkpt lat="44.11043" lon="6.62399">
        <ele>1951.4004</ele>
        <time>2023-08-07T15:07:51+02:00</time>
      </trkpt>
      <trkpt lat="44.11046" lon="6.62401">
        <ele>1952.5</ele>
        <time>2023-08-07T15:07:52+02:00</time>
      </trkpt>
      <trkpt lat="44.11055" lon="6.62409">
        <ele>1952.2998</ele>
        <time>2023-08-07T15:07:56+02:00</time>
      </trkpt>
      <trkpt lat="44.11057" lon="6.62411">
        <ele>1952.2998</ele>
        <time>2023-08-07T15:07:57+02:00</time>
      </trkpt>
      <trkpt lat="44.11066" lon="6.62418">
        <ele>1953.2998</ele>
        <time>2023-08-07T15:08:01+02:00</time>
      </trkpt>
      <trkpt lat="44.11069" lon="6.6242">
        <ele>1953.2998</ele>
        <time>2023-08-07T15:08:02+02:00</time>
      </trkpt>
      <trkpt lat="44.11078" lon="6.62426">
        <ele>1954</ele>
        <time>2023-08-07T15:08:06+02:00</time>
      </trkpt>
      <trkpt lat="44.1108" lon="6.62427">
        <ele>1954</ele>
        <time>2023-08-07T15:08:07+02:00</time>
      </trkpt>
      <trkpt lat="44.1109" lon="6.62433">
        <ele>1954.5</ele>
        <time>2023-08-07T15:08:11+02:00</time>
      </trkpt>
      <trkpt lat="44.11093" lon="6.62435">
        <ele>1954.5</ele>
        <time>2023-08-07T15:08:12+02:00</time>
      </trkpt>
      <trkpt lat="44.11103" lon="6.62442">
        <ele>1955</ele>
        <time>2023-08-07T15:08:16+02:00</time>
      </trkpt>
      <trkpt lat="44.11105" lon="6.62443">
        <ele>1955</ele>
        <time>2023-08-07T15:08:17+02:00</time>
      </trkpt>
      <trkpt lat="44.11116" lon="6.62448">
        <ele>1957.6006</ele>
        <time>2023-08-07T15:08:21+02:00</time>
      </trkpt>
      <trkpt lat="44.11119" lon="6.62449">
        <ele>1957.6006</ele>
        <time>2023-08-07T15:08:22+02:00</time>
      </trkpt>
      <trkpt lat="44.11128" lon="6.62456">
        <ele>1958.5</ele>
        <time>2023-08-07T15:08:26+02:00</time>
      </trkpt>
      <trkpt lat="44.1113" lon="6.62457">
        <ele>1958.5</ele>
        <time>2023-08-07T15:08:27+02:00</time>
      </trkpt>
      <trkpt lat="44.11139" lon="6.62464">
        <ele>1959.7998</ele>
        <time>2023-08-07T15:08:31+02:00</time>
      </trkpt>
      <trkpt lat="44.11141" lon="6.62465">
        <ele>1959.7998</ele>
        <time>2023-08-07T15:08:32+02:00</time>
      </trkpt>
      <trkpt lat="44.1115" lon="6.62471">
        <ele>1960.1006</ele>
        <time>2023-08-07T15:08:36+02:00</time>
      </trkpt>
      <trkpt lat="44.11152" lon="6.62473">
        <ele>1962.1006</ele>
        <time>2023-08-07T15:08:37+02:00</time>
      </trkpt>
      <trkpt lat="44.1116" lon="6.6248">
        <ele>1962.7998</ele>
        <time>2023-08-07T15:08:41+02:00</time>
      </trkpt>
      <trkpt lat="44.11163" lon="6.62482">
        <ele>1965.1006</ele>
        <time>2023-08-07T15:08:42+02:00</time>
      </trkpt>
      <trkpt lat="44.11171" lon="6.62489">
        <ele>1966.2002</ele>
        <time>2023-08-07T15:08:46+02:00</time>
      </trkpt>
      <trkpt lat="44.11173" lon="6.62491">
        <ele>1966.2002</ele>
        <time>2023-08-07T15:08:47+02:00</time>
      </trkpt>
      <trkpt lat="44.11181" lon="6.62497">
        <ele>1967.7002</ele>
        <time>2023-08-07T15:08:51+02:00</time>
      </trkpt>
      <trkpt lat="44.11183" lon="6.62499">
        <ele>1970.2002</ele>
        <time>2023-08-07T15:08:52+02:00</time>
      </trkpt>
      <trkpt lat="44.11191" lon="6.62505">
        <ele>1972</ele>
        <time>2023-08-07T15:08:56+02:00</time>
      </trkpt>
      <trkpt lat="44.11194" lon="6.62507">
        <ele>1974.7002</ele>
        <time>2023-08-07T15:08:57+02:00</time>
      </trkpt>
      <trkpt lat="44.11203" lon="6.62514">
        <ele>1976.7002</ele>
        <time>2023-08-07T15:09:01+02:00</time>
      </trkpt>
      <trkpt lat="44.11205" lon="6.62517">
        <ele>1976.7002</ele>
        <time>2023-08-07T15:09:02+02:00</time>
      </trkpt>
      <trkpt lat="44.11211" lon="6.62528">
        <ele>1978.4004</ele>
        <time>2023-08-07T15:09:06+02:00</time>
      </trkpt>
      <trkpt lat="44.11212" lon="6.62532">
        <ele>1981.1006</ele>
        <time>2023-08-07T15:09:07+02:00</time>
      </trkpt>
      <trkpt lat="44.11215" lon="6.62546">
        <ele>1980.2998</ele>
        <time>2023-08-07T15:09:11+02:00</time>
      </trkpt>
      <trkpt lat="44.11216" lon="6.62549">
        <ele>1980.2998</ele>
        <time>2023-08-07T15:09:12+02:00</time>
      </trkpt>
      <trkpt lat="44.11218" lon="6.62562">
        <ele>1982.7002</ele>
        <time>2023-08-07T15:09:16+02:00</time>
      </trkpt>
      <trkpt lat="44.11218" lon="6.62566">
        <ele>1982.7002</ele>
        <time>2023-08-07T15:09:17+02:00</time>
      </trkpt>
      <trkpt lat="44.11216" lon="6.62582">
        <ele>1980.2998</ele>
        <time>2023-08-07T15:09:21+02:00</time>
      </trkpt>
      <trkpt lat="44.11214" lon="6.62586">
        <ele>1980.2998</ele>
        <time>2023-08-07T15:09:22+02:00</time>
      </trkpt>
      <trkpt lat="44.11206" lon="6.62595">
        <ele>1978</ele>
        <time>2023-08-07T15:09:26+02:00</time>
      </trkpt>
      <trkpt lat="44.11204" lon="6.62597">
        <ele>1975.9004</ele>
        <time>2023-08-07T15:09:27+02:00</time>
      </trkpt>
      <trkpt lat="44.11194" lon="6.62605">
        <ele>1973.9004</ele>
        <time>2023-08-07T15:09:31+02:00</time>
      </trkpt>
      <trkpt lat="44.11192" lon="6.62608">
        <ele>1971.2998</ele>
        <time>2023-08-07T15:09:32+02:00</time>
      </trkpt>
      <trkpt lat="44.11183" lon="6.62618">
        <ele>1969.4004</ele>
        <time>2023-08-07T15:09:36+02:00</time>
      </trkpt>
      <trkpt lat="44.11181" lon="6.62621">
        <ele>1969.4004</ele>
        <time>2023-08-07T15:09:37+02:00</time>
      </trkpt>
      <trkpt lat="44.11172" lon="6.62631">
        <ele>1965.6006</ele>
        <time>2023-08-07T15:09:41+02:00</time>
      </trkpt>
      <trkpt lat="44.1117" lon="6.62634">
        <ele>1965.6006</ele>
        <time>2023-08-07T15:09:42+02:00</time>
      </trkpt>
      <trkpt lat="44.11162" lon="6.62643">
        <ele>1961.2002</ele>
        <time>2023-08-07T15:09:46+02:00</time>
      </trkpt>
      <trkpt lat="44.1116" lon="6.62645">
        <ele>1961.2002</ele>
        <time>2023-08-07T15:09:47+02:00</time>
      </trkpt>
      <trkpt lat="44.11151" lon="6.62654">
        <ele>1959.4004</ele>
        <time>2023-08-07T15:09:51+02:00</time>
      </trkpt>
      <trkpt lat="44.11149" lon="6.62656">
        <ele>1957.7002</ele>
        <time>2023-08-07T15:09:52+02:00</time>
      </trkpt>
      <trkpt lat="44.11139" lon="6.62666">
        <ele>1956.1006</ele>
        <time>2023-08-07T15:09:56+02:00</time>
      </trkpt>
      <trkpt lat="44.11137" lon="6.62668">
        <ele>1953.7998</ele>
        <time>2023-08-07T15:09:57+02:00</time>
      </trkpt>
      <trkpt lat="44.11129" lon="6.62677">
        <ele>1952.2002</ele>
        <time>2023-08-07T15:10:01+02:00</time>
      </trkpt>
      <trkpt lat="44.11127" lon="6.6268">
        <ele>1952.2002</ele>
        <time>2023-08-07T15:10:02+02:00</time>
      </trkpt>
      <trkpt lat="44.1112" lon="6.62691">
        <ele>1951.4004</ele>
        <time>2023-08-07T15:10:06+02:00</time>
      </trkpt>
      <trkpt lat="44.11118" lon="6.62695">
        <ele>1949.2998</ele>
        <time>2023-08-07T15:10:07+02:00</time>
      </trkpt>
      <trkpt lat="44.11113" lon="6.62709">
        <ele>1950.5</ele>
        <time>2023-08-07T15:10:11+02:00</time>
      </trkpt>
      <trkpt lat="44.11112" lon="6.62713">
        <ele>1948.5</ele>
        <time>2023-08-07T15:10:12+02:00</time>
      </trkpt>
      <trkpt lat="44.11111" lon="6.62727">
        <ele>1949.4004</ele>
        <time>2023-08-07T15:10:16+02:00</time>
      </trkpt>
      <trkpt lat="44.11111" lon="6.62731">
        <ele>1949.4004</ele>
        <time>2023-08-07T15:10:17+02:00</time>
      </trkpt>
      <trkpt lat="44.11116" lon="6.62744">
        <ele>1951.7002</ele>
        <time>2023-08-07T15:10:21+02:00</time>
      </trkpt>
      <trkpt lat="44.11118" lon="6.62747">
        <ele>1951.7002</ele>
        <time>2023-08-07T15:10:22+02:00</time>
      </trkpt>
      <trkpt lat="44.11125" lon="6.62758">
        <ele>1953.6006</ele>
        <time>2023-08-07T15:10:26+02:00</time>
      </trkpt>
      <trkpt lat="44.11127" lon="6.6276">
        <ele>1955.5</ele>
        <time>2023-08-07T15:10:27+02:00</time>
      </trkpt>
      <trkpt lat="44.11136" lon="6.62769">
        <ele>1957.2002</ele>
        <time>2023-08-07T15:10:31+02:00</time>
      </trkpt>
      <trkpt lat="44.11139" lon="6.62771">
        <ele>1959.5</ele>
        <time>2023-08-07T15:10:32+02:00</time>
      </trkpt>
      <trkpt lat="44.1115" lon="6.6278">
        <ele>1961.2998</ele>
        <time>2023-08-07T15:10:36+02:00</time>
      </trkpt>
      <trkpt lat="44.11152" lon="6.62782">
        <ele>1963.7998</ele>
        <time>2023-08-07T15:10:37+02:00</time>
      </trkpt>
      <trkpt lat="44.11162" lon="6.62791">
        <ele>1965.5</ele>
        <time>2023-08-07T15:10:41+02:00</time>
      </trkpt>
      <trkpt lat="44.11164" lon="6.62793">
        <ele>1967.9004</ele>
        <time>2023-08-07T15:10:42+02:00</time>
      </trkpt>
      <trkpt lat="44.11174" lon="6.62802">
        <ele>1968.2998</ele>
        <time>2023-08-07T15:10:46+02:00</time>
      </trkpt>
      <trkpt lat="44.11176" lon="6.62804">
        <ele>1970.7998</ele>
        <time>2023-08-07T15:10:47+02:00</time>
      </trkpt>
      <trkpt lat="44.11186" lon="6.62815">
        <ele>1972.2002</ele>
        <time>2023-08-07T15:10:51+02:00</time>
      </trkpt>
      <trkpt lat="44.11188" lon="6.62818">
        <ele>1974.9004</ele>
        <time>2023-08-07T15:10:52+02:00</time>
      </trkpt>
      <trkpt lat="44.11198" lon="6.62831">
        <ele>1975.4004</ele>
        <time>2023-08-07T15:10:56+02:00</time>
      </trkpt>
      <trkpt lat="44.112" lon="6.62834">
        <ele>1978.2998</ele>
        <time>2023-08-07T15:10:57+02:00</time>
      </trkpt>
      <trkpt lat="44.11207" lon="6.62849">
        <ele>1978.7998</ele>
        <time>2023-08-07T15:11:01+02:00</time>
      </trkpt>
      <trkpt lat="44.11208" lon="6.62853">
        <ele>1977.5</ele>
        <time>2023-08-07T15:11:02+02:00</time>
      </trkpt>
      <trkpt lat="44.1121" lon="6.62871">
        <ele>1974.7002</ele>
        <time>2023-08-07T15:11:06+02:00</time>
      </trkpt>
      <trkpt lat="44.1121" lon="6.62875">
        <ele>1974.7002</ele>
        <time>2023-08-07T15:11:07+02:00</time>
      </trkpt>
      <trkpt lat="44.11211" lon="6.62894">
        <ele>1971.9004</ele>
        <time>2023-08-07T15:11:11+02:00</time>
      </trkpt>
      <trkpt lat="44.11212" lon="6.62898">
        <ele>1973.6006</ele>
        <time>2023-08-07T15:11:12+02:00</time>
      </trkpt>
      <trkpt lat="44.11216" lon="6.62915">
        <ele>1971.2002</ele>
        <time>2023-08-07T15:11:16+02:00</time>
      </trkpt>
      <trkpt lat="44.11217" lon="6.6292">
        <ele>1971.2002</ele>
        <time>2023-08-07T15:11:17+02:00</time>
      </trkpt>
      <trkpt lat="44.11222" lon="6.62936">
        <ele>1972.2002</ele>
        <time>2023-08-07T15:11:21+02:00</time>
      </trkpt>
      <trkpt lat="44.11223" lon="6.6294">
        <ele>1971.1006</ele>
        <time>2023-08-07T15:11:22+02:00</time>
      </trkpt>
      <trkpt lat="44.11228" lon="6.62956">
        <ele>1972.9004</ele>
        <time>2023-08-07T15:11:26+02:00</time>
      </trkpt>
      <trkpt lat="44.1123" lon="6.6296">
        <ele>1971.7998</ele>
        <time>2023-08-07T15:11:27+02:00</time>
      </trkpt>
      <trkpt lat="44.11237" lon="6.62974">
        <ele>1975.4004</ele>
        <time>2023-08-07T15:11:31+02:00</time>
      </trkpt>
      <trkpt lat="44.11238" lon="6.62978">
        <ele>1975.4004</ele>
        <time>2023-08-07T15:11:32+02:00</time>
      </trkpt>
      <trkpt lat="44.11245" lon="6.62993">
        <ele>1976.2002</ele>
        <time>2023-08-07T15:11:36+02:00</time>
      </trkpt>
      <trkpt lat="44.11247" lon="6.62997">
        <ele>1976.2002</ele>
        <time>2023-08-07T15:11:37+02:00</time>
      </trkpt>
      <trkpt lat="44.11252" lon="6.63015">
        <ele>1977</ele>
        <time>2023-08-07T15:11:41+02:00</time>
      </trkpt>
      <trkpt lat="44.11253" lon="6.63019">
        <ele>1976.1006</ele>
        <time>2023-08-07T15:11:42+02:00</time>
      </trkpt>
      <trkpt lat="44.11255" lon="6.63038">
        <ele>1977.5</ele>
        <time>2023-08-07T15:11:46+02:00</time>
      </trkpt>
      <trkpt lat="44.11256" lon="6.63043">
        <ele>1976.7998</ele>
        <time>2023-08-07T15:11:47+02:00</time>
      </trkpt>
      <trkpt lat="44.1126" lon="6.6306">
        <ele>1975.4004</ele>
        <time>2023-08-07T15:11:51+02:00</time>
      </trkpt>
      <trkpt lat="44.11261" lon="6.63064">
        <ele>1975.4004</ele>
        <time>2023-08-07T15:11:52+02:00</time>
      </trkpt>
      <trkpt lat="44.11266" lon="6.63081">
        <ele>1977</ele>
        <time>2023-08-07T15:11:56+02:00</time>
      </trkpt>
      <trkpt lat="44.11267" lon="6.63085">
        <ele>1977</ele>
        <time>2023-08-07T15:11:57+02:00</time>
      </trkpt>
      <trkpt lat="44.11272" lon="6.631">
        <ele>1978.5</ele>
        <time>2023-08-07T15:12:01+02:00</time>
      </trkpt>
      <trkpt lat="44.11274" lon="6.63104">
        <ele>1980.4004</ele>
        <time>2023-08-07T15:12:02+02:00</time>
      </trkpt>
      <trkpt lat="44.11279" lon="6.63119">
        <ele>1979.5</ele>
        <time>2023-08-07T15:12:06+02:00</time>
      </trkpt>
      <trkpt lat="44.11281" lon="6.63122">
        <ele>1981.2002</ele>
        <time>2023-08-07T15:12:07+02:00</time>
      </trkpt>
      <trkpt lat="44.11287" lon="6.63135">
        <ele>1983</ele>
        <time>2023-08-07T15:12:11+02:00</time>
      </trkpt>
      <trkpt lat="44.11289" lon="6.63138">
        <ele>1982.4004</ele>
        <time>2023-08-07T15:12:12+02:00</time>
      </trkpt>
      <trkpt lat="44.11295" lon="6.6315">
        <ele>1984.2998</ele>
        <time>2023-08-07T15:12:16+02:00</time>
      </trkpt>
      <trkpt lat="44.11296" lon="6.63154">
        <ele>1983.9004</ele>
        <time>2023-08-07T15:12:17+02:00</time>
      </trkpt>
      <trkpt lat="44.11298" lon="6.63168">
        <ele>1986</ele>
        <time>2023-08-07T15:12:21+02:00</time>
      </trkpt>
      <trkpt lat="44.11298" lon="6.63172">
        <ele>1983.2998</ele>
        <time>2023-08-07T15:12:22+02:00</time>
      </trkpt>
      <trkpt lat="44.11295" lon="6.63187">
        <ele>1983.1006</ele>
        <time>2023-08-07T15:12:26+02:00</time>
      </trkpt>
      <trkpt lat="44.11294" lon="6.63191">
        <ele>1982.9004</ele>
        <time>2023-08-07T15:12:27+02:00</time>
      </trkpt>
      <trkpt lat="44.11291" lon="6.63205">
        <ele>1980.2002</ele>
        <time>2023-08-07T15:12:31+02:00</time>
      </trkpt>
      <trkpt lat="44.1129" lon="6.63209">
        <ele>1980.1006</ele>
        <time>2023-08-07T15:12:32+02:00</time>
      </trkpt>
      <trkpt lat="44.11287" lon="6.63222">
        <ele>1980.1006</ele>
        <time>2023-08-07T15:12:36+02:00</time>
      </trkpt>
      <trkpt lat="44.11286" lon="6.63225">
        <ele>1977.5</ele>
        <time>2023-08-07T15:12:37+02:00</time>
      </trkpt>
      <trkpt lat="44.11282" lon="6.63239">
        <ele>1977.5</ele>
        <time>2023-08-07T15:12:41+02:00</time>
      </trkpt>
      <trkpt lat="44.11281" lon="6.63242">
        <ele>1977.5</ele>
        <time>2023-08-07T15:12:42+02:00</time>
      </trkpt>
      <trkpt lat="44.11277" lon="6.63256">
        <ele>1975.2002</ele>
        <time>2023-08-07T15:12:46+02:00</time>
      </trkpt>
      <trkpt lat="44.11275" lon="6.6326">
        <ele>1975.2998</ele>
        <time>2023-08-07T15:12:47+02:00</time>
      </trkpt>
      <trkpt lat="44.11272" lon="6.63273">
        <ele>1973.1006</ele>
        <time>2023-08-07T15:12:51+02:00</time>
      </trkpt>
      <trkpt lat="44.1127" lon="6.63277">
        <ele>1973.2002</ele>
        <time>2023-08-07T15:12:52+02:00</time>
      </trkpt>
      <trkpt lat="44.11267" lon="6.63291">
        <ele>1971.2998</ele>
        <time>2023-08-07T15:12:56+02:00</time>
      </trkpt>
      <trkpt lat="44.11266" lon="6.63294">
        <ele>1971.5</ele>
        <time>2023-08-07T15:12:57+02:00</time>
      </trkpt>
      <trkpt lat="44.11264" lon="6.63308">
        <ele>1971.7002</ele>
        <time>2023-08-07T15:13:01+02:00</time>
      </trkpt>
      <trkpt lat="44.11263" lon="6.63312">
        <ele>1971.9004</ele>
        <time>2023-08-07T15:13:02+02:00</time>
      </trkpt>
      <trkpt lat="44.11262" lon="6.63325">
        <ele>1972</ele>
        <time>2023-08-07T15:13:06+02:00</time>
      </trkpt>
      <trkpt lat="44.11262" lon="6.63328">
        <ele>1972.1006</ele>
        <time>2023-08-07T15:13:07+02:00</time>
      </trkpt>
      <trkpt lat="44.11262" lon="6.63341">
        <ele>1972.1006</ele>
        <time>2023-08-07T15:13:11+02:00</time>
      </trkpt>
      <trkpt lat="44.11263" lon="6.63345">
        <ele>1972.2002</ele>
        <time>2023-08-07T15:13:12+02:00</time>
      </trkpt>
      <trkpt lat="44.11266" lon="6.63358">
        <ele>1972.2002</ele>
        <time>2023-08-07T15:13:16+02:00</time>
      </trkpt>
      <trkpt lat="44.11268" lon="6.63361">
        <ele>1974.2998</ele>
        <time>2023-08-07T15:13:17+02:00</time>
      </trkpt>
      <trkpt lat="44.11272" lon="6.63371">
        <ele>1974.4004</ele>
        <time>2023-08-07T15:13:21+02:00</time>
      </trkpt>
      <trkpt lat="44.11274" lon="6.63374">
        <ele>1976.5</ele>
        <time>2023-08-07T15:13:22+02:00</time>
      </trkpt>
      <trkpt lat="44.11281" lon="6.63383">
        <ele>1978.7002</ele>
        <time>2023-08-07T15:13:26+02:00</time>
      </trkpt>
      <trkpt lat="44.11283" lon="6.63385">
        <ele>1978.7002</ele>
        <time>2023-08-07T15:13:27+02:00</time>
      </trkpt>
      <trkpt lat="44.1129" lon="6.63393">
        <ele>1980.9004</ele>
        <time>2023-08-07T15:13:31+02:00</time>
      </trkpt>
      <trkpt lat="44.11292" lon="6.63396">
        <ele>1983</ele>
        <time>2023-08-07T15:13:32+02:00</time>
      </trkpt>
      <trkpt lat="44.113" lon="6.63404">
        <ele>1985.1006</ele>
        <time>2023-08-07T15:13:36+02:00</time>
      </trkpt>
      <trkpt lat="44.11302" lon="6.63406">
        <ele>1985.1006</ele>
        <time>2023-08-07T15:13:37+02:00</time>
      </trkpt>
      <trkpt lat="44.11309" lon="6.63413">
        <ele>1987.1006</ele>
        <time>2023-08-07T15:13:41+02:00</time>
      </trkpt>
      <trkpt lat="44.1131" lon="6.63415">
        <ele>1989.1006</ele>
        <time>2023-08-07T15:13:42+02:00</time>
      </trkpt>
      <trkpt lat="44.11318" lon="6.63422">
        <ele>1991</ele>
        <time>2023-08-07T15:13:46+02:00</time>
      </trkpt>
      <trkpt lat="44.11319" lon="6.63424">
        <ele>1991</ele>
        <time>2023-08-07T15:13:47+02:00</time>
      </trkpt>
      <trkpt lat="44.11327" lon="6.63432">
        <ele>1992.7998</ele>
        <time>2023-08-07T15:13:51+02:00</time>
      </trkpt>
      <trkpt lat="44.11329" lon="6.63434">
        <ele>1992.7998</ele>
        <time>2023-08-07T15:13:52+02:00</time>
      </trkpt>
      <trkpt lat="44.11335" lon="6.63442">
        <ele>1996.1006</ele>
        <time>2023-08-07T15:13:56+02:00</time>
      </trkpt>
      <trkpt lat="44.11337" lon="6.63444">
        <ele>1996.1006</ele>
        <time>2023-08-07T15:13:57+02:00</time>
      </trkpt>
      <trkpt lat="44.11344" lon="6.63451">
        <ele>1997.5</ele>
        <time>2023-08-07T15:14:01+02:00</time>
      </trkpt>
      <trkpt lat="44.11347" lon="6.63453">
        <ele>1997.5</ele>
        <time>2023-08-07T15:14:02+02:00</time>
      </trkpt>
      <trkpt lat="44.11354" lon="6.63463">
        <ele>2000.1006</ele>
        <time>2023-08-07T15:14:06+02:00</time>
      </trkpt>
      <trkpt lat="44.11356" lon="6.63465">
        <ele>2000.1006</ele>
        <time>2023-08-07T15:14:07+02:00</time>
      </trkpt>
      <trkpt lat="44.11363" lon="6.63476">
        <ele>2000.7998</ele>
        <time>2023-08-07T15:14:11+02:00</time>
      </trkpt>
      <trkpt lat="44.11366" lon="6.63478">
        <ele>2000.7998</ele>
        <time>2023-08-07T15:14:12+02:00</time>
      </trkpt>
      <trkpt lat="44.11374" lon="6.63487">
        <ele>2002</ele>
        <time>2023-08-07T15:14:16+02:00</time>
      </trkpt>
      <trkpt lat="44.11375" lon="6.6349">
        <ele>2001.2002</ele>
        <time>2023-08-07T15:14:17+02:00</time>
      </trkpt>
      <trkpt lat="44.11381" lon="6.635">
        <ele>2001.9004</ele>
        <time>2023-08-07T15:14:21+02:00</time>
      </trkpt>
      <trkpt lat="44.11382" lon="6.63503">
        <ele>2001.9004</ele>
        <time>2023-08-07T15:14:22+02:00</time>
      </trkpt>
      <trkpt lat="44.11387" lon="6.63514">
        <ele>2002.2998</ele>
        <time>2023-08-07T15:14:26+02:00</time>
      </trkpt>
      <trkpt lat="44.11388" lon="6.63517">
        <ele>2002.2998</ele>
        <time>2023-08-07T15:14:27+02:00</time>
      </trkpt>
      <trkpt lat="44.11392" lon="6.63528">
        <ele>2002.5</ele>
        <time>2023-08-07T15:14:31+02:00</time>
      </trkpt>
      <trkpt lat="44.11393" lon="6.63531">
        <ele>2002.5</ele>
        <time>2023-08-07T15:14:32+02:00</time>
      </trkpt>
      <trkpt lat="44.11397" lon="6.63542">
        <ele>2002.4004</ele>
        <time>2023-08-07T15:14:36+02:00</time>
      </trkpt>
      <trkpt lat="44.11398" lon="6.63545">
        <ele>2002.4004</ele>
        <time>2023-08-07T15:14:37+02:00</time>
      </trkpt>
      <trkpt lat="44.114" lon="6.63556">
        <ele>2002.2002</ele>
        <time>2023-08-07T15:14:41+02:00</time>
      </trkpt>
      <trkpt lat="44.11401" lon="6.63559">
        <ele>2002.1006</ele>
        <time>2023-08-07T15:14:42+02:00</time>
      </trkpt>
      <trkpt lat="44.11403" lon="6.6357">
        <ele>2001.7002</ele>
        <time>2023-08-07T15:14:46+02:00</time>
      </trkpt>
      <trkpt lat="44.11404" lon="6.63573">
        <ele>2001.7002</ele>
        <time>2023-08-07T15:14:47+02:00</time>
      </trkpt>
      <trkpt lat="44.11405" lon="6.63584">
        <ele>2001.5</ele>
        <time>2023-08-07T15:14:51+02:00</time>
      </trkpt>
      <trkpt lat="44.11405" lon="6.63586">
        <ele>2001.5</ele>
        <time>2023-08-07T15:14:52+02:00</time>
      </trkpt>
      <trkpt lat="44.11405" lon="6.63587">
        <ele>2001.5</ele>
        <time>2023-08-07T15:14:56+02:00</time>
      </trkpt>
      <trkpt lat="44.11405" lon="6.63587">
        <ele>2001.5</ele>
        <time>2023-08-07T15:14:57+02:00</time>
      </trkpt>
      <trkpt lat="44.11405" lon="6.63587">
        <ele>2001.5</ele>
        <time>2023-08-07T15:15:01+02:00</time>
      </trkpt>
      <trkpt lat="44.11405" lon="6.63587">
        <ele>2001.5</ele>
        <time>2023-08-07T15:15:02+02:00</time>
      </trkpt>
      <trkpt lat="44.11405" lon="6.63587">
        <ele>2001.5</ele>
        <time>2023-08-07T15:15:06+02:00</time>
      </trkpt>
      <trkpt lat="44.11405" lon="6.63587">
        <ele>2001.5</ele>
        <time>2023-08-07T15:15:07+02:00</time>
      </trkpt>
      <trkpt lat="44.11405" lon="6.63587">
        <ele>2001.5</ele>
        <time>2023-08-07T15:15:11+02:00</time>
      </trkpt>
      <trkpt lat="44.11405" lon="6.63587">
        <ele>2001.5</ele>
        <time>2023-08-07T15:15:12+02:00</time>
      </trkpt>
      <trkpt lat="44.11405" lon="6.63587">
        <ele>2001.5</ele>
        <time>2023-08-07T15:15:16+02:00</time>
      </trkpt>
      <trkpt lat="44.11405" lon="6.63587">
        <ele>2001.5</ele>
        <time>2023-08-07T15:15:17+02:00</time>
      </trkpt>
      <trkpt lat="44.11405" lon="6.63587">
        <ele>2001.5</ele>
        <time>2023-08-07T15:15:21+02:00</time>
      </trkpt>
      <trkpt lat="44.11405" lon="6.63587">
        <ele>2001.5</ele>
        <time>2023-08-07T15:15:22+02:00</time>
      </trkpt>
      <trkpt lat="44.11405" lon="6.63587">
        <ele>2001.5</ele>
        <time>2023-08-07T15:15:26+02:00</time>
      </trkpt>
      <trkpt lat="44.11405" lon="6.63587">
        <ele>2001.5</ele>
        <time>2023-08-07T15:15:27+02:00</time>
      </trkpt>
      <trkpt lat="44.11405" lon="6.63587">
        <ele>2001.5</ele>
        <time>2023-08-07T15:15:31+02:00</time>
      </trkpt>
      <trkpt lat="44.11405" lon="6.63587">
        <ele>2001.5</ele>
        <time>2023-08-07T15:15:32+02:00</time>
      </trkpt>
      <trkpt lat="44.11405" lon="6.63587">
        <ele>2001.5</ele>
        <time>2023-08-07T15:15:36+02:00</time>
      </trkpt>
      <trkpt lat="44.11405" lon="6.63587">
        <ele>2001.5</ele>
        <time>2023-08-07T15:15:37+02:00</time>
      </trkpt>
      <trkpt lat="44.11405" lon="6.63587">
        <ele>2001.5</ele>
        <time>2023-08-07T15:15:41+02:00</time>
      </trkpt>
      <trkpt lat="44.11405" lon="6.63587">
        <ele>2001.5</ele>
        <time>2023-08-07T15:15:42+02:00</time>
      </trkpt>
      <trkpt lat="44.11405" lon="6.63587">
        <ele>2001.5</ele>
        <time>2023-08-07T15:15:46+02:00</time>
      </trkpt>
      <trkpt lat="44.11405" lon="6.63587">
        <ele>2001.5</ele>
        <time>2023-08-07T15:15:47+02:00</time>
      </trkpt>
      <trkpt lat="44.11405" lon="6.63587">
        <ele>2001.5</ele>
        <time>2023-08-07T15:15:51+02:00</time>
      </trkpt>
      <trkpt lat="44.11405" lon="6.63587">
        <ele>2001.5</ele>
        <time>2023-08-07T15:15:52+02:00</time>
      </trkpt>
      <trkpt lat="44.11405" lon="6.63587">
        <ele>2001.5</ele>
        <time>2023-08-07T15:15:56+02:00</time>
      </trkpt>
      <trkpt lat="44.11405" lon="6.63587">
        <ele>2001.5</ele>
        <time>2023-08-07T15:15:57+02:00</time>
      </trkpt>
      <trkpt lat="44.11405" lon="6.63587">
        <ele>2001.5</ele>
        <time>2023-08-07T15:16:01+02:00</time>
      </trkpt>
      <trkpt lat="44.11405" lon="6.63587">
        <ele>2001.5</ele>
        <time>2023-08-07T15:16:02+02:00</time>
      </trkpt>
      <trkpt lat="44.11405" lon="6.63587">
        <ele>2001.5</ele>
        <time>2023-08-07T15:16:06+02:00</time>
      </trkpt>
      <trkpt lat="44.11405" lon="6.63587">
        <ele>2001.5</ele>
        <time>2023-08-07T15:16:07+02:00</time>
      </trkpt>
      <trkpt lat="44.11405" lon="6.63587">
        <ele>2001.5</ele>
        <time>2023-08-07T15:16:11+02:00</time>
      </trkpt>
      <trkpt lat="44.11405" lon="6.63587">
        <ele>2001.5</ele>
        <time>2023-08-07T15:16:12+02:00</time>
      </trkpt>
      <trkpt lat="44.11405" lon="6.63587">
        <ele>2001.5</ele>
        <time>2023-08-07T15:16:16+02:00</time>
      </trkpt>
      <trkpt lat="44.11405" lon="6.63587">
        <ele>2001.5</ele>
        <time>2023-08-07T15:16:17+02:00</time>
      </trkpt>
      <trkpt lat="44.11405" lon="6.63587">
        <ele>2001.5</ele>
        <time>2023-08-07T15:16:21+02:00</time>
      </trkpt>
      <trkpt lat="44.11405" lon="6.63587">
        <ele>2001.5</ele>
        <time>2023-08-07T15:16:22+02:00</time>
      </trkpt>
      <trkpt lat="44.11399" lon="6.63607">
        <ele>2002</ele>
        <time>2023-08-07T15:16:26+02:00</time>
      </trkpt>
      <trkpt lat="44.11398" lon="6.6361">
        <ele>2002.1006</ele>
        <time>2023-08-07T15:16:27+02:00</time>
      </trkpt>
      <trkpt lat="44.11396" lon="6.63614">
        <ele>2002.6006</ele>
        <time>2023-08-07T15:16:31+02:00</time>
      </trkpt>
      <trkpt lat="44.11396" lon="6.63614">
        <ele>2002.6006</ele>
        <time>2023-08-07T15:16:32+02:00</time>
      </trkpt>
      <trkpt lat="44.11396" lon="6.63614">
        <ele>2002.6006</ele>
        <time>2023-08-07T15:16:36+02:00</time>
      </trkpt>
      <trkpt lat="44.11396" lon="6.63614">
        <ele>2002.6006</ele>
        <time>2023-08-07T15:16:37+02:00</time>
      </trkpt>
      <trkpt lat="44.11396" lon="6.63614">
        <ele>2002.6006</ele>
        <time>2023-08-07T15:16:41+02:00</time>
      </trkpt>
      <trkpt lat="44.11396" lon="6.63614">
        <ele>2002.6006</ele>
        <time>2023-08-07T15:16:42+02:00</time>
      </trkpt>
      <trkpt lat="44.11396" lon="6.63614">
        <ele>2002.6006</ele>
        <time>2023-08-07T15:16:46+02:00</time>
      </trkpt>
      <trkpt lat="44.11396" lon="6.63614">
        <ele>2002.6006</ele>
        <time>2023-08-07T15:16:47+02:00</time>
      </trkpt>
      <trkpt lat="44.11396" lon="6.63614">
        <ele>2002.6006</ele>
        <time>2023-08-07T15:16:51+02:00</time>
      </trkpt>
      <trkpt lat="44.11396" lon="6.63614">
        <ele>2002.6006</ele>
        <time>2023-08-07T15:16:52+02:00</time>
      </trkpt>
      <trkpt lat="44.11396" lon="6.63614">
        <ele>2002.6006</ele>
        <time>2023-08-07T15:16:56+02:00</time>
      </trkpt>
      <trkpt lat="44.11396" lon="6.63614">
        <ele>2002.6006</ele>
        <time>2023-08-07T15:16:57+02:00</time>
      </trkpt>
      <trkpt lat="44.11396" lon="6.63614">
        <ele>2002.6006</ele>
        <time>2023-08-07T15:17:01+02:00</time>
      </trkpt>
      <trkpt lat="44.11396" lon="6.63614">
        <ele>2002.6006</ele>
        <time>2023-08-07T15:17:02+02:00</time>
      </trkpt>
      <trkpt lat="44.11396" lon="6.63614">
        <ele>2002.6006</ele>
        <time>2023-08-07T15:17:06+02:00</time>
      </trkpt>
      <trkpt lat="44.11396" lon="6.63614">
        <ele>2002.6006</ele>
        <time>2023-08-07T15:17:07+02:00</time>
      </trkpt>
      <trkpt lat="44.11396" lon="6.63614">
        <ele>2002.6006</ele>
        <time>2023-08-07T15:17:11+02:00</time>
      </trkpt>
      <trkpt lat="44.11396" lon="6.63614">
        <ele>2002.6006</ele>
        <time>2023-08-07T15:17:12+02:00</time>
      </trkpt>
      <trkpt lat="44.11396" lon="6.63614">
        <ele>2002.6006</ele>
        <time>2023-08-07T15:17:16+02:00</time>
      </trkpt>
      <trkpt lat="44.11396" lon="6.63614">
        <ele>2002.6006</ele>
        <time>2023-08-07T15:17:17+02:00</time>
      </trkpt>
      <trkpt lat="44.11396" lon="6.63614">
        <ele>2002.6006</ele>
        <time>2023-08-07T15:17:21+02:00</time>
      </trkpt>
      <trkpt lat="44.11396" lon="6.63614">
        <ele>2002.6006</ele>
        <time>2023-08-07T15:17:22+02:00</time>
      </trkpt>
      <trkpt lat="44.11396" lon="6.63614">
        <ele>2002.6006</ele>
        <time>2023-08-07T15:17:26+02:00</time>
      </trkpt>
      <trkpt lat="44.11396" lon="6.63614">
        <ele>2002.6006</ele>
        <time>2023-08-07T15:17:27+02:00</time>
      </trkpt>
      <trkpt lat="44.11396" lon="6.63614">
        <ele>2002.6006</ele>
        <time>2023-08-07T15:17:31+02:00</time>
      </trkpt>
      <trkpt lat="44.11396" lon="6.63614">
        <ele>2002.6006</ele>
        <time>2023-08-07T15:17:32+02:00</time>
      </trkpt>
      <trkpt lat="44.11396" lon="6.63614">
        <ele>2002.6006</ele>
        <time>2023-08-07T15:17:36+02:00</time>
      </trkpt>
      <trkpt lat="44.11396" lon="6.63614">
        <ele>2002.6006</ele>
        <time>2023-08-07T15:17:37+02:00</time>
      </trkpt>
      <trkpt lat="44.11396" lon="6.63614">
        <ele>2002.6006</ele>
        <time>2023-08-07T15:17:41+02:00</time>
      </trkpt>
      <trkpt lat="44.11396" lon="6.63614">
        <ele>2002.6006</ele>
        <time>2023-08-07T15:17:42+02:00</time>
      </trkpt>
      <trkpt lat="44.11396" lon="6.63614">
        <ele>2002.6006</ele>
        <time>2023-08-07T15:17:46+02:00</time>
      </trkpt>
      <trkpt lat="44.11396" lon="6.63614">
        <ele>2002.6006</ele>
        <time>2023-08-07T15:17:47+02:00</time>
      </trkpt>
      <trkpt lat="44.11396" lon="6.63614">
        <ele>2002.6006</ele>
        <time>2023-08-07T15:17:51+02:00</time>
      </trkpt>
      <trkpt lat="44.11396" lon="6.63614">
        <ele>2002.6006</ele>
        <time>2023-08-07T15:17:52+02:00</time>
      </trkpt>
      <trkpt lat="44.11396" lon="6.63614">
        <ele>2002.6006</ele>
        <time>2023-08-07T15:17:56+02:00</time>
      </trkpt>
      <trkpt lat="44.11396" lon="6.63614">
        <ele>2002.6006</ele>
        <time>2023-08-07T15:17:57+02:00</time>
      </trkpt>
      <trkpt lat="44.11396" lon="6.63614">
        <ele>2002.6006</ele>
        <time>2023-08-07T15:18:01+02:00</time>
      </trkpt>
      <trkpt lat="44.11396" lon="6.63614">
        <ele>2002.6006</ele>
        <time>2023-08-07T15:18:02+02:00</time>
      </trkpt>
      <trkpt lat="44.11396" lon="6.63614">
        <ele>2002.6006</ele>
        <time>2023-08-07T15:18:06+02:00</time>
      </trkpt>
      <trkpt lat="44.11396" lon="6.63614">
        <ele>2002.6006</ele>
        <time>2023-08-07T15:18:07+02:00</time>
      </trkpt>
      <trkpt lat="44.11396" lon="6.63614">
        <ele>2002.6006</ele>
        <time>2023-08-07T15:18:11+02:00</time>
      </trkpt>
      <trkpt lat="44.11396" lon="6.63614">
        <ele>2002.6006</ele>
        <time>2023-08-07T15:18:12+02:00</time>
      </trkpt>
      <trkpt lat="44.11396" lon="6.63614">
        <ele>2002.6006</ele>
        <time>2023-08-07T15:18:16+02:00</time>
      </trkpt>
      <trkpt lat="44.11396" lon="6.63614">
        <ele>2002.6006</ele>
        <time>2023-08-07T15:18:17+02:00</time>
      </trkpt>
      <trkpt lat="44.11396" lon="6.63614">
        <ele>2002.6006</ele>
        <time>2023-08-07T15:18:21+02:00</time>
      </trkpt>
      <trkpt lat="44.11396" lon="6.63614">
        <ele>2002.6006</ele>
        <time>2023-08-07T15:18:22+02:00</time>
      </trkpt>
      <trkpt lat="44.11396" lon="6.63614">
        <ele>2002.6006</ele>
        <time>2023-08-07T15:18:26+02:00</time>
      </trkpt>
      <trkpt lat="44.11396" lon="6.63614">
        <ele>2002.6006</ele>
        <time>2023-08-07T15:18:27+02:00</time>
      </trkpt>
      <trkpt lat="44.11396" lon="6.63614">
        <ele>2002.6006</ele>
        <time>2023-08-07T15:18:31+02:00</time>
      </trkpt>
      <trkpt lat="44.11396" lon="6.63614">
        <ele>2002.6006</ele>
        <time>2023-08-07T15:18:32+02:00</time>
      </trkpt>
      <trkpt lat="44.11396" lon="6.63614">
        <ele>2002.6006</ele>
        <time>2023-08-07T15:18:36+02:00</time>
      </trkpt>
      <trkpt lat="44.11396" lon="6.63614">
        <ele>2002.6006</ele>
        <time>2023-08-07T15:18:37+02:00</time>
      </trkpt>
      <trkpt lat="44.11396" lon="6.63614">
        <ele>2002.6006</ele>
        <time>2023-08-07T15:18:41+02:00</time>
      </trkpt>
      <trkpt lat="44.11396" lon="6.63614">
        <ele>2002.6006</ele>
        <time>2023-08-07T15:18:42+02:00</time>
      </trkpt>
      <trkpt lat="44.11396" lon="6.63614">
        <ele>2002.6006</ele>
        <time>2023-08-07T15:18:46+02:00</time>
      </trkpt>
      <trkpt lat="44.11396" lon="6.63614">
        <ele>2002.6006</ele>
        <time>2023-08-07T15:18:47+02:00</time>
      </trkpt>
      <trkpt lat="44.11396" lon="6.63614">
        <ele>2002.6006</ele>
        <time>2023-08-07T15:18:51+02:00</time>
      </trkpt>
      <trkpt lat="44.11396" lon="6.63614">
        <ele>2002.6006</ele>
        <time>2023-08-07T15:18:52+02:00</time>
      </trkpt>
      <trkpt lat="44.11396" lon="6.63614">
        <ele>2002.6006</ele>
        <time>2023-08-07T15:18:56+02:00</time>
      </trkpt>
      <trkpt lat="44.11396" lon="6.63614">
        <ele>2002.6006</ele>
        <time>2023-08-07T15:18:57+02:00</time>
      </trkpt>
      <trkpt lat="44.11396" lon="6.63614">
        <ele>2002.6006</ele>
        <time>2023-08-07T15:19:01+02:00</time>
      </trkpt>
      <trkpt lat="44.11396" lon="6.63614">
        <ele>2002.6006</ele>
        <time>2023-08-07T15:19:02+02:00</time>
      </trkpt>
      <trkpt lat="44.11396" lon="6.63614">
        <ele>2002.6006</ele>
        <time>2023-08-07T15:19:06+02:00</time>
      </trkpt>
      <trkpt lat="44.11396" lon="6.63614">
        <ele>2002.6006</ele>
        <time>2023-08-07T15:19:07+02:00</time>
      </trkpt>
      <trkpt lat="44.11396" lon="6.63614">
        <ele>2002.6006</ele>
        <time>2023-08-07T15:19:11+02:00</time>
      </trkpt>
      <trkpt lat="44.11396" lon="6.63614">
        <ele>2002.6006</ele>
        <time>2023-08-07T15:19:12+02:00</time>
      </trkpt>
      <trkpt lat="44.11396" lon="6.63614">
        <ele>2002.6006</ele>
        <time>2023-08-07T15:19:16+02:00</time>
      </trkpt>
      <trkpt lat="44.11396" lon="6.63614">
        <ele>2002.6006</ele>
        <time>2023-08-07T15:19:17+02:00</time>
      </trkpt>
      <trkpt lat="44.11396" lon="6.63614">
        <ele>2002.6006</ele>
        <time>2023-08-07T15:19:21+02:00</time>
      </trkpt>
      <trkpt lat="44.11396" lon="6.63614">
        <ele>2002.6006</ele>
        <time>2023-08-07T15:19:22+02:00</time>
      </trkpt>
      <trkpt lat="44.11396" lon="6.63614">
        <ele>2002.6006</ele>
        <time>2023-08-07T15:19:26+02:00</time>
      </trkpt>
      <trkpt lat="44.11396" lon="6.63614">
        <ele>2002.6006</ele>
        <time>2023-08-07T15:19:27+02:00</time>
      </trkpt>
      <trkpt lat="44.11396" lon="6.63614">
        <ele>2002.6006</ele>
        <time>2023-08-07T15:19:31+02:00</time>
      </trkpt>
      <trkpt lat="44.11396" lon="6.63614">
        <ele>2002.6006</ele>
        <time>2023-08-07T15:19:32+02:00</time>
      </trkpt>
      <trkpt lat="44.11396" lon="6.63614">
        <ele>2002.6006</ele>
        <time>2023-08-07T15:19:36+02:00</time>
      </trkpt>
      <trkpt lat="44.11396" lon="6.63614">
        <ele>2002.6006</ele>
        <time>2023-08-07T15:19:37+02:00</time>
      </trkpt>
      <trkpt lat="44.11396" lon="6.63614">
        <ele>2002.6006</ele>
        <time>2023-08-07T15:19:41+02:00</time>
      </trkpt>
      <trkpt lat="44.11396" lon="6.63614">
        <ele>2002.6006</ele>
        <time>2023-08-07T15:19:42+02:00</time>
      </trkpt>
      <trkpt lat="44.11396" lon="6.63614">
        <ele>2002.6006</ele>
        <time>2023-08-07T15:19:46+02:00</time>
      </trkpt>
      <trkpt lat="44.11396" lon="6.63614">
        <ele>2002.6006</ele>
        <time>2023-08-07T15:19:47+02:00</time>
      </trkpt>
      <trkpt lat="44.11396" lon="6.63614">
        <ele>2002.6006</ele>
        <time>2023-08-07T15:19:51+02:00</time>
      </trkpt>
      <trkpt lat="44.11396" lon="6.63614">
        <ele>2002.6006</ele>
        <time>2023-08-07T15:19:52+02:00</time>
      </trkpt>
      <trkpt lat="44.11396" lon="6.63614">
        <ele>2002.6006</ele>
        <time>2023-08-07T15:19:56+02:00</time>
      </trkpt>
      <trkpt lat="44.11396" lon="6.63614">
        <ele>2002.6006</ele>
        <time>2023-08-07T15:19:57+02:00</time>
      </trkpt>
      <trkpt lat="44.11396" lon="6.63614">
        <ele>2002.6006</ele>
        <time>2023-08-07T15:20:01+02:00</time>
      </trkpt>
      <trkpt lat="44.11396" lon="6.63614">
        <ele>2002.6006</ele>
        <time>2023-08-07T15:20:02+02:00</time>
      </trkpt>
      <trkpt lat="44.11396" lon="6.63614">
        <ele>2002.6006</ele>
        <time>2023-08-07T15:20:06+02:00</time>
      </trkpt>
      <trkpt lat="44.11396" lon="6.63614">
        <ele>2002.6006</ele>
        <time>2023-08-07T15:20:07+02:00</time>
      </trkpt>
      <trkpt lat="44.11396" lon="6.63614">
        <ele>2002.6006</ele>
        <time>2023-08-07T15:20:11+02:00</time>
      </trkpt>
      <trkpt lat="44.11396" lon="6.63614">
        <ele>2002.6006</ele>
        <time>2023-08-07T15:20:12+02:00</time>
      </trkpt>
      <trkpt lat="44.11396" lon="6.63614">
        <ele>2002.6006</ele>
        <time>2023-08-07T15:20:16+02:00</time>
      </trkpt>
      <trkpt lat="44.11396" lon="6.63614">
        <ele>2002.6006</ele>
        <time>2023-08-07T15:20:17+02:00</time>
      </trkpt>
      <trkpt lat="44.11396" lon="6.63614">
        <ele>2002.6006</ele>
        <time>2023-08-07T15:20:21+02:00</time>
      </trkpt>
      <trkpt lat="44.11396" lon="6.63614">
        <ele>2002.6006</ele>
        <time>2023-08-07T15:20:22+02:00</time>
      </trkpt>
      <trkpt lat="44.11396" lon="6.63614">
        <ele>2002.6006</ele>
        <time>2023-08-07T15:20:26+02:00</time>
      </trkpt>
      <trkpt lat="44.11396" lon="6.63614">
        <ele>2002.6006</ele>
        <time>2023-08-07T15:20:27+02:00</time>
      </trkpt>
      <trkpt lat="44.11396" lon="6.63614">
        <ele>2002.6006</ele>
        <time>2023-08-07T15:20:31+02:00</time>
      </trkpt>
      <trkpt lat="44.11396" lon="6.63614">
        <ele>2002.6006</ele>
        <time>2023-08-07T15:20:32+02:00</time>
      </trkpt>
      <trkpt lat="44.11396" lon="6.63614">
        <ele>2002.6006</ele>
        <time>2023-08-07T15:20:36+02:00</time>
      </trkpt>
      <trkpt lat="44.11396" lon="6.63614">
        <ele>2002.6006</ele>
        <time>2023-08-07T15:20:37+02:00</time>
      </trkpt>
      <trkpt lat="44.11396" lon="6.63614">
        <ele>2002.6006</ele>
        <time>2023-08-07T15:20:41+02:00</time>
      </trkpt>
      <trkpt lat="44.11396" lon="6.63614">
        <ele>2002.6006</ele>
        <time>2023-08-07T15:20:42+02:00</time>
      </trkpt>
      <trkpt lat="44.11396" lon="6.63614">
        <ele>2002.6006</ele>
        <time>2023-08-07T15:20:46+02:00</time>
      </trkpt>
      <trkpt lat="44.11396" lon="6.63614">
        <ele>2002.6006</ele>
        <time>2023-08-07T15:20:47+02:00</time>
      </trkpt>
      <trkpt lat="44.11396" lon="6.63614">
        <ele>2002.6006</ele>
        <time>2023-08-07T15:20:51+02:00</time>
      </trkpt>
      <trkpt lat="44.11396" lon="6.63614">
        <ele>2002.6006</ele>
        <time>2023-08-07T15:20:52+02:00</time>
      </trkpt>
      <trkpt lat="44.11396" lon="6.63614">
        <ele>2002.6006</ele>
        <time>2023-08-07T15:20:56+02:00</time>
      </trkpt>
      <trkpt lat="44.11396" lon="6.63614">
        <ele>2002.6006</ele>
        <time>2023-08-07T15:20:57+02:00</time>
      </trkpt>
      <trkpt lat="44.11396" lon="6.63614">
        <ele>2002.6006</ele>
        <time>2023-08-07T15:21:01+02:00</time>
      </trkpt>
      <trkpt lat="44.11396" lon="6.63614">
        <ele>2002.6006</ele>
        <time>2023-08-07T15:21:02+02:00</time>
      </trkpt>
      <trkpt lat="44.11396" lon="6.63614">
        <ele>2002.6006</ele>
        <time>2023-08-07T15:21:06+02:00</time>
      </trkpt>
      <trkpt lat="44.11396" lon="6.63614">
        <ele>2002.6006</ele>
        <time>2023-08-07T15:21:07+02:00</time>
      </trkpt>
      <trkpt lat="44.11396" lon="6.63614">
        <ele>2002.6006</ele>
        <time>2023-08-07T15:21:11+02:00</time>
      </trkpt>
      <trkpt lat="44.11396" lon="6.63614">
        <ele>2002.6006</ele>
        <time>2023-08-07T15:21:12+02:00</time>
      </trkpt>
      <trkpt lat="44.11396" lon="6.63614">
        <ele>2002.6006</ele>
        <time>2023-08-07T15:21:16+02:00</time>
      </trkpt>
      <trkpt lat="44.11396" lon="6.63614">
        <ele>2002.6006</ele>
        <time>2023-08-07T15:21:17+02:00</time>
      </trkpt>
      <trkpt lat="44.11396" lon="6.63614">
        <ele>2002.6006</ele>
        <time>2023-08-07T15:21:21+02:00</time>
      </trkpt>
      <trkpt lat="44.11396" lon="6.63614">
        <ele>2002.6006</ele>
        <time>2023-08-07T15:21:22+02:00</time>
      </trkpt>
      <trkpt lat="44.11396" lon="6.63614">
        <ele>2002.6006</ele>
        <time>2023-08-07T15:21:26+02:00</time>
      </trkpt>
      <trkpt lat="44.11396" lon="6.63614">
        <ele>2002.6006</ele>
        <time>2023-08-07T15:21:27+02:00</time>
      </trkpt>
      <trkpt lat="44.11396" lon="6.63614">
        <ele>2002.6006</ele>
        <time>2023-08-07T15:21:31+02:00</time>
      </trkpt>
      <trkpt lat="44.11396" lon="6.63614">
        <ele>2002.6006</ele>
        <time>2023-08-07T15:21:32+02:00</time>
      </trkpt>
      <trkpt lat="44.11396" lon="6.63614">
        <ele>2002.6006</ele>
        <time>2023-08-07T15:21:36+02:00</time>
      </trkpt>
      <trkpt lat="44.11396" lon="6.63614">
        <ele>2002.6006</ele>
        <time>2023-08-07T15:21:37+02:00</time>
      </trkpt>
      <trkpt lat="44.11404" lon="6.63611">
        <ele>2001.4004</ele>
        <time>2023-08-07T15:21:41+02:00</time>
      </trkpt>
      <trkpt lat="44.11404" lon="6.63611">
        <ele>2001.4004</ele>
        <time>2023-08-07T15:21:42+02:00</time>
      </trkpt>
      <trkpt lat="44.11404" lon="6.63611">
        <ele>2001.4004</ele>
        <time>2023-08-07T15:21:46+02:00</time>
      </trkpt>
      <trkpt lat="44.11404" lon="6.63611">
        <ele>2001.4004</ele>
        <time>2023-08-07T15:21:47+02:00</time>
      </trkpt>
      <trkpt lat="44.11404" lon="6.63611">
        <ele>2001.4004</ele>
        <time>2023-08-07T15:21:51+02:00</time>
      </trkpt>
      <trkpt lat="44.11404" lon="6.63611">
        <ele>2001.4004</ele>
        <time>2023-08-07T15:21:52+02:00</time>
      </trkpt>
      <trkpt lat="44.11404" lon="6.63611">
        <ele>2001.4004</ele>
        <time>2023-08-07T15:21:56+02:00</time>
      </trkpt>
      <trkpt lat="44.11401" lon="6.63612">
        <ele>2002.1006</ele>
        <time>2023-08-07T15:21:57+02:00</time>
      </trkpt>
      <trkpt lat="44.11395" lon="6.63617">
        <ele>2002.6006</ele>
        <time>2023-08-07T15:22:01+02:00</time>
      </trkpt>
      <trkpt lat="44.11395" lon="6.63617">
        <ele>2002.6006</ele>
        <time>2023-08-07T15:22:02+02:00</time>
      </trkpt>
      <trkpt lat="44.11395" lon="6.63617">
        <ele>2002.7002</ele>
        <time>2023-08-07T15:22:06+02:00</time>
      </trkpt>
      <trkpt lat="44.11395" lon="6.63617">
        <ele>2002.7002</ele>
        <time>2023-08-07T15:22:07+02:00</time>
      </trkpt>
      <trkpt lat="44.11395" lon="6.63617">
        <ele>2002.7002</ele>
        <time>2023-08-07T15:22:11+02:00</time>
      </trkpt>
      <trkpt lat="44.11395" lon="6.63617">
        <ele>2002.7002</ele>
        <time>2023-08-07T15:22:12+02:00</time>
      </trkpt>
      <trkpt lat="44.11395" lon="6.63617">
        <ele>2002.7002</ele>
        <time>2023-08-07T15:22:16+02:00</time>
      </trkpt>
      <trkpt lat="44.11395" lon="6.63618">
        <ele>2002.7002</ele>
        <time>2023-08-07T15:22:17+02:00</time>
      </trkpt>
      <trkpt lat="44.11395" lon="6.63618">
        <ele>2002.7002</ele>
        <time>2023-08-07T15:22:21+02:00</time>
      </trkpt>
      <trkpt lat="44.11395" lon="6.63618">
        <ele>2002.7002</ele>
        <time>2023-08-07T15:22:22+02:00</time>
      </trkpt>
      <trkpt lat="44.11395" lon="6.63618">
        <ele>2002.7002</ele>
        <time>2023-08-07T15:22:26+02:00</time>
      </trkpt>
      <trkpt lat="44.11395" lon="6.63618">
        <ele>2002.7002</ele>
        <time>2023-08-07T15:22:27+02:00</time>
      </trkpt>
      <trkpt lat="44.11395" lon="6.63618">
        <ele>2002.7002</ele>
        <time>2023-08-07T15:22:31+02:00</time>
      </trkpt>
      <trkpt lat="44.11395" lon="6.63618">
        <ele>2002.7002</ele>
        <time>2023-08-07T15:22:32+02:00</time>
      </trkpt>
      <trkpt lat="44.11395" lon="6.63618">
        <ele>2002.7002</ele>
        <time>2023-08-07T15:22:36+02:00</time>
      </trkpt>
      <trkpt lat="44.11395" lon="6.63618">
        <ele>2002.7002</ele>
        <time>2023-08-07T15:22:37+02:00</time>
      </trkpt>
      <trkpt lat="44.11395" lon="6.63618">
        <ele>2002.7002</ele>
        <time>2023-08-07T15:22:41+02:00</time>
      </trkpt>
      <trkpt lat="44.11395" lon="6.63618">
        <ele>2002.7002</ele>
        <time>2023-08-07T15:22:42+02:00</time>
      </trkpt>
      <trkpt lat="44.11399" lon="6.63612">
        <ele>2002.1006</ele>
        <time>2023-08-07T15:22:46+02:00</time>
      </trkpt>
      <trkpt lat="44.114" lon="6.63611">
        <ele>2002.1006</ele>
        <time>2023-08-07T15:22:47+02:00</time>
      </trkpt>
      <trkpt lat="44.11401" lon="6.63609">
        <ele>2002.1006</ele>
        <time>2023-08-07T15:22:51+02:00</time>
      </trkpt>
      <trkpt lat="44.11401" lon="6.63609">
        <ele>2002.1006</ele>
        <time>2023-08-07T15:22:52+02:00</time>
      </trkpt>
      <trkpt lat="44.11398" lon="6.63608">
        <ele>2002</ele>
        <time>2023-08-07T15:22:56+02:00</time>
      </trkpt>
      <trkpt lat="44.11396" lon="6.63608">
        <ele>2002.5</ele>
        <time>2023-08-07T15:22:57+02:00</time>
      </trkpt>
      <trkpt lat="44.11384" lon="6.6361">
        <ele>2003</ele>
        <time>2023-08-07T15:23:01+02:00</time>
      </trkpt>
      <trkpt lat="44.1138" lon="6.63611">
        <ele>2003</ele>
        <time>2023-08-07T15:23:02+02:00</time>
      </trkpt>
      <trkpt lat="44.11369" lon="6.63614">
        <ele>2002.9004</ele>
        <time>2023-08-07T15:23:06+02:00</time>
      </trkpt>
      <trkpt lat="44.11366" lon="6.63615">
        <ele>2002.9004</ele>
        <time>2023-08-07T15:23:07+02:00</time>
      </trkpt>
      <trkpt lat="44.11357" lon="6.63619">
        <ele>2002.9004</ele>
        <time>2023-08-07T15:23:11+02:00</time>
      </trkpt>
      <trkpt lat="44.11355" lon="6.63618">
        <ele>2002.9004</ele>
        <time>2023-08-07T15:23:12+02:00</time>
      </trkpt>
      <trkpt lat="44.11344" lon="6.63615">
        <ele>2001.5</ele>
        <time>2023-08-07T15:23:16+02:00</time>
      </trkpt>
      <trkpt lat="44.11341" lon="6.63614">
        <ele>2001.1006</ele>
        <time>2023-08-07T15:23:17+02:00</time>
      </trkpt>
      <trkpt lat="44.1133" lon="6.63608">
        <ele>1999.7002</ele>
        <time>2023-08-07T15:23:21+02:00</time>
      </trkpt>
      <trkpt lat="44.11329" lon="6.63607">
        <ele>1999.1006</ele>
        <time>2023-08-07T15:23:22+02:00</time>
      </trkpt>
      <trkpt lat="44.11321" lon="6.63603">
        <ele>1998.5</ele>
        <time>2023-08-07T15:23:26+02:00</time>
      </trkpt>
      <trkpt lat="44.11318" lon="6.63602">
        <ele>1998.5</ele>
        <time>2023-08-07T15:23:27+02:00</time>
      </trkpt>
      <trkpt lat="44.11309" lon="6.636">
        <ele>1997.5</ele>
        <time>2023-08-07T15:23:31+02:00</time>
      </trkpt>
      <trkpt lat="44.11306" lon="6.636">
        <ele>1996.4004</ele>
        <time>2023-08-07T15:23:32+02:00</time>
      </trkpt>
      <trkpt lat="44.11294" lon="6.63599">
        <ele>1996</ele>
        <time>2023-08-07T15:23:36+02:00</time>
      </trkpt>
      <trkpt lat="44.11292" lon="6.63598">
        <ele>1996</ele>
        <time>2023-08-07T15:23:37+02:00</time>
      </trkpt>
      <trkpt lat="44.11281" lon="6.63596">
        <ele>1995.9004</ele>
        <time>2023-08-07T15:23:41+02:00</time>
      </trkpt>
      <trkpt lat="44.11277" lon="6.63595">
        <ele>1995.7998</ele>
        <time>2023-08-07T15:23:42+02:00</time>
      </trkpt>
      <trkpt lat="44.11264" lon="6.63594">
        <ele>1995.4004</ele>
        <time>2023-08-07T15:23:46+02:00</time>
      </trkpt>
      <trkpt lat="44.1126" lon="6.63595">
        <ele>1995.2002</ele>
        <time>2023-08-07T15:23:47+02:00</time>
      </trkpt>
      <trkpt lat="44.11248" lon="6.63596">
        <ele>1994.7998</ele>
        <time>2023-08-07T15:23:51+02:00</time>
      </trkpt>
      <trkpt lat="44.11244" lon="6.63596">
        <ele>1994.7998</ele>
        <time>2023-08-07T15:23:52+02:00</time>
      </trkpt>
      <trkpt lat="44.1123" lon="6.63597">
        <ele>1994.4004</ele>
        <time>2023-08-07T15:23:56+02:00</time>
      </trkpt>
      <trkpt lat="44.11227" lon="6.63597">
        <ele>1994.2998</ele>
        <time>2023-08-07T15:23:57+02:00</time>
      </trkpt>
      <trkpt lat="44.11216" lon="6.636">
        <ele>1996.7002</ele>
        <time>2023-08-07T15:24:01+02:00</time>
      </trkpt>
      <trkpt lat="44.11213" lon="6.63601">
        <ele>1996.7002</ele>
        <time>2023-08-07T15:24:02+02:00</time>
      </trkpt>
      <trkpt lat="44.11201" lon="6.63605">
        <ele>1996.9004</ele>
        <time>2023-08-07T15:24:06+02:00</time>
      </trkpt>
      <trkpt lat="44.11198" lon="6.63606">
        <ele>1997</ele>
        <time>2023-08-07T15:24:07+02:00</time>
      </trkpt>
      <trkpt lat="44.11186" lon="6.6361">
        <ele>1999.9004</ele>
        <time>2023-08-07T15:24:11+02:00</time>
      </trkpt>
      <trkpt lat="44.11183" lon="6.63611">
        <ele>1999.9004</ele>
        <time>2023-08-07T15:24:12+02:00</time>
      </trkpt>
      <trkpt lat="44.11171" lon="6.63615">
        <ele>2000.5</ele>
        <time>2023-08-07T15:24:16+02:00</time>
      </trkpt>
      <trkpt lat="44.11167" lon="6.63616">
        <ele>2000.7998</ele>
        <time>2023-08-07T15:24:17+02:00</time>
      </trkpt>
      <trkpt lat="44.11152" lon="6.63617">
        <ele>2001.7998</ele>
        <time>2023-08-07T15:24:21+02:00</time>
      </trkpt>
      <trkpt lat="44.11149" lon="6.63616">
        <ele>2002.2998</ele>
        <time>2023-08-07T15:24:22+02:00</time>
      </trkpt>
      <trkpt lat="44.11135" lon="6.63614">
        <ele>2003.9004</ele>
        <time>2023-08-07T15:24:26+02:00</time>
      </trkpt>
      <trkpt lat="44.11132" lon="6.63614">
        <ele>2003.9004</ele>
        <time>2023-08-07T15:24:27+02:00</time>
      </trkpt>
      <trkpt lat="44.11118" lon="6.63616">
        <ele>2007.2998</ele>
        <time>2023-08-07T15:24:31+02:00</time>
      </trkpt>
      <trkpt lat="44.11115" lon="6.63615">
        <ele>2007.2998</ele>
        <time>2023-08-07T15:24:32+02:00</time>
      </trkpt>
      <trkpt lat="44.11101" lon="6.63613">
        <ele>2010.4004</ele>
        <time>2023-08-07T15:24:36+02:00</time>
      </trkpt>
      <trkpt lat="44.11098" lon="6.63611">
        <ele>2012.2998</ele>
        <time>2023-08-07T15:24:37+02:00</time>
      </trkpt>
      <trkpt lat="44.11087" lon="6.63601">
        <ele>2014.2998</ele>
        <time>2023-08-07T15:24:41+02:00</time>
      </trkpt>
      <trkpt lat="44.11084" lon="6.63599">
        <ele>2012.2002</ele>
        <time>2023-08-07T15:24:42+02:00</time>
      </trkpt>
      <trkpt lat="44.11072" lon="6.63592">
        <ele>2016.7002</ele>
        <time>2023-08-07T15:24:46+02:00</time>
      </trkpt>
      <trkpt lat="44.11069" lon="6.6359">
        <ele>2017.1006</ele>
        <time>2023-08-07T15:24:47+02:00</time>
      </trkpt>
      <trkpt lat="44.11056" lon="6.63581">
        <ele>2020</ele>
        <time>2023-08-07T15:24:51+02:00</time>
      </trkpt>
      <trkpt lat="44.11053" lon="6.63578">
        <ele>2020</ele>
        <time>2023-08-07T15:24:52+02:00</time>
      </trkpt>
      <trkpt lat="44.11042" lon="6.63566">
        <ele>2022.9004</ele>
        <time>2023-08-07T15:24:56+02:00</time>
      </trkpt>
      <trkpt lat="44.1104" lon="6.63564">
        <ele>2021</ele>
        <time>2023-08-07T15:24:57+02:00</time>
      </trkpt>
      <trkpt lat="44.11028" lon="6.63553">
        <ele>2023.2998</ele>
        <time>2023-08-07T15:25:01+02:00</time>
      </trkpt>
      <trkpt lat="44.11025" lon="6.63551">
        <ele>2025.2998</ele>
        <time>2023-08-07T15:25:02+02:00</time>
      </trkpt>
      <trkpt lat="44.11014" lon="6.63541">
        <ele>2027.1006</ele>
        <time>2023-08-07T15:25:06+02:00</time>
      </trkpt>
      <trkpt lat="44.11012" lon="6.63537">
        <ele>2025.2002</ele>
        <time>2023-08-07T15:25:07+02:00</time>
      </trkpt>
      <trkpt lat="44.11003" lon="6.63524">
        <ele>2025</ele>
        <time>2023-08-07T15:25:11+02:00</time>
      </trkpt>
      <trkpt lat="44.11001" lon="6.63521">
        <ele>2024.9004</ele>
        <time>2023-08-07T15:25:12+02:00</time>
      </trkpt>
      <trkpt lat="44.10992" lon="6.63508">
        <ele>2024.7002</ele>
        <time>2023-08-07T15:25:16+02:00</time>
      </trkpt>
      <trkpt lat="44.10989" lon="6.63506">
        <ele>2026.2002</ele>
        <time>2023-08-07T15:25:17+02:00</time>
      </trkpt>
      <trkpt lat="44.10979" lon="6.63494">
        <ele>2024.5</ele>
        <time>2023-08-07T15:25:21+02:00</time>
      </trkpt>
      <trkpt lat="44.10977" lon="6.63491">
        <ele>2025.7998</ele>
        <time>2023-08-07T15:25:22+02:00</time>
      </trkpt>
      <trkpt lat="44.10968" lon="6.63476">
        <ele>2024</ele>
        <time>2023-08-07T15:25:26+02:00</time>
      </trkpt>
      <trkpt lat="44.10966" lon="6.63473">
        <ele>2024</ele>
        <time>2023-08-07T15:25:27+02:00</time>
      </trkpt>
      <trkpt lat="44.10955" lon="6.63459">
        <ele>2023</ele>
        <time>2023-08-07T15:25:31+02:00</time>
      </trkpt>
      <trkpt lat="44.10953" lon="6.63455">
        <ele>2023.7998</ele>
        <time>2023-08-07T15:25:32+02:00</time>
      </trkpt>
      <trkpt lat="44.10943" lon="6.63441">
        <ele>2021.1006</ele>
        <time>2023-08-07T15:25:36+02:00</time>
      </trkpt>
      <trkpt lat="44.1094" lon="6.63438">
        <ele>2021.7002</ele>
        <time>2023-08-07T15:25:37+02:00</time>
      </trkpt>
      <trkpt lat="44.1093" lon="6.63428">
        <ele>2018.4004</ele>
        <time>2023-08-07T15:25:41+02:00</time>
      </trkpt>
      <trkpt lat="44.10927" lon="6.63426">
        <ele>2018.5</ele>
        <time>2023-08-07T15:25:42+02:00</time>
      </trkpt>
      <trkpt lat="44.10917" lon="6.63415">
        <ele>2016.7002</ele>
        <time>2023-08-07T15:25:46+02:00</time>
      </trkpt>
      <trkpt lat="44.10915" lon="6.63413">
        <ele>2016.7998</ele>
        <time>2023-08-07T15:25:47+02:00</time>
      </trkpt>
      <trkpt lat="44.10905" lon="6.63403">
        <ele>2014.7998</ele>
        <time>2023-08-07T15:25:51+02:00</time>
      </trkpt>
      <trkpt lat="44.10902" lon="6.634">
        <ele>2012.7002</ele>
        <time>2023-08-07T15:25:52+02:00</time>
      </trkpt>
      <trkpt lat="44.1089" lon="6.63391">
        <ele>2010.6006</ele>
        <time>2023-08-07T15:25:56+02:00</time>
      </trkpt>
      <trkpt lat="44.10887" lon="6.63389">
        <ele>2010.6006</ele>
        <time>2023-08-07T15:25:57+02:00</time>
      </trkpt>
      <trkpt lat="44.10873" lon="6.63385">
        <ele>2008.6006</ele>
        <time>2023-08-07T15:26:01+02:00</time>
      </trkpt>
      <trkpt lat="44.10869" lon="6.63385">
        <ele>2008.7998</ele>
        <time>2023-08-07T15:26:02+02:00</time>
      </trkpt>
      <trkpt lat="44.10855" lon="6.63383">
        <ele>2009.2002</ele>
        <time>2023-08-07T15:26:06+02:00</time>
      </trkpt>
      <trkpt lat="44.10852" lon="6.63383">
        <ele>2009.4004</ele>
        <time>2023-08-07T15:26:07+02:00</time>
      </trkpt>
      <trkpt lat="44.10838" lon="6.63382">
        <ele>2009.7002</ele>
        <time>2023-08-07T15:26:11+02:00</time>
      </trkpt>
      <trkpt lat="44.10835" lon="6.63382">
        <ele>2009.9004</ele>
        <time>2023-08-07T15:26:12+02:00</time>
      </trkpt>
      <trkpt lat="44.10821" lon="6.63381">
        <ele>2010.4004</ele>
        <time>2023-08-07T15:26:16+02:00</time>
      </trkpt>
      <trkpt lat="44.10817" lon="6.6338">
        <ele>2010.4004</ele>
        <time>2023-08-07T15:26:17+02:00</time>
      </trkpt>
      <trkpt lat="44.10803" lon="6.6338">
        <ele>2012.1006</ele>
        <time>2023-08-07T15:26:21+02:00</time>
      </trkpt>
      <trkpt lat="44.10799" lon="6.6338">
        <ele>2012.1006</ele>
        <time>2023-08-07T15:26:22+02:00</time>
      </trkpt>
      <trkpt lat="44.10785" lon="6.63381">
        <ele>2014.7002</ele>
        <time>2023-08-07T15:26:26+02:00</time>
      </trkpt>
      <trkpt lat="44.10782" lon="6.63381">
        <ele>2014.7002</ele>
        <time>2023-08-07T15:26:27+02:00</time>
      </trkpt>
      <trkpt lat="44.1077" lon="6.63381">
        <ele>2017.2002</ele>
        <time>2023-08-07T15:26:31+02:00</time>
      </trkpt>
      <trkpt lat="44.10767" lon="6.63381">
        <ele>2018.5</ele>
        <time>2023-08-07T15:26:32+02:00</time>
      </trkpt>
      <trkpt lat="44.10754" lon="6.63382">
        <ele>2021.2002</ele>
        <time>2023-08-07T15:26:36+02:00</time>
      </trkpt>
      <trkpt lat="44.1075" lon="6.63381">
        <ele>2021.2002</ele>
        <time>2023-08-07T15:26:37+02:00</time>
      </trkpt>
      <trkpt lat="44.10738" lon="6.63375">
        <ele>2021.6006</ele>
        <time>2023-08-07T15:26:41+02:00</time>
      </trkpt>
      <trkpt lat="44.10736" lon="6.63372">
        <ele>2023</ele>
        <time>2023-08-07T15:26:42+02:00</time>
      </trkpt>
      <trkpt lat="44.10722" lon="6.63365">
        <ele>2023.5</ele>
        <time>2023-08-07T15:26:46+02:00</time>
      </trkpt>
      <trkpt lat="44.10719" lon="6.63363">
        <ele>2024.7002</ele>
        <time>2023-08-07T15:26:47+02:00</time>
      </trkpt>
      <trkpt lat="44.10706" lon="6.63356">
        <ele>2025.2998</ele>
        <time>2023-08-07T15:26:51+02:00</time>
      </trkpt>
      <trkpt lat="44.10703" lon="6.63354">
        <ele>2025.2998</ele>
        <time>2023-08-07T15:26:52+02:00</time>
      </trkpt>
      <trkpt lat="44.10691" lon="6.63346">
        <ele>2025.7002</ele>
        <time>2023-08-07T15:26:56+02:00</time>
      </trkpt>
      <trkpt lat="44.10688" lon="6.63344">
        <ele>2025.7002</ele>
        <time>2023-08-07T15:26:57+02:00</time>
      </trkpt>
      <trkpt lat="44.10679" lon="6.63332">
        <ele>2024.1006</ele>
        <time>2023-08-07T15:27:01+02:00</time>
      </trkpt>
      <trkpt lat="44.10676" lon="6.63328">
        <ele>2024.1006</ele>
        <time>2023-08-07T15:27:02+02:00</time>
      </trkpt>
      <trkpt lat="44.10663" lon="6.63318">
        <ele>2023.5</ele>
        <time>2023-08-07T15:27:06+02:00</time>
      </trkpt>
      <trkpt lat="44.1066" lon="6.63316">
        <ele>2022.2002</ele>
        <time>2023-08-07T15:27:07+02:00</time>
      </trkpt>
      <trkpt lat="44.10647" lon="6.63307">
        <ele>2021.2002</ele>
        <time>2023-08-07T15:27:11+02:00</time>
      </trkpt>
      <trkpt lat="44.10644" lon="6.63305">
        <ele>2021.4004</ele>
        <time>2023-08-07T15:27:12+02:00</time>
      </trkpt>
      <trkpt lat="44.10632" lon="6.63297">
        <ele>2020.4004</ele>
        <time>2023-08-07T15:27:16+02:00</time>
      </trkpt>
      <trkpt lat="44.10629" lon="6.63296">
        <ele>2020.4004</ele>
        <time>2023-08-07T15:27:17+02:00</time>
      </trkpt>
      <trkpt lat="44.10616" lon="6.63292">
        <ele>2020.7998</ele>
        <time>2023-08-07T15:27:21+02:00</time>
      </trkpt>
      <trkpt lat="44.10613" lon="6.63291">
        <ele>2021</ele>
        <time>2023-08-07T15:27:22+02:00</time>
      </trkpt>
      <trkpt lat="44.10602" lon="6.63285">
        <ele>2019.5</ele>
        <time>2023-08-07T15:27:26+02:00</time>
      </trkpt>
      <trkpt lat="44.10599" lon="6.63283">
        <ele>2019.5</ele>
        <time>2023-08-07T15:27:27+02:00</time>
      </trkpt>
      <trkpt lat="44.10585" lon="6.63276">
        <ele>2017.7002</ele>
        <time>2023-08-07T15:27:31+02:00</time>
      </trkpt>
      <trkpt lat="44.10582" lon="6.63274">
        <ele>2017.5</ele>
        <time>2023-08-07T15:27:32+02:00</time>
      </trkpt>
      <trkpt lat="44.10571" lon="6.63269">
        <ele>2015.4004</ele>
        <time>2023-08-07T15:27:36+02:00</time>
      </trkpt>
      <trkpt lat="44.10568" lon="6.63268">
        <ele>2015.1006</ele>
        <time>2023-08-07T15:27:37+02:00</time>
      </trkpt>
      <trkpt lat="44.10556" lon="6.63265">
        <ele>2012.2998</ele>
        <time>2023-08-07T15:27:41+02:00</time>
      </trkpt>
      <trkpt lat="44.10554" lon="6.63264">
        <ele>2012.2998</ele>
        <time>2023-08-07T15:27:42+02:00</time>
      </trkpt>
      <trkpt lat="44.10542" lon="6.63258">
        <ele>2010.6006</ele>
        <time>2023-08-07T15:27:46+02:00</time>
      </trkpt>
      <trkpt lat="44.10539" lon="6.63258">
        <ele>2009.1006</ele>
        <time>2023-08-07T15:27:47+02:00</time>
      </trkpt>
      <trkpt lat="44.10529" lon="6.63267">
        <ele>2009</ele>
        <time>2023-08-07T15:27:51+02:00</time>
      </trkpt>
      <trkpt lat="44.10527" lon="6.63272">
        <ele>2007</ele>
        <time>2023-08-07T15:27:52+02:00</time>
      </trkpt>
      <trkpt lat="44.10524" lon="6.6329">
        <ele>2009.7002</ele>
        <time>2023-08-07T15:27:56+02:00</time>
      </trkpt>
      <trkpt lat="44.10524" lon="6.63293">
        <ele>2010.7998</ele>
        <time>2023-08-07T15:27:57+02:00</time>
      </trkpt>
      <trkpt lat="44.10522" lon="6.63308">
        <ele>2013.1006</ele>
        <time>2023-08-07T15:28:01+02:00</time>
      </trkpt>
      <trkpt lat="44.10521" lon="6.63312">
        <ele>2010.5</ele>
        <time>2023-08-07T15:28:02+02:00</time>
      </trkpt>
      <trkpt lat="44.10517" lon="6.63327">
        <ele>2012.2998</ele>
        <time>2023-08-07T15:28:06+02:00</time>
      </trkpt>
      <trkpt lat="44.10517" lon="6.63331">
        <ele>2012.2998</ele>
        <time>2023-08-07T15:28:07+02:00</time>
      </trkpt>
      <trkpt lat="44.10518" lon="6.63344">
        <ele>2014</ele>
        <time>2023-08-07T15:28:11+02:00</time>
      </trkpt>
      <trkpt lat="44.10518" lon="6.63348">
        <ele>2014</ele>
        <time>2023-08-07T15:28:12+02:00</time>
      </trkpt>
      <trkpt lat="44.10518" lon="6.63364">
        <ele>2015.5</ele>
        <time>2023-08-07T15:28:16+02:00</time>
      </trkpt>
      <trkpt lat="44.10517" lon="6.63368">
        <ele>2015.5</ele>
        <time>2023-08-07T15:28:17+02:00</time>
      </trkpt>
      <trkpt lat="44.10516" lon="6.63384">
        <ele>2016.9004</ele>
        <time>2023-08-07T15:28:21+02:00</time>
      </trkpt>
      <trkpt lat="44.10516" lon="6.63388">
        <ele>2017.6006</ele>
        <time>2023-08-07T15:28:22+02:00</time>
      </trkpt>
      <trkpt lat="44.10515" lon="6.63403">
        <ele>2015.7002</ele>
        <time>2023-08-07T15:28:26+02:00</time>
      </trkpt>
      <trkpt lat="44.10514" lon="6.63407">
        <ele>2015.7002</ele>
        <time>2023-08-07T15:28:27+02:00</time>
      </trkpt>
      <trkpt lat="44.10511" lon="6.63422">
        <ele>2017.2998</ele>
        <time>2023-08-07T15:28:31+02:00</time>
      </trkpt>
      <trkpt lat="44.10511" lon="6.63426">
        <ele>2017.2998</ele>
        <time>2023-08-07T15:28:32+02:00</time>
      </trkpt>
      <trkpt lat="44.10509" lon="6.63441">
        <ele>2018.7002</ele>
        <time>2023-08-07T15:28:36+02:00</time>
      </trkpt>
      <trkpt lat="44.10509" lon="6.63445">
        <ele>2014.7998</ele>
        <time>2023-08-07T15:28:37+02:00</time>
      </trkpt>
      <trkpt lat="44.10505" lon="6.6346">
        <ele>2016.1006</ele>
        <time>2023-08-07T15:28:41+02:00</time>
      </trkpt>
      <trkpt lat="44.10504" lon="6.63463">
        <ele>2016.7002</ele>
        <time>2023-08-07T15:28:42+02:00</time>
      </trkpt>
      <trkpt lat="44.105" lon="6.63476">
        <ele>2013.2998</ele>
        <time>2023-08-07T15:28:46+02:00</time>
      </trkpt>
      <trkpt lat="44.10499" lon="6.6348">
        <ele>2013.7998</ele>
        <time>2023-08-07T15:28:47+02:00</time>
      </trkpt>
      <trkpt lat="44.10496" lon="6.63498">
        <ele>2010.7998</ele>
        <time>2023-08-07T15:28:51+02:00</time>
      </trkpt>
      <trkpt lat="44.10495" lon="6.63502">
        <ele>2010.7998</ele>
        <time>2023-08-07T15:28:52+02:00</time>
      </trkpt>
      <trkpt lat="44.10489" lon="6.63514">
        <ele>2008</ele>
        <time>2023-08-07T15:28:56+02:00</time>
      </trkpt>
      <trkpt lat="44.10487" lon="6.63518">
        <ele>2008</ele>
        <time>2023-08-07T15:28:57+02:00</time>
      </trkpt>
      <trkpt lat="44.10481" lon="6.63533">
        <ele>2005.2002</ele>
        <time>2023-08-07T15:29:01+02:00</time>
      </trkpt>
      <trkpt lat="44.1048" lon="6.63537">
        <ele>2005.2002</ele>
        <time>2023-08-07T15:29:02+02:00</time>
      </trkpt>
      <trkpt lat="44.10477" lon="6.63554">
        <ele>2002.4004</ele>
        <time>2023-08-07T15:29:06+02:00</time>
      </trkpt>
      <trkpt lat="44.10477" lon="6.63558">
        <ele>2002.6006</ele>
        <time>2023-08-07T15:29:07+02:00</time>
      </trkpt>
      <trkpt lat="44.10479" lon="6.63575">
        <ele>2006</ele>
        <time>2023-08-07T15:29:11+02:00</time>
      </trkpt>
      <trkpt lat="44.10481" lon="6.63578">
        <ele>2006</ele>
        <time>2023-08-07T15:29:12+02:00</time>
      </trkpt>
      <trkpt lat="44.10488" lon="6.63592">
        <ele>2008.7998</ele>
        <time>2023-08-07T15:29:16+02:00</time>
      </trkpt>
      <trkpt lat="44.1049" lon="6.63596">
        <ele>2008.7998</ele>
        <time>2023-08-07T15:29:17+02:00</time>
      </trkpt>
      <trkpt lat="44.10498" lon="6.63609">
        <ele>2014.2998</ele>
        <time>2023-08-07T15:29:21+02:00</time>
      </trkpt>
      <trkpt lat="44.105" lon="6.63612">
        <ele>2014.2998</ele>
        <time>2023-08-07T15:29:22+02:00</time>
      </trkpt>
      <trkpt lat="44.10507" lon="6.63624">
        <ele>2016.7002</ele>
        <time>2023-08-07T15:29:26+02:00</time>
      </trkpt>
      <trkpt lat="44.10508" lon="6.63627">
        <ele>2015.7002</ele>
        <time>2023-08-07T15:29:27+02:00</time>
      </trkpt>
      <trkpt lat="44.10514" lon="6.63638">
        <ele>2017.7002</ele>
        <time>2023-08-07T15:29:31+02:00</time>
      </trkpt>
      <trkpt lat="44.10515" lon="6.63642">
        <ele>2017.7002</ele>
        <time>2023-08-07T15:29:32+02:00</time>
      </trkpt>
      <trkpt lat="44.10519" lon="6.63653">
        <ele>2018.2002</ele>
        <time>2023-08-07T15:29:36+02:00</time>
      </trkpt>
      <trkpt lat="44.10521" lon="6.63656">
        <ele>2018.2002</ele>
        <time>2023-08-07T15:29:37+02:00</time>
      </trkpt>
      <trkpt lat="44.10527" lon="6.6367">
        <ele>2018.1006</ele>
        <time>2023-08-07T15:29:41+02:00</time>
      </trkpt>
      <trkpt lat="44.10529" lon="6.63674">
        <ele>2021.2998</ele>
        <time>2023-08-07T15:29:42+02:00</time>
      </trkpt>
      <trkpt lat="44.10536" lon="6.63686">
        <ele>2020.7002</ele>
        <time>2023-08-07T15:29:46+02:00</time>
      </trkpt>
      <trkpt lat="44.10538" lon="6.63689">
        <ele>2020.7002</ele>
        <time>2023-08-07T15:29:47+02:00</time>
      </trkpt>
      <trkpt lat="44.10546" lon="6.63699">
        <ele>2025.1006</ele>
        <time>2023-08-07T15:29:51+02:00</time>
      </trkpt>
      <trkpt lat="44.10549" lon="6.63701">
        <ele>2025.1006</ele>
        <time>2023-08-07T15:29:52+02:00</time>
      </trkpt>
      <trkpt lat="44.10558" lon="6.6371">
        <ele>2026.4004</ele>
        <time>2023-08-07T15:29:56+02:00</time>
      </trkpt>
      <trkpt lat="44.1056" lon="6.63712">
        <ele>2027.6006</ele>
        <time>2023-08-07T15:29:57+02:00</time>
      </trkpt>
      <trkpt lat="44.10569" lon="6.63719">
        <ele>2030.7998</ele>
        <time>2023-08-07T15:30:01+02:00</time>
      </trkpt>
      <trkpt lat="44.10572" lon="6.6372">
        <ele>2032.1006</ele>
        <time>2023-08-07T15:30:02+02:00</time>
      </trkpt>
      <trkpt lat="44.1058" lon="6.63728">
        <ele>2035.2002</ele>
        <time>2023-08-07T15:30:06+02:00</time>
      </trkpt>
      <trkpt lat="44.10582" lon="6.63731">
        <ele>2033.2002</ele>
        <time>2023-08-07T15:30:07+02:00</time>
      </trkpt>
      <trkpt lat="44.1059" lon="6.63741">
        <ele>2037.5</ele>
        <time>2023-08-07T15:30:11+02:00</time>
      </trkpt>
      <trkpt lat="44.10592" lon="6.63744">
        <ele>2037.5</ele>
        <time>2023-08-07T15:30:12+02:00</time>
      </trkpt>
      <trkpt lat="44.106" lon="6.63756">
        <ele>2037</ele>
        <time>2023-08-07T15:30:16+02:00</time>
      </trkpt>
      <trkpt lat="44.10602" lon="6.63759">
        <ele>2040.2002</ele>
        <time>2023-08-07T15:30:17+02:00</time>
      </trkpt>
      <trkpt lat="44.10609" lon="6.63771">
        <ele>2041.7002</ele>
        <time>2023-08-07T15:30:21+02:00</time>
      </trkpt>
      <trkpt lat="44.10611" lon="6.63774">
        <ele>2040.1006</ele>
        <time>2023-08-07T15:30:22+02:00</time>
      </trkpt>
      <trkpt lat="44.10617" lon="6.63788">
        <ele>2041.7998</ele>
        <time>2023-08-07T15:30:26+02:00</time>
      </trkpt>
      <trkpt lat="44.10619" lon="6.63792">
        <ele>2040.1006</ele>
        <time>2023-08-07T15:30:27+02:00</time>
      </trkpt>
      <trkpt lat="44.10623" lon="6.63806">
        <ele>2040.2002</ele>
        <time>2023-08-07T15:30:31+02:00</time>
      </trkpt>
      <trkpt lat="44.10624" lon="6.6381">
        <ele>2040.2002</ele>
        <time>2023-08-07T15:30:32+02:00</time>
      </trkpt>
      <trkpt lat="44.10628" lon="6.63824">
        <ele>2040.2998</ele>
        <time>2023-08-07T15:30:36+02:00</time>
      </trkpt>
      <trkpt lat="44.10629" lon="6.63827">
        <ele>2040.2998</ele>
        <time>2023-08-07T15:30:37+02:00</time>
      </trkpt>
      <trkpt lat="44.10632" lon="6.63841">
        <ele>2036.4004</ele>
        <time>2023-08-07T15:30:41+02:00</time>
      </trkpt>
      <trkpt lat="44.10634" lon="6.63844">
        <ele>2040.2998</ele>
        <time>2023-08-07T15:30:42+02:00</time>
      </trkpt>
      <trkpt lat="44.10639" lon="6.63857">
        <ele>2042.1006</ele>
        <time>2023-08-07T15:30:46+02:00</time>
      </trkpt>
      <trkpt lat="44.1064" lon="6.63861">
        <ele>2040</ele>
        <time>2023-08-07T15:30:47+02:00</time>
      </trkpt>
      <trkpt lat="44.10644" lon="6.63876">
        <ele>2035.5</ele>
        <time>2023-08-07T15:30:51+02:00</time>
      </trkpt>
      <trkpt lat="44.10646" lon="6.63879">
        <ele>2039.5</ele>
        <time>2023-08-07T15:30:52+02:00</time>
      </trkpt>
      <trkpt lat="44.1065" lon="6.63895">
        <ele>2035.1006</ele>
        <time>2023-08-07T15:30:56+02:00</time>
      </trkpt>
      <trkpt lat="44.10651" lon="6.63899">
        <ele>2035.1006</ele>
        <time>2023-08-07T15:30:57+02:00</time>
      </trkpt>
      <trkpt lat="44.10655" lon="6.63912">
        <ele>2034.9004</ele>
        <time>2023-08-07T15:31:01+02:00</time>
      </trkpt>
      <trkpt lat="44.10656" lon="6.63916">
        <ele>2034.9004</ele>
        <time>2023-08-07T15:31:02+02:00</time>
      </trkpt>
      <trkpt lat="44.10659" lon="6.6393">
        <ele>2034.9004</ele>
        <time>2023-08-07T15:31:06+02:00</time>
      </trkpt>
      <trkpt lat="44.1066" lon="6.63934">
        <ele>2034.9004</ele>
        <time>2023-08-07T15:31:07+02:00</time>
      </trkpt>
      <trkpt lat="44.10663" lon="6.6395">
        <ele>2030.6006</ele>
        <time>2023-08-07T15:31:11+02:00</time>
      </trkpt>
      <trkpt lat="44.10664" lon="6.63954">
        <ele>2032.7998</ele>
        <time>2023-08-07T15:31:12+02:00</time>
      </trkpt>
      <trkpt lat="44.10667" lon="6.63969">
        <ele>2028.7998</ele>
        <time>2023-08-07T15:31:16+02:00</time>
      </trkpt>
      <trkpt lat="44.10668" lon="6.63973">
        <ele>2028.7998</ele>
        <time>2023-08-07T15:31:17+02:00</time>
      </trkpt>
      <trkpt lat="44.10672" lon="6.63987">
        <ele>2029.6006</ele>
        <time>2023-08-07T15:31:21+02:00</time>
      </trkpt>
      <trkpt lat="44.10673" lon="6.63991">
        <ele>2029.6006</ele>
        <time>2023-08-07T15:31:22+02:00</time>
      </trkpt>
      <trkpt lat="44.10675" lon="6.64006">
        <ele>2026.5</ele>
        <time>2023-08-07T15:31:26+02:00</time>
      </trkpt>
      <trkpt lat="44.10676" lon="6.6401">
        <ele>2030.7998</ele>
        <time>2023-08-07T15:31:27+02:00</time>
      </trkpt>
      <trkpt lat="44.10677" lon="6.64025">
        <ele>2028.2002</ele>
        <time>2023-08-07T15:31:31+02:00</time>
      </trkpt>
      <trkpt lat="44.10678" lon="6.64029">
        <ele>2028.2002</ele>
        <time>2023-08-07T15:31:32+02:00</time>
      </trkpt>
      <trkpt lat="44.10679" lon="6.64045">
        <ele>2026.2002</ele>
        <time>2023-08-07T15:31:36+02:00</time>
      </trkpt>
      <trkpt lat="44.10679" lon="6.64049">
        <ele>2025.4004</ele>
        <time>2023-08-07T15:31:37+02:00</time>
      </trkpt>
      <trkpt lat="44.10679" lon="6.64064">
        <ele>2024.2998</ele>
        <time>2023-08-07T15:31:41+02:00</time>
      </trkpt>
      <trkpt lat="44.10679" lon="6.64068">
        <ele>2024.2998</ele>
        <time>2023-08-07T15:31:42+02:00</time>
      </trkpt>
      <trkpt lat="44.10678" lon="6.64085">
        <ele>2023.7002</ele>
        <time>2023-08-07T15:31:46+02:00</time>
      </trkpt>
      <trkpt lat="44.10678" lon="6.64089">
        <ele>2023.7002</ele>
        <time>2023-08-07T15:31:47+02:00</time>
      </trkpt>
      <trkpt lat="44.1068" lon="6.64105">
        <ele>2024</ele>
        <time>2023-08-07T15:31:51+02:00</time>
      </trkpt>
      <trkpt lat="44.1068" lon="6.64108">
        <ele>2024.5</ele>
        <time>2023-08-07T15:31:52+02:00</time>
      </trkpt>
      <trkpt lat="44.10684" lon="6.64122">
        <ele>2029.1006</ele>
        <time>2023-08-07T15:31:56+02:00</time>
      </trkpt>
      <trkpt lat="44.10685" lon="6.64125">
        <ele>2029.9004</ele>
        <time>2023-08-07T15:31:57+02:00</time>
      </trkpt>
      <trkpt lat="44.10691" lon="6.64133">
        <ele>2035</ele>
        <time>2023-08-07T15:32:01+02:00</time>
      </trkpt>
      <trkpt lat="44.10694" lon="6.64136">
        <ele>2035</ele>
        <time>2023-08-07T15:32:02+02:00</time>
      </trkpt>
      <trkpt lat="44.10698" lon="6.64145">
        <ele>2040.5</ele>
        <time>2023-08-07T15:32:06+02:00</time>
      </trkpt>
      <trkpt lat="44.10697" lon="6.64149">
        <ele>2040.5</ele>
        <time>2023-08-07T15:32:07+02:00</time>
      </trkpt>
      <trkpt lat="44.1069" lon="6.6416">
        <ele>2038.6006</ele>
        <time>2023-08-07T15:32:11+02:00</time>
      </trkpt>
      <trkpt lat="44.10688" lon="6.64162">
        <ele>2038.6006</ele>
        <time>2023-08-07T15:32:12+02:00</time>
      </trkpt>
      <trkpt lat="44.10681" lon="6.6417">
        <ele>2032.4004</ele>
        <time>2023-08-07T15:32:16+02:00</time>
      </trkpt>
      <trkpt lat="44.10679" lon="6.64173">
        <ele>2032.4004</ele>
        <time>2023-08-07T15:32:17+02:00</time>
      </trkpt>
      <trkpt lat="44.10675" lon="6.64184">
        <ele>2032.5</ele>
        <time>2023-08-07T15:32:21+02:00</time>
      </trkpt>
      <trkpt lat="44.10675" lon="6.64187">
        <ele>2032.5</ele>
        <time>2023-08-07T15:32:22+02:00</time>
      </trkpt>
      <trkpt lat="44.10669" lon="6.64199">
        <ele>2034.4004</ele>
        <time>2023-08-07T15:32:26+02:00</time>
      </trkpt>
      <trkpt lat="44.10668" lon="6.64203">
        <ele>2033.2998</ele>
        <time>2023-08-07T15:32:27+02:00</time>
      </trkpt>
      <trkpt lat="44.10665" lon="6.64216">
        <ele>2035.4004</ele>
        <time>2023-08-07T15:32:31+02:00</time>
      </trkpt>
      <trkpt lat="44.10664" lon="6.64219">
        <ele>2037.5</ele>
        <time>2023-08-07T15:32:32+02:00</time>
      </trkpt>
      <trkpt lat="44.1066" lon="6.64233">
        <ele>2036.5</ele>
        <time>2023-08-07T15:32:36+02:00</time>
      </trkpt>
      <trkpt lat="44.10658" lon="6.64237">
        <ele>2038.4004</ele>
        <time>2023-08-07T15:32:37+02:00</time>
      </trkpt>
      <trkpt lat="44.10653" lon="6.64247">
        <ele>2037.5</ele>
        <time>2023-08-07T15:32:41+02:00</time>
      </trkpt>
      <trkpt lat="44.10652" lon="6.6425">
        <ele>2037.5</ele>
        <time>2023-08-07T15:32:42+02:00</time>
      </trkpt>
      <trkpt lat="44.10647" lon="6.6426">
        <ele>2036.7002</ele>
        <time>2023-08-07T15:32:46+02:00</time>
      </trkpt>
      <trkpt lat="44.10645" lon="6.64263">
        <ele>2038.7002</ele>
        <time>2023-08-07T15:32:47+02:00</time>
      </trkpt>
      <trkpt lat="44.10638" lon="6.64276">
        <ele>2034.7998</ele>
        <time>2023-08-07T15:32:51+02:00</time>
      </trkpt>
      <trkpt lat="44.10636" lon="6.64279">
        <ele>2036.6006</ele>
        <time>2023-08-07T15:32:52+02:00</time>
      </trkpt>
      <trkpt lat="44.10628" lon="6.64288">
        <ele>2035.4004</ele>
        <time>2023-08-07T15:32:56+02:00</time>
      </trkpt>
      <trkpt lat="44.10626" lon="6.6429">
        <ele>2032.2998</ele>
        <time>2023-08-07T15:32:57+02:00</time>
      </trkpt>
      <trkpt lat="44.10619" lon="6.64297">
        <ele>2030.7002</ele>
        <time>2023-08-07T15:33:01+02:00</time>
      </trkpt>
      <trkpt lat="44.10617" lon="6.64299">
        <ele>2030.7002</ele>
        <time>2023-08-07T15:33:02+02:00</time>
      </trkpt>
      <trkpt lat="44.10613" lon="6.64313">
        <ele>2030</ele>
        <time>2023-08-07T15:33:06+02:00</time>
      </trkpt>
      <trkpt lat="44.10613" lon="6.64317">
        <ele>2030</ele>
        <time>2023-08-07T15:33:07+02:00</time>
      </trkpt>
      <trkpt lat="44.10609" lon="6.64331">
        <ele>2032.1006</ele>
        <time>2023-08-07T15:33:11+02:00</time>
      </trkpt>
      <trkpt lat="44.10609" lon="6.64335">
        <ele>2032.1006</ele>
        <time>2023-08-07T15:33:12+02:00</time>
      </trkpt>
      <trkpt lat="44.10608" lon="6.6435">
        <ele>2030.1006</ele>
        <time>2023-08-07T15:33:16+02:00</time>
      </trkpt>
      <trkpt lat="44.10607" lon="6.64354">
        <ele>2030.1006</ele>
        <time>2023-08-07T15:33:17+02:00</time>
      </trkpt>
      <trkpt lat="44.10607" lon="6.6437">
        <ele>2030.7002</ele>
        <time>2023-08-07T15:33:21+02:00</time>
      </trkpt>
      <trkpt lat="44.10607" lon="6.64374">
        <ele>2030.5</ele>
        <time>2023-08-07T15:33:22+02:00</time>
      </trkpt>
      <trkpt lat="44.10609" lon="6.64389">
        <ele>2033.7002</ele>
        <time>2023-08-07T15:33:26+02:00</time>
      </trkpt>
      <trkpt lat="44.1061" lon="6.64393">
        <ele>2033.1006</ele>
        <time>2023-08-07T15:33:27+02:00</time>
      </trkpt>
      <trkpt lat="44.10617" lon="6.64405">
        <ele>2035.7002</ele>
        <time>2023-08-07T15:33:31+02:00</time>
      </trkpt>
      <trkpt lat="44.10619" lon="6.64408">
        <ele>2034.5</ele>
        <time>2023-08-07T15:33:32+02:00</time>
      </trkpt>
      <trkpt lat="44.10629" lon="6.64417">
        <ele>2040.2002</ele>
        <time>2023-08-07T15:33:36+02:00</time>
      </trkpt>
      <trkpt lat="44.10631" lon="6.64419">
        <ele>2040.2002</ele>
        <time>2023-08-07T15:33:37+02:00</time>
      </trkpt>
      <trkpt lat="44.10639" lon="6.64427">
        <ele>2044.9004</ele>
        <time>2023-08-07T15:33:41+02:00</time>
      </trkpt>
      <trkpt lat="44.10641" lon="6.6443">
        <ele>2044.9004</ele>
        <time>2023-08-07T15:33:42+02:00</time>
      </trkpt>
      <trkpt lat="44.10651" lon="6.64439">
        <ele>2045.7002</ele>
        <time>2023-08-07T15:33:46+02:00</time>
      </trkpt>
      <trkpt lat="44.10653" lon="6.64441">
        <ele>2048.2998</ele>
        <time>2023-08-07T15:33:47+02:00</time>
      </trkpt>
      <trkpt lat="44.10663" lon="6.64449">
        <ele>2048.6006</ele>
        <time>2023-08-07T15:33:51+02:00</time>
      </trkpt>
      <trkpt lat="44.10666" lon="6.64451">
        <ele>2048.4004</ele>
        <time>2023-08-07T15:33:52+02:00</time>
      </trkpt>
      <trkpt lat="44.10676" lon="6.64459">
        <ele>2050.1006</ele>
        <time>2023-08-07T15:33:56+02:00</time>
      </trkpt>
      <trkpt lat="44.10678" lon="6.64461">
        <ele>2050.1006</ele>
        <time>2023-08-07T15:33:57+02:00</time>
      </trkpt>
      <trkpt lat="44.10688" lon="6.64467">
        <ele>2049</ele>
        <time>2023-08-07T15:34:01+02:00</time>
      </trkpt>
      <trkpt lat="44.1069" lon="6.64469">
        <ele>2051.2002</ele>
        <time>2023-08-07T15:34:02+02:00</time>
      </trkpt>
      <trkpt lat="44.10699" lon="6.64475">
        <ele>2053.2998</ele>
        <time>2023-08-07T15:34:06+02:00</time>
      </trkpt>
      <trkpt lat="44.10701" lon="6.64476">
        <ele>2052</ele>
        <time>2023-08-07T15:34:07+02:00</time>
      </trkpt>
      <trkpt lat="44.10712" lon="6.64482">
        <ele>2054.2002</ele>
        <time>2023-08-07T15:34:11+02:00</time>
      </trkpt>
      <trkpt lat="44.10715" lon="6.64484">
        <ele>2056.2998</ele>
        <time>2023-08-07T15:34:12+02:00</time>
      </trkpt>
      <trkpt lat="44.10727" lon="6.64487">
        <ele>2057.2998</ele>
        <time>2023-08-07T15:34:16+02:00</time>
      </trkpt>
      <trkpt lat="44.1073" lon="6.64489">
        <ele>2057.2998</ele>
        <time>2023-08-07T15:34:17+02:00</time>
      </trkpt>
      <trkpt lat="44.1074" lon="6.64494">
        <ele>2058.1006</ele>
        <time>2023-08-07T15:34:21+02:00</time>
      </trkpt>
      <trkpt lat="44.10743" lon="6.64496">
        <ele>2059.9004</ele>
        <time>2023-08-07T15:34:22+02:00</time>
      </trkpt>
      <trkpt lat="44.10755" lon="6.64501">
        <ele>2061.5</ele>
        <time>2023-08-07T15:34:26+02:00</time>
      </trkpt>
      <trkpt lat="44.10757" lon="6.64503">
        <ele>2059.7998</ele>
        <time>2023-08-07T15:34:27+02:00</time>
      </trkpt>
      <trkpt lat="44.1077" lon="6.64507">
        <ele>2062.5</ele>
        <time>2023-08-07T15:34:31+02:00</time>
      </trkpt>
      <trkpt lat="44.10773" lon="6.64508">
        <ele>2062.5</ele>
        <time>2023-08-07T15:34:32+02:00</time>
      </trkpt>
      <trkpt lat="44.10785" lon="6.64513">
        <ele>2060.7998</ele>
        <time>2023-08-07T15:34:36+02:00</time>
      </trkpt>
      <trkpt lat="44.10788" lon="6.64514">
        <ele>2061.7002</ele>
        <time>2023-08-07T15:34:37+02:00</time>
      </trkpt>
      <trkpt lat="44.108" lon="6.64521">
        <ele>2059.1006</ele>
        <time>2023-08-07T15:34:41+02:00</time>
      </trkpt>
      <trkpt lat="44.10803" lon="6.64523">
        <ele>2059.1006</ele>
        <time>2023-08-07T15:34:42+02:00</time>
      </trkpt>
      <trkpt lat="44.10814" lon="6.6453">
        <ele>2056</ele>
        <time>2023-08-07T15:34:46+02:00</time>
      </trkpt>
      <trkpt lat="44.10816" lon="6.64531">
        <ele>2056</ele>
        <time>2023-08-07T15:34:47+02:00</time>
      </trkpt>
      <trkpt lat="44.10827" lon="6.64538">
        <ele>2053.1006</ele>
        <time>2023-08-07T15:34:51+02:00</time>
      </trkpt>
      <trkpt lat="44.1083" lon="6.6454">
        <ele>2053.9004</ele>
        <time>2023-08-07T15:34:52+02:00</time>
      </trkpt>
      <trkpt lat="44.10841" lon="6.6455">
        <ele>2050.2002</ele>
        <time>2023-08-07T15:34:56+02:00</time>
      </trkpt>
      <trkpt lat="44.10844" lon="6.64553">
        <ele>2046.6006</ele>
        <time>2023-08-07T15:34:57+02:00</time>
      </trkpt>
      <trkpt lat="44.10854" lon="6.64562">
        <ele>2043.9004</ele>
        <time>2023-08-07T15:35:01+02:00</time>
      </trkpt>
      <trkpt lat="44.10857" lon="6.64564">
        <ele>2043.9004</ele>
        <time>2023-08-07T15:35:02+02:00</time>
      </trkpt>
      <trkpt lat="44.10868" lon="6.64575">
        <ele>2042.2998</ele>
        <time>2023-08-07T15:35:06+02:00</time>
      </trkpt>
      <trkpt lat="44.10871" lon="6.64578">
        <ele>2042.2998</ele>
        <time>2023-08-07T15:35:07+02:00</time>
      </trkpt>
      <trkpt lat="44.10882" lon="6.64591">
        <ele>2039.9004</ele>
        <time>2023-08-07T15:35:11+02:00</time>
      </trkpt>
      <trkpt lat="44.10885" lon="6.64595">
        <ele>2039.9004</ele>
        <time>2023-08-07T15:35:12+02:00</time>
      </trkpt>
      <trkpt lat="44.10896" lon="6.64604">
        <ele>2042.9004</ele>
        <time>2023-08-07T15:35:16+02:00</time>
      </trkpt>
      <trkpt lat="44.109" lon="6.64605">
        <ele>2044</ele>
        <time>2023-08-07T15:35:17+02:00</time>
      </trkpt>
      <trkpt lat="44.10912" lon="6.64607">
        <ele>2050.2998</ele>
        <time>2023-08-07T15:35:21+02:00</time>
      </trkpt>
      <trkpt lat="44.10916" lon="6.64609">
        <ele>2050.2998</ele>
        <time>2023-08-07T15:35:22+02:00</time>
      </trkpt>
      <trkpt lat="44.10923" lon="6.64623">
        <ele>2054.5</ele>
        <time>2023-08-07T15:35:26+02:00</time>
      </trkpt>
      <trkpt lat="44.10923" lon="6.64628">
        <ele>2054.5</ele>
        <time>2023-08-07T15:35:27+02:00</time>
      </trkpt>
      <trkpt lat="44.10922" lon="6.64647">
        <ele>2049.1006</ele>
        <time>2023-08-07T15:35:31+02:00</time>
      </trkpt>
      <trkpt lat="44.10922" lon="6.64652">
        <ele>2051.9004</ele>
        <time>2023-08-07T15:35:32+02:00</time>
      </trkpt>
      <trkpt lat="44.10924" lon="6.6467">
        <ele>2050.9004</ele>
        <time>2023-08-07T15:35:36+02:00</time>
      </trkpt>
      <trkpt lat="44.10925" lon="6.64674">
        <ele>2050.4004</ele>
        <time>2023-08-07T15:35:37+02:00</time>
      </trkpt>
      <trkpt lat="44.10926" lon="6.64693">
        <ele>2049.2998</ele>
        <time>2023-08-07T15:35:41+02:00</time>
      </trkpt>
      <trkpt lat="44.10926" lon="6.64698">
        <ele>2049.2998</ele>
        <time>2023-08-07T15:35:42+02:00</time>
      </trkpt>
      <trkpt lat="44.10925" lon="6.64716">
        <ele>2047.1006</ele>
        <time>2023-08-07T15:35:46+02:00</time>
      </trkpt>
      <trkpt lat="44.10924" lon="6.6472">
        <ele>2047.1006</ele>
        <time>2023-08-07T15:35:47+02:00</time>
      </trkpt>
      <trkpt lat="44.10916" lon="6.64735">
        <ele>2039.7998</ele>
        <time>2023-08-07T15:35:51+02:00</time>
      </trkpt>
      <trkpt lat="44.10914" lon="6.64739">
        <ele>2039.7998</ele>
        <time>2023-08-07T15:35:52+02:00</time>
      </trkpt>
      <trkpt lat="44.10909" lon="6.64756">
        <ele>2035.9004</ele>
        <time>2023-08-07T15:35:56+02:00</time>
      </trkpt>
      <trkpt lat="44.1091" lon="6.64761">
        <ele>2035.1006</ele>
        <time>2023-08-07T15:35:57+02:00</time>
      </trkpt>
      <trkpt lat="44.10913" lon="6.64778">
        <ele>2035.4004</ele>
        <time>2023-08-07T15:36:01+02:00</time>
      </trkpt>
      <trkpt lat="44.10915" lon="6.64782">
        <ele>2035.4004</ele>
        <time>2023-08-07T15:36:02+02:00</time>
      </trkpt>
      <trkpt lat="44.10922" lon="6.64799">
        <ele>2034.7998</ele>
        <time>2023-08-07T15:36:06+02:00</time>
      </trkpt>
      <trkpt lat="44.10924" lon="6.64803">
        <ele>2035</ele>
        <time>2023-08-07T15:36:07+02:00</time>
      </trkpt>
      <trkpt lat="44.10934" lon="6.64818">
        <ele>2034.9004</ele>
        <time>2023-08-07T15:36:11+02:00</time>
      </trkpt>
      <trkpt lat="44.10937" lon="6.64822">
        <ele>2034.6006</ele>
        <time>2023-08-07T15:36:12+02:00</time>
      </trkpt>
      <trkpt lat="44.10947" lon="6.64836">
        <ele>2036.6006</ele>
        <time>2023-08-07T15:36:16+02:00</time>
      </trkpt>
      <trkpt lat="44.1095" lon="6.64839">
        <ele>2034.2002</ele>
        <time>2023-08-07T15:36:17+02:00</time>
      </trkpt>
      <trkpt lat="44.10961" lon="6.64851">
        <ele>2036.7002</ele>
        <time>2023-08-07T15:36:21+02:00</time>
      </trkpt>
      <trkpt lat="44.10964" lon="6.64854">
        <ele>2034.2998</ele>
        <time>2023-08-07T15:36:22+02:00</time>
      </trkpt>
      <trkpt lat="44.10975" lon="6.64865">
        <ele>2037.4004</ele>
        <time>2023-08-07T15:36:26+02:00</time>
      </trkpt>
      <trkpt lat="44.10978" lon="6.64866">
        <ele>2040.4004</ele>
        <time>2023-08-07T15:36:27+02:00</time>
      </trkpt>
      <trkpt lat="44.10987" lon="6.64869">
        <ele>2043.4004</ele>
        <time>2023-08-07T15:36:31+02:00</time>
      </trkpt>
      <trkpt lat="44.10989" lon="6.64869">
        <ele>2043.4004</ele>
        <time>2023-08-07T15:36:32+02:00</time>
      </trkpt>
      <trkpt lat="44.10994" lon="6.64876">
        <ele>2044.4004</ele>
        <time>2023-08-07T15:36:36+02:00</time>
      </trkpt>
      <trkpt lat="44.10995" lon="6.64879">
        <ele>2044.4004</ele>
        <time>2023-08-07T15:36:37+02:00</time>
      </trkpt>
      <trkpt lat="44.11002" lon="6.64891">
        <ele>2043.4004</ele>
        <time>2023-08-07T15:36:41+02:00</time>
      </trkpt>
      <trkpt lat="44.11005" lon="6.64894">
        <ele>2046.9004</ele>
        <time>2023-08-07T15:36:42+02:00</time>
      </trkpt>
      <trkpt lat="44.11016" lon="6.64907">
        <ele>2049.6006</ele>
        <time>2023-08-07T15:36:46+02:00</time>
      </trkpt>
      <trkpt lat="44.11019" lon="6.64911">
        <ele>2049.6006</ele>
        <time>2023-08-07T15:36:47+02:00</time>
      </trkpt>
      <trkpt lat="44.11029" lon="6.64924">
        <ele>2052.2002</ele>
        <time>2023-08-07T15:36:51+02:00</time>
      </trkpt>
      <trkpt lat="44.11032" lon="6.64927">
        <ele>2052.2002</ele>
        <time>2023-08-07T15:36:52+02:00</time>
      </trkpt>
      <trkpt lat="44.11043" lon="6.64942">
        <ele>2054.6006</ele>
        <time>2023-08-07T15:36:56+02:00</time>
      </trkpt>
      <trkpt lat="44.11046" lon="6.64946">
        <ele>2057.2998</ele>
        <time>2023-08-07T15:36:57+02:00</time>
      </trkpt>
      <trkpt lat="44.11054" lon="6.64959">
        <ele>2056.7998</ele>
        <time>2023-08-07T15:37:01+02:00</time>
      </trkpt>
      <trkpt lat="44.11057" lon="6.64962">
        <ele>2056.7998</ele>
        <time>2023-08-07T15:37:02+02:00</time>
      </trkpt>
      <trkpt lat="44.11067" lon="6.64974">
        <ele>2058.6006</ele>
        <time>2023-08-07T15:37:06+02:00</time>
      </trkpt>
      <trkpt lat="44.11069" lon="6.64977">
        <ele>2058.6006</ele>
        <time>2023-08-07T15:37:07+02:00</time>
      </trkpt>
      <trkpt lat="44.11078" lon="6.64989">
        <ele>2061</ele>
        <time>2023-08-07T15:37:11+02:00</time>
      </trkpt>
      <trkpt lat="44.1108" lon="6.64991">
        <ele>2059.7998</ele>
        <time>2023-08-07T15:37:12+02:00</time>
      </trkpt>
      <trkpt lat="44.11089" lon="6.65002">
        <ele>2061.6006</ele>
        <time>2023-08-07T15:37:16+02:00</time>
      </trkpt>
      <trkpt lat="44.11092" lon="6.65004">
        <ele>2061.6006</ele>
        <time>2023-08-07T15:37:17+02:00</time>
      </trkpt>
      <trkpt lat="44.11099" lon="6.65012">
        <ele>2062.2998</ele>
        <time>2023-08-07T15:37:21+02:00</time>
      </trkpt>
      <trkpt lat="44.111" lon="6.65014">
        <ele>2062.2998</ele>
        <time>2023-08-07T15:37:22+02:00</time>
      </trkpt>
      <trkpt lat="44.11106" lon="6.65018">
        <ele>2063.1006</ele>
        <time>2023-08-07T15:37:26+02:00</time>
      </trkpt>
      <trkpt lat="44.11109" lon="6.65018">
        <ele>2064.2998</ele>
        <time>2023-08-07T15:37:27+02:00</time>
      </trkpt>
      <trkpt lat="44.11119" lon="6.65024">
        <ele>2065.5</ele>
        <time>2023-08-07T15:37:31+02:00</time>
      </trkpt>
      <trkpt lat="44.11121" lon="6.65026">
        <ele>2066.5</ele>
        <time>2023-08-07T15:37:32+02:00</time>
      </trkpt>
      <trkpt lat="44.11127" lon="6.65035">
        <ele>2067.7998</ele>
        <time>2023-08-07T15:37:36+02:00</time>
      </trkpt>
      <trkpt lat="44.11129" lon="6.65036">
        <ele>2067.7998</ele>
        <time>2023-08-07T15:37:37+02:00</time>
      </trkpt>
      <trkpt lat="44.11129" lon="6.65044">
        <ele>2067.7998</ele>
        <time>2023-08-07T15:37:41+02:00</time>
      </trkpt>
      <trkpt lat="44.11127" lon="6.65046">
        <ele>2067.7998</ele>
        <time>2023-08-07T15:37:42+02:00</time>
      </trkpt>
      <trkpt lat="44.11119" lon="6.65056">
        <ele>2066.7002</ele>
        <time>2023-08-07T15:37:46+02:00</time>
      </trkpt>
      <trkpt lat="44.11117" lon="6.65059">
        <ele>2065.4004</ele>
        <time>2023-08-07T15:37:47+02:00</time>
      </trkpt>
      <trkpt lat="44.1111" lon="6.65071">
        <ele>2064.7998</ele>
        <time>2023-08-07T15:37:51+02:00</time>
      </trkpt>
      <trkpt lat="44.11108" lon="6.65073">
        <ele>2064.7998</ele>
        <time>2023-08-07T15:37:52+02:00</time>
      </trkpt>
      <trkpt lat="44.111" lon="6.65078">
        <ele>2062.4004</ele>
        <time>2023-08-07T15:37:56+02:00</time>
      </trkpt>
      <trkpt lat="44.11097" lon="6.65079">
        <ele>2062.4004</ele>
        <time>2023-08-07T15:37:57+02:00</time>
      </trkpt>
      <trkpt lat="44.11087" lon="6.65082">
        <ele>2059.1006</ele>
        <time>2023-08-07T15:38:01+02:00</time>
      </trkpt>
      <trkpt lat="44.11085" lon="6.65082">
        <ele>2059.1006</ele>
        <time>2023-08-07T15:38:02+02:00</time>
      </trkpt>
      <trkpt lat="44.11073" lon="6.65082">
        <ele>2055.2998</ele>
        <time>2023-08-07T15:38:06+02:00</time>
      </trkpt>
      <trkpt lat="44.1107" lon="6.65081">
        <ele>2053.2998</ele>
        <time>2023-08-07T15:38:07+02:00</time>
      </trkpt>
      <trkpt lat="44.1106" lon="6.65083">
        <ele>2051.1006</ele>
        <time>2023-08-07T15:38:11+02:00</time>
      </trkpt>
      <trkpt lat="44.11057" lon="6.65085">
        <ele>2048.7002</ele>
        <time>2023-08-07T15:38:12+02:00</time>
      </trkpt>
      <trkpt lat="44.11044" lon="6.65092">
        <ele>2043.5</ele>
        <time>2023-08-07T15:38:16+02:00</time>
      </trkpt>
      <trkpt lat="44.11041" lon="6.65094">
        <ele>2043.7002</ele>
        <time>2023-08-07T15:38:17+02:00</time>
      </trkpt>
      <trkpt lat="44.1103" lon="6.65103">
        <ele>2038.2998</ele>
        <time>2023-08-07T15:38:21+02:00</time>
      </trkpt>
      <trkpt lat="44.11027" lon="6.65106">
        <ele>2038.2998</ele>
        <time>2023-08-07T15:38:22+02:00</time>
      </trkpt>
      <trkpt lat="44.1102" lon="6.65126">
        <ele>2033.1006</ele>
        <time>2023-08-07T15:38:26+02:00</time>
      </trkpt>
      <trkpt lat="44.1102" lon="6.65131">
        <ele>2033.4004</ele>
        <time>2023-08-07T15:38:27+02:00</time>
      </trkpt>
      <trkpt lat="44.11021" lon="6.65151">
        <ele>2037</ele>
        <time>2023-08-07T15:38:31+02:00</time>
      </trkpt>
      <trkpt lat="44.11022" lon="6.65156">
        <ele>2037.4004</ele>
        <time>2023-08-07T15:38:32+02:00</time>
      </trkpt>
      <trkpt lat="44.11025" lon="6.65176">
        <ele>2038.1006</ele>
        <time>2023-08-07T15:38:36+02:00</time>
      </trkpt>
      <trkpt lat="44.11026" lon="6.65181">
        <ele>2038.6006</ele>
        <time>2023-08-07T15:38:37+02:00</time>
      </trkpt>
      <trkpt lat="44.11029" lon="6.65198">
        <ele>2042.2998</ele>
        <time>2023-08-07T15:38:41+02:00</time>
      </trkpt>
      <trkpt lat="44.1103" lon="6.65201">
        <ele>2042.2998</ele>
        <time>2023-08-07T15:38:42+02:00</time>
      </trkpt>
      <trkpt lat="44.11036" lon="6.65211">
        <ele>2045.6006</ele>
        <time>2023-08-07T15:38:46+02:00</time>
      </trkpt>
      <trkpt lat="44.11038" lon="6.65214">
        <ele>2046.1006</ele>
        <time>2023-08-07T15:38:47+02:00</time>
      </trkpt>
      <trkpt lat="44.11045" lon="6.65224">
        <ele>2049.4004</ele>
        <time>2023-08-07T15:38:51+02:00</time>
      </trkpt>
      <trkpt lat="44.11045" lon="6.65228">
        <ele>2049.4004</ele>
        <time>2023-08-07T15:38:52+02:00</time>
      </trkpt>
      <trkpt lat="44.11037" lon="6.6524">
        <ele>2047.2998</ele>
        <time>2023-08-07T15:38:56+02:00</time>
      </trkpt>
      <trkpt lat="44.11036" lon="6.65242">
        <ele>2047.2998</ele>
        <time>2023-08-07T15:38:57+02:00</time>
      </trkpt>
      <trkpt lat="44.11037" lon="6.65256">
        <ele>2047.5</ele>
        <time>2023-08-07T15:39:01+02:00</time>
      </trkpt>
      <trkpt lat="44.11038" lon="6.6526">
        <ele>2047.6006</ele>
        <time>2023-08-07T15:39:02+02:00</time>
      </trkpt>
      <trkpt lat="44.11042" lon="6.65277">
        <ele>2050.7002</ele>
        <time>2023-08-07T15:39:06+02:00</time>
      </trkpt>
      <trkpt lat="44.11041" lon="6.65282">
        <ele>2050.7002</ele>
        <time>2023-08-07T15:39:07+02:00</time>
      </trkpt>
      <trkpt lat="44.11033" lon="6.65301">
        <ele>2043.2002</ele>
        <time>2023-08-07T15:39:11+02:00</time>
      </trkpt>
      <trkpt lat="44.11031" lon="6.65306">
        <ele>2043.2002</ele>
        <time>2023-08-07T15:39:12+02:00</time>
      </trkpt>
      <trkpt lat="44.11025" lon="6.65326">
        <ele>2037.4004</ele>
        <time>2023-08-07T15:39:16+02:00</time>
      </trkpt>
      <trkpt lat="44.11024" lon="6.65331">
        <ele>2037.4004</ele>
        <time>2023-08-07T15:39:17+02:00</time>
      </trkpt>
      <trkpt lat="44.11022" lon="6.65349">
        <ele>2035.5</ele>
        <time>2023-08-07T15:39:21+02:00</time>
      </trkpt>
      <trkpt lat="44.11022" lon="6.65353">
        <ele>2034.2998</ele>
        <time>2023-08-07T15:39:22+02:00</time>
      </trkpt>
      <trkpt lat="44.11023" lon="6.65364">
        <ele>2033</ele>
        <time>2023-08-07T15:39:26+02:00</time>
      </trkpt>
      <trkpt lat="44.11024" lon="6.65368">
        <ele>2033</ele>
        <time>2023-08-07T15:39:27+02:00</time>
      </trkpt>
      <trkpt lat="44.11028" lon="6.65388">
        <ele>2032.4004</ele>
        <time>2023-08-07T15:39:31+02:00</time>
      </trkpt>
      <trkpt lat="44.11029" lon="6.65393">
        <ele>2032.4004</ele>
        <time>2023-08-07T15:39:32+02:00</time>
      </trkpt>
      <trkpt lat="44.11034" lon="6.65411">
        <ele>2031.7002</ele>
        <time>2023-08-07T15:39:36+02:00</time>
      </trkpt>
      <trkpt lat="44.11035" lon="6.65416">
        <ele>2031.7002</ele>
        <time>2023-08-07T15:39:37+02:00</time>
      </trkpt>
      <trkpt lat="44.11039" lon="6.65433">
        <ele>2028.7002</ele>
        <time>2023-08-07T15:39:41+02:00</time>
      </trkpt>
      <trkpt lat="44.11041" lon="6.65437">
        <ele>2032.6006</ele>
        <time>2023-08-07T15:39:42+02:00</time>
      </trkpt>
      <trkpt lat="44.11044" lon="6.6545">
        <ele>2029.6006</ele>
        <time>2023-08-07T15:39:46+02:00</time>
      </trkpt>
      <trkpt lat="44.11045" lon="6.65453">
        <ele>2029.6006</ele>
        <time>2023-08-07T15:39:47+02:00</time>
      </trkpt>
      <trkpt lat="44.11045" lon="6.65467">
        <ele>2026.9004</ele>
        <time>2023-08-07T15:39:51+02:00</time>
      </trkpt>
      <trkpt lat="44.11045" lon="6.65471">
        <ele>2025.7002</ele>
        <time>2023-08-07T15:39:52+02:00</time>
      </trkpt>
      <trkpt lat="44.11044" lon="6.65487">
        <ele>2024.5</ele>
        <time>2023-08-07T15:39:56+02:00</time>
      </trkpt>
      <trkpt lat="44.11043" lon="6.6549">
        <ele>2023.4004</ele>
        <time>2023-08-07T15:39:57+02:00</time>
      </trkpt>
      <trkpt lat="44.11039" lon="6.65503">
        <ele>2019</ele>
        <time>2023-08-07T15:40:01+02:00</time>
      </trkpt>
      <trkpt lat="44.11038" lon="6.65509">
        <ele>2018.2002</ele>
        <time>2023-08-07T15:40:02+02:00</time>
      </trkpt>
      <trkpt lat="44.11038" lon="6.65531">
        <ele>2016.1006</ele>
        <time>2023-08-07T15:40:06+02:00</time>
      </trkpt>
      <trkpt lat="44.11039" lon="6.65537">
        <ele>2016.1006</ele>
        <time>2023-08-07T15:40:07+02:00</time>
      </trkpt>
      <trkpt lat="44.11041" lon="6.65555">
        <ele>2017.6006</ele>
        <time>2023-08-07T15:40:11+02:00</time>
      </trkpt>
      <trkpt lat="44.11041" lon="6.65559">
        <ele>2017.1006</ele>
        <time>2023-08-07T15:40:12+02:00</time>
      </trkpt>
      <trkpt lat="44.11042" lon="6.65577">
        <ele>2016.6006</ele>
        <time>2023-08-07T15:40:16+02:00</time>
      </trkpt>
      <trkpt lat="44.11043" lon="6.65581">
        <ele>2016.6006</ele>
        <time>2023-08-07T15:40:17+02:00</time>
      </trkpt>
      <trkpt lat="44.1105" lon="6.65595">
        <ele>2019.2998</ele>
        <time>2023-08-07T15:40:21+02:00</time>
      </trkpt>
      <trkpt lat="44.11052" lon="6.65598">
        <ele>2021.6006</ele>
        <time>2023-08-07T15:40:22+02:00</time>
      </trkpt>
      <trkpt lat="44.11058" lon="6.65611">
        <ele>2024.6006</ele>
        <time>2023-08-07T15:40:26+02:00</time>
      </trkpt>
      <trkpt lat="44.11059" lon="6.65614">
        <ele>2024.6006</ele>
        <time>2023-08-07T15:40:27+02:00</time>
      </trkpt>
      <trkpt lat="44.11066" lon="6.65627">
        <ele>2028.2002</ele>
        <time>2023-08-07T15:40:31+02:00</time>
      </trkpt>
      <trkpt lat="44.1107" lon="6.6563">
        <ele>2028.2002</ele>
        <time>2023-08-07T15:40:32+02:00</time>
      </trkpt>
      <trkpt lat="44.11084" lon="6.65638">
        <ele>2036.7998</ele>
        <time>2023-08-07T15:40:36+02:00</time>
      </trkpt>
      <trkpt lat="44.11088" lon="6.6564">
        <ele>2036.7998</ele>
        <time>2023-08-07T15:40:37+02:00</time>
      </trkpt>
      <trkpt lat="44.11098" lon="6.65647">
        <ele>2043.4004</ele>
        <time>2023-08-07T15:40:41+02:00</time>
      </trkpt>
      <trkpt lat="44.111" lon="6.65648">
        <ele>2043.4004</ele>
        <time>2023-08-07T15:40:42+02:00</time>
      </trkpt>
      <trkpt lat="44.11107" lon="6.65655">
        <ele>2051</ele>
        <time>2023-08-07T15:40:46+02:00</time>
      </trkpt>
      <trkpt lat="44.11108" lon="6.65657">
        <ele>2051</ele>
        <time>2023-08-07T15:40:47+02:00</time>
      </trkpt>
      <trkpt lat="44.1111" lon="6.65659">
        <ele>2051</ele>
        <time>2023-08-07T15:40:51+02:00</time>
      </trkpt>
      <trkpt lat="44.1111" lon="6.65659">
        <ele>2051</ele>
        <time>2023-08-07T15:40:52+02:00</time>
      </trkpt>
      <trkpt lat="44.11111" lon="6.6566">
        <ele>2052.7998</ele>
        <time>2023-08-07T15:40:56+02:00</time>
      </trkpt>
      <trkpt lat="44.11112" lon="6.65661">
        <ele>2052.7998</ele>
        <time>2023-08-07T15:40:57+02:00</time>
      </trkpt>
      <trkpt lat="44.11118" lon="6.65667">
        <ele>2056.1006</ele>
        <time>2023-08-07T15:41:01+02:00</time>
      </trkpt>
      <trkpt lat="44.1112" lon="6.65669">
        <ele>2061.4004</ele>
        <time>2023-08-07T15:41:02+02:00</time>
      </trkpt>
      <trkpt lat="44.11126" lon="6.65676">
        <ele>2064.9004</ele>
        <time>2023-08-07T15:41:06+02:00</time>
      </trkpt>
      <trkpt lat="44.11127" lon="6.65678">
        <ele>2066.9004</ele>
        <time>2023-08-07T15:41:07+02:00</time>
      </trkpt>
      <trkpt lat="44.11127" lon="6.65686">
        <ele>2066.9004</ele>
        <time>2023-08-07T15:41:11+02:00</time>
      </trkpt>
      <trkpt lat="44.11125" lon="6.65687">
        <ele>2069.2002</ele>
        <time>2023-08-07T15:41:12+02:00</time>
      </trkpt>
      <trkpt lat="44.11118" lon="6.65687">
        <ele>2062.2998</ele>
        <time>2023-08-07T15:41:16+02:00</time>
      </trkpt>
      <trkpt lat="44.11116" lon="6.65687">
        <ele>2062.2998</ele>
        <time>2023-08-07T15:41:17+02:00</time>
      </trkpt>
      <trkpt lat="44.11107" lon="6.65691">
        <ele>2059</ele>
        <time>2023-08-07T15:41:21+02:00</time>
      </trkpt>
      <trkpt lat="44.11105" lon="6.65691">
        <ele>2055.7002</ele>
        <time>2023-08-07T15:41:22+02:00</time>
      </trkpt>
      <trkpt lat="44.11097" lon="6.65693">
        <ele>2052.5</ele>
        <time>2023-08-07T15:41:26+02:00</time>
      </trkpt>
      <trkpt lat="44.11095" lon="6.65693">
        <ele>2052.5</ele>
        <time>2023-08-07T15:41:27+02:00</time>
      </trkpt>
      <trkpt lat="44.11088" lon="6.65694">
        <ele>2048.4004</ele>
        <time>2023-08-07T15:41:31+02:00</time>
      </trkpt>
      <trkpt lat="44.11085" lon="6.65694">
        <ele>2048.4004</ele>
        <time>2023-08-07T15:41:32+02:00</time>
      </trkpt>
      <trkpt lat="44.11079" lon="6.65696">
        <ele>2045.2998</ele>
        <time>2023-08-07T15:41:36+02:00</time>
      </trkpt>
      <trkpt lat="44.11076" lon="6.65696">
        <ele>2045.2998</ele>
        <time>2023-08-07T15:41:37+02:00</time>
      </trkpt>
      <trkpt lat="44.11063" lon="6.65698">
        <ele>2036.7002</ele>
        <time>2023-08-07T15:41:41+02:00</time>
      </trkpt>
      <trkpt lat="44.11061" lon="6.65698">
        <ele>2036.7002</ele>
        <time>2023-08-07T15:41:42+02:00</time>
      </trkpt>
      <trkpt lat="44.11052" lon="6.65704">
        <ele>2035.7002</ele>
        <time>2023-08-07T15:41:46+02:00</time>
      </trkpt>
      <trkpt lat="44.11051" lon="6.65705">
        <ele>2033.1006</ele>
        <time>2023-08-07T15:41:47+02:00</time>
      </trkpt>
      <trkpt lat="44.11047" lon="6.65713">
        <ele>2034.7998</ele>
        <time>2023-08-07T15:41:51+02:00</time>
      </trkpt>
      <trkpt lat="44.11046" lon="6.65715">
        <ele>2034.7998</ele>
        <time>2023-08-07T15:41:52+02:00</time>
      </trkpt>
      <trkpt lat="44.11041" lon="6.65726">
        <ele>2033.7002</ele>
        <time>2023-08-07T15:41:56+02:00</time>
      </trkpt>
      <trkpt lat="44.1104" lon="6.6573">
        <ele>2035.4004</ele>
        <time>2023-08-07T15:41:57+02:00</time>
      </trkpt>
      <trkpt lat="44.11034" lon="6.65742">
        <ele>2034.5</ele>
        <time>2023-08-07T15:42:01+02:00</time>
      </trkpt>
      <trkpt lat="44.11033" lon="6.65745">
        <ele>2034.5</ele>
        <time>2023-08-07T15:42:02+02:00</time>
      </trkpt>
      <trkpt lat="44.11031" lon="6.65748">
        <ele>2033.7998</ele>
        <time>2023-08-07T15:42:06+02:00</time>
      </trkpt>
      <trkpt lat="44.11031" lon="6.65749">
        <ele>2033.7998</ele>
        <time>2023-08-07T15:42:07+02:00</time>
      </trkpt>
      <trkpt lat="44.11027" lon="6.65759">
        <ele>2035.5</ele>
        <time>2023-08-07T15:42:11+02:00</time>
      </trkpt>
      <trkpt lat="44.11025" lon="6.65762">
        <ele>2033.1006</ele>
        <time>2023-08-07T15:42:12+02:00</time>
      </trkpt>
      <trkpt lat="44.11018" lon="6.65776">
        <ele>2034.2002</ele>
        <time>2023-08-07T15:42:16+02:00</time>
      </trkpt>
      <trkpt lat="44.11016" lon="6.6578">
        <ele>2034.2002</ele>
        <time>2023-08-07T15:42:17+02:00</time>
      </trkpt>
      <trkpt lat="44.11008" lon="6.65793">
        <ele>2034.2998</ele>
        <time>2023-08-07T15:42:21+02:00</time>
      </trkpt>
      <trkpt lat="44.11006" lon="6.65796">
        <ele>2034.2998</ele>
        <time>2023-08-07T15:42:22+02:00</time>
      </trkpt>
      <trkpt lat="44.10999" lon="6.65804">
        <ele>2035.1006</ele>
        <time>2023-08-07T15:42:26+02:00</time>
      </trkpt>
      <trkpt lat="44.10998" lon="6.65807">
        <ele>2037.1006</ele>
        <time>2023-08-07T15:42:27+02:00</time>
      </trkpt>
      <trkpt lat="44.10998" lon="6.65816">
        <ele>2039.2002</ele>
        <time>2023-08-07T15:42:31+02:00</time>
      </trkpt>
      <trkpt lat="44.10999" lon="6.65819">
        <ele>2039.2002</ele>
        <time>2023-08-07T15:42:32+02:00</time>
      </trkpt>
      <trkpt lat="44.11003" lon="6.65829">
        <ele>2042.6006</ele>
        <time>2023-08-07T15:42:36+02:00</time>
      </trkpt>
      <trkpt lat="44.11004" lon="6.65832">
        <ele>2044.2998</ele>
        <time>2023-08-07T15:42:37+02:00</time>
      </trkpt>
      <trkpt lat="44.11003" lon="6.65844">
        <ele>2045.7998</ele>
        <time>2023-08-07T15:42:41+02:00</time>
      </trkpt>
      <trkpt lat="44.11003" lon="6.65846">
        <ele>2045.7998</ele>
        <time>2023-08-07T15:42:42+02:00</time>
      </trkpt>
      <trkpt lat="44.11" lon="6.65857">
        <ele>2045.7002</ele>
        <time>2023-08-07T15:42:46+02:00</time>
      </trkpt>
      <trkpt lat="44.10998" lon="6.65859">
        <ele>2047.2998</ele>
        <time>2023-08-07T15:42:47+02:00</time>
      </trkpt>
      <trkpt lat="44.10994" lon="6.65872">
        <ele>2048.4004</ele>
        <time>2023-08-07T15:42:51+02:00</time>
      </trkpt>
      <trkpt lat="44.10993" lon="6.65874">
        <ele>2048.4004</ele>
        <time>2023-08-07T15:42:52+02:00</time>
      </trkpt>
      <trkpt lat="44.10988" lon="6.65882">
        <ele>2050.4004</ele>
        <time>2023-08-07T15:42:56+02:00</time>
      </trkpt>
      <trkpt lat="44.10988" lon="6.65884">
        <ele>2052.4004</ele>
        <time>2023-08-07T15:42:57+02:00</time>
      </trkpt>
      <trkpt lat="44.1099" lon="6.65897">
        <ele>2054.4004</ele>
        <time>2023-08-07T15:43:01+02:00</time>
      </trkpt>
      <trkpt lat="44.10991" lon="6.65901">
        <ele>2056.4004</ele>
        <time>2023-08-07T15:43:02+02:00</time>
      </trkpt>
      <trkpt lat="44.10989" lon="6.65914">
        <ele>2058.6006</ele>
        <time>2023-08-07T15:43:06+02:00</time>
      </trkpt>
      <trkpt lat="44.10987" lon="6.65916">
        <ele>2058.6006</ele>
        <time>2023-08-07T15:43:07+02:00</time>
      </trkpt>
      <trkpt lat="44.10981" lon="6.65921">
        <ele>2061.4004</ele>
        <time>2023-08-07T15:43:11+02:00</time>
      </trkpt>
      <trkpt lat="44.1098" lon="6.6592">
        <ele>2061.4004</ele>
        <time>2023-08-07T15:43:12+02:00</time>
      </trkpt>
      <trkpt lat="44.10977" lon="6.65918">
        <ele>2062.2998</ele>
        <time>2023-08-07T15:43:16+02:00</time>
      </trkpt>
      <trkpt lat="44.10976" lon="6.65917">
        <ele>2060.1006</ele>
        <time>2023-08-07T15:43:17+02:00</time>
      </trkpt>
      <trkpt lat="44.10974" lon="6.65912">
        <ele>2060.1006</ele>
        <time>2023-08-07T15:43:21+02:00</time>
      </trkpt>
      <trkpt lat="44.10972" lon="6.65909">
        <ele>2060.1006</ele>
        <time>2023-08-07T15:43:22+02:00</time>
      </trkpt>
      <trkpt lat="44.10964" lon="6.65897">
        <ele>2057.2998</ele>
        <time>2023-08-07T15:43:26+02:00</time>
      </trkpt>
      <trkpt lat="44.10962" lon="6.65894">
        <ele>2057.2998</ele>
        <time>2023-08-07T15:43:27+02:00</time>
      </trkpt>
      <trkpt lat="44.10957" lon="6.65884">
        <ele>2056</ele>
        <time>2023-08-07T15:43:31+02:00</time>
      </trkpt>
      <trkpt lat="44.10957" lon="6.6588">
        <ele>2053.6006</ele>
        <time>2023-08-07T15:43:32+02:00</time>
      </trkpt>
      <trkpt lat="44.10952" lon="6.6587">
        <ele>2052.2002</ele>
        <time>2023-08-07T15:43:36+02:00</time>
      </trkpt>
      <trkpt lat="44.1095" lon="6.65867">
        <ele>2052.2002</ele>
        <time>2023-08-07T15:43:37+02:00</time>
      </trkpt>
      <trkpt lat="44.10945" lon="6.65856">
        <ele>2048.5</ele>
        <time>2023-08-07T15:43:41+02:00</time>
      </trkpt>
      <trkpt lat="44.10943" lon="6.65853">
        <ele>2048.5</ele>
        <time>2023-08-07T15:43:42+02:00</time>
      </trkpt>
      <trkpt lat="44.10936" lon="6.65836">
        <ele>2045.1006</ele>
        <time>2023-08-07T15:43:46+02:00</time>
      </trkpt>
      <trkpt lat="44.10934" lon="6.65832">
        <ele>2047</ele>
        <time>2023-08-07T15:43:47+02:00</time>
      </trkpt>
      <trkpt lat="44.10926" lon="6.6582">
        <ele>2044.1006</ele>
        <time>2023-08-07T15:43:51+02:00</time>
      </trkpt>
      <trkpt lat="44.10924" lon="6.65817">
        <ele>2044.1006</ele>
        <time>2023-08-07T15:43:52+02:00</time>
      </trkpt>
      <trkpt lat="44.10919" lon="6.65802">
        <ele>2041.1006</ele>
        <time>2023-08-07T15:43:56+02:00</time>
      </trkpt>
      <trkpt lat="44.10918" lon="6.65798">
        <ele>2041.1006</ele>
        <time>2023-08-07T15:43:57+02:00</time>
      </trkpt>
      <trkpt lat="44.10915" lon="6.6578">
        <ele>2038.2998</ele>
        <time>2023-08-07T15:44:01+02:00</time>
      </trkpt>
      <trkpt lat="44.10913" lon="6.65776">
        <ele>2035.7002</ele>
        <time>2023-08-07T15:44:02+02:00</time>
      </trkpt>
      <trkpt lat="44.10904" lon="6.65765">
        <ele>2035.5</ele>
        <time>2023-08-07T15:44:06+02:00</time>
      </trkpt>
      <trkpt lat="44.10902" lon="6.65763">
        <ele>2035.2998</ele>
        <time>2023-08-07T15:44:07+02:00</time>
      </trkpt>
      <trkpt lat="44.10892" lon="6.65754">
        <ele>2035.2002</ele>
        <time>2023-08-07T15:44:11+02:00</time>
      </trkpt>
      <trkpt lat="44.1089" lon="6.65752">
        <ele>2037.9004</ele>
        <time>2023-08-07T15:44:12+02:00</time>
      </trkpt>
      <trkpt lat="44.10882" lon="6.65742">
        <ele>2038.1006</ele>
        <time>2023-08-07T15:44:16+02:00</time>
      </trkpt>
      <trkpt lat="44.10879" lon="6.65739">
        <ele>2038.1006</ele>
        <time>2023-08-07T15:44:17+02:00</time>
      </trkpt>
      <trkpt lat="44.10869" lon="6.65731">
        <ele>2041.5</ele>
        <time>2023-08-07T15:44:21+02:00</time>
      </trkpt>
      <trkpt lat="44.10866" lon="6.65728">
        <ele>2041.7002</ele>
        <time>2023-08-07T15:44:22+02:00</time>
      </trkpt>
      <trkpt lat="44.10854" lon="6.65718">
        <ele>2044.7002</ele>
        <time>2023-08-07T15:44:26+02:00</time>
      </trkpt>
      <trkpt lat="44.10851" lon="6.65715">
        <ele>2044.7002</ele>
        <time>2023-08-07T15:44:27+02:00</time>
      </trkpt>
      <trkpt lat="44.1084" lon="6.65706">
        <ele>2047.2002</ele>
        <time>2023-08-07T15:44:31+02:00</time>
      </trkpt>
      <trkpt lat="44.10837" lon="6.65703">
        <ele>2047.2002</ele>
        <time>2023-08-07T15:44:32+02:00</time>
      </trkpt>
      <trkpt lat="44.10827" lon="6.65695">
        <ele>2049.2002</ele>
        <time>2023-08-07T15:44:36+02:00</time>
      </trkpt>
      <trkpt lat="44.10824" lon="6.65694">
        <ele>2045.7998</ele>
        <time>2023-08-07T15:44:37+02:00</time>
      </trkpt>
      <trkpt lat="44.10814" lon="6.65688">
        <ele>2050.5</ele>
        <time>2023-08-07T15:44:41+02:00</time>
      </trkpt>
      <trkpt lat="44.10811" lon="6.65686">
        <ele>2050.5</ele>
        <time>2023-08-07T15:44:42+02:00</time>
      </trkpt>
      <trkpt lat="44.10803" lon="6.65681">
        <ele>2050.7998</ele>
        <time>2023-08-07T15:44:46+02:00</time>
      </trkpt>
      <trkpt lat="44.108" lon="6.6568">
        <ele>2050.7998</ele>
        <time>2023-08-07T15:44:47+02:00</time>
      </trkpt>
      <trkpt lat="44.10792" lon="6.65677">
        <ele>2050.2002</ele>
        <time>2023-08-07T15:44:51+02:00</time>
      </trkpt>
      <trkpt lat="44.10789" lon="6.65676">
        <ele>2050.2002</ele>
        <time>2023-08-07T15:44:52+02:00</time>
      </trkpt>
      <trkpt lat="44.1078" lon="6.65672">
        <ele>2053</ele>
        <time>2023-08-07T15:44:56+02:00</time>
      </trkpt>
      <trkpt lat="44.10778" lon="6.65671">
        <ele>2053</ele>
        <time>2023-08-07T15:44:57+02:00</time>
      </trkpt>
      <trkpt lat="44.1077" lon="6.65669">
        <ele>2054.1006</ele>
        <time>2023-08-07T15:45:01+02:00</time>
      </trkpt>
      <trkpt lat="44.10768" lon="6.65669">
        <ele>2055.2002</ele>
        <time>2023-08-07T15:45:02+02:00</time>
      </trkpt>
      <trkpt lat="44.1076" lon="6.6567">
        <ele>2056.2002</ele>
        <time>2023-08-07T15:45:06+02:00</time>
      </trkpt>
      <trkpt lat="44.10758" lon="6.65671">
        <ele>2056.2002</ele>
        <time>2023-08-07T15:45:07+02:00</time>
      </trkpt>
      <trkpt lat="44.10751" lon="6.65674">
        <ele>2057.1006</ele>
        <time>2023-08-07T15:45:11+02:00</time>
      </trkpt>
      <trkpt lat="44.10749" lon="6.65675">
        <ele>2058</ele>
        <time>2023-08-07T15:45:12+02:00</time>
      </trkpt>
      <trkpt lat="44.10743" lon="6.6568">
        <ele>2063.1006</ele>
        <time>2023-08-07T15:45:16+02:00</time>
      </trkpt>
      <trkpt lat="44.10741" lon="6.65682">
        <ele>2063.1006</ele>
        <time>2023-08-07T15:45:17+02:00</time>
      </trkpt>
      <trkpt lat="44.10735" lon="6.65685">
        <ele>2064.1006</ele>
        <time>2023-08-07T15:45:21+02:00</time>
      </trkpt>
      <trkpt lat="44.10734" lon="6.65685">
        <ele>2064.1006</ele>
        <time>2023-08-07T15:45:22+02:00</time>
      </trkpt>
      <trkpt lat="44.10726" lon="6.6569">
        <ele>2069.2998</ele>
        <time>2023-08-07T15:45:26+02:00</time>
      </trkpt>
      <trkpt lat="44.10724" lon="6.65692">
        <ele>2070.2998</ele>
        <time>2023-08-07T15:45:27+02:00</time>
      </trkpt>
      <trkpt lat="44.10716" lon="6.65692">
        <ele>2071.6006</ele>
        <time>2023-08-07T15:45:31+02:00</time>
      </trkpt>
      <trkpt lat="44.10713" lon="6.6569">
        <ele>2071.6006</ele>
        <time>2023-08-07T15:45:32+02:00</time>
      </trkpt>
      <trkpt lat="44.10705" lon="6.65685">
        <ele>2070.7998</ele>
        <time>2023-08-07T15:45:36+02:00</time>
      </trkpt>
      <trkpt lat="44.10703" lon="6.65685">
        <ele>2070.7998</ele>
        <time>2023-08-07T15:45:37+02:00</time>
      </trkpt>
      <trkpt lat="44.10694" lon="6.65682">
        <ele>2072.6006</ele>
        <time>2023-08-07T15:45:41+02:00</time>
      </trkpt>
      <trkpt lat="44.10693" lon="6.6568">
        <ele>2074.4004</ele>
        <time>2023-08-07T15:45:42+02:00</time>
      </trkpt>
      <trkpt lat="44.10688" lon="6.65672">
        <ele>2070.7002</ele>
        <time>2023-08-07T15:45:46+02:00</time>
      </trkpt>
      <trkpt lat="44.10687" lon="6.6567">
        <ele>2072.6006</ele>
        <time>2023-08-07T15:45:47+02:00</time>
      </trkpt>
      <trkpt lat="44.10681" lon="6.65666">
        <ele>2070.9004</ele>
        <time>2023-08-07T15:45:51+02:00</time>
      </trkpt>
      <trkpt lat="44.1068" lon="6.65666">
        <ele>2070.9004</ele>
        <time>2023-08-07T15:45:52+02:00</time>
      </trkpt>
      <trkpt lat="44.10679" lon="6.65667">
        <ele>2070.9004</ele>
        <time>2023-08-07T15:45:56+02:00</time>
      </trkpt>
      <trkpt lat="44.1068" lon="6.65667">
        <ele>2070.9004</ele>
        <time>2023-08-07T15:45:57+02:00</time>
      </trkpt>
      <trkpt lat="44.1068" lon="6.65667">
        <ele>2070.9004</ele>
        <time>2023-08-07T15:46:01+02:00</time>
      </trkpt>
      <trkpt lat="44.1068" lon="6.65667">
        <ele>2070.9004</ele>
        <time>2023-08-07T15:46:02+02:00</time>
      </trkpt>
      <trkpt lat="44.1068" lon="6.65667">
        <ele>2070.9004</ele>
        <time>2023-08-07T15:46:06+02:00</time>
      </trkpt>
      <trkpt lat="44.10678" lon="6.65665">
        <ele>2070.9004</ele>
        <time>2023-08-07T15:46:07+02:00</time>
      </trkpt>
      <trkpt lat="44.10674" lon="6.6566">
        <ele>2069.2002</ele>
        <time>2023-08-07T15:46:11+02:00</time>
      </trkpt>
      <trkpt lat="44.10674" lon="6.65659">
        <ele>2069.2002</ele>
        <time>2023-08-07T15:46:12+02:00</time>
      </trkpt>
      <trkpt lat="44.10674" lon="6.65659">
        <ele>2069.2002</ele>
        <time>2023-08-07T15:46:16+02:00</time>
      </trkpt>
      <trkpt lat="44.10671" lon="6.65658">
        <ele>2069.2002</ele>
        <time>2023-08-07T15:46:17+02:00</time>
      </trkpt>
      <trkpt lat="44.10667" lon="6.65652">
        <ele>2071.2998</ele>
        <time>2023-08-07T15:46:21+02:00</time>
      </trkpt>
      <trkpt lat="44.10667" lon="6.65652">
        <ele>2071.2998</ele>
        <time>2023-08-07T15:46:22+02:00</time>
      </trkpt>
      <trkpt lat="44.10663" lon="6.65649">
        <ele>2067.5</ele>
        <time>2023-08-07T15:46:26+02:00</time>
      </trkpt>
      <trkpt lat="44.10663" lon="6.65648">
        <ele>2069.5</ele>
        <time>2023-08-07T15:46:27+02:00</time>
      </trkpt>
      <trkpt lat="44.1066" lon="6.65643">
        <ele>2069.5</ele>
        <time>2023-08-07T15:46:31+02:00</time>
      </trkpt>
      <trkpt lat="44.10659" lon="6.65642">
        <ele>2065.6006</ele>
        <time>2023-08-07T15:46:32+02:00</time>
      </trkpt>
      <trkpt lat="44.10657" lon="6.6564">
        <ele>2067.7002</ele>
        <time>2023-08-07T15:46:36+02:00</time>
      </trkpt>
      <trkpt lat="44.10655" lon="6.65639">
        <ele>2067.7002</ele>
        <time>2023-08-07T15:46:37+02:00</time>
      </trkpt>
      <trkpt lat="44.10651" lon="6.65639">
        <ele>2069.7998</ele>
        <time>2023-08-07T15:46:41+02:00</time>
      </trkpt>
      <trkpt lat="44.10649" lon="6.65639">
        <ele>2069.7998</ele>
        <time>2023-08-07T15:46:42+02:00</time>
      </trkpt>
      <trkpt lat="44.10646" lon="6.65639">
        <ele>2069.7998</ele>
        <time>2023-08-07T15:46:46+02:00</time>
      </trkpt>
      <trkpt lat="44.10646" lon="6.65639">
        <ele>2069.7998</ele>
        <time>2023-08-07T15:46:47+02:00</time>
      </trkpt>
      <trkpt lat="44.10646" lon="6.65639">
        <ele>2069.7998</ele>
        <time>2023-08-07T15:46:51+02:00</time>
      </trkpt>
      <trkpt lat="44.10645" lon="6.65638">
        <ele>2071.9004</ele>
        <time>2023-08-07T15:46:52+02:00</time>
      </trkpt>
      <trkpt lat="44.10637" lon="6.65631">
        <ele>2070.1006</ele>
        <time>2023-08-07T15:46:56+02:00</time>
      </trkpt>
      <trkpt lat="44.10635" lon="6.65629">
        <ele>2070.1006</ele>
        <time>2023-08-07T15:46:57+02:00</time>
      </trkpt>
      <trkpt lat="44.10629" lon="6.6562">
        <ele>2068.4004</ele>
        <time>2023-08-07T15:47:01+02:00</time>
      </trkpt>
      <trkpt lat="44.10628" lon="6.65618">
        <ele>2068.4004</ele>
        <time>2023-08-07T15:47:02+02:00</time>
      </trkpt>
      <trkpt lat="44.10623" lon="6.65611">
        <ele>2066.7998</ele>
        <time>2023-08-07T15:47:06+02:00</time>
      </trkpt>
      <trkpt lat="44.10621" lon="6.6561">
        <ele>2066.7998</ele>
        <time>2023-08-07T15:47:07+02:00</time>
      </trkpt>
      <trkpt lat="44.10616" lon="6.65603">
        <ele>2065.2998</ele>
        <time>2023-08-07T15:47:11+02:00</time>
      </trkpt>
      <trkpt lat="44.10614" lon="6.65602">
        <ele>2065.2998</ele>
        <time>2023-08-07T15:47:12+02:00</time>
      </trkpt>
      <trkpt lat="44.10607" lon="6.65596">
        <ele>2066.6006</ele>
        <time>2023-08-07T15:47:16+02:00</time>
      </trkpt>
      <trkpt lat="44.10606" lon="6.65595">
        <ele>2066.6006</ele>
        <time>2023-08-07T15:47:17+02:00</time>
      </trkpt>
      <trkpt lat="44.10596" lon="6.65588">
        <ele>2065.2998</ele>
        <time>2023-08-07T15:47:21+02:00</time>
      </trkpt>
      <trkpt lat="44.10594" lon="6.65587">
        <ele>2068.4004</ele>
        <time>2023-08-07T15:47:22+02:00</time>
      </trkpt>
      <trkpt lat="44.10585" lon="6.65583">
        <ele>2071.5</ele>
        <time>2023-08-07T15:47:26+02:00</time>
      </trkpt>
      <trkpt lat="44.10582" lon="6.65582">
        <ele>2071</ele>
        <time>2023-08-07T15:47:27+02:00</time>
      </trkpt>
      <trkpt lat="44.10574" lon="6.65577">
        <ele>2073.9004</ele>
        <time>2023-08-07T15:47:31+02:00</time>
      </trkpt>
      <trkpt lat="44.10573" lon="6.65575">
        <ele>2073.9004</ele>
        <time>2023-08-07T15:47:32+02:00</time>
      </trkpt>
      <trkpt lat="44.10564" lon="6.65569">
        <ele>2076</ele>
        <time>2023-08-07T15:47:36+02:00</time>
      </trkpt>
      <trkpt lat="44.10562" lon="6.65568">
        <ele>2076</ele>
        <time>2023-08-07T15:47:37+02:00</time>
      </trkpt>
      <trkpt lat="44.10556" lon="6.65562">
        <ele>2074.7998</ele>
        <time>2023-08-07T15:47:41+02:00</time>
      </trkpt>
      <trkpt lat="44.10554" lon="6.6556">
        <ele>2074.7998</ele>
        <time>2023-08-07T15:47:42+02:00</time>
      </trkpt>
      <trkpt lat="44.10548" lon="6.65554">
        <ele>2073.2002</ele>
        <time>2023-08-07T15:47:46+02:00</time>
      </trkpt>
      <trkpt lat="44.10547" lon="6.65553">
        <ele>2073.2002</ele>
        <time>2023-08-07T15:47:47+02:00</time>
      </trkpt>
      <trkpt lat="44.10541" lon="6.65547">
        <ele>2071.7998</ele>
        <time>2023-08-07T15:47:51+02:00</time>
      </trkpt>
      <trkpt lat="44.10539" lon="6.65546">
        <ele>2072.9004</ele>
        <time>2023-08-07T15:47:52+02:00</time>
      </trkpt>
      <trkpt lat="44.10532" lon="6.6554">
        <ele>2073.4004</ele>
        <time>2023-08-07T15:47:56+02:00</time>
      </trkpt>
      <trkpt lat="44.10531" lon="6.65538">
        <ele>2071.1006</ele>
        <time>2023-08-07T15:47:57+02:00</time>
      </trkpt>
      <trkpt lat="44.10523" lon="6.65533">
        <ele>2071.6006</ele>
        <time>2023-08-07T15:48:01+02:00</time>
      </trkpt>
      <trkpt lat="44.1052" lon="6.65532">
        <ele>2071.6006</ele>
        <time>2023-08-07T15:48:02+02:00</time>
      </trkpt>
      <trkpt lat="44.10512" lon="6.65528">
        <ele>2069.2998</ele>
        <time>2023-08-07T15:48:06+02:00</time>
      </trkpt>
      <trkpt lat="44.10509" lon="6.65527">
        <ele>2069.1006</ele>
        <time>2023-08-07T15:48:07+02:00</time>
      </trkpt>
      <trkpt lat="44.10496" lon="6.65526">
        <ele>2068.2002</ele>
        <time>2023-08-07T15:48:11+02:00</time>
      </trkpt>
      <trkpt lat="44.10493" lon="6.65527">
        <ele>2068.2002</ele>
        <time>2023-08-07T15:48:12+02:00</time>
      </trkpt>
      <trkpt lat="44.1048" lon="6.65536">
        <ele>2067.5</ele>
        <time>2023-08-07T15:48:16+02:00</time>
      </trkpt>
      <trkpt lat="44.10477" lon="6.65538">
        <ele>2066.2998</ele>
        <time>2023-08-07T15:48:17+02:00</time>
      </trkpt>
      <trkpt lat="44.10469" lon="6.65551">
        <ele>2066.5</ele>
        <time>2023-08-07T15:48:21+02:00</time>
      </trkpt>
      <trkpt lat="44.10467" lon="6.65554">
        <ele>2066.5</ele>
        <time>2023-08-07T15:48:22+02:00</time>
      </trkpt>
      <trkpt lat="44.1046" lon="6.65569">
        <ele>2065.7998</ele>
        <time>2023-08-07T15:48:26+02:00</time>
      </trkpt>
      <trkpt lat="44.10459" lon="6.65573">
        <ele>2064</ele>
        <time>2023-08-07T15:48:27+02:00</time>
      </trkpt>
      <trkpt lat="44.10457" lon="6.65588">
        <ele>2064.7002</ele>
        <time>2023-08-07T15:48:31+02:00</time>
      </trkpt>
      <trkpt lat="44.10457" lon="6.65591">
        <ele>2065</ele>
        <time>2023-08-07T15:48:32+02:00</time>
      </trkpt>
      <trkpt lat="44.10458" lon="6.65605">
        <ele>2065.2998</ele>
        <time>2023-08-07T15:48:36+02:00</time>
      </trkpt>
      <trkpt lat="44.10458" lon="6.65609">
        <ele>2065.7002</ele>
        <time>2023-08-07T15:48:37+02:00</time>
      </trkpt>
      <trkpt lat="44.10462" lon="6.65624">
        <ele>2068.1006</ele>
        <time>2023-08-07T15:48:41+02:00</time>
      </trkpt>
      <trkpt lat="44.10463" lon="6.65627">
        <ele>2068.5</ele>
        <time>2023-08-07T15:48:42+02:00</time>
      </trkpt>
      <trkpt lat="44.10467" lon="6.65641">
        <ele>2071.1006</ele>
        <time>2023-08-07T15:48:46+02:00</time>
      </trkpt>
      <trkpt lat="44.10468" lon="6.65645">
        <ele>2071.5</ele>
        <time>2023-08-07T15:48:47+02:00</time>
      </trkpt>
      <trkpt lat="44.10474" lon="6.65658">
        <ele>2074.1006</ele>
        <time>2023-08-07T15:48:51+02:00</time>
      </trkpt>
      <trkpt lat="44.10476" lon="6.65661">
        <ele>2074.5</ele>
        <time>2023-08-07T15:48:52+02:00</time>
      </trkpt>
      <trkpt lat="44.10481" lon="6.65673">
        <ele>2076.7998</ele>
        <time>2023-08-07T15:48:56+02:00</time>
      </trkpt>
      <trkpt lat="44.10481" lon="6.65676">
        <ele>2076.7998</ele>
        <time>2023-08-07T15:48:57+02:00</time>
      </trkpt>
      <trkpt lat="44.10485" lon="6.65688">
        <ele>2078.9004</ele>
        <time>2023-08-07T15:49:01+02:00</time>
      </trkpt>
      <trkpt lat="44.10486" lon="6.65691">
        <ele>2078.9004</ele>
        <time>2023-08-07T15:49:02+02:00</time>
      </trkpt>
      <trkpt lat="44.1049" lon="6.65705">
        <ele>2079.2002</ele>
        <time>2023-08-07T15:49:06+02:00</time>
      </trkpt>
      <trkpt lat="44.10492" lon="6.65709">
        <ele>2080.9004</ele>
        <time>2023-08-07T15:49:07+02:00</time>
      </trkpt>
      <trkpt lat="44.10496" lon="6.65719">
        <ele>2081.1006</ele>
        <time>2023-08-07T15:49:11+02:00</time>
      </trkpt>
      <trkpt lat="44.10497" lon="6.65722">
        <ele>2083</ele>
        <time>2023-08-07T15:49:12+02:00</time>
      </trkpt>
      <trkpt lat="44.10504" lon="6.65738">
        <ele>2085.1006</ele>
        <time>2023-08-07T15:49:16+02:00</time>
      </trkpt>
      <trkpt lat="44.10505" lon="6.65742">
        <ele>2085.1006</ele>
        <time>2023-08-07T15:49:17+02:00</time>
      </trkpt>
      <trkpt lat="44.10508" lon="6.65756">
        <ele>2085.5</ele>
        <time>2023-08-07T15:49:21+02:00</time>
      </trkpt>
      <trkpt lat="44.10509" lon="6.6576">
        <ele>2086.9004</ele>
        <time>2023-08-07T15:49:22+02:00</time>
      </trkpt>
      <trkpt lat="44.10515" lon="6.65774">
        <ele>2087.2998</ele>
        <time>2023-08-07T15:49:26+02:00</time>
      </trkpt>
      <trkpt lat="44.10516" lon="6.65776">
        <ele>2088.7002</ele>
        <time>2023-08-07T15:49:27+02:00</time>
      </trkpt>
      <trkpt lat="44.10522" lon="6.65784">
        <ele>2090.2998</ele>
        <time>2023-08-07T15:49:31+02:00</time>
      </trkpt>
      <trkpt lat="44.10523" lon="6.65788">
        <ele>2090.2998</ele>
        <time>2023-08-07T15:49:32+02:00</time>
      </trkpt>
      <trkpt lat="44.10527" lon="6.65803">
        <ele>2090.5</ele>
        <time>2023-08-07T15:49:36+02:00</time>
      </trkpt>
      <trkpt lat="44.10528" lon="6.65808">
        <ele>2091.9004</ele>
        <time>2023-08-07T15:49:37+02:00</time>
      </trkpt>
      <trkpt lat="44.10534" lon="6.65824">
        <ele>2093.2998</ele>
        <time>2023-08-07T15:49:41+02:00</time>
      </trkpt>
      <trkpt lat="44.10536" lon="6.65827">
        <ele>2093.2998</ele>
        <time>2023-08-07T15:49:42+02:00</time>
      </trkpt>
      <trkpt lat="44.10543" lon="6.6584">
        <ele>2094.4004</ele>
        <time>2023-08-07T15:49:46+02:00</time>
      </trkpt>
      <trkpt lat="44.10545" lon="6.65844">
        <ele>2094.4004</ele>
        <time>2023-08-07T15:49:47+02:00</time>
      </trkpt>
      <trkpt lat="44.10549" lon="6.65858">
        <ele>2094.9004</ele>
        <time>2023-08-07T15:49:51+02:00</time>
      </trkpt>
      <trkpt lat="44.1055" lon="6.65862">
        <ele>2094.9004</ele>
        <time>2023-08-07T15:49:52+02:00</time>
      </trkpt>
      <trkpt lat="44.10555" lon="6.65879">
        <ele>2095.2002</ele>
        <time>2023-08-07T15:49:56+02:00</time>
      </trkpt>
      <trkpt lat="44.10556" lon="6.65883">
        <ele>2095.2002</ele>
        <time>2023-08-07T15:49:57+02:00</time>
      </trkpt>
      <trkpt lat="44.10561" lon="6.65896">
        <ele>2096.4004</ele>
        <time>2023-08-07T15:50:01+02:00</time>
      </trkpt>
      <trkpt lat="44.10562" lon="6.65899">
        <ele>2096.4004</ele>
        <time>2023-08-07T15:50:02+02:00</time>
      </trkpt>
      <trkpt lat="44.10565" lon="6.6591">
        <ele>2097.4004</ele>
        <time>2023-08-07T15:50:06+02:00</time>
      </trkpt>
      <trkpt lat="44.10566" lon="6.65913">
        <ele>2097.4004</ele>
        <time>2023-08-07T15:50:07+02:00</time>
      </trkpt>
      <trkpt lat="44.10568" lon="6.65927">
        <ele>2097.4004</ele>
        <time>2023-08-07T15:50:11+02:00</time>
      </trkpt>
      <trkpt lat="44.10568" lon="6.6593">
        <ele>2097.4004</ele>
        <time>2023-08-07T15:50:12+02:00</time>
      </trkpt>
      <trkpt lat="44.10567" lon="6.65943">
        <ele>2097.5</ele>
        <time>2023-08-07T15:50:16+02:00</time>
      </trkpt>
      <trkpt lat="44.10567" lon="6.65945">
        <ele>2097.6006</ele>
        <time>2023-08-07T15:50:17+02:00</time>
      </trkpt>
      <trkpt lat="44.10571" lon="6.65952">
        <ele>2097.6006</ele>
        <time>2023-08-07T15:50:21+02:00</time>
      </trkpt>
      <trkpt lat="44.10572" lon="6.65954">
        <ele>2097.6006</ele>
        <time>2023-08-07T15:50:22+02:00</time>
      </trkpt>
      <trkpt lat="44.10574" lon="6.65963">
        <ele>2098.2002</ele>
        <time>2023-08-07T15:50:26+02:00</time>
      </trkpt>
      <trkpt lat="44.10575" lon="6.65966">
        <ele>2098.2002</ele>
        <time>2023-08-07T15:50:27+02:00</time>
      </trkpt>
      <trkpt lat="44.10575" lon="6.65972">
        <ele>2098.9004</ele>
        <time>2023-08-07T15:50:31+02:00</time>
      </trkpt>
      <trkpt lat="44.10575" lon="6.65973">
        <ele>2098.9004</ele>
        <time>2023-08-07T15:50:32+02:00</time>
      </trkpt>
      <trkpt lat="44.10574" lon="6.65973">
        <ele>2098.9004</ele>
        <time>2023-08-07T15:50:36+02:00</time>
      </trkpt>
      <trkpt lat="44.10574" lon="6.65973">
        <ele>2098.9004</ele>
        <time>2023-08-07T15:50:37+02:00</time>
      </trkpt>
      <trkpt lat="44.10574" lon="6.65973">
        <ele>2098.9004</ele>
        <time>2023-08-07T15:50:41+02:00</time>
      </trkpt>
      <trkpt lat="44.10574" lon="6.65973">
        <ele>2098.9004</ele>
        <time>2023-08-07T15:50:42+02:00</time>
      </trkpt>
      <trkpt lat="44.10574" lon="6.65973">
        <ele>2098.9004</ele>
        <time>2023-08-07T15:50:46+02:00</time>
      </trkpt>
      <trkpt lat="44.10574" lon="6.65973">
        <ele>2098.9004</ele>
        <time>2023-08-07T15:50:47+02:00</time>
      </trkpt>
      <trkpt lat="44.10574" lon="6.65973">
        <ele>2098.9004</ele>
        <time>2023-08-07T15:50:51+02:00</time>
      </trkpt>
      <trkpt lat="44.10574" lon="6.65973">
        <ele>2098.9004</ele>
        <time>2023-08-07T15:50:52+02:00</time>
      </trkpt>
      <trkpt lat="44.10574" lon="6.65973">
        <ele>2098.9004</ele>
        <time>2023-08-07T15:50:56+02:00</time>
      </trkpt>
      <trkpt lat="44.10574" lon="6.65973">
        <ele>2098.9004</ele>
        <time>2023-08-07T15:50:57+02:00</time>
      </trkpt>
      <trkpt lat="44.10571" lon="6.65974">
        <ele>2098.9004</ele>
        <time>2023-08-07T15:51:01+02:00</time>
      </trkpt>
      <trkpt lat="44.10568" lon="6.65973">
        <ele>2099.6006</ele>
        <time>2023-08-07T15:51:02+02:00</time>
      </trkpt>
      <trkpt lat="44.10558" lon="6.6597">
        <ele>2100.7998</ele>
        <time>2023-08-07T15:51:06+02:00</time>
      </trkpt>
      <trkpt lat="44.10557" lon="6.65968">
        <ele>2099.7998</ele>
        <time>2023-08-07T15:51:07+02:00</time>
      </trkpt>
      <trkpt lat="44.10551" lon="6.65961">
        <ele>2100.2998</ele>
        <time>2023-08-07T15:51:11+02:00</time>
      </trkpt>
      <trkpt lat="44.1055" lon="6.65959">
        <ele>2099.4004</ele>
        <time>2023-08-07T15:51:12+02:00</time>
      </trkpt>
      <trkpt lat="44.10545" lon="6.65951">
        <ele>2098.7998</ele>
        <time>2023-08-07T15:51:16+02:00</time>
      </trkpt>
      <trkpt lat="44.10544" lon="6.65949">
        <ele>2098.7998</ele>
        <time>2023-08-07T15:51:17+02:00</time>
      </trkpt>
      <trkpt lat="44.10537" lon="6.65944">
        <ele>2098.9004</ele>
        <time>2023-08-07T15:51:21+02:00</time>
      </trkpt>
      <trkpt lat="44.10535" lon="6.65943">
        <ele>2098.2002</ele>
        <time>2023-08-07T15:51:22+02:00</time>
      </trkpt>
      <trkpt lat="44.10528" lon="6.65936">
        <ele>2098.2998</ele>
        <time>2023-08-07T15:51:26+02:00</time>
      </trkpt>
      <trkpt lat="44.10527" lon="6.65934">
        <ele>2097.6006</ele>
        <time>2023-08-07T15:51:27+02:00</time>
      </trkpt>
      <trkpt lat="44.10521" lon="6.65928">
        <ele>2098</ele>
        <time>2023-08-07T15:51:31+02:00</time>
      </trkpt>
      <trkpt lat="44.10519" lon="6.65927">
        <ele>2098</ele>
        <time>2023-08-07T15:51:32+02:00</time>
      </trkpt>
      <trkpt lat="44.10513" lon="6.65922">
        <ele>2097.6006</ele>
        <time>2023-08-07T15:51:36+02:00</time>
      </trkpt>
      <trkpt lat="44.10511" lon="6.65921">
        <ele>2097.6006</ele>
        <time>2023-08-07T15:51:37+02:00</time>
      </trkpt>
      <trkpt lat="44.10505" lon="6.65914">
        <ele>2097.1006</ele>
        <time>2023-08-07T15:51:41+02:00</time>
      </trkpt>
      <trkpt lat="44.10504" lon="6.65913">
        <ele>2097.1006</ele>
        <time>2023-08-07T15:51:42+02:00</time>
      </trkpt>
      <trkpt lat="44.10498" lon="6.65908">
        <ele>2096.5</ele>
        <time>2023-08-07T15:51:46+02:00</time>
      </trkpt>
      <trkpt lat="44.10497" lon="6.65906">
        <ele>2097.1006</ele>
        <time>2023-08-07T15:51:47+02:00</time>
      </trkpt>
      <trkpt lat="44.1049" lon="6.65898">
        <ele>2096.2998</ele>
        <time>2023-08-07T15:51:51+02:00</time>
      </trkpt>
      <trkpt lat="44.10488" lon="6.65896">
        <ele>2096.2998</ele>
        <time>2023-08-07T15:51:52+02:00</time>
      </trkpt>
      <trkpt lat="44.10479" lon="6.65886">
        <ele>2095.6006</ele>
        <time>2023-08-07T15:51:56+02:00</time>
      </trkpt>
      <trkpt lat="44.10477" lon="6.65884">
        <ele>2096.2002</ele>
        <time>2023-08-07T15:51:57+02:00</time>
      </trkpt>
      <trkpt lat="44.1047" lon="6.65875">
        <ele>2095.4004</ele>
        <time>2023-08-07T15:52:01+02:00</time>
      </trkpt>
      <trkpt lat="44.10469" lon="6.65872">
        <ele>2094</ele>
        <time>2023-08-07T15:52:02+02:00</time>
      </trkpt>
      <trkpt lat="44.1046" lon="6.65862">
        <ele>2093.2002</ele>
        <time>2023-08-07T15:52:06+02:00</time>
      </trkpt>
      <trkpt lat="44.10458" lon="6.6586">
        <ele>2093.7998</ele>
        <time>2023-08-07T15:52:07+02:00</time>
      </trkpt>
      <trkpt lat="44.10449" lon="6.65855">
        <ele>2093</ele>
        <time>2023-08-07T15:52:11+02:00</time>
      </trkpt>
      <trkpt lat="44.10446" lon="6.65852">
        <ele>2093.6006</ele>
        <time>2023-08-07T15:52:12+02:00</time>
      </trkpt>
      <trkpt lat="44.10434" lon="6.6584">
        <ele>2091.2998</ele>
        <time>2023-08-07T15:52:16+02:00</time>
      </trkpt>
      <trkpt lat="44.1043" lon="6.65837">
        <ele>2091.2998</ele>
        <time>2023-08-07T15:52:17+02:00</time>
      </trkpt>
      <trkpt lat="44.10416" lon="6.65822">
        <ele>2089.7002</ele>
        <time>2023-08-07T15:52:21+02:00</time>
      </trkpt>
      <trkpt lat="44.10413" lon="6.65819">
        <ele>2089.7002</ele>
        <time>2023-08-07T15:52:22+02:00</time>
      </trkpt>
      <trkpt lat="44.10405" lon="6.65812">
        <ele>2088.5</ele>
        <time>2023-08-07T15:52:26+02:00</time>
      </trkpt>
      <trkpt lat="44.10405" lon="6.65812">
        <ele>2088.5</ele>
        <time>2023-08-07T15:52:27+02:00</time>
      </trkpt>
      <trkpt lat="44.104" lon="6.65809">
        <ele>2089.1006</ele>
        <time>2023-08-07T15:52:31+02:00</time>
      </trkpt>
      <trkpt lat="44.10398" lon="6.65806">
        <ele>2089.7998</ele>
        <time>2023-08-07T15:52:32+02:00</time>
      </trkpt>
      <trkpt lat="44.10384" lon="6.65791">
        <ele>2086.7998</ele>
        <time>2023-08-07T15:52:36+02:00</time>
      </trkpt>
      <trkpt lat="44.10381" lon="6.65787">
        <ele>2084.5</ele>
        <time>2023-08-07T15:52:37+02:00</time>
      </trkpt>
      <trkpt lat="44.10371" lon="6.65773">
        <ele>2083.2998</ele>
        <time>2023-08-07T15:52:41+02:00</time>
      </trkpt>
      <trkpt lat="44.10368" lon="6.65769">
        <ele>2080.9004</ele>
        <time>2023-08-07T15:52:42+02:00</time>
      </trkpt>
      <trkpt lat="44.10355" lon="6.65755">
        <ele>2080.4004</ele>
        <time>2023-08-07T15:52:46+02:00</time>
      </trkpt>
      <trkpt lat="44.10351" lon="6.65752">
        <ele>2077.7002</ele>
        <time>2023-08-07T15:52:47+02:00</time>
      </trkpt>
      <trkpt lat="44.1034" lon="6.65742">
        <ele>2076.7002</ele>
        <time>2023-08-07T15:52:51+02:00</time>
      </trkpt>
      <trkpt lat="44.10338" lon="6.65739">
        <ele>2076.7002</ele>
        <time>2023-08-07T15:52:52+02:00</time>
      </trkpt>
      <trkpt lat="44.10327" lon="6.65723">
        <ele>2073.2998</ele>
        <time>2023-08-07T15:52:56+02:00</time>
      </trkpt>
      <trkpt lat="44.10324" lon="6.65719">
        <ele>2071.7998</ele>
        <time>2023-08-07T15:52:57+02:00</time>
      </trkpt>
      <trkpt lat="44.10311" lon="6.65699">
        <ele>2069.6006</ele>
        <time>2023-08-07T15:53:01+02:00</time>
      </trkpt>
      <trkpt lat="44.10309" lon="6.65694">
        <ele>2067</ele>
        <time>2023-08-07T15:53:02+02:00</time>
      </trkpt>
      <trkpt lat="44.10295" lon="6.65674">
        <ele>2064.9004</ele>
        <time>2023-08-07T15:53:06+02:00</time>
      </trkpt>
      <trkpt lat="44.1029" lon="6.65669">
        <ele>2066.6006</ele>
        <time>2023-08-07T15:53:07+02:00</time>
      </trkpt>
      <trkpt lat="44.1027" lon="6.65649">
        <ele>2063.2002</ele>
        <time>2023-08-07T15:53:11+02:00</time>
      </trkpt>
      <trkpt lat="44.10266" lon="6.65644">
        <ele>2064.9004</ele>
        <time>2023-08-07T15:53:12+02:00</time>
      </trkpt>
      <trkpt lat="44.10253" lon="6.65625">
        <ele>2059.7002</ele>
        <time>2023-08-07T15:53:16+02:00</time>
      </trkpt>
      <trkpt lat="44.10249" lon="6.65619">
        <ele>2061.5</ele>
        <time>2023-08-07T15:53:17+02:00</time>
      </trkpt>
      <trkpt lat="44.10234" lon="6.65601">
        <ele>2058.7002</ele>
        <time>2023-08-07T15:53:21+02:00</time>
      </trkpt>
      <trkpt lat="44.1023" lon="6.65596">
        <ele>2057.4004</ele>
        <time>2023-08-07T15:53:22+02:00</time>
      </trkpt>
      <trkpt lat="44.10213" lon="6.65579">
        <ele>2055.7002</ele>
        <time>2023-08-07T15:53:26+02:00</time>
      </trkpt>
      <trkpt lat="44.10208" lon="6.65575">
        <ele>2055.7002</ele>
        <time>2023-08-07T15:53:27+02:00</time>
      </trkpt>
      <trkpt lat="44.10188" lon="6.65556">
        <ele>2052</ele>
        <time>2023-08-07T15:53:31+02:00</time>
      </trkpt>
      <trkpt lat="44.10185" lon="6.65551">
        <ele>2052</ele>
        <time>2023-08-07T15:53:32+02:00</time>
      </trkpt>
      <trkpt lat="44.10171" lon="6.65535">
        <ele>2048.7002</ele>
        <time>2023-08-07T15:53:36+02:00</time>
      </trkpt>
      <trkpt lat="44.10168" lon="6.65532">
        <ele>2050.2998</ele>
        <time>2023-08-07T15:53:37+02:00</time>
      </trkpt>
      <trkpt lat="44.10153" lon="6.65516">
        <ele>2046.4004</ele>
        <time>2023-08-07T15:53:41+02:00</time>
      </trkpt>
      <trkpt lat="44.10149" lon="6.65512">
        <ele>2044.2998</ele>
        <time>2023-08-07T15:53:42+02:00</time>
      </trkpt>
      <trkpt lat="44.10131" lon="6.65494">
        <ele>2039.6006</ele>
        <time>2023-08-07T15:53:46+02:00</time>
      </trkpt>
      <trkpt lat="44.10126" lon="6.65489">
        <ele>2039.9004</ele>
        <time>2023-08-07T15:53:47+02:00</time>
      </trkpt>
      <trkpt lat="44.1011" lon="6.65468">
        <ele>2031.2998</ele>
        <time>2023-08-07T15:53:51+02:00</time>
      </trkpt>
      <trkpt lat="44.10105" lon="6.65462">
        <ele>2028.7998</ele>
        <time>2023-08-07T15:53:52+02:00</time>
      </trkpt>
      <trkpt lat="44.10086" lon="6.65441">
        <ele>2025</ele>
        <time>2023-08-07T15:53:56+02:00</time>
      </trkpt>
      <trkpt lat="44.10082" lon="6.65436">
        <ele>2023.4004</ele>
        <time>2023-08-07T15:53:57+02:00</time>
      </trkpt>
      <trkpt lat="44.10066" lon="6.65423">
        <ele>2022.1006</ele>
        <time>2023-08-07T15:54:01+02:00</time>
      </trkpt>
      <trkpt lat="44.10061" lon="6.6542">
        <ele>2022.2002</ele>
        <time>2023-08-07T15:54:02+02:00</time>
      </trkpt>
      <trkpt lat="44.10043" lon="6.65406">
        <ele>2019.2998</ele>
        <time>2023-08-07T15:54:06+02:00</time>
      </trkpt>
      <trkpt lat="44.10038" lon="6.65402">
        <ele>2017.7998</ele>
        <time>2023-08-07T15:54:07+02:00</time>
      </trkpt>
      <trkpt lat="44.10017" lon="6.65388">
        <ele>2015.9004</ele>
        <time>2023-08-07T15:54:11+02:00</time>
      </trkpt>
      <trkpt lat="44.10011" lon="6.65386">
        <ele>2015.5</ele>
        <time>2023-08-07T15:54:12+02:00</time>
      </trkpt>
      <trkpt lat="44.0999" lon="6.65386">
        <ele>2011.2002</ele>
        <time>2023-08-07T15:54:16+02:00</time>
      </trkpt>
      <trkpt lat="44.09986" lon="6.65388">
        <ele>2011.2002</ele>
        <time>2023-08-07T15:54:17+02:00</time>
      </trkpt>
      <trkpt lat="44.0998" lon="6.65403">
        <ele>2011.2998</ele>
        <time>2023-08-07T15:54:21+02:00</time>
      </trkpt>
      <trkpt lat="44.09979" lon="6.65409">
        <ele>2011.2998</ele>
        <time>2023-08-07T15:54:22+02:00</time>
      </trkpt>
      <trkpt lat="44.09975" lon="6.65439">
        <ele>2012.6006</ele>
        <time>2023-08-07T15:54:26+02:00</time>
      </trkpt>
      <trkpt lat="44.09974" lon="6.65446">
        <ele>2013.4004</ele>
        <time>2023-08-07T15:54:27+02:00</time>
      </trkpt>
      <trkpt lat="44.09971" lon="6.65472">
        <ele>2013.7002</ele>
        <time>2023-08-07T15:54:31+02:00</time>
      </trkpt>
      <trkpt lat="44.0997" lon="6.65478">
        <ele>2013.7002</ele>
        <time>2023-08-07T15:54:32+02:00</time>
      </trkpt>
      <trkpt lat="44.09967" lon="6.65505">
        <ele>2017.2002</ele>
        <time>2023-08-07T15:54:36+02:00</time>
      </trkpt>
      <trkpt lat="44.09966" lon="6.65513">
        <ele>2015.7002</ele>
        <time>2023-08-07T15:54:37+02:00</time>
      </trkpt>
      <trkpt lat="44.0996" lon="6.65541">
        <ele>2018.6006</ele>
        <time>2023-08-07T15:54:41+02:00</time>
      </trkpt>
      <trkpt lat="44.09959" lon="6.65547">
        <ele>2018.6006</ele>
        <time>2023-08-07T15:54:42+02:00</time>
      </trkpt>
      <trkpt lat="44.09954" lon="6.6557">
        <ele>2020.1006</ele>
        <time>2023-08-07T15:54:46+02:00</time>
      </trkpt>
      <trkpt lat="44.09953" lon="6.65576">
        <ele>2021.7998</ele>
        <time>2023-08-07T15:54:47+02:00</time>
      </trkpt>
      <trkpt lat="44.09946" lon="6.656">
        <ele>2021.7002</ele>
        <time>2023-08-07T15:54:51+02:00</time>
      </trkpt>
      <trkpt lat="44.09945" lon="6.65606">
        <ele>2023.5</ele>
        <time>2023-08-07T15:54:52+02:00</time>
      </trkpt>
      <trkpt lat="44.09938" lon="6.65626">
        <ele>2023.2998</ele>
        <time>2023-08-07T15:54:56+02:00</time>
      </trkpt>
      <trkpt lat="44.09937" lon="6.6563">
        <ele>2025</ele>
        <time>2023-08-07T15:54:57+02:00</time>
      </trkpt>
      <trkpt lat="44.0993" lon="6.6565">
        <ele>2024.4004</ele>
        <time>2023-08-07T15:55:01+02:00</time>
      </trkpt>
      <trkpt lat="44.09928" lon="6.65656">
        <ele>2021.9004</ele>
        <time>2023-08-07T15:55:02+02:00</time>
      </trkpt>
      <trkpt lat="44.09919" lon="6.65682">
        <ele>2021.7002</ele>
        <time>2023-08-07T15:55:06+02:00</time>
      </trkpt>
      <trkpt lat="44.09916" lon="6.65689">
        <ele>2018.7002</ele>
        <time>2023-08-07T15:55:07+02:00</time>
      </trkpt>
      <trkpt lat="44.09905" lon="6.65714">
        <ele>2017.7002</ele>
        <time>2023-08-07T15:55:11+02:00</time>
      </trkpt>
      <trkpt lat="44.09903" lon="6.65719">
        <ele>2013.6006</ele>
        <time>2023-08-07T15:55:12+02:00</time>
      </trkpt>
      <trkpt lat="44.09891" lon="6.65738">
        <ele>2008</ele>
        <time>2023-08-07T15:55:16+02:00</time>
      </trkpt>
      <trkpt lat="44.09888" lon="6.65743">
        <ele>2008</ele>
        <time>2023-08-07T15:55:17+02:00</time>
      </trkpt>
      <trkpt lat="44.09877" lon="6.65764">
        <ele>2002.1006</ele>
        <time>2023-08-07T15:55:21+02:00</time>
      </trkpt>
      <trkpt lat="44.09875" lon="6.65771">
        <ele>2002.1006</ele>
        <time>2023-08-07T15:55:22+02:00</time>
      </trkpt>
      <trkpt lat="44.09866" lon="6.65805">
        <ele>1996.7002</ele>
        <time>2023-08-07T15:55:26+02:00</time>
      </trkpt>
      <trkpt lat="44.09864" lon="6.65812">
        <ele>1997</ele>
        <time>2023-08-07T15:55:27+02:00</time>
      </trkpt>
      <trkpt lat="44.09855" lon="6.65835">
        <ele>1992.7002</ele>
        <time>2023-08-07T15:55:31+02:00</time>
      </trkpt>
      <trkpt lat="44.09853" lon="6.65839">
        <ele>1992.7002</ele>
        <time>2023-08-07T15:55:32+02:00</time>
      </trkpt>
      <trkpt lat="44.09846" lon="6.65842">
        <ele>1990.7002</ele>
        <time>2023-08-07T15:55:36+02:00</time>
      </trkpt>
      <trkpt lat="44.09844" lon="6.65842">
        <ele>1990.7002</ele>
        <time>2023-08-07T15:55:37+02:00</time>
      </trkpt>
      <trkpt lat="44.09841" lon="6.65852">
        <ele>1989</ele>
        <time>2023-08-07T15:55:41+02:00</time>
      </trkpt>
      <trkpt lat="44.09841" lon="6.65856">
        <ele>1989</ele>
        <time>2023-08-07T15:55:42+02:00</time>
      </trkpt>
      <trkpt lat="44.09843" lon="6.65874">
        <ele>1989.1006</ele>
        <time>2023-08-07T15:55:46+02:00</time>
      </trkpt>
      <trkpt lat="44.09844" lon="6.6588">
        <ele>1990.2002</ele>
        <time>2023-08-07T15:55:47+02:00</time>
      </trkpt>
      <trkpt lat="44.0984" lon="6.65896">
        <ele>1988.5</ele>
        <time>2023-08-07T15:55:51+02:00</time>
      </trkpt>
      <trkpt lat="44.0984" lon="6.659">
        <ele>1988.5</ele>
        <time>2023-08-07T15:55:52+02:00</time>
      </trkpt>
      <trkpt lat="44.09849" lon="6.65916">
        <ele>1989.2998</ele>
        <time>2023-08-07T15:55:56+02:00</time>
      </trkpt>
      <trkpt lat="44.09851" lon="6.65921">
        <ele>1990.7998</ele>
        <time>2023-08-07T15:55:57+02:00</time>
      </trkpt>
      <trkpt lat="44.09852" lon="6.65938">
        <ele>1992.1006</ele>
        <time>2023-08-07T15:56:01+02:00</time>
      </trkpt>
      <trkpt lat="44.0985" lon="6.65941">
        <ele>1992.1006</ele>
        <time>2023-08-07T15:56:02+02:00</time>
      </trkpt>
      <trkpt lat="44.09842" lon="6.65944">
        <ele>1992</ele>
        <time>2023-08-07T15:56:06+02:00</time>
      </trkpt>
      <trkpt lat="44.0984" lon="6.65944">
        <ele>1992</ele>
        <time>2023-08-07T15:56:07+02:00</time>
      </trkpt>
      <trkpt lat="44.09836" lon="6.65942">
        <ele>1990.2002</ele>
        <time>2023-08-07T15:56:11+02:00</time>
      </trkpt>
      <trkpt lat="44.09837" lon="6.65942">
        <ele>1990.2002</ele>
        <time>2023-08-07T15:56:12+02:00</time>
      </trkpt>
      <trkpt lat="44.09837" lon="6.65942">
        <ele>1990.2002</ele>
        <time>2023-08-07T15:56:16+02:00</time>
      </trkpt>
      <trkpt lat="44.09837" lon="6.65942">
        <ele>1990.2002</ele>
        <time>2023-08-07T15:56:17+02:00</time>
      </trkpt>
      <trkpt lat="44.09837" lon="6.65942">
        <ele>1990.2002</ele>
        <time>2023-08-07T15:56:21+02:00</time>
      </trkpt>
      <trkpt lat="44.09837" lon="6.65942">
        <ele>1990.2002</ele>
        <time>2023-08-07T15:56:22+02:00</time>
      </trkpt>
      <trkpt lat="44.09837" lon="6.65942">
        <ele>1990.2002</ele>
        <time>2023-08-07T15:56:26+02:00</time>
      </trkpt>
      <trkpt lat="44.09837" lon="6.65942">
        <ele>1990.2002</ele>
        <time>2023-08-07T15:56:27+02:00</time>
      </trkpt>
      <trkpt lat="44.09837" lon="6.65942">
        <ele>1990.2002</ele>
        <time>2023-08-07T15:56:31+02:00</time>
      </trkpt>
      <trkpt lat="44.09837" lon="6.65942">
        <ele>1990.2002</ele>
        <time>2023-08-07T15:56:32+02:00</time>
      </trkpt>
      <trkpt lat="44.09837" lon="6.65942">
        <ele>1990.2002</ele>
        <time>2023-08-07T15:56:36+02:00</time>
      </trkpt>
      <trkpt lat="44.09837" lon="6.65942">
        <ele>1990.2002</ele>
        <time>2023-08-07T15:56:37+02:00</time>
      </trkpt>
      <trkpt lat="44.09837" lon="6.65942">
        <ele>1990.2002</ele>
        <time>2023-08-07T15:56:41+02:00</time>
      </trkpt>
      <trkpt lat="44.09837" lon="6.65942">
        <ele>1990.2002</ele>
        <time>2023-08-07T15:56:42+02:00</time>
      </trkpt>
      <trkpt lat="44.09833" lon="6.65941">
        <ele>1990.2002</ele>
        <time>2023-08-07T15:56:46+02:00</time>
      </trkpt>
      <trkpt lat="44.09831" lon="6.6594">
        <ele>1990.2002</ele>
        <time>2023-08-07T15:56:47+02:00</time>
      </trkpt>
      <trkpt lat="44.09824" lon="6.65936">
        <ele>1989.6006</ele>
        <time>2023-08-07T15:56:51+02:00</time>
      </trkpt>
      <trkpt lat="44.09823" lon="6.65936">
        <ele>1989.6006</ele>
        <time>2023-08-07T15:56:52+02:00</time>
      </trkpt>
      <trkpt lat="44.09816" lon="6.65932">
        <ele>1988.2998</ele>
        <time>2023-08-07T15:56:56+02:00</time>
      </trkpt>
      <trkpt lat="44.09814" lon="6.65931">
        <ele>1988.2998</ele>
        <time>2023-08-07T15:56:57+02:00</time>
      </trkpt>
      <trkpt lat="44.09813" lon="6.65931">
        <ele>1988.2998</ele>
        <time>2023-08-07T15:57:01+02:00</time>
      </trkpt>
      <trkpt lat="44.09813" lon="6.65931">
        <ele>1988.2998</ele>
        <time>2023-08-07T15:57:02+02:00</time>
      </trkpt>
      <trkpt lat="44.09813" lon="6.65931">
        <ele>1988.2998</ele>
        <time>2023-08-07T15:57:06+02:00</time>
      </trkpt>
      <trkpt lat="44.09813" lon="6.65931">
        <ele>1988.2998</ele>
        <time>2023-08-07T15:57:07+02:00</time>
      </trkpt>
      <trkpt lat="44.09813" lon="6.65931">
        <ele>1988.2998</ele>
        <time>2023-08-07T15:57:11+02:00</time>
      </trkpt>
      <trkpt lat="44.09813" lon="6.65931">
        <ele>1988.2998</ele>
        <time>2023-08-07T15:57:12+02:00</time>
      </trkpt>
      <trkpt lat="44.09813" lon="6.65931">
        <ele>1988.2998</ele>
        <time>2023-08-07T15:57:16+02:00</time>
      </trkpt>
      <trkpt lat="44.09813" lon="6.65931">
        <ele>1988.2998</ele>
        <time>2023-08-07T15:57:17+02:00</time>
      </trkpt>
      <trkpt lat="44.09813" lon="6.65931">
        <ele>1988.2998</ele>
        <time>2023-08-07T15:57:21+02:00</time>
      </trkpt>
      <trkpt lat="44.09811" lon="6.65928">
        <ele>1987.6006</ele>
        <time>2023-08-07T15:57:22+02:00</time>
      </trkpt>
      <trkpt lat="44.09804" lon="6.65922">
        <ele>1985.9004</ele>
        <time>2023-08-07T15:57:26+02:00</time>
      </trkpt>
      <trkpt lat="44.09803" lon="6.65922">
        <ele>1985.9004</ele>
        <time>2023-08-07T15:57:27+02:00</time>
      </trkpt>
      <trkpt lat="44.09802" lon="6.65922">
        <ele>1985.9004</ele>
        <time>2023-08-07T15:57:31+02:00</time>
      </trkpt>
      <trkpt lat="44.09802" lon="6.65922">
        <ele>1985.9004</ele>
        <time>2023-08-07T15:57:32+02:00</time>
      </trkpt>
      <trkpt lat="44.09802" lon="6.65922">
        <ele>1985.9004</ele>
        <time>2023-08-07T15:57:36+02:00</time>
      </trkpt>
      <trkpt lat="44.09802" lon="6.65922">
        <ele>1985.9004</ele>
        <time>2023-08-07T15:57:37+02:00</time>
      </trkpt>
      <trkpt lat="44.09802" lon="6.65922">
        <ele>1985.9004</ele>
        <time>2023-08-07T15:57:41+02:00</time>
      </trkpt>
      <trkpt lat="44.098" lon="6.65925">
        <ele>1985</ele>
        <time>2023-08-07T15:57:42+02:00</time>
      </trkpt>
      <trkpt lat="44.09792" lon="6.65938">
        <ele>1985.9004</ele>
        <time>2023-08-07T15:57:46+02:00</time>
      </trkpt>
      <trkpt lat="44.09791" lon="6.65941">
        <ele>1985.9004</ele>
        <time>2023-08-07T15:57:47+02:00</time>
      </trkpt>
      <trkpt lat="44.09788" lon="6.65951">
        <ele>1985.7998</ele>
        <time>2023-08-07T15:57:51+02:00</time>
      </trkpt>
      <trkpt lat="44.09787" lon="6.65954">
        <ele>1986.5</ele>
        <time>2023-08-07T15:57:52+02:00</time>
      </trkpt>
      <trkpt lat="44.09782" lon="6.65967">
        <ele>1987.2002</ele>
        <time>2023-08-07T15:57:56+02:00</time>
      </trkpt>
      <trkpt lat="44.09781" lon="6.65971">
        <ele>1987.1006</ele>
        <time>2023-08-07T15:57:57+02:00</time>
      </trkpt>
      <trkpt lat="44.09774" lon="6.65984">
        <ele>1987.4004</ele>
        <time>2023-08-07T15:58:01+02:00</time>
      </trkpt>
      <trkpt lat="44.09772" lon="6.65987">
        <ele>1988.2998</ele>
        <time>2023-08-07T15:58:02+02:00</time>
      </trkpt>
      <trkpt lat="44.09764" lon="6.65996">
        <ele>1988.9004</ele>
        <time>2023-08-07T15:58:06+02:00</time>
      </trkpt>
      <trkpt lat="44.09762" lon="6.65998">
        <ele>1988.6006</ele>
        <time>2023-08-07T15:58:07+02:00</time>
      </trkpt>
      <trkpt lat="44.09756" lon="6.66006">
        <ele>1989.5</ele>
        <time>2023-08-07T15:58:11+02:00</time>
      </trkpt>
      <trkpt lat="44.09755" lon="6.66008">
        <ele>1989.5</ele>
        <time>2023-08-07T15:58:12+02:00</time>
      </trkpt>
      <trkpt lat="44.09751" lon="6.66019">
        <ele>1990.5</ele>
        <time>2023-08-07T15:58:16+02:00</time>
      </trkpt>
      <trkpt lat="44.0975" lon="6.66022">
        <ele>1991.6006</ele>
        <time>2023-08-07T15:58:17+02:00</time>
      </trkpt>
      <trkpt lat="44.09745" lon="6.66031">
        <ele>1992.6006</ele>
        <time>2023-08-07T15:58:21+02:00</time>
      </trkpt>
      <trkpt lat="44.09744" lon="6.66034">
        <ele>1992.7998</ele>
        <time>2023-08-07T15:58:22+02:00</time>
      </trkpt>
      <trkpt lat="44.09741" lon="6.66043">
        <ele>1993.9004</ele>
        <time>2023-08-07T15:58:26+02:00</time>
      </trkpt>
      <trkpt lat="44.09739" lon="6.66043">
        <ele>1993.9004</ele>
        <time>2023-08-07T15:58:27+02:00</time>
      </trkpt>
      <trkpt lat="44.09734" lon="6.6604">
        <ele>1994.4004</ele>
        <time>2023-08-07T15:58:31+02:00</time>
      </trkpt>
      <trkpt lat="44.09733" lon="6.66039">
        <ele>1994.4004</ele>
        <time>2023-08-07T15:58:32+02:00</time>
      </trkpt>
      <trkpt lat="44.09733" lon="6.66039">
        <ele>1994.4004</ele>
        <time>2023-08-07T15:58:36+02:00</time>
      </trkpt>
      <trkpt lat="44.09733" lon="6.66039">
        <ele>1994.4004</ele>
        <time>2023-08-07T15:58:37+02:00</time>
      </trkpt>
      <trkpt lat="44.09733" lon="6.66039">
        <ele>1994.4004</ele>
        <time>2023-08-07T15:58:41+02:00</time>
      </trkpt>
      <trkpt lat="44.09733" lon="6.66039">
        <ele>1994.4004</ele>
        <time>2023-08-07T15:58:42+02:00</time>
      </trkpt>
      <trkpt lat="44.09733" lon="6.6604">
        <ele>1994.4004</ele>
        <time>2023-08-07T15:58:46+02:00</time>
      </trkpt>
      <trkpt lat="44.09733" lon="6.6604">
        <ele>1994.4004</ele>
        <time>2023-08-07T15:58:47+02:00</time>
      </trkpt>
      <trkpt lat="44.09723" lon="6.66034">
        <ele>1994.7998</ele>
        <time>2023-08-07T15:58:51+02:00</time>
      </trkpt>
      <trkpt lat="44.09721" lon="6.66032">
        <ele>1994.7998</ele>
        <time>2023-08-07T15:58:52+02:00</time>
      </trkpt>
      <trkpt lat="44.09715" lon="6.66027">
        <ele>1994.7002</ele>
        <time>2023-08-07T15:58:56+02:00</time>
      </trkpt>
      <trkpt lat="44.09714" lon="6.66026">
        <ele>1996.4004</ele>
        <time>2023-08-07T15:58:57+02:00</time>
      </trkpt>
      <trkpt lat="44.09708" lon="6.66021">
        <ele>1996.4004</ele>
        <time>2023-08-07T15:59:01+02:00</time>
      </trkpt>
      <trkpt lat="44.09707" lon="6.6602">
        <ele>1996.7998</ele>
        <time>2023-08-07T15:59:02+02:00</time>
      </trkpt>
      <trkpt lat="44.09704" lon="6.66017">
        <ele>1996.7998</ele>
        <time>2023-08-07T15:59:06+02:00</time>
      </trkpt>
      <trkpt lat="44.09704" lon="6.66017">
        <ele>1996.7998</ele>
        <time>2023-08-07T15:59:07+02:00</time>
      </trkpt>
      <trkpt lat="44.09704" lon="6.66017">
        <ele>1996.7998</ele>
        <time>2023-08-07T15:59:11+02:00</time>
      </trkpt>
      <trkpt lat="44.09704" lon="6.66017">
        <ele>1996.7998</ele>
        <time>2023-08-07T15:59:12+02:00</time>
      </trkpt>
      <trkpt lat="44.09704" lon="6.66017">
        <ele>1996.7998</ele>
        <time>2023-08-07T15:59:16+02:00</time>
      </trkpt>
      <trkpt lat="44.09702" lon="6.66015">
        <ele>1996.7998</ele>
        <time>2023-08-07T15:59:17+02:00</time>
      </trkpt>
      <trkpt lat="44.09697" lon="6.66006">
        <ele>1997.4004</ele>
        <time>2023-08-07T15:59:21+02:00</time>
      </trkpt>
      <trkpt lat="44.09695" lon="6.66004">
        <ele>1999.5</ele>
        <time>2023-08-07T15:59:22+02:00</time>
      </trkpt>
      <trkpt lat="44.0969" lon="6.65997">
        <ele>1997.9004</ele>
        <time>2023-08-07T15:59:26+02:00</time>
      </trkpt>
      <trkpt lat="44.09689" lon="6.65996">
        <ele>2000.1006</ele>
        <time>2023-08-07T15:59:27+02:00</time>
      </trkpt>
      <trkpt lat="44.09686" lon="6.65989">
        <ele>1998.5</ele>
        <time>2023-08-07T15:59:31+02:00</time>
      </trkpt>
      <trkpt lat="44.09685" lon="6.65987">
        <ele>1998.5</ele>
        <time>2023-08-07T15:59:32+02:00</time>
      </trkpt>
      <trkpt lat="44.09681" lon="6.65979">
        <ele>1999.4004</ele>
        <time>2023-08-07T15:59:36+02:00</time>
      </trkpt>
      <trkpt lat="44.09681" lon="6.65977">
        <ele>1998</ele>
        <time>2023-08-07T15:59:37+02:00</time>
      </trkpt>
      <trkpt lat="44.09677" lon="6.65971">
        <ele>2000.7002</ele>
        <time>2023-08-07T15:59:41+02:00</time>
      </trkpt>
      <trkpt lat="44.09676" lon="6.65969">
        <ele>2000.7002</ele>
        <time>2023-08-07T15:59:42+02:00</time>
      </trkpt>
      <trkpt lat="44.09672" lon="6.65963">
        <ele>1999.4004</ele>
        <time>2023-08-07T15:59:46+02:00</time>
      </trkpt>
      <trkpt lat="44.09671" lon="6.65961">
        <ele>1999.4004</ele>
        <time>2023-08-07T15:59:47+02:00</time>
      </trkpt>
      <trkpt lat="44.09668" lon="6.65954">
        <ele>2001</ele>
        <time>2023-08-07T15:59:51+02:00</time>
      </trkpt>
      <trkpt lat="44.09667" lon="6.65952">
        <ele>1999.7998</ele>
        <time>2023-08-07T15:59:52+02:00</time>
      </trkpt>
      <trkpt lat="44.09665" lon="6.65944">
        <ele>2002.6006</ele>
        <time>2023-08-07T15:59:56+02:00</time>
      </trkpt>
      <trkpt lat="44.09664" lon="6.65942">
        <ele>2001.5</ele>
        <time>2023-08-07T15:59:57+02:00</time>
      </trkpt>
      <trkpt lat="44.0966" lon="6.65935">
        <ele>2001.5</ele>
        <time>2023-08-07T16:00:01+02:00</time>
      </trkpt>
      <trkpt lat="44.09659" lon="6.65933">
        <ele>2000.4004</ele>
        <time>2023-08-07T16:00:02+02:00</time>
      </trkpt>
      <trkpt lat="44.09655" lon="6.65927">
        <ele>2003.2998</ele>
        <time>2023-08-07T16:00:06+02:00</time>
      </trkpt>
      <trkpt lat="44.09654" lon="6.65926">
        <ele>2002.2998</ele>
        <time>2023-08-07T16:00:07+02:00</time>
      </trkpt>
      <trkpt lat="44.09651" lon="6.65923">
        <ele>2005.2998</ele>
        <time>2023-08-07T16:00:11+02:00</time>
      </trkpt>
      <trkpt lat="44.09651" lon="6.65923">
        <ele>2005.2998</ele>
        <time>2023-08-07T16:00:12+02:00</time>
      </trkpt>
      <trkpt lat="44.09651" lon="6.65923">
        <ele>2005.2998</ele>
        <time>2023-08-07T16:00:16+02:00</time>
      </trkpt>
      <trkpt lat="44.09651" lon="6.65923">
        <ele>2005.2998</ele>
        <time>2023-08-07T16:00:17+02:00</time>
      </trkpt>
      <trkpt lat="44.09651" lon="6.65923">
        <ele>2005.2998</ele>
        <time>2023-08-07T16:00:21+02:00</time>
      </trkpt>
      <trkpt lat="44.09651" lon="6.65923">
        <ele>2005.2998</ele>
        <time>2023-08-07T16:00:22+02:00</time>
      </trkpt>
      <trkpt lat="44.09651" lon="6.65923">
        <ele>2005.2998</ele>
        <time>2023-08-07T16:00:26+02:00</time>
      </trkpt>
      <trkpt lat="44.09651" lon="6.65923">
        <ele>2005.2998</ele>
        <time>2023-08-07T16:00:27+02:00</time>
      </trkpt>
      <trkpt lat="44.09651" lon="6.65923">
        <ele>2005.2998</ele>
        <time>2023-08-07T16:00:31+02:00</time>
      </trkpt>
      <trkpt lat="44.09651" lon="6.65923">
        <ele>2005.2998</ele>
        <time>2023-08-07T16:00:32+02:00</time>
      </trkpt>
      <trkpt lat="44.09646" lon="6.65909">
        <ele>2007.4004</ele>
        <time>2023-08-07T16:00:36+02:00</time>
      </trkpt>
      <trkpt lat="44.09645" lon="6.65907">
        <ele>2006.7002</ele>
        <time>2023-08-07T16:00:37+02:00</time>
      </trkpt>
      <trkpt lat="44.09644" lon="6.65898">
        <ele>2006</ele>
        <time>2023-08-07T16:00:41+02:00</time>
      </trkpt>
      <trkpt lat="44.09644" lon="6.65896">
        <ele>2006</ele>
        <time>2023-08-07T16:00:42+02:00</time>
      </trkpt>
      <trkpt lat="44.09642" lon="6.65887">
        <ele>2005.2998</ele>
        <time>2023-08-07T16:00:46+02:00</time>
      </trkpt>
      <trkpt lat="44.09642" lon="6.65884">
        <ele>2005.2998</ele>
        <time>2023-08-07T16:00:47+02:00</time>
      </trkpt>
      <trkpt lat="44.09638" lon="6.65877">
        <ele>2007.5</ele>
        <time>2023-08-07T16:00:51+02:00</time>
      </trkpt>
      <trkpt lat="44.09637" lon="6.65875">
        <ele>2007.5</ele>
        <time>2023-08-07T16:00:52+02:00</time>
      </trkpt>
      <trkpt lat="44.09634" lon="6.65873">
        <ele>2006.9004</ele>
        <time>2023-08-07T16:00:56+02:00</time>
      </trkpt>
      <trkpt lat="44.09634" lon="6.65873">
        <ele>2006.9004</ele>
        <time>2023-08-07T16:00:57+02:00</time>
      </trkpt>
      <trkpt lat="44.09634" lon="6.65873">
        <ele>2006.9004</ele>
        <time>2023-08-07T16:01:01+02:00</time>
      </trkpt>
      <trkpt lat="44.09634" lon="6.65873">
        <ele>2006.9004</ele>
        <time>2023-08-07T16:01:02+02:00</time>
      </trkpt>
      <trkpt lat="44.09634" lon="6.65873">
        <ele>2006.9004</ele>
        <time>2023-08-07T16:01:06+02:00</time>
      </trkpt>
      <trkpt lat="44.09634" lon="6.65873">
        <ele>2006.9004</ele>
        <time>2023-08-07T16:01:07+02:00</time>
      </trkpt>
      <trkpt lat="44.09634" lon="6.65873">
        <ele>2006.9004</ele>
        <time>2023-08-07T16:01:11+02:00</time>
      </trkpt>
      <trkpt lat="44.09634" lon="6.65873">
        <ele>2006.9004</ele>
        <time>2023-08-07T16:01:12+02:00</time>
      </trkpt>
      <trkpt lat="44.09634" lon="6.65873">
        <ele>2006.9004</ele>
        <time>2023-08-07T16:01:16+02:00</time>
      </trkpt>
      <trkpt lat="44.09634" lon="6.65873">
        <ele>2006.9004</ele>
        <time>2023-08-07T16:01:17+02:00</time>
      </trkpt>
      <trkpt lat="44.09634" lon="6.65873">
        <ele>2006.9004</ele>
        <time>2023-08-07T16:01:21+02:00</time>
      </trkpt>
      <trkpt lat="44.09634" lon="6.65873">
        <ele>2006.9004</ele>
        <time>2023-08-07T16:01:22+02:00</time>
      </trkpt>
      <trkpt lat="44.09634" lon="6.65873">
        <ele>2006.9004</ele>
        <time>2023-08-07T16:01:26+02:00</time>
      </trkpt>
      <trkpt lat="44.09634" lon="6.65873">
        <ele>2006.9004</ele>
        <time>2023-08-07T16:01:27+02:00</time>
      </trkpt>
      <trkpt lat="44.09634" lon="6.65873">
        <ele>2006.9004</ele>
        <time>2023-08-07T16:01:31+02:00</time>
      </trkpt>
      <trkpt lat="44.09631" lon="6.65869">
        <ele>2009.5</ele>
        <time>2023-08-07T16:01:32+02:00</time>
      </trkpt>
      <trkpt lat="44.09624" lon="6.65859">
        <ele>2011.6006</ele>
        <time>2023-08-07T16:01:36+02:00</time>
      </trkpt>
      <trkpt lat="44.09623" lon="6.65857">
        <ele>2011.2002</ele>
        <time>2023-08-07T16:01:37+02:00</time>
      </trkpt>
      <trkpt lat="44.09622" lon="6.65856">
        <ele>2011.2002</ele>
        <time>2023-08-07T16:01:41+02:00</time>
      </trkpt>
      <trkpt lat="44.09622" lon="6.65856">
        <ele>2011.2002</ele>
        <time>2023-08-07T16:01:42+02:00</time>
      </trkpt>
      <trkpt lat="44.09622" lon="6.65856">
        <ele>2011.2002</ele>
        <time>2023-08-07T16:01:46+02:00</time>
      </trkpt>
      <trkpt lat="44.09622" lon="6.65856">
        <ele>2011.2002</ele>
        <time>2023-08-07T16:01:47+02:00</time>
      </trkpt>
      <trkpt lat="44.09622" lon="6.65856">
        <ele>2011.2002</ele>
        <time>2023-08-07T16:01:51+02:00</time>
      </trkpt>
      <trkpt lat="44.09622" lon="6.65856">
        <ele>2011.2002</ele>
        <time>2023-08-07T16:01:52+02:00</time>
      </trkpt>
      <trkpt lat="44.09622" lon="6.65856">
        <ele>2011.2002</ele>
        <time>2023-08-07T16:01:56+02:00</time>
      </trkpt>
      <trkpt lat="44.09622" lon="6.65856">
        <ele>2011.2002</ele>
        <time>2023-08-07T16:01:57+02:00</time>
      </trkpt>
      <trkpt lat="44.09622" lon="6.65856">
        <ele>2011.2002</ele>
        <time>2023-08-07T16:02:01+02:00</time>
      </trkpt>
      <trkpt lat="44.09622" lon="6.65856">
        <ele>2011.2002</ele>
        <time>2023-08-07T16:02:02+02:00</time>
      </trkpt>
      <trkpt lat="44.09622" lon="6.65856">
        <ele>2011.2002</ele>
        <time>2023-08-07T16:02:06+02:00</time>
      </trkpt>
      <trkpt lat="44.09622" lon="6.65856">
        <ele>2011.2002</ele>
        <time>2023-08-07T16:02:07+02:00</time>
      </trkpt>
      <trkpt lat="44.09622" lon="6.65856">
        <ele>2011.2002</ele>
        <time>2023-08-07T16:02:11+02:00</time>
      </trkpt>
      <trkpt lat="44.09622" lon="6.65856">
        <ele>2011.2002</ele>
        <time>2023-08-07T16:02:12+02:00</time>
      </trkpt>
      <trkpt lat="44.09622" lon="6.65856">
        <ele>2011.2002</ele>
        <time>2023-08-07T16:02:16+02:00</time>
      </trkpt>
      <trkpt lat="44.09622" lon="6.65856">
        <ele>2011.2002</ele>
        <time>2023-08-07T16:02:17+02:00</time>
      </trkpt>
      <trkpt lat="44.09615" lon="6.65842">
        <ele>2015.7998</ele>
        <time>2023-08-07T16:02:21+02:00</time>
      </trkpt>
      <trkpt lat="44.09613" lon="6.65839">
        <ele>2015.6006</ele>
        <time>2023-08-07T16:02:22+02:00</time>
      </trkpt>
      <trkpt lat="44.09609" lon="6.65831">
        <ele>2015.5</ele>
        <time>2023-08-07T16:02:26+02:00</time>
      </trkpt>
      <trkpt lat="44.09609" lon="6.65829">
        <ele>2017.6006</ele>
        <time>2023-08-07T16:02:27+02:00</time>
      </trkpt>
      <trkpt lat="44.09606" lon="6.65822">
        <ele>2017.5</ele>
        <time>2023-08-07T16:02:31+02:00</time>
      </trkpt>
      <trkpt lat="44.09604" lon="6.6582">
        <ele>2017.5</ele>
        <time>2023-08-07T16:02:32+02:00</time>
      </trkpt>
      <trkpt lat="44.096" lon="6.65811">
        <ele>2019.2998</ele>
        <time>2023-08-07T16:02:36+02:00</time>
      </trkpt>
      <trkpt lat="44.09599" lon="6.65809">
        <ele>2019.2998</ele>
        <time>2023-08-07T16:02:37+02:00</time>
      </trkpt>
      <trkpt lat="44.09596" lon="6.658">
        <ele>2020.9004</ele>
        <time>2023-08-07T16:02:41+02:00</time>
      </trkpt>
      <trkpt lat="44.09596" lon="6.65798">
        <ele>2020.9004</ele>
        <time>2023-08-07T16:02:42+02:00</time>
      </trkpt>
      <trkpt lat="44.09595" lon="6.65789">
        <ele>2020.9004</ele>
        <time>2023-08-07T16:02:46+02:00</time>
      </trkpt>
      <trkpt lat="44.09595" lon="6.65787">
        <ele>2020.7998</ele>
        <time>2023-08-07T16:02:47+02:00</time>
      </trkpt>
      <trkpt lat="44.09593" lon="6.6578">
        <ele>2020.7998</ele>
        <time>2023-08-07T16:02:51+02:00</time>
      </trkpt>
      <trkpt lat="44.09592" lon="6.65778">
        <ele>2020.7998</ele>
        <time>2023-08-07T16:02:52+02:00</time>
      </trkpt>
      <trkpt lat="44.09589" lon="6.65772">
        <ele>2022.1006</ele>
        <time>2023-08-07T16:02:56+02:00</time>
      </trkpt>
      <trkpt lat="44.09589" lon="6.65771">
        <ele>2022.1006</ele>
        <time>2023-08-07T16:02:57+02:00</time>
      </trkpt>
      <trkpt lat="44.09585" lon="6.65767">
        <ele>2022.1006</ele>
        <time>2023-08-07T16:03:01+02:00</time>
      </trkpt>
      <trkpt lat="44.09584" lon="6.65766">
        <ele>2023.1006</ele>
        <time>2023-08-07T16:03:02+02:00</time>
      </trkpt>
      <trkpt lat="44.0958" lon="6.6576">
        <ele>2023.2002</ele>
        <time>2023-08-07T16:03:06+02:00</time>
      </trkpt>
      <trkpt lat="44.09579" lon="6.65759">
        <ele>2023.2002</ele>
        <time>2023-08-07T16:03:07+02:00</time>
      </trkpt>
      <trkpt lat="44.09577" lon="6.65751">
        <ele>2024</ele>
        <time>2023-08-07T16:03:11+02:00</time>
      </trkpt>
      <trkpt lat="44.09577" lon="6.65749">
        <ele>2024</ele>
        <time>2023-08-07T16:03:12+02:00</time>
      </trkpt>
      <trkpt lat="44.09576" lon="6.65741">
        <ele>2024.1006</ele>
        <time>2023-08-07T16:03:16+02:00</time>
      </trkpt>
      <trkpt lat="44.09576" lon="6.65739">
        <ele>2024.1006</ele>
        <time>2023-08-07T16:03:17+02:00</time>
      </trkpt>
      <trkpt lat="44.09574" lon="6.65731">
        <ele>2024.2998</ele>
        <time>2023-08-07T16:03:21+02:00</time>
      </trkpt>
      <trkpt lat="44.09573" lon="6.65729">
        <ele>2024.2998</ele>
        <time>2023-08-07T16:03:22+02:00</time>
      </trkpt>
      <trkpt lat="44.09571" lon="6.65721">
        <ele>2025</ele>
        <time>2023-08-07T16:03:26+02:00</time>
      </trkpt>
      <trkpt lat="44.0957" lon="6.65719">
        <ele>2025.1006</ele>
        <time>2023-08-07T16:03:27+02:00</time>
      </trkpt>
      <trkpt lat="44.09566" lon="6.65713">
        <ele>2025.1006</ele>
        <time>2023-08-07T16:03:31+02:00</time>
      </trkpt>
      <trkpt lat="44.09565" lon="6.65711">
        <ele>2025.5</ele>
        <time>2023-08-07T16:03:32+02:00</time>
      </trkpt>
      <trkpt lat="44.09562" lon="6.65703">
        <ele>2025.5</ele>
        <time>2023-08-07T16:03:36+02:00</time>
      </trkpt>
      <trkpt lat="44.0956" lon="6.65699">
        <ele>2025.6006</ele>
        <time>2023-08-07T16:03:37+02:00</time>
      </trkpt>
      <trkpt lat="44.09551" lon="6.65673">
        <ele>2026.6006</ele>
        <time>2023-08-07T16:03:41+02:00</time>
      </trkpt>
      <trkpt lat="44.09547" lon="6.65665">
        <ele>2026.5</ele>
        <time>2023-08-07T16:03:42+02:00</time>
      </trkpt>
      <trkpt lat="44.09529" lon="6.65641">
        <ele>2026.5</ele>
        <time>2023-08-07T16:03:46+02:00</time>
      </trkpt>
      <trkpt lat="44.09524" lon="6.65636">
        <ele>2026.5</ele>
        <time>2023-08-07T16:03:47+02:00</time>
      </trkpt>
      <trkpt lat="44.09512" lon="6.65624">
        <ele>2027.2002</ele>
        <time>2023-08-07T16:03:51+02:00</time>
      </trkpt>
      <trkpt lat="44.0951" lon="6.65622">
        <ele>2026.4004</ele>
        <time>2023-08-07T16:03:52+02:00</time>
      </trkpt>
      <trkpt lat="44.09502" lon="6.65616">
        <ele>2027</ele>
        <time>2023-08-07T16:03:56+02:00</time>
      </trkpt>
      <trkpt lat="44.095" lon="6.65616">
        <ele>2027</ele>
        <time>2023-08-07T16:03:57+02:00</time>
      </trkpt>
      <trkpt lat="44.09489" lon="6.65615">
        <ele>2025.5</ele>
        <time>2023-08-07T16:04:01+02:00</time>
      </trkpt>
      <trkpt lat="44.09486" lon="6.65614">
        <ele>2025.5</ele>
        <time>2023-08-07T16:04:02+02:00</time>
      </trkpt>
      <trkpt lat="44.09477" lon="6.65609">
        <ele>2024</ele>
        <time>2023-08-07T16:04:06+02:00</time>
      </trkpt>
      <trkpt lat="44.09474" lon="6.65608">
        <ele>2025.6006</ele>
        <time>2023-08-07T16:04:07+02:00</time>
      </trkpt>
      <trkpt lat="44.09466" lon="6.65602">
        <ele>2024.4004</ele>
        <time>2023-08-07T16:04:11+02:00</time>
      </trkpt>
      <trkpt lat="44.09464" lon="6.65601">
        <ele>2024.4004</ele>
        <time>2023-08-07T16:04:12+02:00</time>
      </trkpt>
      <trkpt lat="44.09454" lon="6.65598">
        <ele>2025.9004</ele>
        <time>2023-08-07T16:04:16+02:00</time>
      </trkpt>
      <trkpt lat="44.09452" lon="6.65598">
        <ele>2025.9004</ele>
        <time>2023-08-07T16:04:17+02:00</time>
      </trkpt>
      <trkpt lat="44.09442" lon="6.65596">
        <ele>2025.7998</ele>
        <time>2023-08-07T16:04:21+02:00</time>
      </trkpt>
      <trkpt lat="44.09439" lon="6.65595">
        <ele>2025.7998</ele>
        <time>2023-08-07T16:04:22+02:00</time>
      </trkpt>
      <trkpt lat="44.09428" lon="6.65593">
        <ele>2025.9004</ele>
        <time>2023-08-07T16:04:26+02:00</time>
      </trkpt>
      <trkpt lat="44.09426" lon="6.65593">
        <ele>2025.9004</ele>
        <time>2023-08-07T16:04:27+02:00</time>
      </trkpt>
      <trkpt lat="44.09416" lon="6.65589">
        <ele>2028.2998</ele>
        <time>2023-08-07T16:04:31+02:00</time>
      </trkpt>
      <trkpt lat="44.09413" lon="6.65586">
        <ele>2028.2998</ele>
        <time>2023-08-07T16:04:32+02:00</time>
      </trkpt>
      <trkpt lat="44.09405" lon="6.65583">
        <ele>2028.4004</ele>
        <time>2023-08-07T16:04:36+02:00</time>
      </trkpt>
      <trkpt lat="44.09402" lon="6.65583">
        <ele>2028.4004</ele>
        <time>2023-08-07T16:04:37+02:00</time>
      </trkpt>
      <trkpt lat="44.09393" lon="6.65577">
        <ele>2030.7998</ele>
        <time>2023-08-07T16:04:41+02:00</time>
      </trkpt>
      <trkpt lat="44.09391" lon="6.65575">
        <ele>2030.7998</ele>
        <time>2023-08-07T16:04:42+02:00</time>
      </trkpt>
      <trkpt lat="44.09382" lon="6.65569">
        <ele>2033.2002</ele>
        <time>2023-08-07T16:04:46+02:00</time>
      </trkpt>
      <trkpt lat="44.0938" lon="6.65567">
        <ele>2032.9004</ele>
        <time>2023-08-07T16:04:47+02:00</time>
      </trkpt>
      <trkpt lat="44.09371" lon="6.65562">
        <ele>2035</ele>
        <time>2023-08-07T16:04:51+02:00</time>
      </trkpt>
      <trkpt lat="44.09368" lon="6.65561">
        <ele>2034.5</ele>
        <time>2023-08-07T16:04:52+02:00</time>
      </trkpt>
      <trkpt lat="44.0936" lon="6.65557">
        <ele>2034.1006</ele>
        <time>2023-08-07T16:04:56+02:00</time>
      </trkpt>
      <trkpt lat="44.09357" lon="6.65557">
        <ele>2034.1006</ele>
        <time>2023-08-07T16:04:57+02:00</time>
      </trkpt>
      <trkpt lat="44.09347" lon="6.65554">
        <ele>2036.1006</ele>
        <time>2023-08-07T16:05:01+02:00</time>
      </trkpt>
      <trkpt lat="44.09345" lon="6.65553">
        <ele>2036.1006</ele>
        <time>2023-08-07T16:05:02+02:00</time>
      </trkpt>
      <trkpt lat="44.09337" lon="6.65549">
        <ele>2035.7002</ele>
        <time>2023-08-07T16:05:06+02:00</time>
      </trkpt>
      <trkpt lat="44.09335" lon="6.65548">
        <ele>2038.2002</ele>
        <time>2023-08-07T16:05:07+02:00</time>
      </trkpt>
      <trkpt lat="44.09326" lon="6.65543">
        <ele>2037.9004</ele>
        <time>2023-08-07T16:05:11+02:00</time>
      </trkpt>
      <trkpt lat="44.09323" lon="6.65541">
        <ele>2037.6006</ele>
        <time>2023-08-07T16:05:12+02:00</time>
      </trkpt>
      <trkpt lat="44.09315" lon="6.65534">
        <ele>2039.6006</ele>
        <time>2023-08-07T16:05:16+02:00</time>
      </trkpt>
      <trkpt lat="44.09313" lon="6.65532">
        <ele>2039.2002</ele>
        <time>2023-08-07T16:05:17+02:00</time>
      </trkpt>
      <trkpt lat="44.09304" lon="6.65525">
        <ele>2041</ele>
        <time>2023-08-07T16:05:21+02:00</time>
      </trkpt>
      <trkpt lat="44.09301" lon="6.65524">
        <ele>2041</ele>
        <time>2023-08-07T16:05:22+02:00</time>
      </trkpt>
      <trkpt lat="44.09293" lon="6.65517">
        <ele>2042.2998</ele>
        <time>2023-08-07T16:05:26+02:00</time>
      </trkpt>
      <trkpt lat="44.09291" lon="6.65516">
        <ele>2042.2998</ele>
        <time>2023-08-07T16:05:27+02:00</time>
      </trkpt>
      <trkpt lat="44.09282" lon="6.65511">
        <ele>2043.7002</ele>
        <time>2023-08-07T16:05:31+02:00</time>
      </trkpt>
      <trkpt lat="44.0928" lon="6.65509">
        <ele>2043.7002</ele>
        <time>2023-08-07T16:05:32+02:00</time>
      </trkpt>
      <trkpt lat="44.09271" lon="6.65505">
        <ele>2045.6006</ele>
        <time>2023-08-07T16:05:36+02:00</time>
      </trkpt>
      <trkpt lat="44.09268" lon="6.65505">
        <ele>2045.2002</ele>
        <time>2023-08-07T16:05:37+02:00</time>
      </trkpt>
      <trkpt lat="44.09256" lon="6.65503">
        <ele>2044.2998</ele>
        <time>2023-08-07T16:05:41+02:00</time>
      </trkpt>
      <trkpt lat="44.09253" lon="6.65501">
        <ele>2044.2998</ele>
        <time>2023-08-07T16:05:42+02:00</time>
      </trkpt>
      <trkpt lat="44.09242" lon="6.65497">
        <ele>2043.4004</ele>
        <time>2023-08-07T16:05:46+02:00</time>
      </trkpt>
      <trkpt lat="44.09239" lon="6.65495">
        <ele>2045.6006</ele>
        <time>2023-08-07T16:05:47+02:00</time>
      </trkpt>
      <trkpt lat="44.09229" lon="6.65489">
        <ele>2045.5</ele>
        <time>2023-08-07T16:05:51+02:00</time>
      </trkpt>
      <trkpt lat="44.09226" lon="6.65487">
        <ele>2047.7002</ele>
        <time>2023-08-07T16:05:52+02:00</time>
      </trkpt>
      <trkpt lat="44.09216" lon="6.6548">
        <ele>2047.4004</ele>
        <time>2023-08-07T16:05:56+02:00</time>
      </trkpt>
      <trkpt lat="44.09213" lon="6.65478">
        <ele>2049.4004</ele>
        <time>2023-08-07T16:05:57+02:00</time>
      </trkpt>
      <trkpt lat="44.09203" lon="6.65472">
        <ele>2049.1006</ele>
        <time>2023-08-07T16:06:01+02:00</time>
      </trkpt>
      <trkpt lat="44.092" lon="6.6547">
        <ele>2050.9004</ele>
        <time>2023-08-07T16:06:02+02:00</time>
      </trkpt>
      <trkpt lat="44.09191" lon="6.65463">
        <ele>2050.4004</ele>
        <time>2023-08-07T16:06:06+02:00</time>
      </trkpt>
      <trkpt lat="44.09188" lon="6.65461">
        <ele>2052</ele>
        <time>2023-08-07T16:06:07+02:00</time>
      </trkpt>
      <trkpt lat="44.09177" lon="6.65455">
        <ele>2050.2002</ele>
        <time>2023-08-07T16:06:11+02:00</time>
      </trkpt>
      <trkpt lat="44.09174" lon="6.65453">
        <ele>2052.2002</ele>
        <time>2023-08-07T16:06:12+02:00</time>
      </trkpt>
      <trkpt lat="44.09164" lon="6.65444">
        <ele>2051.9004</ele>
        <time>2023-08-07T16:06:16+02:00</time>
      </trkpt>
      <trkpt lat="44.09161" lon="6.65442">
        <ele>2051.9004</ele>
        <time>2023-08-07T16:06:17+02:00</time>
      </trkpt>
      <trkpt lat="44.0915" lon="6.65433">
        <ele>2050.9004</ele>
        <time>2023-08-07T16:06:21+02:00</time>
      </trkpt>
      <trkpt lat="44.09147" lon="6.65431">
        <ele>2050.9004</ele>
        <time>2023-08-07T16:06:22+02:00</time>
      </trkpt>
      <trkpt lat="44.09138" lon="6.6542">
        <ele>2049.7002</ele>
        <time>2023-08-07T16:06:26+02:00</time>
      </trkpt>
      <trkpt lat="44.09135" lon="6.65417">
        <ele>2051</ele>
        <time>2023-08-07T16:06:27+02:00</time>
      </trkpt>
      <trkpt lat="44.09131" lon="6.65402">
        <ele>2051.7002</ele>
        <time>2023-08-07T16:06:31+02:00</time>
      </trkpt>
      <trkpt lat="44.09131" lon="6.65397">
        <ele>2051.7002</ele>
        <time>2023-08-07T16:06:32+02:00</time>
      </trkpt>
      <trkpt lat="44.09133" lon="6.65382">
        <ele>2053</ele>
        <time>2023-08-07T16:06:36+02:00</time>
      </trkpt>
      <trkpt lat="44.09134" lon="6.65378">
        <ele>2053</ele>
        <time>2023-08-07T16:06:37+02:00</time>
      </trkpt>
      <trkpt lat="44.09135" lon="6.65363">
        <ele>2054.9004</ele>
        <time>2023-08-07T16:06:41+02:00</time>
      </trkpt>
      <trkpt lat="44.09136" lon="6.65359">
        <ele>2055</ele>
        <time>2023-08-07T16:06:42+02:00</time>
      </trkpt>
      <trkpt lat="44.09135" lon="6.65341">
        <ele>2054.7998</ele>
        <time>2023-08-07T16:06:46+02:00</time>
      </trkpt>
      <trkpt lat="44.09135" lon="6.65336">
        <ele>2054.7998</ele>
        <time>2023-08-07T16:06:47+02:00</time>
      </trkpt>
      <trkpt lat="44.09135" lon="6.6532">
        <ele>2054.2002</ele>
        <time>2023-08-07T16:06:51+02:00</time>
      </trkpt>
      <trkpt lat="44.09135" lon="6.65315">
        <ele>2053.9004</ele>
        <time>2023-08-07T16:06:52+02:00</time>
      </trkpt>
      <trkpt lat="44.09135" lon="6.65299">
        <ele>2053.2002</ele>
        <time>2023-08-07T16:06:56+02:00</time>
      </trkpt>
      <trkpt lat="44.09135" lon="6.65295">
        <ele>2053.2002</ele>
        <time>2023-08-07T16:06:57+02:00</time>
      </trkpt>
      <trkpt lat="44.09135" lon="6.65278">
        <ele>2052.6006</ele>
        <time>2023-08-07T16:07:01+02:00</time>
      </trkpt>
      <trkpt lat="44.09135" lon="6.65273">
        <ele>2052.4004</ele>
        <time>2023-08-07T16:07:02+02:00</time>
      </trkpt>
      <trkpt lat="44.09137" lon="6.65257">
        <ele>2052.2998</ele>
        <time>2023-08-07T16:07:06+02:00</time>
      </trkpt>
      <trkpt lat="44.09137" lon="6.65253">
        <ele>2052.1006</ele>
        <time>2023-08-07T16:07:07+02:00</time>
      </trkpt>
      <trkpt lat="44.09138" lon="6.65235">
        <ele>2051.7002</ele>
        <time>2023-08-07T16:07:11+02:00</time>
      </trkpt>
      <trkpt lat="44.09138" lon="6.6523">
        <ele>2051.5</ele>
        <time>2023-08-07T16:07:12+02:00</time>
      </trkpt>
      <trkpt lat="44.09142" lon="6.65217">
        <ele>2052.1006</ele>
        <time>2023-08-07T16:07:16+02:00</time>
      </trkpt>
      <trkpt lat="44.09144" lon="6.65215">
        <ele>2052.1006</ele>
        <time>2023-08-07T16:07:17+02:00</time>
      </trkpt>
      <trkpt lat="44.09146" lon="6.65198">
        <ele>2051.5</ele>
        <time>2023-08-07T16:07:21+02:00</time>
      </trkpt>
      <trkpt lat="44.09146" lon="6.65194">
        <ele>2051.2002</ele>
        <time>2023-08-07T16:07:22+02:00</time>
      </trkpt>
      <trkpt lat="44.09149" lon="6.65174">
        <ele>2052.1006</ele>
        <time>2023-08-07T16:07:26+02:00</time>
      </trkpt>
      <trkpt lat="44.0915" lon="6.6517">
        <ele>2052.1006</ele>
        <time>2023-08-07T16:07:27+02:00</time>
      </trkpt>
      <trkpt lat="44.09158" lon="6.65153">
        <ele>2053.5</ele>
        <time>2023-08-07T16:07:31+02:00</time>
      </trkpt>
      <trkpt lat="44.09159" lon="6.65149">
        <ele>2054.7002</ele>
        <time>2023-08-07T16:07:32+02:00</time>
      </trkpt>
      <trkpt lat="44.09163" lon="6.65131">
        <ele>2054.7998</ele>
        <time>2023-08-07T16:07:36+02:00</time>
      </trkpt>
      <trkpt lat="44.09164" lon="6.65127">
        <ele>2054.7998</ele>
        <time>2023-08-07T16:07:37+02:00</time>
      </trkpt>
      <trkpt lat="44.09169" lon="6.65111">
        <ele>2056</ele>
        <time>2023-08-07T16:07:41+02:00</time>
      </trkpt>
      <trkpt lat="44.09171" lon="6.65107">
        <ele>2055.9004</ele>
        <time>2023-08-07T16:07:42+02:00</time>
      </trkpt>
      <trkpt lat="44.09178" lon="6.65093">
        <ele>2056.9004</ele>
        <time>2023-08-07T16:07:46+02:00</time>
      </trkpt>
      <trkpt lat="44.0918" lon="6.6509">
        <ele>2058.1006</ele>
        <time>2023-08-07T16:07:47+02:00</time>
      </trkpt>
      <trkpt lat="44.09185" lon="6.65079">
        <ele>2059.4004</ele>
        <time>2023-08-07T16:07:51+02:00</time>
      </trkpt>
      <trkpt lat="44.09184" lon="6.65076">
        <ele>2059.4004</ele>
        <time>2023-08-07T16:07:52+02:00</time>
      </trkpt>
      <trkpt lat="44.09177" lon="6.65067">
        <ele>2057.1006</ele>
        <time>2023-08-07T16:07:56+02:00</time>
      </trkpt>
      <trkpt lat="44.09176" lon="6.65063">
        <ele>2057.1006</ele>
        <time>2023-08-07T16:07:57+02:00</time>
      </trkpt>
      <trkpt lat="44.09172" lon="6.65051">
        <ele>2057.2998</ele>
        <time>2023-08-07T16:08:01+02:00</time>
      </trkpt>
      <trkpt lat="44.09171" lon="6.65049">
        <ele>2056.2002</ele>
        <time>2023-08-07T16:08:02+02:00</time>
      </trkpt>
      <trkpt lat="44.09165" lon="6.65038">
        <ele>2056.7002</ele>
        <time>2023-08-07T16:08:06+02:00</time>
      </trkpt>
      <trkpt lat="44.09163" lon="6.65035">
        <ele>2055.2998</ele>
        <time>2023-08-07T16:08:07+02:00</time>
      </trkpt>
      <trkpt lat="44.09156" lon="6.65023">
        <ele>2055.6006</ele>
        <time>2023-08-07T16:08:11+02:00</time>
      </trkpt>
      <trkpt lat="44.09154" lon="6.6502">
        <ele>2055.6006</ele>
        <time>2023-08-07T16:08:12+02:00</time>
      </trkpt>
      <trkpt lat="44.09148" lon="6.65005">
        <ele>2056.2998</ele>
        <time>2023-08-07T16:08:16+02:00</time>
      </trkpt>
      <trkpt lat="44.09146" lon="6.65002">
        <ele>2055.2002</ele>
        <time>2023-08-07T16:08:17+02:00</time>
      </trkpt>
      <trkpt lat="44.0914" lon="6.64988">
        <ele>2056.2002</ele>
        <time>2023-08-07T16:08:21+02:00</time>
      </trkpt>
      <trkpt lat="44.09139" lon="6.64985">
        <ele>2056.2002</ele>
        <time>2023-08-07T16:08:22+02:00</time>
      </trkpt>
      <trkpt lat="44.09136" lon="6.6497">
        <ele>2058.4004</ele>
        <time>2023-08-07T16:08:26+02:00</time>
      </trkpt>
      <trkpt lat="44.09135" lon="6.64966">
        <ele>2058.4004</ele>
        <time>2023-08-07T16:08:27+02:00</time>
      </trkpt>
      <trkpt lat="44.09132" lon="6.64954">
        <ele>2059.4004</ele>
        <time>2023-08-07T16:08:31+02:00</time>
      </trkpt>
      <trkpt lat="44.09131" lon="6.64952">
        <ele>2059.4004</ele>
        <time>2023-08-07T16:08:32+02:00</time>
      </trkpt>
      <trkpt lat="44.09123" lon="6.64942">
        <ele>2059.4004</ele>
        <time>2023-08-07T16:08:36+02:00</time>
      </trkpt>
      <trkpt lat="44.09121" lon="6.64939">
        <ele>2059.7002</ele>
        <time>2023-08-07T16:08:37+02:00</time>
      </trkpt>
      <trkpt lat="44.09114" lon="6.64925">
        <ele>2060.2002</ele>
        <time>2023-08-07T16:08:41+02:00</time>
      </trkpt>
      <trkpt lat="44.09112" lon="6.64922">
        <ele>2061.9004</ele>
        <time>2023-08-07T16:08:42+02:00</time>
      </trkpt>
      <trkpt lat="44.09103" lon="6.64911">
        <ele>2062.7002</ele>
        <time>2023-08-07T16:08:46+02:00</time>
      </trkpt>
      <trkpt lat="44.09101" lon="6.64909">
        <ele>2062.7002</ele>
        <time>2023-08-07T16:08:47+02:00</time>
      </trkpt>
      <trkpt lat="44.09092" lon="6.64901">
        <ele>2064.5</ele>
        <time>2023-08-07T16:08:51+02:00</time>
      </trkpt>
      <trkpt lat="44.0909" lon="6.64899">
        <ele>2064.2002</ele>
        <time>2023-08-07T16:08:52+02:00</time>
      </trkpt>
      <trkpt lat="44.09081" lon="6.64891">
        <ele>2066.2998</ele>
        <time>2023-08-07T16:08:56+02:00</time>
      </trkpt>
      <trkpt lat="44.09078" lon="6.64888">
        <ele>2066.1006</ele>
        <time>2023-08-07T16:08:57+02:00</time>
      </trkpt>
      <trkpt lat="44.09067" lon="6.64879">
        <ele>2068.1006</ele>
        <time>2023-08-07T16:09:01+02:00</time>
      </trkpt>
      <trkpt lat="44.09064" lon="6.64878">
        <ele>2070.1006</ele>
        <time>2023-08-07T16:09:02+02:00</time>
      </trkpt>
      <trkpt lat="44.09055" lon="6.64869">
        <ele>2071.9004</ele>
        <time>2023-08-07T16:09:06+02:00</time>
      </trkpt>
      <trkpt lat="44.09053" lon="6.64867">
        <ele>2071.6006</ele>
        <time>2023-08-07T16:09:07+02:00</time>
      </trkpt>
      <trkpt lat="44.09044" lon="6.64859">
        <ele>2073.2998</ele>
        <time>2023-08-07T16:09:11+02:00</time>
      </trkpt>
      <trkpt lat="44.09041" lon="6.64857">
        <ele>2073.1006</ele>
        <time>2023-08-07T16:09:12+02:00</time>
      </trkpt>
      <trkpt lat="44.09031" lon="6.6485">
        <ele>2074.7002</ele>
        <time>2023-08-07T16:09:16+02:00</time>
      </trkpt>
      <trkpt lat="44.09029" lon="6.64847">
        <ele>2074.5</ele>
        <time>2023-08-07T16:09:17+02:00</time>
      </trkpt>
      <trkpt lat="44.0902" lon="6.64836">
        <ele>2075.7998</ele>
        <time>2023-08-07T16:09:21+02:00</time>
      </trkpt>
      <trkpt lat="44.09018" lon="6.64833">
        <ele>2077.2002</ele>
        <time>2023-08-07T16:09:22+02:00</time>
      </trkpt>
      <trkpt lat="44.0901" lon="6.64822">
        <ele>2078</ele>
        <time>2023-08-07T16:09:26+02:00</time>
      </trkpt>
      <trkpt lat="44.09008" lon="6.6482">
        <ele>2078</ele>
        <time>2023-08-07T16:09:27+02:00</time>
      </trkpt>
      <trkpt lat="44.09" lon="6.64808">
        <ele>2079.7998</ele>
        <time>2023-08-07T16:09:31+02:00</time>
      </trkpt>
      <trkpt lat="44.08998" lon="6.64804">
        <ele>2079.4004</ele>
        <time>2023-08-07T16:09:32+02:00</time>
      </trkpt>
      <trkpt lat="44.0899" lon="6.64791">
        <ele>2080.7998</ele>
        <time>2023-08-07T16:09:36+02:00</time>
      </trkpt>
      <trkpt lat="44.08988" lon="6.64787">
        <ele>2080.7998</ele>
        <time>2023-08-07T16:09:37+02:00</time>
      </trkpt>
      <trkpt lat="44.08982" lon="6.64773">
        <ele>2081.9004</ele>
        <time>2023-08-07T16:09:41+02:00</time>
      </trkpt>
      <trkpt lat="44.0898" lon="6.64769">
        <ele>2081.2998</ele>
        <time>2023-08-07T16:09:42+02:00</time>
      </trkpt>
      <trkpt lat="44.08969" lon="6.64753">
        <ele>2081.7998</ele>
        <time>2023-08-07T16:09:46+02:00</time>
      </trkpt>
      <trkpt lat="44.08966" lon="6.64748">
        <ele>2081.5</ele>
        <time>2023-08-07T16:09:47+02:00</time>
      </trkpt>
      <trkpt lat="44.08955" lon="6.64724">
        <ele>2080.7998</ele>
        <time>2023-08-07T16:09:51+02:00</time>
      </trkpt>
      <trkpt lat="44.08954" lon="6.64718">
        <ele>2080.7998</ele>
        <time>2023-08-07T16:09:52+02:00</time>
      </trkpt>
      <trkpt lat="44.08942" lon="6.64695">
        <ele>2078.2998</ele>
        <time>2023-08-07T16:09:56+02:00</time>
      </trkpt>
      <trkpt lat="44.08939" lon="6.6469">
        <ele>2078.1006</ele>
        <time>2023-08-07T16:09:57+02:00</time>
      </trkpt>
      <trkpt lat="44.08928" lon="6.64667">
        <ele>2075.6006</ele>
        <time>2023-08-07T16:10:01+02:00</time>
      </trkpt>
      <trkpt lat="44.08926" lon="6.64661">
        <ele>2075.4004</ele>
        <time>2023-08-07T16:10:02+02:00</time>
      </trkpt>
      <trkpt lat="44.08916" lon="6.64638">
        <ele>2073.4004</ele>
        <time>2023-08-07T16:10:06+02:00</time>
      </trkpt>
      <trkpt lat="44.08913" lon="6.64632">
        <ele>2073.4004</ele>
        <time>2023-08-07T16:10:07+02:00</time>
      </trkpt>
      <trkpt lat="44.08902" lon="6.64613">
        <ele>2071.9004</ele>
        <time>2023-08-07T16:10:11+02:00</time>
      </trkpt>
      <trkpt lat="44.08899" lon="6.64608">
        <ele>2071.2998</ele>
        <time>2023-08-07T16:10:12+02:00</time>
      </trkpt>
      <trkpt lat="44.08888" lon="6.6459">
        <ele>2070.1006</ele>
        <time>2023-08-07T16:10:16+02:00</time>
      </trkpt>
      <trkpt lat="44.08885" lon="6.64585">
        <ele>2070.1006</ele>
        <time>2023-08-07T16:10:17+02:00</time>
      </trkpt>
      <trkpt lat="44.08873" lon="6.64566">
        <ele>2068.6006</ele>
        <time>2023-08-07T16:10:21+02:00</time>
      </trkpt>
      <trkpt lat="44.0887" lon="6.64562">
        <ele>2068.6006</ele>
        <time>2023-08-07T16:10:22+02:00</time>
      </trkpt>
      <trkpt lat="44.08855" lon="6.64545">
        <ele>2066.2998</ele>
        <time>2023-08-07T16:10:26+02:00</time>
      </trkpt>
      <trkpt lat="44.08851" lon="6.64541">
        <ele>2066.1006</ele>
        <time>2023-08-07T16:10:27+02:00</time>
      </trkpt>
      <trkpt lat="44.08837" lon="6.64521">
        <ele>2064.2998</ele>
        <time>2023-08-07T16:10:31+02:00</time>
      </trkpt>
      <trkpt lat="44.08833" lon="6.64515">
        <ele>2064.2998</ele>
        <time>2023-08-07T16:10:32+02:00</time>
      </trkpt>
      <trkpt lat="44.08819" lon="6.64491">
        <ele>2063.2002</ele>
        <time>2023-08-07T16:10:36+02:00</time>
      </trkpt>
      <trkpt lat="44.08816" lon="6.64483">
        <ele>2063</ele>
        <time>2023-08-07T16:10:37+02:00</time>
      </trkpt>
      <trkpt lat="44.08798" lon="6.64458">
        <ele>2061.6006</ele>
        <time>2023-08-07T16:10:41+02:00</time>
      </trkpt>
      <trkpt lat="44.08793" lon="6.64451">
        <ele>2061.4004</ele>
        <time>2023-08-07T16:10:42+02:00</time>
      </trkpt>
      <trkpt lat="44.08773" lon="6.64423">
        <ele>2059.4004</ele>
        <time>2023-08-07T16:10:46+02:00</time>
      </trkpt>
      <trkpt lat="44.08767" lon="6.64416">
        <ele>2059</ele>
        <time>2023-08-07T16:10:47+02:00</time>
      </trkpt>
      <trkpt lat="44.08749" lon="6.64391">
        <ele>2056.1006</ele>
        <time>2023-08-07T16:10:51+02:00</time>
      </trkpt>
      <trkpt lat="44.08745" lon="6.64385">
        <ele>2054.9004</ele>
        <time>2023-08-07T16:10:52+02:00</time>
      </trkpt>
      <trkpt lat="44.08735" lon="6.64358">
        <ele>2052.7998</ele>
        <time>2023-08-07T16:10:56+02:00</time>
      </trkpt>
      <trkpt lat="44.08735" lon="6.64351">
        <ele>2052.5</ele>
        <time>2023-08-07T16:10:57+02:00</time>
      </trkpt>
      <trkpt lat="44.08743" lon="6.64328">
        <ele>2052.5</ele>
        <time>2023-08-07T16:11:01+02:00</time>
      </trkpt>
      <trkpt lat="44.08746" lon="6.64325">
        <ele>2052.7998</ele>
        <time>2023-08-07T16:11:02+02:00</time>
      </trkpt>
      <trkpt lat="44.08761" lon="6.64314">
        <ele>2053</ele>
        <time>2023-08-07T16:11:06+02:00</time>
      </trkpt>
      <trkpt lat="44.08765" lon="6.64311">
        <ele>2052.7998</ele>
        <time>2023-08-07T16:11:07+02:00</time>
      </trkpt>
      <trkpt lat="44.08777" lon="6.64299">
        <ele>2052.6006</ele>
        <time>2023-08-07T16:11:11+02:00</time>
      </trkpt>
      <trkpt lat="44.08779" lon="6.64294">
        <ele>2052.2002</ele>
        <time>2023-08-07T16:11:12+02:00</time>
      </trkpt>
      <trkpt lat="44.0879" lon="6.64272">
        <ele>2051</ele>
        <time>2023-08-07T16:11:16+02:00</time>
      </trkpt>
      <trkpt lat="44.08794" lon="6.64266">
        <ele>2050.4004</ele>
        <time>2023-08-07T16:11:17+02:00</time>
      </trkpt>
      <trkpt lat="44.08807" lon="6.64241">
        <ele>2047.6006</ele>
        <time>2023-08-07T16:11:21+02:00</time>
      </trkpt>
      <trkpt lat="44.0881" lon="6.64234">
        <ele>2046.1006</ele>
        <time>2023-08-07T16:11:22+02:00</time>
      </trkpt>
      <trkpt lat="44.08824" lon="6.64201">
        <ele>2042.1006</ele>
        <time>2023-08-07T16:11:26+02:00</time>
      </trkpt>
      <trkpt lat="44.08826" lon="6.64192">
        <ele>2041.7002</ele>
        <time>2023-08-07T16:11:27+02:00</time>
      </trkpt>
      <trkpt lat="44.0883" lon="6.64158">
        <ele>2038.9004</ele>
        <time>2023-08-07T16:11:31+02:00</time>
      </trkpt>
      <trkpt lat="44.08831" lon="6.64149">
        <ele>2038.7998</ele>
        <time>2023-08-07T16:11:32+02:00</time>
      </trkpt>
      <trkpt lat="44.08836" lon="6.64119">
        <ele>2037.1006</ele>
        <time>2023-08-07T16:11:36+02:00</time>
      </trkpt>
      <trkpt lat="44.08837" lon="6.64111">
        <ele>2037</ele>
        <time>2023-08-07T16:11:37+02:00</time>
      </trkpt>
      <trkpt lat="44.08842" lon="6.6408">
        <ele>2034.2998</ele>
        <time>2023-08-07T16:11:41+02:00</time>
      </trkpt>
      <trkpt lat="44.08842" lon="6.64073">
        <ele>2034.2998</ele>
        <time>2023-08-07T16:11:42+02:00</time>
      </trkpt>
      <trkpt lat="44.08845" lon="6.64043">
        <ele>2030.6006</ele>
        <time>2023-08-07T16:11:46+02:00</time>
      </trkpt>
      <trkpt lat="44.08845" lon="6.64034">
        <ele>2032.4004</ele>
        <time>2023-08-07T16:11:47+02:00</time>
      </trkpt>
      <trkpt lat="44.08845" lon="6.63997">
        <ele>2030.2998</ele>
        <time>2023-08-07T16:11:51+02:00</time>
      </trkpt>
      <trkpt lat="44.08845" lon="6.63988">
        <ele>2027.6006</ele>
        <time>2023-08-07T16:11:52+02:00</time>
      </trkpt>
      <trkpt lat="44.08848" lon="6.63956">
        <ele>2024.7998</ele>
        <time>2023-08-07T16:11:56+02:00</time>
      </trkpt>
      <trkpt lat="44.08849" lon="6.63948">
        <ele>2024.1006</ele>
        <time>2023-08-07T16:11:57+02:00</time>
      </trkpt>
      <trkpt lat="44.08846" lon="6.63916">
        <ele>2021.7002</ele>
        <time>2023-08-07T16:12:01+02:00</time>
      </trkpt>
      <trkpt lat="44.08844" lon="6.63908">
        <ele>2024.2002</ele>
        <time>2023-08-07T16:12:02+02:00</time>
      </trkpt>
      <trkpt lat="44.08841" lon="6.63876">
        <ele>2023.7002</ele>
        <time>2023-08-07T16:12:06+02:00</time>
      </trkpt>
      <trkpt lat="44.08842" lon="6.63868">
        <ele>2023.7998</ele>
        <time>2023-08-07T16:12:07+02:00</time>
      </trkpt>
      <trkpt lat="44.08848" lon="6.63842">
        <ele>2021.1006</ele>
        <time>2023-08-07T16:12:11+02:00</time>
      </trkpt>
      <trkpt lat="44.0885" lon="6.63835">
        <ele>2021.4004</ele>
        <time>2023-08-07T16:12:12+02:00</time>
      </trkpt>
      <trkpt lat="44.08859" lon="6.63804">
        <ele>2015.9004</ele>
        <time>2023-08-07T16:12:16+02:00</time>
      </trkpt>
      <trkpt lat="44.08862" lon="6.63795">
        <ele>2016.4004</ele>
        <time>2023-08-07T16:12:17+02:00</time>
      </trkpt>
      <trkpt lat="44.08871" lon="6.63764">
        <ele>2011.6006</ele>
        <time>2023-08-07T16:12:21+02:00</time>
      </trkpt>
      <trkpt lat="44.08872" lon="6.63757">
        <ele>2012.4004</ele>
        <time>2023-08-07T16:12:22+02:00</time>
      </trkpt>
      <trkpt lat="44.08875" lon="6.6373">
        <ele>2014.6006</ele>
        <time>2023-08-07T16:12:26+02:00</time>
      </trkpt>
      <trkpt lat="44.08877" lon="6.63724">
        <ele>2012.4004</ele>
        <time>2023-08-07T16:12:27+02:00</time>
      </trkpt>
      <trkpt lat="44.08881" lon="6.63698">
        <ele>2014.2998</ele>
        <time>2023-08-07T16:12:31+02:00</time>
      </trkpt>
      <trkpt lat="44.08881" lon="6.63691">
        <ele>2014.7998</ele>
        <time>2023-08-07T16:12:32+02:00</time>
      </trkpt>
      <trkpt lat="44.08885" lon="6.63661">
        <ele>2013</ele>
        <time>2023-08-07T16:12:36+02:00</time>
      </trkpt>
      <trkpt lat="44.08886" lon="6.63654">
        <ele>2013</ele>
        <time>2023-08-07T16:12:37+02:00</time>
      </trkpt>
      <trkpt lat="44.08884" lon="6.63628">
        <ele>2012.1006</ele>
        <time>2023-08-07T16:12:41+02:00</time>
      </trkpt>
      <trkpt lat="44.08883" lon="6.6362">
        <ele>2011.7002</ele>
        <time>2023-08-07T16:12:42+02:00</time>
      </trkpt>
      <trkpt lat="44.08874" lon="6.63592">
        <ele>2014.2002</ele>
        <time>2023-08-07T16:12:46+02:00</time>
      </trkpt>
      <trkpt lat="44.08872" lon="6.63585">
        <ele>2013.4004</ele>
        <time>2023-08-07T16:12:47+02:00</time>
      </trkpt>
      <trkpt lat="44.08864" lon="6.63556">
        <ele>2013.1006</ele>
        <time>2023-08-07T16:12:51+02:00</time>
      </trkpt>
      <trkpt lat="44.08862" lon="6.63548">
        <ele>2015</ele>
        <time>2023-08-07T16:12:52+02:00</time>
      </trkpt>
      <trkpt lat="44.08856" lon="6.63519">
        <ele>2016.9004</ele>
        <time>2023-08-07T16:12:56+02:00</time>
      </trkpt>
      <trkpt lat="44.08855" lon="6.63512">
        <ele>2016.7998</ele>
        <time>2023-08-07T16:12:57+02:00</time>
      </trkpt>
      <trkpt lat="44.08854" lon="6.63483">
        <ele>2016.7998</ele>
        <time>2023-08-07T16:13:01+02:00</time>
      </trkpt>
      <trkpt lat="44.08854" lon="6.63476">
        <ele>2017</ele>
        <time>2023-08-07T16:13:02+02:00</time>
      </trkpt>
      <trkpt lat="44.08855" lon="6.63446">
        <ele>2018.2998</ele>
        <time>2023-08-07T16:13:06+02:00</time>
      </trkpt>
      <trkpt lat="44.08856" lon="6.63437">
        <ele>2018.7998</ele>
        <time>2023-08-07T16:13:07+02:00</time>
      </trkpt>
      <trkpt lat="44.08862" lon="6.63404">
        <ele>2019.2002</ele>
        <time>2023-08-07T16:13:11+02:00</time>
      </trkpt>
      <trkpt lat="44.08865" lon="6.63396">
        <ele>2018.2002</ele>
        <time>2023-08-07T16:13:12+02:00</time>
      </trkpt>
      <trkpt lat="44.08874" lon="6.63367">
        <ele>2020.4004</ele>
        <time>2023-08-07T16:13:16+02:00</time>
      </trkpt>
      <trkpt lat="44.08877" lon="6.63361">
        <ele>2019</ele>
        <time>2023-08-07T16:13:17+02:00</time>
      </trkpt>
      <trkpt lat="44.08886" lon="6.63336">
        <ele>2020.6006</ele>
        <time>2023-08-07T16:13:21+02:00</time>
      </trkpt>
      <trkpt lat="44.08889" lon="6.6333">
        <ele>2020.6006</ele>
        <time>2023-08-07T16:13:22+02:00</time>
      </trkpt>
      <trkpt lat="44.08901" lon="6.63307">
        <ele>2022.2998</ele>
        <time>2023-08-07T16:13:26+02:00</time>
      </trkpt>
      <trkpt lat="44.08905" lon="6.63301">
        <ele>2022.2998</ele>
        <time>2023-08-07T16:13:27+02:00</time>
      </trkpt>
      <trkpt lat="44.08923" lon="6.63288">
        <ele>2023.2998</ele>
        <time>2023-08-07T16:13:31+02:00</time>
      </trkpt>
      <trkpt lat="44.08927" lon="6.63288">
        <ele>2022.7998</ele>
        <time>2023-08-07T16:13:32+02:00</time>
      </trkpt>
      <trkpt lat="44.08942" lon="6.63287">
        <ele>2021.9004</ele>
        <time>2023-08-07T16:13:36+02:00</time>
      </trkpt>
      <trkpt lat="44.08947" lon="6.63285">
        <ele>2021.5</ele>
        <time>2023-08-07T16:13:37+02:00</time>
      </trkpt>
      <trkpt lat="44.08964" lon="6.63272">
        <ele>2022.6006</ele>
        <time>2023-08-07T16:13:41+02:00</time>
      </trkpt>
      <trkpt lat="44.08967" lon="6.63268">
        <ele>2022.6006</ele>
        <time>2023-08-07T16:13:42+02:00</time>
      </trkpt>
      <trkpt lat="44.08978" lon="6.63255">
        <ele>2024.2002</ele>
        <time>2023-08-07T16:13:46+02:00</time>
      </trkpt>
      <trkpt lat="44.08981" lon="6.63252">
        <ele>2023.9004</ele>
        <time>2023-08-07T16:13:47+02:00</time>
      </trkpt>
      <trkpt lat="44.08993" lon="6.63237">
        <ele>2025.4004</ele>
        <time>2023-08-07T16:13:51+02:00</time>
      </trkpt>
      <trkpt lat="44.08997" lon="6.63233">
        <ele>2025.4004</ele>
        <time>2023-08-07T16:13:52+02:00</time>
      </trkpt>
      <trkpt lat="44.09009" lon="6.63219">
        <ele>2026.2002</ele>
        <time>2023-08-07T16:13:56+02:00</time>
      </trkpt>
      <trkpt lat="44.09013" lon="6.63214">
        <ele>2025.2998</ele>
        <time>2023-08-07T16:13:57+02:00</time>
      </trkpt>
      <trkpt lat="44.09025" lon="6.63199">
        <ele>2025.2998</ele>
        <time>2023-08-07T16:14:01+02:00</time>
      </trkpt>
      <trkpt lat="44.09027" lon="6.63196">
        <ele>2026</ele>
        <time>2023-08-07T16:14:02+02:00</time>
      </trkpt>
      <trkpt lat="44.09036" lon="6.63184">
        <ele>2024.4004</ele>
        <time>2023-08-07T16:14:06+02:00</time>
      </trkpt>
      <trkpt lat="44.09039" lon="6.63181">
        <ele>2024.4004</ele>
        <time>2023-08-07T16:14:07+02:00</time>
      </trkpt>
      <trkpt lat="44.0905" lon="6.63164">
        <ele>2023.2002</ele>
        <time>2023-08-07T16:14:11+02:00</time>
      </trkpt>
      <trkpt lat="44.09053" lon="6.6316">
        <ele>2023.7002</ele>
        <time>2023-08-07T16:14:12+02:00</time>
      </trkpt>
      <trkpt lat="44.09069" lon="6.63138">
        <ele>2020.7002</ele>
        <time>2023-08-07T16:14:16+02:00</time>
      </trkpt>
      <trkpt lat="44.09073" lon="6.63132">
        <ele>2021</ele>
        <time>2023-08-07T16:14:17+02:00</time>
      </trkpt>
      <trkpt lat="44.09086" lon="6.63101">
        <ele>2018.2998</ele>
        <time>2023-08-07T16:14:21+02:00</time>
      </trkpt>
      <trkpt lat="44.09088" lon="6.63093">
        <ele>2018.2998</ele>
        <time>2023-08-07T16:14:22+02:00</time>
      </trkpt>
      <trkpt lat="44.09082" lon="6.63066">
        <ele>2019.1006</ele>
        <time>2023-08-07T16:14:26+02:00</time>
      </trkpt>
      <trkpt lat="44.09078" lon="6.63061">
        <ele>2020.5</ele>
        <time>2023-08-07T16:14:27+02:00</time>
      </trkpt>
      <trkpt lat="44.09061" lon="6.6304">
        <ele>2022.2002</ele>
        <time>2023-08-07T16:14:31+02:00</time>
      </trkpt>
      <trkpt lat="44.09057" lon="6.63035">
        <ele>2023.9004</ele>
        <time>2023-08-07T16:14:32+02:00</time>
      </trkpt>
      <trkpt lat="44.0904" lon="6.63013">
        <ele>2027.2002</ele>
        <time>2023-08-07T16:14:36+02:00</time>
      </trkpt>
      <trkpt lat="44.09036" lon="6.63006">
        <ele>2028.4004</ele>
        <time>2023-08-07T16:14:37+02:00</time>
      </trkpt>
      <trkpt lat="44.09023" lon="6.62979">
        <ele>2031</ele>
        <time>2023-08-07T16:14:41+02:00</time>
      </trkpt>
      <trkpt lat="44.09021" lon="6.62973">
        <ele>2030.4004</ele>
        <time>2023-08-07T16:14:42+02:00</time>
      </trkpt>
      <trkpt lat="44.09019" lon="6.62949">
        <ele>2029</ele>
        <time>2023-08-07T16:14:46+02:00</time>
      </trkpt>
      <trkpt lat="44.09019" lon="6.62941">
        <ele>2028.2998</ele>
        <time>2023-08-07T16:14:47+02:00</time>
      </trkpt>
      <trkpt lat="44.09017" lon="6.62909">
        <ele>2028.7002</ele>
        <time>2023-08-07T16:14:51+02:00</time>
      </trkpt>
      <trkpt lat="44.09016" lon="6.62901">
        <ele>2027.9004</ele>
        <time>2023-08-07T16:14:52+02:00</time>
      </trkpt>
      <trkpt lat="44.09014" lon="6.62872">
        <ele>2025.5</ele>
        <time>2023-08-07T16:14:56+02:00</time>
      </trkpt>
      <trkpt lat="44.09014" lon="6.62865">
        <ele>2024.7002</ele>
        <time>2023-08-07T16:14:57+02:00</time>
      </trkpt>
      <trkpt lat="44.09014" lon="6.62832">
        <ele>2023.1006</ele>
        <time>2023-08-07T16:15:01+02:00</time>
      </trkpt>
      <trkpt lat="44.09014" lon="6.62823">
        <ele>2023.1006</ele>
        <time>2023-08-07T16:15:02+02:00</time>
      </trkpt>
      <trkpt lat="44.09013" lon="6.6279">
        <ele>2024.1006</ele>
        <time>2023-08-07T16:15:06+02:00</time>
      </trkpt>
      <trkpt lat="44.09014" lon="6.62781">
        <ele>2024.5</ele>
        <time>2023-08-07T16:15:07+02:00</time>
      </trkpt>
      <trkpt lat="44.09017" lon="6.62749">
        <ele>2026.4004</ele>
        <time>2023-08-07T16:15:11+02:00</time>
      </trkpt>
      <trkpt lat="44.09018" lon="6.62742">
        <ele>2023.9004</ele>
        <time>2023-08-07T16:15:12+02:00</time>
      </trkpt>
      <trkpt lat="44.09028" lon="6.62723">
        <ele>2023.4004</ele>
        <time>2023-08-07T16:15:16+02:00</time>
      </trkpt>
      <trkpt lat="44.09031" lon="6.62719">
        <ele>2021</ele>
        <time>2023-08-07T16:15:17+02:00</time>
      </trkpt>
      <trkpt lat="44.09041" lon="6.62701">
        <ele>2020.4004</ele>
        <time>2023-08-07T16:15:21+02:00</time>
      </trkpt>
      <trkpt lat="44.09044" lon="6.62696">
        <ele>2019.2998</ele>
        <time>2023-08-07T16:15:22+02:00</time>
      </trkpt>
      <trkpt lat="44.09059" lon="6.62681">
        <ele>2017.7998</ele>
        <time>2023-08-07T16:15:26+02:00</time>
      </trkpt>
      <trkpt lat="44.09062" lon="6.62676">
        <ele>2015.9004</ele>
        <time>2023-08-07T16:15:27+02:00</time>
      </trkpt>
      <trkpt lat="44.09076" lon="6.62657">
        <ele>2015.2998</ele>
        <time>2023-08-07T16:15:31+02:00</time>
      </trkpt>
      <trkpt lat="44.09079" lon="6.62653">
        <ele>2017</ele>
        <time>2023-08-07T16:15:32+02:00</time>
      </trkpt>
      <trkpt lat="44.09091" lon="6.62643">
        <ele>2015.6006</ele>
        <time>2023-08-07T16:15:36+02:00</time>
      </trkpt>
      <trkpt lat="44.09094" lon="6.62641">
        <ele>2013.9004</ele>
        <time>2023-08-07T16:15:37+02:00</time>
      </trkpt>
      <trkpt lat="44.09111" lon="6.62632">
        <ele>2010.7998</ele>
        <time>2023-08-07T16:15:41+02:00</time>
      </trkpt>
      <trkpt lat="44.09115" lon="6.62629">
        <ele>2012.7002</ele>
        <time>2023-08-07T16:15:42+02:00</time>
      </trkpt>
      <trkpt lat="44.09129" lon="6.62617">
        <ele>2009.1006</ele>
        <time>2023-08-07T16:15:46+02:00</time>
      </trkpt>
      <trkpt lat="44.09132" lon="6.62614">
        <ele>2009.1006</ele>
        <time>2023-08-07T16:15:47+02:00</time>
      </trkpt>
      <trkpt lat="44.09149" lon="6.62599">
        <ele>2007.7002</ele>
        <time>2023-08-07T16:15:51+02:00</time>
      </trkpt>
      <trkpt lat="44.09153" lon="6.62596">
        <ele>2008</ele>
        <time>2023-08-07T16:15:52+02:00</time>
      </trkpt>
      <trkpt lat="44.09168" lon="6.62582">
        <ele>2006.9004</ele>
        <time>2023-08-07T16:15:56+02:00</time>
      </trkpt>
      <trkpt lat="44.09172" lon="6.62579">
        <ele>2005.7002</ele>
        <time>2023-08-07T16:15:57+02:00</time>
      </trkpt>
      <trkpt lat="44.09188" lon="6.62567">
        <ele>2006.1006</ele>
        <time>2023-08-07T16:16:01+02:00</time>
      </trkpt>
      <trkpt lat="44.09193" lon="6.62564">
        <ele>2005.1006</ele>
        <time>2023-08-07T16:16:02+02:00</time>
      </trkpt>
      <trkpt lat="44.09211" lon="6.62551">
        <ele>2004.1006</ele>
        <time>2023-08-07T16:16:06+02:00</time>
      </trkpt>
      <trkpt lat="44.09216" lon="6.62548">
        <ele>2003.2998</ele>
        <time>2023-08-07T16:16:07+02:00</time>
      </trkpt>
      <trkpt lat="44.09233" lon="6.62533">
        <ele>2003</ele>
        <time>2023-08-07T16:16:11+02:00</time>
      </trkpt>
      <trkpt lat="44.09238" lon="6.6253">
        <ele>2002.7002</ele>
        <time>2023-08-07T16:16:12+02:00</time>
      </trkpt>
      <trkpt lat="44.09256" lon="6.62515">
        <ele>2002.1006</ele>
        <time>2023-08-07T16:16:16+02:00</time>
      </trkpt>
      <trkpt lat="44.09259" lon="6.62511">
        <ele>2002</ele>
        <time>2023-08-07T16:16:17+02:00</time>
      </trkpt>
      <trkpt lat="44.09266" lon="6.62491">
        <ele>2000.7002</ele>
        <time>2023-08-07T16:16:21+02:00</time>
      </trkpt>
      <trkpt lat="44.09268" lon="6.62484">
        <ele>1999.9004</ele>
        <time>2023-08-07T16:16:22+02:00</time>
      </trkpt>
      <trkpt lat="44.09269" lon="6.62454">
        <ele>1996.5</ele>
        <time>2023-08-07T16:16:26+02:00</time>
      </trkpt>
      <trkpt lat="44.09269" lon="6.62448">
        <ele>1995.1006</ele>
        <time>2023-08-07T16:16:27+02:00</time>
      </trkpt>
      <trkpt lat="44.09258" lon="6.62426">
        <ele>1991.9004</ele>
        <time>2023-08-07T16:16:31+02:00</time>
      </trkpt>
      <trkpt lat="44.09253" lon="6.6242">
        <ele>1990.4004</ele>
        <time>2023-08-07T16:16:32+02:00</time>
      </trkpt>
      <trkpt lat="44.09236" lon="6.62395">
        <ele>1986.4004</ele>
        <time>2023-08-07T16:16:36+02:00</time>
      </trkpt>
      <trkpt lat="44.09232" lon="6.62388">
        <ele>1985.7002</ele>
        <time>2023-08-07T16:16:37+02:00</time>
      </trkpt>
      <trkpt lat="44.0922" lon="6.62364">
        <ele>1985.5</ele>
        <time>2023-08-07T16:16:41+02:00</time>
      </trkpt>
      <trkpt lat="44.09218" lon="6.62358">
        <ele>1984.2998</ele>
        <time>2023-08-07T16:16:42+02:00</time>
      </trkpt>
      <trkpt lat="44.09211" lon="6.62334">
        <ele>1982.7002</ele>
        <time>2023-08-07T16:16:46+02:00</time>
      </trkpt>
      <trkpt lat="44.09209" lon="6.62327">
        <ele>1981.7002</ele>
        <time>2023-08-07T16:16:47+02:00</time>
      </trkpt>
      <trkpt lat="44.09204" lon="6.623">
        <ele>1981.1006</ele>
        <time>2023-08-07T16:16:51+02:00</time>
      </trkpt>
      <trkpt lat="44.09203" lon="6.62293">
        <ele>1980.2002</ele>
        <time>2023-08-07T16:16:52+02:00</time>
      </trkpt>
      <trkpt lat="44.09193" lon="6.62264">
        <ele>1982.1006</ele>
        <time>2023-08-07T16:16:56+02:00</time>
      </trkpt>
      <trkpt lat="44.0919" lon="6.62258">
        <ele>1983.5</ele>
        <time>2023-08-07T16:16:57+02:00</time>
      </trkpt>
      <trkpt lat="44.0918" lon="6.62228">
        <ele>1983.4004</ele>
        <time>2023-08-07T16:17:01+02:00</time>
      </trkpt>
      <trkpt lat="44.09178" lon="6.6222">
        <ele>1982.6006</ele>
        <time>2023-08-07T16:17:02+02:00</time>
      </trkpt>
      <trkpt lat="44.0917" lon="6.62189">
        <ele>1984.2002</ele>
        <time>2023-08-07T16:17:06+02:00</time>
      </trkpt>
      <trkpt lat="44.09169" lon="6.62181">
        <ele>1983.5</ele>
        <time>2023-08-07T16:17:07+02:00</time>
      </trkpt>
      <trkpt lat="44.09163" lon="6.62151">
        <ele>1983.9004</ele>
        <time>2023-08-07T16:17:11+02:00</time>
      </trkpt>
      <trkpt lat="44.09162" lon="6.62143">
        <ele>1983.5</ele>
        <time>2023-08-07T16:17:12+02:00</time>
      </trkpt>
      <trkpt lat="44.09161" lon="6.62116">
        <ele>1982.5</ele>
        <time>2023-08-07T16:17:16+02:00</time>
      </trkpt>
      <trkpt lat="44.09162" lon="6.6211">
        <ele>1982.1006</ele>
        <time>2023-08-07T16:17:17+02:00</time>
      </trkpt>
      <trkpt lat="44.09169" lon="6.62082">
        <ele>1979.4004</ele>
        <time>2023-08-07T16:17:21+02:00</time>
      </trkpt>
      <trkpt lat="44.09171" lon="6.62074">
        <ele>1979</ele>
        <time>2023-08-07T16:17:22+02:00</time>
      </trkpt>
      <trkpt lat="44.09187" lon="6.62037">
        <ele>1971</ele>
        <time>2023-08-07T16:17:26+02:00</time>
      </trkpt>
      <trkpt lat="44.09193" lon="6.62029">
        <ele>1968.2002</ele>
        <time>2023-08-07T16:17:27+02:00</time>
      </trkpt>
      <trkpt lat="44.09218" lon="6.61998">
        <ele>1955.7998</ele>
        <time>2023-08-07T16:17:31+02:00</time>
      </trkpt>
      <trkpt lat="44.09223" lon="6.61992">
        <ele>1952.2002</ele>
        <time>2023-08-07T16:17:32+02:00</time>
      </trkpt>
      <trkpt lat="44.09241" lon="6.61971">
        <ele>1942.7998</ele>
        <time>2023-08-07T16:17:36+02:00</time>
      </trkpt>
      <trkpt lat="44.09245" lon="6.61966">
        <ele>1941</ele>
        <time>2023-08-07T16:17:37+02:00</time>
      </trkpt>
      <trkpt lat="44.09265" lon="6.61949">
        <ele>1930.2998</ele>
        <time>2023-08-07T16:17:41+02:00</time>
      </trkpt>
      <trkpt lat="44.09271" lon="6.61945">
        <ele>1928.7998</ele>
        <time>2023-08-07T16:17:42+02:00</time>
      </trkpt>
      <trkpt lat="44.093" lon="6.61931">
        <ele>1919.4004</ele>
        <time>2023-08-07T16:17:46+02:00</time>
      </trkpt>
      <trkpt lat="44.09309" lon="6.61928">
        <ele>1917.7998</ele>
        <time>2023-08-07T16:17:47+02:00</time>
      </trkpt>
      <trkpt lat="44.09339" lon="6.61915">
        <ele>1911.6006</ele>
        <time>2023-08-07T16:17:51+02:00</time>
      </trkpt>
      <trkpt lat="44.09347" lon="6.61912">
        <ele>1911.6006</ele>
        <time>2023-08-07T16:17:52+02:00</time>
      </trkpt>
      <trkpt lat="44.0938" lon="6.61899">
        <ele>1907.4004</ele>
        <time>2023-08-07T16:17:56+02:00</time>
      </trkpt>
      <trkpt lat="44.09387" lon="6.61897">
        <ele>1907.2002</ele>
        <time>2023-08-07T16:17:57+02:00</time>
      </trkpt>
      <trkpt lat="44.09416" lon="6.61882">
        <ele>1902.6006</ele>
        <time>2023-08-07T16:18:01+02:00</time>
      </trkpt>
      <trkpt lat="44.09423" lon="6.61877">
        <ele>1902.4004</ele>
        <time>2023-08-07T16:18:02+02:00</time>
      </trkpt>
      <trkpt lat="44.09448" lon="6.61858">
        <ele>1899.5</ele>
        <time>2023-08-07T16:18:06+02:00</time>
      </trkpt>
      <trkpt lat="44.09454" lon="6.61855">
        <ele>1898.2998</ele>
        <time>2023-08-07T16:18:07+02:00</time>
      </trkpt>
      <trkpt lat="44.09475" lon="6.61839">
        <ele>1895.2002</ele>
        <time>2023-08-07T16:18:11+02:00</time>
      </trkpt>
      <trkpt lat="44.09477" lon="6.61835">
        <ele>1895.2002</ele>
        <time>2023-08-07T16:18:12+02:00</time>
      </trkpt>
      <trkpt lat="44.09467" lon="6.61824">
        <ele>1893.7002</ele>
        <time>2023-08-07T16:18:16+02:00</time>
      </trkpt>
      <trkpt lat="44.09462" lon="6.61822">
        <ele>1891.9004</ele>
        <time>2023-08-07T16:18:17+02:00</time>
      </trkpt>
      <trkpt lat="44.09444" lon="6.61815">
        <ele>1892</ele>
        <time>2023-08-07T16:18:21+02:00</time>
      </trkpt>
      <trkpt lat="44.09439" lon="6.61814">
        <ele>1890</ele>
        <time>2023-08-07T16:18:22+02:00</time>
      </trkpt>
      <trkpt lat="44.0942" lon="6.61814">
        <ele>1889.9004</ele>
        <time>2023-08-07T16:18:26+02:00</time>
      </trkpt>
      <trkpt lat="44.09415" lon="6.61815">
        <ele>1891.7998</ele>
        <time>2023-08-07T16:18:27+02:00</time>
      </trkpt>
      <trkpt lat="44.09393" lon="6.61814">
        <ele>1887.7002</ele>
        <time>2023-08-07T16:18:31+02:00</time>
      </trkpt>
      <trkpt lat="44.09388" lon="6.61813">
        <ele>1887.7002</ele>
        <time>2023-08-07T16:18:32+02:00</time>
      </trkpt>
      <trkpt lat="44.09371" lon="6.61804">
        <ele>1882.4004</ele>
        <time>2023-08-07T16:18:36+02:00</time>
      </trkpt>
      <trkpt lat="44.09367" lon="6.61802">
        <ele>1881.5</ele>
        <time>2023-08-07T16:18:37+02:00</time>
      </trkpt>
      <trkpt lat="44.09351" lon="6.61797">
        <ele>1876.4004</ele>
        <time>2023-08-07T16:18:41+02:00</time>
      </trkpt>
      <trkpt lat="44.09346" lon="6.61797">
        <ele>1875.5</ele>
        <time>2023-08-07T16:18:42+02:00</time>
      </trkpt>
      <trkpt lat="44.09328" lon="6.61799">
        <ele>1876.4004</ele>
        <time>2023-08-07T16:18:46+02:00</time>
      </trkpt>
      <trkpt lat="44.09323" lon="6.61799">
        <ele>1875.9004</ele>
        <time>2023-08-07T16:18:47+02:00</time>
      </trkpt>
      <trkpt lat="44.09302" lon="6.61804">
        <ele>1875.1006</ele>
        <time>2023-08-07T16:18:51+02:00</time>
      </trkpt>
      <trkpt lat="44.09295" lon="6.61805">
        <ele>1875.4004</ele>
        <time>2023-08-07T16:18:52+02:00</time>
      </trkpt>
      <trkpt lat="44.09271" lon="6.61807">
        <ele>1882</ele>
        <time>2023-08-07T16:18:56+02:00</time>
      </trkpt>
      <trkpt lat="44.09267" lon="6.61806">
        <ele>1883.5</ele>
        <time>2023-08-07T16:18:57+02:00</time>
      </trkpt>
      <trkpt lat="44.09251" lon="6.61806">
        <ele>1886.7998</ele>
        <time>2023-08-07T16:19:01+02:00</time>
      </trkpt>
      <trkpt lat="44.09247" lon="6.61806">
        <ele>1889.9004</ele>
        <time>2023-08-07T16:19:02+02:00</time>
      </trkpt>
      <trkpt lat="44.09234" lon="6.618">
        <ele>1892.6006</ele>
        <time>2023-08-07T16:19:06+02:00</time>
      </trkpt>
      <trkpt lat="44.09234" lon="6.61795">
        <ele>1889.7002</ele>
        <time>2023-08-07T16:19:07+02:00</time>
      </trkpt>
      <trkpt lat="44.09237" lon="6.61767">
        <ele>1881.2002</ele>
        <time>2023-08-07T16:19:11+02:00</time>
      </trkpt>
      <trkpt lat="44.09237" lon="6.61759">
        <ele>1878.4004</ele>
        <time>2023-08-07T16:19:12+02:00</time>
      </trkpt>
      <trkpt lat="44.09238" lon="6.6173">
        <ele>1870.2002</ele>
        <time>2023-08-07T16:19:16+02:00</time>
      </trkpt>
      <trkpt lat="44.09238" lon="6.61723">
        <ele>1867.5</ele>
        <time>2023-08-07T16:19:17+02:00</time>
      </trkpt>
      <trkpt lat="44.09237" lon="6.61696">
        <ele>1860</ele>
        <time>2023-08-07T16:19:21+02:00</time>
      </trkpt>
      <trkpt lat="44.09235" lon="6.61689">
        <ele>1857.5</ele>
        <time>2023-08-07T16:19:22+02:00</time>
      </trkpt>
      <trkpt lat="44.09227" lon="6.61666">
        <ele>1853.9004</ele>
        <time>2023-08-07T16:19:26+02:00</time>
      </trkpt>
      <trkpt lat="44.09224" lon="6.6166">
        <ele>1857.7998</ele>
        <time>2023-08-07T16:19:27+02:00</time>
      </trkpt>
      <trkpt lat="44.09212" lon="6.61638">
        <ele>1858.2998</ele>
        <time>2023-08-07T16:19:31+02:00</time>
      </trkpt>
      <trkpt lat="44.09209" lon="6.61633">
        <ele>1855.6006</ele>
        <time>2023-08-07T16:19:32+02:00</time>
      </trkpt>
      <trkpt lat="44.09197" lon="6.61615">
        <ele>1857.6006</ele>
        <time>2023-08-07T16:19:36+02:00</time>
      </trkpt>
      <trkpt lat="44.09193" lon="6.61609">
        <ele>1861.4004</ele>
        <time>2023-08-07T16:19:37+02:00</time>
      </trkpt>
      <trkpt lat="44.09173" lon="6.61589">
        <ele>1861.7998</ele>
        <time>2023-08-07T16:19:41+02:00</time>
      </trkpt>
      <trkpt lat="44.09168" lon="6.61585">
        <ele>1864.9004</ele>
        <time>2023-08-07T16:19:42+02:00</time>
      </trkpt>
      <trkpt lat="44.09153" lon="6.61571">
        <ele>1865.1006</ele>
        <time>2023-08-07T16:19:46+02:00</time>
      </trkpt>
      <trkpt lat="44.0915" lon="6.61567">
        <ele>1865.1006</ele>
        <time>2023-08-07T16:19:47+02:00</time>
      </trkpt>
      <trkpt lat="44.09138" lon="6.6155">
        <ele>1862</ele>
        <time>2023-08-07T16:19:51+02:00</time>
      </trkpt>
      <trkpt lat="44.09134" lon="6.61543">
        <ele>1860.2998</ele>
        <time>2023-08-07T16:19:52+02:00</time>
      </trkpt>
      <trkpt lat="44.09121" lon="6.61521">
        <ele>1853.4004</ele>
        <time>2023-08-07T16:19:56+02:00</time>
      </trkpt>
      <trkpt lat="44.09119" lon="6.61516">
        <ele>1853.4004</ele>
        <time>2023-08-07T16:19:57+02:00</time>
      </trkpt>
      <trkpt lat="44.09106" lon="6.61499">
        <ele>1849.2998</ele>
        <time>2023-08-07T16:20:01+02:00</time>
      </trkpt>
      <trkpt lat="44.09102" lon="6.61495">
        <ele>1846.7998</ele>
        <time>2023-08-07T16:20:02+02:00</time>
      </trkpt>
      <trkpt lat="44.09086" lon="6.61479">
        <ele>1841.2998</ele>
        <time>2023-08-07T16:20:06+02:00</time>
      </trkpt>
      <trkpt lat="44.09083" lon="6.61476">
        <ele>1842.1006</ele>
        <time>2023-08-07T16:20:07+02:00</time>
      </trkpt>
      <trkpt lat="44.09071" lon="6.61463">
        <ele>1834.7998</ele>
        <time>2023-08-07T16:20:11+02:00</time>
      </trkpt>
      <trkpt lat="44.09069" lon="6.61458">
        <ele>1834.7998</ele>
        <time>2023-08-07T16:20:12+02:00</time>
      </trkpt>
      <trkpt lat="44.09058" lon="6.61437">
        <ele>1826.7002</ele>
        <time>2023-08-07T16:20:16+02:00</time>
      </trkpt>
      <trkpt lat="44.09054" lon="6.61432">
        <ele>1822.2998</ele>
        <time>2023-08-07T16:20:17+02:00</time>
      </trkpt>
      <trkpt lat="44.09039" lon="6.61416">
        <ele>1812.5</ele>
        <time>2023-08-07T16:20:21+02:00</time>
      </trkpt>
      <trkpt lat="44.09036" lon="6.61413">
        <ele>1812.5</ele>
        <time>2023-08-07T16:20:22+02:00</time>
      </trkpt>
      <trkpt lat="44.09023" lon="6.61402">
        <ele>1800.9004</ele>
        <time>2023-08-07T16:20:26+02:00</time>
      </trkpt>
      <trkpt lat="44.09021" lon="6.614">
        <ele>1800.9004</ele>
        <time>2023-08-07T16:20:27+02:00</time>
      </trkpt>
      <trkpt lat="44.09017" lon="6.61397">
        <ele>1799.9004</ele>
        <time>2023-08-07T16:20:31+02:00</time>
      </trkpt>
      <trkpt lat="44.09017" lon="6.61397">
        <ele>1799.9004</ele>
        <time>2023-08-07T16:20:32+02:00</time>
      </trkpt>
      <trkpt lat="44.09016" lon="6.61397">
        <ele>1799.9004</ele>
        <time>2023-08-07T16:20:36+02:00</time>
      </trkpt>
      <trkpt lat="44.09014" lon="6.61394">
        <ele>1796.4004</ele>
        <time>2023-08-07T16:20:37+02:00</time>
      </trkpt>
      <trkpt lat="44.09009" lon="6.6139">
        <ele>1795.6006</ele>
        <time>2023-08-07T16:20:41+02:00</time>
      </trkpt>
      <trkpt lat="44.09008" lon="6.61389">
        <ele>1795.6006</ele>
        <time>2023-08-07T16:20:42+02:00</time>
      </trkpt>
      <trkpt lat="44.08998" lon="6.61386">
        <ele>1793.9004</ele>
        <time>2023-08-07T16:20:46+02:00</time>
      </trkpt>
      <trkpt lat="44.08994" lon="6.61385">
        <ele>1791</ele>
        <time>2023-08-07T16:20:47+02:00</time>
      </trkpt>
      <trkpt lat="44.08981" lon="6.61378">
        <ele>1789.1006</ele>
        <time>2023-08-07T16:20:51+02:00</time>
      </trkpt>
      <trkpt lat="44.08977" lon="6.61376">
        <ele>1785.6006</ele>
        <time>2023-08-07T16:20:52+02:00</time>
      </trkpt>
      <trkpt lat="44.08959" lon="6.6137">
        <ele>1783.4004</ele>
        <time>2023-08-07T16:20:56+02:00</time>
      </trkpt>
      <trkpt lat="44.08955" lon="6.61369">
        <ele>1782.7998</ele>
        <time>2023-08-07T16:20:57+02:00</time>
      </trkpt>
      <trkpt lat="44.08937" lon="6.61364">
        <ele>1779.7002</ele>
        <time>2023-08-07T16:21:01+02:00</time>
      </trkpt>
      <trkpt lat="44.08933" lon="6.61362">
        <ele>1779.7002</ele>
        <time>2023-08-07T16:21:02+02:00</time>
      </trkpt>
      <trkpt lat="44.08917" lon="6.61358">
        <ele>1778.2998</ele>
        <time>2023-08-07T16:21:06+02:00</time>
      </trkpt>
      <trkpt lat="44.08913" lon="6.61356">
        <ele>1778.2998</ele>
        <time>2023-08-07T16:21:07+02:00</time>
      </trkpt>
      <trkpt lat="44.08905" lon="6.61347">
        <ele>1779.2002</ele>
        <time>2023-08-07T16:21:11+02:00</time>
      </trkpt>
      <trkpt lat="44.08902" lon="6.61344">
        <ele>1779.2002</ele>
        <time>2023-08-07T16:21:12+02:00</time>
      </trkpt>
      <trkpt lat="44.08895" lon="6.61337">
        <ele>1780.4004</ele>
        <time>2023-08-07T16:21:16+02:00</time>
      </trkpt>
      <trkpt lat="44.08893" lon="6.61336">
        <ele>1780.7002</ele>
        <time>2023-08-07T16:21:17+02:00</time>
      </trkpt>
      <trkpt lat="44.08886" lon="6.61333">
        <ele>1781.4004</ele>
        <time>2023-08-07T16:21:21+02:00</time>
      </trkpt>
      <trkpt lat="44.08884" lon="6.61332">
        <ele>1781.4004</ele>
        <time>2023-08-07T16:21:22+02:00</time>
      </trkpt>
      <trkpt lat="44.08872" lon="6.61335">
        <ele>1780.9004</ele>
        <time>2023-08-07T16:21:26+02:00</time>
      </trkpt>
      <trkpt lat="44.08869" lon="6.61336">
        <ele>1780.7998</ele>
        <time>2023-08-07T16:21:27+02:00</time>
      </trkpt>
      <trkpt lat="44.08859" lon="6.61341">
        <ele>1780.6006</ele>
        <time>2023-08-07T16:21:31+02:00</time>
      </trkpt>
      <trkpt lat="44.08856" lon="6.61342">
        <ele>1780.4004</ele>
        <time>2023-08-07T16:21:32+02:00</time>
      </trkpt>
      <trkpt lat="44.08841" lon="6.61348">
        <ele>1779.6006</ele>
        <time>2023-08-07T16:21:36+02:00</time>
      </trkpt>
      <trkpt lat="44.08837" lon="6.61349">
        <ele>1779.4004</ele>
        <time>2023-08-07T16:21:37+02:00</time>
      </trkpt>
      <trkpt lat="44.08821" lon="6.61354">
        <ele>1778.6006</ele>
        <time>2023-08-07T16:21:41+02:00</time>
      </trkpt>
      <trkpt lat="44.08816" lon="6.61355">
        <ele>1778.2998</ele>
        <time>2023-08-07T16:21:42+02:00</time>
      </trkpt>
      <trkpt lat="44.08797" lon="6.61359">
        <ele>1777.4004</ele>
        <time>2023-08-07T16:21:46+02:00</time>
      </trkpt>
      <trkpt lat="44.08793" lon="6.61361">
        <ele>1777.1006</ele>
        <time>2023-08-07T16:21:47+02:00</time>
      </trkpt>
      <trkpt lat="44.08774" lon="6.6137">
        <ele>1776.2002</ele>
        <time>2023-08-07T16:21:51+02:00</time>
      </trkpt>
      <trkpt lat="44.08769" lon="6.61374">
        <ele>1775.7998</ele>
        <time>2023-08-07T16:21:52+02:00</time>
      </trkpt>
      <trkpt lat="44.08753" lon="6.61387">
        <ele>1775.9004</ele>
        <time>2023-08-07T16:21:56+02:00</time>
      </trkpt>
      <trkpt lat="44.08748" lon="6.61389">
        <ele>1775.2998</ele>
        <time>2023-08-07T16:21:57+02:00</time>
      </trkpt>
      <trkpt lat="44.08724" lon="6.61391">
        <ele>1772.1006</ele>
        <time>2023-08-07T16:22:01+02:00</time>
      </trkpt>
      <trkpt lat="44.08717" lon="6.61389">
        <ele>1771.2998</ele>
        <time>2023-08-07T16:22:02+02:00</time>
      </trkpt>
      <trkpt lat="44.08689" lon="6.61382">
        <ele>1768.1006</ele>
        <time>2023-08-07T16:22:06+02:00</time>
      </trkpt>
      <trkpt lat="44.08682" lon="6.61382">
        <ele>1767.6006</ele>
        <time>2023-08-07T16:22:07+02:00</time>
      </trkpt>
      <trkpt lat="44.08655" lon="6.61377">
        <ele>1765.6006</ele>
        <time>2023-08-07T16:22:11+02:00</time>
      </trkpt>
      <trkpt lat="44.08648" lon="6.61375">
        <ele>1765.2002</ele>
        <time>2023-08-07T16:22:12+02:00</time>
      </trkpt>
      <trkpt lat="44.08629" lon="6.61363">
        <ele>1762.2002</ele>
        <time>2023-08-07T16:22:16+02:00</time>
      </trkpt>
      <trkpt lat="44.08625" lon="6.61359">
        <ele>1761.9004</ele>
        <time>2023-08-07T16:22:17+02:00</time>
      </trkpt>
      <trkpt lat="44.08624" lon="6.6134">
        <ele>1761</ele>
        <time>2023-08-07T16:22:21+02:00</time>
      </trkpt>
      <trkpt lat="44.08628" lon="6.61335">
        <ele>1761</ele>
        <time>2023-08-07T16:22:22+02:00</time>
      </trkpt>
      <trkpt lat="44.08642" lon="6.61317">
        <ele>1763.6006</ele>
        <time>2023-08-07T16:22:26+02:00</time>
      </trkpt>
      <trkpt lat="44.08645" lon="6.61313">
        <ele>1763.2998</ele>
        <time>2023-08-07T16:22:27+02:00</time>
      </trkpt>
      <trkpt lat="44.08659" lon="6.61294">
        <ele>1764.6006</ele>
        <time>2023-08-07T16:22:31+02:00</time>
      </trkpt>
      <trkpt lat="44.08663" lon="6.61289">
        <ele>1765.2002</ele>
        <time>2023-08-07T16:22:32+02:00</time>
      </trkpt>
      <trkpt lat="44.08673" lon="6.61267">
        <ele>1766.1006</ele>
        <time>2023-08-07T16:22:36+02:00</time>
      </trkpt>
      <trkpt lat="44.08674" lon="6.6126">
        <ele>1765.6006</ele>
        <time>2023-08-07T16:22:37+02:00</time>
      </trkpt>
      <trkpt lat="44.0866" lon="6.61237">
        <ele>1761.7002</ele>
        <time>2023-08-07T16:22:41+02:00</time>
      </trkpt>
      <trkpt lat="44.08656" lon="6.61232">
        <ele>1760.4004</ele>
        <time>2023-08-07T16:22:42+02:00</time>
      </trkpt>
      <trkpt lat="44.08642" lon="6.61209">
        <ele>1756.2998</ele>
        <time>2023-08-07T16:22:46+02:00</time>
      </trkpt>
      <trkpt lat="44.08643" lon="6.61202">
        <ele>1756</ele>
        <time>2023-08-07T16:22:47+02:00</time>
      </trkpt>
      <trkpt lat="44.08657" lon="6.6118">
        <ele>1758.2998</ele>
        <time>2023-08-07T16:22:51+02:00</time>
      </trkpt>
      <trkpt lat="44.08662" lon="6.61175">
        <ele>1759.4004</ele>
        <time>2023-08-07T16:22:52+02:00</time>
      </trkpt>
      <trkpt lat="44.08682" lon="6.61157">
        <ele>1762.6006</ele>
        <time>2023-08-07T16:22:56+02:00</time>
      </trkpt>
      <trkpt lat="44.08687" lon="6.61153">
        <ele>1763.4004</ele>
        <time>2023-08-07T16:22:57+02:00</time>
      </trkpt>
      <trkpt lat="44.08705" lon="6.61134">
        <ele>1765.9004</ele>
        <time>2023-08-07T16:23:01+02:00</time>
      </trkpt>
      <trkpt lat="44.0871" lon="6.61127">
        <ele>1766.7002</ele>
        <time>2023-08-07T16:23:02+02:00</time>
      </trkpt>
      <trkpt lat="44.08724" lon="6.61099">
        <ele>1768.2998</ele>
        <time>2023-08-07T16:23:06+02:00</time>
      </trkpt>
      <trkpt lat="44.08724" lon="6.61092">
        <ele>1768.2002</ele>
        <time>2023-08-07T16:23:07+02:00</time>
      </trkpt>
      <trkpt lat="44.08712" lon="6.61067">
        <ele>1766.5</ele>
        <time>2023-08-07T16:23:11+02:00</time>
      </trkpt>
      <trkpt lat="44.08706" lon="6.61062">
        <ele>1765.7998</ele>
        <time>2023-08-07T16:23:12+02:00</time>
      </trkpt>
      <trkpt lat="44.0868" lon="6.6105">
        <ele>1763.9004</ele>
        <time>2023-08-07T16:23:16+02:00</time>
      </trkpt>
      <trkpt lat="44.08672" lon="6.61049">
        <ele>1762.9004</ele>
        <time>2023-08-07T16:23:17+02:00</time>
      </trkpt>
      <trkpt lat="44.08638" lon="6.61036">
        <ele>1759</ele>
        <time>2023-08-07T16:23:21+02:00</time>
      </trkpt>
      <trkpt lat="44.08628" lon="6.61031">
        <ele>1757.2998</ele>
        <time>2023-08-07T16:23:22+02:00</time>
      </trkpt>
      <trkpt lat="44.0859" lon="6.61008">
        <ele>1751</ele>
        <time>2023-08-07T16:23:26+02:00</time>
      </trkpt>
      <trkpt lat="44.08581" lon="6.61002">
        <ele>1750.1006</ele>
        <time>2023-08-07T16:23:27+02:00</time>
      </trkpt>
      <trkpt lat="44.08558" lon="6.60973">
        <ele>1745.1006</ele>
        <time>2023-08-07T16:23:31+02:00</time>
      </trkpt>
      <trkpt lat="44.08556" lon="6.60965">
        <ele>1745</ele>
        <time>2023-08-07T16:23:32+02:00</time>
      </trkpt>
      <trkpt lat="44.08562" lon="6.60939">
        <ele>1746</ele>
        <time>2023-08-07T16:23:36+02:00</time>
      </trkpt>
      <trkpt lat="44.08565" lon="6.60933">
        <ele>1746</ele>
        <time>2023-08-07T16:23:37+02:00</time>
      </trkpt>
      <trkpt lat="44.08575" lon="6.60913">
        <ele>1748.6006</ele>
        <time>2023-08-07T16:23:41+02:00</time>
      </trkpt>
      <trkpt lat="44.08578" lon="6.60908">
        <ele>1748.6006</ele>
        <time>2023-08-07T16:23:42+02:00</time>
      </trkpt>
      <trkpt lat="44.08588" lon="6.60889">
        <ele>1751.2002</ele>
        <time>2023-08-07T16:23:46+02:00</time>
      </trkpt>
      <trkpt lat="44.0859" lon="6.60884">
        <ele>1751.1006</ele>
        <time>2023-08-07T16:23:47+02:00</time>
      </trkpt>
      <trkpt lat="44.086" lon="6.60868">
        <ele>1752.7998</ele>
        <time>2023-08-07T16:23:51+02:00</time>
      </trkpt>
      <trkpt lat="44.08603" lon="6.60865">
        <ele>1752.7998</ele>
        <time>2023-08-07T16:23:52+02:00</time>
      </trkpt>
      <trkpt lat="44.08613" lon="6.60851">
        <ele>1754.1006</ele>
        <time>2023-08-07T16:23:56+02:00</time>
      </trkpt>
      <trkpt lat="44.08616" lon="6.60848">
        <ele>1754.1006</ele>
        <time>2023-08-07T16:23:57+02:00</time>
      </trkpt>
      <trkpt lat="44.08627" lon="6.60835">
        <ele>1755.7998</ele>
        <time>2023-08-07T16:24:01+02:00</time>
      </trkpt>
      <trkpt lat="44.0863" lon="6.60832">
        <ele>1756.7998</ele>
        <time>2023-08-07T16:24:02+02:00</time>
      </trkpt>
      <trkpt lat="44.08642" lon="6.60821">
        <ele>1759.2002</ele>
        <time>2023-08-07T16:24:06+02:00</time>
      </trkpt>
      <trkpt lat="44.08645" lon="6.60818">
        <ele>1759.4004</ele>
        <time>2023-08-07T16:24:07+02:00</time>
      </trkpt>
      <trkpt lat="44.0865" lon="6.60802">
        <ele>1760.9004</ele>
        <time>2023-08-07T16:24:11+02:00</time>
      </trkpt>
      <trkpt lat="44.08649" lon="6.60798">
        <ele>1761.2002</ele>
        <time>2023-08-07T16:24:12+02:00</time>
      </trkpt>
      <trkpt lat="44.0864" lon="6.60786">
        <ele>1759.2002</ele>
        <time>2023-08-07T16:24:16+02:00</time>
      </trkpt>
      <trkpt lat="44.08638" lon="6.60784">
        <ele>1759.7002</ele>
        <time>2023-08-07T16:24:17+02:00</time>
      </trkpt>
      <trkpt lat="44.08628" lon="6.60774">
        <ele>1758.7002</ele>
        <time>2023-08-07T16:24:21+02:00</time>
      </trkpt>
      <trkpt lat="44.08625" lon="6.60771">
        <ele>1758.7002</ele>
        <time>2023-08-07T16:24:22+02:00</time>
      </trkpt>
      <trkpt lat="44.0861" lon="6.60767">
        <ele>1757.5</ele>
        <time>2023-08-07T16:24:26+02:00</time>
      </trkpt>
      <trkpt lat="44.08607" lon="6.60766">
        <ele>1757.5</ele>
        <time>2023-08-07T16:24:27+02:00</time>
      </trkpt>
      <trkpt lat="44.08594" lon="6.60762">
        <ele>1756.6006</ele>
        <time>2023-08-07T16:24:31+02:00</time>
      </trkpt>
      <trkpt lat="44.08591" lon="6.60761">
        <ele>1756.2998</ele>
        <time>2023-08-07T16:24:32+02:00</time>
      </trkpt>
      <trkpt lat="44.0858" lon="6.60755">
        <ele>1757.4004</ele>
        <time>2023-08-07T16:24:36+02:00</time>
      </trkpt>
      <trkpt lat="44.08577" lon="6.60754">
        <ele>1757.4004</ele>
        <time>2023-08-07T16:24:37+02:00</time>
      </trkpt>
      <trkpt lat="44.08565" lon="6.60749">
        <ele>1759</ele>
        <time>2023-08-07T16:24:41+02:00</time>
      </trkpt>
      <trkpt lat="44.08562" lon="6.60749">
        <ele>1759</ele>
        <time>2023-08-07T16:24:42+02:00</time>
      </trkpt>
      <trkpt lat="44.0855" lon="6.60746">
        <ele>1759.4004</ele>
        <time>2023-08-07T16:24:46+02:00</time>
      </trkpt>
      <trkpt lat="44.08547" lon="6.60745">
        <ele>1759.5</ele>
        <time>2023-08-07T16:24:47+02:00</time>
      </trkpt>
      <trkpt lat="44.08535" lon="6.60742">
        <ele>1761.1006</ele>
        <time>2023-08-07T16:24:51+02:00</time>
      </trkpt>
      <trkpt lat="44.08533" lon="6.60741">
        <ele>1761.1006</ele>
        <time>2023-08-07T16:24:52+02:00</time>
      </trkpt>
      <trkpt lat="44.08522" lon="6.60737">
        <ele>1761</ele>
        <time>2023-08-07T16:24:56+02:00</time>
      </trkpt>
      <trkpt lat="44.08519" lon="6.60735">
        <ele>1761</ele>
        <time>2023-08-07T16:24:57+02:00</time>
      </trkpt>
      <trkpt lat="44.08508" lon="6.60727">
        <ele>1761.9004</ele>
        <time>2023-08-07T16:25:01+02:00</time>
      </trkpt>
      <trkpt lat="44.08506" lon="6.60724">
        <ele>1763.2998</ele>
        <time>2023-08-07T16:25:02+02:00</time>
      </trkpt>
      <trkpt lat="44.08498" lon="6.60711">
        <ele>1763.4004</ele>
        <time>2023-08-07T16:25:06+02:00</time>
      </trkpt>
      <trkpt lat="44.08495" lon="6.60707">
        <ele>1764.5</ele>
        <time>2023-08-07T16:25:07+02:00</time>
      </trkpt>
      <trkpt lat="44.08481" lon="6.60685">
        <ele>1763.4004</ele>
        <time>2023-08-07T16:25:11+02:00</time>
      </trkpt>
      <trkpt lat="44.08477" lon="6.60678">
        <ele>1763.9004</ele>
        <time>2023-08-07T16:25:12+02:00</time>
      </trkpt>
      <trkpt lat="44.08455" lon="6.60657">
        <ele>1759</ele>
        <time>2023-08-07T16:25:16+02:00</time>
      </trkpt>
      <trkpt lat="44.0845" lon="6.60652">
        <ele>1757.4004</ele>
        <time>2023-08-07T16:25:17+02:00</time>
      </trkpt>
      <trkpt lat="44.08441" lon="6.60632">
        <ele>1754.9004</ele>
        <time>2023-08-07T16:25:21+02:00</time>
      </trkpt>
      <trkpt lat="44.08443" lon="6.60627">
        <ele>1754.1006</ele>
        <time>2023-08-07T16:25:22+02:00</time>
      </trkpt>
      <trkpt lat="44.08454" lon="6.60612">
        <ele>1754.5</ele>
        <time>2023-08-07T16:25:26+02:00</time>
      </trkpt>
      <trkpt lat="44.08456" lon="6.60609">
        <ele>1754.5</ele>
        <time>2023-08-07T16:25:27+02:00</time>
      </trkpt>
      <trkpt lat="44.08466" lon="6.60597">
        <ele>1755.9004</ele>
        <time>2023-08-07T16:25:31+02:00</time>
      </trkpt>
      <trkpt lat="44.08469" lon="6.60593">
        <ele>1756</ele>
        <time>2023-08-07T16:25:32+02:00</time>
      </trkpt>
      <trkpt lat="44.08479" lon="6.60574">
        <ele>1754.6006</ele>
        <time>2023-08-07T16:25:36+02:00</time>
      </trkpt>
      <trkpt lat="44.08482" lon="6.60568">
        <ele>1754.5</ele>
        <time>2023-08-07T16:25:37+02:00</time>
      </trkpt>
      <trkpt lat="44.08495" lon="6.60542">
        <ele>1753</ele>
        <time>2023-08-07T16:25:41+02:00</time>
      </trkpt>
      <trkpt lat="44.085" lon="6.60535">
        <ele>1752.7998</ele>
        <time>2023-08-07T16:25:42+02:00</time>
      </trkpt>
      <trkpt lat="44.08517" lon="6.6051">
        <ele>1750.5</ele>
        <time>2023-08-07T16:25:46+02:00</time>
      </trkpt>
      <trkpt lat="44.08521" lon="6.60504">
        <ele>1751.7998</ele>
        <time>2023-08-07T16:25:47+02:00</time>
      </trkpt>
      <trkpt lat="44.08537" lon="6.60483">
        <ele>1750.2002</ele>
        <time>2023-08-07T16:25:51+02:00</time>
      </trkpt>
      <trkpt lat="44.08541" lon="6.60478">
        <ele>1750.2002</ele>
        <time>2023-08-07T16:25:52+02:00</time>
      </trkpt>
      <trkpt lat="44.08558" lon="6.60462">
        <ele>1750.7002</ele>
        <time>2023-08-07T16:25:56+02:00</time>
      </trkpt>
      <trkpt lat="44.08562" lon="6.60458">
        <ele>1750.2998</ele>
        <time>2023-08-07T16:25:57+02:00</time>
      </trkpt>
      <trkpt lat="44.08578" lon="6.60447">
        <ele>1750.9004</ele>
        <time>2023-08-07T16:26:01+02:00</time>
      </trkpt>
      <trkpt lat="44.08582" lon="6.60445">
        <ele>1752</ele>
        <time>2023-08-07T16:26:02+02:00</time>
      </trkpt>
      <trkpt lat="44.08596" lon="6.60438">
        <ele>1752.6006</ele>
        <time>2023-08-07T16:26:06+02:00</time>
      </trkpt>
      <trkpt lat="44.08599" lon="6.60435">
        <ele>1753.7002</ele>
        <time>2023-08-07T16:26:07+02:00</time>
      </trkpt>
      <trkpt lat="44.08613" lon="6.60425">
        <ele>1754.1006</ele>
        <time>2023-08-07T16:26:11+02:00</time>
      </trkpt>
      <trkpt lat="44.08616" lon="6.60422">
        <ele>1752.6006</ele>
        <time>2023-08-07T16:26:12+02:00</time>
      </trkpt>
      <trkpt lat="44.0863" lon="6.60415">
        <ele>1754.2002</ele>
        <time>2023-08-07T16:26:16+02:00</time>
      </trkpt>
      <trkpt lat="44.08633" lon="6.60413">
        <ele>1754.2002</ele>
        <time>2023-08-07T16:26:17+02:00</time>
      </trkpt>
      <trkpt lat="44.08647" lon="6.60405">
        <ele>1755</ele>
        <time>2023-08-07T16:26:21+02:00</time>
      </trkpt>
      <trkpt lat="44.08651" lon="6.60403">
        <ele>1756.2998</ele>
        <time>2023-08-07T16:26:22+02:00</time>
      </trkpt>
      <trkpt lat="44.08666" lon="6.60393">
        <ele>1759.2998</ele>
        <time>2023-08-07T16:26:26+02:00</time>
      </trkpt>
      <trkpt lat="44.0867" lon="6.60391">
        <ele>1759.2998</ele>
        <time>2023-08-07T16:26:27+02:00</time>
      </trkpt>
      <trkpt lat="44.08683" lon="6.60383">
        <ele>1761.2002</ele>
        <time>2023-08-07T16:26:31+02:00</time>
      </trkpt>
      <trkpt lat="44.08686" lon="6.6038">
        <ele>1761.1006</ele>
        <time>2023-08-07T16:26:32+02:00</time>
      </trkpt>
      <trkpt lat="44.08699" lon="6.60369">
        <ele>1762.7998</ele>
        <time>2023-08-07T16:26:36+02:00</time>
      </trkpt>
      <trkpt lat="44.08702" lon="6.60366">
        <ele>1762.7998</ele>
        <time>2023-08-07T16:26:37+02:00</time>
      </trkpt>
      <trkpt lat="44.08713" lon="6.60354">
        <ele>1762.7002</ele>
        <time>2023-08-07T16:26:41+02:00</time>
      </trkpt>
      <trkpt lat="44.08716" lon="6.60351">
        <ele>1764.6006</ele>
        <time>2023-08-07T16:26:42+02:00</time>
      </trkpt>
      <trkpt lat="44.08728" lon="6.60339">
        <ele>1764.7002</ele>
        <time>2023-08-07T16:26:46+02:00</time>
      </trkpt>
      <trkpt lat="44.08731" lon="6.60336">
        <ele>1765</ele>
        <time>2023-08-07T16:26:47+02:00</time>
      </trkpt>
      <trkpt lat="44.08741" lon="6.60322">
        <ele>1767.1006</ele>
        <time>2023-08-07T16:26:51+02:00</time>
      </trkpt>
      <trkpt lat="44.08744" lon="6.60319">
        <ele>1765.5</ele>
        <time>2023-08-07T16:26:52+02:00</time>
      </trkpt>
      <trkpt lat="44.08754" lon="6.60305">
        <ele>1767.7002</ele>
        <time>2023-08-07T16:26:56+02:00</time>
      </trkpt>
      <trkpt lat="44.08757" lon="6.60301">
        <ele>1766.4004</ele>
        <time>2023-08-07T16:26:57+02:00</time>
      </trkpt>
      <trkpt lat="44.08767" lon="6.60287">
        <ele>1768.7002</ele>
        <time>2023-08-07T16:27:01+02:00</time>
      </trkpt>
      <trkpt lat="44.08769" lon="6.60284">
        <ele>1767.7002</ele>
        <time>2023-08-07T16:27:02+02:00</time>
      </trkpt>
      <trkpt lat="44.08779" lon="6.6027">
        <ele>1770</ele>
        <time>2023-08-07T16:27:06+02:00</time>
      </trkpt>
      <trkpt lat="44.08781" lon="6.60267">
        <ele>1769.4004</ele>
        <time>2023-08-07T16:27:07+02:00</time>
      </trkpt>
      <trkpt lat="44.08791" lon="6.60253">
        <ele>1771.2002</ele>
        <time>2023-08-07T16:27:11+02:00</time>
      </trkpt>
      <trkpt lat="44.08793" lon="6.6025">
        <ele>1770</ele>
        <time>2023-08-07T16:27:12+02:00</time>
      </trkpt>
      <trkpt lat="44.08803" lon="6.60237">
        <ele>1770.4004</ele>
        <time>2023-08-07T16:27:16+02:00</time>
      </trkpt>
      <trkpt lat="44.08805" lon="6.60233">
        <ele>1768.7002</ele>
        <time>2023-08-07T16:27:17+02:00</time>
      </trkpt>
      <trkpt lat="44.08813" lon="6.60218">
        <ele>1768.2998</ele>
        <time>2023-08-07T16:27:21+02:00</time>
      </trkpt>
      <trkpt lat="44.08814" lon="6.60214">
        <ele>1768.2002</ele>
        <time>2023-08-07T16:27:22+02:00</time>
      </trkpt>
      <trkpt lat="44.08819" lon="6.60197">
        <ele>1766.2998</ele>
        <time>2023-08-07T16:27:26+02:00</time>
      </trkpt>
      <trkpt lat="44.0882" lon="6.60193">
        <ele>1766.2998</ele>
        <time>2023-08-07T16:27:27+02:00</time>
      </trkpt>
      <trkpt lat="44.08823" lon="6.60177">
        <ele>1765</ele>
        <time>2023-08-07T16:27:31+02:00</time>
      </trkpt>
      <trkpt lat="44.08822" lon="6.60171">
        <ele>1764.2998</ele>
        <time>2023-08-07T16:27:32+02:00</time>
      </trkpt>
      <trkpt lat="44.0882" lon="6.60141">
        <ele>1762.7002</ele>
        <time>2023-08-07T16:27:36+02:00</time>
      </trkpt>
      <trkpt lat="44.08821" lon="6.60132">
        <ele>1762</ele>
        <time>2023-08-07T16:27:37+02:00</time>
      </trkpt>
      <trkpt lat="44.08826" lon="6.60102">
        <ele>1760.6006</ele>
        <time>2023-08-07T16:27:41+02:00</time>
      </trkpt>
      <trkpt lat="44.08828" lon="6.60099">
        <ele>1759.2998</ele>
        <time>2023-08-07T16:27:42+02:00</time>
      </trkpt>
      <trkpt lat="44.08836" lon="6.60114">
        <ele>1758.4004</ele>
        <time>2023-08-07T16:27:46+02:00</time>
      </trkpt>
      <trkpt lat="44.08836" lon="6.60122">
        <ele>1759</ele>
        <time>2023-08-07T16:27:47+02:00</time>
      </trkpt>
      <trkpt lat="44.08843" lon="6.60157">
        <ele>1761</ele>
        <time>2023-08-07T16:27:51+02:00</time>
      </trkpt>
      <trkpt lat="44.08847" lon="6.60167">
        <ele>1760.6006</ele>
        <time>2023-08-07T16:27:52+02:00</time>
      </trkpt>
      <trkpt lat="44.08868" lon="6.60202">
        <ele>1763.4004</ele>
        <time>2023-08-07T16:27:56+02:00</time>
      </trkpt>
      <trkpt lat="44.08875" lon="6.6021">
        <ele>1763.9004</ele>
        <time>2023-08-07T16:27:57+02:00</time>
      </trkpt>
      <trkpt lat="44.08906" lon="6.60237">
        <ele>1762.7998</ele>
        <time>2023-08-07T16:28:01+02:00</time>
      </trkpt>
      <trkpt lat="44.08914" lon="6.60244">
        <ele>1759.2002</ele>
        <time>2023-08-07T16:28:02+02:00</time>
      </trkpt>
      <trkpt lat="44.08943" lon="6.60264">
        <ele>1757.2002</ele>
        <time>2023-08-07T16:28:06+02:00</time>
      </trkpt>
      <trkpt lat="44.08951" lon="6.60267">
        <ele>1755.2002</ele>
        <time>2023-08-07T16:28:07+02:00</time>
      </trkpt>
      <trkpt lat="44.08985" lon="6.60272">
        <ele>1748.6006</ele>
        <time>2023-08-07T16:28:11+02:00</time>
      </trkpt>
      <trkpt lat="44.08994" lon="6.60273">
        <ele>1745.2002</ele>
        <time>2023-08-07T16:28:12+02:00</time>
      </trkpt>
      <trkpt lat="44.09024" lon="6.60273">
        <ele>1737.9004</ele>
        <time>2023-08-07T16:28:16+02:00</time>
      </trkpt>
      <trkpt lat="44.09032" lon="6.60274">
        <ele>1736.4004</ele>
        <time>2023-08-07T16:28:17+02:00</time>
      </trkpt>
      <trkpt lat="44.09057" lon="6.60288">
        <ele>1739.5</ele>
        <time>2023-08-07T16:28:21+02:00</time>
      </trkpt>
      <trkpt lat="44.09062" lon="6.60294">
        <ele>1739.2002</ele>
        <time>2023-08-07T16:28:22+02:00</time>
      </trkpt>
      <trkpt lat="44.09075" lon="6.603">
        <ele>1742</ele>
        <time>2023-08-07T16:28:26+02:00</time>
      </trkpt>
      <trkpt lat="44.09077" lon="6.60294">
        <ele>1739</ele>
        <time>2023-08-07T16:28:27+02:00</time>
      </trkpt>
      <trkpt lat="44.09069" lon="6.60276">
        <ele>1733.6006</ele>
        <time>2023-08-07T16:28:31+02:00</time>
      </trkpt>
      <trkpt lat="44.09065" lon="6.60271">
        <ele>1732.4004</ele>
        <time>2023-08-07T16:28:32+02:00</time>
      </trkpt>
      <trkpt lat="44.0905" lon="6.60249">
        <ele>1719.7998</ele>
        <time>2023-08-07T16:28:36+02:00</time>
      </trkpt>
      <trkpt lat="44.09047" lon="6.60242">
        <ele>1718.9004</ele>
        <time>2023-08-07T16:28:37+02:00</time>
      </trkpt>
      <trkpt lat="44.09028" lon="6.60221">
        <ele>1719.2998</ele>
        <time>2023-08-07T16:28:41+02:00</time>
      </trkpt>
      <trkpt lat="44.09022" lon="6.60217">
        <ele>1717.9004</ele>
        <time>2023-08-07T16:28:42+02:00</time>
      </trkpt>
      <trkpt lat="44.08995" lon="6.602">
        <ele>1718</ele>
        <time>2023-08-07T16:28:46+02:00</time>
      </trkpt>
      <trkpt lat="44.08989" lon="6.60195">
        <ele>1719.9004</ele>
        <time>2023-08-07T16:28:47+02:00</time>
      </trkpt>
      <trkpt lat="44.08974" lon="6.60163">
        <ele>1716.2002</ele>
        <time>2023-08-07T16:28:51+02:00</time>
      </trkpt>
      <trkpt lat="44.08971" lon="6.60154">
        <ele>1714</ele>
        <time>2023-08-07T16:28:52+02:00</time>
      </trkpt>
      <trkpt lat="44.08962" lon="6.60115">
        <ele>1712</ele>
        <time>2023-08-07T16:28:56+02:00</time>
      </trkpt>
      <trkpt lat="44.08961" lon="6.60106">
        <ele>1709.5</ele>
        <time>2023-08-07T16:28:57+02:00</time>
      </trkpt>
      <trkpt lat="44.08962" lon="6.60069">
        <ele>1703</ele>
        <time>2023-08-07T16:29:01+02:00</time>
      </trkpt>
      <trkpt lat="44.08963" lon="6.60059">
        <ele>1702.2998</ele>
        <time>2023-08-07T16:29:02+02:00</time>
      </trkpt>
      <trkpt lat="44.08968" lon="6.60024">
        <ele>1701.4004</ele>
        <time>2023-08-07T16:29:06+02:00</time>
      </trkpt>
      <trkpt lat="44.08969" lon="6.60015">
        <ele>1698.5</ele>
        <time>2023-08-07T16:29:07+02:00</time>
      </trkpt>
      <trkpt lat="44.08972" lon="6.59977">
        <ele>1698.7002</ele>
        <time>2023-08-07T16:29:11+02:00</time>
      </trkpt>
      <trkpt lat="44.08973" lon="6.59967">
        <ele>1698.7002</ele>
        <time>2023-08-07T16:29:12+02:00</time>
      </trkpt>
      <trkpt lat="44.08975" lon="6.59927">
        <ele>1695.7002</ele>
        <time>2023-08-07T16:29:16+02:00</time>
      </trkpt>
      <trkpt lat="44.08975" lon="6.59916">
        <ele>1695.1006</ele>
        <time>2023-08-07T16:29:17+02:00</time>
      </trkpt>
      <trkpt lat="44.08975" lon="6.59879">
        <ele>1692.6006</ele>
        <time>2023-08-07T16:29:21+02:00</time>
      </trkpt>
      <trkpt lat="44.08975" lon="6.59871">
        <ele>1691.7998</ele>
        <time>2023-08-07T16:29:22+02:00</time>
      </trkpt>
      <trkpt lat="44.08976" lon="6.59841">
        <ele>1688.6006</ele>
        <time>2023-08-07T16:29:26+02:00</time>
      </trkpt>
      <trkpt lat="44.08978" lon="6.59835">
        <ele>1687.4004</ele>
        <time>2023-08-07T16:29:27+02:00</time>
      </trkpt>
      <trkpt lat="44.08988" lon="6.59809">
        <ele>1681.7002</ele>
        <time>2023-08-07T16:29:31+02:00</time>
      </trkpt>
      <trkpt lat="44.08991" lon="6.59802">
        <ele>1680.7998</ele>
        <time>2023-08-07T16:29:32+02:00</time>
      </trkpt>
      <trkpt lat="44.09007" lon="6.59771">
        <ele>1676.7998</ele>
        <time>2023-08-07T16:29:36+02:00</time>
      </trkpt>
      <trkpt lat="44.0901" lon="6.59762">
        <ele>1676.2998</ele>
        <time>2023-08-07T16:29:37+02:00</time>
      </trkpt>
      <trkpt lat="44.09013" lon="6.5973">
        <ele>1674.1006</ele>
        <time>2023-08-07T16:29:41+02:00</time>
      </trkpt>
      <trkpt lat="44.09012" lon="6.59724">
        <ele>1673.2998</ele>
        <time>2023-08-07T16:29:42+02:00</time>
      </trkpt>
      <trkpt lat="44.09018" lon="6.59718">
        <ele>1672.4004</ele>
        <time>2023-08-07T16:29:46+02:00</time>
      </trkpt>
      <trkpt lat="44.09021" lon="6.59721">
        <ele>1673.2002</ele>
        <time>2023-08-07T16:29:47+02:00</time>
      </trkpt>
      <trkpt lat="44.09023" lon="6.59742">
        <ele>1674.4004</ele>
        <time>2023-08-07T16:29:51+02:00</time>
      </trkpt>
      <trkpt lat="44.09022" lon="6.59748">
        <ele>1674.9004</ele>
        <time>2023-08-07T16:29:52+02:00</time>
      </trkpt>
      <trkpt lat="44.09021" lon="6.5977">
        <ele>1675.6006</ele>
        <time>2023-08-07T16:29:56+02:00</time>
      </trkpt>
      <trkpt lat="44.09021" lon="6.59775">
        <ele>1675.7998</ele>
        <time>2023-08-07T16:29:57+02:00</time>
      </trkpt>
      <trkpt lat="44.09018" lon="6.59798">
        <ele>1676.2998</ele>
        <time>2023-08-07T16:30:01+02:00</time>
      </trkpt>
      <trkpt lat="44.09017" lon="6.59805">
        <ele>1677.4004</ele>
        <time>2023-08-07T16:30:02+02:00</time>
      </trkpt>
      <trkpt lat="44.09013" lon="6.59832">
        <ele>1678.6006</ele>
        <time>2023-08-07T16:30:06+02:00</time>
      </trkpt>
      <trkpt lat="44.09011" lon="6.5984">
        <ele>1680.1006</ele>
        <time>2023-08-07T16:30:07+02:00</time>
      </trkpt>
      <trkpt lat="44.09007" lon="6.59872">
        <ele>1681.4004</ele>
        <time>2023-08-07T16:30:11+02:00</time>
      </trkpt>
      <trkpt lat="44.09007" lon="6.59881">
        <ele>1681.6006</ele>
        <time>2023-08-07T16:30:12+02:00</time>
      </trkpt>
      <trkpt lat="44.09016" lon="6.59918">
        <ele>1679.7998</ele>
        <time>2023-08-07T16:30:16+02:00</time>
      </trkpt>
      <trkpt lat="44.09018" lon="6.59929">
        <ele>1677</ele>
        <time>2023-08-07T16:30:17+02:00</time>
      </trkpt>
      <trkpt lat="44.09023" lon="6.59973">
        <ele>1675.7002</ele>
        <time>2023-08-07T16:30:21+02:00</time>
      </trkpt>
      <trkpt lat="44.09023" lon="6.59985">
        <ele>1675.6006</ele>
        <time>2023-08-07T16:30:22+02:00</time>
      </trkpt>
      <trkpt lat="44.09024" lon="6.60031">
        <ele>1674.9004</ele>
        <time>2023-08-07T16:30:26+02:00</time>
      </trkpt>
      <trkpt lat="44.09025" lon="6.60042">
        <ele>1675.4004</ele>
        <time>2023-08-07T16:30:27+02:00</time>
      </trkpt>
      <trkpt lat="44.09035" lon="6.60082">
        <ele>1678.6006</ele>
        <time>2023-08-07T16:30:31+02:00</time>
      </trkpt>
      <trkpt lat="44.09038" lon="6.6009">
        <ele>1679</ele>
        <time>2023-08-07T16:30:32+02:00</time>
      </trkpt>
      <trkpt lat="44.09055" lon="6.60106">
        <ele>1677.5</ele>
        <time>2023-08-07T16:30:36+02:00</time>
      </trkpt>
      <trkpt lat="44.0906" lon="6.60104">
        <ele>1677.5</ele>
        <time>2023-08-07T16:30:37+02:00</time>
      </trkpt>
      <trkpt lat="44.09078" lon="6.60082">
        <ele>1672.2002</ele>
        <time>2023-08-07T16:30:41+02:00</time>
      </trkpt>
      <trkpt lat="44.09084" lon="6.60076">
        <ele>1670.6006</ele>
        <time>2023-08-07T16:30:42+02:00</time>
      </trkpt>
      <trkpt lat="44.09108" lon="6.60058">
        <ele>1666.7998</ele>
        <time>2023-08-07T16:30:46+02:00</time>
      </trkpt>
      <trkpt lat="44.09115" lon="6.60055">
        <ele>1665.1006</ele>
        <time>2023-08-07T16:30:47+02:00</time>
      </trkpt>
      <trkpt lat="44.09141" lon="6.60049">
        <ele>1666.5</ele>
        <time>2023-08-07T16:30:51+02:00</time>
      </trkpt>
      <trkpt lat="44.09147" lon="6.60049">
        <ele>1667</ele>
        <time>2023-08-07T16:30:52+02:00</time>
      </trkpt>
      <trkpt lat="44.09165" lon="6.60041">
        <ele>1666.4004</ele>
        <time>2023-08-07T16:30:56+02:00</time>
      </trkpt>
      <trkpt lat="44.09166" lon="6.60034">
        <ele>1664.7998</ele>
        <time>2023-08-07T16:30:57+02:00</time>
      </trkpt>
      <trkpt lat="44.09174" lon="6.60005">
        <ele>1658.9004</ele>
        <time>2023-08-07T16:31:01+02:00</time>
      </trkpt>
      <trkpt lat="44.09178" lon="6.59999">
        <ele>1656.7998</ele>
        <time>2023-08-07T16:31:02+02:00</time>
      </trkpt>
      <trkpt lat="44.092" lon="6.59981">
        <ele>1651.7998</ele>
        <time>2023-08-07T16:31:06+02:00</time>
      </trkpt>
      <trkpt lat="44.09207" lon="6.59978">
        <ele>1651.5</ele>
        <time>2023-08-07T16:31:07+02:00</time>
      </trkpt>
      <trkpt lat="44.0923" lon="6.59984">
        <ele>1650.6006</ele>
        <time>2023-08-07T16:31:11+02:00</time>
      </trkpt>
      <trkpt lat="44.09235" lon="6.59988">
        <ele>1652.7998</ele>
        <time>2023-08-07T16:31:12+02:00</time>
      </trkpt>
      <trkpt lat="44.09256" lon="6.6001">
        <ele>1656.2998</ele>
        <time>2023-08-07T16:31:16+02:00</time>
      </trkpt>
      <trkpt lat="44.09262" lon="6.60017">
        <ele>1657.7998</ele>
        <time>2023-08-07T16:31:17+02:00</time>
      </trkpt>
      <trkpt lat="44.09287" lon="6.60039">
        <ele>1662.9004</ele>
        <time>2023-08-07T16:31:21+02:00</time>
      </trkpt>
      <trkpt lat="44.09294" lon="6.60045">
        <ele>1663</ele>
        <time>2023-08-07T16:31:22+02:00</time>
      </trkpt>
      <trkpt lat="44.09317" lon="6.60057">
        <ele>1667.9004</ele>
        <time>2023-08-07T16:31:26+02:00</time>
      </trkpt>
      <trkpt lat="44.09321" lon="6.60055">
        <ele>1668.5</ele>
        <time>2023-08-07T16:31:27+02:00</time>
      </trkpt>
      <trkpt lat="44.09326" lon="6.6003">
        <ele>1663.5</ele>
        <time>2023-08-07T16:31:31+02:00</time>
      </trkpt>
      <trkpt lat="44.09325" lon="6.60021">
        <ele>1660.7998</ele>
        <time>2023-08-07T16:31:32+02:00</time>
      </trkpt>
      <trkpt lat="44.09323" lon="6.59989">
        <ele>1655.2998</ele>
        <time>2023-08-07T16:31:36+02:00</time>
      </trkpt>
      <trkpt lat="44.09324" lon="6.59981">
        <ele>1654</ele>
        <time>2023-08-07T16:31:37+02:00</time>
      </trkpt>
      <trkpt lat="44.09338" lon="6.59955">
        <ele>1652.4004</ele>
        <time>2023-08-07T16:31:41+02:00</time>
      </trkpt>
      <trkpt lat="44.09344" lon="6.5995">
        <ele>1653.5</ele>
        <time>2023-08-07T16:31:42+02:00</time>
      </trkpt>
      <trkpt lat="44.09371" lon="6.59943">
        <ele>1657.6006</ele>
        <time>2023-08-07T16:31:46+02:00</time>
      </trkpt>
      <trkpt lat="44.09376" lon="6.5994">
        <ele>1659.2002</ele>
        <time>2023-08-07T16:31:47+02:00</time>
      </trkpt>
      <trkpt lat="44.09385" lon="6.59914">
        <ele>1657.2998</ele>
        <time>2023-08-07T16:31:51+02:00</time>
      </trkpt>
      <trkpt lat="44.09385" lon="6.59907">
        <ele>1656.4004</ele>
        <time>2023-08-07T16:31:52+02:00</time>
      </trkpt>
      <trkpt lat="44.09372" lon="6.5988">
        <ele>1650.7998</ele>
        <time>2023-08-07T16:31:56+02:00</time>
      </trkpt>
      <trkpt lat="44.09368" lon="6.59875">
        <ele>1648.2002</ele>
        <time>2023-08-07T16:31:57+02:00</time>
      </trkpt>
      <trkpt lat="44.09349" lon="6.59856">
        <ele>1641.2002</ele>
        <time>2023-08-07T16:32:01+02:00</time>
      </trkpt>
      <trkpt lat="44.09344" lon="6.59851">
        <ele>1641.2002</ele>
        <time>2023-08-07T16:32:02+02:00</time>
      </trkpt>
      <trkpt lat="44.09329" lon="6.59822">
        <ele>1631</ele>
        <time>2023-08-07T16:32:06+02:00</time>
      </trkpt>
      <trkpt lat="44.09328" lon="6.59813">
        <ele>1630</ele>
        <time>2023-08-07T16:32:07+02:00</time>
      </trkpt>
      <trkpt lat="44.09334" lon="6.59776">
        <ele>1628.5</ele>
        <time>2023-08-07T16:32:11+02:00</time>
      </trkpt>
      <trkpt lat="44.09337" lon="6.59767">
        <ele>1627.7002</ele>
        <time>2023-08-07T16:32:12+02:00</time>
      </trkpt>
      <trkpt lat="44.09343" lon="6.59728">
        <ele>1627.5</ele>
        <time>2023-08-07T16:32:16+02:00</time>
      </trkpt>
      <trkpt lat="44.09342" lon="6.59717">
        <ele>1627.1006</ele>
        <time>2023-08-07T16:32:17+02:00</time>
      </trkpt>
      <trkpt lat="44.09337" lon="6.59676">
        <ele>1622.1006</ele>
        <time>2023-08-07T16:32:21+02:00</time>
      </trkpt>
      <trkpt lat="44.09336" lon="6.59666">
        <ele>1621.7998</ele>
        <time>2023-08-07T16:32:22+02:00</time>
      </trkpt>
      <trkpt lat="44.09337" lon="6.59624">
        <ele>1620.2002</ele>
        <time>2023-08-07T16:32:26+02:00</time>
      </trkpt>
      <trkpt lat="44.09338" lon="6.59615">
        <ele>1623.2998</ele>
        <time>2023-08-07T16:32:27+02:00</time>
      </trkpt>
      <trkpt lat="44.09348" lon="6.59576">
        <ele>1625.4004</ele>
        <time>2023-08-07T16:32:31+02:00</time>
      </trkpt>
      <trkpt lat="44.09351" lon="6.59566">
        <ele>1627.7998</ele>
        <time>2023-08-07T16:32:32+02:00</time>
      </trkpt>
      <trkpt lat="44.0936" lon="6.59526">
        <ele>1625.6006</ele>
        <time>2023-08-07T16:32:36+02:00</time>
      </trkpt>
      <trkpt lat="44.09361" lon="6.59516">
        <ele>1624.6006</ele>
        <time>2023-08-07T16:32:37+02:00</time>
      </trkpt>
      <trkpt lat="44.09364" lon="6.59475">
        <ele>1620.9004</ele>
        <time>2023-08-07T16:32:41+02:00</time>
      </trkpt>
      <trkpt lat="44.09365" lon="6.59465">
        <ele>1619.7002</ele>
        <time>2023-08-07T16:32:42+02:00</time>
      </trkpt>
      <trkpt lat="44.0937" lon="6.59435">
        <ele>1615.4004</ele>
        <time>2023-08-07T16:32:46+02:00</time>
      </trkpt>
      <trkpt lat="44.09374" lon="6.5943">
        <ele>1615.4004</ele>
        <time>2023-08-07T16:32:47+02:00</time>
      </trkpt>
      <trkpt lat="44.09396" lon="6.59419">
        <ele>1613.6006</ele>
        <time>2023-08-07T16:32:51+02:00</time>
      </trkpt>
      <trkpt lat="44.09402" lon="6.59417">
        <ele>1613.5</ele>
        <time>2023-08-07T16:32:52+02:00</time>
      </trkpt>
      <trkpt lat="44.09426" lon="6.59416">
        <ele>1614.7002</ele>
        <time>2023-08-07T16:32:56+02:00</time>
      </trkpt>
      <trkpt lat="44.09432" lon="6.59417">
        <ele>1615</ele>
        <time>2023-08-07T16:32:57+02:00</time>
      </trkpt>
      <trkpt lat="44.09456" lon="6.59417">
        <ele>1616.2998</ele>
        <time>2023-08-07T16:33:01+02:00</time>
      </trkpt>
      <trkpt lat="44.09462" lon="6.59418">
        <ele>1616.6006</ele>
        <time>2023-08-07T16:33:02+02:00</time>
      </trkpt>
      <trkpt lat="44.09488" lon="6.59429">
        <ele>1619.6006</ele>
        <time>2023-08-07T16:33:06+02:00</time>
      </trkpt>
      <trkpt lat="44.09495" lon="6.59433">
        <ele>1621.7002</ele>
        <time>2023-08-07T16:33:07+02:00</time>
      </trkpt>
      <trkpt lat="44.09524" lon="6.59448">
        <ele>1626.1006</ele>
        <time>2023-08-07T16:33:11+02:00</time>
      </trkpt>
      <trkpt lat="44.09532" lon="6.59452">
        <ele>1626</ele>
        <time>2023-08-07T16:33:12+02:00</time>
      </trkpt>
      <trkpt lat="44.09562" lon="6.59464">
        <ele>1630.5</ele>
        <time>2023-08-07T16:33:16+02:00</time>
      </trkpt>
      <trkpt lat="44.09569" lon="6.59465">
        <ele>1630.9004</ele>
        <time>2023-08-07T16:33:17+02:00</time>
      </trkpt>
      <trkpt lat="44.09588" lon="6.59455">
        <ele>1631.1006</ele>
        <time>2023-08-07T16:33:21+02:00</time>
      </trkpt>
      <trkpt lat="44.09591" lon="6.59448">
        <ele>1630.4004</ele>
        <time>2023-08-07T16:33:22+02:00</time>
      </trkpt>
      <trkpt lat="44.09586" lon="6.59419">
        <ele>1624</ele>
        <time>2023-08-07T16:33:26+02:00</time>
      </trkpt>
      <trkpt lat="44.09582" lon="6.59414">
        <ele>1623.2002</ele>
        <time>2023-08-07T16:33:27+02:00</time>
      </trkpt>
      <trkpt lat="44.09569" lon="6.59391">
        <ele>1618.7998</ele>
        <time>2023-08-07T16:33:31+02:00</time>
      </trkpt>
      <trkpt lat="44.09566" lon="6.59384">
        <ele>1617.2998</ele>
        <time>2023-08-07T16:33:32+02:00</time>
      </trkpt>
      <trkpt lat="44.09557" lon="6.59351">
        <ele>1613.1006</ele>
        <time>2023-08-07T16:33:36+02:00</time>
      </trkpt>
      <trkpt lat="44.09555" lon="6.59342">
        <ele>1612.2002</ele>
        <time>2023-08-07T16:33:37+02:00</time>
      </trkpt>
      <trkpt lat="44.09551" lon="6.59304">
        <ele>1607.9004</ele>
        <time>2023-08-07T16:33:41+02:00</time>
      </trkpt>
      <trkpt lat="44.09549" lon="6.59294">
        <ele>1606.9004</ele>
        <time>2023-08-07T16:33:42+02:00</time>
      </trkpt>
      <trkpt lat="44.09543" lon="6.59258">
        <ele>1601.4004</ele>
        <time>2023-08-07T16:33:46+02:00</time>
      </trkpt>
      <trkpt lat="44.09543" lon="6.59249">
        <ele>1600.1006</ele>
        <time>2023-08-07T16:33:47+02:00</time>
      </trkpt>
      <trkpt lat="44.09551" lon="6.59218">
        <ele>1596.5</ele>
        <time>2023-08-07T16:33:51+02:00</time>
      </trkpt>
      <trkpt lat="44.09554" lon="6.59211">
        <ele>1596.6006</ele>
        <time>2023-08-07T16:33:52+02:00</time>
      </trkpt>
      <trkpt lat="44.09569" lon="6.59181">
        <ele>1595.2998</ele>
        <time>2023-08-07T16:33:56+02:00</time>
      </trkpt>
      <trkpt lat="44.09573" lon="6.59175">
        <ele>1595.2002</ele>
        <time>2023-08-07T16:33:57+02:00</time>
      </trkpt>
      <trkpt lat="44.09592" lon="6.59148">
        <ele>1595.7002</ele>
        <time>2023-08-07T16:34:01+02:00</time>
      </trkpt>
      <trkpt lat="44.09597" lon="6.59141">
        <ele>1594.2002</ele>
        <time>2023-08-07T16:34:02+02:00</time>
      </trkpt>
      <trkpt lat="44.09615" lon="6.59112">
        <ele>1594.5</ele>
        <time>2023-08-07T16:34:06+02:00</time>
      </trkpt>
      <trkpt lat="44.0962" lon="6.59105">
        <ele>1594.2002</ele>
        <time>2023-08-07T16:34:07+02:00</time>
      </trkpt>
      <trkpt lat="44.09639" lon="6.59079">
        <ele>1592</ele>
        <time>2023-08-07T16:34:11+02:00</time>
      </trkpt>
      <trkpt lat="44.09644" lon="6.59073">
        <ele>1590.9004</ele>
        <time>2023-08-07T16:34:12+02:00</time>
      </trkpt>
      <trkpt lat="44.09669" lon="6.59049">
        <ele>1587.7002</ele>
        <time>2023-08-07T16:34:16+02:00</time>
      </trkpt>
      <trkpt lat="44.09675" lon="6.59043">
        <ele>1588.4004</ele>
        <time>2023-08-07T16:34:17+02:00</time>
      </trkpt>
      <trkpt lat="44.09699" lon="6.59022">
        <ele>1584.7998</ele>
        <time>2023-08-07T16:34:21+02:00</time>
      </trkpt>
      <trkpt lat="44.09705" lon="6.59017">
        <ele>1585.7998</ele>
        <time>2023-08-07T16:34:22+02:00</time>
      </trkpt>
      <trkpt lat="44.09731" lon="6.59003">
        <ele>1585.5</ele>
        <time>2023-08-07T16:34:26+02:00</time>
      </trkpt>
      <trkpt lat="44.09737" lon="6.59">
        <ele>1586.7002</ele>
        <time>2023-08-07T16:34:27+02:00</time>
      </trkpt>
      <trkpt lat="44.09756" lon="6.58983">
        <ele>1586.1006</ele>
        <time>2023-08-07T16:34:31+02:00</time>
      </trkpt>
      <trkpt lat="44.09761" lon="6.58979">
        <ele>1585.4004</ele>
        <time>2023-08-07T16:34:32+02:00</time>
      </trkpt>
      <trkpt lat="44.09778" lon="6.58966">
        <ele>1588.2002</ele>
        <time>2023-08-07T16:34:36+02:00</time>
      </trkpt>
      <trkpt lat="44.09782" lon="6.58964">
        <ele>1586.2002</ele>
        <time>2023-08-07T16:34:37+02:00</time>
      </trkpt>
      <trkpt lat="44.09793" lon="6.58956">
        <ele>1587.4004</ele>
        <time>2023-08-07T16:34:41+02:00</time>
      </trkpt>
      <trkpt lat="44.09796" lon="6.58953">
        <ele>1589</ele>
        <time>2023-08-07T16:34:42+02:00</time>
      </trkpt>
      <trkpt lat="44.09807" lon="6.58941">
        <ele>1590.5</ele>
        <time>2023-08-07T16:34:46+02:00</time>
      </trkpt>
      <trkpt lat="44.0981" lon="6.58938">
        <ele>1588.6006</ele>
        <time>2023-08-07T16:34:47+02:00</time>
      </trkpt>
      <trkpt lat="44.09821" lon="6.58926">
        <ele>1590.4004</ele>
        <time>2023-08-07T16:34:51+02:00</time>
      </trkpt>
      <trkpt lat="44.09824" lon="6.58924">
        <ele>1590.4004</ele>
        <time>2023-08-07T16:34:52+02:00</time>
      </trkpt>
      <trkpt lat="44.09833" lon="6.58913">
        <ele>1590.6006</ele>
        <time>2023-08-07T16:34:56+02:00</time>
      </trkpt>
      <trkpt lat="44.09835" lon="6.58911">
        <ele>1590.6006</ele>
        <time>2023-08-07T16:34:57+02:00</time>
      </trkpt>
      <trkpt lat="44.09843" lon="6.58898">
        <ele>1591</ele>
        <time>2023-08-07T16:35:01+02:00</time>
      </trkpt>
      <trkpt lat="44.09845" lon="6.58895">
        <ele>1591.6006</ele>
        <time>2023-08-07T16:35:02+02:00</time>
      </trkpt>
      <trkpt lat="44.09853" lon="6.58883">
        <ele>1592.1006</ele>
        <time>2023-08-07T16:35:06+02:00</time>
      </trkpt>
      <trkpt lat="44.09855" lon="6.58879">
        <ele>1592.1006</ele>
        <time>2023-08-07T16:35:07+02:00</time>
      </trkpt>
      <trkpt lat="44.09863" lon="6.58866">
        <ele>1592.7998</ele>
        <time>2023-08-07T16:35:11+02:00</time>
      </trkpt>
      <trkpt lat="44.09864" lon="6.58863">
        <ele>1592.7998</ele>
        <time>2023-08-07T16:35:12+02:00</time>
      </trkpt>
      <trkpt lat="44.09871" lon="6.58851">
        <ele>1591.2998</ele>
        <time>2023-08-07T16:35:16+02:00</time>
      </trkpt>
      <trkpt lat="44.09873" lon="6.58847">
        <ele>1591.2998</ele>
        <time>2023-08-07T16:35:17+02:00</time>
      </trkpt>
      <trkpt lat="44.0988" lon="6.58835">
        <ele>1590</ele>
        <time>2023-08-07T16:35:21+02:00</time>
      </trkpt>
      <trkpt lat="44.09882" lon="6.58833">
        <ele>1591.9004</ele>
        <time>2023-08-07T16:35:22+02:00</time>
      </trkpt>
      <trkpt lat="44.0989" lon="6.58821">
        <ele>1592.5</ele>
        <time>2023-08-07T16:35:26+02:00</time>
      </trkpt>
      <trkpt lat="44.09892" lon="6.58818">
        <ele>1591.1006</ele>
        <time>2023-08-07T16:35:27+02:00</time>
      </trkpt>
      <trkpt lat="44.099" lon="6.58808">
        <ele>1593.9004</ele>
        <time>2023-08-07T16:35:31+02:00</time>
      </trkpt>
      <trkpt lat="44.09903" lon="6.58806">
        <ele>1593.9004</ele>
        <time>2023-08-07T16:35:32+02:00</time>
      </trkpt>
      <trkpt lat="44.09911" lon="6.58798">
        <ele>1594.7002</ele>
        <time>2023-08-07T16:35:36+02:00</time>
      </trkpt>
      <trkpt lat="44.09914" lon="6.58797">
        <ele>1596.7002</ele>
        <time>2023-08-07T16:35:37+02:00</time>
      </trkpt>
      <trkpt lat="44.09923" lon="6.58791">
        <ele>1597.6006</ele>
        <time>2023-08-07T16:35:41+02:00</time>
      </trkpt>
      <trkpt lat="44.09925" lon="6.58789">
        <ele>1599.6006</ele>
        <time>2023-08-07T16:35:42+02:00</time>
      </trkpt>
      <trkpt lat="44.09934" lon="6.58782">
        <ele>1600.4004</ele>
        <time>2023-08-07T16:35:46+02:00</time>
      </trkpt>
      <trkpt lat="44.09936" lon="6.58779">
        <ele>1602.2998</ele>
        <time>2023-08-07T16:35:47+02:00</time>
      </trkpt>
      <trkpt lat="44.09946" lon="6.58768">
        <ele>1603</ele>
        <time>2023-08-07T16:35:51+02:00</time>
      </trkpt>
      <trkpt lat="44.09948" lon="6.58765">
        <ele>1603.6006</ele>
        <time>2023-08-07T16:35:52+02:00</time>
      </trkpt>
      <trkpt lat="44.09957" lon="6.58752">
        <ele>1604.2002</ele>
        <time>2023-08-07T16:35:56+02:00</time>
      </trkpt>
      <trkpt lat="44.09959" lon="6.58749">
        <ele>1603</ele>
        <time>2023-08-07T16:35:57+02:00</time>
      </trkpt>
      <trkpt lat="44.09968" lon="6.58737">
        <ele>1605.2002</ele>
        <time>2023-08-07T16:36:01+02:00</time>
      </trkpt>
      <trkpt lat="44.09971" lon="6.58734">
        <ele>1605.2002</ele>
        <time>2023-08-07T16:36:02+02:00</time>
      </trkpt>
      <trkpt lat="44.0998" lon="6.58723">
        <ele>1605.9004</ele>
        <time>2023-08-07T16:36:06+02:00</time>
      </trkpt>
      <trkpt lat="44.09981" lon="6.5872">
        <ele>1605.9004</ele>
        <time>2023-08-07T16:36:07+02:00</time>
      </trkpt>
      <trkpt lat="44.09985" lon="6.58704">
        <ele>1604.5</ele>
        <time>2023-08-07T16:36:11+02:00</time>
      </trkpt>
      <trkpt lat="44.09986" lon="6.587">
        <ele>1604.5</ele>
        <time>2023-08-07T16:36:12+02:00</time>
      </trkpt>
      <trkpt lat="44.0999" lon="6.58686">
        <ele>1601.2998</ele>
        <time>2023-08-07T16:36:16+02:00</time>
      </trkpt>
      <trkpt lat="44.09991" lon="6.58684">
        <ele>1601.2998</ele>
        <time>2023-08-07T16:36:17+02:00</time>
      </trkpt>
      <trkpt lat="44.10001" lon="6.58679">
        <ele>1601.2998</ele>
        <time>2023-08-07T16:36:21+02:00</time>
      </trkpt>
      <trkpt lat="44.10004" lon="6.58679">
        <ele>1602.2002</ele>
        <time>2023-08-07T16:36:22+02:00</time>
      </trkpt>
      <trkpt lat="44.10016" lon="6.5868">
        <ele>1603</ele>
        <time>2023-08-07T16:36:26+02:00</time>
      </trkpt>
      <trkpt lat="44.10018" lon="6.58681">
        <ele>1603.7998</ele>
        <time>2023-08-07T16:36:27+02:00</time>
      </trkpt>
      <trkpt lat="44.10029" lon="6.58681">
        <ele>1605.4004</ele>
        <time>2023-08-07T16:36:31+02:00</time>
      </trkpt>
      <trkpt lat="44.10032" lon="6.58681">
        <ele>1605.4004</ele>
        <time>2023-08-07T16:36:32+02:00</time>
      </trkpt>
      <trkpt lat="44.10042" lon="6.5868">
        <ele>1606.7998</ele>
        <time>2023-08-07T16:36:36+02:00</time>
      </trkpt>
      <trkpt lat="44.10044" lon="6.5868">
        <ele>1606.7998</ele>
        <time>2023-08-07T16:36:37+02:00</time>
      </trkpt>
      <trkpt lat="44.10054" lon="6.58678">
        <ele>1608.1006</ele>
        <time>2023-08-07T16:36:41+02:00</time>
      </trkpt>
      <trkpt lat="44.10057" lon="6.58678">
        <ele>1608.1006</ele>
        <time>2023-08-07T16:36:42+02:00</time>
      </trkpt>
      <trkpt lat="44.10067" lon="6.58676">
        <ele>1609.2002</ele>
        <time>2023-08-07T16:36:46+02:00</time>
      </trkpt>
      <trkpt lat="44.1007" lon="6.58675">
        <ele>1609.2002</ele>
        <time>2023-08-07T16:36:47+02:00</time>
      </trkpt>
      <trkpt lat="44.10081" lon="6.58672">
        <ele>1607.2002</ele>
        <time>2023-08-07T16:36:51+02:00</time>
      </trkpt>
      <trkpt lat="44.10084" lon="6.58671">
        <ele>1607.5</ele>
        <time>2023-08-07T16:36:52+02:00</time>
      </trkpt>
      <trkpt lat="44.10094" lon="6.58667">
        <ele>1607.7998</ele>
        <time>2023-08-07T16:36:56+02:00</time>
      </trkpt>
      <trkpt lat="44.10096" lon="6.58666">
        <ele>1608</ele>
        <time>2023-08-07T16:36:57+02:00</time>
      </trkpt>
      <trkpt lat="44.10108" lon="6.58663">
        <ele>1605.5</ele>
        <time>2023-08-07T16:37:01+02:00</time>
      </trkpt>
      <trkpt lat="44.10112" lon="6.58663">
        <ele>1605.9004</ele>
        <time>2023-08-07T16:37:02+02:00</time>
      </trkpt>
      <trkpt lat="44.10124" lon="6.58666">
        <ele>1609.2998</ele>
        <time>2023-08-07T16:37:06+02:00</time>
      </trkpt>
      <trkpt lat="44.10128" lon="6.58668">
        <ele>1609.6006</ele>
        <time>2023-08-07T16:37:07+02:00</time>
      </trkpt>
      <trkpt lat="44.10139" lon="6.58675">
        <ele>1612.5</ele>
        <time>2023-08-07T16:37:11+02:00</time>
      </trkpt>
      <trkpt lat="44.10141" lon="6.58677">
        <ele>1612.5</ele>
        <time>2023-08-07T16:37:12+02:00</time>
      </trkpt>
      <trkpt lat="44.10151" lon="6.58682">
        <ele>1612.5</ele>
        <time>2023-08-07T16:37:16+02:00</time>
      </trkpt>
      <trkpt lat="44.10154" lon="6.58682">
        <ele>1614.9004</ele>
        <time>2023-08-07T16:37:17+02:00</time>
      </trkpt>
      <trkpt lat="44.10165" lon="6.58679">
        <ele>1612.2002</ele>
        <time>2023-08-07T16:37:21+02:00</time>
      </trkpt>
      <trkpt lat="44.10169" lon="6.58677">
        <ele>1612.2002</ele>
        <time>2023-08-07T16:37:22+02:00</time>
      </trkpt>
      <trkpt lat="44.10186" lon="6.58674">
        <ele>1611.5</ele>
        <time>2023-08-07T16:37:26+02:00</time>
      </trkpt>
      <trkpt lat="44.10189" lon="6.58673">
        <ele>1611.2002</ele>
        <time>2023-08-07T16:37:27+02:00</time>
      </trkpt>
      <trkpt lat="44.10202" lon="6.58673">
        <ele>1608.6006</ele>
        <time>2023-08-07T16:37:31+02:00</time>
      </trkpt>
      <trkpt lat="44.10204" lon="6.58673">
        <ele>1608.6006</ele>
        <time>2023-08-07T16:37:32+02:00</time>
      </trkpt>
      <trkpt lat="44.10215" lon="6.58675">
        <ele>1610.7002</ele>
        <time>2023-08-07T16:37:36+02:00</time>
      </trkpt>
      <trkpt lat="44.10218" lon="6.58675">
        <ele>1610.7002</ele>
        <time>2023-08-07T16:37:37+02:00</time>
      </trkpt>
      <trkpt lat="44.1023" lon="6.58675">
        <ele>1610.9004</ele>
        <time>2023-08-07T16:37:41+02:00</time>
      </trkpt>
      <trkpt lat="44.10234" lon="6.58675">
        <ele>1611</ele>
        <time>2023-08-07T16:37:42+02:00</time>
      </trkpt>
      <trkpt lat="44.1025" lon="6.58673">
        <ele>1608.7002</ele>
        <time>2023-08-07T16:37:46+02:00</time>
      </trkpt>
      <trkpt lat="44.10255" lon="6.58671">
        <ele>1608.7002</ele>
        <time>2023-08-07T16:37:47+02:00</time>
      </trkpt>
      <trkpt lat="44.10275" lon="6.58665">
        <ele>1608.2998</ele>
        <time>2023-08-07T16:37:51+02:00</time>
      </trkpt>
      <trkpt lat="44.1028" lon="6.58665">
        <ele>1607.9004</ele>
        <time>2023-08-07T16:37:52+02:00</time>
      </trkpt>
      <trkpt lat="44.10297" lon="6.58673">
        <ele>1606.2998</ele>
        <time>2023-08-07T16:37:56+02:00</time>
      </trkpt>
      <trkpt lat="44.103" lon="6.58678">
        <ele>1608.2002</ele>
        <time>2023-08-07T16:37:57+02:00</time>
      </trkpt>
      <trkpt lat="44.10314" lon="6.58701">
        <ele>1613.7002</ele>
        <time>2023-08-07T16:38:01+02:00</time>
      </trkpt>
      <trkpt lat="44.10318" lon="6.58708">
        <ele>1616.1006</ele>
        <time>2023-08-07T16:38:02+02:00</time>
      </trkpt>
      <trkpt lat="44.10334" lon="6.58735">
        <ele>1616.2002</ele>
        <time>2023-08-07T16:38:06+02:00</time>
      </trkpt>
      <trkpt lat="44.10337" lon="6.58742">
        <ele>1615</ele>
        <time>2023-08-07T16:38:07+02:00</time>
      </trkpt>
      <trkpt lat="44.1035" lon="6.58774">
        <ele>1613</ele>
        <time>2023-08-07T16:38:11+02:00</time>
      </trkpt>
      <trkpt lat="44.10353" lon="6.58783">
        <ele>1614.5</ele>
        <time>2023-08-07T16:38:12+02:00</time>
      </trkpt>
      <trkpt lat="44.1036" lon="6.5882">
        <ele>1616.7998</ele>
        <time>2023-08-07T16:38:16+02:00</time>
      </trkpt>
      <trkpt lat="44.10361" lon="6.5883">
        <ele>1617.7002</ele>
        <time>2023-08-07T16:38:17+02:00</time>
      </trkpt>
      <trkpt lat="44.10359" lon="6.5887">
        <ele>1618.7002</ele>
        <time>2023-08-07T16:38:21+02:00</time>
      </trkpt>
      <trkpt lat="44.10358" lon="6.5888">
        <ele>1618.7002</ele>
        <time>2023-08-07T16:38:22+02:00</time>
      </trkpt>
      <trkpt lat="44.10357" lon="6.58921">
        <ele>1619.5</ele>
        <time>2023-08-07T16:38:26+02:00</time>
      </trkpt>
      <trkpt lat="44.10357" lon="6.58932">
        <ele>1620.4004</ele>
        <time>2023-08-07T16:38:27+02:00</time>
      </trkpt>
      <trkpt lat="44.10361" lon="6.58974">
        <ele>1621.7002</ele>
        <time>2023-08-07T16:38:31+02:00</time>
      </trkpt>
      <trkpt lat="44.10361" lon="6.58985">
        <ele>1617.6006</ele>
        <time>2023-08-07T16:38:32+02:00</time>
      </trkpt>
      <trkpt lat="44.10368" lon="6.59018">
        <ele>1615.7002</ele>
        <time>2023-08-07T16:38:36+02:00</time>
      </trkpt>
      <trkpt lat="44.10372" lon="6.59024">
        <ele>1615.7002</ele>
        <time>2023-08-07T16:38:37+02:00</time>
      </trkpt>
      <trkpt lat="44.1039" lon="6.59037">
        <ele>1607.2002</ele>
        <time>2023-08-07T16:38:41+02:00</time>
      </trkpt>
      <trkpt lat="44.10395" lon="6.59039">
        <ele>1604.6006</ele>
        <time>2023-08-07T16:38:42+02:00</time>
      </trkpt>
      <trkpt lat="44.1041" lon="6.59055">
        <ele>1602.7998</ele>
        <time>2023-08-07T16:38:46+02:00</time>
      </trkpt>
      <trkpt lat="44.10412" lon="6.59061">
        <ele>1602.4004</ele>
        <time>2023-08-07T16:38:47+02:00</time>
      </trkpt>
      <trkpt lat="44.1042" lon="6.5909">
        <ele>1606.2002</ele>
        <time>2023-08-07T16:38:51+02:00</time>
      </trkpt>
      <trkpt lat="44.10423" lon="6.59096">
        <ele>1607.2002</ele>
        <time>2023-08-07T16:38:52+02:00</time>
      </trkpt>
      <trkpt lat="44.10439" lon="6.59099">
        <ele>1605.6006</ele>
        <time>2023-08-07T16:38:56+02:00</time>
      </trkpt>
      <trkpt lat="44.10443" lon="6.59096">
        <ele>1605.2002</ele>
        <time>2023-08-07T16:38:57+02:00</time>
      </trkpt>
      <trkpt lat="44.10452" lon="6.59079">
        <ele>1600.4004</ele>
        <time>2023-08-07T16:39:01+02:00</time>
      </trkpt>
      <trkpt lat="44.10455" lon="6.59075">
        <ele>1598.1006</ele>
        <time>2023-08-07T16:39:02+02:00</time>
      </trkpt>
      <trkpt lat="44.10468" lon="6.59057">
        <ele>1594.5</ele>
        <time>2023-08-07T16:39:06+02:00</time>
      </trkpt>
      <trkpt lat="44.10471" lon="6.59052">
        <ele>1594.5</ele>
        <time>2023-08-07T16:39:07+02:00</time>
      </trkpt>
      <trkpt lat="44.10483" lon="6.59034">
        <ele>1591.2998</ele>
        <time>2023-08-07T16:39:11+02:00</time>
      </trkpt>
      <trkpt lat="44.10485" lon="6.5903">
        <ele>1589.6006</ele>
        <time>2023-08-07T16:39:12+02:00</time>
      </trkpt>
      <trkpt lat="44.10496" lon="6.59012">
        <ele>1586.2002</ele>
        <time>2023-08-07T16:39:16+02:00</time>
      </trkpt>
      <trkpt lat="44.10499" lon="6.59007">
        <ele>1584.4004</ele>
        <time>2023-08-07T16:39:17+02:00</time>
      </trkpt>
      <trkpt lat="44.10514" lon="6.58999">
        <ele>1582.1006</ele>
        <time>2023-08-07T16:39:21+02:00</time>
      </trkpt>
      <trkpt lat="44.10517" lon="6.58999">
        <ele>1581.7002</ele>
        <time>2023-08-07T16:39:22+02:00</time>
      </trkpt>
      <trkpt lat="44.10529" lon="6.59002">
        <ele>1583</ele>
        <time>2023-08-07T16:39:26+02:00</time>
      </trkpt>
      <trkpt lat="44.10531" lon="6.59003">
        <ele>1583</ele>
        <time>2023-08-07T16:39:27+02:00</time>
      </trkpt>
      <trkpt lat="44.10542" lon="6.59009">
        <ele>1584.1006</ele>
        <time>2023-08-07T16:39:31+02:00</time>
      </trkpt>
      <trkpt lat="44.10545" lon="6.59011">
        <ele>1584.1006</ele>
        <time>2023-08-07T16:39:32+02:00</time>
      </trkpt>
      <trkpt lat="44.10558" lon="6.59018">
        <ele>1585.1006</ele>
        <time>2023-08-07T16:39:36+02:00</time>
      </trkpt>
      <trkpt lat="44.10562" lon="6.59019">
        <ele>1584.4004</ele>
        <time>2023-08-07T16:39:37+02:00</time>
      </trkpt>
      <trkpt lat="44.10576" lon="6.59027">
        <ele>1585.1006</ele>
        <time>2023-08-07T16:39:41+02:00</time>
      </trkpt>
      <trkpt lat="44.1058" lon="6.59028">
        <ele>1583.9004</ele>
        <time>2023-08-07T16:39:42+02:00</time>
      </trkpt>
      <trkpt lat="44.10597" lon="6.59033">
        <ele>1579.5</ele>
        <time>2023-08-07T16:39:46+02:00</time>
      </trkpt>
      <trkpt lat="44.10601" lon="6.59034">
        <ele>1581.7002</ele>
        <time>2023-08-07T16:39:47+02:00</time>
      </trkpt>
      <trkpt lat="44.10619" lon="6.59042">
        <ele>1575.2998</ele>
        <time>2023-08-07T16:39:51+02:00</time>
      </trkpt>
      <trkpt lat="44.10624" lon="6.59045">
        <ele>1575</ele>
        <time>2023-08-07T16:39:52+02:00</time>
      </trkpt>
      <trkpt lat="44.10639" lon="6.59056">
        <ele>1571.7002</ele>
        <time>2023-08-07T16:39:56+02:00</time>
      </trkpt>
      <trkpt lat="44.10642" lon="6.59058">
        <ele>1568.5</ele>
        <time>2023-08-07T16:39:57+02:00</time>
      </trkpt>
      <trkpt lat="44.10657" lon="6.59066">
        <ele>1563.5</ele>
        <time>2023-08-07T16:40:01+02:00</time>
      </trkpt>
      <trkpt lat="44.10661" lon="6.59068">
        <ele>1561.5</ele>
        <time>2023-08-07T16:40:02+02:00</time>
      </trkpt>
      <trkpt lat="44.10675" lon="6.59078">
        <ele>1555.4004</ele>
        <time>2023-08-07T16:40:06+02:00</time>
      </trkpt>
      <trkpt lat="44.10679" lon="6.5908">
        <ele>1551.7002</ele>
        <time>2023-08-07T16:40:07+02:00</time>
      </trkpt>
      <trkpt lat="44.10691" lon="6.59091">
        <ele>1545.1006</ele>
        <time>2023-08-07T16:40:11+02:00</time>
      </trkpt>
      <trkpt lat="44.10694" lon="6.59094">
        <ele>1541.4004</ele>
        <time>2023-08-07T16:40:12+02:00</time>
      </trkpt>
      <trkpt lat="44.10707" lon="6.59105">
        <ele>1534.6006</ele>
        <time>2023-08-07T16:40:16+02:00</time>
      </trkpt>
      <trkpt lat="44.10711" lon="6.59108">
        <ele>1534.6006</ele>
        <time>2023-08-07T16:40:17+02:00</time>
      </trkpt>
      <trkpt lat="44.10722" lon="6.59118">
        <ele>1526.6006</ele>
        <time>2023-08-07T16:40:21+02:00</time>
      </trkpt>
      <trkpt lat="44.10724" lon="6.59119">
        <ele>1526.6006</ele>
        <time>2023-08-07T16:40:22+02:00</time>
      </trkpt>
      <trkpt lat="44.10727" lon="6.5911">
        <ele>1523.1006</ele>
        <time>2023-08-07T16:40:26+02:00</time>
      </trkpt>
      <trkpt lat="44.10726" lon="6.59105">
        <ele>1523.1006</ele>
        <time>2023-08-07T16:40:27+02:00</time>
      </trkpt>
      <trkpt lat="44.10723" lon="6.59081">
        <ele>1526.5</ele>
        <time>2023-08-07T16:40:31+02:00</time>
      </trkpt>
      <trkpt lat="44.10722" lon="6.59074">
        <ele>1525.9004</ele>
        <time>2023-08-07T16:40:32+02:00</time>
      </trkpt>
      <trkpt lat="44.10718" lon="6.59052">
        <ele>1527.9004</ele>
        <time>2023-08-07T16:40:36+02:00</time>
      </trkpt>
      <trkpt lat="44.10717" lon="6.59045">
        <ele>1527</ele>
        <time>2023-08-07T16:40:37+02:00</time>
      </trkpt>
      <trkpt lat="44.10713" lon="6.59021">
        <ele>1523.7002</ele>
        <time>2023-08-07T16:40:41+02:00</time>
      </trkpt>
      <trkpt lat="44.10712" lon="6.59014">
        <ele>1525.6006</ele>
        <time>2023-08-07T16:40:42+02:00</time>
      </trkpt>
      <trkpt lat="44.10708" lon="6.58989">
        <ele>1520</ele>
        <time>2023-08-07T16:40:46+02:00</time>
      </trkpt>
      <trkpt lat="44.10707" lon="6.58983">
        <ele>1520</ele>
        <time>2023-08-07T16:40:47+02:00</time>
      </trkpt>
      <trkpt lat="44.10701" lon="6.58959">
        <ele>1515.9004</ele>
        <time>2023-08-07T16:40:51+02:00</time>
      </trkpt>
      <trkpt lat="44.107" lon="6.58955">
        <ele>1516.4004</ele>
        <time>2023-08-07T16:40:52+02:00</time>
      </trkpt>
      <trkpt lat="44.10699" lon="6.58945">
        <ele>1513.9004</ele>
        <time>2023-08-07T16:40:56+02:00</time>
      </trkpt>
      <trkpt lat="44.10699" lon="6.58946">
        <ele>1513.9004</ele>
        <time>2023-08-07T16:40:57+02:00</time>
      </trkpt>
      <trkpt lat="44.10699" lon="6.58946">
        <ele>1513.9004</ele>
        <time>2023-08-07T16:41:01+02:00</time>
      </trkpt>
      <trkpt lat="44.10699" lon="6.58946">
        <ele>1513.9004</ele>
        <time>2023-08-07T16:41:02+02:00</time>
      </trkpt>
      <trkpt lat="44.10699" lon="6.58946">
        <ele>1513.9004</ele>
        <time>2023-08-07T16:41:06+02:00</time>
      </trkpt>
      <trkpt lat="44.10699" lon="6.58946">
        <ele>1513.9004</ele>
        <time>2023-08-07T16:41:07+02:00</time>
      </trkpt>
      <trkpt lat="44.10699" lon="6.58947">
        <ele>1513.9004</ele>
        <time>2023-08-07T16:41:11+02:00</time>
      </trkpt>
      <trkpt lat="44.10699" lon="6.58947">
        <ele>1513.9004</ele>
        <time>2023-08-07T16:41:12+02:00</time>
      </trkpt>
      <trkpt lat="44.10699" lon="6.58947">
        <ele>1513.9004</ele>
        <time>2023-08-07T16:41:16+02:00</time>
      </trkpt>
      <trkpt lat="44.10699" lon="6.58947">
        <ele>1513.9004</ele>
        <time>2023-08-07T16:41:17+02:00</time>
      </trkpt>
      <trkpt lat="44.10699" lon="6.58947">
        <ele>1513.9004</ele>
        <time>2023-08-07T16:41:21+02:00</time>
      </trkpt>
      <trkpt lat="44.10699" lon="6.58947">
        <ele>1513.9004</ele>
        <time>2023-08-07T16:41:22+02:00</time>
      </trkpt>
      <trkpt lat="44.10699" lon="6.58947">
        <ele>1513.9004</ele>
        <time>2023-08-07T16:41:26+02:00</time>
      </trkpt>
      <trkpt lat="44.10699" lon="6.58947">
        <ele>1513.9004</ele>
        <time>2023-08-07T16:41:27+02:00</time>
      </trkpt>
      <trkpt lat="44.10699" lon="6.58947">
        <ele>1513.9004</ele>
        <time>2023-08-07T16:41:31+02:00</time>
      </trkpt>
      <trkpt lat="44.10698" lon="6.58947">
        <ele>1513.9004</ele>
        <time>2023-08-07T16:41:32+02:00</time>
      </trkpt>
      <trkpt lat="44.10699" lon="6.58953">
        <ele>1516.4004</ele>
        <time>2023-08-07T16:41:36+02:00</time>
      </trkpt>
      <trkpt lat="44.10699" lon="6.58954">
        <ele>1516.4004</ele>
        <time>2023-08-07T16:41:37+02:00</time>
      </trkpt>
      <trkpt lat="44.10699" lon="6.58955">
        <ele>1516.4004</ele>
        <time>2023-08-07T16:41:41+02:00</time>
      </trkpt>
      <trkpt lat="44.10699" lon="6.58955">
        <ele>1516.4004</ele>
        <time>2023-08-07T16:41:42+02:00</time>
      </trkpt>
      <trkpt lat="44.10699" lon="6.58955">
        <ele>1516.4004</ele>
        <time>2023-08-07T16:41:46+02:00</time>
      </trkpt>
      <trkpt lat="44.10699" lon="6.58955">
        <ele>1516.4004</ele>
        <time>2023-08-07T16:41:47+02:00</time>
      </trkpt>
      <trkpt lat="44.10699" lon="6.58955">
        <ele>1516.4004</ele>
        <time>2023-08-07T16:41:51+02:00</time>
      </trkpt>
      <trkpt lat="44.10699" lon="6.58955">
        <ele>1516.4004</ele>
        <time>2023-08-07T16:41:52+02:00</time>
      </trkpt>
      <trkpt lat="44.10699" lon="6.58955">
        <ele>1516.4004</ele>
        <time>2023-08-07T16:41:56+02:00</time>
      </trkpt>
      <trkpt lat="44.10699" lon="6.58955">
        <ele>1516.4004</ele>
        <time>2023-08-07T16:41:57+02:00</time>
      </trkpt>
      <trkpt lat="44.10699" lon="6.58955">
        <ele>1516.4004</ele>
        <time>2023-08-07T16:42:01+02:00</time>
      </trkpt>
      <trkpt lat="44.10699" lon="6.58955">
        <ele>1516.4004</ele>
        <time>2023-08-07T16:42:02+02:00</time>
      </trkpt>
      <trkpt lat="44.10699" lon="6.58955">
        <ele>1516.4004</ele>
        <time>2023-08-07T16:42:06+02:00</time>
      </trkpt>
      <trkpt lat="44.10699" lon="6.58955">
        <ele>1516.4004</ele>
        <time>2023-08-07T16:42:07+02:00</time>
      </trkpt>
      <trkpt lat="44.10699" lon="6.58955">
        <ele>1516.4004</ele>
        <time>2023-08-07T16:42:11+02:00</time>
      </trkpt>
      <trkpt lat="44.10699" lon="6.58955">
        <ele>1516.4004</ele>
        <time>2023-08-07T16:42:12+02:00</time>
      </trkpt>
      <trkpt lat="44.10699" lon="6.58955">
        <ele>1516.4004</ele>
        <time>2023-08-07T16:42:16+02:00</time>
      </trkpt>
      <trkpt lat="44.10699" lon="6.58955">
        <ele>1516.4004</ele>
        <time>2023-08-07T16:42:17+02:00</time>
      </trkpt>
      <trkpt lat="44.10699" lon="6.58955">
        <ele>1516.4004</ele>
        <time>2023-08-07T16:42:21+02:00</time>
      </trkpt>
      <trkpt lat="44.10699" lon="6.58955">
        <ele>1516.4004</ele>
        <time>2023-08-07T16:42:22+02:00</time>
      </trkpt>
      <trkpt lat="44.10699" lon="6.58955">
        <ele>1516.4004</ele>
        <time>2023-08-07T16:42:26+02:00</time>
      </trkpt>
      <trkpt lat="44.10699" lon="6.58955">
        <ele>1516.4004</ele>
        <time>2023-08-07T16:42:27+02:00</time>
      </trkpt>
      <trkpt lat="44.10699" lon="6.58955">
        <ele>1516.4004</ele>
        <time>2023-08-07T16:42:31+02:00</time>
      </trkpt>
      <trkpt lat="44.10699" lon="6.58955">
        <ele>1516.4004</ele>
        <time>2023-08-07T16:42:32+02:00</time>
      </trkpt>
      <trkpt lat="44.10699" lon="6.58955">
        <ele>1516.4004</ele>
        <time>2023-08-07T16:42:36+02:00</time>
      </trkpt>
      <trkpt lat="44.10699" lon="6.58955">
        <ele>1516.4004</ele>
        <time>2023-08-07T16:42:37+02:00</time>
      </trkpt>
      <trkpt lat="44.10699" lon="6.58955">
        <ele>1516.4004</ele>
        <time>2023-08-07T16:42:41+02:00</time>
      </trkpt>
      <trkpt lat="44.10699" lon="6.58955">
        <ele>1516.4004</ele>
        <time>2023-08-07T16:42:42+02:00</time>
      </trkpt>
      <trkpt lat="44.10699" lon="6.58955">
        <ele>1516.4004</ele>
        <time>2023-08-07T16:42:46+02:00</time>
      </trkpt>
      <trkpt lat="44.10699" lon="6.58955">
        <ele>1516.4004</ele>
        <time>2023-08-07T16:42:47+02:00</time>
      </trkpt>
      <trkpt lat="44.10699" lon="6.58955">
        <ele>1516.4004</ele>
        <time>2023-08-07T16:42:51+02:00</time>
      </trkpt>
      <trkpt lat="44.10699" lon="6.58955">
        <ele>1516.4004</ele>
        <time>2023-08-07T16:42:52+02:00</time>
      </trkpt>
      <trkpt lat="44.10699" lon="6.58955">
        <ele>1516.4004</ele>
        <time>2023-08-07T16:42:56+02:00</time>
      </trkpt>
      <trkpt lat="44.10699" lon="6.58955">
        <ele>1516.4004</ele>
        <time>2023-08-07T16:42:57+02:00</time>
      </trkpt>
      <trkpt lat="44.10699" lon="6.58955">
        <ele>1516.4004</ele>
        <time>2023-08-07T16:43:01+02:00</time>
      </trkpt>
      <trkpt lat="44.10699" lon="6.58955">
        <ele>1516.4004</ele>
        <time>2023-08-07T16:43:02+02:00</time>
      </trkpt>
      <trkpt lat="44.10699" lon="6.58955">
        <ele>1516.4004</ele>
        <time>2023-08-07T16:43:06+02:00</time>
      </trkpt>
      <trkpt lat="44.10699" lon="6.58955">
        <ele>1516.4004</ele>
        <time>2023-08-07T16:43:07+02:00</time>
      </trkpt>
      <trkpt lat="44.10699" lon="6.58955">
        <ele>1516.4004</ele>
        <time>2023-08-07T16:43:11+02:00</time>
      </trkpt>
      <trkpt lat="44.10699" lon="6.58955">
        <ele>1516.4004</ele>
        <time>2023-08-07T16:43:12+02:00</time>
      </trkpt>
      <trkpt lat="44.10699" lon="6.58955">
        <ele>1516.4004</ele>
        <time>2023-08-07T16:43:16+02:00</time>
      </trkpt>
      <trkpt lat="44.10699" lon="6.58955">
        <ele>1516.4004</ele>
        <time>2023-08-07T16:43:17+02:00</time>
      </trkpt>
      <trkpt lat="44.10699" lon="6.58955">
        <ele>1516.4004</ele>
        <time>2023-08-07T16:43:21+02:00</time>
      </trkpt>
      <trkpt lat="44.10699" lon="6.58955">
        <ele>1516.4004</ele>
        <time>2023-08-07T16:43:22+02:00</time>
      </trkpt>
      <trkpt lat="44.10699" lon="6.58955">
        <ele>1516.4004</ele>
        <time>2023-08-07T16:43:26+02:00</time>
      </trkpt>
      <trkpt lat="44.10699" lon="6.58955">
        <ele>1516.4004</ele>
        <time>2023-08-07T16:43:27+02:00</time>
      </trkpt>
      <trkpt lat="44.10699" lon="6.58955">
        <ele>1516.4004</ele>
        <time>2023-08-07T16:43:31+02:00</time>
      </trkpt>
      <trkpt lat="44.10699" lon="6.58955">
        <ele>1516.4004</ele>
        <time>2023-08-07T16:43:32+02:00</time>
      </trkpt>
      <trkpt lat="44.10699" lon="6.58955">
        <ele>1516.4004</ele>
        <time>2023-08-07T16:43:36+02:00</time>
      </trkpt>
      <trkpt lat="44.10699" lon="6.58955">
        <ele>1516.4004</ele>
        <time>2023-08-07T16:43:37+02:00</time>
      </trkpt>
      <trkpt lat="44.10699" lon="6.58955">
        <ele>1516.4004</ele>
        <time>2023-08-07T16:43:41+02:00</time>
      </trkpt>
      <trkpt lat="44.10699" lon="6.58955">
        <ele>1516.4004</ele>
        <time>2023-08-07T16:43:42+02:00</time>
      </trkpt>
      <trkpt lat="44.10699" lon="6.58955">
        <ele>1516.4004</ele>
        <time>2023-08-07T16:43:46+02:00</time>
      </trkpt>
      <trkpt lat="44.10699" lon="6.58955">
        <ele>1516.4004</ele>
        <time>2023-08-07T16:43:47+02:00</time>
      </trkpt>
      <trkpt lat="44.10699" lon="6.58955">
        <ele>1516.4004</ele>
        <time>2023-08-07T16:43:51+02:00</time>
      </trkpt>
      <trkpt lat="44.10699" lon="6.58955">
        <ele>1516.4004</ele>
        <time>2023-08-07T16:43:52+02:00</time>
      </trkpt>
      <trkpt lat="44.10702" lon="6.58952">
        <ele>1513.4004</ele>
        <time>2023-08-07T16:43:56+02:00</time>
      </trkpt>
      <trkpt lat="44.10705" lon="6.58952">
        <ele>1513.4004</ele>
        <time>2023-08-07T16:43:57+02:00</time>
      </trkpt>
      <trkpt lat="44.10715" lon="6.58954">
        <ele>1507.4004</ele>
        <time>2023-08-07T16:44:01+02:00</time>
      </trkpt>
      <trkpt lat="44.10719" lon="6.58955">
        <ele>1507.4004</ele>
        <time>2023-08-07T16:44:02+02:00</time>
      </trkpt>
      <trkpt lat="44.10733" lon="6.58963">
        <ele>1500.7998</ele>
        <time>2023-08-07T16:44:06+02:00</time>
      </trkpt>
      <trkpt lat="44.10736" lon="6.58965">
        <ele>1500.7998</ele>
        <time>2023-08-07T16:44:07+02:00</time>
      </trkpt>
      <trkpt lat="44.10751" lon="6.58967">
        <ele>1494.1006</ele>
        <time>2023-08-07T16:44:11+02:00</time>
      </trkpt>
      <trkpt lat="44.10755" lon="6.58968">
        <ele>1494.1006</ele>
        <time>2023-08-07T16:44:12+02:00</time>
      </trkpt>
      <trkpt lat="44.10766" lon="6.58972">
        <ele>1488.2998</ele>
        <time>2023-08-07T16:44:16+02:00</time>
      </trkpt>
      <trkpt lat="44.10767" lon="6.58971">
        <ele>1488.2998</ele>
        <time>2023-08-07T16:44:17+02:00</time>
      </trkpt>
      <trkpt lat="44.10769" lon="6.58957">
        <ele>1483.7002</ele>
        <time>2023-08-07T16:44:21+02:00</time>
      </trkpt>
      <trkpt lat="44.10768" lon="6.58952">
        <ele>1484.7998</ele>
        <time>2023-08-07T16:44:22+02:00</time>
      </trkpt>
      <trkpt lat="44.10765" lon="6.58945">
        <ele>1483</ele>
        <time>2023-08-07T16:44:26+02:00</time>
      </trkpt>
      <trkpt lat="44.10765" lon="6.58945">
        <ele>1483</ele>
        <time>2023-08-07T16:44:27+02:00</time>
      </trkpt>
      <trkpt lat="44.10776" lon="6.58945">
        <ele>1477.6006</ele>
        <time>2023-08-07T16:44:31+02:00</time>
      </trkpt>
      <trkpt lat="44.1078" lon="6.58945">
        <ele>1477.6006</ele>
        <time>2023-08-07T16:44:32+02:00</time>
      </trkpt>
      <trkpt lat="44.10793" lon="6.58946">
        <ele>1469.2002</ele>
        <time>2023-08-07T16:44:36+02:00</time>
      </trkpt>
      <trkpt lat="44.10795" lon="6.58945">
        <ele>1469.2002</ele>
        <time>2023-08-07T16:44:37+02:00</time>
      </trkpt>
      <trkpt lat="44.10793" lon="6.58931">
        <ele>1467.9004</ele>
        <time>2023-08-07T16:44:41+02:00</time>
      </trkpt>
      <trkpt lat="44.10791" lon="6.58926">
        <ele>1469.1006</ele>
        <time>2023-08-07T16:44:42+02:00</time>
      </trkpt>
      <trkpt lat="44.10784" lon="6.58903">
        <ele>1466.7998</ele>
        <time>2023-08-07T16:44:46+02:00</time>
      </trkpt>
      <trkpt lat="44.10781" lon="6.58896">
        <ele>1465.1006</ele>
        <time>2023-08-07T16:44:47+02:00</time>
      </trkpt>
      <trkpt lat="44.10771" lon="6.58875">
        <ele>1465.1006</ele>
        <time>2023-08-07T16:44:51+02:00</time>
      </trkpt>
      <trkpt lat="44.10771" lon="6.58873">
        <ele>1465.1006</ele>
        <time>2023-08-07T16:44:52+02:00</time>
      </trkpt>
      <trkpt lat="44.10781" lon="6.58869">
        <ele>1458.7002</ele>
        <time>2023-08-07T16:44:56+02:00</time>
      </trkpt>
      <trkpt lat="44.10784" lon="6.5887">
        <ele>1458.7002</ele>
        <time>2023-08-07T16:44:57+02:00</time>
      </trkpt>
      <trkpt lat="44.10797" lon="6.58874">
        <ele>1456.7998</ele>
        <time>2023-08-07T16:45:01+02:00</time>
      </trkpt>
      <trkpt lat="44.10801" lon="6.58875">
        <ele>1454.5</ele>
        <time>2023-08-07T16:45:02+02:00</time>
      </trkpt>
      <trkpt lat="44.10808" lon="6.58873">
        <ele>1452.1006</ele>
        <time>2023-08-07T16:45:06+02:00</time>
      </trkpt>
      <trkpt lat="44.10808" lon="6.5887">
        <ele>1449.9004</ele>
        <time>2023-08-07T16:45:07+02:00</time>
      </trkpt>
      <trkpt lat="44.10807" lon="6.58859">
        <ele>1447.2998</ele>
        <time>2023-08-07T16:45:11+02:00</time>
      </trkpt>
      <trkpt lat="44.10807" lon="6.58856">
        <ele>1447.2998</ele>
        <time>2023-08-07T16:45:12+02:00</time>
      </trkpt>
      <trkpt lat="44.10804" lon="6.58844">
        <ele>1443.7002</ele>
        <time>2023-08-07T16:45:16+02:00</time>
      </trkpt>
      <trkpt lat="44.10802" lon="6.5884">
        <ele>1443.7002</ele>
        <time>2023-08-07T16:45:17+02:00</time>
      </trkpt>
      <trkpt lat="44.10794" lon="6.58825">
        <ele>1438.7998</ele>
        <time>2023-08-07T16:45:21+02:00</time>
      </trkpt>
      <trkpt lat="44.10792" lon="6.58821">
        <ele>1440.7002</ele>
        <time>2023-08-07T16:45:22+02:00</time>
      </trkpt>
      <trkpt lat="44.10792" lon="6.58814">
        <ele>1436.9004</ele>
        <time>2023-08-07T16:45:26+02:00</time>
      </trkpt>
      <trkpt lat="44.10794" lon="6.58814">
        <ele>1435</ele>
        <time>2023-08-07T16:45:27+02:00</time>
      </trkpt>
      <trkpt lat="44.10806" lon="6.58818">
        <ele>1431.2002</ele>
        <time>2023-08-07T16:45:31+02:00</time>
      </trkpt>
      <trkpt lat="44.10808" lon="6.58819">
        <ele>1431.2002</ele>
        <time>2023-08-07T16:45:32+02:00</time>
      </trkpt>
      <trkpt lat="44.10813" lon="6.58813">
        <ele>1429.2998</ele>
        <time>2023-08-07T16:45:36+02:00</time>
      </trkpt>
      <trkpt lat="44.10812" lon="6.58809">
        <ele>1425.5</ele>
        <time>2023-08-07T16:45:37+02:00</time>
      </trkpt>
      <trkpt lat="44.10807" lon="6.58795">
        <ele>1423.5</ele>
        <time>2023-08-07T16:45:41+02:00</time>
      </trkpt>
      <trkpt lat="44.10806" lon="6.58793">
        <ele>1419.6006</ele>
        <time>2023-08-07T16:45:42+02:00</time>
      </trkpt>
      <trkpt lat="44.10804" lon="6.58788">
        <ele>1421.5</ele>
        <time>2023-08-07T16:45:46+02:00</time>
      </trkpt>
      <trkpt lat="44.10805" lon="6.58787">
        <ele>1421.5</ele>
        <time>2023-08-07T16:45:47+02:00</time>
      </trkpt>
      <trkpt lat="44.10813" lon="6.58787">
        <ele>1417.7002</ele>
        <time>2023-08-07T16:45:51+02:00</time>
      </trkpt>
      <trkpt lat="44.10816" lon="6.58786">
        <ele>1417.7002</ele>
        <time>2023-08-07T16:45:52+02:00</time>
      </trkpt>
      <trkpt lat="44.10825" lon="6.58785">
        <ele>1409.6006</ele>
        <time>2023-08-07T16:45:56+02:00</time>
      </trkpt>
      <trkpt lat="44.10827" lon="6.58786">
        <ele>1413.6006</ele>
        <time>2023-08-07T16:45:57+02:00</time>
      </trkpt>
      <trkpt lat="44.10833" lon="6.58787">
        <ele>1411.4004</ele>
        <time>2023-08-07T16:46:01+02:00</time>
      </trkpt>
      <trkpt lat="44.10835" lon="6.58788">
        <ele>1411.4004</ele>
        <time>2023-08-07T16:46:02+02:00</time>
      </trkpt>
      <trkpt lat="44.10847" lon="6.5879">
        <ele>1406.4004</ele>
        <time>2023-08-07T16:46:06+02:00</time>
      </trkpt>
      <trkpt lat="44.1085" lon="6.58791">
        <ele>1403.7002</ele>
        <time>2023-08-07T16:46:07+02:00</time>
      </trkpt>
      <trkpt lat="44.10864" lon="6.58795">
        <ele>1401.2998</ele>
        <time>2023-08-07T16:46:11+02:00</time>
      </trkpt>
      <trkpt lat="44.10868" lon="6.58797">
        <ele>1398.2002</ele>
        <time>2023-08-07T16:46:12+02:00</time>
      </trkpt>
      <trkpt lat="44.10883" lon="6.58804">
        <ele>1394.7998</ele>
        <time>2023-08-07T16:46:16+02:00</time>
      </trkpt>
      <trkpt lat="44.10887" lon="6.58805">
        <ele>1391.2998</ele>
        <time>2023-08-07T16:46:17+02:00</time>
      </trkpt>
      <trkpt lat="44.10894" lon="6.58809">
        <ele>1387.7998</ele>
        <time>2023-08-07T16:46:21+02:00</time>
      </trkpt>
      <trkpt lat="44.10895" lon="6.58809">
        <ele>1387.7998</ele>
        <time>2023-08-07T16:46:22+02:00</time>
      </trkpt>
      <trkpt lat="44.10899" lon="6.5881">
        <ele>1384.2002</ele>
        <time>2023-08-07T16:46:26+02:00</time>
      </trkpt>
      <trkpt lat="44.10902" lon="6.5881">
        <ele>1384.2002</ele>
        <time>2023-08-07T16:46:27+02:00</time>
      </trkpt>
      <trkpt lat="44.1091" lon="6.58814">
        <ele>1378.7998</ele>
        <time>2023-08-07T16:46:31+02:00</time>
      </trkpt>
      <trkpt lat="44.10912" lon="6.58814">
        <ele>1378.7998</ele>
        <time>2023-08-07T16:46:32+02:00</time>
      </trkpt>
      <trkpt lat="44.1091" lon="6.58803">
        <ele>1376.7998</ele>
        <time>2023-08-07T16:46:36+02:00</time>
      </trkpt>
      <trkpt lat="44.10909" lon="6.588">
        <ele>1378.2002</ele>
        <time>2023-08-07T16:46:37+02:00</time>
      </trkpt>
      <trkpt lat="44.10905" lon="6.58788">
        <ele>1375.9004</ele>
        <time>2023-08-07T16:46:41+02:00</time>
      </trkpt>
      <trkpt lat="44.10904" lon="6.58785">
        <ele>1375.9004</ele>
        <time>2023-08-07T16:46:42+02:00</time>
      </trkpt>
      <trkpt lat="44.109" lon="6.58772">
        <ele>1373.7998</ele>
        <time>2023-08-07T16:46:46+02:00</time>
      </trkpt>
      <trkpt lat="44.10899" lon="6.58768">
        <ele>1373.7998</ele>
        <time>2023-08-07T16:46:47+02:00</time>
      </trkpt>
      <trkpt lat="44.1089" lon="6.5875">
        <ele>1369.7998</ele>
        <time>2023-08-07T16:46:51+02:00</time>
      </trkpt>
      <trkpt lat="44.10888" lon="6.58744">
        <ele>1369.7998</ele>
        <time>2023-08-07T16:46:52+02:00</time>
      </trkpt>
      <trkpt lat="44.1088" lon="6.58725">
        <ele>1361.5</ele>
        <time>2023-08-07T16:46:56+02:00</time>
      </trkpt>
      <trkpt lat="44.10878" lon="6.5872">
        <ele>1363.7002</ele>
        <time>2023-08-07T16:46:57+02:00</time>
      </trkpt>
      <trkpt lat="44.10874" lon="6.58706">
        <ele>1356.7002</ele>
        <time>2023-08-07T16:47:01+02:00</time>
      </trkpt>
      <trkpt lat="44.10875" lon="6.58704">
        <ele>1356.7002</ele>
        <time>2023-08-07T16:47:02+02:00</time>
      </trkpt>
      <trkpt lat="44.10878" lon="6.58701">
        <ele>1356.7002</ele>
        <time>2023-08-07T16:47:06+02:00</time>
      </trkpt>
      <trkpt lat="44.10878" lon="6.58699">
        <ele>1356.7002</ele>
        <time>2023-08-07T16:47:07+02:00</time>
      </trkpt>
      <trkpt lat="44.10875" lon="6.58689">
        <ele>1349.7998</ele>
        <time>2023-08-07T16:47:11+02:00</time>
      </trkpt>
      <trkpt lat="44.10875" lon="6.58687">
        <ele>1349.7998</ele>
        <time>2023-08-07T16:47:12+02:00</time>
      </trkpt>
      <trkpt lat="44.10881" lon="6.58686">
        <ele>1347.7002</ele>
        <time>2023-08-07T16:47:16+02:00</time>
      </trkpt>
      <trkpt lat="44.10884" lon="6.58686">
        <ele>1347.7002</ele>
        <time>2023-08-07T16:47:17+02:00</time>
      </trkpt>
      <trkpt lat="44.10898" lon="6.58688">
        <ele>1342.1006</ele>
        <time>2023-08-07T16:47:21+02:00</time>
      </trkpt>
      <trkpt lat="44.10902" lon="6.58689">
        <ele>1342.1006</ele>
        <time>2023-08-07T16:47:22+02:00</time>
      </trkpt>
      <trkpt lat="44.10918" lon="6.58692">
        <ele>1340</ele>
        <time>2023-08-07T16:47:26+02:00</time>
      </trkpt>
      <trkpt lat="44.10921" lon="6.58692">
        <ele>1340</ele>
        <time>2023-08-07T16:47:27+02:00</time>
      </trkpt>
      <trkpt lat="44.10928" lon="6.58684">
        <ele>1333.4004</ele>
        <time>2023-08-07T16:47:31+02:00</time>
      </trkpt>
      <trkpt lat="44.10929" lon="6.58679">
        <ele>1330.4004</ele>
        <time>2023-08-07T16:47:32+02:00</time>
      </trkpt>
      <trkpt lat="44.10934" lon="6.58662">
        <ele>1324.5</ele>
        <time>2023-08-07T16:47:36+02:00</time>
      </trkpt>
      <trkpt lat="44.10936" lon="6.58658">
        <ele>1322.9004</ele>
        <time>2023-08-07T16:47:37+02:00</time>
      </trkpt>
      <trkpt lat="44.10952" lon="6.58648">
        <ele>1316.7002</ele>
        <time>2023-08-07T16:47:41+02:00</time>
      </trkpt>
      <trkpt lat="44.10955" lon="6.58645">
        <ele>1312.2002</ele>
        <time>2023-08-07T16:47:42+02:00</time>
      </trkpt>
      <trkpt lat="44.1096" lon="6.58628">
        <ele>1304.7998</ele>
        <time>2023-08-07T16:47:46+02:00</time>
      </trkpt>
      <trkpt lat="44.10961" lon="6.58624">
        <ele>1304.7998</ele>
        <time>2023-08-07T16:47:47+02:00</time>
      </trkpt>
      <trkpt lat="44.10962" lon="6.58607">
        <ele>1299.5</ele>
        <time>2023-08-07T16:47:51+02:00</time>
      </trkpt>
      <trkpt lat="44.10963" lon="6.58604">
        <ele>1296.9004</ele>
        <time>2023-08-07T16:47:52+02:00</time>
      </trkpt>
      <trkpt lat="44.10967" lon="6.58594">
        <ele>1293</ele>
        <time>2023-08-07T16:47:56+02:00</time>
      </trkpt>
      <trkpt lat="44.10969" lon="6.58591">
        <ele>1293</ele>
        <time>2023-08-07T16:47:57+02:00</time>
      </trkpt>
      <trkpt lat="44.10981" lon="6.58585">
        <ele>1287.7998</ele>
        <time>2023-08-07T16:48:01+02:00</time>
      </trkpt>
      <trkpt lat="44.10985" lon="6.58584">
        <ele>1286.2002</ele>
        <time>2023-08-07T16:48:02+02:00</time>
      </trkpt>
      <trkpt lat="44.10997" lon="6.58587">
        <ele>1282.4004</ele>
        <time>2023-08-07T16:48:06+02:00</time>
      </trkpt>
      <trkpt lat="44.11" lon="6.58589">
        <ele>1284.6006</ele>
        <time>2023-08-07T16:48:07+02:00</time>
      </trkpt>
      <trkpt lat="44.11009" lon="6.586">
        <ele>1282.1006</ele>
        <time>2023-08-07T16:48:11+02:00</time>
      </trkpt>
      <trkpt lat="44.1101" lon="6.58603">
        <ele>1282.1006</ele>
        <time>2023-08-07T16:48:12+02:00</time>
      </trkpt>
      <trkpt lat="44.11013" lon="6.58602">
        <ele>1282.1006</ele>
        <time>2023-08-07T16:48:16+02:00</time>
      </trkpt>
      <trkpt lat="44.11013" lon="6.586">
        <ele>1282.1006</ele>
        <time>2023-08-07T16:48:17+02:00</time>
      </trkpt>
      <trkpt lat="44.11011" lon="6.58594">
        <ele>1279.9004</ele>
        <time>2023-08-07T16:48:21+02:00</time>
      </trkpt>
      <trkpt lat="44.11012" lon="6.58595">
        <ele>1279.9004</ele>
        <time>2023-08-07T16:48:22+02:00</time>
      </trkpt>
      <trkpt lat="44.11016" lon="6.58599">
        <ele>1279.5</ele>
        <time>2023-08-07T16:48:26+02:00</time>
      </trkpt>
      <trkpt lat="44.11016" lon="6.58599">
        <ele>1279.5</ele>
        <time>2023-08-07T16:48:27+02:00</time>
      </trkpt>
      <trkpt lat="44.11016" lon="6.58599">
        <ele>1279.5</ele>
        <time>2023-08-07T16:48:31+02:00</time>
      </trkpt>
      <trkpt lat="44.11016" lon="6.58599">
        <ele>1279.5</ele>
        <time>2023-08-07T16:48:32+02:00</time>
      </trkpt>
      <trkpt lat="44.11016" lon="6.58599">
        <ele>1279.5</ele>
        <time>2023-08-07T16:48:36+02:00</time>
      </trkpt>
      <trkpt lat="44.11016" lon="6.58599">
        <ele>1279.5</ele>
        <time>2023-08-07T16:48:37+02:00</time>
      </trkpt>
      <trkpt lat="44.11016" lon="6.58599">
        <ele>1279.5</ele>
        <time>2023-08-07T16:48:41+02:00</time>
      </trkpt>
      <trkpt lat="44.11017" lon="6.58598">
        <ele>1279.5</ele>
        <time>2023-08-07T16:48:42+02:00</time>
      </trkpt>
      <trkpt lat="44.11016" lon="6.5859">
        <ele>1277.2998</ele>
        <time>2023-08-07T16:48:46+02:00</time>
      </trkpt>
      <trkpt lat="44.11015" lon="6.5859">
        <ele>1277.2998</ele>
        <time>2023-08-07T16:48:47+02:00</time>
      </trkpt>
      <trkpt lat="44.11015" lon="6.58589">
        <ele>1277.2998</ele>
        <time>2023-08-07T16:48:51+02:00</time>
      </trkpt>
      <trkpt lat="44.11015" lon="6.58589">
        <ele>1277.2998</ele>
        <time>2023-08-07T16:48:52+02:00</time>
      </trkpt>
      <trkpt lat="44.11012" lon="6.5858">
        <ele>1277.7002</ele>
        <time>2023-08-07T16:48:56+02:00</time>
      </trkpt>
      <trkpt lat="44.11013" lon="6.58579">
        <ele>1275.5</ele>
        <time>2023-08-07T16:48:57+02:00</time>
      </trkpt>
      <trkpt lat="44.11014" lon="6.58578">
        <ele>1275.5</ele>
        <time>2023-08-07T16:49:01+02:00</time>
      </trkpt>
      <trkpt lat="44.11014" lon="6.58578">
        <ele>1275.5</ele>
        <time>2023-08-07T16:49:02+02:00</time>
      </trkpt>
      <trkpt lat="44.11017" lon="6.5858">
        <ele>1275.1006</ele>
        <time>2023-08-07T16:49:06+02:00</time>
      </trkpt>
      <trkpt lat="44.1102" lon="6.58582">
        <ele>1275.1006</ele>
        <time>2023-08-07T16:49:07+02:00</time>
      </trkpt>
      <trkpt lat="44.11028" lon="6.58592">
        <ele>1271.9004</ele>
        <time>2023-08-07T16:49:11+02:00</time>
      </trkpt>
      <trkpt lat="44.11029" lon="6.58595">
        <ele>1271.9004</ele>
        <time>2023-08-07T16:49:12+02:00</time>
      </trkpt>
      <trkpt lat="44.11033" lon="6.58612">
        <ele>1275.9004</ele>
        <time>2023-08-07T16:49:16+02:00</time>
      </trkpt>
      <trkpt lat="44.11034" lon="6.58615">
        <ele>1275.1006</ele>
        <time>2023-08-07T16:49:17+02:00</time>
      </trkpt>
      <trkpt lat="44.11035" lon="6.58624">
        <ele>1277.1006</ele>
        <time>2023-08-07T16:49:21+02:00</time>
      </trkpt>
      <trkpt lat="44.11035" lon="6.58626">
        <ele>1277.1006</ele>
        <time>2023-08-07T16:49:22+02:00</time>
      </trkpt>
      <trkpt lat="44.11034" lon="6.58629">
        <ele>1277.1006</ele>
        <time>2023-08-07T16:49:26+02:00</time>
      </trkpt>
      <trkpt lat="44.11034" lon="6.58629">
        <ele>1277.1006</ele>
        <time>2023-08-07T16:49:27+02:00</time>
      </trkpt>
      <trkpt lat="44.11034" lon="6.58629">
        <ele>1277.1006</ele>
        <time>2023-08-07T16:49:31+02:00</time>
      </trkpt>
      <trkpt lat="44.11034" lon="6.58629">
        <ele>1277.1006</ele>
        <time>2023-08-07T16:49:32+02:00</time>
      </trkpt>
      <trkpt lat="44.11034" lon="6.58629">
        <ele>1277.1006</ele>
        <time>2023-08-07T16:49:36+02:00</time>
      </trkpt>
      <trkpt lat="44.11034" lon="6.58629">
        <ele>1277.1006</ele>
        <time>2023-08-07T16:49:37+02:00</time>
      </trkpt>
      <trkpt lat="44.11034" lon="6.58629">
        <ele>1277.1006</ele>
        <time>2023-08-07T16:49:41+02:00</time>
      </trkpt>
      <trkpt lat="44.11033" lon="6.58633">
        <ele>1279.2002</ele>
        <time>2023-08-07T16:49:42+02:00</time>
      </trkpt>
      <trkpt lat="44.11028" lon="6.58652">
        <ele>1286.7998</ele>
        <time>2023-08-07T16:49:46+02:00</time>
      </trkpt>
      <trkpt lat="44.11027" lon="6.58658">
        <ele>1292.1006</ele>
        <time>2023-08-07T16:49:47+02:00</time>
      </trkpt>
      <trkpt lat="44.11027" lon="6.58682">
        <ele>1296</ele>
        <time>2023-08-07T16:49:51+02:00</time>
      </trkpt>
      <trkpt lat="44.11027" lon="6.58688">
        <ele>1294.2998</ele>
        <time>2023-08-07T16:49:52+02:00</time>
      </trkpt>
      <trkpt lat="44.11029" lon="6.58706">
        <ele>1297.2998</ele>
        <time>2023-08-07T16:49:56+02:00</time>
      </trkpt>
      <trkpt lat="44.1103" lon="6.5871">
        <ele>1298.6006</ele>
        <time>2023-08-07T16:49:57+02:00</time>
      </trkpt>
      <trkpt lat="44.11032" lon="6.58735">
        <ele>1301.1006</ele>
        <time>2023-08-07T16:50:01+02:00</time>
      </trkpt>
      <trkpt lat="44.11034" lon="6.58742">
        <ele>1297.4004</ele>
        <time>2023-08-07T16:50:02+02:00</time>
      </trkpt>
      <trkpt lat="44.11048" lon="6.58759">
        <ele>1290.9004</ele>
        <time>2023-08-07T16:50:06+02:00</time>
      </trkpt>
      <trkpt lat="44.11051" lon="6.58762">
        <ele>1290.9004</ele>
        <time>2023-08-07T16:50:07+02:00</time>
      </trkpt>
      <trkpt lat="44.11063" lon="6.58767">
        <ele>1283</ele>
        <time>2023-08-07T16:50:11+02:00</time>
      </trkpt>
      <trkpt lat="44.11066" lon="6.58766">
        <ele>1279.1006</ele>
        <time>2023-08-07T16:50:12+02:00</time>
      </trkpt>
      <trkpt lat="44.11075" lon="6.58763">
        <ele>1275.1006</ele>
        <time>2023-08-07T16:50:16+02:00</time>
      </trkpt>
      <trkpt lat="44.11077" lon="6.58764">
        <ele>1271</ele>
        <time>2023-08-07T16:50:17+02:00</time>
      </trkpt>
      <trkpt lat="44.11091" lon="6.58767">
        <ele>1262.7998</ele>
        <time>2023-08-07T16:50:21+02:00</time>
      </trkpt>
      <trkpt lat="44.11095" lon="6.58767">
        <ele>1258.5</ele>
        <time>2023-08-07T16:50:22+02:00</time>
      </trkpt>
      <trkpt lat="44.11103" lon="6.58772">
        <ele>1253.9004</ele>
        <time>2023-08-07T16:50:26+02:00</time>
      </trkpt>
      <trkpt lat="44.11105" lon="6.58773">
        <ele>1253.9004</ele>
        <time>2023-08-07T16:50:27+02:00</time>
      </trkpt>
      <trkpt lat="44.11104" lon="6.58767">
        <ele>1254</ele>
        <time>2023-08-07T16:50:31+02:00</time>
      </trkpt>
      <trkpt lat="44.11103" lon="6.58763">
        <ele>1254</ele>
        <time>2023-08-07T16:50:32+02:00</time>
      </trkpt>
      <trkpt lat="44.111" lon="6.58748">
        <ele>1258</ele>
        <time>2023-08-07T16:50:36+02:00</time>
      </trkpt>
      <trkpt lat="44.11098" lon="6.58744">
        <ele>1258</ele>
        <time>2023-08-07T16:50:37+02:00</time>
      </trkpt>
      <trkpt lat="44.11092" lon="6.58731">
        <ele>1260.7002</ele>
        <time>2023-08-07T16:50:41+02:00</time>
      </trkpt>
      <trkpt lat="44.1109" lon="6.58728">
        <ele>1260.7002</ele>
        <time>2023-08-07T16:50:42+02:00</time>
      </trkpt>
      <trkpt lat="44.11086" lon="6.58714">
        <ele>1262.7002</ele>
        <time>2023-08-07T16:50:46+02:00</time>
      </trkpt>
      <trkpt lat="44.11084" lon="6.5871">
        <ele>1262.7002</ele>
        <time>2023-08-07T16:50:47+02:00</time>
      </trkpt>
      <trkpt lat="44.11076" lon="6.58699">
        <ele>1269.6006</ele>
        <time>2023-08-07T16:50:51+02:00</time>
      </trkpt>
      <trkpt lat="44.11073" lon="6.58698">
        <ele>1268.2998</ele>
        <time>2023-08-07T16:50:52+02:00</time>
      </trkpt>
      <trkpt lat="44.1107" lon="6.58686">
        <ele>1271</ele>
        <time>2023-08-07T16:50:56+02:00</time>
      </trkpt>
      <trkpt lat="44.11071" lon="6.58683">
        <ele>1266.9004</ele>
        <time>2023-08-07T16:50:57+02:00</time>
      </trkpt>
      <trkpt lat="44.11076" lon="6.58673">
        <ele>1260.2002</ele>
        <time>2023-08-07T16:51:01+02:00</time>
      </trkpt>
      <trkpt lat="44.11078" lon="6.58671">
        <ele>1260.2002</ele>
        <time>2023-08-07T16:51:02+02:00</time>
      </trkpt>
      <trkpt lat="44.11083" lon="6.58661">
        <ele>1254.7002</ele>
        <time>2023-08-07T16:51:06+02:00</time>
      </trkpt>
      <trkpt lat="44.11083" lon="6.58658">
        <ele>1254.7002</ele>
        <time>2023-08-07T16:51:07+02:00</time>
      </trkpt>
      <trkpt lat="44.11084" lon="6.58648">
        <ele>1253.2002</ele>
        <time>2023-08-07T16:51:11+02:00</time>
      </trkpt>
      <trkpt lat="44.11084" lon="6.58648">
        <ele>1251.6006</ele>
        <time>2023-08-07T16:51:12+02:00</time>
      </trkpt>
      <trkpt lat="44.11085" lon="6.58643">
        <ele>1251.6006</ele>
        <time>2023-08-07T16:51:16+02:00</time>
      </trkpt>
      <trkpt lat="44.11085" lon="6.58641">
        <ele>1251.6006</ele>
        <time>2023-08-07T16:51:17+02:00</time>
      </trkpt>
      <trkpt lat="44.11087" lon="6.58639">
        <ele>1251.6006</ele>
        <time>2023-08-07T16:51:21+02:00</time>
      </trkpt>
      <trkpt lat="44.11087" lon="6.5864">
        <ele>1251.6006</ele>
        <time>2023-08-07T16:51:22+02:00</time>
      </trkpt>
      <trkpt lat="44.11089" lon="6.58643">
        <ele>1247.4004</ele>
        <time>2023-08-07T16:51:26+02:00</time>
      </trkpt>
      <trkpt lat="44.11089" lon="6.58643">
        <ele>1247.4004</ele>
        <time>2023-08-07T16:51:27+02:00</time>
      </trkpt>
      <trkpt lat="44.11094" lon="6.58653">
        <ele>1248.9004</ele>
        <time>2023-08-07T16:51:31+02:00</time>
      </trkpt>
      <trkpt lat="44.11096" lon="6.58656">
        <ele>1244.5</ele>
        <time>2023-08-07T16:51:32+02:00</time>
      </trkpt>
      <trkpt lat="44.11105" lon="6.58669">
        <ele>1242.9004</ele>
        <time>2023-08-07T16:51:36+02:00</time>
      </trkpt>
      <trkpt lat="44.11107" lon="6.58673">
        <ele>1242.9004</ele>
        <time>2023-08-07T16:51:37+02:00</time>
      </trkpt>
      <trkpt lat="44.11115" lon="6.58683">
        <ele>1236.2002</ele>
        <time>2023-08-07T16:51:41+02:00</time>
      </trkpt>
      <trkpt lat="44.11118" lon="6.58685">
        <ele>1236.2002</ele>
        <time>2023-08-07T16:51:42+02:00</time>
      </trkpt>
      <trkpt lat="44.11129" lon="6.58692">
        <ele>1227.5</ele>
        <time>2023-08-07T16:51:46+02:00</time>
      </trkpt>
      <trkpt lat="44.11131" lon="6.58694">
        <ele>1227.5</ele>
        <time>2023-08-07T16:51:47+02:00</time>
      </trkpt>
      <trkpt lat="44.11138" lon="6.587">
        <ele>1218.6006</ele>
        <time>2023-08-07T16:51:51+02:00</time>
      </trkpt>
      <trkpt lat="44.1114" lon="6.58701">
        <ele>1218.6006</ele>
        <time>2023-08-07T16:51:52+02:00</time>
      </trkpt>
      <trkpt lat="44.11147" lon="6.58708">
        <ele>1214.7998</ele>
        <time>2023-08-07T16:51:56+02:00</time>
      </trkpt>
      <trkpt lat="44.11149" lon="6.58711">
        <ele>1214.7998</ele>
        <time>2023-08-07T16:51:57+02:00</time>
      </trkpt>
      <trkpt lat="44.11152" lon="6.58718">
        <ele>1210.6006</ele>
        <time>2023-08-07T16:52:01+02:00</time>
      </trkpt>
      <trkpt lat="44.11153" lon="6.58717">
        <ele>1210.6006</ele>
        <time>2023-08-07T16:52:02+02:00</time>
      </trkpt>
      <trkpt lat="44.11153" lon="6.58707">
        <ele>1208.2002</ele>
        <time>2023-08-07T16:52:06+02:00</time>
      </trkpt>
      <trkpt lat="44.11153" lon="6.58704">
        <ele>1208.2002</ele>
        <time>2023-08-07T16:52:07+02:00</time>
      </trkpt>
      <trkpt lat="44.11154" lon="6.58693">
        <ele>1206.7002</ele>
        <time>2023-08-07T16:52:11+02:00</time>
      </trkpt>
      <trkpt lat="44.11153" lon="6.58688">
        <ele>1205.2002</ele>
        <time>2023-08-07T16:52:12+02:00</time>
      </trkpt>
      <trkpt lat="44.11151" lon="6.58672">
        <ele>1202.2998</ele>
        <time>2023-08-07T16:52:16+02:00</time>
      </trkpt>
      <trkpt lat="44.1115" lon="6.58667">
        <ele>1202.2998</ele>
        <time>2023-08-07T16:52:17+02:00</time>
      </trkpt>
      <trkpt lat="44.11149" lon="6.58654">
        <ele>1204.6006</ele>
        <time>2023-08-07T16:52:21+02:00</time>
      </trkpt>
      <trkpt lat="44.11149" lon="6.58652">
        <ele>1204.6006</ele>
        <time>2023-08-07T16:52:22+02:00</time>
      </trkpt>
      <trkpt lat="44.11148" lon="6.58641">
        <ele>1203.2002</ele>
        <time>2023-08-07T16:52:26+02:00</time>
      </trkpt>
      <trkpt lat="44.11148" lon="6.58637">
        <ele>1202</ele>
        <time>2023-08-07T16:52:27+02:00</time>
      </trkpt>
      <trkpt lat="44.11145" lon="6.58622">
        <ele>1199.5</ele>
        <time>2023-08-07T16:52:31+02:00</time>
      </trkpt>
      <trkpt lat="44.11145" lon="6.58618">
        <ele>1199.5</ele>
        <time>2023-08-07T16:52:32+02:00</time>
      </trkpt>
      <trkpt lat="44.11145" lon="6.58605">
        <ele>1198.1006</ele>
        <time>2023-08-07T16:52:36+02:00</time>
      </trkpt>
      <trkpt lat="44.11145" lon="6.58603">
        <ele>1196.5</ele>
        <time>2023-08-07T16:52:37+02:00</time>
      </trkpt>
      <trkpt lat="44.11149" lon="6.58605">
        <ele>1198.1006</ele>
        <time>2023-08-07T16:52:41+02:00</time>
      </trkpt>
      <trkpt lat="44.11151" lon="6.58607">
        <ele>1193.2998</ele>
        <time>2023-08-07T16:52:42+02:00</time>
      </trkpt>
      <trkpt lat="44.11162" lon="6.5862">
        <ele>1189.9004</ele>
        <time>2023-08-07T16:52:46+02:00</time>
      </trkpt>
      <trkpt lat="44.11164" lon="6.58622">
        <ele>1186.2002</ele>
        <time>2023-08-07T16:52:47+02:00</time>
      </trkpt>
      <trkpt lat="44.11172" lon="6.5863">
        <ele>1182.4004</ele>
        <time>2023-08-07T16:52:51+02:00</time>
      </trkpt>
      <trkpt lat="44.11174" lon="6.58633">
        <ele>1182.4004</ele>
        <time>2023-08-07T16:52:52+02:00</time>
      </trkpt>
      <trkpt lat="44.11182" lon="6.58646">
        <ele>1174.7998</ele>
        <time>2023-08-07T16:52:56+02:00</time>
      </trkpt>
      <trkpt lat="44.11185" lon="6.58649">
        <ele>1176</ele>
        <time>2023-08-07T16:52:57+02:00</time>
      </trkpt>
      <trkpt lat="44.11196" lon="6.58659">
        <ele>1169.6006</ele>
        <time>2023-08-07T16:53:01+02:00</time>
      </trkpt>
      <trkpt lat="44.11198" lon="6.58662">
        <ele>1169.6006</ele>
        <time>2023-08-07T16:53:02+02:00</time>
      </trkpt>
      <trkpt lat="44.11207" lon="6.5867">
        <ele>1164.4004</ele>
        <time>2023-08-07T16:53:06+02:00</time>
      </trkpt>
      <trkpt lat="44.11209" lon="6.58672">
        <ele>1164.4004</ele>
        <time>2023-08-07T16:53:07+02:00</time>
      </trkpt>
      <trkpt lat="44.11217" lon="6.58684">
        <ele>1163.7002</ele>
        <time>2023-08-07T16:53:11+02:00</time>
      </trkpt>
      <trkpt lat="44.11218" lon="6.58687">
        <ele>1161</ele>
        <time>2023-08-07T16:53:12+02:00</time>
      </trkpt>
      <trkpt lat="44.11224" lon="6.58702">
        <ele>1162.9004</ele>
        <time>2023-08-07T16:53:16+02:00</time>
      </trkpt>
      <trkpt lat="44.11226" lon="6.58705">
        <ele>1160.2998</ele>
        <time>2023-08-07T16:53:17+02:00</time>
      </trkpt>
      <trkpt lat="44.11231" lon="6.58718">
        <ele>1159.1006</ele>
        <time>2023-08-07T16:53:21+02:00</time>
      </trkpt>
      <trkpt lat="44.11232" lon="6.58721">
        <ele>1159.1006</ele>
        <time>2023-08-07T16:53:22+02:00</time>
      </trkpt>
      <trkpt lat="44.11237" lon="6.58724">
        <ele>1156.7998</ele>
        <time>2023-08-07T16:53:26+02:00</time>
      </trkpt>
      <trkpt lat="44.11239" lon="6.58723">
        <ele>1156.7998</ele>
        <time>2023-08-07T16:53:27+02:00</time>
      </trkpt>
      <trkpt lat="44.11246" lon="6.58715">
        <ele>1154.6006</ele>
        <time>2023-08-07T16:53:31+02:00</time>
      </trkpt>
      <trkpt lat="44.11247" lon="6.58713">
        <ele>1154.6006</ele>
        <time>2023-08-07T16:53:32+02:00</time>
      </trkpt>
      <trkpt lat="44.11255" lon="6.58703">
        <ele>1151.7002</ele>
        <time>2023-08-07T16:53:36+02:00</time>
      </trkpt>
      <trkpt lat="44.11257" lon="6.58702">
        <ele>1151.7002</ele>
        <time>2023-08-07T16:53:37+02:00</time>
      </trkpt>
      <trkpt lat="44.11265" lon="6.58697">
        <ele>1150.4004</ele>
        <time>2023-08-07T16:53:41+02:00</time>
      </trkpt>
      <trkpt lat="44.11267" lon="6.58694">
        <ele>1150.4004</ele>
        <time>2023-08-07T16:53:42+02:00</time>
      </trkpt>
      <trkpt lat="44.11264" lon="6.58686">
        <ele>1149.7998</ele>
        <time>2023-08-07T16:53:46+02:00</time>
      </trkpt>
      <trkpt lat="44.11264" lon="6.58686">
        <ele>1149.7998</ele>
        <time>2023-08-07T16:53:47+02:00</time>
      </trkpt>
      <trkpt lat="44.11263" lon="6.58683">
        <ele>1149.7998</ele>
        <time>2023-08-07T16:53:51+02:00</time>
      </trkpt>
      <trkpt lat="44.11263" lon="6.58683">
        <ele>1149.7998</ele>
        <time>2023-08-07T16:53:52+02:00</time>
      </trkpt>
      <trkpt lat="44.11263" lon="6.58683">
        <ele>1149.7998</ele>
        <time>2023-08-07T16:53:56+02:00</time>
      </trkpt>
      <trkpt lat="44.11263" lon="6.58683">
        <ele>1149.7998</ele>
        <time>2023-08-07T16:53:57+02:00</time>
      </trkpt>
      <trkpt lat="44.11264" lon="6.58683">
        <ele>1149.7998</ele>
        <time>2023-08-07T16:54:01+02:00</time>
      </trkpt>
      <trkpt lat="44.11264" lon="6.58683">
        <ele>1149.7998</ele>
        <time>2023-08-07T16:54:02+02:00</time>
      </trkpt>
      <trkpt lat="44.11264" lon="6.58683">
        <ele>1149.7998</ele>
        <time>2023-08-07T16:54:06+02:00</time>
      </trkpt>
      <trkpt lat="44.11264" lon="6.58683">
        <ele>1149.7998</ele>
        <time>2023-08-07T16:54:07+02:00</time>
      </trkpt>
      <trkpt lat="44.11264" lon="6.58683">
        <ele>1149.7998</ele>
        <time>2023-08-07T16:54:11+02:00</time>
      </trkpt>
      <trkpt lat="44.11264" lon="6.58683">
        <ele>1149.7998</ele>
        <time>2023-08-07T16:54:12+02:00</time>
      </trkpt>
      <trkpt lat="44.11264" lon="6.58683">
        <ele>1149.7998</ele>
        <time>2023-08-07T16:54:16+02:00</time>
      </trkpt>
      <trkpt lat="44.11264" lon="6.58683">
        <ele>1149.7998</ele>
        <time>2023-08-07T16:54:17+02:00</time>
      </trkpt>
      <trkpt lat="44.11264" lon="6.58683">
        <ele>1149.7998</ele>
        <time>2023-08-07T16:54:21+02:00</time>
      </trkpt>
      <trkpt lat="44.11264" lon="6.58683">
        <ele>1149.7998</ele>
        <time>2023-08-07T16:54:22+02:00</time>
      </trkpt>
      <trkpt lat="44.11264" lon="6.58683">
        <ele>1149.7998</ele>
        <time>2023-08-07T16:54:26+02:00</time>
      </trkpt>
      <trkpt lat="44.11264" lon="6.58683">
        <ele>1149.7998</ele>
        <time>2023-08-07T16:54:27+02:00</time>
      </trkpt>
      <trkpt lat="44.11264" lon="6.58683">
        <ele>1149.7998</ele>
        <time>2023-08-07T16:54:31+02:00</time>
      </trkpt>
      <trkpt lat="44.11264" lon="6.58683">
        <ele>1149.7998</ele>
        <time>2023-08-07T16:54:32+02:00</time>
      </trkpt>
      <trkpt lat="44.11264" lon="6.58683">
        <ele>1149.7998</ele>
        <time>2023-08-07T16:54:36+02:00</time>
      </trkpt>
      <trkpt lat="44.11264" lon="6.58683">
        <ele>1149.7998</ele>
        <time>2023-08-07T16:54:37+02:00</time>
      </trkpt>
      <trkpt lat="44.11264" lon="6.58683">
        <ele>1149.7998</ele>
        <time>2023-08-07T16:54:41+02:00</time>
      </trkpt>
      <trkpt lat="44.11264" lon="6.58683">
        <ele>1149.7998</ele>
        <time>2023-08-07T16:54:42+02:00</time>
      </trkpt>
      <trkpt lat="44.11264" lon="6.58683">
        <ele>1149.7998</ele>
        <time>2023-08-07T16:54:46+02:00</time>
      </trkpt>
      <trkpt lat="44.11264" lon="6.58683">
        <ele>1149.7998</ele>
        <time>2023-08-07T16:54:47+02:00</time>
      </trkpt>
      <trkpt lat="44.11264" lon="6.58683">
        <ele>1149.7998</ele>
        <time>2023-08-07T16:54:51+02:00</time>
      </trkpt>
      <trkpt lat="44.11264" lon="6.58683">
        <ele>1149.7998</ele>
        <time>2023-08-07T16:54:52+02:00</time>
      </trkpt>
      <trkpt lat="44.11264" lon="6.58683">
        <ele>1149.7998</ele>
        <time>2023-08-07T16:54:56+02:00</time>
      </trkpt>
      <trkpt lat="44.11264" lon="6.58683">
        <ele>1149.7998</ele>
        <time>2023-08-07T16:54:57+02:00</time>
      </trkpt>
      <trkpt lat="44.11264" lon="6.58697">
        <ele>1150.4004</ele>
        <time>2023-08-07T16:55:01+02:00</time>
      </trkpt>
      <trkpt lat="44.11265" lon="6.587">
        <ele>1150.7998</ele>
        <time>2023-08-07T16:55:02+02:00</time>
      </trkpt>
      <trkpt lat="44.11261" lon="6.58716">
        <ele>1151.7002</ele>
        <time>2023-08-07T16:55:06+02:00</time>
      </trkpt>
      <trkpt lat="44.11259" lon="6.5872">
        <ele>1151.7002</ele>
        <time>2023-08-07T16:55:07+02:00</time>
      </trkpt>
      <trkpt lat="44.1125" lon="6.58738">
        <ele>1153.5</ele>
        <time>2023-08-07T16:55:11+02:00</time>
      </trkpt>
      <trkpt lat="44.11248" lon="6.58743">
        <ele>1155.7998</ele>
        <time>2023-08-07T16:55:12+02:00</time>
      </trkpt>
      <trkpt lat="44.11245" lon="6.5876">
        <ele>1156.9004</ele>
        <time>2023-08-07T16:55:16+02:00</time>
      </trkpt>
      <trkpt lat="44.11246" lon="6.58764">
        <ele>1156.9004</ele>
        <time>2023-08-07T16:55:17+02:00</time>
      </trkpt>
      <trkpt lat="44.11247" lon="6.58775">
        <ele>1158</ele>
        <time>2023-08-07T16:55:21+02:00</time>
      </trkpt>
      <trkpt lat="44.11247" lon="6.58778">
        <ele>1159.4004</ele>
        <time>2023-08-07T16:55:22+02:00</time>
      </trkpt>
      <trkpt lat="44.11248" lon="6.58786">
        <ele>1160.7998</ele>
        <time>2023-08-07T16:55:26+02:00</time>
      </trkpt>
      <trkpt lat="44.11248" lon="6.58788">
        <ele>1160.7998</ele>
        <time>2023-08-07T16:55:27+02:00</time>
      </trkpt>
      <trkpt lat="44.11249" lon="6.58799">
        <ele>1161.2998</ele>
        <time>2023-08-07T16:55:31+02:00</time>
      </trkpt>
      <trkpt lat="44.11249" lon="6.58803">
        <ele>1162.5</ele>
        <time>2023-08-07T16:55:32+02:00</time>
      </trkpt>
      <trkpt lat="44.1125" lon="6.58816">
        <ele>1163.7002</ele>
        <time>2023-08-07T16:55:36+02:00</time>
      </trkpt>
      <trkpt lat="44.11249" lon="6.58819">
        <ele>1163.7002</ele>
        <time>2023-08-07T16:55:37+02:00</time>
      </trkpt>
      <trkpt lat="44.11245" lon="6.58831">
        <ele>1166.9004</ele>
        <time>2023-08-07T16:55:41+02:00</time>
      </trkpt>
      <trkpt lat="44.11244" lon="6.58834">
        <ele>1166.9004</ele>
        <time>2023-08-07T16:55:42+02:00</time>
      </trkpt>
      <trkpt lat="44.11238" lon="6.58845">
        <ele>1171.1006</ele>
        <time>2023-08-07T16:55:46+02:00</time>
      </trkpt>
      <trkpt lat="44.11237" lon="6.58848">
        <ele>1171.1006</ele>
        <time>2023-08-07T16:55:47+02:00</time>
      </trkpt>
      <trkpt lat="44.11241" lon="6.58855">
        <ele>1172.5</ele>
        <time>2023-08-07T16:55:51+02:00</time>
      </trkpt>
      <trkpt lat="44.11243" lon="6.58855">
        <ele>1171.6006</ele>
        <time>2023-08-07T16:55:52+02:00</time>
      </trkpt>
      <trkpt lat="44.1125" lon="6.58849">
        <ele>1169.4004</ele>
        <time>2023-08-07T16:55:56+02:00</time>
      </trkpt>
      <trkpt lat="44.11252" lon="6.58847">
        <ele>1169.4004</ele>
        <time>2023-08-07T16:55:57+02:00</time>
      </trkpt>
      <trkpt lat="44.11259" lon="6.58841">
        <ele>1167.2002</ele>
        <time>2023-08-07T16:56:01+02:00</time>
      </trkpt>
      <trkpt lat="44.11261" lon="6.5884">
        <ele>1167.2002</ele>
        <time>2023-08-07T16:56:02+02:00</time>
      </trkpt>
      <trkpt lat="44.11267" lon="6.58833">
        <ele>1164.4004</ele>
        <time>2023-08-07T16:56:06+02:00</time>
      </trkpt>
      <trkpt lat="44.11269" lon="6.58831">
        <ele>1164.4004</ele>
        <time>2023-08-07T16:56:07+02:00</time>
      </trkpt>
      <trkpt lat="44.11276" lon="6.58825">
        <ele>1162.2002</ele>
        <time>2023-08-07T16:56:11+02:00</time>
      </trkpt>
      <trkpt lat="44.11277" lon="6.58824">
        <ele>1162.2002</ele>
        <time>2023-08-07T16:56:12+02:00</time>
      </trkpt>
      <trkpt lat="44.11285" lon="6.58818">
        <ele>1160.5</ele>
        <time>2023-08-07T16:56:16+02:00</time>
      </trkpt>
      <trkpt lat="44.11287" lon="6.58817">
        <ele>1160.5</ele>
        <time>2023-08-07T16:56:17+02:00</time>
      </trkpt>
      <trkpt lat="44.11295" lon="6.58811">
        <ele>1161.2998</ele>
        <time>2023-08-07T16:56:21+02:00</time>
      </trkpt>
      <trkpt lat="44.11297" lon="6.5881">
        <ele>1159.6006</ele>
        <time>2023-08-07T16:56:22+02:00</time>
      </trkpt>
      <trkpt lat="44.11305" lon="6.58805">
        <ele>1161.9004</ele>
        <time>2023-08-07T16:56:26+02:00</time>
      </trkpt>
      <trkpt lat="44.11306" lon="6.58804">
        <ele>1161.9004</ele>
        <time>2023-08-07T16:56:27+02:00</time>
      </trkpt>
      <trkpt lat="44.11314" lon="6.58799">
        <ele>1161.7998</ele>
        <time>2023-08-07T16:56:31+02:00</time>
      </trkpt>
      <trkpt lat="44.11316" lon="6.58798">
        <ele>1161.7998</ele>
        <time>2023-08-07T16:56:32+02:00</time>
      </trkpt>
      <trkpt lat="44.11325" lon="6.58794">
        <ele>1165.4004</ele>
        <time>2023-08-07T16:56:36+02:00</time>
      </trkpt>
      <trkpt lat="44.11327" lon="6.58793">
        <ele>1163.6006</ele>
        <time>2023-08-07T16:56:37+02:00</time>
      </trkpt>
      <trkpt lat="44.11336" lon="6.58787">
        <ele>1167.4004</ele>
        <time>2023-08-07T16:56:41+02:00</time>
      </trkpt>
      <trkpt lat="44.11338" lon="6.58785">
        <ele>1167.4004</ele>
        <time>2023-08-07T16:56:42+02:00</time>
      </trkpt>
      <trkpt lat="44.11347" lon="6.5878">
        <ele>1167.4004</ele>
        <time>2023-08-07T16:56:46+02:00</time>
      </trkpt>
      <trkpt lat="44.1135" lon="6.58778">
        <ele>1169.2002</ele>
        <time>2023-08-07T16:56:47+02:00</time>
      </trkpt>
      <trkpt lat="44.11359" lon="6.58772">
        <ele>1169</ele>
        <time>2023-08-07T16:56:51+02:00</time>
      </trkpt>
      <trkpt lat="44.11361" lon="6.58771">
        <ele>1170.6006</ele>
        <time>2023-08-07T16:56:52+02:00</time>
      </trkpt>
      <trkpt lat="44.1137" lon="6.58766">
        <ele>1170.2002</ele>
        <time>2023-08-07T16:56:56+02:00</time>
      </trkpt>
      <trkpt lat="44.11373" lon="6.58764">
        <ele>1171.7002</ele>
        <time>2023-08-07T16:56:57+02:00</time>
      </trkpt>
      <trkpt lat="44.11381" lon="6.58761">
        <ele>1173.1006</ele>
        <time>2023-08-07T16:57:01+02:00</time>
      </trkpt>
      <trkpt lat="44.11383" lon="6.58761">
        <ele>1173.1006</ele>
        <time>2023-08-07T16:57:02+02:00</time>
      </trkpt>
      <trkpt lat="44.11383" lon="6.5877">
        <ele>1175.2002</ele>
        <time>2023-08-07T16:57:06+02:00</time>
      </trkpt>
      <trkpt lat="44.11382" lon="6.58772">
        <ele>1175.2002</ele>
        <time>2023-08-07T16:57:07+02:00</time>
      </trkpt>
      <trkpt lat="44.11377" lon="6.58778">
        <ele>1175.7998</ele>
        <time>2023-08-07T16:57:11+02:00</time>
      </trkpt>
      <trkpt lat="44.11375" lon="6.5878">
        <ele>1175.7998</ele>
        <time>2023-08-07T16:57:12+02:00</time>
      </trkpt>
      <trkpt lat="44.1137" lon="6.58789">
        <ele>1176.2998</ele>
        <time>2023-08-07T16:57:16+02:00</time>
      </trkpt>
      <trkpt lat="44.11368" lon="6.58791">
        <ele>1176.2998</ele>
        <time>2023-08-07T16:57:17+02:00</time>
      </trkpt>
      <trkpt lat="44.11363" lon="6.588">
        <ele>1176.6006</ele>
        <time>2023-08-07T16:57:21+02:00</time>
      </trkpt>
      <trkpt lat="44.11361" lon="6.58802">
        <ele>1178.5</ele>
        <time>2023-08-07T16:57:22+02:00</time>
      </trkpt>
      <trkpt lat="44.11355" lon="6.58811">
        <ele>1176.7002</ele>
        <time>2023-08-07T16:57:26+02:00</time>
      </trkpt>
      <trkpt lat="44.11354" lon="6.58812">
        <ele>1178.6006</ele>
        <time>2023-08-07T16:57:27+02:00</time>
      </trkpt>
      <trkpt lat="44.11348" lon="6.5882">
        <ele>1178.7002</ele>
        <time>2023-08-07T16:57:31+02:00</time>
      </trkpt>
      <trkpt lat="44.11347" lon="6.58823">
        <ele>1176.7998</ele>
        <time>2023-08-07T16:57:32+02:00</time>
      </trkpt>
      <trkpt lat="44.1134" lon="6.58833">
        <ele>1177</ele>
        <time>2023-08-07T16:57:36+02:00</time>
      </trkpt>
      <trkpt lat="44.11338" lon="6.58835">
        <ele>1177</ele>
        <time>2023-08-07T16:57:37+02:00</time>
      </trkpt>
      <trkpt lat="44.11331" lon="6.58844">
        <ele>1177.2998</ele>
        <time>2023-08-07T16:57:41+02:00</time>
      </trkpt>
      <trkpt lat="44.11329" lon="6.58846">
        <ele>1179.5</ele>
        <time>2023-08-07T16:57:42+02:00</time>
      </trkpt>
      <trkpt lat="44.11322" lon="6.58853">
        <ele>1176</ele>
        <time>2023-08-07T16:57:46+02:00</time>
      </trkpt>
      <trkpt lat="44.11321" lon="6.58855">
        <ele>1178.4004</ele>
        <time>2023-08-07T16:57:47+02:00</time>
      </trkpt>
      <trkpt lat="44.11314" lon="6.58863">
        <ele>1179.2998</ele>
        <time>2023-08-07T16:57:51+02:00</time>
      </trkpt>
      <trkpt lat="44.11312" lon="6.58865">
        <ele>1179.2998</ele>
        <time>2023-08-07T16:57:52+02:00</time>
      </trkpt>
      <trkpt lat="44.11306" lon="6.58874">
        <ele>1180.2002</ele>
        <time>2023-08-07T16:57:56+02:00</time>
      </trkpt>
      <trkpt lat="44.11304" lon="6.58876">
        <ele>1180.2002</ele>
        <time>2023-08-07T16:57:57+02:00</time>
      </trkpt>
      <trkpt lat="44.11297" lon="6.58886">
        <ele>1179.7002</ele>
        <time>2023-08-07T16:58:01+02:00</time>
      </trkpt>
      <trkpt lat="44.11296" lon="6.58889">
        <ele>1182</ele>
        <time>2023-08-07T16:58:02+02:00</time>
      </trkpt>
      <trkpt lat="44.11295" lon="6.58902">
        <ele>1184.2998</ele>
        <time>2023-08-07T16:58:06+02:00</time>
      </trkpt>
      <trkpt lat="44.11297" lon="6.58905">
        <ele>1184.2998</ele>
        <time>2023-08-07T16:58:07+02:00</time>
      </trkpt>
      <trkpt lat="44.11306" lon="6.58904">
        <ele>1187.2998</ele>
        <time>2023-08-07T16:58:11+02:00</time>
      </trkpt>
      <trkpt lat="44.11308" lon="6.58903">
        <ele>1187.2998</ele>
        <time>2023-08-07T16:58:12+02:00</time>
      </trkpt>
      <trkpt lat="44.11315" lon="6.58894">
        <ele>1186.6006</ele>
        <time>2023-08-07T16:58:16+02:00</time>
      </trkpt>
      <trkpt lat="44.11318" lon="6.58891">
        <ele>1188.2002</ele>
        <time>2023-08-07T16:58:17+02:00</time>
      </trkpt>
      <trkpt lat="44.11327" lon="6.58884">
        <ele>1187.5</ele>
        <time>2023-08-07T16:58:21+02:00</time>
      </trkpt>
      <trkpt lat="44.1133" lon="6.58883">
        <ele>1189</ele>
        <time>2023-08-07T16:58:22+02:00</time>
      </trkpt>
      <trkpt lat="44.1134" lon="6.58878">
        <ele>1188.2002</ele>
        <time>2023-08-07T16:58:26+02:00</time>
      </trkpt>
      <trkpt lat="44.11343" lon="6.58877">
        <ele>1189.7002</ele>
        <time>2023-08-07T16:58:27+02:00</time>
      </trkpt>
      <trkpt lat="44.11351" lon="6.58872">
        <ele>1191.2002</ele>
        <time>2023-08-07T16:58:31+02:00</time>
      </trkpt>
      <trkpt lat="44.11354" lon="6.58871">
        <ele>1192.7002</ele>
        <time>2023-08-07T16:58:32+02:00</time>
      </trkpt>
      <trkpt lat="44.11363" lon="6.58867">
        <ele>1192.2002</ele>
        <time>2023-08-07T16:58:36+02:00</time>
      </trkpt>
      <trkpt lat="44.11366" lon="6.58865">
        <ele>1193.7998</ele>
        <time>2023-08-07T16:58:37+02:00</time>
      </trkpt>
      <trkpt lat="44.11376" lon="6.5886">
        <ele>1193.4004</ele>
        <time>2023-08-07T16:58:41+02:00</time>
      </trkpt>
      <trkpt lat="44.11379" lon="6.58859">
        <ele>1195.1006</ele>
        <time>2023-08-07T16:58:42+02:00</time>
      </trkpt>
      <trkpt lat="44.11389" lon="6.58854">
        <ele>1196.7002</ele>
        <time>2023-08-07T16:58:46+02:00</time>
      </trkpt>
      <trkpt lat="44.11391" lon="6.58852">
        <ele>1196.2002</ele>
        <time>2023-08-07T16:58:47+02:00</time>
      </trkpt>
      <trkpt lat="44.11401" lon="6.58847">
        <ele>1197.7002</ele>
        <time>2023-08-07T16:58:51+02:00</time>
      </trkpt>
      <trkpt lat="44.11404" lon="6.58846">
        <ele>1199.2002</ele>
        <time>2023-08-07T16:58:52+02:00</time>
      </trkpt>
      <trkpt lat="44.11414" lon="6.58841">
        <ele>1198.4004</ele>
        <time>2023-08-07T16:58:56+02:00</time>
      </trkpt>
      <trkpt lat="44.11416" lon="6.5884">
        <ele>1199.7998</ele>
        <time>2023-08-07T16:58:57+02:00</time>
      </trkpt>
      <trkpt lat="44.11427" lon="6.58835">
        <ele>1198.9004</ele>
        <time>2023-08-07T16:59:01+02:00</time>
      </trkpt>
      <trkpt lat="44.1143" lon="6.58834">
        <ele>1200.2998</ele>
        <time>2023-08-07T16:59:02+02:00</time>
      </trkpt>
      <trkpt lat="44.1144" lon="6.5883">
        <ele>1203.4004</ele>
        <time>2023-08-07T16:59:06+02:00</time>
      </trkpt>
      <trkpt lat="44.11443" lon="6.58829">
        <ele>1203.4004</ele>
        <time>2023-08-07T16:59:07+02:00</time>
      </trkpt>
      <trkpt lat="44.11451" lon="6.58825">
        <ele>1202.7002</ele>
        <time>2023-08-07T16:59:11+02:00</time>
      </trkpt>
      <trkpt lat="44.11454" lon="6.58823">
        <ele>1204.5</ele>
        <time>2023-08-07T16:59:12+02:00</time>
      </trkpt>
      <trkpt lat="44.11462" lon="6.58817">
        <ele>1203.7998</ele>
        <time>2023-08-07T16:59:16+02:00</time>
      </trkpt>
      <trkpt lat="44.11465" lon="6.58815">
        <ele>1205.6006</ele>
        <time>2023-08-07T16:59:17+02:00</time>
      </trkpt>
      <trkpt lat="44.11473" lon="6.58807">
        <ele>1204.9004</ele>
        <time>2023-08-07T16:59:21+02:00</time>
      </trkpt>
      <trkpt lat="44.11475" lon="6.58804">
        <ele>1204.9004</ele>
        <time>2023-08-07T16:59:22+02:00</time>
      </trkpt>
      <trkpt lat="44.11483" lon="6.58795">
        <ele>1206.2002</ele>
        <time>2023-08-07T16:59:26+02:00</time>
      </trkpt>
      <trkpt lat="44.11485" lon="6.58792">
        <ele>1203.5</ele>
        <time>2023-08-07T16:59:27+02:00</time>
      </trkpt>
      <trkpt lat="44.11493" lon="6.58783">
        <ele>1202.7002</ele>
        <time>2023-08-07T16:59:31+02:00</time>
      </trkpt>
      <trkpt lat="44.11495" lon="6.58781">
        <ele>1202.7002</ele>
        <time>2023-08-07T16:59:32+02:00</time>
      </trkpt>
      <trkpt lat="44.11504" lon="6.58777">
        <ele>1206.6006</ele>
        <time>2023-08-07T16:59:36+02:00</time>
      </trkpt>
      <trkpt lat="44.11507" lon="6.58776">
        <ele>1203.7998</ele>
        <time>2023-08-07T16:59:37+02:00</time>
      </trkpt>
      <trkpt lat="44.11517" lon="6.58772">
        <ele>1207.7998</ele>
        <time>2023-08-07T16:59:41+02:00</time>
      </trkpt>
      <trkpt lat="44.11519" lon="6.5877">
        <ele>1207.7998</ele>
        <time>2023-08-07T16:59:42+02:00</time>
      </trkpt>
      <trkpt lat="44.11529" lon="6.58765">
        <ele>1208.7998</ele>
        <time>2023-08-07T16:59:46+02:00</time>
      </trkpt>
      <trkpt lat="44.11531" lon="6.58763">
        <ele>1208.7998</ele>
        <time>2023-08-07T16:59:47+02:00</time>
      </trkpt>
      <trkpt lat="44.11541" lon="6.58759">
        <ele>1209.9004</ele>
        <time>2023-08-07T16:59:51+02:00</time>
      </trkpt>
      <trkpt lat="44.11543" lon="6.58758">
        <ele>1209.9004</ele>
        <time>2023-08-07T16:59:52+02:00</time>
      </trkpt>
      <trkpt lat="44.11554" lon="6.58758">
        <ele>1214</ele>
        <time>2023-08-07T16:59:56+02:00</time>
      </trkpt>
      <trkpt lat="44.11556" lon="6.58758">
        <ele>1214</ele>
        <time>2023-08-07T16:59:57+02:00</time>
      </trkpt>
      <trkpt lat="44.11567" lon="6.58756">
        <ele>1217.6006</ele>
        <time>2023-08-07T17:00:01+02:00</time>
      </trkpt>
      <trkpt lat="44.11571" lon="6.58755">
        <ele>1219.2998</ele>
        <time>2023-08-07T17:00:02+02:00</time>
      </trkpt>
      <trkpt lat="44.11582" lon="6.58753">
        <ele>1222.2002</ele>
        <time>2023-08-07T17:00:06+02:00</time>
      </trkpt>
      <trkpt lat="44.11584" lon="6.58752">
        <ele>1222.2002</ele>
        <time>2023-08-07T17:00:07+02:00</time>
      </trkpt>
      <trkpt lat="44.11594" lon="6.5875">
        <ele>1222.1006</ele>
        <time>2023-08-07T17:00:11+02:00</time>
      </trkpt>
      <trkpt lat="44.11597" lon="6.5875">
        <ele>1222.1006</ele>
        <time>2023-08-07T17:00:12+02:00</time>
      </trkpt>
      <trkpt lat="44.11608" lon="6.58752">
        <ele>1226.2998</ele>
        <time>2023-08-07T17:00:16+02:00</time>
      </trkpt>
      <trkpt lat="44.11611" lon="6.58753">
        <ele>1226.2998</ele>
        <time>2023-08-07T17:00:17+02:00</time>
      </trkpt>
      <trkpt lat="44.1162" lon="6.5876">
        <ele>1229.6006</ele>
        <time>2023-08-07T17:00:21+02:00</time>
      </trkpt>
      <trkpt lat="44.11622" lon="6.58762">
        <ele>1229.6006</ele>
        <time>2023-08-07T17:00:22+02:00</time>
      </trkpt>
      <trkpt lat="44.11632" lon="6.58769">
        <ele>1231.9004</ele>
        <time>2023-08-07T17:00:26+02:00</time>
      </trkpt>
      <trkpt lat="44.11634" lon="6.5877">
        <ele>1231.9004</ele>
        <time>2023-08-07T17:00:27+02:00</time>
      </trkpt>
      <trkpt lat="44.11643" lon="6.58776">
        <ele>1231.7002</ele>
        <time>2023-08-07T17:00:31+02:00</time>
      </trkpt>
      <trkpt lat="44.11646" lon="6.58778">
        <ele>1233.4004</ele>
        <time>2023-08-07T17:00:32+02:00</time>
      </trkpt>
      <trkpt lat="44.11655" lon="6.58784">
        <ele>1233.1006</ele>
        <time>2023-08-07T17:00:36+02:00</time>
      </trkpt>
      <trkpt lat="44.11657" lon="6.58786">
        <ele>1234.5</ele>
        <time>2023-08-07T17:00:37+02:00</time>
      </trkpt>
      <trkpt lat="44.11666" lon="6.58793">
        <ele>1234.2002</ele>
        <time>2023-08-07T17:00:41+02:00</time>
      </trkpt>
      <trkpt lat="44.11668" lon="6.58794">
        <ele>1235.6006</ele>
        <time>2023-08-07T17:00:42+02:00</time>
      </trkpt>
      <trkpt lat="44.11676" lon="6.58805">
        <ele>1237.2998</ele>
        <time>2023-08-07T17:00:46+02:00</time>
      </trkpt>
      <trkpt lat="44.11678" lon="6.58808">
        <ele>1237.2998</ele>
        <time>2023-08-07T17:00:47+02:00</time>
      </trkpt>
      <trkpt lat="44.11678" lon="6.58822">
        <ele>1241.4004</ele>
        <time>2023-08-07T17:00:51+02:00</time>
      </trkpt>
      <trkpt lat="44.11676" lon="6.58824">
        <ele>1241.4004</ele>
        <time>2023-08-07T17:00:52+02:00</time>
      </trkpt>
      <trkpt lat="44.11668" lon="6.58822">
        <ele>1241.7002</ele>
        <time>2023-08-07T17:00:56+02:00</time>
      </trkpt>
      <trkpt lat="44.11666" lon="6.5882">
        <ele>1241.9004</ele>
        <time>2023-08-07T17:00:57+02:00</time>
      </trkpt>
      <trkpt lat="44.11659" lon="6.58815">
        <ele>1240.2002</ele>
        <time>2023-08-07T17:01:01+02:00</time>
      </trkpt>
      <trkpt lat="44.11657" lon="6.58814">
        <ele>1240.2002</ele>
        <time>2023-08-07T17:01:02+02:00</time>
      </trkpt>
      <trkpt lat="44.11649" lon="6.58813">
        <ele>1240.9004</ele>
        <time>2023-08-07T17:01:06+02:00</time>
      </trkpt>
      <trkpt lat="44.11647" lon="6.58813">
        <ele>1240.9004</ele>
        <time>2023-08-07T17:01:07+02:00</time>
      </trkpt>
      <trkpt lat="44.11637" lon="6.58816">
        <ele>1241.1006</ele>
        <time>2023-08-07T17:01:11+02:00</time>
      </trkpt>
      <trkpt lat="44.11635" lon="6.58816">
        <ele>1241.2002</ele>
        <time>2023-08-07T17:01:12+02:00</time>
      </trkpt>
      <trkpt lat="44.11626" lon="6.58818">
        <ele>1241.2998</ele>
        <time>2023-08-07T17:01:16+02:00</time>
      </trkpt>
      <trkpt lat="44.11624" lon="6.58818">
        <ele>1241.2998</ele>
        <time>2023-08-07T17:01:17+02:00</time>
      </trkpt>
      <trkpt lat="44.11613" lon="6.58821">
        <ele>1243.2998</ele>
        <time>2023-08-07T17:01:21+02:00</time>
      </trkpt>
      <trkpt lat="44.1161" lon="6.58822">
        <ele>1243.2002</ele>
        <time>2023-08-07T17:01:22+02:00</time>
      </trkpt>
      <trkpt lat="44.11601" lon="6.58828">
        <ele>1243</ele>
        <time>2023-08-07T17:01:26+02:00</time>
      </trkpt>
      <trkpt lat="44.11599" lon="6.58829">
        <ele>1244.7998</ele>
        <time>2023-08-07T17:01:27+02:00</time>
      </trkpt>
      <trkpt lat="44.11589" lon="6.58836">
        <ele>1244.2998</ele>
        <time>2023-08-07T17:01:31+02:00</time>
      </trkpt>
      <trkpt lat="44.11587" lon="6.58837">
        <ele>1246</ele>
        <time>2023-08-07T17:01:32+02:00</time>
      </trkpt>
      <trkpt lat="44.11577" lon="6.58843">
        <ele>1245.2998</ele>
        <time>2023-08-07T17:01:36+02:00</time>
      </trkpt>
      <trkpt lat="44.11575" lon="6.58844">
        <ele>1244.6006</ele>
        <time>2023-08-07T17:01:37+02:00</time>
      </trkpt>
      <trkpt lat="44.11565" lon="6.58848">
        <ele>1245.9004</ele>
        <time>2023-08-07T17:01:41+02:00</time>
      </trkpt>
      <trkpt lat="44.11563" lon="6.5885">
        <ele>1244.9004</ele>
        <time>2023-08-07T17:01:42+02:00</time>
      </trkpt>
      <trkpt lat="44.11554" lon="6.58854">
        <ele>1245.7998</ele>
        <time>2023-08-07T17:01:46+02:00</time>
      </trkpt>
      <trkpt lat="44.11551" lon="6.58855">
        <ele>1245.7998</ele>
        <time>2023-08-07T17:01:47+02:00</time>
      </trkpt>
      <trkpt lat="44.11543" lon="6.58861">
        <ele>1242.6006</ele>
        <time>2023-08-07T17:01:51+02:00</time>
      </trkpt>
      <trkpt lat="44.11541" lon="6.58864">
        <ele>1245</ele>
        <time>2023-08-07T17:01:52+02:00</time>
      </trkpt>
      <trkpt lat="44.11533" lon="6.58875">
        <ele>1245.7998</ele>
        <time>2023-08-07T17:01:56+02:00</time>
      </trkpt>
      <trkpt lat="44.11531" lon="6.58878">
        <ele>1244</ele>
        <time>2023-08-07T17:01:57+02:00</time>
      </trkpt>
      <trkpt lat="44.11523" lon="6.58889">
        <ele>1247.5</ele>
        <time>2023-08-07T17:02:01+02:00</time>
      </trkpt>
      <trkpt lat="44.11521" lon="6.58891">
        <ele>1247.5</ele>
        <time>2023-08-07T17:02:02+02:00</time>
      </trkpt>
      <trkpt lat="44.11515" lon="6.58901">
        <ele>1248.2998</ele>
        <time>2023-08-07T17:02:06+02:00</time>
      </trkpt>
      <trkpt lat="44.11513" lon="6.58904">
        <ele>1246.2998</ele>
        <time>2023-08-07T17:02:07+02:00</time>
      </trkpt>
      <trkpt lat="44.11509" lon="6.58917">
        <ele>1251.7002</ele>
        <time>2023-08-07T17:02:11+02:00</time>
      </trkpt>
      <trkpt lat="44.11508" lon="6.5892">
        <ele>1251.7002</ele>
        <time>2023-08-07T17:02:12+02:00</time>
      </trkpt>
      <trkpt lat="44.11503" lon="6.58933">
        <ele>1254.9004</ele>
        <time>2023-08-07T17:02:16+02:00</time>
      </trkpt>
      <trkpt lat="44.11501" lon="6.58936">
        <ele>1252.7998</ele>
        <time>2023-08-07T17:02:17+02:00</time>
      </trkpt>
      <trkpt lat="44.11496" lon="6.5895">
        <ele>1257.9004</ele>
        <time>2023-08-07T17:02:21+02:00</time>
      </trkpt>
      <trkpt lat="44.11494" lon="6.58953">
        <ele>1255.7002</ele>
        <time>2023-08-07T17:02:22+02:00</time>
      </trkpt>
      <trkpt lat="44.1149" lon="6.58965">
        <ele>1258.2002</ele>
        <time>2023-08-07T17:02:26+02:00</time>
      </trkpt>
      <trkpt lat="44.11489" lon="6.58968">
        <ele>1258.4004</ele>
        <time>2023-08-07T17:02:27+02:00</time>
      </trkpt>
      <trkpt lat="44.11484" lon="6.58979">
        <ele>1260.7998</ele>
        <time>2023-08-07T17:02:31+02:00</time>
      </trkpt>
      <trkpt lat="44.11482" lon="6.58982">
        <ele>1258.6006</ele>
        <time>2023-08-07T17:02:32+02:00</time>
      </trkpt>
      <trkpt lat="44.11477" lon="6.58992">
        <ele>1263.1006</ele>
        <time>2023-08-07T17:02:36+02:00</time>
      </trkpt>
      <trkpt lat="44.11475" lon="6.58995">
        <ele>1260.7998</ele>
        <time>2023-08-07T17:02:37+02:00</time>
      </trkpt>
      <trkpt lat="44.11469" lon="6.59006">
        <ele>1260.6006</ele>
        <time>2023-08-07T17:02:41+02:00</time>
      </trkpt>
      <trkpt lat="44.11467" lon="6.59009">
        <ele>1262.6006</ele>
        <time>2023-08-07T17:02:42+02:00</time>
      </trkpt>
      <trkpt lat="44.1146" lon="6.59022">
        <ele>1262.2002</ele>
        <time>2023-08-07T17:02:46+02:00</time>
      </trkpt>
      <trkpt lat="44.11459" lon="6.59026">
        <ele>1264.2002</ele>
        <time>2023-08-07T17:02:47+02:00</time>
      </trkpt>
      <trkpt lat="44.11453" lon="6.5904">
        <ele>1263.9004</ele>
        <time>2023-08-07T17:02:51+02:00</time>
      </trkpt>
      <trkpt lat="44.11451" lon="6.59043">
        <ele>1263.6006</ele>
        <time>2023-08-07T17:02:52+02:00</time>
      </trkpt>
      <trkpt lat="44.11446" lon="6.59056">
        <ele>1265.7002</ele>
        <time>2023-08-07T17:02:56+02:00</time>
      </trkpt>
      <trkpt lat="44.11445" lon="6.59058">
        <ele>1263.4004</ele>
        <time>2023-08-07T17:02:57+02:00</time>
      </trkpt>
      <trkpt lat="44.11438" lon="6.5907">
        <ele>1265.4004</ele>
        <time>2023-08-07T17:03:01+02:00</time>
      </trkpt>
      <trkpt lat="44.11436" lon="6.59073">
        <ele>1265.4004</ele>
        <time>2023-08-07T17:03:02+02:00</time>
      </trkpt>
      <trkpt lat="44.11432" lon="6.59087">
        <ele>1267.5</ele>
        <time>2023-08-07T17:03:06+02:00</time>
      </trkpt>
      <trkpt lat="44.11431" lon="6.59091">
        <ele>1267.5</ele>
        <time>2023-08-07T17:03:07+02:00</time>
      </trkpt>
      <trkpt lat="44.11425" lon="6.59104">
        <ele>1269.7002</ele>
        <time>2023-08-07T17:03:11+02:00</time>
      </trkpt>
      <trkpt lat="44.11424" lon="6.59108">
        <ele>1269.7002</ele>
        <time>2023-08-07T17:03:12+02:00</time>
      </trkpt>
      <trkpt lat="44.11418" lon="6.5912">
        <ele>1271.7998</ele>
        <time>2023-08-07T17:03:16+02:00</time>
      </trkpt>
      <trkpt lat="44.11417" lon="6.59123">
        <ele>1271.7998</ele>
        <time>2023-08-07T17:03:17+02:00</time>
      </trkpt>
      <trkpt lat="44.11411" lon="6.59135">
        <ele>1272.1006</ele>
        <time>2023-08-07T17:03:21+02:00</time>
      </trkpt>
      <trkpt lat="44.11409" lon="6.59138">
        <ele>1272.5</ele>
        <time>2023-08-07T17:03:22+02:00</time>
      </trkpt>
      <trkpt lat="44.11402" lon="6.5915">
        <ele>1273</ele>
        <time>2023-08-07T17:03:26+02:00</time>
      </trkpt>
      <trkpt lat="44.11401" lon="6.59153">
        <ele>1273</ele>
        <time>2023-08-07T17:03:27+02:00</time>
      </trkpt>
      <trkpt lat="44.11395" lon="6.59164">
        <ele>1275.7002</ele>
        <time>2023-08-07T17:03:31+02:00</time>
      </trkpt>
      <trkpt lat="44.11393" lon="6.59167">
        <ele>1275.7002</ele>
        <time>2023-08-07T17:03:32+02:00</time>
      </trkpt>
      <trkpt lat="44.11386" lon="6.59177">
        <ele>1276</ele>
        <time>2023-08-07T17:03:36+02:00</time>
      </trkpt>
      <trkpt lat="44.11384" lon="6.59179">
        <ele>1276</ele>
        <time>2023-08-07T17:03:37+02:00</time>
      </trkpt>
      <trkpt lat="44.11378" lon="6.59191">
        <ele>1276.1006</ele>
        <time>2023-08-07T17:03:41+02:00</time>
      </trkpt>
      <trkpt lat="44.11376" lon="6.59194">
        <ele>1276.1006</ele>
        <time>2023-08-07T17:03:42+02:00</time>
      </trkpt>
      <trkpt lat="44.11371" lon="6.59207">
        <ele>1278</ele>
        <time>2023-08-07T17:03:46+02:00</time>
      </trkpt>
      <trkpt lat="44.1137" lon="6.5921">
        <ele>1278</ele>
        <time>2023-08-07T17:03:47+02:00</time>
      </trkpt>
      <trkpt lat="44.11366" lon="6.59223">
        <ele>1281.6006</ele>
        <time>2023-08-07T17:03:51+02:00</time>
      </trkpt>
      <trkpt lat="44.11365" lon="6.59226">
        <ele>1279.5</ele>
        <time>2023-08-07T17:03:52+02:00</time>
      </trkpt>
      <trkpt lat="44.11362" lon="6.59239">
        <ele>1281.1006</ele>
        <time>2023-08-07T17:03:56+02:00</time>
      </trkpt>
      <trkpt lat="44.11361" lon="6.59242">
        <ele>1282.6006</ele>
        <time>2023-08-07T17:03:57+02:00</time>
      </trkpt>
      <trkpt lat="44.1136" lon="6.59255">
        <ele>1284.1006</ele>
        <time>2023-08-07T17:04:01+02:00</time>
      </trkpt>
      <trkpt lat="44.1136" lon="6.59258">
        <ele>1285.7002</ele>
        <time>2023-08-07T17:04:02+02:00</time>
      </trkpt>
      <trkpt lat="44.11359" lon="6.59272">
        <ele>1284.7998</ele>
        <time>2023-08-07T17:04:06+02:00</time>
      </trkpt>
      <trkpt lat="44.11359" lon="6.59276">
        <ele>1286.2998</ele>
        <time>2023-08-07T17:04:07+02:00</time>
      </trkpt>
      <trkpt lat="44.11358" lon="6.5929">
        <ele>1287.7002</ele>
        <time>2023-08-07T17:04:11+02:00</time>
      </trkpt>
      <trkpt lat="44.11358" lon="6.59293">
        <ele>1289.2002</ele>
        <time>2023-08-07T17:04:12+02:00</time>
      </trkpt>
      <trkpt lat="44.11358" lon="6.59308">
        <ele>1290.7002</ele>
        <time>2023-08-07T17:04:16+02:00</time>
      </trkpt>
      <trkpt lat="44.11358" lon="6.59312">
        <ele>1292.2002</ele>
        <time>2023-08-07T17:04:17+02:00</time>
      </trkpt>
      <trkpt lat="44.11357" lon="6.59327">
        <ele>1295.1006</ele>
        <time>2023-08-07T17:04:21+02:00</time>
      </trkpt>
      <trkpt lat="44.11356" lon="6.5933">
        <ele>1295.1006</ele>
        <time>2023-08-07T17:04:22+02:00</time>
      </trkpt>
      <trkpt lat="44.11354" lon="6.59345">
        <ele>1297.9004</ele>
        <time>2023-08-07T17:04:26+02:00</time>
      </trkpt>
      <trkpt lat="44.11354" lon="6.59349">
        <ele>1297.9004</ele>
        <time>2023-08-07T17:04:27+02:00</time>
      </trkpt>
      <trkpt lat="44.11351" lon="6.59362">
        <ele>1297.4004</ele>
        <time>2023-08-07T17:04:31+02:00</time>
      </trkpt>
      <trkpt lat="44.1135" lon="6.59366">
        <ele>1297.4004</ele>
        <time>2023-08-07T17:04:32+02:00</time>
      </trkpt>
      <trkpt lat="44.11346" lon="6.59379">
        <ele>1296.5</ele>
        <time>2023-08-07T17:04:36+02:00</time>
      </trkpt>
      <trkpt lat="44.11344" lon="6.59382">
        <ele>1296.5</ele>
        <time>2023-08-07T17:04:37+02:00</time>
      </trkpt>
      <trkpt lat="44.11339" lon="6.59394">
        <ele>1295.5</ele>
        <time>2023-08-07T17:04:41+02:00</time>
      </trkpt>
      <trkpt lat="44.11338" lon="6.59397">
        <ele>1295.5</ele>
        <time>2023-08-07T17:04:42+02:00</time>
      </trkpt>
      <trkpt lat="44.11333" lon="6.59409">
        <ele>1293.7998</ele>
        <time>2023-08-07T17:04:46+02:00</time>
      </trkpt>
      <trkpt lat="44.11332" lon="6.59413">
        <ele>1294.6006</ele>
        <time>2023-08-07T17:04:47+02:00</time>
      </trkpt>
      <trkpt lat="44.11328" lon="6.59426">
        <ele>1292.7998</ele>
        <time>2023-08-07T17:04:51+02:00</time>
      </trkpt>
      <trkpt lat="44.11327" lon="6.59429">
        <ele>1293.5</ele>
        <time>2023-08-07T17:04:52+02:00</time>
      </trkpt>
      <trkpt lat="44.11325" lon="6.59442">
        <ele>1294.2002</ele>
        <time>2023-08-07T17:04:56+02:00</time>
      </trkpt>
      <trkpt lat="44.11324" lon="6.59446">
        <ele>1294.2002</ele>
        <time>2023-08-07T17:04:57+02:00</time>
      </trkpt>
      <trkpt lat="44.11322" lon="6.59459">
        <ele>1293.4004</ele>
        <time>2023-08-07T17:05:01+02:00</time>
      </trkpt>
      <trkpt lat="44.11322" lon="6.59463">
        <ele>1293.4004</ele>
        <time>2023-08-07T17:05:02+02:00</time>
      </trkpt>
      <trkpt lat="44.1132" lon="6.59477">
        <ele>1295.2998</ele>
        <time>2023-08-07T17:05:06+02:00</time>
      </trkpt>
      <trkpt lat="44.11319" lon="6.5948">
        <ele>1296.4004</ele>
        <time>2023-08-07T17:05:07+02:00</time>
      </trkpt>
      <trkpt lat="44.11316" lon="6.59493">
        <ele>1295.2998</ele>
        <time>2023-08-07T17:05:11+02:00</time>
      </trkpt>
      <trkpt lat="44.11315" lon="6.59496">
        <ele>1295.2998</ele>
        <time>2023-08-07T17:05:12+02:00</time>
      </trkpt>
      <trkpt lat="44.1131" lon="6.59509">
        <ele>1297.4004</ele>
        <time>2023-08-07T17:05:16+02:00</time>
      </trkpt>
      <trkpt lat="44.11309" lon="6.59512">
        <ele>1295.2998</ele>
        <time>2023-08-07T17:05:17+02:00</time>
      </trkpt>
      <trkpt lat="44.11307" lon="6.59525">
        <ele>1297.6006</ele>
        <time>2023-08-07T17:05:21+02:00</time>
      </trkpt>
      <trkpt lat="44.11308" lon="6.59528">
        <ele>1297.6006</ele>
        <time>2023-08-07T17:05:22+02:00</time>
      </trkpt>
      <trkpt lat="44.11318" lon="6.59531">
        <ele>1301.9004</ele>
        <time>2023-08-07T17:05:26+02:00</time>
      </trkpt>
      <trkpt lat="44.1132" lon="6.5953">
        <ele>1301.9004</ele>
        <time>2023-08-07T17:05:27+02:00</time>
      </trkpt>
      <trkpt lat="44.11325" lon="6.59516">
        <ele>1303.2002</ele>
        <time>2023-08-07T17:05:31+02:00</time>
      </trkpt>
      <trkpt lat="44.11326" lon="6.59512">
        <ele>1302.1006</ele>
        <time>2023-08-07T17:05:32+02:00</time>
      </trkpt>
      <trkpt lat="44.11328" lon="6.59499">
        <ele>1301</ele>
        <time>2023-08-07T17:05:36+02:00</time>
      </trkpt>
      <trkpt lat="44.11329" lon="6.59496">
        <ele>1302.2998</ele>
        <time>2023-08-07T17:05:37+02:00</time>
      </trkpt>
      <trkpt lat="44.11334" lon="6.59483">
        <ele>1301.2002</ele>
        <time>2023-08-07T17:05:41+02:00</time>
      </trkpt>
      <trkpt lat="44.11335" lon="6.5948">
        <ele>1302.9004</ele>
        <time>2023-08-07T17:05:42+02:00</time>
      </trkpt>
      <trkpt lat="44.1134" lon="6.59467">
        <ele>1302</ele>
        <time>2023-08-07T17:05:46+02:00</time>
      </trkpt>
      <trkpt lat="44.11342" lon="6.59463">
        <ele>1305</ele>
        <time>2023-08-07T17:05:47+02:00</time>
      </trkpt>
      <trkpt lat="44.11349" lon="6.59451">
        <ele>1306.2998</ele>
        <time>2023-08-07T17:05:51+02:00</time>
      </trkpt>
      <trkpt lat="44.1135" lon="6.59448">
        <ele>1306.2998</ele>
        <time>2023-08-07T17:05:52+02:00</time>
      </trkpt>
      <trkpt lat="44.11358" lon="6.59435">
        <ele>1307.7998</ele>
        <time>2023-08-07T17:05:56+02:00</time>
      </trkpt>
      <trkpt lat="44.1136" lon="6.59432">
        <ele>1307.7998</ele>
        <time>2023-08-07T17:05:57+02:00</time>
      </trkpt>
      <trkpt lat="44.11367" lon="6.59419">
        <ele>1312.5</ele>
        <time>2023-08-07T17:06:01+02:00</time>
      </trkpt>
      <trkpt lat="44.11369" lon="6.59415">
        <ele>1312.5</ele>
        <time>2023-08-07T17:06:02+02:00</time>
      </trkpt>
      <trkpt lat="44.11375" lon="6.59402">
        <ele>1313.7998</ele>
        <time>2023-08-07T17:06:06+02:00</time>
      </trkpt>
      <trkpt lat="44.11377" lon="6.59398">
        <ele>1313.7998</ele>
        <time>2023-08-07T17:06:07+02:00</time>
      </trkpt>
      <trkpt lat="44.11382" lon="6.59384">
        <ele>1314.7002</ele>
        <time>2023-08-07T17:06:11+02:00</time>
      </trkpt>
      <trkpt lat="44.11383" lon="6.59381">
        <ele>1314.7002</ele>
        <time>2023-08-07T17:06:12+02:00</time>
      </trkpt>
      <trkpt lat="44.11388" lon="6.59369">
        <ele>1316.4004</ele>
        <time>2023-08-07T17:06:16+02:00</time>
      </trkpt>
      <trkpt lat="44.1139" lon="6.59366">
        <ele>1315.1006</ele>
        <time>2023-08-07T17:06:17+02:00</time>
      </trkpt>
      <trkpt lat="44.11397" lon="6.59354">
        <ele>1319.1006</ele>
        <time>2023-08-07T17:06:21+02:00</time>
      </trkpt>
      <trkpt lat="44.11399" lon="6.59351">
        <ele>1317.4004</ele>
        <time>2023-08-07T17:06:22+02:00</time>
      </trkpt>
      <trkpt lat="44.11407" lon="6.5934">
        <ele>1318.2002</ele>
        <time>2023-08-07T17:06:26+02:00</time>
      </trkpt>
      <trkpt lat="44.11409" lon="6.59337">
        <ele>1320.7998</ele>
        <time>2023-08-07T17:06:27+02:00</time>
      </trkpt>
      <trkpt lat="44.11417" lon="6.59326">
        <ele>1321.4004</ele>
        <time>2023-08-07T17:06:31+02:00</time>
      </trkpt>
      <trkpt lat="44.1142" lon="6.59323">
        <ele>1319.5</ele>
        <time>2023-08-07T17:06:32+02:00</time>
      </trkpt>
      <trkpt lat="44.11428" lon="6.59311">
        <ele>1322.2998</ele>
        <time>2023-08-07T17:06:36+02:00</time>
      </trkpt>
      <trkpt lat="44.1143" lon="6.59308">
        <ele>1320.2002</ele>
        <time>2023-08-07T17:06:37+02:00</time>
      </trkpt>
      <trkpt lat="44.11438" lon="6.59295">
        <ele>1320.4004</ele>
        <time>2023-08-07T17:06:41+02:00</time>
      </trkpt>
      <trkpt lat="44.1144" lon="6.59292">
        <ele>1320.4004</ele>
        <time>2023-08-07T17:06:42+02:00</time>
      </trkpt>
      <trkpt lat="44.11446" lon="6.59278">
        <ele>1320.6006</ele>
        <time>2023-08-07T17:06:46+02:00</time>
      </trkpt>
      <trkpt lat="44.11447" lon="6.59275">
        <ele>1320.6006</ele>
        <time>2023-08-07T17:06:47+02:00</time>
      </trkpt>
      <trkpt lat="44.11451" lon="6.59261">
        <ele>1316.2998</ele>
        <time>2023-08-07T17:06:51+02:00</time>
      </trkpt>
      <trkpt lat="44.11453" lon="6.59258">
        <ele>1318.4004</ele>
        <time>2023-08-07T17:06:52+02:00</time>
      </trkpt>
      <trkpt lat="44.11458" lon="6.59244">
        <ele>1316</ele>
        <time>2023-08-07T17:06:56+02:00</time>
      </trkpt>
      <trkpt lat="44.1146" lon="6.59241">
        <ele>1316</ele>
        <time>2023-08-07T17:06:57+02:00</time>
      </trkpt>
      <trkpt lat="44.11466" lon="6.59229">
        <ele>1313.4004</ele>
        <time>2023-08-07T17:07:01+02:00</time>
      </trkpt>
      <trkpt lat="44.11468" lon="6.59225">
        <ele>1313.4004</ele>
        <time>2023-08-07T17:07:02+02:00</time>
      </trkpt>
      <trkpt lat="44.11477" lon="6.59217">
        <ele>1315</ele>
        <time>2023-08-07T17:07:06+02:00</time>
      </trkpt>
      <trkpt lat="44.1148" lon="6.59215">
        <ele>1315</ele>
        <time>2023-08-07T17:07:07+02:00</time>
      </trkpt>
      <trkpt lat="44.1149" lon="6.59208">
        <ele>1316.6006</ele>
        <time>2023-08-07T17:07:11+02:00</time>
      </trkpt>
      <trkpt lat="44.11492" lon="6.59207">
        <ele>1316.6006</ele>
        <time>2023-08-07T17:07:12+02:00</time>
      </trkpt>
      <trkpt lat="44.11502" lon="6.592">
        <ele>1318.2002</ele>
        <time>2023-08-07T17:07:16+02:00</time>
      </trkpt>
      <trkpt lat="44.11505" lon="6.59199">
        <ele>1318.2002</ele>
        <time>2023-08-07T17:07:17+02:00</time>
      </trkpt>
      <trkpt lat="44.11515" lon="6.59192">
        <ele>1319.4004</ele>
        <time>2023-08-07T17:07:21+02:00</time>
      </trkpt>
      <trkpt lat="44.11518" lon="6.5919">
        <ele>1319.4004</ele>
        <time>2023-08-07T17:07:22+02:00</time>
      </trkpt>
      <trkpt lat="44.11527" lon="6.59184">
        <ele>1320.4004</ele>
        <time>2023-08-07T17:07:26+02:00</time>
      </trkpt>
      <trkpt lat="44.11529" lon="6.59182">
        <ele>1320.4004</ele>
        <time>2023-08-07T17:07:27+02:00</time>
      </trkpt>
      <trkpt lat="44.11538" lon="6.59175">
        <ele>1321.2002</ele>
        <time>2023-08-07T17:07:31+02:00</time>
      </trkpt>
      <trkpt lat="44.11541" lon="6.59173">
        <ele>1321.2002</ele>
        <time>2023-08-07T17:07:32+02:00</time>
      </trkpt>
      <trkpt lat="44.11549" lon="6.59166">
        <ele>1320.7002</ele>
        <time>2023-08-07T17:07:36+02:00</time>
      </trkpt>
      <trkpt lat="44.11551" lon="6.59164">
        <ele>1322</ele>
        <time>2023-08-07T17:07:37+02:00</time>
      </trkpt>
      <trkpt lat="44.1156" lon="6.59155">
        <ele>1321.6006</ele>
        <time>2023-08-07T17:07:41+02:00</time>
      </trkpt>
      <trkpt lat="44.11562" lon="6.59153">
        <ele>1320</ele>
        <time>2023-08-07T17:07:42+02:00</time>
      </trkpt>
      <trkpt lat="44.1157" lon="6.59144">
        <ele>1320.9004</ele>
        <time>2023-08-07T17:07:46+02:00</time>
      </trkpt>
      <trkpt lat="44.11572" lon="6.59141">
        <ele>1320.9004</ele>
        <time>2023-08-07T17:07:47+02:00</time>
      </trkpt>
      <trkpt lat="44.1158" lon="6.59132">
        <ele>1320.5</ele>
        <time>2023-08-07T17:07:51+02:00</time>
      </trkpt>
      <trkpt lat="44.11582" lon="6.59131">
        <ele>1321.7002</ele>
        <time>2023-08-07T17:07:52+02:00</time>
      </trkpt>
      <trkpt lat="44.11593" lon="6.59128">
        <ele>1321.2002</ele>
        <time>2023-08-07T17:07:56+02:00</time>
      </trkpt>
      <trkpt lat="44.11595" lon="6.59128">
        <ele>1322.2002</ele>
        <time>2023-08-07T17:07:57+02:00</time>
      </trkpt>
      <trkpt lat="44.11604" lon="6.59131">
        <ele>1325</ele>
        <time>2023-08-07T17:08:01+02:00</time>
      </trkpt>
      <trkpt lat="44.11606" lon="6.59133">
        <ele>1326</ele>
        <time>2023-08-07T17:08:02+02:00</time>
      </trkpt>
      <trkpt lat="44.11616" lon="6.59138">
        <ele>1328.7998</ele>
        <time>2023-08-07T17:08:06+02:00</time>
      </trkpt>
      <trkpt lat="44.11618" lon="6.59139">
        <ele>1328.7998</ele>
        <time>2023-08-07T17:08:07+02:00</time>
      </trkpt>
      <trkpt lat="44.11626" lon="6.59138">
        <ele>1330.7998</ele>
        <time>2023-08-07T17:08:11+02:00</time>
      </trkpt>
      <trkpt lat="44.11628" lon="6.59137">
        <ele>1330.7998</ele>
        <time>2023-08-07T17:08:12+02:00</time>
      </trkpt>
      <trkpt lat="44.1164" lon="6.59132">
        <ele>1330.5</ele>
        <time>2023-08-07T17:08:16+02:00</time>
      </trkpt>
      <trkpt lat="44.11645" lon="6.5913">
        <ele>1331.5</ele>
        <time>2023-08-07T17:08:17+02:00</time>
      </trkpt>
      <trkpt lat="44.11663" lon="6.59111">
        <ele>1328.7998</ele>
        <time>2023-08-07T17:08:21+02:00</time>
      </trkpt>
      <trkpt lat="44.11667" lon="6.59104">
        <ele>1326.1006</ele>
        <time>2023-08-07T17:08:22+02:00</time>
      </trkpt>
      <trkpt lat="44.11683" lon="6.59086">
        <ele>1320.7998</ele>
        <time>2023-08-07T17:08:26+02:00</time>
      </trkpt>
      <trkpt lat="44.11686" lon="6.59085">
        <ele>1317.9004</ele>
        <time>2023-08-07T17:08:27+02:00</time>
      </trkpt>
      <trkpt lat="44.11701" lon="6.59078">
        <ele>1317.4004</ele>
        <time>2023-08-07T17:08:31+02:00</time>
      </trkpt>
      <trkpt lat="44.11706" lon="6.59075">
        <ele>1314.1006</ele>
        <time>2023-08-07T17:08:32+02:00</time>
      </trkpt>
      <trkpt lat="44.11726" lon="6.5907">
        <ele>1312.9004</ele>
        <time>2023-08-07T17:08:36+02:00</time>
      </trkpt>
      <trkpt lat="44.11731" lon="6.59069">
        <ele>1312.2998</ele>
        <time>2023-08-07T17:08:37+02:00</time>
      </trkpt>
      <trkpt lat="44.11751" lon="6.59063">
        <ele>1307.7998</ele>
        <time>2023-08-07T17:08:41+02:00</time>
      </trkpt>
      <trkpt lat="44.11756" lon="6.59063">
        <ele>1307.4004</ele>
        <time>2023-08-07T17:08:42+02:00</time>
      </trkpt>
      <trkpt lat="44.1178" lon="6.59068">
        <ele>1310.1006</ele>
        <time>2023-08-07T17:08:46+02:00</time>
      </trkpt>
      <trkpt lat="44.11787" lon="6.5907">
        <ele>1310</ele>
        <time>2023-08-07T17:08:47+02:00</time>
      </trkpt>
      <trkpt lat="44.1181" lon="6.59067">
        <ele>1305.7998</ele>
        <time>2023-08-07T17:08:51+02:00</time>
      </trkpt>
      <trkpt lat="44.11816" lon="6.59066">
        <ele>1305.7002</ele>
        <time>2023-08-07T17:08:52+02:00</time>
      </trkpt>
      <trkpt lat="44.11839" lon="6.59063">
        <ele>1306.2998</ele>
        <time>2023-08-07T17:08:56+02:00</time>
      </trkpt>
      <trkpt lat="44.11845" lon="6.59062">
        <ele>1307</ele>
        <time>2023-08-07T17:08:57+02:00</time>
      </trkpt>
      <trkpt lat="44.11866" lon="6.59048">
        <ele>1304</ele>
        <time>2023-08-07T17:09:01+02:00</time>
      </trkpt>
      <trkpt lat="44.11871" lon="6.59042">
        <ele>1305.1006</ele>
        <time>2023-08-07T17:09:02+02:00</time>
      </trkpt>
      <trkpt lat="44.11887" lon="6.59021">
        <ele>1297.4004</ele>
        <time>2023-08-07T17:09:06+02:00</time>
      </trkpt>
      <trkpt lat="44.1189" lon="6.59017">
        <ele>1295.6006</ele>
        <time>2023-08-07T17:09:07+02:00</time>
      </trkpt>
      <trkpt lat="44.11904" lon="6.58999">
        <ele>1292</ele>
        <time>2023-08-07T17:09:11+02:00</time>
      </trkpt>
      <trkpt lat="44.11908" lon="6.58995">
        <ele>1292</ele>
        <time>2023-08-07T17:09:12+02:00</time>
      </trkpt>
      <trkpt lat="44.11921" lon="6.5898">
        <ele>1289.6006</ele>
        <time>2023-08-07T17:09:16+02:00</time>
      </trkpt>
      <trkpt lat="44.11925" lon="6.58977">
        <ele>1289.6006</ele>
        <time>2023-08-07T17:09:17+02:00</time>
      </trkpt>
      <trkpt lat="44.11941" lon="6.58967">
        <ele>1289.4004</ele>
        <time>2023-08-07T17:09:21+02:00</time>
      </trkpt>
      <trkpt lat="44.11945" lon="6.58965">
        <ele>1290.2998</ele>
        <time>2023-08-07T17:09:22+02:00</time>
      </trkpt>
      <trkpt lat="44.11962" lon="6.58959">
        <ele>1288.7998</ele>
        <time>2023-08-07T17:09:26+02:00</time>
      </trkpt>
      <trkpt lat="44.11967" lon="6.58957">
        <ele>1289.2002</ele>
        <time>2023-08-07T17:09:27+02:00</time>
      </trkpt>
      <trkpt lat="44.11984" lon="6.58947">
        <ele>1283.1006</ele>
        <time>2023-08-07T17:09:31+02:00</time>
      </trkpt>
      <trkpt lat="44.11988" lon="6.58946">
        <ele>1283</ele>
        <time>2023-08-07T17:09:32+02:00</time>
      </trkpt>
      <trkpt lat="44.1201" lon="6.58947">
        <ele>1282.2002</ele>
        <time>2023-08-07T17:09:36+02:00</time>
      </trkpt>
      <trkpt lat="44.12017" lon="6.58947">
        <ele>1281.6006</ele>
        <time>2023-08-07T17:09:37+02:00</time>
      </trkpt>
      <trkpt lat="44.12039" lon="6.58952">
        <ele>1281.4004</ele>
        <time>2023-08-07T17:09:41+02:00</time>
      </trkpt>
      <trkpt lat="44.12044" lon="6.58953">
        <ele>1280.5</ele>
        <time>2023-08-07T17:09:42+02:00</time>
      </trkpt>
      <trkpt lat="44.12066" lon="6.58947">
        <ele>1273.9004</ele>
        <time>2023-08-07T17:09:46+02:00</time>
      </trkpt>
      <trkpt lat="44.12073" lon="6.58944">
        <ele>1272.6006</ele>
        <time>2023-08-07T17:09:47+02:00</time>
      </trkpt>
      <trkpt lat="44.12097" lon="6.58938">
        <ele>1264.2002</ele>
        <time>2023-08-07T17:09:51+02:00</time>
      </trkpt>
      <trkpt lat="44.12103" lon="6.58937">
        <ele>1262.7998</ele>
        <time>2023-08-07T17:09:52+02:00</time>
      </trkpt>
      <trkpt lat="44.12128" lon="6.58933">
        <ele>1257.6006</ele>
        <time>2023-08-07T17:09:56+02:00</time>
      </trkpt>
      <trkpt lat="44.12133" lon="6.58932">
        <ele>1256.5</ele>
        <time>2023-08-07T17:09:57+02:00</time>
      </trkpt>
      <trkpt lat="44.1215" lon="6.58936">
        <ele>1253.6006</ele>
        <time>2023-08-07T17:10:01+02:00</time>
      </trkpt>
      <trkpt lat="44.12153" lon="6.58938">
        <ele>1253.6006</ele>
        <time>2023-08-07T17:10:02+02:00</time>
      </trkpt>
      <trkpt lat="44.12165" lon="6.58941">
        <ele>1254.7002</ele>
        <time>2023-08-07T17:10:06+02:00</time>
      </trkpt>
      <trkpt lat="44.12167" lon="6.58944">
        <ele>1253.9004</ele>
        <time>2023-08-07T17:10:07+02:00</time>
      </trkpt>
      <trkpt lat="44.12171" lon="6.58957">
        <ele>1259.2998</ele>
        <time>2023-08-07T17:10:11+02:00</time>
      </trkpt>
      <trkpt lat="44.12173" lon="6.58957">
        <ele>1259.2998</ele>
        <time>2023-08-07T17:10:12+02:00</time>
      </trkpt>
      <trkpt lat="44.12182" lon="6.58952">
        <ele>1255.1006</ele>
        <time>2023-08-07T17:10:16+02:00</time>
      </trkpt>
      <trkpt lat="44.12185" lon="6.58952">
        <ele>1255.1006</ele>
        <time>2023-08-07T17:10:17+02:00</time>
      </trkpt>
      <trkpt lat="44.12197" lon="6.58955">
        <ele>1253.7998</ele>
        <time>2023-08-07T17:10:21+02:00</time>
      </trkpt>
      <trkpt lat="44.12201" lon="6.58956">
        <ele>1253.2998</ele>
        <time>2023-08-07T17:10:22+02:00</time>
      </trkpt>
      <trkpt lat="44.12215" lon="6.58969">
        <ele>1257.7998</ele>
        <time>2023-08-07T17:10:26+02:00</time>
      </trkpt>
      <trkpt lat="44.12217" lon="6.58973">
        <ele>1257.5</ele>
        <time>2023-08-07T17:10:27+02:00</time>
      </trkpt>
      <trkpt lat="44.12225" lon="6.58988">
        <ele>1262.7998</ele>
        <time>2023-08-07T17:10:31+02:00</time>
      </trkpt>
      <trkpt lat="44.12225" lon="6.58992">
        <ele>1265.7998</ele>
        <time>2023-08-07T17:10:32+02:00</time>
      </trkpt>
      <trkpt lat="44.12231" lon="6.58997">
        <ele>1265.5</ele>
        <time>2023-08-07T17:10:36+02:00</time>
      </trkpt>
      <trkpt lat="44.12234" lon="6.58996">
        <ele>1265.5</ele>
        <time>2023-08-07T17:10:37+02:00</time>
      </trkpt>
      <trkpt lat="44.12247" lon="6.58997">
        <ele>1264.7998</ele>
        <time>2023-08-07T17:10:41+02:00</time>
      </trkpt>
      <trkpt lat="44.12251" lon="6.58998">
        <ele>1264.7998</ele>
        <time>2023-08-07T17:10:42+02:00</time>
      </trkpt>
      <trkpt lat="44.12264" lon="6.59004">
        <ele>1267.2998</ele>
        <time>2023-08-07T17:10:46+02:00</time>
      </trkpt>
      <trkpt lat="44.12267" lon="6.59006">
        <ele>1267.1006</ele>
        <time>2023-08-07T17:10:47+02:00</time>
      </trkpt>
      <trkpt lat="44.1228" lon="6.59018">
        <ele>1272.2002</ele>
        <time>2023-08-07T17:10:51+02:00</time>
      </trkpt>
      <trkpt lat="44.12283" lon="6.5902">
        <ele>1272.2002</ele>
        <time>2023-08-07T17:10:52+02:00</time>
      </trkpt>
      <trkpt lat="44.12295" lon="6.59028">
        <ele>1274.2002</ele>
        <time>2023-08-07T17:10:56+02:00</time>
      </trkpt>
      <trkpt lat="44.12298" lon="6.59029">
        <ele>1273.7998</ele>
        <time>2023-08-07T17:10:57+02:00</time>
      </trkpt>
      <trkpt lat="44.12313" lon="6.59034">
        <ele>1276</ele>
        <time>2023-08-07T17:11:01+02:00</time>
      </trkpt>
      <trkpt lat="44.12317" lon="6.59037">
        <ele>1275.7002</ele>
        <time>2023-08-07T17:11:02+02:00</time>
      </trkpt>
      <trkpt lat="44.12332" lon="6.59043">
        <ele>1278.2998</ele>
        <time>2023-08-07T17:11:06+02:00</time>
      </trkpt>
      <trkpt lat="44.12336" lon="6.59044">
        <ele>1277.9004</ele>
        <time>2023-08-07T17:11:07+02:00</time>
      </trkpt>
      <trkpt lat="44.12351" lon="6.59045">
        <ele>1277</ele>
        <time>2023-08-07T17:11:11+02:00</time>
      </trkpt>
      <trkpt lat="44.12354" lon="6.59044">
        <ele>1276.5</ele>
        <time>2023-08-07T17:11:12+02:00</time>
      </trkpt>
      <trkpt lat="44.12366" lon="6.59037">
        <ele>1272.4004</ele>
        <time>2023-08-07T17:11:16+02:00</time>
      </trkpt>
      <trkpt lat="44.12369" lon="6.59035">
        <ele>1272.4004</ele>
        <time>2023-08-07T17:11:17+02:00</time>
      </trkpt>
      <trkpt lat="44.12379" lon="6.59018">
        <ele>1265</ele>
        <time>2023-08-07T17:11:21+02:00</time>
      </trkpt>
      <trkpt lat="44.12382" lon="6.59013">
        <ele>1261.7002</ele>
        <time>2023-08-07T17:11:22+02:00</time>
      </trkpt>
      <trkpt lat="44.12396" lon="6.59002">
        <ele>1256.7998</ele>
        <time>2023-08-07T17:11:26+02:00</time>
      </trkpt>
      <trkpt lat="44.12399" lon="6.59001">
        <ele>1256.7998</ele>
        <time>2023-08-07T17:11:27+02:00</time>
      </trkpt>
      <trkpt lat="44.12414" lon="6.58996">
        <ele>1251.9004</ele>
        <time>2023-08-07T17:11:31+02:00</time>
      </trkpt>
      <trkpt lat="44.1242" lon="6.58994">
        <ele>1251.5</ele>
        <time>2023-08-07T17:11:32+02:00</time>
      </trkpt>
      <trkpt lat="44.12437" lon="6.58986">
        <ele>1247.2002</ele>
        <time>2023-08-07T17:11:36+02:00</time>
      </trkpt>
      <trkpt lat="44.12441" lon="6.58987">
        <ele>1246.6006</ele>
        <time>2023-08-07T17:11:37+02:00</time>
      </trkpt>
      <trkpt lat="44.12452" lon="6.58993">
        <ele>1248.2998</ele>
        <time>2023-08-07T17:11:41+02:00</time>
      </trkpt>
      <trkpt lat="44.12455" lon="6.58992">
        <ele>1248.2998</ele>
        <time>2023-08-07T17:11:42+02:00</time>
      </trkpt>
      <trkpt lat="44.12466" lon="6.58984">
        <ele>1242.6006</ele>
        <time>2023-08-07T17:11:46+02:00</time>
      </trkpt>
      <trkpt lat="44.12466" lon="6.5898">
        <ele>1238.9004</ele>
        <time>2023-08-07T17:11:47+02:00</time>
      </trkpt>
      <trkpt lat="44.12469" lon="6.58971">
        <ele>1234.2002</ele>
        <time>2023-08-07T17:11:51+02:00</time>
      </trkpt>
      <trkpt lat="44.12472" lon="6.58972">
        <ele>1234.2002</ele>
        <time>2023-08-07T17:11:52+02:00</time>
      </trkpt>
      <trkpt lat="44.12487" lon="6.58978">
        <ele>1235.7998</ele>
        <time>2023-08-07T17:11:56+02:00</time>
      </trkpt>
      <trkpt lat="44.1249" lon="6.58979">
        <ele>1234.7002</ele>
        <time>2023-08-07T17:11:57+02:00</time>
      </trkpt>
      <trkpt lat="44.12501" lon="6.58979">
        <ele>1232.4004</ele>
        <time>2023-08-07T17:12:01+02:00</time>
      </trkpt>
      <trkpt lat="44.12505" lon="6.58979">
        <ele>1232.4004</ele>
        <time>2023-08-07T17:12:02+02:00</time>
      </trkpt>
      <trkpt lat="44.12518" lon="6.58981">
        <ele>1228.9004</ele>
        <time>2023-08-07T17:12:06+02:00</time>
      </trkpt>
      <trkpt lat="44.12522" lon="6.58982">
        <ele>1228.9004</ele>
        <time>2023-08-07T17:12:07+02:00</time>
      </trkpt>
      <trkpt lat="44.12532" lon="6.58984">
        <ele>1229.7998</ele>
        <time>2023-08-07T17:12:11+02:00</time>
      </trkpt>
      <trkpt lat="44.12534" lon="6.58985">
        <ele>1229.7998</ele>
        <time>2023-08-07T17:12:12+02:00</time>
      </trkpt>
      <trkpt lat="44.12539" lon="6.58996">
        <ele>1231.7002</ele>
        <time>2023-08-07T17:12:16+02:00</time>
      </trkpt>
      <trkpt lat="44.12541" lon="6.58998">
        <ele>1231.7002</ele>
        <time>2023-08-07T17:12:17+02:00</time>
      </trkpt>
      <trkpt lat="44.12547" lon="6.5901">
        <ele>1236.1006</ele>
        <time>2023-08-07T17:12:21+02:00</time>
      </trkpt>
      <trkpt lat="44.12548" lon="6.59013">
        <ele>1236.1006</ele>
        <time>2023-08-07T17:12:22+02:00</time>
      </trkpt>
      <trkpt lat="44.12552" lon="6.59022">
        <ele>1237</ele>
        <time>2023-08-07T17:12:26+02:00</time>
      </trkpt>
      <trkpt lat="44.12554" lon="6.59024">
        <ele>1237</ele>
        <time>2023-08-07T17:12:27+02:00</time>
      </trkpt>
      <trkpt lat="44.12567" lon="6.59031">
        <ele>1235.5</ele>
        <time>2023-08-07T17:12:31+02:00</time>
      </trkpt>
      <trkpt lat="44.12572" lon="6.59032">
        <ele>1233.4004</ele>
        <time>2023-08-07T17:12:32+02:00</time>
      </trkpt>
      <trkpt lat="44.12589" lon="6.59043">
        <ele>1230.5</ele>
        <time>2023-08-07T17:12:36+02:00</time>
      </trkpt>
      <trkpt lat="44.12593" lon="6.59047">
        <ele>1228.2002</ele>
        <time>2023-08-07T17:12:37+02:00</time>
      </trkpt>
      <trkpt lat="44.12603" lon="6.59051">
        <ele>1227.1006</ele>
        <time>2023-08-07T17:12:41+02:00</time>
      </trkpt>
      <trkpt lat="44.12604" lon="6.59051">
        <ele>1223.2998</ele>
        <time>2023-08-07T17:12:42+02:00</time>
      </trkpt>
      <trkpt lat="44.12613" lon="6.59058">
        <ele>1221.9004</ele>
        <time>2023-08-07T17:12:46+02:00</time>
      </trkpt>
      <trkpt lat="44.12615" lon="6.59062">
        <ele>1223</ele>
        <time>2023-08-07T17:12:47+02:00</time>
      </trkpt>
      <trkpt lat="44.12623" lon="6.59078">
        <ele>1219.6006</ele>
        <time>2023-08-07T17:12:51+02:00</time>
      </trkpt>
      <trkpt lat="44.12625" lon="6.59082">
        <ele>1219.6006</ele>
        <time>2023-08-07T17:12:52+02:00</time>
      </trkpt>
      <trkpt lat="44.12639" lon="6.59093">
        <ele>1215.2002</ele>
        <time>2023-08-07T17:12:56+02:00</time>
      </trkpt>
      <trkpt lat="44.12643" lon="6.59094">
        <ele>1213.4004</ele>
        <time>2023-08-07T17:12:57+02:00</time>
      </trkpt>
      <trkpt lat="44.12668" lon="6.59101">
        <ele>1203.7998</ele>
        <time>2023-08-07T17:13:01+02:00</time>
      </trkpt>
      <trkpt lat="44.12673" lon="6.59104">
        <ele>1202.2002</ele>
        <time>2023-08-07T17:13:02+02:00</time>
      </trkpt>
      <trkpt lat="44.12687" lon="6.5912">
        <ele>1199.5</ele>
        <time>2023-08-07T17:13:06+02:00</time>
      </trkpt>
      <trkpt lat="44.12689" lon="6.59127">
        <ele>1199.5</ele>
        <time>2023-08-07T17:13:07+02:00</time>
      </trkpt>
      <trkpt lat="44.12693" lon="6.59152">
        <ele>1200.2998</ele>
        <time>2023-08-07T17:13:11+02:00</time>
      </trkpt>
      <trkpt lat="44.12694" lon="6.59158">
        <ele>1201.2002</ele>
        <time>2023-08-07T17:13:12+02:00</time>
      </trkpt>
      <trkpt lat="44.12701" lon="6.59173">
        <ele>1201.2998</ele>
        <time>2023-08-07T17:13:16+02:00</time>
      </trkpt>
      <trkpt lat="44.12702" lon="6.59176">
        <ele>1201.2998</ele>
        <time>2023-08-07T17:13:17+02:00</time>
      </trkpt>
      <trkpt lat="44.12703" lon="6.5918">
        <ele>1200.4004</ele>
        <time>2023-08-07T17:13:21+02:00</time>
      </trkpt>
      <trkpt lat="44.12703" lon="6.5918">
        <ele>1200.4004</ele>
        <time>2023-08-07T17:13:22+02:00</time>
      </trkpt>
      <trkpt lat="44.12703" lon="6.5918">
        <ele>1200.4004</ele>
        <time>2023-08-07T17:13:26+02:00</time>
      </trkpt>
      <trkpt lat="44.12703" lon="6.5918">
        <ele>1200.4004</ele>
        <time>2023-08-07T17:13:27+02:00</time>
      </trkpt>
      <trkpt lat="44.12707" lon="6.59191">
        <ele>1201.4004</ele>
        <time>2023-08-07T17:13:31+02:00</time>
      </trkpt>
      <trkpt lat="44.12709" lon="6.59195">
        <ele>1201.4004</ele>
        <time>2023-08-07T17:13:32+02:00</time>
      </trkpt>
      <trkpt lat="44.12719" lon="6.59204">
        <ele>1199.1006</ele>
        <time>2023-08-07T17:13:36+02:00</time>
      </trkpt>
      <trkpt lat="44.12722" lon="6.59205">
        <ele>1197.5</ele>
        <time>2023-08-07T17:13:37+02:00</time>
      </trkpt>
      <trkpt lat="44.12736" lon="6.59205">
        <ele>1194.2998</ele>
        <time>2023-08-07T17:13:41+02:00</time>
      </trkpt>
      <trkpt lat="44.1274" lon="6.59205">
        <ele>1192.6006</ele>
        <time>2023-08-07T17:13:42+02:00</time>
      </trkpt>
      <trkpt lat="44.12755" lon="6.59209">
        <ele>1190.1006</ele>
        <time>2023-08-07T17:13:46+02:00</time>
      </trkpt>
      <trkpt lat="44.12759" lon="6.59211">
        <ele>1188.6006</ele>
        <time>2023-08-07T17:13:47+02:00</time>
      </trkpt>
      <trkpt lat="44.12773" lon="6.59219">
        <ele>1186.2002</ele>
        <time>2023-08-07T17:13:51+02:00</time>
      </trkpt>
      <trkpt lat="44.12776" lon="6.59221">
        <ele>1186.2002</ele>
        <time>2023-08-07T17:13:52+02:00</time>
      </trkpt>
      <trkpt lat="44.12786" lon="6.59226">
        <ele>1184</ele>
        <time>2023-08-07T17:13:56+02:00</time>
      </trkpt>
      <trkpt lat="44.12788" lon="6.59227">
        <ele>1184</ele>
        <time>2023-08-07T17:13:57+02:00</time>
      </trkpt>
      <trkpt lat="44.12795" lon="6.59235">
        <ele>1183.1006</ele>
        <time>2023-08-07T17:14:01+02:00</time>
      </trkpt>
      <trkpt lat="44.12796" lon="6.59238">
        <ele>1181.7998</ele>
        <time>2023-08-07T17:14:02+02:00</time>
      </trkpt>
      <trkpt lat="44.12805" lon="6.59244">
        <ele>1181.1006</ele>
        <time>2023-08-07T17:14:06+02:00</time>
      </trkpt>
      <trkpt lat="44.12808" lon="6.59243">
        <ele>1180</ele>
        <time>2023-08-07T17:14:07+02:00</time>
      </trkpt>
      <trkpt lat="44.12826" lon="6.59238">
        <ele>1177.6006</ele>
        <time>2023-08-07T17:14:11+02:00</time>
      </trkpt>
      <trkpt lat="44.12831" lon="6.59235">
        <ele>1176.7998</ele>
        <time>2023-08-07T17:14:12+02:00</time>
      </trkpt>
      <trkpt lat="44.1284" lon="6.59214">
        <ele>1174.5</ele>
        <time>2023-08-07T17:14:16+02:00</time>
      </trkpt>
      <trkpt lat="44.12842" lon="6.59208">
        <ele>1174.1006</ele>
        <time>2023-08-07T17:14:17+02:00</time>
      </trkpt>
      <trkpt lat="44.12853" lon="6.59203">
        <ele>1172.6006</ele>
        <time>2023-08-07T17:14:21+02:00</time>
      </trkpt>
      <trkpt lat="44.12855" lon="6.59206">
        <ele>1173</ele>
        <time>2023-08-07T17:14:22+02:00</time>
      </trkpt>
      <trkpt lat="44.12859" lon="6.59227">
        <ele>1173.7002</ele>
        <time>2023-08-07T17:14:26+02:00</time>
      </trkpt>
      <trkpt lat="44.12859" lon="6.59232">
        <ele>1174.2002</ele>
        <time>2023-08-07T17:14:27+02:00</time>
      </trkpt>
      <trkpt lat="44.1286" lon="6.5925">
        <ele>1175.5</ele>
        <time>2023-08-07T17:14:31+02:00</time>
      </trkpt>
      <trkpt lat="44.12861" lon="6.59254">
        <ele>1175.5</ele>
        <time>2023-08-07T17:14:32+02:00</time>
      </trkpt>
      <trkpt lat="44.12869" lon="6.59265">
        <ele>1175.7998</ele>
        <time>2023-08-07T17:14:36+02:00</time>
      </trkpt>
      <trkpt lat="44.12872" lon="6.59265">
        <ele>1175.6006</ele>
        <time>2023-08-07T17:14:37+02:00</time>
      </trkpt>
      <trkpt lat="44.12887" lon="6.59259">
        <ele>1175.4004</ele>
        <time>2023-08-07T17:14:41+02:00</time>
      </trkpt>
      <trkpt lat="44.12891" lon="6.59255">
        <ele>1174.7998</ele>
        <time>2023-08-07T17:14:42+02:00</time>
      </trkpt>
      <trkpt lat="44.12908" lon="6.59234">
        <ele>1173.5</ele>
        <time>2023-08-07T17:14:46+02:00</time>
      </trkpt>
      <trkpt lat="44.12913" lon="6.59227">
        <ele>1172.7998</ele>
        <time>2023-08-07T17:14:47+02:00</time>
      </trkpt>
      <trkpt lat="44.12928" lon="6.59205">
        <ele>1170.6006</ele>
        <time>2023-08-07T17:14:51+02:00</time>
      </trkpt>
      <trkpt lat="44.12931" lon="6.59201">
        <ele>1170.6006</ele>
        <time>2023-08-07T17:14:52+02:00</time>
      </trkpt>
      <trkpt lat="44.12939" lon="6.59188">
        <ele>1169.2002</ele>
        <time>2023-08-07T17:14:56+02:00</time>
      </trkpt>
      <trkpt lat="44.1294" lon="6.59184">
        <ele>1169.2002</ele>
        <time>2023-08-07T17:14:57+02:00</time>
      </trkpt>
      <trkpt lat="44.12947" lon="6.5917">
        <ele>1167.7998</ele>
        <time>2023-08-07T17:15:01+02:00</time>
      </trkpt>
      <trkpt lat="44.1295" lon="6.59169">
        <ele>1167.7998</ele>
        <time>2023-08-07T17:15:02+02:00</time>
      </trkpt>
      <trkpt lat="44.12954" lon="6.59181">
        <ele>1169.5</ele>
        <time>2023-08-07T17:15:06+02:00</time>
      </trkpt>
      <trkpt lat="44.12952" lon="6.59186">
        <ele>1169.5</ele>
        <time>2023-08-07T17:15:07+02:00</time>
      </trkpt>
      <trkpt lat="44.12955" lon="6.59201">
        <ele>1171</ele>
        <time>2023-08-07T17:15:11+02:00</time>
      </trkpt>
      <trkpt lat="44.12958" lon="6.59204">
        <ele>1171.2002</ele>
        <time>2023-08-07T17:15:12+02:00</time>
      </trkpt>
      <trkpt lat="44.12971" lon="6.5921">
        <ele>1172.2002</ele>
        <time>2023-08-07T17:15:16+02:00</time>
      </trkpt>
      <trkpt lat="44.12974" lon="6.59211">
        <ele>1172.2002</ele>
        <time>2023-08-07T17:15:17+02:00</time>
      </trkpt>
      <trkpt lat="44.12986" lon="6.5922">
        <ele>1173.2002</ele>
        <time>2023-08-07T17:15:21+02:00</time>
      </trkpt>
      <trkpt lat="44.12989" lon="6.59222">
        <ele>1173.2998</ele>
        <time>2023-08-07T17:15:22+02:00</time>
      </trkpt>
      <trkpt lat="44.12993" lon="6.59238">
        <ele>1174.7998</ele>
        <time>2023-08-07T17:15:26+02:00</time>
      </trkpt>
      <trkpt lat="44.12992" lon="6.59242">
        <ele>1175.4004</ele>
        <time>2023-08-07T17:15:27+02:00</time>
      </trkpt>
      <trkpt lat="44.12984" lon="6.59255">
        <ele>1176.1006</ele>
        <time>2023-08-07T17:15:31+02:00</time>
      </trkpt>
      <trkpt lat="44.12982" lon="6.59258">
        <ele>1176.7998</ele>
        <time>2023-08-07T17:15:32+02:00</time>
      </trkpt>
      <trkpt lat="44.12975" lon="6.59266">
        <ele>1177.4004</ele>
        <time>2023-08-07T17:15:36+02:00</time>
      </trkpt>
      <trkpt lat="44.12974" lon="6.59269">
        <ele>1177.4004</ele>
        <time>2023-08-07T17:15:37+02:00</time>
      </trkpt>
      <trkpt lat="44.1297" lon="6.59279">
        <ele>1178</ele>
        <time>2023-08-07T17:15:41+02:00</time>
      </trkpt>
      <trkpt lat="44.12969" lon="6.59282">
        <ele>1178</ele>
        <time>2023-08-07T17:15:42+02:00</time>
      </trkpt>
      <trkpt lat="44.12964" lon="6.59294">
        <ele>1179.6006</ele>
        <time>2023-08-07T17:15:46+02:00</time>
      </trkpt>
      <trkpt lat="44.12962" lon="6.59296">
        <ele>1179.6006</ele>
        <time>2023-08-07T17:15:47+02:00</time>
      </trkpt>
      <trkpt lat="44.12956" lon="6.59304">
        <ele>1180.2998</ele>
        <time>2023-08-07T17:15:51+02:00</time>
      </trkpt>
      <trkpt lat="44.12954" lon="6.59306">
        <ele>1180.1006</ele>
        <time>2023-08-07T17:15:52+02:00</time>
      </trkpt>
      <trkpt lat="44.12948" lon="6.59313">
        <ele>1180.7002</ele>
        <time>2023-08-07T17:15:56+02:00</time>
      </trkpt>
      <trkpt lat="44.12946" lon="6.59315">
        <ele>1180.7002</ele>
        <time>2023-08-07T17:15:57+02:00</time>
      </trkpt>
      <trkpt lat="44.12937" lon="6.59322">
        <ele>1181.2002</ele>
        <time>2023-08-07T17:16:01+02:00</time>
      </trkpt>
      <trkpt lat="44.12935" lon="6.59325">
        <ele>1180.9004</ele>
        <time>2023-08-07T17:16:02+02:00</time>
      </trkpt>
      <trkpt lat="44.12931" lon="6.59334">
        <ele>1181.7002</ele>
        <time>2023-08-07T17:16:06+02:00</time>
      </trkpt>
      <trkpt lat="44.1293" lon="6.59337">
        <ele>1182.2002</ele>
        <time>2023-08-07T17:16:07+02:00</time>
      </trkpt>
      <trkpt lat="44.12927" lon="6.59349">
        <ele>1183.2002</ele>
        <time>2023-08-07T17:16:11+02:00</time>
      </trkpt>
      <trkpt lat="44.12926" lon="6.59352">
        <ele>1184.2002</ele>
        <time>2023-08-07T17:16:12+02:00</time>
      </trkpt>
      <trkpt lat="44.12931" lon="6.59361">
        <ele>1185.9004</ele>
        <time>2023-08-07T17:16:16+02:00</time>
      </trkpt>
      <trkpt lat="44.12933" lon="6.59362">
        <ele>1185.9004</ele>
        <time>2023-08-07T17:16:17+02:00</time>
      </trkpt>
      <trkpt lat="44.12943" lon="6.59366">
        <ele>1186.4004</ele>
        <time>2023-08-07T17:16:21+02:00</time>
      </trkpt>
      <trkpt lat="44.12945" lon="6.59368">
        <ele>1186.9004</ele>
        <time>2023-08-07T17:16:22+02:00</time>
      </trkpt>
      <trkpt lat="44.12952" lon="6.59375">
        <ele>1188.7998</ele>
        <time>2023-08-07T17:16:26+02:00</time>
      </trkpt>
      <trkpt lat="44.12953" lon="6.59378">
        <ele>1190.4004</ele>
        <time>2023-08-07T17:16:27+02:00</time>
      </trkpt>
      <trkpt lat="44.12947" lon="6.59388">
        <ele>1191.4004</ele>
        <time>2023-08-07T17:16:31+02:00</time>
      </trkpt>
      <trkpt lat="44.12945" lon="6.5939">
        <ele>1191.4004</ele>
        <time>2023-08-07T17:16:32+02:00</time>
      </trkpt>
      <trkpt lat="44.12936" lon="6.59396">
        <ele>1191.7002</ele>
        <time>2023-08-07T17:16:36+02:00</time>
      </trkpt>
      <trkpt lat="44.12934" lon="6.59398">
        <ele>1191.7002</ele>
        <time>2023-08-07T17:16:37+02:00</time>
      </trkpt>
      <trkpt lat="44.12926" lon="6.59405">
        <ele>1192.7002</ele>
        <time>2023-08-07T17:16:41+02:00</time>
      </trkpt>
      <trkpt lat="44.12924" lon="6.59407">
        <ele>1192</ele>
        <time>2023-08-07T17:16:42+02:00</time>
      </trkpt>
      <trkpt lat="44.12915" lon="6.59415">
        <ele>1193</ele>
        <time>2023-08-07T17:16:46+02:00</time>
      </trkpt>
      <trkpt lat="44.12913" lon="6.59417">
        <ele>1193</ele>
        <time>2023-08-07T17:16:47+02:00</time>
      </trkpt>
      <trkpt lat="44.12903" lon="6.59424">
        <ele>1193.4004</ele>
        <time>2023-08-07T17:16:51+02:00</time>
      </trkpt>
      <trkpt lat="44.12901" lon="6.59426">
        <ele>1193.4004</ele>
        <time>2023-08-07T17:16:52+02:00</time>
      </trkpt>
      <trkpt lat="44.1289" lon="6.59434">
        <ele>1193.7998</ele>
        <time>2023-08-07T17:16:56+02:00</time>
      </trkpt>
      <trkpt lat="44.12888" lon="6.59435">
        <ele>1193.7998</ele>
        <time>2023-08-07T17:16:57+02:00</time>
      </trkpt>
      <trkpt lat="44.12879" lon="6.59442">
        <ele>1194.1006</ele>
        <time>2023-08-07T17:17:01+02:00</time>
      </trkpt>
      <trkpt lat="44.12877" lon="6.59443">
        <ele>1194.1006</ele>
        <time>2023-08-07T17:17:02+02:00</time>
      </trkpt>
      <trkpt lat="44.12867" lon="6.5945">
        <ele>1194.7002</ele>
        <time>2023-08-07T17:17:06+02:00</time>
      </trkpt>
      <trkpt lat="44.12865" lon="6.59452">
        <ele>1194.7002</ele>
        <time>2023-08-07T17:17:07+02:00</time>
      </trkpt>
      <trkpt lat="44.12856" lon="6.59458">
        <ele>1195.6006</ele>
        <time>2023-08-07T17:17:11+02:00</time>
      </trkpt>
      <trkpt lat="44.12853" lon="6.59459">
        <ele>1195.6006</ele>
        <time>2023-08-07T17:17:12+02:00</time>
      </trkpt>
      <trkpt lat="44.12849" lon="6.5947">
        <ele>1197.2998</ele>
        <time>2023-08-07T17:17:16+02:00</time>
      </trkpt>
      <trkpt lat="44.12851" lon="6.59473">
        <ele>1200.2002</ele>
        <time>2023-08-07T17:17:17+02:00</time>
      </trkpt>
      <trkpt lat="44.12861" lon="6.59475">
        <ele>1200.7002</ele>
        <time>2023-08-07T17:17:21+02:00</time>
      </trkpt>
      <trkpt lat="44.12864" lon="6.59475">
        <ele>1201.4004</ele>
        <time>2023-08-07T17:17:22+02:00</time>
      </trkpt>
      <trkpt lat="44.12873" lon="6.59473">
        <ele>1202.2002</ele>
        <time>2023-08-07T17:17:26+02:00</time>
      </trkpt>
      <trkpt lat="44.12876" lon="6.59473">
        <ele>1202.9004</ele>
        <time>2023-08-07T17:17:27+02:00</time>
      </trkpt>
      <trkpt lat="44.12885" lon="6.59471">
        <ele>1201.2998</ele>
        <time>2023-08-07T17:17:31+02:00</time>
      </trkpt>
      <trkpt lat="44.12888" lon="6.5947">
        <ele>1202.1006</ele>
        <time>2023-08-07T17:17:32+02:00</time>
      </trkpt>
      <trkpt lat="44.12897" lon="6.59467">
        <ele>1202.9004</ele>
        <time>2023-08-07T17:17:36+02:00</time>
      </trkpt>
      <trkpt lat="44.129" lon="6.59466">
        <ele>1203.7002</ele>
        <time>2023-08-07T17:17:37+02:00</time>
      </trkpt>
      <trkpt lat="44.12911" lon="6.59463">
        <ele>1202.2998</ele>
        <time>2023-08-07T17:17:41+02:00</time>
      </trkpt>
      <trkpt lat="44.12913" lon="6.59462">
        <ele>1203.1006</ele>
        <time>2023-08-07T17:17:42+02:00</time>
      </trkpt>
      <trkpt lat="44.12924" lon="6.59461">
        <ele>1203.9004</ele>
        <time>2023-08-07T17:17:46+02:00</time>
      </trkpt>
      <trkpt lat="44.12926" lon="6.5946">
        <ele>1204.7002</ele>
        <time>2023-08-07T17:17:47+02:00</time>
      </trkpt>
      <trkpt lat="44.12936" lon="6.59458">
        <ele>1205.5</ele>
        <time>2023-08-07T17:17:51+02:00</time>
      </trkpt>
      <trkpt lat="44.12938" lon="6.59457">
        <ele>1206.4004</ele>
        <time>2023-08-07T17:17:52+02:00</time>
      </trkpt>
      <trkpt lat="44.12947" lon="6.59454">
        <ele>1205</ele>
        <time>2023-08-07T17:17:56+02:00</time>
      </trkpt>
      <trkpt lat="44.12949" lon="6.59453">
        <ele>1205</ele>
        <time>2023-08-07T17:17:57+02:00</time>
      </trkpt>
      <trkpt lat="44.12959" lon="6.59451">
        <ele>1206.7002</ele>
        <time>2023-08-07T17:18:01+02:00</time>
      </trkpt>
      <trkpt lat="44.12961" lon="6.59451">
        <ele>1206.7002</ele>
        <time>2023-08-07T17:18:02+02:00</time>
      </trkpt>
      <trkpt lat="44.12972" lon="6.59453">
        <ele>1208.5</ele>
        <time>2023-08-07T17:18:06+02:00</time>
      </trkpt>
      <trkpt lat="44.12974" lon="6.59454">
        <ele>1209.2998</ele>
        <time>2023-08-07T17:18:07+02:00</time>
      </trkpt>
      <trkpt lat="44.12985" lon="6.59458">
        <ele>1212.2998</ele>
        <time>2023-08-07T17:18:11+02:00</time>
      </trkpt>
      <trkpt lat="44.12988" lon="6.59459">
        <ele>1212.9004</ele>
        <time>2023-08-07T17:18:12+02:00</time>
      </trkpt>
      <trkpt lat="44.12998" lon="6.59462">
        <ele>1213.5</ele>
        <time>2023-08-07T17:18:16+02:00</time>
      </trkpt>
      <trkpt lat="44.13001" lon="6.59463">
        <ele>1214</ele>
        <time>2023-08-07T17:18:17+02:00</time>
      </trkpt>
      <trkpt lat="44.13009" lon="6.59465">
        <ele>1217.1006</ele>
        <time>2023-08-07T17:18:21+02:00</time>
      </trkpt>
      <trkpt lat="44.13012" lon="6.59466">
        <ele>1217.7002</ele>
        <time>2023-08-07T17:18:22+02:00</time>
      </trkpt>
      <trkpt lat="44.13023" lon="6.59469">
        <ele>1218.2002</ele>
        <time>2023-08-07T17:18:26+02:00</time>
      </trkpt>
      <trkpt lat="44.13026" lon="6.5947">
        <ele>1218.7002</ele>
        <time>2023-08-07T17:18:27+02:00</time>
      </trkpt>
      <trkpt lat="44.13038" lon="6.59474">
        <ele>1221.7998</ele>
        <time>2023-08-07T17:18:31+02:00</time>
      </trkpt>
      <trkpt lat="44.13041" lon="6.59475">
        <ele>1221.7998</ele>
        <time>2023-08-07T17:18:32+02:00</time>
      </trkpt>
      <trkpt lat="44.13053" lon="6.59478">
        <ele>1222.1006</ele>
        <time>2023-08-07T17:18:36+02:00</time>
      </trkpt>
      <trkpt lat="44.13056" lon="6.59479">
        <ele>1222.2002</ele>
        <time>2023-08-07T17:18:37+02:00</time>
      </trkpt>
      <trkpt lat="44.13067" lon="6.59482">
        <ele>1224.2998</ele>
        <time>2023-08-07T17:18:41+02:00</time>
      </trkpt>
      <trkpt lat="44.1307" lon="6.59483">
        <ele>1224.2998</ele>
        <time>2023-08-07T17:18:42+02:00</time>
      </trkpt>
      <trkpt lat="44.13081" lon="6.59489">
        <ele>1223.9004</ele>
        <time>2023-08-07T17:18:46+02:00</time>
      </trkpt>
      <trkpt lat="44.13084" lon="6.5949">
        <ele>1226.1006</ele>
        <time>2023-08-07T17:18:47+02:00</time>
      </trkpt>
      <trkpt lat="44.13095" lon="6.59494">
        <ele>1225.5</ele>
        <time>2023-08-07T17:18:51+02:00</time>
      </trkpt>
      <trkpt lat="44.13098" lon="6.59495">
        <ele>1225.2002</ele>
        <time>2023-08-07T17:18:52+02:00</time>
      </trkpt>
      <trkpt lat="44.13109" lon="6.595">
        <ele>1226.7998</ele>
        <time>2023-08-07T17:18:56+02:00</time>
      </trkpt>
      <trkpt lat="44.13111" lon="6.59501">
        <ele>1226.4004</ele>
        <time>2023-08-07T17:18:57+02:00</time>
      </trkpt>
      <trkpt lat="44.13121" lon="6.59505">
        <ele>1225.9004</ele>
        <time>2023-08-07T17:19:01+02:00</time>
      </trkpt>
      <trkpt lat="44.13124" lon="6.59506">
        <ele>1227.2998</ele>
        <time>2023-08-07T17:19:02+02:00</time>
      </trkpt>
      <trkpt lat="44.13135" lon="6.59513">
        <ele>1226.2002</ele>
        <time>2023-08-07T17:19:06+02:00</time>
      </trkpt>
      <trkpt lat="44.13137" lon="6.59514">
        <ele>1226.2002</ele>
        <time>2023-08-07T17:19:07+02:00</time>
      </trkpt>
      <trkpt lat="44.13146" lon="6.59522">
        <ele>1227.2998</ele>
        <time>2023-08-07T17:19:11+02:00</time>
      </trkpt>
      <trkpt lat="44.13148" lon="6.59523">
        <ele>1228.4004</ele>
        <time>2023-08-07T17:19:12+02:00</time>
      </trkpt>
      <trkpt lat="44.13158" lon="6.59528">
        <ele>1227.7998</ele>
        <time>2023-08-07T17:19:16+02:00</time>
      </trkpt>
      <trkpt lat="44.1316" lon="6.59529">
        <ele>1227.2998</ele>
        <time>2023-08-07T17:19:17+02:00</time>
      </trkpt>
      <trkpt lat="44.13169" lon="6.59533">
        <ele>1228.6006</ele>
        <time>2023-08-07T17:19:21+02:00</time>
      </trkpt>
      <trkpt lat="44.13172" lon="6.59534">
        <ele>1228.2002</ele>
        <time>2023-08-07T17:19:22+02:00</time>
      </trkpt>
      <trkpt lat="44.13182" lon="6.59538">
        <ele>1227.7998</ele>
        <time>2023-08-07T17:19:26+02:00</time>
      </trkpt>
      <trkpt lat="44.13185" lon="6.59538">
        <ele>1227.5</ele>
        <time>2023-08-07T17:19:27+02:00</time>
      </trkpt>
      <trkpt lat="44.13196" lon="6.59539">
        <ele>1227</ele>
        <time>2023-08-07T17:19:31+02:00</time>
      </trkpt>
      <trkpt lat="44.13199" lon="6.59538">
        <ele>1227</ele>
        <time>2023-08-07T17:19:32+02:00</time>
      </trkpt>
      <trkpt lat="44.13205" lon="6.59541">
        <ele>1228.9004</ele>
        <time>2023-08-07T17:19:36+02:00</time>
      </trkpt>
      <trkpt lat="44.13204" lon="6.59543">
        <ele>1228.9004</ele>
        <time>2023-08-07T17:19:37+02:00</time>
      </trkpt>
      <trkpt lat="44.13196" lon="6.59548">
        <ele>1229</ele>
        <time>2023-08-07T17:19:41+02:00</time>
      </trkpt>
      <trkpt lat="44.13194" lon="6.5955">
        <ele>1231.2998</ele>
        <time>2023-08-07T17:19:42+02:00</time>
      </trkpt>
      <trkpt lat="44.13184" lon="6.59555">
        <ele>1231.5</ele>
        <time>2023-08-07T17:19:46+02:00</time>
      </trkpt>
      <trkpt lat="44.13181" lon="6.59556">
        <ele>1231.7002</ele>
        <time>2023-08-07T17:19:47+02:00</time>
      </trkpt>
      <trkpt lat="44.13172" lon="6.59558">
        <ele>1233.9004</ele>
        <time>2023-08-07T17:19:51+02:00</time>
      </trkpt>
      <trkpt lat="44.13169" lon="6.59559">
        <ele>1234.1006</ele>
        <time>2023-08-07T17:19:52+02:00</time>
      </trkpt>
      <trkpt lat="44.13159" lon="6.59561">
        <ele>1234.6006</ele>
        <time>2023-08-07T17:19:56+02:00</time>
      </trkpt>
      <trkpt lat="44.13156" lon="6.59562">
        <ele>1234.6006</ele>
        <time>2023-08-07T17:19:57+02:00</time>
      </trkpt>
      <trkpt lat="44.13147" lon="6.59565">
        <ele>1235</ele>
        <time>2023-08-07T17:20:01+02:00</time>
      </trkpt>
      <trkpt lat="44.13144" lon="6.59565">
        <ele>1235.5</ele>
        <time>2023-08-07T17:20:02+02:00</time>
      </trkpt>
      <trkpt lat="44.13135" lon="6.59567">
        <ele>1237.7002</ele>
        <time>2023-08-07T17:20:06+02:00</time>
      </trkpt>
      <trkpt lat="44.13132" lon="6.59568">
        <ele>1238.1006</ele>
        <time>2023-08-07T17:20:07+02:00</time>
      </trkpt>
      <trkpt lat="44.13122" lon="6.59569">
        <ele>1238.6006</ele>
        <time>2023-08-07T17:20:11+02:00</time>
      </trkpt>
      <trkpt lat="44.1312" lon="6.59569">
        <ele>1239.2002</ele>
        <time>2023-08-07T17:20:12+02:00</time>
      </trkpt>
      <trkpt lat="44.13111" lon="6.59573">
        <ele>1239.7002</ele>
        <time>2023-08-07T17:20:16+02:00</time>
      </trkpt>
      <trkpt lat="44.13108" lon="6.59574">
        <ele>1240.2002</ele>
        <time>2023-08-07T17:20:17+02:00</time>
      </trkpt>
      <trkpt lat="44.13097" lon="6.59577">
        <ele>1242.2002</ele>
        <time>2023-08-07T17:20:21+02:00</time>
      </trkpt>
      <trkpt lat="44.13095" lon="6.59578">
        <ele>1242.7998</ele>
        <time>2023-08-07T17:20:22+02:00</time>
      </trkpt>
      <trkpt lat="44.13084" lon="6.59582">
        <ele>1243.7998</ele>
        <time>2023-08-07T17:20:26+02:00</time>
      </trkpt>
      <trkpt lat="44.13082" lon="6.59583">
        <ele>1243.7998</ele>
        <time>2023-08-07T17:20:27+02:00</time>
      </trkpt>
      <trkpt lat="44.13072" lon="6.59586">
        <ele>1246.2998</ele>
        <time>2023-08-07T17:20:31+02:00</time>
      </trkpt>
      <trkpt lat="44.13069" lon="6.59587">
        <ele>1246.2998</ele>
        <time>2023-08-07T17:20:32+02:00</time>
      </trkpt>
      <trkpt lat="44.13059" lon="6.59591">
        <ele>1246.9004</ele>
        <time>2023-08-07T17:20:36+02:00</time>
      </trkpt>
      <trkpt lat="44.13056" lon="6.59592">
        <ele>1248.2998</ele>
        <time>2023-08-07T17:20:37+02:00</time>
      </trkpt>
      <trkpt lat="44.13047" lon="6.59595">
        <ele>1248.6006</ele>
        <time>2023-08-07T17:20:41+02:00</time>
      </trkpt>
      <trkpt lat="44.13044" lon="6.59595">
        <ele>1248.6006</ele>
        <time>2023-08-07T17:20:42+02:00</time>
      </trkpt>
      <trkpt lat="44.13035" lon="6.59599">
        <ele>1248.7002</ele>
        <time>2023-08-07T17:20:46+02:00</time>
      </trkpt>
      <trkpt lat="44.13033" lon="6.596">
        <ele>1248.7002</ele>
        <time>2023-08-07T17:20:47+02:00</time>
      </trkpt>
      <trkpt lat="44.13023" lon="6.59603">
        <ele>1250.2002</ele>
        <time>2023-08-07T17:20:51+02:00</time>
      </trkpt>
      <trkpt lat="44.13021" lon="6.59604">
        <ele>1250.1006</ele>
        <time>2023-08-07T17:20:52+02:00</time>
      </trkpt>
      <trkpt lat="44.13011" lon="6.59606">
        <ele>1249.9004</ele>
        <time>2023-08-07T17:20:56+02:00</time>
      </trkpt>
      <trkpt lat="44.13008" lon="6.59606">
        <ele>1249.9004</ele>
        <time>2023-08-07T17:20:57+02:00</time>
      </trkpt>
      <trkpt lat="44.12997" lon="6.59604">
        <ele>1249.2002</ele>
        <time>2023-08-07T17:21:01+02:00</time>
      </trkpt>
      <trkpt lat="44.12995" lon="6.59603">
        <ele>1249.2002</ele>
        <time>2023-08-07T17:21:02+02:00</time>
      </trkpt>
      <trkpt lat="44.12985" lon="6.596">
        <ele>1246.5</ele>
        <time>2023-08-07T17:21:06+02:00</time>
      </trkpt>
      <trkpt lat="44.12982" lon="6.59599">
        <ele>1246.5</ele>
        <time>2023-08-07T17:21:07+02:00</time>
      </trkpt>
      <trkpt lat="44.12971" lon="6.59598">
        <ele>1245.4004</ele>
        <time>2023-08-07T17:21:11+02:00</time>
      </trkpt>
      <trkpt lat="44.12968" lon="6.59598">
        <ele>1245.4004</ele>
        <time>2023-08-07T17:21:12+02:00</time>
      </trkpt>
      <trkpt lat="44.12957" lon="6.59601">
        <ele>1245.9004</ele>
        <time>2023-08-07T17:21:16+02:00</time>
      </trkpt>
      <trkpt lat="44.12954" lon="6.59602">
        <ele>1245.2998</ele>
        <time>2023-08-07T17:21:17+02:00</time>
      </trkpt>
      <trkpt lat="44.12945" lon="6.59608">
        <ele>1244.7002</ele>
        <time>2023-08-07T17:21:21+02:00</time>
      </trkpt>
      <trkpt lat="44.12943" lon="6.5961">
        <ele>1245.7002</ele>
        <time>2023-08-07T17:21:22+02:00</time>
      </trkpt>
      <trkpt lat="44.12935" lon="6.59619">
        <ele>1246.7002</ele>
        <time>2023-08-07T17:21:26+02:00</time>
      </trkpt>
      <trkpt lat="44.12933" lon="6.59621">
        <ele>1246.7002</ele>
        <time>2023-08-07T17:21:27+02:00</time>
      </trkpt>
      <trkpt lat="44.12925" lon="6.5963">
        <ele>1247.7998</ele>
        <time>2023-08-07T17:21:31+02:00</time>
      </trkpt>
      <trkpt lat="44.12923" lon="6.59632">
        <ele>1247.4004</ele>
        <time>2023-08-07T17:21:32+02:00</time>
      </trkpt>
      <trkpt lat="44.12916" lon="6.59639">
        <ele>1248.5</ele>
        <time>2023-08-07T17:21:36+02:00</time>
      </trkpt>
      <trkpt lat="44.12914" lon="6.59641">
        <ele>1248.5</ele>
        <time>2023-08-07T17:21:37+02:00</time>
      </trkpt>
      <trkpt lat="44.12906" lon="6.59649">
        <ele>1249.1006</ele>
        <time>2023-08-07T17:21:41+02:00</time>
      </trkpt>
      <trkpt lat="44.12904" lon="6.59651">
        <ele>1249.1006</ele>
        <time>2023-08-07T17:21:42+02:00</time>
      </trkpt>
      <trkpt lat="44.12896" lon="6.59658">
        <ele>1250.1006</ele>
        <time>2023-08-07T17:21:46+02:00</time>
      </trkpt>
      <trkpt lat="44.12894" lon="6.5966">
        <ele>1251.2002</ele>
        <time>2023-08-07T17:21:47+02:00</time>
      </trkpt>
      <trkpt lat="44.12886" lon="6.59669">
        <ele>1252.2998</ele>
        <time>2023-08-07T17:21:51+02:00</time>
      </trkpt>
      <trkpt lat="44.12884" lon="6.59671">
        <ele>1252.2998</ele>
        <time>2023-08-07T17:21:52+02:00</time>
      </trkpt>
      <trkpt lat="44.12876" lon="6.5968">
        <ele>1253.5</ele>
        <time>2023-08-07T17:21:56+02:00</time>
      </trkpt>
      <trkpt lat="44.12874" lon="6.59682">
        <ele>1253.2002</ele>
        <time>2023-08-07T17:21:57+02:00</time>
      </trkpt>
      <trkpt lat="44.12865" lon="6.5969">
        <ele>1254.4004</ele>
        <time>2023-08-07T17:22:01+02:00</time>
      </trkpt>
      <trkpt lat="44.12862" lon="6.59692">
        <ele>1253.9004</ele>
        <time>2023-08-07T17:22:02+02:00</time>
      </trkpt>
      <trkpt lat="44.12853" lon="6.59699">
        <ele>1255</ele>
        <time>2023-08-07T17:22:06+02:00</time>
      </trkpt>
      <trkpt lat="44.12851" lon="6.59701">
        <ele>1255</ele>
        <time>2023-08-07T17:22:07+02:00</time>
      </trkpt>
      <trkpt lat="44.12842" lon="6.59709">
        <ele>1255.2998</ele>
        <time>2023-08-07T17:22:11+02:00</time>
      </trkpt>
      <trkpt lat="44.1284" lon="6.59711">
        <ele>1255.2998</ele>
        <time>2023-08-07T17:22:12+02:00</time>
      </trkpt>
      <trkpt lat="44.12831" lon="6.59719">
        <ele>1255.1006</ele>
        <time>2023-08-07T17:22:16+02:00</time>
      </trkpt>
      <trkpt lat="44.12829" lon="6.59722">
        <ele>1256.5</ele>
        <time>2023-08-07T17:22:17+02:00</time>
      </trkpt>
      <trkpt lat="44.12822" lon="6.59731">
        <ele>1256.9004</ele>
        <time>2023-08-07T17:22:21+02:00</time>
      </trkpt>
      <trkpt lat="44.1282" lon="6.59734">
        <ele>1255.9004</ele>
        <time>2023-08-07T17:22:22+02:00</time>
      </trkpt>
      <trkpt lat="44.12815" lon="6.59747">
        <ele>1258.5</ele>
        <time>2023-08-07T17:22:26+02:00</time>
      </trkpt>
      <trkpt lat="44.12814" lon="6.59749">
        <ele>1258.5</ele>
        <time>2023-08-07T17:22:27+02:00</time>
      </trkpt>
      <trkpt lat="44.12813" lon="6.59762">
        <ele>1258.6006</ele>
        <time>2023-08-07T17:22:31+02:00</time>
      </trkpt>
      <trkpt lat="44.12813" lon="6.59766">
        <ele>1259.7998</ele>
        <time>2023-08-07T17:22:32+02:00</time>
      </trkpt>
      <trkpt lat="44.12813" lon="6.59778">
        <ele>1260.9004</ele>
        <time>2023-08-07T17:22:36+02:00</time>
      </trkpt>
      <trkpt lat="44.12813" lon="6.5978">
        <ele>1260.9004</ele>
        <time>2023-08-07T17:22:37+02:00</time>
      </trkpt>
      <trkpt lat="44.12814" lon="6.5979">
        <ele>1262.9004</ele>
        <time>2023-08-07T17:22:41+02:00</time>
      </trkpt>
      <trkpt lat="44.12814" lon="6.59794">
        <ele>1264</ele>
        <time>2023-08-07T17:22:42+02:00</time>
      </trkpt>
      <trkpt lat="44.12816" lon="6.59808">
        <ele>1265.9004</ele>
        <time>2023-08-07T17:22:46+02:00</time>
      </trkpt>
      <trkpt lat="44.12816" lon="6.59812">
        <ele>1265.9004</ele>
        <time>2023-08-07T17:22:47+02:00</time>
      </trkpt>
      <trkpt lat="44.12818" lon="6.59826">
        <ele>1267.7002</ele>
        <time>2023-08-07T17:22:51+02:00</time>
      </trkpt>
      <trkpt lat="44.12819" lon="6.59829">
        <ele>1267.7002</ele>
        <time>2023-08-07T17:22:52+02:00</time>
      </trkpt>
      <trkpt lat="44.12821" lon="6.59844">
        <ele>1270.6006</ele>
        <time>2023-08-07T17:22:56+02:00</time>
      </trkpt>
      <trkpt lat="44.12821" lon="6.59848">
        <ele>1270.6006</ele>
        <time>2023-08-07T17:22:57+02:00</time>
      </trkpt>
      <trkpt lat="44.12822" lon="6.59866">
        <ele>1272.4004</ele>
        <time>2023-08-07T17:23:01+02:00</time>
      </trkpt>
      <trkpt lat="44.12822" lon="6.5987">
        <ele>1273.2998</ele>
        <time>2023-08-07T17:23:02+02:00</time>
      </trkpt>
      <trkpt lat="44.12819" lon="6.59884">
        <ele>1273.7002</ele>
        <time>2023-08-07T17:23:06+02:00</time>
      </trkpt>
      <trkpt lat="44.12818" lon="6.59887">
        <ele>1273.7002</ele>
        <time>2023-08-07T17:23:07+02:00</time>
      </trkpt>
      <trkpt lat="44.12811" lon="6.59897">
        <ele>1273.1006</ele>
        <time>2023-08-07T17:23:11+02:00</time>
      </trkpt>
      <trkpt lat="44.12809" lon="6.59899">
        <ele>1273.1006</ele>
        <time>2023-08-07T17:23:12+02:00</time>
      </trkpt>
      <trkpt lat="44.12803" lon="6.59909">
        <ele>1272.6006</ele>
        <time>2023-08-07T17:23:16+02:00</time>
      </trkpt>
      <trkpt lat="44.12803" lon="6.59912">
        <ele>1273.4004</ele>
        <time>2023-08-07T17:23:17+02:00</time>
      </trkpt>
      <trkpt lat="44.12808" lon="6.59911">
        <ele>1274.7998</ele>
        <time>2023-08-07T17:23:21+02:00</time>
      </trkpt>
      <trkpt lat="44.12809" lon="6.59909">
        <ele>1274</ele>
        <time>2023-08-07T17:23:22+02:00</time>
      </trkpt>
      <trkpt lat="44.12816" lon="6.599">
        <ele>1274.5</ele>
        <time>2023-08-07T17:23:26+02:00</time>
      </trkpt>
      <trkpt lat="44.12819" lon="6.59898">
        <ele>1274.5</ele>
        <time>2023-08-07T17:23:27+02:00</time>
      </trkpt>
      <trkpt lat="44.12828" lon="6.59889">
        <ele>1276.1006</ele>
        <time>2023-08-07T17:23:31+02:00</time>
      </trkpt>
      <trkpt lat="44.1283" lon="6.59887">
        <ele>1276.1006</ele>
        <time>2023-08-07T17:23:32+02:00</time>
      </trkpt>
      <trkpt lat="44.1284" lon="6.59884">
        <ele>1277.7002</ele>
        <time>2023-08-07T17:23:36+02:00</time>
      </trkpt>
      <trkpt lat="44.12842" lon="6.59886">
        <ele>1277.7002</ele>
        <time>2023-08-07T17:23:37+02:00</time>
      </trkpt>
      <trkpt lat="44.12843" lon="6.59901">
        <ele>1280</ele>
        <time>2023-08-07T17:23:41+02:00</time>
      </trkpt>
      <trkpt lat="44.12842" lon="6.59905">
        <ele>1280</ele>
        <time>2023-08-07T17:23:42+02:00</time>
      </trkpt>
      <trkpt lat="44.1284" lon="6.5992">
        <ele>1282.2998</ele>
        <time>2023-08-07T17:23:46+02:00</time>
      </trkpt>
      <trkpt lat="44.1284" lon="6.59923">
        <ele>1282.2998</ele>
        <time>2023-08-07T17:23:47+02:00</time>
      </trkpt>
      <trkpt lat="44.12837" lon="6.59937">
        <ele>1283.6006</ele>
        <time>2023-08-07T17:23:51+02:00</time>
      </trkpt>
      <trkpt lat="44.12835" lon="6.5994">
        <ele>1283.6006</ele>
        <time>2023-08-07T17:23:52+02:00</time>
      </trkpt>
      <trkpt lat="44.12829" lon="6.59951">
        <ele>1283.5</ele>
        <time>2023-08-07T17:23:56+02:00</time>
      </trkpt>
      <trkpt lat="44.12827" lon="6.59954">
        <ele>1284.9004</ele>
        <time>2023-08-07T17:23:57+02:00</time>
      </trkpt>
      <trkpt lat="44.1282" lon="6.59963">
        <ele>1283.6006</ele>
        <time>2023-08-07T17:24:01+02:00</time>
      </trkpt>
      <trkpt lat="44.12818" lon="6.59966">
        <ele>1283.6006</ele>
        <time>2023-08-07T17:24:02+02:00</time>
      </trkpt>
      <trkpt lat="44.12813" lon="6.59979">
        <ele>1285.2998</ele>
        <time>2023-08-07T17:24:06+02:00</time>
      </trkpt>
      <trkpt lat="44.12812" lon="6.59982">
        <ele>1285.2998</ele>
        <time>2023-08-07T17:24:07+02:00</time>
      </trkpt>
      <trkpt lat="44.12809" lon="6.59995">
        <ele>1288.5</ele>
        <time>2023-08-07T17:24:11+02:00</time>
      </trkpt>
      <trkpt lat="44.12811" lon="6.59997">
        <ele>1288.5</ele>
        <time>2023-08-07T17:24:12+02:00</time>
      </trkpt>
      <trkpt lat="44.12819" lon="6.5999">
        <ele>1288.4004</ele>
        <time>2023-08-07T17:24:16+02:00</time>
      </trkpt>
      <trkpt lat="44.12821" lon="6.59987">
        <ele>1289.9004</ele>
        <time>2023-08-07T17:24:17+02:00</time>
      </trkpt>
      <trkpt lat="44.12827" lon="6.59977">
        <ele>1287.9004</ele>
        <time>2023-08-07T17:24:21+02:00</time>
      </trkpt>
      <trkpt lat="44.1283" lon="6.59975">
        <ele>1287.9004</ele>
        <time>2023-08-07T17:24:22+02:00</time>
      </trkpt>
      <trkpt lat="44.1284" lon="6.59967">
        <ele>1289.2002</ele>
        <time>2023-08-07T17:24:26+02:00</time>
      </trkpt>
      <trkpt lat="44.12842" lon="6.59965">
        <ele>1289.2002</ele>
        <time>2023-08-07T17:24:27+02:00</time>
      </trkpt>
      <trkpt lat="44.1285" lon="6.59961">
        <ele>1290.7002</ele>
        <time>2023-08-07T17:24:31+02:00</time>
      </trkpt>
      <trkpt lat="44.12852" lon="6.5996">
        <ele>1290.5</ele>
        <time>2023-08-07T17:24:32+02:00</time>
      </trkpt>
      <trkpt lat="44.1286" lon="6.59954">
        <ele>1291.7002</ele>
        <time>2023-08-07T17:24:36+02:00</time>
      </trkpt>
      <trkpt lat="44.12862" lon="6.59952">
        <ele>1290</ele>
        <time>2023-08-07T17:24:37+02:00</time>
      </trkpt>
      <trkpt lat="44.12869" lon="6.59936">
        <ele>1290.1006</ele>
        <time>2023-08-07T17:24:41+02:00</time>
      </trkpt>
      <trkpt lat="44.12871" lon="6.59931">
        <ele>1288.2998</ele>
        <time>2023-08-07T17:24:42+02:00</time>
      </trkpt>
      <trkpt lat="44.1287" lon="6.59909">
        <ele>1283.4004</ele>
        <time>2023-08-07T17:24:46+02:00</time>
      </trkpt>
      <trkpt lat="44.12868" lon="6.59902">
        <ele>1282.7998</ele>
        <time>2023-08-07T17:24:47+02:00</time>
      </trkpt>
      <trkpt lat="44.12865" lon="6.59878">
        <ele>1279.1006</ele>
        <time>2023-08-07T17:24:51+02:00</time>
      </trkpt>
      <trkpt lat="44.12867" lon="6.59874">
        <ele>1278.1006</ele>
        <time>2023-08-07T17:24:52+02:00</time>
      </trkpt>
      <trkpt lat="44.12879" lon="6.59869">
        <ele>1279.2998</ele>
        <time>2023-08-07T17:24:56+02:00</time>
      </trkpt>
      <trkpt lat="44.12883" lon="6.59869">
        <ele>1279.9004</ele>
        <time>2023-08-07T17:24:57+02:00</time>
      </trkpt>
      <trkpt lat="44.12895" lon="6.59865">
        <ele>1279.7998</ele>
        <time>2023-08-07T17:25:01+02:00</time>
      </trkpt>
      <trkpt lat="44.12898" lon="6.59864">
        <ele>1279.7998</ele>
        <time>2023-08-07T17:25:02+02:00</time>
      </trkpt>
      <trkpt lat="44.1291" lon="6.5986">
        <ele>1281</ele>
        <time>2023-08-07T17:25:06+02:00</time>
      </trkpt>
      <trkpt lat="44.12912" lon="6.59859">
        <ele>1281.6006</ele>
        <time>2023-08-07T17:25:07+02:00</time>
      </trkpt>
      <trkpt lat="44.12924" lon="6.59856">
        <ele>1280.9004</ele>
        <time>2023-08-07T17:25:11+02:00</time>
      </trkpt>
      <trkpt lat="44.12927" lon="6.59855">
        <ele>1281.5</ele>
        <time>2023-08-07T17:25:12+02:00</time>
      </trkpt>
      <trkpt lat="44.12939" lon="6.59851">
        <ele>1282.7002</ele>
        <time>2023-08-07T17:25:16+02:00</time>
      </trkpt>
      <trkpt lat="44.12942" lon="6.59849">
        <ele>1282.7002</ele>
        <time>2023-08-07T17:25:17+02:00</time>
      </trkpt>
      <trkpt lat="44.12953" lon="6.59847">
        <ele>1282.5</ele>
        <time>2023-08-07T17:25:21+02:00</time>
      </trkpt>
      <trkpt lat="44.12956" lon="6.59847">
        <ele>1283</ele>
        <time>2023-08-07T17:25:22+02:00</time>
      </trkpt>
      <trkpt lat="44.12967" lon="6.59847">
        <ele>1283.6006</ele>
        <time>2023-08-07T17:25:26+02:00</time>
      </trkpt>
      <trkpt lat="44.1297" lon="6.59846">
        <ele>1284.1006</ele>
        <time>2023-08-07T17:25:27+02:00</time>
      </trkpt>
      <trkpt lat="44.1298" lon="6.59845">
        <ele>1285.2002</ele>
        <time>2023-08-07T17:25:31+02:00</time>
      </trkpt>
      <trkpt lat="44.12983" lon="6.59845">
        <ele>1285.2002</ele>
        <time>2023-08-07T17:25:32+02:00</time>
      </trkpt>
      <trkpt lat="44.12993" lon="6.59844">
        <ele>1286.5</ele>
        <time>2023-08-07T17:25:36+02:00</time>
      </trkpt>
      <trkpt lat="44.12995" lon="6.59843">
        <ele>1286.5</ele>
        <time>2023-08-07T17:25:37+02:00</time>
      </trkpt>
      <trkpt lat="44.13005" lon="6.59845">
        <ele>1288.1006</ele>
        <time>2023-08-07T17:25:41+02:00</time>
      </trkpt>
      <trkpt lat="44.13008" lon="6.59846">
        <ele>1288.1006</ele>
        <time>2023-08-07T17:25:42+02:00</time>
      </trkpt>
      <trkpt lat="44.13017" lon="6.59847">
        <ele>1289.7998</ele>
        <time>2023-08-07T17:25:46+02:00</time>
      </trkpt>
      <trkpt lat="44.1302" lon="6.59846">
        <ele>1289.7998</ele>
        <time>2023-08-07T17:25:47+02:00</time>
      </trkpt>
      <trkpt lat="44.13031" lon="6.59843">
        <ele>1291.6006</ele>
        <time>2023-08-07T17:25:51+02:00</time>
      </trkpt>
      <trkpt lat="44.13034" lon="6.59843">
        <ele>1291.6006</ele>
        <time>2023-08-07T17:25:52+02:00</time>
      </trkpt>
      <trkpt lat="44.13045" lon="6.5984">
        <ele>1291.6006</ele>
        <time>2023-08-07T17:25:56+02:00</time>
      </trkpt>
      <trkpt lat="44.13048" lon="6.59839">
        <ele>1292.7002</ele>
        <time>2023-08-07T17:25:57+02:00</time>
      </trkpt>
      <trkpt lat="44.13057" lon="6.59832">
        <ele>1291.7998</ele>
        <time>2023-08-07T17:26:01+02:00</time>
      </trkpt>
      <trkpt lat="44.1306" lon="6.59829">
        <ele>1291.7998</ele>
        <time>2023-08-07T17:26:02+02:00</time>
      </trkpt>
      <trkpt lat="44.13069" lon="6.59821">
        <ele>1292.1006</ele>
        <time>2023-08-07T17:26:06+02:00</time>
      </trkpt>
      <trkpt lat="44.13072" lon="6.59819">
        <ele>1292.1006</ele>
        <time>2023-08-07T17:26:07+02:00</time>
      </trkpt>
      <trkpt lat="44.13082" lon="6.59812">
        <ele>1292.5</ele>
        <time>2023-08-07T17:26:11+02:00</time>
      </trkpt>
      <trkpt lat="44.13085" lon="6.59811">
        <ele>1293.9004</ele>
        <time>2023-08-07T17:26:12+02:00</time>
      </trkpt>
      <trkpt lat="44.13096" lon="6.59805">
        <ele>1293.2998</ele>
        <time>2023-08-07T17:26:16+02:00</time>
      </trkpt>
      <trkpt lat="44.13099" lon="6.59804">
        <ele>1294.6006</ele>
        <time>2023-08-07T17:26:17+02:00</time>
      </trkpt>
      <trkpt lat="44.1311" lon="6.59795">
        <ele>1295.2002</ele>
        <time>2023-08-07T17:26:21+02:00</time>
      </trkpt>
      <trkpt lat="44.13114" lon="6.59793">
        <ele>1295.2002</ele>
        <time>2023-08-07T17:26:22+02:00</time>
      </trkpt>
      <trkpt lat="44.13132" lon="6.59782">
        <ele>1296.4004</ele>
        <time>2023-08-07T17:26:26+02:00</time>
      </trkpt>
      <trkpt lat="44.13137" lon="6.5978">
        <ele>1294.7998</ele>
        <time>2023-08-07T17:26:27+02:00</time>
      </trkpt>
      <trkpt lat="44.13156" lon="6.59778">
        <ele>1297.2002</ele>
        <time>2023-08-07T17:26:31+02:00</time>
      </trkpt>
      <trkpt lat="44.13161" lon="6.59777">
        <ele>1297.7998</ele>
        <time>2023-08-07T17:26:32+02:00</time>
      </trkpt>
      <trkpt lat="44.13179" lon="6.59776">
        <ele>1299.5</ele>
        <time>2023-08-07T17:26:36+02:00</time>
      </trkpt>
      <trkpt lat="44.13184" lon="6.59776">
        <ele>1299.7998</ele>
        <time>2023-08-07T17:26:37+02:00</time>
      </trkpt>
      <trkpt lat="44.13207" lon="6.5977">
        <ele>1297</ele>
        <time>2023-08-07T17:26:41+02:00</time>
      </trkpt>
      <trkpt lat="44.13214" lon="6.5977">
        <ele>1297</ele>
        <time>2023-08-07T17:26:42+02:00</time>
      </trkpt>
      <trkpt lat="44.13239" lon="6.59777">
        <ele>1298</ele>
        <time>2023-08-07T17:26:46+02:00</time>
      </trkpt>
      <trkpt lat="44.13246" lon="6.59778">
        <ele>1297.4004</ele>
        <time>2023-08-07T17:26:47+02:00</time>
      </trkpt>
      <trkpt lat="44.13266" lon="6.59788">
        <ele>1297.2002</ele>
        <time>2023-08-07T17:26:51+02:00</time>
      </trkpt>
      <trkpt lat="44.13267" lon="6.59792">
        <ele>1299.1006</ele>
        <time>2023-08-07T17:26:52+02:00</time>
      </trkpt>
      <trkpt lat="44.13273" lon="6.59804">
        <ele>1299.9004</ele>
        <time>2023-08-07T17:26:56+02:00</time>
      </trkpt>
      <trkpt lat="44.13275" lon="6.59806">
        <ele>1301.5</ele>
        <time>2023-08-07T17:26:57+02:00</time>
      </trkpt>
      <trkpt lat="44.13281" lon="6.59818">
        <ele>1302.1006</ele>
        <time>2023-08-07T17:27:01+02:00</time>
      </trkpt>
      <trkpt lat="44.13283" lon="6.59821">
        <ele>1301.1006</ele>
        <time>2023-08-07T17:27:02+02:00</time>
      </trkpt>
      <trkpt lat="44.13286" lon="6.59833">
        <ele>1304.2002</ele>
        <time>2023-08-07T17:27:06+02:00</time>
      </trkpt>
      <trkpt lat="44.13287" lon="6.59836">
        <ele>1304.2002</ele>
        <time>2023-08-07T17:27:07+02:00</time>
      </trkpt>
      <trkpt lat="44.13288" lon="6.59847">
        <ele>1305.7002</ele>
        <time>2023-08-07T17:27:11+02:00</time>
      </trkpt>
      <trkpt lat="44.13288" lon="6.5985">
        <ele>1306.1006</ele>
        <time>2023-08-07T17:27:12+02:00</time>
      </trkpt>
      <trkpt lat="44.13288" lon="6.59861">
        <ele>1309</ele>
        <time>2023-08-07T17:27:16+02:00</time>
      </trkpt>
      <trkpt lat="44.13287" lon="6.59863">
        <ele>1309</ele>
        <time>2023-08-07T17:27:17+02:00</time>
      </trkpt>
      <trkpt lat="44.13281" lon="6.59861">
        <ele>1310.5</ele>
        <time>2023-08-07T17:27:21+02:00</time>
      </trkpt>
      <trkpt lat="44.13279" lon="6.5986">
        <ele>1310.5</ele>
        <time>2023-08-07T17:27:22+02:00</time>
      </trkpt>
      <trkpt lat="44.13274" lon="6.59853">
        <ele>1310.2002</ele>
        <time>2023-08-07T17:27:26+02:00</time>
      </trkpt>
      <trkpt lat="44.13273" lon="6.59851">
        <ele>1310.2002</ele>
        <time>2023-08-07T17:27:27+02:00</time>
      </trkpt>
      <trkpt lat="44.13265" lon="6.59846">
        <ele>1309.7002</ele>
        <time>2023-08-07T17:27:31+02:00</time>
      </trkpt>
      <trkpt lat="44.13263" lon="6.59845">
        <ele>1311.2002</ele>
        <time>2023-08-07T17:27:32+02:00</time>
      </trkpt>
      <trkpt lat="44.13253" lon="6.59843">
        <ele>1312.6006</ele>
        <time>2023-08-07T17:27:36+02:00</time>
      </trkpt>
      <trkpt lat="44.1325" lon="6.59844">
        <ele>1314.1006</ele>
        <time>2023-08-07T17:27:37+02:00</time>
      </trkpt>
      <trkpt lat="44.13245" lon="6.59855">
        <ele>1316.2998</ele>
        <time>2023-08-07T17:27:41+02:00</time>
      </trkpt>
      <trkpt lat="44.13246" lon="6.59857">
        <ele>1316.2998</ele>
        <time>2023-08-07T17:27:42+02:00</time>
      </trkpt>
      <trkpt lat="44.13253" lon="6.59866">
        <ele>1316.9004</ele>
        <time>2023-08-07T17:27:46+02:00</time>
      </trkpt>
      <trkpt lat="44.13255" lon="6.59868">
        <ele>1319.2002</ele>
        <time>2023-08-07T17:27:47+02:00</time>
      </trkpt>
      <trkpt lat="44.13261" lon="6.59877">
        <ele>1319.7002</ele>
        <time>2023-08-07T17:27:51+02:00</time>
      </trkpt>
      <trkpt lat="44.13262" lon="6.59879">
        <ele>1319.7002</ele>
        <time>2023-08-07T17:27:52+02:00</time>
      </trkpt>
      <trkpt lat="44.13267" lon="6.5989">
        <ele>1320</ele>
        <time>2023-08-07T17:27:56+02:00</time>
      </trkpt>
      <trkpt lat="44.13268" lon="6.59893">
        <ele>1322.2002</ele>
        <time>2023-08-07T17:27:57+02:00</time>
      </trkpt>
      <trkpt lat="44.13272" lon="6.59905">
        <ele>1322.5</ele>
        <time>2023-08-07T17:28:01+02:00</time>
      </trkpt>
      <trkpt lat="44.13273" lon="6.59909">
        <ele>1322.5</ele>
        <time>2023-08-07T17:28:02+02:00</time>
      </trkpt>
      <trkpt lat="44.13276" lon="6.59923">
        <ele>1327</ele>
        <time>2023-08-07T17:28:06+02:00</time>
      </trkpt>
      <trkpt lat="44.13276" lon="6.59927">
        <ele>1327.2998</ele>
        <time>2023-08-07T17:28:07+02:00</time>
      </trkpt>
      <trkpt lat="44.13278" lon="6.59941">
        <ele>1329.4004</ele>
        <time>2023-08-07T17:28:11+02:00</time>
      </trkpt>
      <trkpt lat="44.1328" lon="6.59944">
        <ele>1331.6006</ele>
        <time>2023-08-07T17:28:12+02:00</time>
      </trkpt>
      <trkpt lat="44.13286" lon="6.59953">
        <ele>1332</ele>
        <time>2023-08-07T17:28:16+02:00</time>
      </trkpt>
      <trkpt lat="44.13287" lon="6.59956">
        <ele>1332</ele>
        <time>2023-08-07T17:28:17+02:00</time>
      </trkpt>
      <trkpt lat="44.13282" lon="6.59962">
        <ele>1334.2002</ele>
        <time>2023-08-07T17:28:21+02:00</time>
      </trkpt>
      <trkpt lat="44.13281" lon="6.59961">
        <ele>1336.1006</ele>
        <time>2023-08-07T17:28:22+02:00</time>
      </trkpt>
      <trkpt lat="44.13277" lon="6.59955">
        <ele>1333.9004</ele>
        <time>2023-08-07T17:28:26+02:00</time>
      </trkpt>
      <trkpt lat="44.13276" lon="6.59953">
        <ele>1333.9004</ele>
        <time>2023-08-07T17:28:27+02:00</time>
      </trkpt>
      <trkpt lat="44.13269" lon="6.59947">
        <ele>1335.5</ele>
        <time>2023-08-07T17:28:31+02:00</time>
      </trkpt>
      <trkpt lat="44.13268" lon="6.59945">
        <ele>1335.5</ele>
        <time>2023-08-07T17:28:32+02:00</time>
      </trkpt>
      <trkpt lat="44.13263" lon="6.59934">
        <ele>1333.1006</ele>
        <time>2023-08-07T17:28:36+02:00</time>
      </trkpt>
      <trkpt lat="44.13261" lon="6.59932">
        <ele>1333.1006</ele>
        <time>2023-08-07T17:28:37+02:00</time>
      </trkpt>
      <trkpt lat="44.13254" lon="6.59924">
        <ele>1332.7998</ele>
        <time>2023-08-07T17:28:41+02:00</time>
      </trkpt>
      <trkpt lat="44.13251" lon="6.59923">
        <ele>1332.7998</ele>
        <time>2023-08-07T17:28:42+02:00</time>
      </trkpt>
      <trkpt lat="44.13243" lon="6.59927">
        <ele>1338.7002</ele>
        <time>2023-08-07T17:28:46+02:00</time>
      </trkpt>
      <trkpt lat="44.13242" lon="6.5993">
        <ele>1338.7002</ele>
        <time>2023-08-07T17:28:47+02:00</time>
      </trkpt>
      <trkpt lat="44.13246" lon="6.59942">
        <ele>1339.1006</ele>
        <time>2023-08-07T17:28:51+02:00</time>
      </trkpt>
      <trkpt lat="44.13247" lon="6.59945">
        <ele>1341.2998</ele>
        <time>2023-08-07T17:28:52+02:00</time>
      </trkpt>
      <trkpt lat="44.13252" lon="6.59956">
        <ele>1341.6006</ele>
        <time>2023-08-07T17:28:56+02:00</time>
      </trkpt>
      <trkpt lat="44.13253" lon="6.59959">
        <ele>1341.6006</ele>
        <time>2023-08-07T17:28:57+02:00</time>
      </trkpt>
      <trkpt lat="44.1326" lon="6.59968">
        <ele>1342</ele>
        <time>2023-08-07T17:29:01+02:00</time>
      </trkpt>
      <trkpt lat="44.13262" lon="6.59971">
        <ele>1344.2998</ele>
        <time>2023-08-07T17:29:02+02:00</time>
      </trkpt>
      <trkpt lat="44.13268" lon="6.59981">
        <ele>1344.7002</ele>
        <time>2023-08-07T17:29:06+02:00</time>
      </trkpt>
      <trkpt lat="44.13269" lon="6.59984">
        <ele>1344.7002</ele>
        <time>2023-08-07T17:29:07+02:00</time>
      </trkpt>
      <trkpt lat="44.13274" lon="6.59996">
        <ele>1347.2002</ele>
        <time>2023-08-07T17:29:11+02:00</time>
      </trkpt>
      <trkpt lat="44.13275" lon="6.59999">
        <ele>1347.2002</ele>
        <time>2023-08-07T17:29:12+02:00</time>
      </trkpt>
      <trkpt lat="44.13284" lon="6.60005">
        <ele>1345.6006</ele>
        <time>2023-08-07T17:29:16+02:00</time>
      </trkpt>
      <trkpt lat="44.13286" lon="6.60006">
        <ele>1345.6006</ele>
        <time>2023-08-07T17:29:17+02:00</time>
      </trkpt>
      <trkpt lat="44.13295" lon="6.60012">
        <ele>1341.9004</ele>
        <time>2023-08-07T17:29:21+02:00</time>
      </trkpt>
      <trkpt lat="44.13297" lon="6.60014">
        <ele>1344.4004</ele>
        <time>2023-08-07T17:29:22+02:00</time>
      </trkpt>
      <trkpt lat="44.13308" lon="6.60021">
        <ele>1343.9004</ele>
        <time>2023-08-07T17:29:26+02:00</time>
      </trkpt>
      <trkpt lat="44.13311" lon="6.60022">
        <ele>1343.9004</ele>
        <time>2023-08-07T17:29:27+02:00</time>
      </trkpt>
      <trkpt lat="44.1332" lon="6.60027">
        <ele>1341.2998</ele>
        <time>2023-08-07T17:29:31+02:00</time>
      </trkpt>
      <trkpt lat="44.13323" lon="6.60027">
        <ele>1341.2998</ele>
        <time>2023-08-07T17:29:32+02:00</time>
      </trkpt>
      <trkpt lat="44.13332" lon="6.6003">
        <ele>1342</ele>
        <time>2023-08-07T17:29:36+02:00</time>
      </trkpt>
      <trkpt lat="44.13335" lon="6.60031">
        <ele>1342</ele>
        <time>2023-08-07T17:29:37+02:00</time>
      </trkpt>
      <trkpt lat="44.13344" lon="6.60035">
        <ele>1340.6006</ele>
        <time>2023-08-07T17:29:41+02:00</time>
      </trkpt>
      <trkpt lat="44.13347" lon="6.60037">
        <ele>1340.6006</ele>
        <time>2023-08-07T17:29:42+02:00</time>
      </trkpt>
      <trkpt lat="44.13356" lon="6.60043">
        <ele>1343.1006</ele>
        <time>2023-08-07T17:29:46+02:00</time>
      </trkpt>
      <trkpt lat="44.13359" lon="6.60044">
        <ele>1343.1006</ele>
        <time>2023-08-07T17:29:47+02:00</time>
      </trkpt>
      <trkpt lat="44.13368" lon="6.60049">
        <ele>1346.4004</ele>
        <time>2023-08-07T17:29:51+02:00</time>
      </trkpt>
      <trkpt lat="44.13371" lon="6.6005">
        <ele>1346.4004</ele>
        <time>2023-08-07T17:29:52+02:00</time>
      </trkpt>
      <trkpt lat="44.13381" lon="6.60056">
        <ele>1349.9004</ele>
        <time>2023-08-07T17:29:56+02:00</time>
      </trkpt>
      <trkpt lat="44.13383" lon="6.60057">
        <ele>1349.9004</ele>
        <time>2023-08-07T17:29:57+02:00</time>
      </trkpt>
      <trkpt lat="44.13393" lon="6.6006">
        <ele>1350.5</ele>
        <time>2023-08-07T17:30:01+02:00</time>
      </trkpt>
      <trkpt lat="44.13396" lon="6.60061">
        <ele>1350.5</ele>
        <time>2023-08-07T17:30:02+02:00</time>
      </trkpt>
      <trkpt lat="44.13406" lon="6.60063">
        <ele>1351.2002</ele>
        <time>2023-08-07T17:30:06+02:00</time>
      </trkpt>
      <trkpt lat="44.1341" lon="6.60064">
        <ele>1351.2002</ele>
        <time>2023-08-07T17:30:07+02:00</time>
      </trkpt>
      <trkpt lat="44.13421" lon="6.60065">
        <ele>1355.6006</ele>
        <time>2023-08-07T17:30:11+02:00</time>
      </trkpt>
      <trkpt lat="44.13424" lon="6.60065">
        <ele>1356.1006</ele>
        <time>2023-08-07T17:30:12+02:00</time>
      </trkpt>
      <trkpt lat="44.13434" lon="6.60066">
        <ele>1356.7002</ele>
        <time>2023-08-07T17:30:16+02:00</time>
      </trkpt>
      <trkpt lat="44.13436" lon="6.60066">
        <ele>1357.2002</ele>
        <time>2023-08-07T17:30:17+02:00</time>
      </trkpt>
      <trkpt lat="44.13446" lon="6.60065">
        <ele>1357.7998</ele>
        <time>2023-08-07T17:30:21+02:00</time>
      </trkpt>
      <trkpt lat="44.13448" lon="6.60065">
        <ele>1357.7998</ele>
        <time>2023-08-07T17:30:22+02:00</time>
      </trkpt>
      <trkpt lat="44.13459" lon="6.60066">
        <ele>1358.7998</ele>
        <time>2023-08-07T17:30:26+02:00</time>
      </trkpt>
      <trkpt lat="44.13461" lon="6.60066">
        <ele>1359.2002</ele>
        <time>2023-08-07T17:30:27+02:00</time>
      </trkpt>
      <trkpt lat="44.13471" lon="6.60069">
        <ele>1359.6006</ele>
        <time>2023-08-07T17:30:31+02:00</time>
      </trkpt>
      <trkpt lat="44.13474" lon="6.6007">
        <ele>1359.9004</ele>
        <time>2023-08-07T17:30:32+02:00</time>
      </trkpt>
      <trkpt lat="44.13484" lon="6.60074">
        <ele>1363.2998</ele>
        <time>2023-08-07T17:30:36+02:00</time>
      </trkpt>
      <trkpt lat="44.13486" lon="6.60075">
        <ele>1363.5</ele>
        <time>2023-08-07T17:30:37+02:00</time>
      </trkpt>
      <trkpt lat="44.13496" lon="6.60081">
        <ele>1366.7998</ele>
        <time>2023-08-07T17:30:41+02:00</time>
      </trkpt>
      <trkpt lat="44.13498" lon="6.60083">
        <ele>1366.7998</ele>
        <time>2023-08-07T17:30:42+02:00</time>
      </trkpt>
      <trkpt lat="44.13508" lon="6.60089">
        <ele>1366.7998</ele>
        <time>2023-08-07T17:30:46+02:00</time>
      </trkpt>
      <trkpt lat="44.13511" lon="6.6009">
        <ele>1370.2002</ele>
        <time>2023-08-07T17:30:47+02:00</time>
      </trkpt>
      <trkpt lat="44.1352" lon="6.60096">
        <ele>1370.1006</ele>
        <time>2023-08-07T17:30:51+02:00</time>
      </trkpt>
      <trkpt lat="44.13522" lon="6.60098">
        <ele>1369.9004</ele>
        <time>2023-08-07T17:30:52+02:00</time>
      </trkpt>
      <trkpt lat="44.13532" lon="6.60104">
        <ele>1373.2002</ele>
        <time>2023-08-07T17:30:56+02:00</time>
      </trkpt>
      <trkpt lat="44.13534" lon="6.60105">
        <ele>1373.2002</ele>
        <time>2023-08-07T17:30:57+02:00</time>
      </trkpt>
      <trkpt lat="44.13543" lon="6.60113">
        <ele>1376.2002</ele>
        <time>2023-08-07T17:31:01+02:00</time>
      </trkpt>
      <trkpt lat="44.13545" lon="6.60115">
        <ele>1376.2002</ele>
        <time>2023-08-07T17:31:02+02:00</time>
      </trkpt>
      <trkpt lat="44.13554" lon="6.60118">
        <ele>1379.1006</ele>
        <time>2023-08-07T17:31:06+02:00</time>
      </trkpt>
      <trkpt lat="44.13557" lon="6.60118">
        <ele>1379.1006</ele>
        <time>2023-08-07T17:31:07+02:00</time>
      </trkpt>
      <trkpt lat="44.13567" lon="6.60115">
        <ele>1374.7002</ele>
        <time>2023-08-07T17:31:11+02:00</time>
      </trkpt>
      <trkpt lat="44.13569" lon="6.60114">
        <ele>1374.7002</ele>
        <time>2023-08-07T17:31:12+02:00</time>
      </trkpt>
      <trkpt lat="44.13579" lon="6.60111">
        <ele>1373.7998</ele>
        <time>2023-08-07T17:31:16+02:00</time>
      </trkpt>
      <trkpt lat="44.13581" lon="6.6011">
        <ele>1373.7998</ele>
        <time>2023-08-07T17:31:17+02:00</time>
      </trkpt>
      <trkpt lat="44.1359" lon="6.60104">
        <ele>1369.7002</ele>
        <time>2023-08-07T17:31:21+02:00</time>
      </trkpt>
      <trkpt lat="44.13592" lon="6.60102">
        <ele>1369.7002</ele>
        <time>2023-08-07T17:31:22+02:00</time>
      </trkpt>
      <trkpt lat="44.13601" lon="6.60096">
        <ele>1365.9004</ele>
        <time>2023-08-07T17:31:26+02:00</time>
      </trkpt>
      <trkpt lat="44.13603" lon="6.60096">
        <ele>1365.4004</ele>
        <time>2023-08-07T17:31:27+02:00</time>
      </trkpt>
      <trkpt lat="44.13612" lon="6.60094">
        <ele>1364.7998</ele>
        <time>2023-08-07T17:31:31+02:00</time>
      </trkpt>
      <trkpt lat="44.13614" lon="6.60095">
        <ele>1364.7998</ele>
        <time>2023-08-07T17:31:32+02:00</time>
      </trkpt>
      <trkpt lat="44.13623" lon="6.60097">
        <ele>1363.5</ele>
        <time>2023-08-07T17:31:36+02:00</time>
      </trkpt>
      <trkpt lat="44.13626" lon="6.60098">
        <ele>1363.5</ele>
        <time>2023-08-07T17:31:37+02:00</time>
      </trkpt>
      <trkpt lat="44.13636" lon="6.60103">
        <ele>1365.7002</ele>
        <time>2023-08-07T17:31:41+02:00</time>
      </trkpt>
      <trkpt lat="44.13639" lon="6.60104">
        <ele>1365.7002</ele>
        <time>2023-08-07T17:31:42+02:00</time>
      </trkpt>
      <trkpt lat="44.13649" lon="6.60109">
        <ele>1367.7002</ele>
        <time>2023-08-07T17:31:46+02:00</time>
      </trkpt>
      <trkpt lat="44.13651" lon="6.60111">
        <ele>1367.7002</ele>
        <time>2023-08-07T17:31:47+02:00</time>
      </trkpt>
      <trkpt lat="44.13661" lon="6.60116">
        <ele>1369.4004</ele>
        <time>2023-08-07T17:31:51+02:00</time>
      </trkpt>
      <trkpt lat="44.13663" lon="6.60117">
        <ele>1369.4004</ele>
        <time>2023-08-07T17:31:52+02:00</time>
      </trkpt>
      <trkpt lat="44.13672" lon="6.60123">
        <ele>1368.2998</ele>
        <time>2023-08-07T17:31:56+02:00</time>
      </trkpt>
      <trkpt lat="44.13674" lon="6.60125">
        <ele>1371</ele>
        <time>2023-08-07T17:31:57+02:00</time>
      </trkpt>
      <trkpt lat="44.13683" lon="6.60132">
        <ele>1369.7998</ele>
        <time>2023-08-07T17:32:01+02:00</time>
      </trkpt>
      <trkpt lat="44.13686" lon="6.60134">
        <ele>1372.5</ele>
        <time>2023-08-07T17:32:02+02:00</time>
      </trkpt>
      <trkpt lat="44.13693" lon="6.60143">
        <ele>1374.6006</ele>
        <time>2023-08-07T17:32:06+02:00</time>
      </trkpt>
      <trkpt lat="44.13694" lon="6.60146">
        <ele>1374.6006</ele>
        <time>2023-08-07T17:32:07+02:00</time>
      </trkpt>
      <trkpt lat="44.13697" lon="6.60159">
        <ele>1379.2998</ele>
        <time>2023-08-07T17:32:11+02:00</time>
      </trkpt>
      <trkpt lat="44.13698" lon="6.60163">
        <ele>1379.2998</ele>
        <time>2023-08-07T17:32:12+02:00</time>
      </trkpt>
      <trkpt lat="44.13703" lon="6.60176">
        <ele>1383.7002</ele>
        <time>2023-08-07T17:32:16+02:00</time>
      </trkpt>
      <trkpt lat="44.13705" lon="6.60178">
        <ele>1383.7002</ele>
        <time>2023-08-07T17:32:17+02:00</time>
      </trkpt>
      <trkpt lat="44.1371" lon="6.60189">
        <ele>1385.6006</ele>
        <time>2023-08-07T17:32:21+02:00</time>
      </trkpt>
      <trkpt lat="44.13711" lon="6.60191">
        <ele>1385.6006</ele>
        <time>2023-08-07T17:32:22+02:00</time>
      </trkpt>
      <trkpt lat="44.13717" lon="6.60203">
        <ele>1389.2998</ele>
        <time>2023-08-07T17:32:26+02:00</time>
      </trkpt>
      <trkpt lat="44.13719" lon="6.60205">
        <ele>1389.2998</ele>
        <time>2023-08-07T17:32:27+02:00</time>
      </trkpt>
      <trkpt lat="44.13724" lon="6.60217">
        <ele>1390.7002</ele>
        <time>2023-08-07T17:32:31+02:00</time>
      </trkpt>
      <trkpt lat="44.13726" lon="6.6022">
        <ele>1391.9004</ele>
        <time>2023-08-07T17:32:32+02:00</time>
      </trkpt>
      <trkpt lat="44.13732" lon="6.60233">
        <ele>1392.9004</ele>
        <time>2023-08-07T17:32:36+02:00</time>
      </trkpt>
      <trkpt lat="44.13733" lon="6.60236">
        <ele>1394.6006</ele>
        <time>2023-08-07T17:32:37+02:00</time>
      </trkpt>
      <trkpt lat="44.13739" lon="6.60247">
        <ele>1395.2998</ele>
        <time>2023-08-07T17:32:41+02:00</time>
      </trkpt>
      <trkpt lat="44.1374" lon="6.6025">
        <ele>1395.2998</ele>
        <time>2023-08-07T17:32:42+02:00</time>
      </trkpt>
      <trkpt lat="44.13744" lon="6.60263">
        <ele>1397.2002</ele>
        <time>2023-08-07T17:32:46+02:00</time>
      </trkpt>
      <trkpt lat="44.13745" lon="6.60266">
        <ele>1397.2002</ele>
        <time>2023-08-07T17:32:47+02:00</time>
      </trkpt>
      <trkpt lat="44.13749" lon="6.6028">
        <ele>1399.9004</ele>
        <time>2023-08-07T17:32:51+02:00</time>
      </trkpt>
      <trkpt lat="44.1375" lon="6.60284">
        <ele>1399.9004</ele>
        <time>2023-08-07T17:32:52+02:00</time>
      </trkpt>
      <trkpt lat="44.13756" lon="6.60297">
        <ele>1401.2998</ele>
        <time>2023-08-07T17:32:56+02:00</time>
      </trkpt>
      <trkpt lat="44.13758" lon="6.60301">
        <ele>1400</ele>
        <time>2023-08-07T17:32:57+02:00</time>
      </trkpt>
      <trkpt lat="44.13765" lon="6.60314">
        <ele>1400.7998</ele>
        <time>2023-08-07T17:33:01+02:00</time>
      </trkpt>
      <trkpt lat="44.13766" lon="6.60318">
        <ele>1400.7998</ele>
        <time>2023-08-07T17:33:02+02:00</time>
      </trkpt>
      <trkpt lat="44.13775" lon="6.60332">
        <ele>1399.7002</ele>
        <time>2023-08-07T17:33:06+02:00</time>
      </trkpt>
      <trkpt lat="44.13778" lon="6.60336">
        <ele>1399.7002</ele>
        <time>2023-08-07T17:33:07+02:00</time>
      </trkpt>
      <trkpt lat="44.13789" lon="6.60352">
        <ele>1399.7002</ele>
        <time>2023-08-07T17:33:11+02:00</time>
      </trkpt>
      <trkpt lat="44.13792" lon="6.60356">
        <ele>1401.7002</ele>
        <time>2023-08-07T17:33:12+02:00</time>
      </trkpt>
      <trkpt lat="44.13804" lon="6.60367">
        <ele>1400.9004</ele>
        <time>2023-08-07T17:33:16+02:00</time>
      </trkpt>
      <trkpt lat="44.13808" lon="6.60369">
        <ele>1399.4004</ele>
        <time>2023-08-07T17:33:17+02:00</time>
      </trkpt>
      <trkpt lat="44.13825" lon="6.60375">
        <ele>1397.7002</ele>
        <time>2023-08-07T17:33:21+02:00</time>
      </trkpt>
      <trkpt lat="44.1383" lon="6.60376">
        <ele>1397.7002</ele>
        <time>2023-08-07T17:33:22+02:00</time>
      </trkpt>
      <trkpt lat="44.13854" lon="6.60379">
        <ele>1393.2002</ele>
        <time>2023-08-07T17:33:26+02:00</time>
      </trkpt>
      <trkpt lat="44.13859" lon="6.60379">
        <ele>1392.5</ele>
        <time>2023-08-07T17:33:27+02:00</time>
      </trkpt>
      <trkpt lat="44.1388" lon="6.60374">
        <ele>1391.5</ele>
        <time>2023-08-07T17:33:31+02:00</time>
      </trkpt>
      <trkpt lat="44.13884" lon="6.60372">
        <ele>1389</ele>
        <time>2023-08-07T17:33:32+02:00</time>
      </trkpt>
      <trkpt lat="44.13901" lon="6.60366">
        <ele>1389.4004</ele>
        <time>2023-08-07T17:33:36+02:00</time>
      </trkpt>
      <trkpt lat="44.13905" lon="6.60364">
        <ele>1389.7998</ele>
        <time>2023-08-07T17:33:37+02:00</time>
      </trkpt>
      <trkpt lat="44.13924" lon="6.60359">
        <ele>1389.2002</ele>
        <time>2023-08-07T17:33:41+02:00</time>
      </trkpt>
      <trkpt lat="44.13928" lon="6.60357">
        <ele>1389.2002</ele>
        <time>2023-08-07T17:33:42+02:00</time>
      </trkpt>
      <trkpt lat="44.13946" lon="6.6035">
        <ele>1389.4004</ele>
        <time>2023-08-07T17:33:46+02:00</time>
      </trkpt>
      <trkpt lat="44.1395" lon="6.60347">
        <ele>1387.7998</ele>
        <time>2023-08-07T17:33:47+02:00</time>
      </trkpt>
      <trkpt lat="44.13968" lon="6.60337">
        <ele>1387.7998</ele>
        <time>2023-08-07T17:33:51+02:00</time>
      </trkpt>
      <trkpt lat="44.13974" lon="6.60335">
        <ele>1388.2998</ele>
        <time>2023-08-07T17:33:52+02:00</time>
      </trkpt>
      <trkpt lat="44.13996" lon="6.60326">
        <ele>1386.4004</ele>
        <time>2023-08-07T17:33:56+02:00</time>
      </trkpt>
      <trkpt lat="44.14001" lon="6.60323">
        <ele>1386.4004</ele>
        <time>2023-08-07T17:33:57+02:00</time>
      </trkpt>
      <trkpt lat="44.14025" lon="6.60316">
        <ele>1383.6006</ele>
        <time>2023-08-07T17:34:01+02:00</time>
      </trkpt>
      <trkpt lat="44.14031" lon="6.60316">
        <ele>1383.2998</ele>
        <time>2023-08-07T17:34:02+02:00</time>
      </trkpt>
      <trkpt lat="44.14051" lon="6.60316">
        <ele>1381.9004</ele>
        <time>2023-08-07T17:34:06+02:00</time>
      </trkpt>
      <trkpt lat="44.14056" lon="6.60316">
        <ele>1381.2002</ele>
        <time>2023-08-07T17:34:07+02:00</time>
      </trkpt>
      <trkpt lat="44.14075" lon="6.6032">
        <ele>1378.4004</ele>
        <time>2023-08-07T17:34:11+02:00</time>
      </trkpt>
      <trkpt lat="44.1408" lon="6.60321">
        <ele>1377.2998</ele>
        <time>2023-08-07T17:34:12+02:00</time>
      </trkpt>
      <trkpt lat="44.14102" lon="6.60323">
        <ele>1373.7998</ele>
        <time>2023-08-07T17:34:16+02:00</time>
      </trkpt>
      <trkpt lat="44.14109" lon="6.60324">
        <ele>1372.4004</ele>
        <time>2023-08-07T17:34:17+02:00</time>
      </trkpt>
      <trkpt lat="44.14137" lon="6.60333">
        <ele>1368.6006</ele>
        <time>2023-08-07T17:34:21+02:00</time>
      </trkpt>
      <trkpt lat="44.14144" lon="6.60338">
        <ele>1365.4004</ele>
        <time>2023-08-07T17:34:22+02:00</time>
      </trkpt>
      <trkpt lat="44.14176" lon="6.60355">
        <ele>1359.2002</ele>
        <time>2023-08-07T17:34:26+02:00</time>
      </trkpt>
      <trkpt lat="44.14182" lon="6.60359">
        <ele>1358.4004</ele>
        <time>2023-08-07T17:34:27+02:00</time>
      </trkpt>
      <trkpt lat="44.14204" lon="6.60381">
        <ele>1355.1006</ele>
        <time>2023-08-07T17:34:31+02:00</time>
      </trkpt>
      <trkpt lat="44.14206" lon="6.60388">
        <ele>1354.9004</ele>
        <time>2023-08-07T17:34:32+02:00</time>
      </trkpt>
      <trkpt lat="44.14205" lon="6.60421">
        <ele>1363.7998</ele>
        <time>2023-08-07T17:34:36+02:00</time>
      </trkpt>
      <trkpt lat="44.14206" lon="6.6043">
        <ele>1365.7998</ele>
        <time>2023-08-07T17:34:37+02:00</time>
      </trkpt>
      <trkpt lat="44.14211" lon="6.60442">
        <ele>1368.7998</ele>
        <time>2023-08-07T17:34:39+02:00</time>
      </trkpt>
      <trkpt lat="44.14219" lon="6.60441">
        <ele>1364</ele>
        <time>2023-08-07T17:34:41+02:00</time>
      </trkpt>
      <trkpt lat="44.14224" lon="6.60439">
        <ele>1364</ele>
        <time>2023-08-07T17:34:42+02:00</time>
      </trkpt>
      <trkpt lat="44.14244" lon="6.60429">
        <ele>1356.9004</ele>
        <time>2023-08-07T17:34:46+02:00</time>
      </trkpt>
      <trkpt lat="44.14251" lon="6.60426">
        <ele>1355.7002</ele>
        <time>2023-08-07T17:34:47+02:00</time>
      </trkpt>
      <trkpt lat="44.14275" lon="6.60415">
        <ele>1347.5</ele>
        <time>2023-08-07T17:34:51+02:00</time>
      </trkpt>
      <trkpt lat="44.14282" lon="6.60413">
        <ele>1346.7998</ele>
        <time>2023-08-07T17:34:52+02:00</time>
      </trkpt>
      <trkpt lat="44.14314" lon="6.60415">
        <ele>1344.5</ele>
        <time>2023-08-07T17:34:56+02:00</time>
      </trkpt>
      <trkpt lat="44.14322" lon="6.60415">
        <ele>1344.1006</ele>
        <time>2023-08-07T17:34:57+02:00</time>
      </trkpt>
      <trkpt lat="44.14352" lon="6.60407">
        <ele>1339.7002</ele>
        <time>2023-08-07T17:35:01+02:00</time>
      </trkpt>
      <trkpt lat="44.14359" lon="6.60404">
        <ele>1339.2998</ele>
        <time>2023-08-07T17:35:02+02:00</time>
      </trkpt>
      <trkpt lat="44.14379" lon="6.60417">
        <ele>1341.7998</ele>
        <time>2023-08-07T17:35:06+02:00</time>
      </trkpt>
      <trkpt lat="44.14383" lon="6.60424">
        <ele>1341.7998</ele>
        <time>2023-08-07T17:35:07+02:00</time>
      </trkpt>
      <trkpt lat="44.14398" lon="6.60443">
        <ele>1346.9004</ele>
        <time>2023-08-07T17:35:11+02:00</time>
      </trkpt>
      <trkpt lat="44.14401" lon="6.60447">
        <ele>1346.9004</ele>
        <time>2023-08-07T17:35:12+02:00</time>
      </trkpt>
      <trkpt lat="44.14407" lon="6.60463">
        <ele>1350.4004</ele>
        <time>2023-08-07T17:35:16+02:00</time>
      </trkpt>
      <trkpt lat="44.14408" lon="6.60468">
        <ele>1352.2002</ele>
        <time>2023-08-07T17:35:17+02:00</time>
      </trkpt>
      <trkpt lat="44.14414" lon="6.60481">
        <ele>1353.7002</ele>
        <time>2023-08-07T17:35:21+02:00</time>
      </trkpt>
      <trkpt lat="44.14416" lon="6.60484">
        <ele>1353.4004</ele>
        <time>2023-08-07T17:35:22+02:00</time>
      </trkpt>
      <trkpt lat="44.14422" lon="6.60494">
        <ele>1356.4004</ele>
        <time>2023-08-07T17:35:26+02:00</time>
      </trkpt>
      <trkpt lat="44.14423" lon="6.60496">
        <ele>1356.4004</ele>
        <time>2023-08-07T17:35:27+02:00</time>
      </trkpt>
      <trkpt lat="44.1443" lon="6.60505">
        <ele>1357.7002</ele>
        <time>2023-08-07T17:35:31+02:00</time>
      </trkpt>
      <trkpt lat="44.14432" lon="6.60507">
        <ele>1357.7002</ele>
        <time>2023-08-07T17:35:32+02:00</time>
      </trkpt>
      <trkpt lat="44.1444" lon="6.60513">
        <ele>1358.5</ele>
        <time>2023-08-07T17:35:36+02:00</time>
      </trkpt>
      <trkpt lat="44.14442" lon="6.60514">
        <ele>1358.5</ele>
        <time>2023-08-07T17:35:37+02:00</time>
      </trkpt>
      <trkpt lat="44.14451" lon="6.60518">
        <ele>1358</ele>
        <time>2023-08-07T17:35:41+02:00</time>
      </trkpt>
      <trkpt lat="44.14454" lon="6.60519">
        <ele>1359.2002</ele>
        <time>2023-08-07T17:35:42+02:00</time>
      </trkpt>
      <trkpt lat="44.14462" lon="6.60528">
        <ele>1360.4004</ele>
        <time>2023-08-07T17:35:46+02:00</time>
      </trkpt>
      <trkpt lat="44.14464" lon="6.6053">
        <ele>1360.4004</ele>
        <time>2023-08-07T17:35:47+02:00</time>
      </trkpt>
      <trkpt lat="44.14471" lon="6.60538">
        <ele>1361.6006</ele>
        <time>2023-08-07T17:35:51+02:00</time>
      </trkpt>
      <trkpt lat="44.14473" lon="6.60539">
        <ele>1361.6006</ele>
        <time>2023-08-07T17:35:52+02:00</time>
      </trkpt>
      <trkpt lat="44.14482" lon="6.60543">
        <ele>1361.5</ele>
        <time>2023-08-07T17:35:56+02:00</time>
      </trkpt>
      <trkpt lat="44.14484" lon="6.60544">
        <ele>1361.5</ele>
        <time>2023-08-07T17:35:57+02:00</time>
      </trkpt>
      <trkpt lat="44.14493" lon="6.60545">
        <ele>1363.4004</ele>
        <time>2023-08-07T17:36:01+02:00</time>
      </trkpt>
      <trkpt lat="44.14495" lon="6.60545">
        <ele>1363.4004</ele>
        <time>2023-08-07T17:36:02+02:00</time>
      </trkpt>
      <trkpt lat="44.14504" lon="6.60544">
        <ele>1361.6006</ele>
        <time>2023-08-07T17:36:06+02:00</time>
      </trkpt>
      <trkpt lat="44.14506" lon="6.60544">
        <ele>1361.6006</ele>
        <time>2023-08-07T17:36:07+02:00</time>
      </trkpt>
      <trkpt lat="44.14513" lon="6.60544">
        <ele>1361.7002</ele>
        <time>2023-08-07T17:36:11+02:00</time>
      </trkpt>
      <trkpt lat="44.14515" lon="6.60543">
        <ele>1361.9004</ele>
        <time>2023-08-07T17:36:12+02:00</time>
      </trkpt>
      <trkpt lat="44.14523" lon="6.60543">
        <ele>1362.2002</ele>
        <time>2023-08-07T17:36:16+02:00</time>
      </trkpt>
      <trkpt lat="44.14525" lon="6.60543">
        <ele>1362.2002</ele>
        <time>2023-08-07T17:36:17+02:00</time>
      </trkpt>
      <trkpt lat="44.14534" lon="6.60544">
        <ele>1363.1006</ele>
        <time>2023-08-07T17:36:21+02:00</time>
      </trkpt>
      <trkpt lat="44.14537" lon="6.60544">
        <ele>1363.1006</ele>
        <time>2023-08-07T17:36:22+02:00</time>
      </trkpt>
      <trkpt lat="44.14546" lon="6.60544">
        <ele>1364.1006</ele>
        <time>2023-08-07T17:36:26+02:00</time>
      </trkpt>
      <trkpt lat="44.14548" lon="6.60544">
        <ele>1364.1006</ele>
        <time>2023-08-07T17:36:27+02:00</time>
      </trkpt>
      <trkpt lat="44.14557" lon="6.60544">
        <ele>1364.7002</ele>
        <time>2023-08-07T17:36:31+02:00</time>
      </trkpt>
      <trkpt lat="44.14559" lon="6.60544">
        <ele>1365.2998</ele>
        <time>2023-08-07T17:36:32+02:00</time>
      </trkpt>
      <trkpt lat="44.14568" lon="6.60544">
        <ele>1365.7998</ele>
        <time>2023-08-07T17:36:36+02:00</time>
      </trkpt>
      <trkpt lat="44.14571" lon="6.60544">
        <ele>1366.2002</ele>
        <time>2023-08-07T17:36:37+02:00</time>
      </trkpt>
      <trkpt lat="44.1458" lon="6.60544">
        <ele>1366.6006</ele>
        <time>2023-08-07T17:36:41+02:00</time>
      </trkpt>
      <trkpt lat="44.14583" lon="6.60544">
        <ele>1367</ele>
        <time>2023-08-07T17:36:42+02:00</time>
      </trkpt>
      <trkpt lat="44.14592" lon="6.60543">
        <ele>1367.4004</ele>
        <time>2023-08-07T17:36:46+02:00</time>
      </trkpt>
      <trkpt lat="44.14594" lon="6.60542">
        <ele>1367.7002</ele>
        <time>2023-08-07T17:36:47+02:00</time>
      </trkpt>
      <trkpt lat="44.14604" lon="6.6054">
        <ele>1368.1006</ele>
        <time>2023-08-07T17:36:51+02:00</time>
      </trkpt>
      <trkpt lat="44.14606" lon="6.6054">
        <ele>1368.1006</ele>
        <time>2023-08-07T17:36:52+02:00</time>
      </trkpt>
      <trkpt lat="44.14615" lon="6.60537">
        <ele>1369</ele>
        <time>2023-08-07T17:36:56+02:00</time>
      </trkpt>
      <trkpt lat="44.14617" lon="6.60536">
        <ele>1369</ele>
        <time>2023-08-07T17:36:57+02:00</time>
      </trkpt>
      <trkpt lat="44.14627" lon="6.60535">
        <ele>1366.7002</ele>
        <time>2023-08-07T17:37:01+02:00</time>
      </trkpt>
      <trkpt lat="44.14629" lon="6.60535">
        <ele>1366.7002</ele>
        <time>2023-08-07T17:37:02+02:00</time>
      </trkpt>
      <trkpt lat="44.14638" lon="6.60535">
        <ele>1368.2002</ele>
        <time>2023-08-07T17:37:06+02:00</time>
      </trkpt>
      <trkpt lat="44.14641" lon="6.60536">
        <ele>1368.2002</ele>
        <time>2023-08-07T17:37:07+02:00</time>
      </trkpt>
      <trkpt lat="44.1465" lon="6.60536">
        <ele>1373.7002</ele>
        <time>2023-08-07T17:37:11+02:00</time>
      </trkpt>
      <trkpt lat="44.14652" lon="6.60536">
        <ele>1373.7002</ele>
        <time>2023-08-07T17:37:12+02:00</time>
      </trkpt>
      <trkpt lat="44.14661" lon="6.60536">
        <ele>1374.5</ele>
        <time>2023-08-07T17:37:16+02:00</time>
      </trkpt>
      <trkpt lat="44.14663" lon="6.60536">
        <ele>1375</ele>
        <time>2023-08-07T17:37:17+02:00</time>
      </trkpt>
      <trkpt lat="44.14672" lon="6.60534">
        <ele>1372.1006</ele>
        <time>2023-08-07T17:37:21+02:00</time>
      </trkpt>
      <trkpt lat="44.14675" lon="6.60534">
        <ele>1372.5</ele>
        <time>2023-08-07T17:37:22+02:00</time>
      </trkpt>
      <trkpt lat="44.14684" lon="6.6053">
        <ele>1372.7002</ele>
        <time>2023-08-07T17:37:26+02:00</time>
      </trkpt>
      <trkpt lat="44.14686" lon="6.60529">
        <ele>1372.7002</ele>
        <time>2023-08-07T17:37:27+02:00</time>
      </trkpt>
      <trkpt lat="44.14694" lon="6.60526">
        <ele>1369.5</ele>
        <time>2023-08-07T17:37:31+02:00</time>
      </trkpt>
      <trkpt lat="44.14697" lon="6.60526">
        <ele>1369.5</ele>
        <time>2023-08-07T17:37:32+02:00</time>
      </trkpt>
      <trkpt lat="44.14706" lon="6.60524">
        <ele>1369.5</ele>
        <time>2023-08-07T17:37:36+02:00</time>
      </trkpt>
      <trkpt lat="44.14708" lon="6.60524">
        <ele>1369.5</ele>
        <time>2023-08-07T17:37:37+02:00</time>
      </trkpt>
      <trkpt lat="44.14718" lon="6.60525">
        <ele>1369.4004</ele>
        <time>2023-08-07T17:37:41+02:00</time>
      </trkpt>
      <trkpt lat="44.1472" lon="6.60526">
        <ele>1369.4004</ele>
        <time>2023-08-07T17:37:42+02:00</time>
      </trkpt>
      <trkpt lat="44.14729" lon="6.60529">
        <ele>1373</ele>
        <time>2023-08-07T17:37:46+02:00</time>
      </trkpt>
      <trkpt lat="44.14731" lon="6.60531">
        <ele>1373.2002</ele>
        <time>2023-08-07T17:37:47+02:00</time>
      </trkpt>
      <trkpt lat="44.14739" lon="6.60536">
        <ele>1377</ele>
        <time>2023-08-07T17:37:51+02:00</time>
      </trkpt>
      <trkpt lat="44.14742" lon="6.60538">
        <ele>1377.2998</ele>
        <time>2023-08-07T17:37:52+02:00</time>
      </trkpt>
      <trkpt lat="44.1475" lon="6.60544">
        <ele>1377.7002</ele>
        <time>2023-08-07T17:37:56+02:00</time>
      </trkpt>
      <trkpt lat="44.14752" lon="6.60545">
        <ele>1381.1006</ele>
        <time>2023-08-07T17:37:57+02:00</time>
      </trkpt>
      <trkpt lat="44.14761" lon="6.6055">
        <ele>1382.2002</ele>
        <time>2023-08-07T17:38:01+02:00</time>
      </trkpt>
      <trkpt lat="44.14763" lon="6.60551">
        <ele>1382.2002</ele>
        <time>2023-08-07T17:38:02+02:00</time>
      </trkpt>
      <trkpt lat="44.14771" lon="6.60555">
        <ele>1386.1006</ele>
        <time>2023-08-07T17:38:06+02:00</time>
      </trkpt>
      <trkpt lat="44.14773" lon="6.60556">
        <ele>1386.5</ele>
        <time>2023-08-07T17:38:07+02:00</time>
      </trkpt>
      <trkpt lat="44.14781" lon="6.60561">
        <ele>1386.7998</ele>
        <time>2023-08-07T17:38:11+02:00</time>
      </trkpt>
      <trkpt lat="44.14783" lon="6.60562">
        <ele>1390.1006</ele>
        <time>2023-08-07T17:38:12+02:00</time>
      </trkpt>
      <trkpt lat="44.14791" lon="6.60569">
        <ele>1390.2998</ele>
        <time>2023-08-07T17:38:16+02:00</time>
      </trkpt>
      <trkpt lat="44.14793" lon="6.60571">
        <ele>1393.7998</ele>
        <time>2023-08-07T17:38:17+02:00</time>
      </trkpt>
      <trkpt lat="44.14801" lon="6.60577">
        <ele>1393.9004</ele>
        <time>2023-08-07T17:38:21+02:00</time>
      </trkpt>
      <trkpt lat="44.14804" lon="6.60578">
        <ele>1393.9004</ele>
        <time>2023-08-07T17:38:22+02:00</time>
      </trkpt>
      <trkpt lat="44.14813" lon="6.60583">
        <ele>1397.2998</ele>
        <time>2023-08-07T17:38:26+02:00</time>
      </trkpt>
      <trkpt lat="44.14815" lon="6.60584">
        <ele>1397.2998</ele>
        <time>2023-08-07T17:38:27+02:00</time>
      </trkpt>
      <trkpt lat="44.14824" lon="6.60588">
        <ele>1400.2998</ele>
        <time>2023-08-07T17:38:31+02:00</time>
      </trkpt>
      <trkpt lat="44.14826" lon="6.60588">
        <ele>1400.2998</ele>
        <time>2023-08-07T17:38:32+02:00</time>
      </trkpt>
      <trkpt lat="44.14835" lon="6.6059">
        <ele>1399.7002</ele>
        <time>2023-08-07T17:38:36+02:00</time>
      </trkpt>
      <trkpt lat="44.14838" lon="6.6059">
        <ele>1399.7002</ele>
        <time>2023-08-07T17:38:37+02:00</time>
      </trkpt>
      <trkpt lat="44.14847" lon="6.60595">
        <ele>1398.7998</ele>
        <time>2023-08-07T17:38:41+02:00</time>
      </trkpt>
      <trkpt lat="44.14849" lon="6.60596">
        <ele>1402.2002</ele>
        <time>2023-08-07T17:38:42+02:00</time>
      </trkpt>
      <trkpt lat="44.14856" lon="6.60603">
        <ele>1401.7998</ele>
        <time>2023-08-07T17:38:46+02:00</time>
      </trkpt>
      <trkpt lat="44.14858" lon="6.60604">
        <ele>1401.7998</ele>
        <time>2023-08-07T17:38:47+02:00</time>
      </trkpt>
      <trkpt lat="44.14866" lon="6.60608">
        <ele>1404.1006</ele>
        <time>2023-08-07T17:38:51+02:00</time>
      </trkpt>
      <trkpt lat="44.14868" lon="6.60609">
        <ele>1404.1006</ele>
        <time>2023-08-07T17:38:52+02:00</time>
      </trkpt>
      <trkpt lat="44.14877" lon="6.60612">
        <ele>1403.6006</ele>
        <time>2023-08-07T17:38:56+02:00</time>
      </trkpt>
      <trkpt lat="44.14879" lon="6.60613">
        <ele>1403</ele>
        <time>2023-08-07T17:38:57+02:00</time>
      </trkpt>
      <trkpt lat="44.14887" lon="6.60616">
        <ele>1405.7998</ele>
        <time>2023-08-07T17:39:01+02:00</time>
      </trkpt>
      <trkpt lat="44.14889" lon="6.60617">
        <ele>1405.7998</ele>
        <time>2023-08-07T17:39:02+02:00</time>
      </trkpt>
      <trkpt lat="44.14897" lon="6.60621">
        <ele>1404.7002</ele>
        <time>2023-08-07T17:39:06+02:00</time>
      </trkpt>
      <trkpt lat="44.14899" lon="6.60622">
        <ele>1408.1006</ele>
        <time>2023-08-07T17:39:07+02:00</time>
      </trkpt>
      <trkpt lat="44.14907" lon="6.60625">
        <ele>1407.4004</ele>
        <time>2023-08-07T17:39:11+02:00</time>
      </trkpt>
      <trkpt lat="44.1491" lon="6.60625">
        <ele>1406.6006</ele>
        <time>2023-08-07T17:39:12+02:00</time>
      </trkpt>
      <trkpt lat="44.14919" lon="6.60626">
        <ele>1405.7002</ele>
        <time>2023-08-07T17:39:16+02:00</time>
      </trkpt>
      <trkpt lat="44.14921" lon="6.60627">
        <ele>1404.7002</ele>
        <time>2023-08-07T17:39:17+02:00</time>
      </trkpt>
      <trkpt lat="44.1493" lon="6.60628">
        <ele>1403.7002</ele>
        <time>2023-08-07T17:39:21+02:00</time>
      </trkpt>
      <trkpt lat="44.14932" lon="6.60628">
        <ele>1403.7002</ele>
        <time>2023-08-07T17:39:22+02:00</time>
      </trkpt>
      <trkpt lat="44.1494" lon="6.60629">
        <ele>1401.5</ele>
        <time>2023-08-07T17:39:26+02:00</time>
      </trkpt>
      <trkpt lat="44.14942" lon="6.60629">
        <ele>1401.5</ele>
        <time>2023-08-07T17:39:27+02:00</time>
      </trkpt>
      <trkpt lat="44.1495" lon="6.60634">
        <ele>1403.6006</ele>
        <time>2023-08-07T17:39:31+02:00</time>
      </trkpt>
      <trkpt lat="44.14952" lon="6.60635">
        <ele>1402.4004</ele>
        <time>2023-08-07T17:39:32+02:00</time>
      </trkpt>
      <trkpt lat="44.14959" lon="6.60642">
        <ele>1404.4004</ele>
        <time>2023-08-07T17:39:36+02:00</time>
      </trkpt>
      <trkpt lat="44.1496" lon="6.60645">
        <ele>1404.4004</ele>
        <time>2023-08-07T17:39:37+02:00</time>
      </trkpt>
      <trkpt lat="44.14967" lon="6.60653">
        <ele>1406.5</ele>
        <time>2023-08-07T17:39:41+02:00</time>
      </trkpt>
      <trkpt lat="44.14969" lon="6.60655">
        <ele>1406.5</ele>
        <time>2023-08-07T17:39:42+02:00</time>
      </trkpt>
      <trkpt lat="44.14977" lon="6.60663">
        <ele>1406.9004</ele>
        <time>2023-08-07T17:39:46+02:00</time>
      </trkpt>
      <trkpt lat="44.14979" lon="6.60665">
        <ele>1410.4004</ele>
        <time>2023-08-07T17:39:47+02:00</time>
      </trkpt>
      <trkpt lat="44.14986" lon="6.60676">
        <ele>1412.4004</ele>
        <time>2023-08-07T17:39:51+02:00</time>
      </trkpt>
      <trkpt lat="44.14988" lon="6.60679">
        <ele>1410.7002</ele>
        <time>2023-08-07T17:39:52+02:00</time>
      </trkpt>
      <trkpt lat="44.14998" lon="6.6069">
        <ele>1412.4004</ele>
        <time>2023-08-07T17:39:56+02:00</time>
      </trkpt>
      <trkpt lat="44.15" lon="6.60692">
        <ele>1416.1006</ele>
        <time>2023-08-07T17:39:57+02:00</time>
      </trkpt>
      <trkpt lat="44.15011" lon="6.60704">
        <ele>1415.7002</ele>
        <time>2023-08-07T17:40:01+02:00</time>
      </trkpt>
      <trkpt lat="44.15014" lon="6.60708">
        <ele>1417</ele>
        <time>2023-08-07T17:40:02+02:00</time>
      </trkpt>
      <trkpt lat="44.1503" lon="6.60723">
        <ele>1416.1006</ele>
        <time>2023-08-07T17:40:06+02:00</time>
      </trkpt>
      <trkpt lat="44.15035" lon="6.60727">
        <ele>1417.5</ele>
        <time>2023-08-07T17:40:07+02:00</time>
      </trkpt>
      <trkpt lat="44.15061" lon="6.60741">
        <ele>1412.2998</ele>
        <time>2023-08-07T17:40:11+02:00</time>
      </trkpt>
      <trkpt lat="44.15069" lon="6.60743">
        <ele>1411.4004</ele>
        <time>2023-08-07T17:40:12+02:00</time>
      </trkpt>
      <trkpt lat="44.15102" lon="6.60752">
        <ele>1404.4004</ele>
        <time>2023-08-07T17:40:16+02:00</time>
      </trkpt>
      <trkpt lat="44.15111" lon="6.60754">
        <ele>1402.2998</ele>
        <time>2023-08-07T17:40:17+02:00</time>
      </trkpt>
      <trkpt lat="44.15139" lon="6.60758">
        <ele>1392.2002</ele>
        <time>2023-08-07T17:40:21+02:00</time>
      </trkpt>
      <trkpt lat="44.15144" lon="6.60761">
        <ele>1392.4004</ele>
        <time>2023-08-07T17:40:22+02:00</time>
      </trkpt>
      <trkpt lat="44.15163" lon="6.60786">
        <ele>1392.2998</ele>
        <time>2023-08-07T17:40:26+02:00</time>
      </trkpt>
      <trkpt lat="44.15167" lon="6.60793">
        <ele>1390</ele>
        <time>2023-08-07T17:40:27+02:00</time>
      </trkpt>
      <trkpt lat="44.15188" lon="6.60823">
        <ele>1390.2998</ele>
        <time>2023-08-07T17:40:31+02:00</time>
      </trkpt>
      <trkpt lat="44.15194" lon="6.60831">
        <ele>1390.1006</ele>
        <time>2023-08-07T17:40:32+02:00</time>
      </trkpt>
      <trkpt lat="44.1522" lon="6.60861">
        <ele>1388.7002</ele>
        <time>2023-08-07T17:40:36+02:00</time>
      </trkpt>
      <trkpt lat="44.15228" lon="6.60868">
        <ele>1389.2998</ele>
        <time>2023-08-07T17:40:37+02:00</time>
      </trkpt>
      <trkpt lat="44.15259" lon="6.60887">
        <ele>1387.9004</ele>
        <time>2023-08-07T17:40:41+02:00</time>
      </trkpt>
      <trkpt lat="44.15267" lon="6.6089">
        <ele>1388.9004</ele>
        <time>2023-08-07T17:40:42+02:00</time>
      </trkpt>
      <trkpt lat="44.15301" lon="6.60898">
        <ele>1387.2002</ele>
        <time>2023-08-07T17:40:46+02:00</time>
      </trkpt>
      <trkpt lat="44.15309" lon="6.609">
        <ele>1385</ele>
        <time>2023-08-07T17:40:47+02:00</time>
      </trkpt>
      <trkpt lat="44.15333" lon="6.60916">
        <ele>1386.7998</ele>
        <time>2023-08-07T17:40:51+02:00</time>
      </trkpt>
      <trkpt lat="44.15338" lon="6.60919">
        <ele>1385.2002</ele>
        <time>2023-08-07T17:40:52+02:00</time>
      </trkpt>
      <trkpt lat="44.15363" lon="6.60926">
        <ele>1380.2998</ele>
        <time>2023-08-07T17:40:56+02:00</time>
      </trkpt>
      <trkpt lat="44.15369" lon="6.60928">
        <ele>1378.2998</ele>
        <time>2023-08-07T17:40:57+02:00</time>
      </trkpt>
      <trkpt lat="44.15391" lon="6.60948">
        <ele>1373.5</ele>
        <time>2023-08-07T17:41:01+02:00</time>
      </trkpt>
      <trkpt lat="44.15397" lon="6.60953">
        <ele>1370.7002</ele>
        <time>2023-08-07T17:41:02+02:00</time>
      </trkpt>
      <trkpt lat="44.15414" lon="6.60975">
        <ele>1366</ele>
        <time>2023-08-07T17:41:06+02:00</time>
      </trkpt>
      <trkpt lat="44.15417" lon="6.60982">
        <ele>1367.2002</ele>
        <time>2023-08-07T17:41:07+02:00</time>
      </trkpt>
      <trkpt lat="44.15426" lon="6.61011">
        <ele>1365.7002</ele>
        <time>2023-08-07T17:41:11+02:00</time>
      </trkpt>
      <trkpt lat="44.15428" lon="6.61018">
        <ele>1366.7002</ele>
        <time>2023-08-07T17:41:12+02:00</time>
      </trkpt>
      <trkpt lat="44.15439" lon="6.61045">
        <ele>1364</ele>
        <time>2023-08-07T17:41:16+02:00</time>
      </trkpt>
      <trkpt lat="44.15442" lon="6.61052">
        <ele>1364.6006</ele>
        <time>2023-08-07T17:41:17+02:00</time>
      </trkpt>
      <trkpt lat="44.15456" lon="6.61079">
        <ele>1358.7002</ele>
        <time>2023-08-07T17:41:21+02:00</time>
      </trkpt>
      <trkpt lat="44.15458" lon="6.61089">
        <ele>1359</ele>
        <time>2023-08-07T17:41:22+02:00</time>
      </trkpt>
      <trkpt lat="44.15456" lon="6.61127">
        <ele>1359.9004</ele>
        <time>2023-08-07T17:41:26+02:00</time>
      </trkpt>
      <trkpt lat="44.15454" lon="6.61134">
        <ele>1362.2998</ele>
        <time>2023-08-07T17:41:27+02:00</time>
      </trkpt>
      <trkpt lat="44.15445" lon="6.61166">
        <ele>1366.5</ele>
        <time>2023-08-07T17:41:31+02:00</time>
      </trkpt>
      <trkpt lat="44.15444" lon="6.61176">
        <ele>1367.1006</ele>
        <time>2023-08-07T17:41:32+02:00</time>
      </trkpt>
      <trkpt lat="44.15442" lon="6.61213">
        <ele>1372.5</ele>
        <time>2023-08-07T17:41:36+02:00</time>
      </trkpt>
      <trkpt lat="44.15442" lon="6.61223">
        <ele>1374.2002</ele>
        <time>2023-08-07T17:41:37+02:00</time>
      </trkpt>
      <trkpt lat="44.1544" lon="6.61256">
        <ele>1379.1006</ele>
        <time>2023-08-07T17:41:41+02:00</time>
      </trkpt>
      <trkpt lat="44.15441" lon="6.61262">
        <ele>1381.2002</ele>
        <time>2023-08-07T17:41:42+02:00</time>
      </trkpt>
      <trkpt lat="44.15447" lon="6.6127">
        <ele>1382.2002</ele>
        <time>2023-08-07T17:41:44+02:00</time>
      </trkpt>
      <trkpt lat="44.15456" lon="6.61267">
        <ele>1381.2998</ele>
        <time>2023-08-07T17:41:46+02:00</time>
      </trkpt>
      <trkpt lat="44.15459" lon="6.61265">
        <ele>1377.7002</ele>
        <time>2023-08-07T17:41:47+02:00</time>
      </trkpt>
      <trkpt lat="44.1547" lon="6.61258">
        <ele>1376.7002</ele>
        <time>2023-08-07T17:41:51+02:00</time>
      </trkpt>
      <trkpt lat="44.15473" lon="6.61257">
        <ele>1376.7002</ele>
        <time>2023-08-07T17:41:52+02:00</time>
      </trkpt>
      <trkpt lat="44.15486" lon="6.61254">
        <ele>1373.2002</ele>
        <time>2023-08-07T17:41:56+02:00</time>
      </trkpt>
      <trkpt lat="44.15489" lon="6.61254">
        <ele>1372.7002</ele>
        <time>2023-08-07T17:41:57+02:00</time>
      </trkpt>
      <trkpt lat="44.15503" lon="6.61253">
        <ele>1372.1006</ele>
        <time>2023-08-07T17:42:01+02:00</time>
      </trkpt>
      <trkpt lat="44.15507" lon="6.61252">
        <ele>1371.7998</ele>
        <time>2023-08-07T17:42:02+02:00</time>
      </trkpt>
      <trkpt lat="44.1552" lon="6.61245">
        <ele>1369.2998</ele>
        <time>2023-08-07T17:42:06+02:00</time>
      </trkpt>
      <trkpt lat="44.15523" lon="6.61243">
        <ele>1369.2998</ele>
        <time>2023-08-07T17:42:07+02:00</time>
      </trkpt>
      <trkpt lat="44.15534" lon="6.61234">
        <ele>1367.1006</ele>
        <time>2023-08-07T17:42:11+02:00</time>
      </trkpt>
      <trkpt lat="44.15537" lon="6.61232">
        <ele>1367.2002</ele>
        <time>2023-08-07T17:42:12+02:00</time>
      </trkpt>
      <trkpt lat="44.15551" lon="6.61228">
        <ele>1365.2002</ele>
        <time>2023-08-07T17:42:16+02:00</time>
      </trkpt>
      <trkpt lat="44.15554" lon="6.61227">
        <ele>1365.2002</ele>
        <time>2023-08-07T17:42:17+02:00</time>
      </trkpt>
      <trkpt lat="44.15568" lon="6.61225">
        <ele>1364.7998</ele>
        <time>2023-08-07T17:42:21+02:00</time>
      </trkpt>
      <trkpt lat="44.15571" lon="6.61226">
        <ele>1364.7998</ele>
        <time>2023-08-07T17:42:22+02:00</time>
      </trkpt>
      <trkpt lat="44.15586" lon="6.6124">
        <ele>1367.6006</ele>
        <time>2023-08-07T17:42:26+02:00</time>
      </trkpt>
      <trkpt lat="44.15589" lon="6.61244">
        <ele>1367.6006</ele>
        <time>2023-08-07T17:42:27+02:00</time>
      </trkpt>
      <trkpt lat="44.15605" lon="6.61255">
        <ele>1368.5</ele>
        <time>2023-08-07T17:42:31+02:00</time>
      </trkpt>
      <trkpt lat="44.15609" lon="6.61256">
        <ele>1368.5</ele>
        <time>2023-08-07T17:42:32+02:00</time>
      </trkpt>
      <trkpt lat="44.15624" lon="6.61256">
        <ele>1366.4004</ele>
        <time>2023-08-07T17:42:36+02:00</time>
      </trkpt>
      <trkpt lat="44.15628" lon="6.61256">
        <ele>1366.4004</ele>
        <time>2023-08-07T17:42:37+02:00</time>
      </trkpt>
      <trkpt lat="44.15643" lon="6.61256">
        <ele>1363.7998</ele>
        <time>2023-08-07T17:42:41+02:00</time>
      </trkpt>
      <trkpt lat="44.15647" lon="6.61256">
        <ele>1363.7998</ele>
        <time>2023-08-07T17:42:42+02:00</time>
      </trkpt>
      <trkpt lat="44.15659" lon="6.61259">
        <ele>1363.2002</ele>
        <time>2023-08-07T17:42:46+02:00</time>
      </trkpt>
      <trkpt lat="44.15663" lon="6.61261">
        <ele>1363.2002</ele>
        <time>2023-08-07T17:42:47+02:00</time>
      </trkpt>
      <trkpt lat="44.15673" lon="6.61273">
        <ele>1363.7002</ele>
        <time>2023-08-07T17:42:51+02:00</time>
      </trkpt>
      <trkpt lat="44.15675" lon="6.61277">
        <ele>1366</ele>
        <time>2023-08-07T17:42:52+02:00</time>
      </trkpt>
      <trkpt lat="44.15683" lon="6.61293">
        <ele>1369.7998</ele>
        <time>2023-08-07T17:42:56+02:00</time>
      </trkpt>
      <trkpt lat="44.15685" lon="6.61297">
        <ele>1368.7998</ele>
        <time>2023-08-07T17:42:57+02:00</time>
      </trkpt>
      <trkpt lat="44.15692" lon="6.61315">
        <ele>1372.2002</ele>
        <time>2023-08-07T17:43:01+02:00</time>
      </trkpt>
      <trkpt lat="44.15693" lon="6.61319">
        <ele>1374.2998</ele>
        <time>2023-08-07T17:43:02+02:00</time>
      </trkpt>
      <trkpt lat="44.157" lon="6.61336">
        <ele>1377.5</ele>
        <time>2023-08-07T17:43:06+02:00</time>
      </trkpt>
      <trkpt lat="44.15702" lon="6.6134">
        <ele>1377.5</ele>
        <time>2023-08-07T17:43:07+02:00</time>
      </trkpt>
      <trkpt lat="44.15708" lon="6.61356">
        <ele>1380.9004</ele>
        <time>2023-08-07T17:43:11+02:00</time>
      </trkpt>
      <trkpt lat="44.1571" lon="6.6136">
        <ele>1382</ele>
        <time>2023-08-07T17:43:12+02:00</time>
      </trkpt>
      <trkpt lat="44.15719" lon="6.61375">
        <ele>1383.1006</ele>
        <time>2023-08-07T17:43:16+02:00</time>
      </trkpt>
      <trkpt lat="44.15721" lon="6.61378">
        <ele>1384.2002</ele>
        <time>2023-08-07T17:43:17+02:00</time>
      </trkpt>
      <trkpt lat="44.15731" lon="6.61391">
        <ele>1385.2002</ele>
        <time>2023-08-07T17:43:21+02:00</time>
      </trkpt>
      <trkpt lat="44.15733" lon="6.61395">
        <ele>1386.2998</ele>
        <time>2023-08-07T17:43:22+02:00</time>
      </trkpt>
      <trkpt lat="44.15744" lon="6.61406">
        <ele>1387.4004</ele>
        <time>2023-08-07T17:43:26+02:00</time>
      </trkpt>
      <trkpt lat="44.15747" lon="6.61408">
        <ele>1386</ele>
        <time>2023-08-07T17:43:27+02:00</time>
      </trkpt>
      <trkpt lat="44.1576" lon="6.61416">
        <ele>1385.5</ele>
        <time>2023-08-07T17:43:31+02:00</time>
      </trkpt>
      <trkpt lat="44.15763" lon="6.61417">
        <ele>1385.5</ele>
        <time>2023-08-07T17:43:32+02:00</time>
      </trkpt>
      <trkpt lat="44.15775" lon="6.61424">
        <ele>1385</ele>
        <time>2023-08-07T17:43:36+02:00</time>
      </trkpt>
      <trkpt lat="44.15779" lon="6.61426">
        <ele>1383.6006</ele>
        <time>2023-08-07T17:43:37+02:00</time>
      </trkpt>
      <trkpt lat="44.1579" lon="6.61432">
        <ele>1382.9004</ele>
        <time>2023-08-07T17:43:41+02:00</time>
      </trkpt>
      <trkpt lat="44.15794" lon="6.61433">
        <ele>1382.9004</ele>
        <time>2023-08-07T17:43:42+02:00</time>
      </trkpt>
      <trkpt lat="44.15807" lon="6.61438">
        <ele>1382.1006</ele>
        <time>2023-08-07T17:43:46+02:00</time>
      </trkpt>
      <trkpt lat="44.1581" lon="6.6144">
        <ele>1380.6006</ele>
        <time>2023-08-07T17:43:47+02:00</time>
      </trkpt>
      <trkpt lat="44.15823" lon="6.61449">
        <ele>1379.4004</ele>
        <time>2023-08-07T17:43:51+02:00</time>
      </trkpt>
      <trkpt lat="44.15826" lon="6.61452">
        <ele>1377.7998</ele>
        <time>2023-08-07T17:43:52+02:00</time>
      </trkpt>
      <trkpt lat="44.15837" lon="6.61465">
        <ele>1379.2002</ele>
        <time>2023-08-07T17:43:56+02:00</time>
      </trkpt>
      <trkpt lat="44.15839" lon="6.61469">
        <ele>1377.2998</ele>
        <time>2023-08-07T17:43:57+02:00</time>
      </trkpt>
      <trkpt lat="44.15846" lon="6.61485">
        <ele>1377.9004</ele>
        <time>2023-08-07T17:44:01+02:00</time>
      </trkpt>
      <trkpt lat="44.15847" lon="6.6149">
        <ele>1379</ele>
        <time>2023-08-07T17:44:02+02:00</time>
      </trkpt>
      <trkpt lat="44.15851" lon="6.61507">
        <ele>1379.2998</ele>
        <time>2023-08-07T17:44:06+02:00</time>
      </trkpt>
      <trkpt lat="44.15852" lon="6.61512">
        <ele>1379.2998</ele>
        <time>2023-08-07T17:44:07+02:00</time>
      </trkpt>
      <trkpt lat="44.15854" lon="6.61529">
        <ele>1381.4004</ele>
        <time>2023-08-07T17:44:11+02:00</time>
      </trkpt>
      <trkpt lat="44.15854" lon="6.61533">
        <ele>1382.4004</ele>
        <time>2023-08-07T17:44:12+02:00</time>
      </trkpt>
      <trkpt lat="44.15854" lon="6.6155">
        <ele>1384.5</ele>
        <time>2023-08-07T17:44:16+02:00</time>
      </trkpt>
      <trkpt lat="44.15855" lon="6.61554">
        <ele>1384.5</ele>
        <time>2023-08-07T17:44:17+02:00</time>
      </trkpt>
      <trkpt lat="44.15861" lon="6.6157">
        <ele>1385.2002</ele>
        <time>2023-08-07T17:44:21+02:00</time>
      </trkpt>
      <trkpt lat="44.15863" lon="6.61574">
        <ele>1383.7002</ele>
        <time>2023-08-07T17:44:22+02:00</time>
      </trkpt>
      <trkpt lat="44.15869" lon="6.61591">
        <ele>1385.2998</ele>
        <time>2023-08-07T17:44:26+02:00</time>
      </trkpt>
      <trkpt lat="44.1587" lon="6.61595">
        <ele>1386.7998</ele>
        <time>2023-08-07T17:44:27+02:00</time>
      </trkpt>
      <trkpt lat="44.1587" lon="6.61612">
        <ele>1389.7002</ele>
        <time>2023-08-07T17:44:31+02:00</time>
      </trkpt>
      <trkpt lat="44.15869" lon="6.61617">
        <ele>1389.7002</ele>
        <time>2023-08-07T17:44:32+02:00</time>
      </trkpt>
      <trkpt lat="44.15865" lon="6.61635">
        <ele>1394.9004</ele>
        <time>2023-08-07T17:44:36+02:00</time>
      </trkpt>
      <trkpt lat="44.15864" lon="6.6164">
        <ele>1394.9004</ele>
        <time>2023-08-07T17:44:37+02:00</time>
      </trkpt>
      <trkpt lat="44.15859" lon="6.61656">
        <ele>1399.6006</ele>
        <time>2023-08-07T17:44:41+02:00</time>
      </trkpt>
      <trkpt lat="44.15859" lon="6.61661">
        <ele>1401.2998</ele>
        <time>2023-08-07T17:44:42+02:00</time>
      </trkpt>
      <trkpt lat="44.15859" lon="6.61678">
        <ele>1405</ele>
        <time>2023-08-07T17:44:46+02:00</time>
      </trkpt>
      <trkpt lat="44.1586" lon="6.61682">
        <ele>1405</ele>
        <time>2023-08-07T17:44:47+02:00</time>
      </trkpt>
      <trkpt lat="44.15865" lon="6.61698">
        <ele>1407.4004</ele>
        <time>2023-08-07T17:44:51+02:00</time>
      </trkpt>
      <trkpt lat="44.15867" lon="6.61702">
        <ele>1407.4004</ele>
        <time>2023-08-07T17:44:52+02:00</time>
      </trkpt>
      <trkpt lat="44.15876" lon="6.61714">
        <ele>1408.6006</ele>
        <time>2023-08-07T17:44:56+02:00</time>
      </trkpt>
      <trkpt lat="44.15878" lon="6.61716">
        <ele>1408.6006</ele>
        <time>2023-08-07T17:44:57+02:00</time>
      </trkpt>
      <trkpt lat="44.1589" lon="6.61723">
        <ele>1408.2002</ele>
        <time>2023-08-07T17:45:01+02:00</time>
      </trkpt>
      <trkpt lat="44.15893" lon="6.61725">
        <ele>1408.2002</ele>
        <time>2023-08-07T17:45:02+02:00</time>
      </trkpt>
      <trkpt lat="44.15905" lon="6.61732">
        <ele>1408.1006</ele>
        <time>2023-08-07T17:45:06+02:00</time>
      </trkpt>
      <trkpt lat="44.15909" lon="6.61734">
        <ele>1407</ele>
        <time>2023-08-07T17:45:07+02:00</time>
      </trkpt>
      <trkpt lat="44.15919" lon="6.61745">
        <ele>1407.1006</ele>
        <time>2023-08-07T17:45:11+02:00</time>
      </trkpt>
      <trkpt lat="44.15922" lon="6.61748">
        <ele>1409.5</ele>
        <time>2023-08-07T17:45:12+02:00</time>
      </trkpt>
      <trkpt lat="44.15932" lon="6.6176">
        <ele>1409.6006</ele>
        <time>2023-08-07T17:45:16+02:00</time>
      </trkpt>
      <trkpt lat="44.15934" lon="6.61763">
        <ele>1411.6006</ele>
        <time>2023-08-07T17:45:17+02:00</time>
      </trkpt>
      <trkpt lat="44.15943" lon="6.61776">
        <ele>1411.6006</ele>
        <time>2023-08-07T17:45:21+02:00</time>
      </trkpt>
      <trkpt lat="44.15945" lon="6.61779">
        <ele>1411.6006</ele>
        <time>2023-08-07T17:45:22+02:00</time>
      </trkpt>
      <trkpt lat="44.15951" lon="6.61794">
        <ele>1414.7002</ele>
        <time>2023-08-07T17:45:26+02:00</time>
      </trkpt>
      <trkpt lat="44.15953" lon="6.61798">
        <ele>1416.5</ele>
        <time>2023-08-07T17:45:27+02:00</time>
      </trkpt>
      <trkpt lat="44.15959" lon="6.61815">
        <ele>1419</ele>
        <time>2023-08-07T17:45:31+02:00</time>
      </trkpt>
      <trkpt lat="44.1596" lon="6.61819">
        <ele>1419</ele>
        <time>2023-08-07T17:45:32+02:00</time>
      </trkpt>
      <trkpt lat="44.15967" lon="6.61836">
        <ele>1421.2002</ele>
        <time>2023-08-07T17:45:36+02:00</time>
      </trkpt>
      <trkpt lat="44.15969" lon="6.6184">
        <ele>1421.2002</ele>
        <time>2023-08-07T17:45:37+02:00</time>
      </trkpt>
      <trkpt lat="44.15977" lon="6.61854">
        <ele>1424.5</ele>
        <time>2023-08-07T17:45:41+02:00</time>
      </trkpt>
      <trkpt lat="44.1598" lon="6.61858">
        <ele>1426.2002</ele>
        <time>2023-08-07T17:45:42+02:00</time>
      </trkpt>
      <trkpt lat="44.15989" lon="6.61869">
        <ele>1427.9004</ele>
        <time>2023-08-07T17:45:46+02:00</time>
      </trkpt>
      <trkpt lat="44.15992" lon="6.61872">
        <ele>1427.2002</ele>
        <time>2023-08-07T17:45:47+02:00</time>
      </trkpt>
      <trkpt lat="44.16" lon="6.61885">
        <ele>1431.5</ele>
        <time>2023-08-07T17:45:51+02:00</time>
      </trkpt>
      <trkpt lat="44.16002" lon="6.61889">
        <ele>1431.5</ele>
        <time>2023-08-07T17:45:52+02:00</time>
      </trkpt>
      <trkpt lat="44.16009" lon="6.61907">
        <ele>1436.6006</ele>
        <time>2023-08-07T17:45:56+02:00</time>
      </trkpt>
      <trkpt lat="44.16011" lon="6.61911">
        <ele>1438.9004</ele>
        <time>2023-08-07T17:45:57+02:00</time>
      </trkpt>
      <trkpt lat="44.16019" lon="6.61927">
        <ele>1444.9004</ele>
        <time>2023-08-07T17:46:01+02:00</time>
      </trkpt>
      <trkpt lat="44.16021" lon="6.61931">
        <ele>1444.9004</ele>
        <time>2023-08-07T17:46:02+02:00</time>
      </trkpt>
      <trkpt lat="44.16032" lon="6.61943">
        <ele>1446.4004</ele>
        <time>2023-08-07T17:46:06+02:00</time>
      </trkpt>
      <trkpt lat="44.16034" lon="6.61945">
        <ele>1450.1006</ele>
        <time>2023-08-07T17:46:07+02:00</time>
      </trkpt>
      <trkpt lat="44.16047" lon="6.61954">
        <ele>1451.1006</ele>
        <time>2023-08-07T17:46:11+02:00</time>
      </trkpt>
      <trkpt lat="44.1605" lon="6.61956">
        <ele>1449.7998</ele>
        <time>2023-08-07T17:46:12+02:00</time>
      </trkpt>
      <trkpt lat="44.16063" lon="6.61962">
        <ele>1450.2998</ele>
        <time>2023-08-07T17:46:16+02:00</time>
      </trkpt>
      <trkpt lat="44.16066" lon="6.61963">
        <ele>1448.9004</ele>
        <time>2023-08-07T17:46:17+02:00</time>
      </trkpt>
      <trkpt lat="44.16078" lon="6.61967">
        <ele>1446.2002</ele>
        <time>2023-08-07T17:46:21+02:00</time>
      </trkpt>
      <trkpt lat="44.16081" lon="6.61968">
        <ele>1446.2002</ele>
        <time>2023-08-07T17:46:22+02:00</time>
      </trkpt>
      <trkpt lat="44.16092" lon="6.61978">
        <ele>1446.5</ele>
        <time>2023-08-07T17:46:26+02:00</time>
      </trkpt>
      <trkpt lat="44.16095" lon="6.6198">
        <ele>1449.7002</ele>
        <time>2023-08-07T17:46:27+02:00</time>
      </trkpt>
      <trkpt lat="44.16105" lon="6.6199">
        <ele>1450.4004</ele>
        <time>2023-08-07T17:46:31+02:00</time>
      </trkpt>
      <trkpt lat="44.16108" lon="6.61992">
        <ele>1450.4004</ele>
        <time>2023-08-07T17:46:32+02:00</time>
      </trkpt>
      <trkpt lat="44.16119" lon="6.62002">
        <ele>1451.1006</ele>
        <time>2023-08-07T17:46:36+02:00</time>
      </trkpt>
      <trkpt lat="44.16123" lon="6.62005">
        <ele>1453.1006</ele>
        <time>2023-08-07T17:46:37+02:00</time>
      </trkpt>
      <trkpt lat="44.16134" lon="6.62016">
        <ele>1453.6006</ele>
        <time>2023-08-07T17:46:41+02:00</time>
      </trkpt>
      <trkpt lat="44.16138" lon="6.62017">
        <ele>1453.6006</ele>
        <time>2023-08-07T17:46:42+02:00</time>
      </trkpt>
      <trkpt lat="44.16151" lon="6.62019">
        <ele>1451.2002</ele>
        <time>2023-08-07T17:46:46+02:00</time>
      </trkpt>
      <trkpt lat="44.16155" lon="6.62019">
        <ele>1450</ele>
        <time>2023-08-07T17:46:47+02:00</time>
      </trkpt>
      <trkpt lat="44.16168" lon="6.62021">
        <ele>1450.7998</ele>
        <time>2023-08-07T17:46:51+02:00</time>
      </trkpt>
      <trkpt lat="44.16172" lon="6.62022">
        <ele>1449.7002</ele>
        <time>2023-08-07T17:46:52+02:00</time>
      </trkpt>
      <trkpt lat="44.16182" lon="6.62035">
        <ele>1451.5</ele>
        <time>2023-08-07T17:46:56+02:00</time>
      </trkpt>
      <trkpt lat="44.16183" lon="6.62039">
        <ele>1453.2002</ele>
        <time>2023-08-07T17:46:57+02:00</time>
      </trkpt>
      <trkpt lat="44.16187" lon="6.62058">
        <ele>1459.1006</ele>
        <time>2023-08-07T17:47:01+02:00</time>
      </trkpt>
      <trkpt lat="44.16189" lon="6.62063">
        <ele>1459.1006</ele>
        <time>2023-08-07T17:47:02+02:00</time>
      </trkpt>
      <trkpt lat="44.16197" lon="6.62078">
        <ele>1462.5</ele>
        <time>2023-08-07T17:47:06+02:00</time>
      </trkpt>
      <trkpt lat="44.162" lon="6.62081">
        <ele>1465.5</ele>
        <time>2023-08-07T17:47:07+02:00</time>
      </trkpt>
      <trkpt lat="44.16208" lon="6.62095">
        <ele>1466.2002</ele>
        <time>2023-08-07T17:47:11+02:00</time>
      </trkpt>
      <trkpt lat="44.1621" lon="6.62098">
        <ele>1469.2002</ele>
        <time>2023-08-07T17:47:12+02:00</time>
      </trkpt>
      <trkpt lat="44.16219" lon="6.62113">
        <ele>1470.7998</ele>
        <time>2023-08-07T17:47:16+02:00</time>
      </trkpt>
      <trkpt lat="44.16221" lon="6.62116">
        <ele>1472.2998</ele>
        <time>2023-08-07T17:47:17+02:00</time>
      </trkpt>
      <trkpt lat="44.16229" lon="6.62129">
        <ele>1473.6006</ele>
        <time>2023-08-07T17:47:21+02:00</time>
      </trkpt>
      <trkpt lat="44.16232" lon="6.62133">
        <ele>1476.4004</ele>
        <time>2023-08-07T17:47:22+02:00</time>
      </trkpt>
      <trkpt lat="44.16242" lon="6.62144">
        <ele>1475.6006</ele>
        <time>2023-08-07T17:47:26+02:00</time>
      </trkpt>
      <trkpt lat="44.16245" lon="6.62145">
        <ele>1473.9004</ele>
        <time>2023-08-07T17:47:27+02:00</time>
      </trkpt>
      <trkpt lat="44.16256" lon="6.62152">
        <ele>1474.7002</ele>
        <time>2023-08-07T17:47:31+02:00</time>
      </trkpt>
      <trkpt lat="44.16259" lon="6.62155">
        <ele>1473</ele>
        <time>2023-08-07T17:47:32+02:00</time>
      </trkpt>
      <trkpt lat="44.16268" lon="6.62168">
        <ele>1476.4004</ele>
        <time>2023-08-07T17:47:36+02:00</time>
      </trkpt>
      <trkpt lat="44.1627" lon="6.6217">
        <ele>1474.7002</ele>
        <time>2023-08-07T17:47:37+02:00</time>
      </trkpt>
      <trkpt lat="44.16279" lon="6.62181">
        <ele>1475.7002</ele>
        <time>2023-08-07T17:47:41+02:00</time>
      </trkpt>
      <trkpt lat="44.16282" lon="6.62184">
        <ele>1474.1006</ele>
        <time>2023-08-07T17:47:42+02:00</time>
      </trkpt>
      <trkpt lat="44.16292" lon="6.62189">
        <ele>1475</ele>
        <time>2023-08-07T17:47:46+02:00</time>
      </trkpt>
      <trkpt lat="44.16295" lon="6.62189">
        <ele>1473.4004</ele>
        <time>2023-08-07T17:47:47+02:00</time>
      </trkpt>
      <trkpt lat="44.16307" lon="6.62188">
        <ele>1470.1006</ele>
        <time>2023-08-07T17:47:51+02:00</time>
      </trkpt>
      <trkpt lat="44.1631" lon="6.62188">
        <ele>1470.1006</ele>
        <time>2023-08-07T17:47:52+02:00</time>
      </trkpt>
      <trkpt lat="44.16323" lon="6.62188">
        <ele>1466.9004</ele>
        <time>2023-08-07T17:47:56+02:00</time>
      </trkpt>
      <trkpt lat="44.16326" lon="6.62189">
        <ele>1465.2998</ele>
        <time>2023-08-07T17:47:57+02:00</time>
      </trkpt>
      <trkpt lat="44.16334" lon="6.62203">
        <ele>1468.6006</ele>
        <time>2023-08-07T17:48:01+02:00</time>
      </trkpt>
      <trkpt lat="44.16334" lon="6.62208">
        <ele>1468.6006</ele>
        <time>2023-08-07T17:48:02+02:00</time>
      </trkpt>
      <trkpt lat="44.16334" lon="6.62227">
        <ele>1477.1006</ele>
        <time>2023-08-07T17:48:06+02:00</time>
      </trkpt>
      <trkpt lat="44.16335" lon="6.62232">
        <ele>1477.1006</ele>
        <time>2023-08-07T17:48:07+02:00</time>
      </trkpt>
      <trkpt lat="44.16337" lon="6.62249">
        <ele>1480.9004</ele>
        <time>2023-08-07T17:48:11+02:00</time>
      </trkpt>
      <trkpt lat="44.16337" lon="6.62253">
        <ele>1483.2998</ele>
        <time>2023-08-07T17:48:12+02:00</time>
      </trkpt>
      <trkpt lat="44.1634" lon="6.6227">
        <ele>1488.2002</ele>
        <time>2023-08-07T17:48:16+02:00</time>
      </trkpt>
      <trkpt lat="44.1634" lon="6.62274">
        <ele>1488.2002</ele>
        <time>2023-08-07T17:48:17+02:00</time>
      </trkpt>
      <trkpt lat="44.16345" lon="6.62291">
        <ele>1491.6006</ele>
        <time>2023-08-07T17:48:21+02:00</time>
      </trkpt>
      <trkpt lat="44.16347" lon="6.62294">
        <ele>1491.6006</ele>
        <time>2023-08-07T17:48:22+02:00</time>
      </trkpt>
      <trkpt lat="44.16357" lon="6.62306">
        <ele>1493.1006</ele>
        <time>2023-08-07T17:48:26+02:00</time>
      </trkpt>
      <trkpt lat="44.1636" lon="6.62309">
        <ele>1493.1006</ele>
        <time>2023-08-07T17:48:27+02:00</time>
      </trkpt>
      <trkpt lat="44.16371" lon="6.62319">
        <ele>1494</ele>
        <time>2023-08-07T17:48:31+02:00</time>
      </trkpt>
      <trkpt lat="44.16374" lon="6.62321">
        <ele>1496.5</ele>
        <time>2023-08-07T17:48:32+02:00</time>
      </trkpt>
      <trkpt lat="44.16387" lon="6.62326">
        <ele>1496.6006</ele>
        <time>2023-08-07T17:48:36+02:00</time>
      </trkpt>
      <trkpt lat="44.1639" lon="6.62327">
        <ele>1496.6006</ele>
        <time>2023-08-07T17:48:37+02:00</time>
      </trkpt>
      <trkpt lat="44.16402" lon="6.62326">
        <ele>1495.6006</ele>
        <time>2023-08-07T17:48:41+02:00</time>
      </trkpt>
      <trkpt lat="44.16404" lon="6.62325">
        <ele>1495.2998</ele>
        <time>2023-08-07T17:48:42+02:00</time>
      </trkpt>
      <trkpt lat="44.16417" lon="6.62323">
        <ele>1495.2998</ele>
        <time>2023-08-07T17:48:46+02:00</time>
      </trkpt>
      <trkpt lat="44.1642" lon="6.62322">
        <ele>1495.2998</ele>
        <time>2023-08-07T17:48:47+02:00</time>
      </trkpt>
      <trkpt lat="44.16433" lon="6.62321">
        <ele>1495.6006</ele>
        <time>2023-08-07T17:48:51+02:00</time>
      </trkpt>
      <trkpt lat="44.16437" lon="6.62321">
        <ele>1492.4004</ele>
        <time>2023-08-07T17:48:52+02:00</time>
      </trkpt>
      <trkpt lat="44.1645" lon="6.62321">
        <ele>1492.7998</ele>
        <time>2023-08-07T17:48:56+02:00</time>
      </trkpt>
      <trkpt lat="44.16453" lon="6.62322">
        <ele>1496.4004</ele>
        <time>2023-08-07T17:48:57+02:00</time>
      </trkpt>
      <trkpt lat="44.16466" lon="6.62331">
        <ele>1500.1006</ele>
        <time>2023-08-07T17:49:01+02:00</time>
      </trkpt>
      <trkpt lat="44.16468" lon="6.62334">
        <ele>1500.1006</ele>
        <time>2023-08-07T17:49:02+02:00</time>
      </trkpt>
      <trkpt lat="44.16479" lon="6.62348">
        <ele>1506.4004</ele>
        <time>2023-08-07T17:49:06+02:00</time>
      </trkpt>
      <trkpt lat="44.16482" lon="6.62351">
        <ele>1506.4004</ele>
        <time>2023-08-07T17:49:07+02:00</time>
      </trkpt>
      <trkpt lat="44.16492" lon="6.6236">
        <ele>1509.1006</ele>
        <time>2023-08-07T17:49:11+02:00</time>
      </trkpt>
      <trkpt lat="44.16495" lon="6.62362">
        <ele>1509.1006</ele>
        <time>2023-08-07T17:49:12+02:00</time>
      </trkpt>
      <trkpt lat="44.16506" lon="6.62372">
        <ele>1511</ele>
        <time>2023-08-07T17:49:16+02:00</time>
      </trkpt>
      <trkpt lat="44.16508" lon="6.62374">
        <ele>1514.2002</ele>
        <time>2023-08-07T17:49:17+02:00</time>
      </trkpt>
      <trkpt lat="44.16518" lon="6.62387">
        <ele>1515.2002</ele>
        <time>2023-08-07T17:49:21+02:00</time>
      </trkpt>
      <trkpt lat="44.16521" lon="6.62391">
        <ele>1518.2998</ele>
        <time>2023-08-07T17:49:22+02:00</time>
      </trkpt>
      <trkpt lat="44.16531" lon="6.62403">
        <ele>1518.2998</ele>
        <time>2023-08-07T17:49:26+02:00</time>
      </trkpt>
      <trkpt lat="44.16534" lon="6.62406">
        <ele>1518.2998</ele>
        <time>2023-08-07T17:49:27+02:00</time>
      </trkpt>
      <trkpt lat="44.16543" lon="6.62419">
        <ele>1520.4004</ele>
        <time>2023-08-07T17:49:31+02:00</time>
      </trkpt>
      <trkpt lat="44.16545" lon="6.62423">
        <ele>1520.4004</ele>
        <time>2023-08-07T17:49:32+02:00</time>
      </trkpt>
      <trkpt lat="44.16554" lon="6.62437">
        <ele>1521.7998</ele>
        <time>2023-08-07T17:49:36+02:00</time>
      </trkpt>
      <trkpt lat="44.16556" lon="6.6244">
        <ele>1521.7998</ele>
        <time>2023-08-07T17:49:37+02:00</time>
      </trkpt>
      <trkpt lat="44.16564" lon="6.62453">
        <ele>1525.4004</ele>
        <time>2023-08-07T17:49:41+02:00</time>
      </trkpt>
      <trkpt lat="44.16566" lon="6.62456">
        <ele>1523.2998</ele>
        <time>2023-08-07T17:49:42+02:00</time>
      </trkpt>
      <trkpt lat="44.16575" lon="6.6247">
        <ele>1526.7998</ele>
        <time>2023-08-07T17:49:46+02:00</time>
      </trkpt>
      <trkpt lat="44.16578" lon="6.62473">
        <ele>1524.5</ele>
        <time>2023-08-07T17:49:47+02:00</time>
      </trkpt>
      <trkpt lat="44.16588" lon="6.62483">
        <ele>1525.1006</ele>
        <time>2023-08-07T17:49:51+02:00</time>
      </trkpt>
      <trkpt lat="44.16591" lon="6.62486">
        <ele>1525.7002</ele>
        <time>2023-08-07T17:49:52+02:00</time>
      </trkpt>
      <trkpt lat="44.16599" lon="6.62498">
        <ele>1526.4004</ele>
        <time>2023-08-07T17:49:56+02:00</time>
      </trkpt>
      <trkpt lat="44.16601" lon="6.62502">
        <ele>1529.5</ele>
        <time>2023-08-07T17:49:57+02:00</time>
      </trkpt>
      <trkpt lat="44.16609" lon="6.62516">
        <ele>1528.4004</ele>
        <time>2023-08-07T17:50:01+02:00</time>
      </trkpt>
      <trkpt lat="44.16612" lon="6.62519">
        <ele>1531.7002</ele>
        <time>2023-08-07T17:50:02+02:00</time>
      </trkpt>
      <trkpt lat="44.16623" lon="6.62529">
        <ele>1531.2002</ele>
        <time>2023-08-07T17:50:06+02:00</time>
      </trkpt>
      <trkpt lat="44.16626" lon="6.62531">
        <ele>1529.5</ele>
        <time>2023-08-07T17:50:07+02:00</time>
      </trkpt>
      <trkpt lat="44.16638" lon="6.62541">
        <ele>1531.4004</ele>
        <time>2023-08-07T17:50:11+02:00</time>
      </trkpt>
      <trkpt lat="44.16641" lon="6.62543">
        <ele>1529.7998</ele>
        <time>2023-08-07T17:50:12+02:00</time>
      </trkpt>
      <trkpt lat="44.16655" lon="6.62546">
        <ele>1530.4004</ele>
        <time>2023-08-07T17:50:16+02:00</time>
      </trkpt>
      <trkpt lat="44.16658" lon="6.62547">
        <ele>1529</ele>
        <time>2023-08-07T17:50:17+02:00</time>
      </trkpt>
      <trkpt lat="44.16672" lon="6.62549">
        <ele>1526.6006</ele>
        <time>2023-08-07T17:50:21+02:00</time>
      </trkpt>
      <trkpt lat="44.16675" lon="6.62551">
        <ele>1526.6006</ele>
        <time>2023-08-07T17:50:22+02:00</time>
      </trkpt>
      <trkpt lat="44.16688" lon="6.62556">
        <ele>1527.2002</ele>
        <time>2023-08-07T17:50:26+02:00</time>
      </trkpt>
      <trkpt lat="44.16691" lon="6.62558">
        <ele>1527.2002</ele>
        <time>2023-08-07T17:50:27+02:00</time>
      </trkpt>
      <trkpt lat="44.16704" lon="6.62565">
        <ele>1529.1006</ele>
        <time>2023-08-07T17:50:31+02:00</time>
      </trkpt>
      <trkpt lat="44.16706" lon="6.62568">
        <ele>1528</ele>
        <time>2023-08-07T17:50:32+02:00</time>
      </trkpt>
      <trkpt lat="44.16716" lon="6.6258">
        <ele>1534.4004</ele>
        <time>2023-08-07T17:50:36+02:00</time>
      </trkpt>
      <trkpt lat="44.16719" lon="6.62582">
        <ele>1533.1006</ele>
        <time>2023-08-07T17:50:37+02:00</time>
      </trkpt>
      <trkpt lat="44.16731" lon="6.6259">
        <ele>1534</ele>
        <time>2023-08-07T17:50:41+02:00</time>
      </trkpt>
      <trkpt lat="44.16734" lon="6.62592">
        <ele>1534</ele>
        <time>2023-08-07T17:50:42+02:00</time>
      </trkpt>
      <trkpt lat="44.16745" lon="6.62602">
        <ele>1534.4004</ele>
        <time>2023-08-07T17:50:46+02:00</time>
      </trkpt>
      <trkpt lat="44.16747" lon="6.62605">
        <ele>1537.7002</ele>
        <time>2023-08-07T17:50:47+02:00</time>
      </trkpt>
      <trkpt lat="44.16757" lon="6.62618">
        <ele>1537.7002</ele>
        <time>2023-08-07T17:50:51+02:00</time>
      </trkpt>
      <trkpt lat="44.16759" lon="6.62621">
        <ele>1537.7002</ele>
        <time>2023-08-07T17:50:52+02:00</time>
      </trkpt>
      <trkpt lat="44.16768" lon="6.62637">
        <ele>1540.7998</ele>
        <time>2023-08-07T17:50:56+02:00</time>
      </trkpt>
      <trkpt lat="44.16771" lon="6.62641">
        <ele>1543.7998</ele>
        <time>2023-08-07T17:50:57+02:00</time>
      </trkpt>
      <trkpt lat="44.16782" lon="6.62656">
        <ele>1546.6006</ele>
        <time>2023-08-07T17:51:01+02:00</time>
      </trkpt>
      <trkpt lat="44.16785" lon="6.6266">
        <ele>1546.6006</ele>
        <time>2023-08-07T17:51:02+02:00</time>
      </trkpt>
      <trkpt lat="44.16797" lon="6.62674">
        <ele>1549.2002</ele>
        <time>2023-08-07T17:51:06+02:00</time>
      </trkpt>
      <trkpt lat="44.16799" lon="6.62678">
        <ele>1547.7002</ele>
        <time>2023-08-07T17:51:07+02:00</time>
      </trkpt>
      <trkpt lat="44.1681" lon="6.62694">
        <ele>1552.1006</ele>
        <time>2023-08-07T17:51:11+02:00</time>
      </trkpt>
      <trkpt lat="44.16813" lon="6.62698">
        <ele>1550.7998</ele>
        <time>2023-08-07T17:51:12+02:00</time>
      </trkpt>
      <trkpt lat="44.16825" lon="6.62714">
        <ele>1554.2002</ele>
        <time>2023-08-07T17:51:16+02:00</time>
      </trkpt>
      <trkpt lat="44.16828" lon="6.62717">
        <ele>1557.2002</ele>
        <time>2023-08-07T17:51:17+02:00</time>
      </trkpt>
      <trkpt lat="44.16841" lon="6.62729">
        <ele>1557.7002</ele>
        <time>2023-08-07T17:51:21+02:00</time>
      </trkpt>
      <trkpt lat="44.16844" lon="6.62731">
        <ele>1556.5</ele>
        <time>2023-08-07T17:51:22+02:00</time>
      </trkpt>
      <trkpt lat="44.16858" lon="6.62736">
        <ele>1557.1006</ele>
        <time>2023-08-07T17:51:26+02:00</time>
      </trkpt>
      <trkpt lat="44.16862" lon="6.62738">
        <ele>1556.1006</ele>
        <time>2023-08-07T17:51:27+02:00</time>
      </trkpt>
      <trkpt lat="44.16872" lon="6.62752">
        <ele>1559.5</ele>
        <time>2023-08-07T17:51:31+02:00</time>
      </trkpt>
      <trkpt lat="44.16875" lon="6.62757">
        <ele>1559.5</ele>
        <time>2023-08-07T17:51:32+02:00</time>
      </trkpt>
      <trkpt lat="44.16885" lon="6.62773">
        <ele>1562.2002</ele>
        <time>2023-08-07T17:51:36+02:00</time>
      </trkpt>
      <trkpt lat="44.16888" lon="6.62776">
        <ele>1564.7002</ele>
        <time>2023-08-07T17:51:37+02:00</time>
      </trkpt>
      <trkpt lat="44.16901" lon="6.62784">
        <ele>1562.1006</ele>
        <time>2023-08-07T17:51:41+02:00</time>
      </trkpt>
      <trkpt lat="44.16904" lon="6.62786">
        <ele>1563.1006</ele>
        <time>2023-08-07T17:51:42+02:00</time>
      </trkpt>
      <trkpt lat="44.16915" lon="6.62797">
        <ele>1563.7998</ele>
        <time>2023-08-07T17:51:46+02:00</time>
      </trkpt>
      <trkpt lat="44.16918" lon="6.628">
        <ele>1562.5</ele>
        <time>2023-08-07T17:51:47+02:00</time>
      </trkpt>
      <trkpt lat="44.16931" lon="6.62808">
        <ele>1561.9004</ele>
        <time>2023-08-07T17:51:51+02:00</time>
      </trkpt>
      <trkpt lat="44.16934" lon="6.62809">
        <ele>1560.7002</ele>
        <time>2023-08-07T17:51:52+02:00</time>
      </trkpt>
      <trkpt lat="44.16947" lon="6.62819">
        <ele>1560.4004</ele>
        <time>2023-08-07T17:51:56+02:00</time>
      </trkpt>
      <trkpt lat="44.16951" lon="6.62819">
        <ele>1562.1006</ele>
        <time>2023-08-07T17:51:57+02:00</time>
      </trkpt>
      <trkpt lat="44.16966" lon="6.62791">
        <ele>1553.1006</ele>
        <time>2023-08-07T17:52:01+02:00</time>
      </trkpt>
      <trkpt lat="44.16969" lon="6.62783">
        <ele>1551.7002</ele>
        <time>2023-08-07T17:52:02+02:00</time>
      </trkpt>
      <trkpt lat="44.16986" lon="6.62766">
        <ele>1546.5</ele>
        <time>2023-08-07T17:52:06+02:00</time>
      </trkpt>
      <trkpt lat="44.16991" lon="6.62766">
        <ele>1545.4004</ele>
        <time>2023-08-07T17:52:07+02:00</time>
      </trkpt>
      <trkpt lat="44.17009" lon="6.62777">
        <ele>1544.1006</ele>
        <time>2023-08-07T17:52:11+02:00</time>
      </trkpt>
      <trkpt lat="44.17013" lon="6.62781">
        <ele>1544.1006</ele>
        <time>2023-08-07T17:52:12+02:00</time>
      </trkpt>
      <trkpt lat="44.1703" lon="6.62803">
        <ele>1544.2002</ele>
        <time>2023-08-07T17:52:16+02:00</time>
      </trkpt>
      <trkpt lat="44.17035" lon="6.6281">
        <ele>1542.2998</ele>
        <time>2023-08-07T17:52:17+02:00</time>
      </trkpt>
      <trkpt lat="44.1706" lon="6.62831">
        <ele>1539.9004</ele>
        <time>2023-08-07T17:52:21+02:00</time>
      </trkpt>
      <trkpt lat="44.17065" lon="6.62833">
        <ele>1537.7998</ele>
        <time>2023-08-07T17:52:22+02:00</time>
      </trkpt>
      <trkpt lat="44.17086" lon="6.6283">
        <ele>1530.7998</ele>
        <time>2023-08-07T17:52:26+02:00</time>
      </trkpt>
      <trkpt lat="44.17091" lon="6.6283">
        <ele>1528.2002</ele>
        <time>2023-08-07T17:52:27+02:00</time>
      </trkpt>
      <trkpt lat="44.17116" lon="6.62836">
        <ele>1520</ele>
        <time>2023-08-07T17:52:31+02:00</time>
      </trkpt>
      <trkpt lat="44.17122" lon="6.6284">
        <ele>1517.4004</ele>
        <time>2023-08-07T17:52:32+02:00</time>
      </trkpt>
      <trkpt lat="44.17142" lon="6.62863">
        <ele>1516.7002</ele>
        <time>2023-08-07T17:52:36+02:00</time>
      </trkpt>
      <trkpt lat="44.17148" lon="6.62867">
        <ele>1514.4004</ele>
        <time>2023-08-07T17:52:37+02:00</time>
      </trkpt>
      <trkpt lat="44.17171" lon="6.6287">
        <ele>1507.5</ele>
        <time>2023-08-07T17:52:41+02:00</time>
      </trkpt>
      <trkpt lat="44.17175" lon="6.6287">
        <ele>1503.7002</ele>
        <time>2023-08-07T17:52:42+02:00</time>
      </trkpt>
      <trkpt lat="44.17195" lon="6.62877">
        <ele>1500</ele>
        <time>2023-08-07T17:52:46+02:00</time>
      </trkpt>
      <trkpt lat="44.17201" lon="6.62878">
        <ele>1498.4004</ele>
        <time>2023-08-07T17:52:47+02:00</time>
      </trkpt>
      <trkpt lat="44.17223" lon="6.62871">
        <ele>1494.2002</ele>
        <time>2023-08-07T17:52:51+02:00</time>
      </trkpt>
      <trkpt lat="44.17229" lon="6.6287">
        <ele>1491.4004</ele>
        <time>2023-08-07T17:52:52+02:00</time>
      </trkpt>
      <trkpt lat="44.17252" lon="6.62869">
        <ele>1486.4004</ele>
        <time>2023-08-07T17:52:56+02:00</time>
      </trkpt>
      <trkpt lat="44.17257" lon="6.62869">
        <ele>1485.1006</ele>
        <time>2023-08-07T17:52:57+02:00</time>
      </trkpt>
      <trkpt lat="44.17274" lon="6.62872">
        <ele>1482.1006</ele>
        <time>2023-08-07T17:53:01+02:00</time>
      </trkpt>
      <trkpt lat="44.17278" lon="6.62873">
        <ele>1482.1006</ele>
        <time>2023-08-07T17:53:02+02:00</time>
      </trkpt>
      <trkpt lat="44.17287" lon="6.62891">
        <ele>1480.6006</ele>
        <time>2023-08-07T17:53:06+02:00</time>
      </trkpt>
      <trkpt lat="44.17287" lon="6.62898">
        <ele>1481.2998</ele>
        <time>2023-08-07T17:53:07+02:00</time>
      </trkpt>
      <trkpt lat="44.17287" lon="6.62928">
        <ele>1482.2002</ele>
        <time>2023-08-07T17:53:11+02:00</time>
      </trkpt>
      <trkpt lat="44.17287" lon="6.62937">
        <ele>1482.2998</ele>
        <time>2023-08-07T17:53:12+02:00</time>
      </trkpt>
      <trkpt lat="44.17282" lon="6.62972">
        <ele>1485</ele>
        <time>2023-08-07T17:53:16+02:00</time>
      </trkpt>
      <trkpt lat="44.17282" lon="6.6298">
        <ele>1485</ele>
        <time>2023-08-07T17:53:17+02:00</time>
      </trkpt>
      <trkpt lat="44.17286" lon="6.63002">
        <ele>1481.4004</ele>
        <time>2023-08-07T17:53:21+02:00</time>
      </trkpt>
      <trkpt lat="44.17288" lon="6.63003">
        <ele>1481.4004</ele>
        <time>2023-08-07T17:53:22+02:00</time>
      </trkpt>
      <trkpt lat="44.17292" lon="6.62987">
        <ele>1479.1006</ele>
        <time>2023-08-07T17:53:26+02:00</time>
      </trkpt>
      <trkpt lat="44.17294" lon="6.62981">
        <ele>1479.2998</ele>
        <time>2023-08-07T17:53:27+02:00</time>
      </trkpt>
      <trkpt lat="44.17308" lon="6.62949">
        <ele>1474.7002</ele>
        <time>2023-08-07T17:53:31+02:00</time>
      </trkpt>
      <trkpt lat="44.17315" lon="6.62941">
        <ele>1472.5</ele>
        <time>2023-08-07T17:53:32+02:00</time>
      </trkpt>
      <trkpt lat="44.17342" lon="6.62915">
        <ele>1461.6006</ele>
        <time>2023-08-07T17:53:36+02:00</time>
      </trkpt>
      <trkpt lat="44.17349" lon="6.6291">
        <ele>1459.7998</ele>
        <time>2023-08-07T17:53:37+02:00</time>
      </trkpt>
      <trkpt lat="44.17373" lon="6.6289">
        <ele>1451.2998</ele>
        <time>2023-08-07T17:53:41+02:00</time>
      </trkpt>
      <trkpt lat="44.17379" lon="6.62886">
        <ele>1449.7002</ele>
        <time>2023-08-07T17:53:42+02:00</time>
      </trkpt>
      <trkpt lat="44.17402" lon="6.62874">
        <ele>1441.2998</ele>
        <time>2023-08-07T17:53:46+02:00</time>
      </trkpt>
      <trkpt lat="44.17408" lon="6.62871">
        <ele>1439</ele>
        <time>2023-08-07T17:53:47+02:00</time>
      </trkpt>
      <trkpt lat="44.17435" lon="6.62852">
        <ele>1434.7998</ele>
        <time>2023-08-07T17:53:51+02:00</time>
      </trkpt>
      <trkpt lat="44.17441" lon="6.62847">
        <ele>1433</ele>
        <time>2023-08-07T17:53:52+02:00</time>
      </trkpt>
      <trkpt lat="44.17467" lon="6.62821">
        <ele>1429.6006</ele>
        <time>2023-08-07T17:53:56+02:00</time>
      </trkpt>
      <trkpt lat="44.17472" lon="6.62816">
        <ele>1429.4004</ele>
        <time>2023-08-07T17:53:57+02:00</time>
      </trkpt>
      <trkpt lat="44.17498" lon="6.62801">
        <ele>1426</ele>
        <time>2023-08-07T17:54:01+02:00</time>
      </trkpt>
      <trkpt lat="44.17505" lon="6.62799">
        <ele>1424.2998</ele>
        <time>2023-08-07T17:54:02+02:00</time>
      </trkpt>
      <trkpt lat="44.17527" lon="6.62792">
        <ele>1419.1006</ele>
        <time>2023-08-07T17:54:06+02:00</time>
      </trkpt>
      <trkpt lat="44.17531" lon="6.62791">
        <ele>1417.2998</ele>
        <time>2023-08-07T17:54:07+02:00</time>
      </trkpt>
      <trkpt lat="44.17548" lon="6.62787">
        <ele>1413.5</ele>
        <time>2023-08-07T17:54:11+02:00</time>
      </trkpt>
      <trkpt lat="44.17553" lon="6.62787">
        <ele>1411.4004</ele>
        <time>2023-08-07T17:54:12+02:00</time>
      </trkpt>
      <trkpt lat="44.17573" lon="6.6278">
        <ele>1406.9004</ele>
        <time>2023-08-07T17:54:16+02:00</time>
      </trkpt>
      <trkpt lat="44.17579" lon="6.62777">
        <ele>1404.6006</ele>
        <time>2023-08-07T17:54:17+02:00</time>
      </trkpt>
      <trkpt lat="44.17599" lon="6.6277">
        <ele>1397.4004</ele>
        <time>2023-08-07T17:54:21+02:00</time>
      </trkpt>
      <trkpt lat="44.17603" lon="6.62768">
        <ele>1397.4004</ele>
        <time>2023-08-07T17:54:22+02:00</time>
      </trkpt>
      <trkpt lat="44.17618" lon="6.62762">
        <ele>1391.7998</ele>
        <time>2023-08-07T17:54:26+02:00</time>
      </trkpt>
      <trkpt lat="44.17621" lon="6.62759">
        <ele>1391.7998</ele>
        <time>2023-08-07T17:54:27+02:00</time>
      </trkpt>
      <trkpt lat="44.1763" lon="6.6274">
        <ele>1392.2998</ele>
        <time>2023-08-07T17:54:31+02:00</time>
      </trkpt>
      <trkpt lat="44.17633" lon="6.62736">
        <ele>1392.2998</ele>
        <time>2023-08-07T17:54:32+02:00</time>
      </trkpt>
      <trkpt lat="44.17643" lon="6.62719">
        <ele>1389.9004</ele>
        <time>2023-08-07T17:54:36+02:00</time>
      </trkpt>
      <trkpt lat="44.17646" lon="6.62714">
        <ele>1391.2002</ele>
        <time>2023-08-07T17:54:37+02:00</time>
      </trkpt>
      <trkpt lat="44.17657" lon="6.62691">
        <ele>1387</ele>
        <time>2023-08-07T17:54:41+02:00</time>
      </trkpt>
      <trkpt lat="44.1766" lon="6.62684">
        <ele>1387.5</ele>
        <time>2023-08-07T17:54:42+02:00</time>
      </trkpt>
      <trkpt lat="44.17667" lon="6.62662">
        <ele>1381.2998</ele>
        <time>2023-08-07T17:54:46+02:00</time>
      </trkpt>
      <trkpt lat="44.17668" lon="6.62657">
        <ele>1381.2998</ele>
        <time>2023-08-07T17:54:47+02:00</time>
      </trkpt>
      <trkpt lat="44.17672" lon="6.62632">
        <ele>1379.6006</ele>
        <time>2023-08-07T17:54:51+02:00</time>
      </trkpt>
      <trkpt lat="44.17673" lon="6.62625">
        <ele>1375.4004</ele>
        <time>2023-08-07T17:54:52+02:00</time>
      </trkpt>
      <trkpt lat="44.17679" lon="6.62595">
        <ele>1365.9004</ele>
        <time>2023-08-07T17:54:56+02:00</time>
      </trkpt>
      <trkpt lat="44.17679" lon="6.62587">
        <ele>1365.9004</ele>
        <time>2023-08-07T17:54:57+02:00</time>
      </trkpt>
      <trkpt lat="44.17677" lon="6.62556">
        <ele>1359.4004</ele>
        <time>2023-08-07T17:55:01+02:00</time>
      </trkpt>
      <trkpt lat="44.17676" lon="6.62549">
        <ele>1356.5</ele>
        <time>2023-08-07T17:55:02+02:00</time>
      </trkpt>
      <trkpt lat="44.17671" lon="6.62525">
        <ele>1349.9004</ele>
        <time>2023-08-07T17:55:06+02:00</time>
      </trkpt>
      <trkpt lat="44.1767" lon="6.62519">
        <ele>1349.9004</ele>
        <time>2023-08-07T17:55:07+02:00</time>
      </trkpt>
      <trkpt lat="44.1767" lon="6.62499">
        <ele>1340.2998</ele>
        <time>2023-08-07T17:55:11+02:00</time>
      </trkpt>
      <trkpt lat="44.17669" lon="6.62495">
        <ele>1340.2998</ele>
        <time>2023-08-07T17:55:12+02:00</time>
      </trkpt>
      <trkpt lat="44.17656" lon="6.62483">
        <ele>1337.5</ele>
        <time>2023-08-07T17:55:16+02:00</time>
      </trkpt>
      <trkpt lat="44.17653" lon="6.62481">
        <ele>1339.2002</ele>
        <time>2023-08-07T17:55:17+02:00</time>
      </trkpt>
      <trkpt lat="44.17657" lon="6.6247">
        <ele>1334.2002</ele>
        <time>2023-08-07T17:55:21+02:00</time>
      </trkpt>
      <trkpt lat="44.17662" lon="6.62469">
        <ele>1332.4004</ele>
        <time>2023-08-07T17:55:22+02:00</time>
      </trkpt>
      <trkpt lat="44.17679" lon="6.62475">
        <ele>1326.4004</ele>
        <time>2023-08-07T17:55:26+02:00</time>
      </trkpt>
      <trkpt lat="44.17682" lon="6.62479">
        <ele>1329.4004</ele>
        <time>2023-08-07T17:55:27+02:00</time>
      </trkpt>
      <trkpt lat="44.17692" lon="6.62495">
        <ele>1330.2002</ele>
        <time>2023-08-07T17:55:31+02:00</time>
      </trkpt>
      <trkpt lat="44.17695" lon="6.625">
        <ele>1330.2002</ele>
        <time>2023-08-07T17:55:32+02:00</time>
      </trkpt>
      <trkpt lat="44.17709" lon="6.62515">
        <ele>1329.2002</ele>
        <time>2023-08-07T17:55:36+02:00</time>
      </trkpt>
      <trkpt lat="44.17713" lon="6.62519">
        <ele>1328</ele>
        <time>2023-08-07T17:55:37+02:00</time>
      </trkpt>
      <trkpt lat="44.17728" lon="6.6254">
        <ele>1320.6006</ele>
        <time>2023-08-07T17:55:41+02:00</time>
      </trkpt>
      <trkpt lat="44.17731" lon="6.62545">
        <ele>1322.7002</ele>
        <time>2023-08-07T17:55:42+02:00</time>
      </trkpt>
      <trkpt lat="44.17742" lon="6.62561">
        <ele>1315.7002</ele>
        <time>2023-08-07T17:55:46+02:00</time>
      </trkpt>
      <trkpt lat="44.17745" lon="6.62565">
        <ele>1317.5</ele>
        <time>2023-08-07T17:55:47+02:00</time>
      </trkpt>
      <trkpt lat="44.17754" lon="6.6259">
        <ele>1312.2998</ele>
        <time>2023-08-07T17:55:51+02:00</time>
      </trkpt>
      <trkpt lat="44.17757" lon="6.62599">
        <ele>1313.4004</ele>
        <time>2023-08-07T17:55:52+02:00</time>
      </trkpt>
      <trkpt lat="44.17768" lon="6.62631">
        <ele>1306.7998</ele>
        <time>2023-08-07T17:55:56+02:00</time>
      </trkpt>
      <trkpt lat="44.1777" lon="6.62638">
        <ele>1306.7998</ele>
        <time>2023-08-07T17:55:57+02:00</time>
      </trkpt>
      <trkpt lat="44.17776" lon="6.62664">
        <ele>1302.7998</ele>
        <time>2023-08-07T17:56:01+02:00</time>
      </trkpt>
      <trkpt lat="44.17778" lon="6.62672">
        <ele>1298</ele>
        <time>2023-08-07T17:56:02+02:00</time>
      </trkpt>
      <trkpt lat="44.17787" lon="6.62701">
        <ele>1292.1006</ele>
        <time>2023-08-07T17:56:06+02:00</time>
      </trkpt>
      <trkpt lat="44.17788" lon="6.62711">
        <ele>1291.5</ele>
        <time>2023-08-07T17:56:07+02:00</time>
      </trkpt>
      <trkpt lat="44.17792" lon="6.62748">
        <ele>1284.1006</ele>
        <time>2023-08-07T17:56:11+02:00</time>
      </trkpt>
      <trkpt lat="44.17793" lon="6.62756">
        <ele>1283.4004</ele>
        <time>2023-08-07T17:56:12+02:00</time>
      </trkpt>
      <trkpt lat="44.17797" lon="6.62774">
        <ele>1278.5</ele>
        <time>2023-08-07T17:56:16+02:00</time>
      </trkpt>
      <trkpt lat="44.17799" lon="6.62775">
        <ele>1278.5</ele>
        <time>2023-08-07T17:56:17+02:00</time>
      </trkpt>
      <trkpt lat="44.17806" lon="6.6276">
        <ele>1275.7002</ele>
        <time>2023-08-07T17:56:21+02:00</time>
      </trkpt>
      <trkpt lat="44.17807" lon="6.62753">
        <ele>1276.2002</ele>
        <time>2023-08-07T17:56:22+02:00</time>
      </trkpt>
      <trkpt lat="44.17811" lon="6.62718">
        <ele>1275</ele>
        <time>2023-08-07T17:56:26+02:00</time>
      </trkpt>
      <trkpt lat="44.17811" lon="6.6271">
        <ele>1275.5</ele>
        <time>2023-08-07T17:56:27+02:00</time>
      </trkpt>
      <trkpt lat="44.17813" lon="6.62679">
        <ele>1277.2002</ele>
        <time>2023-08-07T17:56:31+02:00</time>
      </trkpt>
      <trkpt lat="44.17812" lon="6.62672">
        <ele>1277.2998</ele>
        <time>2023-08-07T17:56:32+02:00</time>
      </trkpt>
      <trkpt lat="44.17814" lon="6.62651">
        <ele>1277</ele>
        <time>2023-08-07T17:56:36+02:00</time>
      </trkpt>
      <trkpt lat="44.17815" lon="6.62646">
        <ele>1273.2998</ele>
        <time>2023-08-07T17:56:37+02:00</time>
      </trkpt>
      <trkpt lat="44.17821" lon="6.62628">
        <ele>1269.6006</ele>
        <time>2023-08-07T17:56:41+02:00</time>
      </trkpt>
      <trkpt lat="44.17822" lon="6.62624">
        <ele>1269.6006</ele>
        <time>2023-08-07T17:56:42+02:00</time>
      </trkpt>
      <trkpt lat="44.17824" lon="6.62603">
        <ele>1268.1006</ele>
        <time>2023-08-07T17:56:46+02:00</time>
      </trkpt>
      <trkpt lat="44.17824" lon="6.62598">
        <ele>1268.1006</ele>
        <time>2023-08-07T17:56:47+02:00</time>
      </trkpt>
      <trkpt lat="44.17826" lon="6.62574">
        <ele>1266.2002</ele>
        <time>2023-08-07T17:56:51+02:00</time>
      </trkpt>
      <trkpt lat="44.17827" lon="6.62568">
        <ele>1262.7002</ele>
        <time>2023-08-07T17:56:52+02:00</time>
      </trkpt>
      <trkpt lat="44.17834" lon="6.62569">
        <ele>1260</ele>
        <time>2023-08-07T17:56:56+02:00</time>
      </trkpt>
      <trkpt lat="44.17835" lon="6.62573">
        <ele>1260.6006</ele>
        <time>2023-08-07T17:56:57+02:00</time>
      </trkpt>
      <trkpt lat="44.17845" lon="6.62592">
        <ele>1258.9004</ele>
        <time>2023-08-07T17:57:01+02:00</time>
      </trkpt>
      <trkpt lat="44.17847" lon="6.62597">
        <ele>1256.7002</ele>
        <time>2023-08-07T17:57:02+02:00</time>
      </trkpt>
      <trkpt lat="44.17855" lon="6.62617">
        <ele>1254.9004</ele>
        <time>2023-08-07T17:57:06+02:00</time>
      </trkpt>
      <trkpt lat="44.17857" lon="6.62624">
        <ele>1252.9004</ele>
        <time>2023-08-07T17:57:07+02:00</time>
      </trkpt>
      <trkpt lat="44.17866" lon="6.62648">
        <ele>1251.4004</ele>
        <time>2023-08-07T17:57:11+02:00</time>
      </trkpt>
      <trkpt lat="44.1787" lon="6.62651">
        <ele>1249.9004</ele>
        <time>2023-08-07T17:57:12+02:00</time>
      </trkpt>
      <trkpt lat="44.17889" lon="6.6264">
        <ele>1247</ele>
        <time>2023-08-07T17:57:16+02:00</time>
      </trkpt>
      <trkpt lat="44.17893" lon="6.62633">
        <ele>1246.9004</ele>
        <time>2023-08-07T17:57:17+02:00</time>
      </trkpt>
      <trkpt lat="44.17895" lon="6.62604">
        <ele>1245.6006</ele>
        <time>2023-08-07T17:57:21+02:00</time>
      </trkpt>
      <trkpt lat="44.17895" lon="6.62598">
        <ele>1245.6006</ele>
        <time>2023-08-07T17:57:22+02:00</time>
      </trkpt>
      <trkpt lat="44.17907" lon="6.62581">
        <ele>1243.9004</ele>
        <time>2023-08-07T17:57:26+02:00</time>
      </trkpt>
      <trkpt lat="44.17911" lon="6.6258">
        <ele>1243.9004</ele>
        <time>2023-08-07T17:57:27+02:00</time>
      </trkpt>
      <trkpt lat="44.17928" lon="6.62575">
        <ele>1241</ele>
        <time>2023-08-07T17:57:31+02:00</time>
      </trkpt>
      <trkpt lat="44.17933" lon="6.62574">
        <ele>1240.6006</ele>
        <time>2023-08-07T17:57:32+02:00</time>
      </trkpt>
      <trkpt lat="44.17952" lon="6.6257">
        <ele>1240.5</ele>
        <time>2023-08-07T17:57:36+02:00</time>
      </trkpt>
      <trkpt lat="44.17957" lon="6.62569">
        <ele>1240.7002</ele>
        <time>2023-08-07T17:57:37+02:00</time>
      </trkpt>
      <trkpt lat="44.17974" lon="6.6257">
        <ele>1241.6006</ele>
        <time>2023-08-07T17:57:41+02:00</time>
      </trkpt>
      <trkpt lat="44.17979" lon="6.62573">
        <ele>1241.7002</ele>
        <time>2023-08-07T17:57:42+02:00</time>
      </trkpt>
      <trkpt lat="44.17997" lon="6.62582">
        <ele>1242.7002</ele>
        <time>2023-08-07T17:57:46+02:00</time>
      </trkpt>
      <trkpt lat="44.18001" lon="6.62583">
        <ele>1243.1006</ele>
        <time>2023-08-07T17:57:47+02:00</time>
      </trkpt>
      <trkpt lat="44.18019" lon="6.62587">
        <ele>1244</ele>
        <time>2023-08-07T17:57:51+02:00</time>
      </trkpt>
      <trkpt lat="44.18024" lon="6.62588">
        <ele>1244.5</ele>
        <time>2023-08-07T17:57:52+02:00</time>
      </trkpt>
      <trkpt lat="44.18041" lon="6.62593">
        <ele>1245.1006</ele>
        <time>2023-08-07T17:57:56+02:00</time>
      </trkpt>
      <trkpt lat="44.18045" lon="6.62596">
        <ele>1245.6006</ele>
        <time>2023-08-07T17:57:57+02:00</time>
      </trkpt>
      <trkpt lat="44.18057" lon="6.62616">
        <ele>1246.5</ele>
        <time>2023-08-07T17:58:01+02:00</time>
      </trkpt>
      <trkpt lat="44.18059" lon="6.62623">
        <ele>1246.7002</ele>
        <time>2023-08-07T17:58:02+02:00</time>
      </trkpt>
      <trkpt lat="44.18065" lon="6.62648">
        <ele>1247.4004</ele>
        <time>2023-08-07T17:58:06+02:00</time>
      </trkpt>
      <trkpt lat="44.18067" lon="6.62654">
        <ele>1247.6006</ele>
        <time>2023-08-07T17:58:07+02:00</time>
      </trkpt>
      <trkpt lat="44.18069" lon="6.62678">
        <ele>1247.7002</ele>
        <time>2023-08-07T17:58:11+02:00</time>
      </trkpt>
      <trkpt lat="44.1807" lon="6.62684">
        <ele>1247.7002</ele>
        <time>2023-08-07T17:58:12+02:00</time>
      </trkpt>
      <trkpt lat="44.18079" lon="6.62705">
        <ele>1247.6006</ele>
        <time>2023-08-07T17:58:16+02:00</time>
      </trkpt>
      <trkpt lat="44.18081" lon="6.62711">
        <ele>1247.5</ele>
        <time>2023-08-07T17:58:17+02:00</time>
      </trkpt>
      <trkpt lat="44.18093" lon="6.6273">
        <ele>1247.2002</ele>
        <time>2023-08-07T17:58:21+02:00</time>
      </trkpt>
      <trkpt lat="44.18097" lon="6.62735">
        <ele>1246.9004</ele>
        <time>2023-08-07T17:58:22+02:00</time>
      </trkpt>
      <trkpt lat="44.1811" lon="6.62753">
        <ele>1246.4004</ele>
        <time>2023-08-07T17:58:26+02:00</time>
      </trkpt>
      <trkpt lat="44.18113" lon="6.62757">
        <ele>1246.4004</ele>
        <time>2023-08-07T17:58:27+02:00</time>
      </trkpt>
      <trkpt lat="44.18127" lon="6.62772">
        <ele>1245.9004</ele>
        <time>2023-08-07T17:58:31+02:00</time>
      </trkpt>
      <trkpt lat="44.18132" lon="6.62775">
        <ele>1245.9004</ele>
        <time>2023-08-07T17:58:32+02:00</time>
      </trkpt>
      <trkpt lat="44.1815" lon="6.62776">
        <ele>1245.9004</ele>
        <time>2023-08-07T17:58:36+02:00</time>
      </trkpt>
      <trkpt lat="44.18154" lon="6.62774">
        <ele>1246</ele>
        <time>2023-08-07T17:58:37+02:00</time>
      </trkpt>
      <trkpt lat="44.18173" lon="6.62769">
        <ele>1246.2002</ele>
        <time>2023-08-07T17:58:41+02:00</time>
      </trkpt>
      <trkpt lat="44.18177" lon="6.62768">
        <ele>1246.2998</ele>
        <time>2023-08-07T17:58:42+02:00</time>
      </trkpt>
      <trkpt lat="44.18196" lon="6.62763">
        <ele>1246.5</ele>
        <time>2023-08-07T17:58:46+02:00</time>
      </trkpt>
      <trkpt lat="44.18201" lon="6.62761">
        <ele>1246.5</ele>
        <time>2023-08-07T17:58:47+02:00</time>
      </trkpt>
      <trkpt lat="44.18219" lon="6.62754">
        <ele>1247</ele>
        <time>2023-08-07T17:58:51+02:00</time>
      </trkpt>
      <trkpt lat="44.18221" lon="6.62751">
        <ele>1247.2002</ele>
        <time>2023-08-07T17:58:52+02:00</time>
      </trkpt>
      <trkpt lat="44.18217" lon="6.62742">
        <ele>1247.1006</ele>
        <time>2023-08-07T17:58:56+02:00</time>
      </trkpt>
      <trkpt lat="44.18215" lon="6.6274">
        <ele>1247.1006</ele>
        <time>2023-08-07T17:58:57+02:00</time>
      </trkpt>
      <trkpt lat="44.18205" lon="6.62736">
        <ele>1247</ele>
        <time>2023-08-07T17:59:01+02:00</time>
      </trkpt>
      <trkpt lat="44.18202" lon="6.62735">
        <ele>1247</ele>
        <time>2023-08-07T17:59:02+02:00</time>
      </trkpt>
      <trkpt lat="44.18193" lon="6.62726">
        <ele>1247.1006</ele>
        <time>2023-08-07T17:59:06+02:00</time>
      </trkpt>
      <trkpt lat="44.18191" lon="6.62723">
        <ele>1247.1006</ele>
        <time>2023-08-07T17:59:07+02:00</time>
      </trkpt>
      <trkpt lat="44.18186" lon="6.62708">
        <ele>1247.2002</ele>
        <time>2023-08-07T17:59:11+02:00</time>
      </trkpt>
      <trkpt lat="44.18187" lon="6.62704">
        <ele>1247.2002</ele>
        <time>2023-08-07T17:59:12+02:00</time>
      </trkpt>
      <trkpt lat="44.18191" lon="6.62697">
        <ele>1247.1006</ele>
        <time>2023-08-07T17:59:16+02:00</time>
      </trkpt>
      <trkpt lat="44.18191" lon="6.62698">
        <ele>1247.1006</ele>
        <time>2023-08-07T17:59:17+02:00</time>
      </trkpt>
      <trkpt lat="44.18191" lon="6.62698">
        <ele>1247.1006</ele>
        <time>2023-08-07T17:59:21+02:00</time>
      </trkpt>
      <trkpt lat="44.18191" lon="6.62698">
        <ele>1247.1006</ele>
        <time>2023-08-07T17:59:22+02:00</time>
      </trkpt>
      <trkpt lat="44.18191" lon="6.62698">
        <ele>1247.1006</ele>
        <time>2023-08-07T17:59:26+02:00</time>
      </trkpt>
      <trkpt lat="44.18191" lon="6.62698">
        <ele>1247.1006</ele>
        <time>2023-08-07T17:59:27+02:00</time>
      </trkpt>
      <trkpt lat="44.18191" lon="6.62698">
        <ele>1247.1006</ele>
        <time>2023-08-07T17:59:31+02:00</time>
      </trkpt>
      <trkpt lat="44.18191" lon="6.62698">
        <ele>1247.1006</ele>
        <time>2023-08-07T17:59:32+02:00</time>
      </trkpt>
      <trkpt lat="44.18191" lon="6.62698">
        <ele>1247.1006</ele>
        <time>2023-08-07T17:59:36+02:00</time>
      </trkpt>
      <trkpt lat="44.18191" lon="6.62698">
        <ele>1247.1006</ele>
        <time>2023-08-07T17:59:37+02:00</time>
      </trkpt>
      <trkpt lat="44.18188" lon="6.62705">
        <ele>1247.2002</ele>
        <time>2023-08-07T17:59:41+02:00</time>
      </trkpt>
      <trkpt lat="44.18188" lon="6.62707">
        <ele>1247.2002</ele>
        <time>2023-08-07T17:59:42+02:00</time>
      </trkpt>
    </trkseg>
  </trk>
</gpx>